<?xml version="1.0" encoding="UTF-8" standalone="no" ?>
<gpx xmlns="http://www.topografix.com/GPX/1/1" xmlns:xsi="http://www.w3.org/2001/XMLSchema-instance" xsi:schemaLocation="http://www.topografix.com/GPX/1/1 http://www.topografix.com/GPX/1/1/gpx.xsd" version="1.1" creator="VisuGPX - https://www.visugpx.com">
  <metadata>
    <name>Hortis et Pic St Loup, descentes raides</name>
    <desc><![CDATA[Sortie "courte" permettant de boucler les 2 sommets, Hortus et Pic St Loup.
Attention, descentes techniques et engagées.]]></desc>
  </metadata>
  <trk>
    <name><![CDATA[Hortis et Pic St Loup, descentes raides_1]]></name>
    <trkseg>
      <trkpt lat="43.78817" lon="3.80619">
        <ele>236.6</ele>
        <time>2024-02-23T11:02:35Z</time>
      </trkpt>
      <trkpt lat="43.78819" lon="3.80619">
        <ele>236.6</ele>
        <time>2024-02-23T11:02:38Z</time>
      </trkpt>
      <trkpt lat="43.78821" lon="3.80619">
        <ele>236.6</ele>
        <time>2024-02-23T11:02:39Z</time>
      </trkpt>
      <trkpt lat="43.78822" lon="3.8062">
        <ele>236.6</ele>
        <time>2024-02-23T11:02:40Z</time>
      </trkpt>
      <trkpt lat="43.78824" lon="3.8062">
        <ele>236.6</ele>
        <time>2024-02-23T11:02:41Z</time>
      </trkpt>
      <trkpt lat="43.78826" lon="3.8062">
        <ele>236.6</ele>
        <time>2024-02-23T11:02:42Z</time>
      </trkpt>
      <trkpt lat="43.78827" lon="3.8062">
        <ele>236.6</ele>
        <time>2024-02-23T11:02:43Z</time>
      </trkpt>
      <trkpt lat="43.78829" lon="3.8062">
        <ele>236.8</ele>
        <time>2024-02-23T11:02:44Z</time>
      </trkpt>
      <trkpt lat="43.78829" lon="3.8062">
        <ele>237.2</ele>
        <time>2024-02-23T11:02:45Z</time>
      </trkpt>
      <trkpt lat="43.78833" lon="3.8062">
        <ele>237.4</ele>
        <time>2024-02-23T11:02:46Z</time>
      </trkpt>
      <trkpt lat="43.78833" lon="3.8062">
        <ele>237.8</ele>
        <time>2024-02-23T11:02:47Z</time>
      </trkpt>
      <trkpt lat="43.78836" lon="3.80622">
        <ele>237.8</ele>
        <time>2024-02-23T11:02:48Z</time>
      </trkpt>
      <trkpt lat="43.78836" lon="3.80622">
        <ele>237.8</ele>
        <time>2024-02-23T11:02:49Z</time>
      </trkpt>
      <trkpt lat="43.78839" lon="3.80622">
        <ele>237.8</ele>
        <time>2024-02-23T11:02:50Z</time>
      </trkpt>
      <trkpt lat="43.78841" lon="3.80623">
        <ele>237.8</ele>
        <time>2024-02-23T11:02:51Z</time>
      </trkpt>
      <trkpt lat="43.78843" lon="3.80622">
        <ele>237.8</ele>
        <time>2024-02-23T11:02:52Z</time>
      </trkpt>
      <trkpt lat="43.78843" lon="3.80622">
        <ele>237.8</ele>
        <time>2024-02-23T11:02:53Z</time>
      </trkpt>
      <trkpt lat="43.78846" lon="3.80621">
        <ele>237.6</ele>
        <time>2024-02-23T11:02:54Z</time>
      </trkpt>
      <trkpt lat="43.78848" lon="3.8062">
        <ele>237.4</ele>
        <time>2024-02-23T11:02:55Z</time>
      </trkpt>
      <trkpt lat="43.7885" lon="3.80619">
        <ele>237.2</ele>
        <time>2024-02-23T11:02:56Z</time>
      </trkpt>
      <trkpt lat="43.78852" lon="3.80618">
        <ele>237.2</ele>
        <time>2024-02-23T11:02:57Z</time>
      </trkpt>
      <trkpt lat="43.78854" lon="3.80617">
        <ele>237.2</ele>
        <time>2024-02-23T11:02:58Z</time>
      </trkpt>
      <trkpt lat="43.78856" lon="3.80616">
        <ele>237.2</ele>
        <time>2024-02-23T11:02:59Z</time>
      </trkpt>
      <trkpt lat="43.78858" lon="3.80615">
        <ele>237.2</ele>
        <time>2024-02-23T11:03:00Z</time>
      </trkpt>
      <trkpt lat="43.78861" lon="3.80614">
        <ele>237.2</ele>
        <time>2024-02-23T11:03:01Z</time>
      </trkpt>
      <trkpt lat="43.78864" lon="3.80614">
        <ele>237.4</ele>
        <time>2024-02-23T11:03:02Z</time>
      </trkpt>
      <trkpt lat="43.78866" lon="3.80614">
        <ele>237.4</ele>
        <time>2024-02-23T11:03:03Z</time>
      </trkpt>
      <trkpt lat="43.78868" lon="3.80615">
        <ele>237.6</ele>
        <time>2024-02-23T11:03:04Z</time>
      </trkpt>
      <trkpt lat="43.7887" lon="3.80617">
        <ele>238</ele>
        <time>2024-02-23T11:03:05Z</time>
      </trkpt>
      <trkpt lat="43.78871" lon="3.8062">
        <ele>238.2</ele>
        <time>2024-02-23T11:03:06Z</time>
      </trkpt>
      <trkpt lat="43.78873" lon="3.80622">
        <ele>238.6</ele>
        <time>2024-02-23T11:03:07Z</time>
      </trkpt>
      <trkpt lat="43.78874" lon="3.80625">
        <ele>238.8</ele>
        <time>2024-02-23T11:03:08Z</time>
      </trkpt>
      <trkpt lat="43.78875" lon="3.80628">
        <ele>239</ele>
        <time>2024-02-23T11:03:09Z</time>
      </trkpt>
      <trkpt lat="43.78875" lon="3.8063">
        <ele>239.4</ele>
        <time>2024-02-23T11:03:10Z</time>
      </trkpt>
      <trkpt lat="43.78877" lon="3.80633">
        <ele>239.8</ele>
        <time>2024-02-23T11:03:11Z</time>
      </trkpt>
      <trkpt lat="43.78877" lon="3.80635">
        <ele>240.2</ele>
        <time>2024-02-23T11:03:12Z</time>
      </trkpt>
      <trkpt lat="43.78877" lon="3.80635">
        <ele>240.6</ele>
        <time>2024-02-23T11:03:13Z</time>
      </trkpt>
      <trkpt lat="43.78878" lon="3.80639">
        <ele>241</ele>
        <time>2024-02-23T11:03:14Z</time>
      </trkpt>
      <trkpt lat="43.78878" lon="3.80639">
        <ele>241.4</ele>
        <time>2024-02-23T11:03:15Z</time>
      </trkpt>
      <trkpt lat="43.78882" lon="3.80641">
        <ele>241.8</ele>
        <time>2024-02-23T11:03:16Z</time>
      </trkpt>
      <trkpt lat="43.78884" lon="3.80642">
        <ele>242</ele>
        <time>2024-02-23T11:03:17Z</time>
      </trkpt>
      <trkpt lat="43.78885" lon="3.80643">
        <ele>242.2</ele>
        <time>2024-02-23T11:03:18Z</time>
      </trkpt>
      <trkpt lat="43.78886" lon="3.80645">
        <ele>242.6</ele>
        <time>2024-02-23T11:03:19Z</time>
      </trkpt>
      <trkpt lat="43.78888" lon="3.80648">
        <ele>242.8</ele>
        <time>2024-02-23T11:03:20Z</time>
      </trkpt>
      <trkpt lat="43.7889" lon="3.8065">
        <ele>243</ele>
        <time>2024-02-23T11:03:21Z</time>
      </trkpt>
      <trkpt lat="43.78892" lon="3.80652">
        <ele>243.2</ele>
        <time>2024-02-23T11:03:22Z</time>
      </trkpt>
      <trkpt lat="43.78892" lon="3.80652">
        <ele>243.6</ele>
        <time>2024-02-23T11:03:23Z</time>
      </trkpt>
      <trkpt lat="43.78894" lon="3.80654">
        <ele>243.8</ele>
        <time>2024-02-23T11:03:24Z</time>
      </trkpt>
      <trkpt lat="43.78896" lon="3.80654">
        <ele>243.8</ele>
        <time>2024-02-23T11:03:25Z</time>
      </trkpt>
      <trkpt lat="43.78898" lon="3.80655">
        <ele>244</ele>
        <time>2024-02-23T11:03:26Z</time>
      </trkpt>
      <trkpt lat="43.78898" lon="3.80655">
        <ele>244.4</ele>
        <time>2024-02-23T11:03:27Z</time>
      </trkpt>
      <trkpt lat="43.78902" lon="3.80657">
        <ele>244.4</ele>
        <time>2024-02-23T11:03:28Z</time>
      </trkpt>
      <trkpt lat="43.78902" lon="3.80657">
        <ele>244.6</ele>
        <time>2024-02-23T11:03:29Z</time>
      </trkpt>
      <trkpt lat="43.78905" lon="3.80659">
        <ele>244.8</ele>
        <time>2024-02-23T11:03:30Z</time>
      </trkpt>
      <trkpt lat="43.78907" lon="3.8066">
        <ele>245</ele>
        <time>2024-02-23T11:03:31Z</time>
      </trkpt>
      <trkpt lat="43.78908" lon="3.80661">
        <ele>245</ele>
        <time>2024-02-23T11:03:32Z</time>
      </trkpt>
      <trkpt lat="43.7891" lon="3.80663">
        <ele>245</ele>
        <time>2024-02-23T11:03:33Z</time>
      </trkpt>
      <trkpt lat="43.78912" lon="3.80665">
        <ele>245.2</ele>
        <time>2024-02-23T11:03:34Z</time>
      </trkpt>
      <trkpt lat="43.78913" lon="3.80667">
        <ele>245.4</ele>
        <time>2024-02-23T11:03:35Z</time>
      </trkpt>
      <trkpt lat="43.78914" lon="3.80669">
        <ele>245.8</ele>
        <time>2024-02-23T11:03:36Z</time>
      </trkpt>
      <trkpt lat="43.78915" lon="3.80672">
        <ele>246.2</ele>
        <time>2024-02-23T11:03:37Z</time>
      </trkpt>
      <trkpt lat="43.78915" lon="3.80672">
        <ele>246.6</ele>
        <time>2024-02-23T11:03:38Z</time>
      </trkpt>
      <trkpt lat="43.78916" lon="3.80676">
        <ele>247</ele>
        <time>2024-02-23T11:03:39Z</time>
      </trkpt>
      <trkpt lat="43.78916" lon="3.80676">
        <ele>247.4</ele>
        <time>2024-02-23T11:03:40Z</time>
      </trkpt>
      <trkpt lat="43.78916" lon="3.8068">
        <ele>247.8</ele>
        <time>2024-02-23T11:03:41Z</time>
      </trkpt>
      <trkpt lat="43.78916" lon="3.8068">
        <ele>248</ele>
        <time>2024-02-23T11:03:42Z</time>
      </trkpt>
      <trkpt lat="43.78916" lon="3.80684">
        <ele>248.4</ele>
        <time>2024-02-23T11:03:43Z</time>
      </trkpt>
      <trkpt lat="43.78916" lon="3.80684">
        <ele>248.6</ele>
        <time>2024-02-23T11:03:44Z</time>
      </trkpt>
      <trkpt lat="43.78917" lon="3.80688">
        <ele>248.8</ele>
        <time>2024-02-23T11:03:45Z</time>
      </trkpt>
      <trkpt lat="43.78917" lon="3.80688">
        <ele>249</ele>
        <time>2024-02-23T11:03:46Z</time>
      </trkpt>
      <trkpt lat="43.7892" lon="3.80691">
        <ele>249.2</ele>
        <time>2024-02-23T11:03:47Z</time>
      </trkpt>
      <trkpt lat="43.7892" lon="3.80691">
        <ele>249.6</ele>
        <time>2024-02-23T11:03:48Z</time>
      </trkpt>
      <trkpt lat="43.78922" lon="3.80693">
        <ele>249.8</ele>
        <time>2024-02-23T11:03:49Z</time>
      </trkpt>
      <trkpt lat="43.78922" lon="3.80693">
        <ele>249.8</ele>
        <time>2024-02-23T11:03:50Z</time>
      </trkpt>
      <trkpt lat="43.78925" lon="3.80693">
        <ele>250</ele>
        <time>2024-02-23T11:03:51Z</time>
      </trkpt>
      <trkpt lat="43.78925" lon="3.80693">
        <ele>250.2</ele>
        <time>2024-02-23T11:03:52Z</time>
      </trkpt>
      <trkpt lat="43.78926" lon="3.80697">
        <ele>250.4</ele>
        <time>2024-02-23T11:03:53Z</time>
      </trkpt>
      <trkpt lat="43.78926" lon="3.80697">
        <ele>250.6</ele>
        <time>2024-02-23T11:03:54Z</time>
      </trkpt>
      <trkpt lat="43.78927" lon="3.80699">
        <ele>250.8</ele>
        <time>2024-02-23T11:03:55Z</time>
      </trkpt>
      <trkpt lat="43.7893" lon="3.807">
        <ele>250.8</ele>
        <time>2024-02-23T11:03:56Z</time>
      </trkpt>
      <trkpt lat="43.7893" lon="3.807">
        <ele>251</ele>
        <time>2024-02-23T11:03:57Z</time>
      </trkpt>
      <trkpt lat="43.78932" lon="3.80702">
        <ele>251.2</ele>
        <time>2024-02-23T11:03:58Z</time>
      </trkpt>
      <trkpt lat="43.78932" lon="3.80702">
        <ele>251.4</ele>
        <time>2024-02-23T11:03:59Z</time>
      </trkpt>
      <trkpt lat="43.78933" lon="3.80705">
        <ele>251.6</ele>
        <time>2024-02-23T11:04:00Z</time>
      </trkpt>
      <trkpt lat="43.78933" lon="3.80705">
        <ele>252</ele>
        <time>2024-02-23T11:04:01Z</time>
      </trkpt>
      <trkpt lat="43.78934" lon="3.80709">
        <ele>252.4</ele>
        <time>2024-02-23T11:04:02Z</time>
      </trkpt>
      <trkpt lat="43.78934" lon="3.80709">
        <ele>252.6</ele>
        <time>2024-02-23T11:04:03Z</time>
      </trkpt>
      <trkpt lat="43.78936" lon="3.80711">
        <ele>252.8</ele>
        <time>2024-02-23T11:04:04Z</time>
      </trkpt>
      <trkpt lat="43.78938" lon="3.80713">
        <ele>253</ele>
        <time>2024-02-23T11:04:05Z</time>
      </trkpt>
      <trkpt lat="43.78938" lon="3.80713">
        <ele>253.4</ele>
        <time>2024-02-23T11:04:06Z</time>
      </trkpt>
      <trkpt lat="43.7894" lon="3.80715">
        <ele>253.6</ele>
        <time>2024-02-23T11:04:07Z</time>
      </trkpt>
      <trkpt lat="43.78941" lon="3.80716">
        <ele>253.8</ele>
        <time>2024-02-23T11:04:08Z</time>
      </trkpt>
      <trkpt lat="43.78941" lon="3.80716">
        <ele>254</ele>
        <time>2024-02-23T11:04:09Z</time>
      </trkpt>
      <trkpt lat="43.78943" lon="3.8072">
        <ele>254.2</ele>
        <time>2024-02-23T11:04:10Z</time>
      </trkpt>
      <trkpt lat="43.78943" lon="3.8072">
        <ele>254.2</ele>
        <time>2024-02-23T11:04:11Z</time>
      </trkpt>
      <trkpt lat="43.78945" lon="3.80724">
        <ele>254.4</ele>
        <time>2024-02-23T11:04:12Z</time>
      </trkpt>
      <trkpt lat="43.78945" lon="3.80724">
        <ele>254.6</ele>
        <time>2024-02-23T11:04:13Z</time>
      </trkpt>
      <trkpt lat="43.78947" lon="3.80728">
        <ele>254.6</ele>
        <time>2024-02-23T11:04:14Z</time>
      </trkpt>
      <trkpt lat="43.78947" lon="3.80728">
        <ele>254.8</ele>
        <time>2024-02-23T11:04:15Z</time>
      </trkpt>
      <trkpt lat="43.78948" lon="3.80731">
        <ele>255</ele>
        <time>2024-02-23T11:04:16Z</time>
      </trkpt>
      <trkpt lat="43.78949" lon="3.80734">
        <ele>255.4</ele>
        <time>2024-02-23T11:04:17Z</time>
      </trkpt>
      <trkpt lat="43.7895" lon="3.80736">
        <ele>255.4</ele>
        <time>2024-02-23T11:04:18Z</time>
      </trkpt>
      <trkpt lat="43.7895" lon="3.80736">
        <ele>255.4</ele>
        <time>2024-02-23T11:04:19Z</time>
      </trkpt>
      <trkpt lat="43.78951" lon="3.8074">
        <ele>255.4</ele>
        <time>2024-02-23T11:04:20Z</time>
      </trkpt>
      <trkpt lat="43.78951" lon="3.8074">
        <ele>255.4</ele>
        <time>2024-02-23T11:04:21Z</time>
      </trkpt>
      <trkpt lat="43.78953" lon="3.8074">
        <ele>255.2</ele>
        <time>2024-02-23T11:04:22Z</time>
      </trkpt>
      <trkpt lat="43.78953" lon="3.8074">
        <ele>255</ele>
        <time>2024-02-23T11:04:23Z</time>
      </trkpt>
      <trkpt lat="43.78956" lon="3.80741">
        <ele>254.6</ele>
        <time>2024-02-23T11:04:24Z</time>
      </trkpt>
      <trkpt lat="43.78956" lon="3.80741">
        <ele>254.2</ele>
        <time>2024-02-23T11:04:25Z</time>
      </trkpt>
      <trkpt lat="43.78959" lon="3.80742">
        <ele>254</ele>
        <time>2024-02-23T11:04:26Z</time>
      </trkpt>
      <trkpt lat="43.78961" lon="3.80743">
        <ele>253.6</ele>
        <time>2024-02-23T11:04:27Z</time>
      </trkpt>
      <trkpt lat="43.78963" lon="3.80743">
        <ele>253.4</ele>
        <time>2024-02-23T11:04:28Z</time>
      </trkpt>
      <trkpt lat="43.78965" lon="3.80744">
        <ele>253.4</ele>
        <time>2024-02-23T11:04:29Z</time>
      </trkpt>
      <trkpt lat="43.78967" lon="3.80746">
        <ele>253.2</ele>
        <time>2024-02-23T11:04:30Z</time>
      </trkpt>
      <trkpt lat="43.78969" lon="3.80748">
        <ele>253</ele>
        <time>2024-02-23T11:04:31Z</time>
      </trkpt>
      <trkpt lat="43.78971" lon="3.8075">
        <ele>252.8</ele>
        <time>2024-02-23T11:04:32Z</time>
      </trkpt>
      <trkpt lat="43.78973" lon="3.80753">
        <ele>252.8</ele>
        <time>2024-02-23T11:04:33Z</time>
      </trkpt>
      <trkpt lat="43.78974" lon="3.80755">
        <ele>252.6</ele>
        <time>2024-02-23T11:04:34Z</time>
      </trkpt>
      <trkpt lat="43.78974" lon="3.80755">
        <ele>252.6</ele>
        <time>2024-02-23T11:04:35Z</time>
      </trkpt>
      <trkpt lat="43.78976" lon="3.80758">
        <ele>252.4</ele>
        <time>2024-02-23T11:04:36Z</time>
      </trkpt>
      <trkpt lat="43.78977" lon="3.8076">
        <ele>252.4</ele>
        <time>2024-02-23T11:04:37Z</time>
      </trkpt>
      <trkpt lat="43.78979" lon="3.80761">
        <ele>252.2</ele>
        <time>2024-02-23T11:04:38Z</time>
      </trkpt>
      <trkpt lat="43.78981" lon="3.80762">
        <ele>252.2</ele>
        <time>2024-02-23T11:04:39Z</time>
      </trkpt>
      <trkpt lat="43.78982" lon="3.80763">
        <ele>252.2</ele>
        <time>2024-02-23T11:04:40Z</time>
      </trkpt>
      <trkpt lat="43.78985" lon="3.80764">
        <ele>252.2</ele>
        <time>2024-02-23T11:04:41Z</time>
      </trkpt>
      <trkpt lat="43.78988" lon="3.80765">
        <ele>252</ele>
        <time>2024-02-23T11:04:42Z</time>
      </trkpt>
      <trkpt lat="43.78989" lon="3.80766">
        <ele>252</ele>
        <time>2024-02-23T11:04:43Z</time>
      </trkpt>
      <trkpt lat="43.78989" lon="3.80766">
        <ele>251.8</ele>
        <time>2024-02-23T11:04:44Z</time>
      </trkpt>
      <trkpt lat="43.78992" lon="3.80768">
        <ele>251.6</ele>
        <time>2024-02-23T11:04:45Z</time>
      </trkpt>
      <trkpt lat="43.78994" lon="3.80768">
        <ele>251.6</ele>
        <time>2024-02-23T11:04:46Z</time>
      </trkpt>
      <trkpt lat="43.78996" lon="3.8077">
        <ele>251.4</ele>
        <time>2024-02-23T11:04:47Z</time>
      </trkpt>
      <trkpt lat="43.78997" lon="3.80772">
        <ele>251.4</ele>
        <time>2024-02-23T11:04:48Z</time>
      </trkpt>
      <trkpt lat="43.78999" lon="3.80774">
        <ele>251.2</ele>
        <time>2024-02-23T11:04:49Z</time>
      </trkpt>
      <trkpt lat="43.79" lon="3.80777">
        <ele>251.2</ele>
        <time>2024-02-23T11:04:50Z</time>
      </trkpt>
      <trkpt lat="43.79001" lon="3.80779">
        <ele>251</ele>
        <time>2024-02-23T11:04:51Z</time>
      </trkpt>
      <trkpt lat="43.79001" lon="3.80779">
        <ele>251</ele>
        <time>2024-02-23T11:04:52Z</time>
      </trkpt>
      <trkpt lat="43.79003" lon="3.80782">
        <ele>251</ele>
        <time>2024-02-23T11:04:53Z</time>
      </trkpt>
      <trkpt lat="43.79005" lon="3.80784">
        <ele>250.8</ele>
        <time>2024-02-23T11:04:54Z</time>
      </trkpt>
      <trkpt lat="43.79008" lon="3.80786">
        <ele>250.8</ele>
        <time>2024-02-23T11:04:55Z</time>
      </trkpt>
      <trkpt lat="43.7901" lon="3.80787">
        <ele>250.8</ele>
        <time>2024-02-23T11:04:56Z</time>
      </trkpt>
      <trkpt lat="43.79012" lon="3.80789">
        <ele>250.6</ele>
        <time>2024-02-23T11:04:57Z</time>
      </trkpt>
      <trkpt lat="43.79013" lon="3.80791">
        <ele>250.6</ele>
        <time>2024-02-23T11:04:58Z</time>
      </trkpt>
      <trkpt lat="43.79015" lon="3.80792">
        <ele>250.4</ele>
        <time>2024-02-23T11:04:59Z</time>
      </trkpt>
      <trkpt lat="43.79015" lon="3.80792">
        <ele>250.4</ele>
        <time>2024-02-23T11:05:00Z</time>
      </trkpt>
      <trkpt lat="43.79018" lon="3.80794">
        <ele>250.2</ele>
        <time>2024-02-23T11:05:01Z</time>
      </trkpt>
      <trkpt lat="43.79018" lon="3.80794">
        <ele>250.2</ele>
        <time>2024-02-23T11:05:02Z</time>
      </trkpt>
      <trkpt lat="43.79021" lon="3.80796">
        <ele>250</ele>
        <time>2024-02-23T11:05:03Z</time>
      </trkpt>
      <trkpt lat="43.79023" lon="3.80799">
        <ele>249.8</ele>
        <time>2024-02-23T11:05:04Z</time>
      </trkpt>
      <trkpt lat="43.79025" lon="3.80803">
        <ele>249.6</ele>
        <time>2024-02-23T11:05:05Z</time>
      </trkpt>
      <trkpt lat="43.79027" lon="3.80806">
        <ele>249.4</ele>
        <time>2024-02-23T11:05:06Z</time>
      </trkpt>
      <trkpt lat="43.79029" lon="3.80809">
        <ele>249.2</ele>
        <time>2024-02-23T11:05:07Z</time>
      </trkpt>
      <trkpt lat="43.7903" lon="3.80812">
        <ele>249.2</ele>
        <time>2024-02-23T11:05:08Z</time>
      </trkpt>
      <trkpt lat="43.79031" lon="3.80815">
        <ele>248.8</ele>
        <time>2024-02-23T11:05:09Z</time>
      </trkpt>
      <trkpt lat="43.79032" lon="3.80817">
        <ele>248.6</ele>
        <time>2024-02-23T11:05:10Z</time>
      </trkpt>
      <trkpt lat="43.79032" lon="3.80817">
        <ele>248.4</ele>
        <time>2024-02-23T11:05:11Z</time>
      </trkpt>
      <trkpt lat="43.79034" lon="3.8082">
        <ele>248.2</ele>
        <time>2024-02-23T11:05:12Z</time>
      </trkpt>
      <trkpt lat="43.79034" lon="3.8082">
        <ele>248</ele>
        <time>2024-02-23T11:05:13Z</time>
      </trkpt>
      <trkpt lat="43.79036" lon="3.80823">
        <ele>247.8</ele>
        <time>2024-02-23T11:05:14Z</time>
      </trkpt>
      <trkpt lat="43.79036" lon="3.80823">
        <ele>247.4</ele>
        <time>2024-02-23T11:05:15Z</time>
      </trkpt>
      <trkpt lat="43.79038" lon="3.80825">
        <ele>247</ele>
        <time>2024-02-23T11:05:16Z</time>
      </trkpt>
      <trkpt lat="43.79039" lon="3.80827">
        <ele>246.6</ele>
        <time>2024-02-23T11:05:17Z</time>
      </trkpt>
      <trkpt lat="43.79041" lon="3.80829">
        <ele>246.2</ele>
        <time>2024-02-23T11:05:18Z</time>
      </trkpt>
      <trkpt lat="43.79041" lon="3.80829">
        <ele>246</ele>
        <time>2024-02-23T11:05:19Z</time>
      </trkpt>
      <trkpt lat="43.79043" lon="3.80831">
        <ele>246</ele>
        <time>2024-02-23T11:05:20Z</time>
      </trkpt>
      <trkpt lat="43.79043" lon="3.80831">
        <ele>246</ele>
        <time>2024-02-23T11:05:21Z</time>
      </trkpt>
      <trkpt lat="43.79045" lon="3.80829">
        <ele>246.2</ele>
        <time>2024-02-23T11:05:22Z</time>
      </trkpt>
      <trkpt lat="43.79047" lon="3.80828">
        <ele>246</ele>
        <time>2024-02-23T11:05:23Z</time>
      </trkpt>
      <trkpt lat="43.79047" lon="3.80828">
        <ele>246</ele>
        <time>2024-02-23T11:05:24Z</time>
      </trkpt>
      <trkpt lat="43.7905" lon="3.80825">
        <ele>245.8</ele>
        <time>2024-02-23T11:05:25Z</time>
      </trkpt>
      <trkpt lat="43.7905" lon="3.80825">
        <ele>245.4</ele>
        <time>2024-02-23T11:05:26Z</time>
      </trkpt>
      <trkpt lat="43.79053" lon="3.80824">
        <ele>245</ele>
        <time>2024-02-23T11:05:27Z</time>
      </trkpt>
      <trkpt lat="43.79055" lon="3.80825">
        <ele>244.6</ele>
        <time>2024-02-23T11:05:28Z</time>
      </trkpt>
      <trkpt lat="43.79057" lon="3.80827">
        <ele>244.4</ele>
        <time>2024-02-23T11:05:29Z</time>
      </trkpt>
      <trkpt lat="43.79059" lon="3.80828">
        <ele>244.2</ele>
        <time>2024-02-23T11:05:30Z</time>
      </trkpt>
      <trkpt lat="43.79059" lon="3.80828">
        <ele>243.8</ele>
        <time>2024-02-23T11:05:31Z</time>
      </trkpt>
      <trkpt lat="43.79061" lon="3.80832">
        <ele>243.6</ele>
        <time>2024-02-23T11:05:32Z</time>
      </trkpt>
      <trkpt lat="43.79063" lon="3.80834">
        <ele>243.4</ele>
        <time>2024-02-23T11:05:33Z</time>
      </trkpt>
      <trkpt lat="43.79065" lon="3.80836">
        <ele>243.4</ele>
        <time>2024-02-23T11:05:34Z</time>
      </trkpt>
      <trkpt lat="43.79065" lon="3.80836">
        <ele>243.4</ele>
        <time>2024-02-23T11:05:35Z</time>
      </trkpt>
      <trkpt lat="43.79065" lon="3.8084">
        <ele>243.6</ele>
        <time>2024-02-23T11:05:36Z</time>
      </trkpt>
      <trkpt lat="43.79065" lon="3.8084">
        <ele>243.8</ele>
        <time>2024-02-23T11:05:37Z</time>
      </trkpt>
      <trkpt lat="43.79065" lon="3.80843">
        <ele>244</ele>
        <time>2024-02-23T11:05:38Z</time>
      </trkpt>
      <trkpt lat="43.79065" lon="3.80843">
        <ele>244.4</ele>
        <time>2024-02-23T11:05:39Z</time>
      </trkpt>
      <trkpt lat="43.79065" lon="3.80847">
        <ele>244.6</ele>
        <time>2024-02-23T11:05:40Z</time>
      </trkpt>
      <trkpt lat="43.79065" lon="3.80847">
        <ele>245</ele>
        <time>2024-02-23T11:05:41Z</time>
      </trkpt>
      <trkpt lat="43.79065" lon="3.8085">
        <ele>245.2</ele>
        <time>2024-02-23T11:05:42Z</time>
      </trkpt>
      <trkpt lat="43.79065" lon="3.8085">
        <ele>245.6</ele>
        <time>2024-02-23T11:05:43Z</time>
      </trkpt>
      <trkpt lat="43.79064" lon="3.80853">
        <ele>245.8</ele>
        <time>2024-02-23T11:05:44Z</time>
      </trkpt>
      <trkpt lat="43.79064" lon="3.80853">
        <ele>246</ele>
        <time>2024-02-23T11:05:45Z</time>
      </trkpt>
      <trkpt lat="43.79065" lon="3.80858">
        <ele>246</ele>
        <time>2024-02-23T11:05:46Z</time>
      </trkpt>
      <trkpt lat="43.79065" lon="3.8086">
        <ele>246.2</ele>
        <time>2024-02-23T11:05:47Z</time>
      </trkpt>
      <trkpt lat="43.79065" lon="3.80863">
        <ele>246.6</ele>
        <time>2024-02-23T11:05:48Z</time>
      </trkpt>
      <trkpt lat="43.79065" lon="3.80863">
        <ele>246.8</ele>
        <time>2024-02-23T11:05:49Z</time>
      </trkpt>
      <trkpt lat="43.79065" lon="3.80867">
        <ele>247</ele>
        <time>2024-02-23T11:05:50Z</time>
      </trkpt>
      <trkpt lat="43.79065" lon="3.80867">
        <ele>247.2</ele>
        <time>2024-02-23T11:05:51Z</time>
      </trkpt>
      <trkpt lat="43.79067" lon="3.80871">
        <ele>247.2</ele>
        <time>2024-02-23T11:05:52Z</time>
      </trkpt>
      <trkpt lat="43.79069" lon="3.80873">
        <ele>247.4</ele>
        <time>2024-02-23T11:05:53Z</time>
      </trkpt>
      <trkpt lat="43.79069" lon="3.80873">
        <ele>247.6</ele>
        <time>2024-02-23T11:05:54Z</time>
      </trkpt>
      <trkpt lat="43.7907" lon="3.80877">
        <ele>247.8</ele>
        <time>2024-02-23T11:05:55Z</time>
      </trkpt>
      <trkpt lat="43.7907" lon="3.80877">
        <ele>248.2</ele>
        <time>2024-02-23T11:05:56Z</time>
      </trkpt>
      <trkpt lat="43.79071" lon="3.80882">
        <ele>248.4</ele>
        <time>2024-02-23T11:05:57Z</time>
      </trkpt>
      <trkpt lat="43.79072" lon="3.80884">
        <ele>248.4</ele>
        <time>2024-02-23T11:05:58Z</time>
      </trkpt>
      <trkpt lat="43.79072" lon="3.80884">
        <ele>248.6</ele>
        <time>2024-02-23T11:05:59Z</time>
      </trkpt>
      <trkpt lat="43.79075" lon="3.80887">
        <ele>248.4</ele>
        <time>2024-02-23T11:06:00Z</time>
      </trkpt>
      <trkpt lat="43.79076" lon="3.80889">
        <ele>248.4</ele>
        <time>2024-02-23T11:06:01Z</time>
      </trkpt>
      <trkpt lat="43.79077" lon="3.80892">
        <ele>248.4</ele>
        <time>2024-02-23T11:06:02Z</time>
      </trkpt>
      <trkpt lat="43.79079" lon="3.80894">
        <ele>248.4</ele>
        <time>2024-02-23T11:06:03Z</time>
      </trkpt>
      <trkpt lat="43.79079" lon="3.80894">
        <ele>248.4</ele>
        <time>2024-02-23T11:06:04Z</time>
      </trkpt>
      <trkpt lat="43.79081" lon="3.80898">
        <ele>248.4</ele>
        <time>2024-02-23T11:06:05Z</time>
      </trkpt>
      <trkpt lat="43.79083" lon="3.809">
        <ele>248.4</ele>
        <time>2024-02-23T11:06:06Z</time>
      </trkpt>
      <trkpt lat="43.79083" lon="3.809">
        <ele>248.2</ele>
        <time>2024-02-23T11:06:07Z</time>
      </trkpt>
      <trkpt lat="43.79085" lon="3.80904">
        <ele>248.2</ele>
        <time>2024-02-23T11:06:08Z</time>
      </trkpt>
      <trkpt lat="43.79086" lon="3.80905">
        <ele>248.4</ele>
        <time>2024-02-23T11:06:09Z</time>
      </trkpt>
      <trkpt lat="43.79086" lon="3.80905">
        <ele>248.6</ele>
        <time>2024-02-23T11:06:10Z</time>
      </trkpt>
      <trkpt lat="43.79087" lon="3.80909">
        <ele>248.8</ele>
        <time>2024-02-23T11:06:11Z</time>
      </trkpt>
      <trkpt lat="43.79087" lon="3.80909">
        <ele>249.2</ele>
        <time>2024-02-23T11:06:12Z</time>
      </trkpt>
      <trkpt lat="43.79086" lon="3.80913">
        <ele>249.4</ele>
        <time>2024-02-23T11:06:13Z</time>
      </trkpt>
      <trkpt lat="43.79086" lon="3.80915">
        <ele>249.6</ele>
        <time>2024-02-23T11:06:14Z</time>
      </trkpt>
      <trkpt lat="43.79086" lon="3.80918">
        <ele>249.8</ele>
        <time>2024-02-23T11:06:15Z</time>
      </trkpt>
      <trkpt lat="43.79086" lon="3.80918">
        <ele>250.2</ele>
        <time>2024-02-23T11:06:16Z</time>
      </trkpt>
      <trkpt lat="43.79087" lon="3.80921">
        <ele>250.4</ele>
        <time>2024-02-23T11:06:17Z</time>
      </trkpt>
      <trkpt lat="43.79087" lon="3.80921">
        <ele>250.6</ele>
        <time>2024-02-23T11:06:18Z</time>
      </trkpt>
      <trkpt lat="43.79089" lon="3.80925">
        <ele>251</ele>
        <time>2024-02-23T11:06:19Z</time>
      </trkpt>
      <trkpt lat="43.79089" lon="3.80925">
        <ele>251.2</ele>
        <time>2024-02-23T11:06:20Z</time>
      </trkpt>
      <trkpt lat="43.7909" lon="3.80929">
        <ele>251.4</ele>
        <time>2024-02-23T11:06:21Z</time>
      </trkpt>
      <trkpt lat="43.7909" lon="3.80929">
        <ele>251.4</ele>
        <time>2024-02-23T11:06:22Z</time>
      </trkpt>
      <trkpt lat="43.79093" lon="3.80932">
        <ele>251.4</ele>
        <time>2024-02-23T11:06:23Z</time>
      </trkpt>
      <trkpt lat="43.79094" lon="3.80934">
        <ele>251.6</ele>
        <time>2024-02-23T11:06:24Z</time>
      </trkpt>
      <trkpt lat="43.79094" lon="3.80934">
        <ele>251.4</ele>
        <time>2024-02-23T11:06:25Z</time>
      </trkpt>
      <trkpt lat="43.79097" lon="3.80936">
        <ele>251.4</ele>
        <time>2024-02-23T11:06:26Z</time>
      </trkpt>
      <trkpt lat="43.79097" lon="3.80936">
        <ele>251.2</ele>
        <time>2024-02-23T11:06:27Z</time>
      </trkpt>
      <trkpt lat="43.79099" lon="3.8094">
        <ele>251.2</ele>
        <time>2024-02-23T11:06:28Z</time>
      </trkpt>
      <trkpt lat="43.79099" lon="3.8094">
        <ele>251.2</ele>
        <time>2024-02-23T11:06:29Z</time>
      </trkpt>
      <trkpt lat="43.791" lon="3.80944">
        <ele>251.4</ele>
        <time>2024-02-23T11:06:30Z</time>
      </trkpt>
      <trkpt lat="43.791" lon="3.80944">
        <ele>251.8</ele>
        <time>2024-02-23T11:06:31Z</time>
      </trkpt>
      <trkpt lat="43.79101" lon="3.80948">
        <ele>252</ele>
        <time>2024-02-23T11:06:32Z</time>
      </trkpt>
      <trkpt lat="43.79101" lon="3.80948">
        <ele>252.2</ele>
        <time>2024-02-23T11:06:33Z</time>
      </trkpt>
      <trkpt lat="43.79101" lon="3.80951">
        <ele>252.2</ele>
        <time>2024-02-23T11:06:34Z</time>
      </trkpt>
      <trkpt lat="43.79101" lon="3.80951">
        <ele>252.4</ele>
        <time>2024-02-23T11:06:35Z</time>
      </trkpt>
      <trkpt lat="43.79102" lon="3.80954">
        <ele>252.6</ele>
        <time>2024-02-23T11:06:36Z</time>
      </trkpt>
      <trkpt lat="43.79102" lon="3.80954">
        <ele>253</ele>
        <time>2024-02-23T11:06:37Z</time>
      </trkpt>
      <trkpt lat="43.79103" lon="3.80957">
        <ele>253.2</ele>
        <time>2024-02-23T11:06:38Z</time>
      </trkpt>
      <trkpt lat="43.79103" lon="3.80957">
        <ele>253.4</ele>
        <time>2024-02-23T11:06:39Z</time>
      </trkpt>
      <trkpt lat="43.79104" lon="3.8096">
        <ele>253.8</ele>
        <time>2024-02-23T11:06:40Z</time>
      </trkpt>
      <trkpt lat="43.79104" lon="3.8096">
        <ele>254.2</ele>
        <time>2024-02-23T11:06:41Z</time>
      </trkpt>
      <trkpt lat="43.79105" lon="3.80965">
        <ele>254.6</ele>
        <time>2024-02-23T11:06:42Z</time>
      </trkpt>
      <trkpt lat="43.79105" lon="3.80967">
        <ele>254.8</ele>
        <time>2024-02-23T11:06:43Z</time>
      </trkpt>
      <trkpt lat="43.79106" lon="3.8097">
        <ele>255</ele>
        <time>2024-02-23T11:06:44Z</time>
      </trkpt>
      <trkpt lat="43.79106" lon="3.80973">
        <ele>255.2</ele>
        <time>2024-02-23T11:06:45Z</time>
      </trkpt>
      <trkpt lat="43.79106" lon="3.80973">
        <ele>255.4</ele>
        <time>2024-02-23T11:06:46Z</time>
      </trkpt>
      <trkpt lat="43.79107" lon="3.80976">
        <ele>255.2</ele>
        <time>2024-02-23T11:06:47Z</time>
      </trkpt>
      <trkpt lat="43.79107" lon="3.80976">
        <ele>255</ele>
        <time>2024-02-23T11:06:48Z</time>
      </trkpt>
      <trkpt lat="43.79109" lon="3.80977">
        <ele>254.6</ele>
        <time>2024-02-23T11:06:49Z</time>
      </trkpt>
      <trkpt lat="43.79109" lon="3.80977">
        <ele>254.4</ele>
        <time>2024-02-23T11:06:50Z</time>
      </trkpt>
      <trkpt lat="43.79111" lon="3.80977">
        <ele>254</ele>
        <time>2024-02-23T11:06:51Z</time>
      </trkpt>
      <trkpt lat="43.79111" lon="3.80977">
        <ele>253.8</ele>
        <time>2024-02-23T11:06:52Z</time>
      </trkpt>
      <trkpt lat="43.79114" lon="3.80979">
        <ele>253.6</ele>
        <time>2024-02-23T11:06:53Z</time>
      </trkpt>
      <trkpt lat="43.79114" lon="3.80979">
        <ele>253.4</ele>
        <time>2024-02-23T11:06:54Z</time>
      </trkpt>
      <trkpt lat="43.79116" lon="3.80983">
        <ele>253.2</ele>
        <time>2024-02-23T11:06:55Z</time>
      </trkpt>
      <trkpt lat="43.79116" lon="3.80983">
        <ele>253.4</ele>
        <time>2024-02-23T11:06:56Z</time>
      </trkpt>
      <trkpt lat="43.79118" lon="3.80987">
        <ele>253.4</ele>
        <time>2024-02-23T11:06:57Z</time>
      </trkpt>
      <trkpt lat="43.79118" lon="3.80987">
        <ele>253.6</ele>
        <time>2024-02-23T11:06:58Z</time>
      </trkpt>
      <trkpt lat="43.79119" lon="3.80991">
        <ele>254</ele>
        <time>2024-02-23T11:06:59Z</time>
      </trkpt>
      <trkpt lat="43.79119" lon="3.80991">
        <ele>254.2</ele>
        <time>2024-02-23T11:07:00Z</time>
      </trkpt>
      <trkpt lat="43.79121" lon="3.80995">
        <ele>254.4</ele>
        <time>2024-02-23T11:07:01Z</time>
      </trkpt>
      <trkpt lat="43.79122" lon="3.80997">
        <ele>254.6</ele>
        <time>2024-02-23T11:07:02Z</time>
      </trkpt>
      <trkpt lat="43.79123" lon="3.81">
        <ele>254.6</ele>
        <time>2024-02-23T11:07:03Z</time>
      </trkpt>
      <trkpt lat="43.79123" lon="3.81002">
        <ele>254.8</ele>
        <time>2024-02-23T11:07:04Z</time>
      </trkpt>
      <trkpt lat="43.79125" lon="3.81005">
        <ele>255</ele>
        <time>2024-02-23T11:07:05Z</time>
      </trkpt>
      <trkpt lat="43.79125" lon="3.81007">
        <ele>255</ele>
        <time>2024-02-23T11:07:06Z</time>
      </trkpt>
      <trkpt lat="43.79127" lon="3.81009">
        <ele>255</ele>
        <time>2024-02-23T11:07:07Z</time>
      </trkpt>
      <trkpt lat="43.79128" lon="3.81012">
        <ele>255</ele>
        <time>2024-02-23T11:07:08Z</time>
      </trkpt>
      <trkpt lat="43.79129" lon="3.81014">
        <ele>255</ele>
        <time>2024-02-23T11:07:09Z</time>
      </trkpt>
      <trkpt lat="43.79129" lon="3.81017">
        <ele>255.2</ele>
        <time>2024-02-23T11:07:10Z</time>
      </trkpt>
      <trkpt lat="43.79129" lon="3.81017">
        <ele>255.2</ele>
        <time>2024-02-23T11:07:11Z</time>
      </trkpt>
      <trkpt lat="43.7913" lon="3.8102">
        <ele>255.4</ele>
        <time>2024-02-23T11:07:12Z</time>
      </trkpt>
      <trkpt lat="43.7913" lon="3.8102">
        <ele>255.8</ele>
        <time>2024-02-23T11:07:13Z</time>
      </trkpt>
      <trkpt lat="43.7913" lon="3.81024">
        <ele>256.2</ele>
        <time>2024-02-23T11:07:14Z</time>
      </trkpt>
      <trkpt lat="43.7913" lon="3.81024">
        <ele>256.6</ele>
        <time>2024-02-23T11:07:15Z</time>
      </trkpt>
      <trkpt lat="43.7913" lon="3.81028">
        <ele>257</ele>
        <time>2024-02-23T11:07:16Z</time>
      </trkpt>
      <trkpt lat="43.7913" lon="3.81028">
        <ele>257.4</ele>
        <time>2024-02-23T11:07:17Z</time>
      </trkpt>
      <trkpt lat="43.79131" lon="3.81032">
        <ele>257.8</ele>
        <time>2024-02-23T11:07:18Z</time>
      </trkpt>
      <trkpt lat="43.79131" lon="3.81032">
        <ele>258</ele>
        <time>2024-02-23T11:07:19Z</time>
      </trkpt>
      <trkpt lat="43.79132" lon="3.81036">
        <ele>258</ele>
        <time>2024-02-23T11:07:20Z</time>
      </trkpt>
      <trkpt lat="43.79133" lon="3.81038">
        <ele>258.2</ele>
        <time>2024-02-23T11:07:21Z</time>
      </trkpt>
      <trkpt lat="43.79134" lon="3.8104">
        <ele>258.2</ele>
        <time>2024-02-23T11:07:22Z</time>
      </trkpt>
      <trkpt lat="43.79134" lon="3.8104">
        <ele>258.2</ele>
        <time>2024-02-23T11:07:23Z</time>
      </trkpt>
      <trkpt lat="43.79136" lon="3.81043">
        <ele>258</ele>
        <time>2024-02-23T11:07:24Z</time>
      </trkpt>
      <trkpt lat="43.79136" lon="3.81043">
        <ele>258</ele>
        <time>2024-02-23T11:07:25Z</time>
      </trkpt>
      <trkpt lat="43.79138" lon="3.81046">
        <ele>257.6</ele>
        <time>2024-02-23T11:07:26Z</time>
      </trkpt>
      <trkpt lat="43.79138" lon="3.81046">
        <ele>257.4</ele>
        <time>2024-02-23T11:07:27Z</time>
      </trkpt>
      <trkpt lat="43.79141" lon="3.81048">
        <ele>257</ele>
        <time>2024-02-23T11:07:28Z</time>
      </trkpt>
      <trkpt lat="43.79142" lon="3.81051">
        <ele>257</ele>
        <time>2024-02-23T11:07:29Z</time>
      </trkpt>
      <trkpt lat="43.79142" lon="3.81051">
        <ele>256.8</ele>
        <time>2024-02-23T11:07:30Z</time>
      </trkpt>
      <trkpt lat="43.79143" lon="3.81055">
        <ele>256.8</ele>
        <time>2024-02-23T11:07:31Z</time>
      </trkpt>
      <trkpt lat="43.79143" lon="3.81055">
        <ele>257</ele>
        <time>2024-02-23T11:07:32Z</time>
      </trkpt>
      <trkpt lat="43.79144" lon="3.81059">
        <ele>257</ele>
        <time>2024-02-23T11:07:33Z</time>
      </trkpt>
      <trkpt lat="43.79144" lon="3.81059">
        <ele>257.2</ele>
        <time>2024-02-23T11:07:34Z</time>
      </trkpt>
      <trkpt lat="43.79147" lon="3.81062">
        <ele>257.2</ele>
        <time>2024-02-23T11:07:35Z</time>
      </trkpt>
      <trkpt lat="43.79147" lon="3.81062">
        <ele>257.4</ele>
        <time>2024-02-23T11:07:36Z</time>
      </trkpt>
      <trkpt lat="43.79149" lon="3.81066">
        <ele>257.4</ele>
        <time>2024-02-23T11:07:37Z</time>
      </trkpt>
      <trkpt lat="43.79149" lon="3.81066">
        <ele>257.6</ele>
        <time>2024-02-23T11:07:38Z</time>
      </trkpt>
      <trkpt lat="43.79149" lon="3.81069">
        <ele>258</ele>
        <time>2024-02-23T11:07:39Z</time>
      </trkpt>
      <trkpt lat="43.79149" lon="3.81069">
        <ele>258.2</ele>
        <time>2024-02-23T11:07:40Z</time>
      </trkpt>
      <trkpt lat="43.79149" lon="3.81069">
        <ele>258.4</ele>
        <time>2024-02-23T11:07:41Z</time>
      </trkpt>
      <trkpt lat="43.79149" lon="3.81072">
        <ele>258.8</ele>
        <time>2024-02-23T11:07:42Z</time>
      </trkpt>
      <trkpt lat="43.79149" lon="3.81072">
        <ele>258.8</ele>
        <time>2024-02-23T11:07:43Z</time>
      </trkpt>
      <trkpt lat="43.79149" lon="3.81075">
        <ele>259</ele>
        <time>2024-02-23T11:07:44Z</time>
      </trkpt>
      <trkpt lat="43.79149" lon="3.81075">
        <ele>258.8</ele>
        <time>2024-02-23T11:07:45Z</time>
      </trkpt>
      <trkpt lat="43.79151" lon="3.81076">
        <ele>258.6</ele>
        <time>2024-02-23T11:07:46Z</time>
      </trkpt>
      <trkpt lat="43.79151" lon="3.81076">
        <ele>258.4</ele>
        <time>2024-02-23T11:07:47Z</time>
      </trkpt>
      <trkpt lat="43.79153" lon="3.81078">
        <ele>258.2</ele>
        <time>2024-02-23T11:07:48Z</time>
      </trkpt>
      <trkpt lat="43.79153" lon="3.81078">
        <ele>258</ele>
        <time>2024-02-23T11:07:49Z</time>
      </trkpt>
      <trkpt lat="43.79156" lon="3.81082">
        <ele>258</ele>
        <time>2024-02-23T11:07:50Z</time>
      </trkpt>
      <trkpt lat="43.79156" lon="3.81082">
        <ele>258</ele>
        <time>2024-02-23T11:07:51Z</time>
      </trkpt>
      <trkpt lat="43.79157" lon="3.81086">
        <ele>258.2</ele>
        <time>2024-02-23T11:07:52Z</time>
      </trkpt>
      <trkpt lat="43.79157" lon="3.81089">
        <ele>258.2</ele>
        <time>2024-02-23T11:07:53Z</time>
      </trkpt>
      <trkpt lat="43.79157" lon="3.81091">
        <ele>258.2</ele>
        <time>2024-02-23T11:07:54Z</time>
      </trkpt>
      <trkpt lat="43.79157" lon="3.81091">
        <ele>258.2</ele>
        <time>2024-02-23T11:07:55Z</time>
      </trkpt>
      <trkpt lat="43.79157" lon="3.81095">
        <ele>258.4</ele>
        <time>2024-02-23T11:07:56Z</time>
      </trkpt>
      <trkpt lat="43.79158" lon="3.81097">
        <ele>258.4</ele>
        <time>2024-02-23T11:07:57Z</time>
      </trkpt>
      <trkpt lat="43.79159" lon="3.81099">
        <ele>258.6</ele>
        <time>2024-02-23T11:07:58Z</time>
      </trkpt>
      <trkpt lat="43.7916" lon="3.81102">
        <ele>258.8</ele>
        <time>2024-02-23T11:07:59Z</time>
      </trkpt>
      <trkpt lat="43.79161" lon="3.81104">
        <ele>259</ele>
        <time>2024-02-23T11:08:00Z</time>
      </trkpt>
      <trkpt lat="43.79161" lon="3.81104">
        <ele>259.2</ele>
        <time>2024-02-23T11:08:01Z</time>
      </trkpt>
      <trkpt lat="43.7916" lon="3.81109">
        <ele>259.4</ele>
        <time>2024-02-23T11:08:02Z</time>
      </trkpt>
      <trkpt lat="43.7916" lon="3.81109">
        <ele>259.4</ele>
        <time>2024-02-23T11:08:03Z</time>
      </trkpt>
      <trkpt lat="43.79162" lon="3.81113">
        <ele>259.4</ele>
        <time>2024-02-23T11:08:04Z</time>
      </trkpt>
      <trkpt lat="43.79163" lon="3.81115">
        <ele>259.2</ele>
        <time>2024-02-23T11:08:05Z</time>
      </trkpt>
      <trkpt lat="43.79163" lon="3.81115">
        <ele>259.2</ele>
        <time>2024-02-23T11:08:06Z</time>
      </trkpt>
      <trkpt lat="43.79163" lon="3.8112">
        <ele>259.2</ele>
        <time>2024-02-23T11:08:07Z</time>
      </trkpt>
      <trkpt lat="43.79164" lon="3.81122">
        <ele>259.2</ele>
        <time>2024-02-23T11:08:08Z</time>
      </trkpt>
      <trkpt lat="43.79164" lon="3.81122">
        <ele>259.4</ele>
        <time>2024-02-23T11:08:09Z</time>
      </trkpt>
      <trkpt lat="43.79165" lon="3.81127">
        <ele>259.8</ele>
        <time>2024-02-23T11:08:10Z</time>
      </trkpt>
      <trkpt lat="43.79165" lon="3.81127">
        <ele>260</ele>
        <time>2024-02-23T11:08:11Z</time>
      </trkpt>
      <trkpt lat="43.79166" lon="3.8113">
        <ele>260.2</ele>
        <time>2024-02-23T11:08:12Z</time>
      </trkpt>
      <trkpt lat="43.79166" lon="3.8113">
        <ele>260.6</ele>
        <time>2024-02-23T11:08:13Z</time>
      </trkpt>
      <trkpt lat="43.79165" lon="3.81132">
        <ele>260.8</ele>
        <time>2024-02-23T11:08:14Z</time>
      </trkpt>
      <trkpt lat="43.79165" lon="3.81132">
        <ele>261.2</ele>
        <time>2024-02-23T11:08:15Z</time>
      </trkpt>
      <trkpt lat="43.79165" lon="3.81136">
        <ele>261.4</ele>
        <time>2024-02-23T11:08:16Z</time>
      </trkpt>
      <trkpt lat="43.79165" lon="3.81136">
        <ele>261.6</ele>
        <time>2024-02-23T11:08:17Z</time>
      </trkpt>
      <trkpt lat="43.79165" lon="3.8114">
        <ele>262</ele>
        <time>2024-02-23T11:08:18Z</time>
      </trkpt>
      <trkpt lat="43.79165" lon="3.8114">
        <ele>262.2</ele>
        <time>2024-02-23T11:08:19Z</time>
      </trkpt>
      <trkpt lat="43.79166" lon="3.81144">
        <ele>262.4</ele>
        <time>2024-02-23T11:08:20Z</time>
      </trkpt>
      <trkpt lat="43.79167" lon="3.81146">
        <ele>262.6</ele>
        <time>2024-02-23T11:08:21Z</time>
      </trkpt>
      <trkpt lat="43.79168" lon="3.81149">
        <ele>262.8</ele>
        <time>2024-02-23T11:08:22Z</time>
      </trkpt>
      <trkpt lat="43.7917" lon="3.81152">
        <ele>262.8</ele>
        <time>2024-02-23T11:08:23Z</time>
      </trkpt>
      <trkpt lat="43.7917" lon="3.81154">
        <ele>263</ele>
        <time>2024-02-23T11:08:24Z</time>
      </trkpt>
      <trkpt lat="43.7917" lon="3.81154">
        <ele>263.2</ele>
        <time>2024-02-23T11:08:25Z</time>
      </trkpt>
      <trkpt lat="43.7917" lon="3.81159">
        <ele>263.4</ele>
        <time>2024-02-23T11:08:26Z</time>
      </trkpt>
      <trkpt lat="43.7917" lon="3.81161">
        <ele>263.6</ele>
        <time>2024-02-23T11:08:27Z</time>
      </trkpt>
      <trkpt lat="43.7917" lon="3.81161">
        <ele>263.6</ele>
        <time>2024-02-23T11:08:28Z</time>
      </trkpt>
      <trkpt lat="43.7917" lon="3.81166">
        <ele>263.8</ele>
        <time>2024-02-23T11:08:29Z</time>
      </trkpt>
      <trkpt lat="43.7917" lon="3.81166">
        <ele>264</ele>
        <time>2024-02-23T11:08:30Z</time>
      </trkpt>
      <trkpt lat="43.79171" lon="3.8117">
        <ele>264</ele>
        <time>2024-02-23T11:08:31Z</time>
      </trkpt>
      <trkpt lat="43.79172" lon="3.81172">
        <ele>264</ele>
        <time>2024-02-23T11:08:32Z</time>
      </trkpt>
      <trkpt lat="43.79173" lon="3.81174">
        <ele>264</ele>
        <time>2024-02-23T11:08:33Z</time>
      </trkpt>
      <trkpt lat="43.79174" lon="3.81176">
        <ele>264.2</ele>
        <time>2024-02-23T11:08:34Z</time>
      </trkpt>
      <trkpt lat="43.79174" lon="3.81176">
        <ele>264.6</ele>
        <time>2024-02-23T11:08:35Z</time>
      </trkpt>
      <trkpt lat="43.79175" lon="3.8118">
        <ele>264.8</ele>
        <time>2024-02-23T11:08:36Z</time>
      </trkpt>
      <trkpt lat="43.79175" lon="3.8118">
        <ele>265.2</ele>
        <time>2024-02-23T11:08:37Z</time>
      </trkpt>
      <trkpt lat="43.79175" lon="3.81183">
        <ele>265.2</ele>
        <time>2024-02-23T11:08:38Z</time>
      </trkpt>
      <trkpt lat="43.79175" lon="3.81183">
        <ele>265.4</ele>
        <time>2024-02-23T11:08:39Z</time>
      </trkpt>
      <trkpt lat="43.79177" lon="3.81186">
        <ele>265.6</ele>
        <time>2024-02-23T11:08:40Z</time>
      </trkpt>
      <trkpt lat="43.79177" lon="3.81186">
        <ele>265.6</ele>
        <time>2024-02-23T11:08:41Z</time>
      </trkpt>
      <trkpt lat="43.7918" lon="3.81189">
        <ele>265.6</ele>
        <time>2024-02-23T11:08:42Z</time>
      </trkpt>
      <trkpt lat="43.7918" lon="3.81189">
        <ele>265.6</ele>
        <time>2024-02-23T11:08:43Z</time>
      </trkpt>
      <trkpt lat="43.79182" lon="3.81192">
        <ele>265.4</ele>
        <time>2024-02-23T11:08:44Z</time>
      </trkpt>
      <trkpt lat="43.79182" lon="3.81192">
        <ele>265.2</ele>
        <time>2024-02-23T11:08:45Z</time>
      </trkpt>
      <trkpt lat="43.79184" lon="3.81194">
        <ele>265</ele>
        <time>2024-02-23T11:08:46Z</time>
      </trkpt>
      <trkpt lat="43.79184" lon="3.81194">
        <ele>264.8</ele>
        <time>2024-02-23T11:08:47Z</time>
      </trkpt>
      <trkpt lat="43.79186" lon="3.81197">
        <ele>264.4</ele>
        <time>2024-02-23T11:08:48Z</time>
      </trkpt>
      <trkpt lat="43.79186" lon="3.81197">
        <ele>264.2</ele>
        <time>2024-02-23T11:08:49Z</time>
      </trkpt>
      <trkpt lat="43.79188" lon="3.812">
        <ele>263.8</ele>
        <time>2024-02-23T11:08:50Z</time>
      </trkpt>
      <trkpt lat="43.7919" lon="3.81202">
        <ele>263.8</ele>
        <time>2024-02-23T11:08:51Z</time>
      </trkpt>
      <trkpt lat="43.7919" lon="3.81202">
        <ele>263.8</ele>
        <time>2024-02-23T11:08:52Z</time>
      </trkpt>
      <trkpt lat="43.7919" lon="3.81206">
        <ele>263.8</ele>
        <time>2024-02-23T11:08:53Z</time>
      </trkpt>
      <trkpt lat="43.7919" lon="3.81206">
        <ele>264</ele>
        <time>2024-02-23T11:08:54Z</time>
      </trkpt>
      <trkpt lat="43.79189" lon="3.8121">
        <ele>264.2</ele>
        <time>2024-02-23T11:08:55Z</time>
      </trkpt>
      <trkpt lat="43.79189" lon="3.8121">
        <ele>264.4</ele>
        <time>2024-02-23T11:08:56Z</time>
      </trkpt>
      <trkpt lat="43.7919" lon="3.81213">
        <ele>264.6</ele>
        <time>2024-02-23T11:08:57Z</time>
      </trkpt>
      <trkpt lat="43.7919" lon="3.81213">
        <ele>264.8</ele>
        <time>2024-02-23T11:08:58Z</time>
      </trkpt>
      <trkpt lat="43.7919" lon="3.81217">
        <ele>265</ele>
        <time>2024-02-23T11:08:59Z</time>
      </trkpt>
      <trkpt lat="43.7919" lon="3.81217">
        <ele>265.4</ele>
        <time>2024-02-23T11:09:00Z</time>
      </trkpt>
      <trkpt lat="43.79191" lon="3.8122">
        <ele>265.6</ele>
        <time>2024-02-23T11:09:01Z</time>
      </trkpt>
      <trkpt lat="43.79191" lon="3.8122">
        <ele>265.8</ele>
        <time>2024-02-23T11:09:02Z</time>
      </trkpt>
      <trkpt lat="43.79191" lon="3.81224">
        <ele>266.2</ele>
        <time>2024-02-23T11:09:03Z</time>
      </trkpt>
      <trkpt lat="43.79191" lon="3.81224">
        <ele>266.6</ele>
        <time>2024-02-23T11:09:04Z</time>
      </trkpt>
      <trkpt lat="43.79191" lon="3.81228">
        <ele>266.8</ele>
        <time>2024-02-23T11:09:05Z</time>
      </trkpt>
      <trkpt lat="43.79191" lon="3.81228">
        <ele>267.2</ele>
        <time>2024-02-23T11:09:06Z</time>
      </trkpt>
      <trkpt lat="43.79191" lon="3.81232">
        <ele>267.6</ele>
        <time>2024-02-23T11:09:07Z</time>
      </trkpt>
      <trkpt lat="43.79191" lon="3.81232">
        <ele>268</ele>
        <time>2024-02-23T11:09:08Z</time>
      </trkpt>
      <trkpt lat="43.7919" lon="3.81235">
        <ele>268.4</ele>
        <time>2024-02-23T11:09:09Z</time>
      </trkpt>
      <trkpt lat="43.7919" lon="3.81235">
        <ele>268.8</ele>
        <time>2024-02-23T11:09:10Z</time>
      </trkpt>
      <trkpt lat="43.7919" lon="3.81237">
        <ele>268.8</ele>
        <time>2024-02-23T11:09:11Z</time>
      </trkpt>
      <trkpt lat="43.79191" lon="3.81239">
        <ele>269</ele>
        <time>2024-02-23T11:09:12Z</time>
      </trkpt>
      <trkpt lat="43.79192" lon="3.81242">
        <ele>269.2</ele>
        <time>2024-02-23T11:09:13Z</time>
      </trkpt>
      <trkpt lat="43.79192" lon="3.81242">
        <ele>269.2</ele>
        <time>2024-02-23T11:09:14Z</time>
      </trkpt>
      <trkpt lat="43.79194" lon="3.81246">
        <ele>269.4</ele>
        <time>2024-02-23T11:09:15Z</time>
      </trkpt>
      <trkpt lat="43.79194" lon="3.81249">
        <ele>269.4</ele>
        <time>2024-02-23T11:09:16Z</time>
      </trkpt>
      <trkpt lat="43.79194" lon="3.81249">
        <ele>269.8</ele>
        <time>2024-02-23T11:09:17Z</time>
      </trkpt>
      <trkpt lat="43.79195" lon="3.81253">
        <ele>270</ele>
        <time>2024-02-23T11:09:18Z</time>
      </trkpt>
      <trkpt lat="43.79196" lon="3.81255">
        <ele>270</ele>
        <time>2024-02-23T11:09:19Z</time>
      </trkpt>
      <trkpt lat="43.79196" lon="3.81258">
        <ele>270.4</ele>
        <time>2024-02-23T11:09:20Z</time>
      </trkpt>
      <trkpt lat="43.79196" lon="3.81258">
        <ele>270.6</ele>
        <time>2024-02-23T11:09:21Z</time>
      </trkpt>
      <trkpt lat="43.79196" lon="3.81262">
        <ele>270.8</ele>
        <time>2024-02-23T11:09:22Z</time>
      </trkpt>
      <trkpt lat="43.79196" lon="3.81262">
        <ele>270.8</ele>
        <time>2024-02-23T11:09:23Z</time>
      </trkpt>
      <trkpt lat="43.79198" lon="3.81264">
        <ele>270.8</ele>
        <time>2024-02-23T11:09:24Z</time>
      </trkpt>
      <trkpt lat="43.79199" lon="3.81267">
        <ele>270.8</ele>
        <time>2024-02-23T11:09:25Z</time>
      </trkpt>
      <trkpt lat="43.79199" lon="3.81267">
        <ele>270.8</ele>
        <time>2024-02-23T11:09:26Z</time>
      </trkpt>
      <trkpt lat="43.792" lon="3.8127">
        <ele>271.2</ele>
        <time>2024-02-23T11:09:27Z</time>
      </trkpt>
      <trkpt lat="43.792" lon="3.8127">
        <ele>271.4</ele>
        <time>2024-02-23T11:09:28Z</time>
      </trkpt>
      <trkpt lat="43.79198" lon="3.81274">
        <ele>271.6</ele>
        <time>2024-02-23T11:09:29Z</time>
      </trkpt>
      <trkpt lat="43.79198" lon="3.81274">
        <ele>271.8</ele>
        <time>2024-02-23T11:09:30Z</time>
      </trkpt>
      <trkpt lat="43.79197" lon="3.81278">
        <ele>272</ele>
        <time>2024-02-23T11:09:31Z</time>
      </trkpt>
      <trkpt lat="43.79197" lon="3.81278">
        <ele>272.2</ele>
        <time>2024-02-23T11:09:32Z</time>
      </trkpt>
      <trkpt lat="43.79198" lon="3.8128">
        <ele>272.2</ele>
        <time>2024-02-23T11:09:33Z</time>
      </trkpt>
      <trkpt lat="43.79199" lon="3.81282">
        <ele>272</ele>
        <time>2024-02-23T11:09:34Z</time>
      </trkpt>
      <trkpt lat="43.79201" lon="3.81284">
        <ele>271.8</ele>
        <time>2024-02-23T11:09:35Z</time>
      </trkpt>
      <trkpt lat="43.79202" lon="3.81287">
        <ele>271.8</ele>
        <time>2024-02-23T11:09:36Z</time>
      </trkpt>
      <trkpt lat="43.79204" lon="3.81288">
        <ele>271.8</ele>
        <time>2024-02-23T11:09:37Z</time>
      </trkpt>
      <trkpt lat="43.79204" lon="3.81288">
        <ele>271.8</ele>
        <time>2024-02-23T11:09:38Z</time>
      </trkpt>
      <trkpt lat="43.79205" lon="3.81292">
        <ele>271.8</ele>
        <time>2024-02-23T11:09:39Z</time>
      </trkpt>
      <trkpt lat="43.79205" lon="3.81292">
        <ele>271.8</ele>
        <time>2024-02-23T11:09:40Z</time>
      </trkpt>
      <trkpt lat="43.79206" lon="3.81296">
        <ele>272</ele>
        <time>2024-02-23T11:09:41Z</time>
      </trkpt>
      <trkpt lat="43.79206" lon="3.81296">
        <ele>272.2</ele>
        <time>2024-02-23T11:09:42Z</time>
      </trkpt>
      <trkpt lat="43.79206" lon="3.813">
        <ele>272.2</ele>
        <time>2024-02-23T11:09:43Z</time>
      </trkpt>
      <trkpt lat="43.79206" lon="3.813">
        <ele>272.2</ele>
        <time>2024-02-23T11:09:44Z</time>
      </trkpt>
      <trkpt lat="43.79208" lon="3.81304">
        <ele>272.2</ele>
        <time>2024-02-23T11:09:45Z</time>
      </trkpt>
      <trkpt lat="43.79208" lon="3.81304">
        <ele>272.2</ele>
        <time>2024-02-23T11:09:46Z</time>
      </trkpt>
      <trkpt lat="43.79208" lon="3.81304">
        <ele>272.4</ele>
        <time>2024-02-23T11:09:47Z</time>
      </trkpt>
      <trkpt lat="43.79208" lon="3.81306">
        <ele>272.6</ele>
        <time>2024-02-23T11:09:48Z</time>
      </trkpt>
      <trkpt lat="43.79208" lon="3.81306">
        <ele>273</ele>
        <time>2024-02-23T11:09:49Z</time>
      </trkpt>
      <trkpt lat="43.79207" lon="3.81308">
        <ele>273.2</ele>
        <time>2024-02-23T11:09:50Z</time>
      </trkpt>
      <trkpt lat="43.79207" lon="3.81308">
        <ele>273.4</ele>
        <time>2024-02-23T11:09:51Z</time>
      </trkpt>
      <trkpt lat="43.79207" lon="3.81308">
        <ele>274</ele>
        <time>2024-02-23T11:09:52Z</time>
      </trkpt>
      <trkpt lat="43.79207" lon="3.81308">
        <ele>274.4</ele>
        <time>2024-02-23T11:09:53Z</time>
      </trkpt>
      <trkpt lat="43.79207" lon="3.81308">
        <ele>274.6</ele>
        <time>2024-02-23T11:09:54Z</time>
      </trkpt>
      <trkpt lat="43.79205" lon="3.8131">
        <ele>274.8</ele>
        <time>2024-02-23T11:09:55Z</time>
      </trkpt>
      <trkpt lat="43.79205" lon="3.8131">
        <ele>274.8</ele>
        <time>2024-02-23T11:09:56Z</time>
      </trkpt>
      <trkpt lat="43.79205" lon="3.81314">
        <ele>275</ele>
        <time>2024-02-23T11:09:57Z</time>
      </trkpt>
      <trkpt lat="43.79205" lon="3.81314">
        <ele>275.4</ele>
        <time>2024-02-23T11:09:58Z</time>
      </trkpt>
      <trkpt lat="43.79206" lon="3.81318">
        <ele>275.6</ele>
        <time>2024-02-23T11:09:59Z</time>
      </trkpt>
      <trkpt lat="43.79206" lon="3.81318">
        <ele>275.8</ele>
        <time>2024-02-23T11:10:00Z</time>
      </trkpt>
      <trkpt lat="43.79207" lon="3.81321">
        <ele>275.8</ele>
        <time>2024-02-23T11:10:01Z</time>
      </trkpt>
      <trkpt lat="43.79208" lon="3.81323">
        <ele>275.6</ele>
        <time>2024-02-23T11:10:02Z</time>
      </trkpt>
      <trkpt lat="43.7921" lon="3.81325">
        <ele>275.6</ele>
        <time>2024-02-23T11:10:03Z</time>
      </trkpt>
      <trkpt lat="43.79211" lon="3.81328">
        <ele>275.6</ele>
        <time>2024-02-23T11:10:04Z</time>
      </trkpt>
      <trkpt lat="43.79212" lon="3.8133">
        <ele>275.6</ele>
        <time>2024-02-23T11:10:05Z</time>
      </trkpt>
      <trkpt lat="43.79212" lon="3.8133">
        <ele>275.8</ele>
        <time>2024-02-23T11:10:06Z</time>
      </trkpt>
      <trkpt lat="43.79213" lon="3.81335">
        <ele>276</ele>
        <time>2024-02-23T11:10:07Z</time>
      </trkpt>
      <trkpt lat="43.79213" lon="3.81335">
        <ele>276.4</ele>
        <time>2024-02-23T11:10:08Z</time>
      </trkpt>
      <trkpt lat="43.79213" lon="3.81335">
        <ele>276.4</ele>
        <time>2024-02-23T11:10:09Z</time>
      </trkpt>
      <trkpt lat="43.79213" lon="3.81337">
        <ele>277</ele>
        <time>2024-02-23T11:10:10Z</time>
      </trkpt>
      <trkpt lat="43.79213" lon="3.81337">
        <ele>277.4</ele>
        <time>2024-02-23T11:10:11Z</time>
      </trkpt>
      <trkpt lat="43.79213" lon="3.81337">
        <ele>277.8</ele>
        <time>2024-02-23T11:10:12Z</time>
      </trkpt>
      <trkpt lat="43.79213" lon="3.81341">
        <ele>278.2</ele>
        <time>2024-02-23T11:10:13Z</time>
      </trkpt>
      <trkpt lat="43.79213" lon="3.81341">
        <ele>278.4</ele>
        <time>2024-02-23T11:10:14Z</time>
      </trkpt>
      <trkpt lat="43.79213" lon="3.81341">
        <ele>278.6</ele>
        <time>2024-02-23T11:10:15Z</time>
      </trkpt>
      <trkpt lat="43.79213" lon="3.81341">
        <ele>278.6</ele>
        <time>2024-02-23T11:10:16Z</time>
      </trkpt>
      <trkpt lat="43.79213" lon="3.81341">
        <ele>278.4</ele>
        <time>2024-02-23T11:10:17Z</time>
      </trkpt>
      <trkpt lat="43.79215" lon="3.81343">
        <ele>278.2</ele>
        <time>2024-02-23T11:10:18Z</time>
      </trkpt>
      <trkpt lat="43.79215" lon="3.81343">
        <ele>278</ele>
        <time>2024-02-23T11:10:19Z</time>
      </trkpt>
      <trkpt lat="43.79216" lon="3.81345">
        <ele>277.8</ele>
        <time>2024-02-23T11:10:20Z</time>
      </trkpt>
      <trkpt lat="43.79216" lon="3.81345">
        <ele>277.6</ele>
        <time>2024-02-23T11:10:21Z</time>
      </trkpt>
      <trkpt lat="43.79216" lon="3.81345">
        <ele>277.4</ele>
        <time>2024-02-23T11:10:22Z</time>
      </trkpt>
      <trkpt lat="43.79216" lon="3.81345">
        <ele>277</ele>
        <time>2024-02-23T11:10:23Z</time>
      </trkpt>
      <trkpt lat="43.79216" lon="3.81345">
        <ele>276.6</ele>
        <time>2024-02-23T11:10:24Z</time>
      </trkpt>
      <trkpt lat="43.79218" lon="3.81343">
        <ele>276.2</ele>
        <time>2024-02-23T11:10:25Z</time>
      </trkpt>
      <trkpt lat="43.79218" lon="3.81343">
        <ele>275.6</ele>
        <time>2024-02-23T11:10:26Z</time>
      </trkpt>
      <trkpt lat="43.7922" lon="3.81341">
        <ele>275</ele>
        <time>2024-02-23T11:10:27Z</time>
      </trkpt>
      <trkpt lat="43.7922" lon="3.81341">
        <ele>274.6</ele>
        <time>2024-02-23T11:10:28Z</time>
      </trkpt>
      <trkpt lat="43.7922" lon="3.81341">
        <ele>274.2</ele>
        <time>2024-02-23T11:10:29Z</time>
      </trkpt>
      <trkpt lat="43.79222" lon="3.81344">
        <ele>273.6</ele>
        <time>2024-02-23T11:10:30Z</time>
      </trkpt>
      <trkpt lat="43.79222" lon="3.81344">
        <ele>273.2</ele>
        <time>2024-02-23T11:10:31Z</time>
      </trkpt>
      <trkpt lat="43.79222" lon="3.81344">
        <ele>273</ele>
        <time>2024-02-23T11:10:32Z</time>
      </trkpt>
      <trkpt lat="43.79223" lon="3.81348">
        <ele>272.6</ele>
        <time>2024-02-23T11:10:33Z</time>
      </trkpt>
      <trkpt lat="43.79223" lon="3.81348">
        <ele>272.4</ele>
        <time>2024-02-23T11:10:34Z</time>
      </trkpt>
      <trkpt lat="43.79224" lon="3.8135">
        <ele>272</ele>
        <time>2024-02-23T11:10:35Z</time>
      </trkpt>
      <trkpt lat="43.79224" lon="3.8135">
        <ele>271.6</ele>
        <time>2024-02-23T11:10:36Z</time>
      </trkpt>
      <trkpt lat="43.79227" lon="3.81351">
        <ele>271.2</ele>
        <time>2024-02-23T11:10:37Z</time>
      </trkpt>
      <trkpt lat="43.79227" lon="3.81351">
        <ele>271</ele>
        <time>2024-02-23T11:10:38Z</time>
      </trkpt>
      <trkpt lat="43.7923" lon="3.81353">
        <ele>270.8</ele>
        <time>2024-02-23T11:10:39Z</time>
      </trkpt>
      <trkpt lat="43.79232" lon="3.81354">
        <ele>270.6</ele>
        <time>2024-02-23T11:10:40Z</time>
      </trkpt>
      <trkpt lat="43.79232" lon="3.81354">
        <ele>270.6</ele>
        <time>2024-02-23T11:10:41Z</time>
      </trkpt>
      <trkpt lat="43.79233" lon="3.81358">
        <ele>270.6</ele>
        <time>2024-02-23T11:10:42Z</time>
      </trkpt>
      <trkpt lat="43.79233" lon="3.8136">
        <ele>270.6</ele>
        <time>2024-02-23T11:10:43Z</time>
      </trkpt>
      <trkpt lat="43.79234" lon="3.81363">
        <ele>270.6</ele>
        <time>2024-02-23T11:10:44Z</time>
      </trkpt>
      <trkpt lat="43.79235" lon="3.81365">
        <ele>270.8</ele>
        <time>2024-02-23T11:10:45Z</time>
      </trkpt>
      <trkpt lat="43.79235" lon="3.81365">
        <ele>270.8</ele>
        <time>2024-02-23T11:10:46Z</time>
      </trkpt>
      <trkpt lat="43.79238" lon="3.81367">
        <ele>270.8</ele>
        <time>2024-02-23T11:10:47Z</time>
      </trkpt>
      <trkpt lat="43.79238" lon="3.81367">
        <ele>270.8</ele>
        <time>2024-02-23T11:10:48Z</time>
      </trkpt>
      <trkpt lat="43.7924" lon="3.8137">
        <ele>270.8</ele>
        <time>2024-02-23T11:10:49Z</time>
      </trkpt>
      <trkpt lat="43.79242" lon="3.81371">
        <ele>270.6</ele>
        <time>2024-02-23T11:10:50Z</time>
      </trkpt>
      <trkpt lat="43.79242" lon="3.81371">
        <ele>270.6</ele>
        <time>2024-02-23T11:10:51Z</time>
      </trkpt>
      <trkpt lat="43.79242" lon="3.81374">
        <ele>270.8</ele>
        <time>2024-02-23T11:10:52Z</time>
      </trkpt>
      <trkpt lat="43.79242" lon="3.81374">
        <ele>270.8</ele>
        <time>2024-02-23T11:10:53Z</time>
      </trkpt>
      <trkpt lat="43.79242" lon="3.81374">
        <ele>270.8</ele>
        <time>2024-02-23T11:10:54Z</time>
      </trkpt>
      <trkpt lat="43.79241" lon="3.81375">
        <ele>271</ele>
        <time>2024-02-23T11:10:55Z</time>
      </trkpt>
      <trkpt lat="43.79241" lon="3.81375">
        <ele>271.4</ele>
        <time>2024-02-23T11:10:56Z</time>
      </trkpt>
      <trkpt lat="43.79241" lon="3.81375">
        <ele>271.6</ele>
        <time>2024-02-23T11:10:57Z</time>
      </trkpt>
      <trkpt lat="43.79238" lon="3.81376">
        <ele>271.8</ele>
        <time>2024-02-23T11:10:58Z</time>
      </trkpt>
      <trkpt lat="43.79238" lon="3.81376">
        <ele>272.2</ele>
        <time>2024-02-23T11:10:59Z</time>
      </trkpt>
      <trkpt lat="43.79237" lon="3.81379">
        <ele>272.4</ele>
        <time>2024-02-23T11:11:00Z</time>
      </trkpt>
      <trkpt lat="43.79237" lon="3.81379">
        <ele>272.6</ele>
        <time>2024-02-23T11:11:01Z</time>
      </trkpt>
      <trkpt lat="43.79237" lon="3.81379">
        <ele>272.8</ele>
        <time>2024-02-23T11:11:02Z</time>
      </trkpt>
      <trkpt lat="43.79237" lon="3.81382">
        <ele>273.2</ele>
        <time>2024-02-23T11:11:03Z</time>
      </trkpt>
      <trkpt lat="43.79237" lon="3.81382">
        <ele>273.4</ele>
        <time>2024-02-23T11:11:04Z</time>
      </trkpt>
      <trkpt lat="43.79237" lon="3.81385">
        <ele>273.8</ele>
        <time>2024-02-23T11:11:05Z</time>
      </trkpt>
      <trkpt lat="43.79237" lon="3.81385">
        <ele>273.8</ele>
        <time>2024-02-23T11:11:06Z</time>
      </trkpt>
      <trkpt lat="43.79238" lon="3.81388">
        <ele>274.2</ele>
        <time>2024-02-23T11:11:07Z</time>
      </trkpt>
      <trkpt lat="43.79238" lon="3.81388">
        <ele>274.4</ele>
        <time>2024-02-23T11:11:08Z</time>
      </trkpt>
      <trkpt lat="43.79238" lon="3.81388">
        <ele>274.6</ele>
        <time>2024-02-23T11:11:09Z</time>
      </trkpt>
      <trkpt lat="43.79239" lon="3.81391">
        <ele>275</ele>
        <time>2024-02-23T11:11:10Z</time>
      </trkpt>
      <trkpt lat="43.79239" lon="3.81391">
        <ele>275.2</ele>
        <time>2024-02-23T11:11:11Z</time>
      </trkpt>
      <trkpt lat="43.79239" lon="3.81391">
        <ele>275.6</ele>
        <time>2024-02-23T11:11:12Z</time>
      </trkpt>
      <trkpt lat="43.79239" lon="3.81391">
        <ele>275.8</ele>
        <time>2024-02-23T11:11:13Z</time>
      </trkpt>
      <trkpt lat="43.7924" lon="3.81394">
        <ele>276</ele>
        <time>2024-02-23T11:11:14Z</time>
      </trkpt>
      <trkpt lat="43.7924" lon="3.81394">
        <ele>276.4</ele>
        <time>2024-02-23T11:11:15Z</time>
      </trkpt>
      <trkpt lat="43.7924" lon="3.81394">
        <ele>276.6</ele>
        <time>2024-02-23T11:11:16Z</time>
      </trkpt>
      <trkpt lat="43.7924" lon="3.81394">
        <ele>277</ele>
        <time>2024-02-23T11:11:17Z</time>
      </trkpt>
      <trkpt lat="43.7924" lon="3.81398">
        <ele>277.4</ele>
        <time>2024-02-23T11:11:18Z</time>
      </trkpt>
      <trkpt lat="43.7924" lon="3.81398">
        <ele>277.6</ele>
        <time>2024-02-23T11:11:19Z</time>
      </trkpt>
      <trkpt lat="43.79241" lon="3.81402">
        <ele>277.8</ele>
        <time>2024-02-23T11:11:20Z</time>
      </trkpt>
      <trkpt lat="43.79241" lon="3.81402">
        <ele>278</ele>
        <time>2024-02-23T11:11:21Z</time>
      </trkpt>
      <trkpt lat="43.79243" lon="3.81406">
        <ele>278.2</ele>
        <time>2024-02-23T11:11:22Z</time>
      </trkpt>
      <trkpt lat="43.79243" lon="3.81409">
        <ele>278.4</ele>
        <time>2024-02-23T11:11:23Z</time>
      </trkpt>
      <trkpt lat="43.79243" lon="3.81409">
        <ele>278.6</ele>
        <time>2024-02-23T11:11:24Z</time>
      </trkpt>
      <trkpt lat="43.79244" lon="3.81412">
        <ele>278.8</ele>
        <time>2024-02-23T11:11:25Z</time>
      </trkpt>
      <trkpt lat="43.79244" lon="3.81412">
        <ele>278.8</ele>
        <time>2024-02-23T11:11:26Z</time>
      </trkpt>
      <trkpt lat="43.79244" lon="3.81416">
        <ele>279</ele>
        <time>2024-02-23T11:11:27Z</time>
      </trkpt>
      <trkpt lat="43.79244" lon="3.81416">
        <ele>279.2</ele>
        <time>2024-02-23T11:11:28Z</time>
      </trkpt>
      <trkpt lat="43.79244" lon="3.81416">
        <ele>279.4</ele>
        <time>2024-02-23T11:11:29Z</time>
      </trkpt>
      <trkpt lat="43.79244" lon="3.81419">
        <ele>279.6</ele>
        <time>2024-02-23T11:11:30Z</time>
      </trkpt>
      <trkpt lat="43.79244" lon="3.81419">
        <ele>280</ele>
        <time>2024-02-23T11:11:31Z</time>
      </trkpt>
      <trkpt lat="43.79244" lon="3.81419">
        <ele>280.2</ele>
        <time>2024-02-23T11:11:32Z</time>
      </trkpt>
      <trkpt lat="43.79243" lon="3.81421">
        <ele>280.6</ele>
        <time>2024-02-23T11:11:33Z</time>
      </trkpt>
      <trkpt lat="43.79243" lon="3.81421">
        <ele>281</ele>
        <time>2024-02-23T11:11:34Z</time>
      </trkpt>
      <trkpt lat="43.79243" lon="3.81421">
        <ele>281.2</ele>
        <time>2024-02-23T11:11:35Z</time>
      </trkpt>
      <trkpt lat="43.79243" lon="3.81421">
        <ele>281.4</ele>
        <time>2024-02-23T11:11:36Z</time>
      </trkpt>
      <trkpt lat="43.79243" lon="3.81425">
        <ele>281.8</ele>
        <time>2024-02-23T11:11:37Z</time>
      </trkpt>
      <trkpt lat="43.79243" lon="3.81425">
        <ele>282</ele>
        <time>2024-02-23T11:11:38Z</time>
      </trkpt>
      <trkpt lat="43.79243" lon="3.81425">
        <ele>282.6</ele>
        <time>2024-02-23T11:11:39Z</time>
      </trkpt>
      <trkpt lat="43.79242" lon="3.81428">
        <ele>283</ele>
        <time>2024-02-23T11:11:40Z</time>
      </trkpt>
      <trkpt lat="43.79242" lon="3.81428">
        <ele>283.4</ele>
        <time>2024-02-23T11:11:41Z</time>
      </trkpt>
      <trkpt lat="43.79244" lon="3.81432">
        <ele>283.8</ele>
        <time>2024-02-23T11:11:42Z</time>
      </trkpt>
      <trkpt lat="43.79244" lon="3.81432">
        <ele>284.2</ele>
        <time>2024-02-23T11:11:43Z</time>
      </trkpt>
      <trkpt lat="43.79245" lon="3.81435">
        <ele>284.6</ele>
        <time>2024-02-23T11:11:44Z</time>
      </trkpt>
      <trkpt lat="43.79245" lon="3.81435">
        <ele>285</ele>
        <time>2024-02-23T11:11:45Z</time>
      </trkpt>
      <trkpt lat="43.79246" lon="3.81438">
        <ele>285.4</ele>
        <time>2024-02-23T11:11:46Z</time>
      </trkpt>
      <trkpt lat="43.79246" lon="3.81438">
        <ele>285.6</ele>
        <time>2024-02-23T11:11:47Z</time>
      </trkpt>
      <trkpt lat="43.79248" lon="3.81442">
        <ele>285.8</ele>
        <time>2024-02-23T11:11:48Z</time>
      </trkpt>
      <trkpt lat="43.79248" lon="3.81442">
        <ele>286</ele>
        <time>2024-02-23T11:11:49Z</time>
      </trkpt>
      <trkpt lat="43.79248" lon="3.81442">
        <ele>286.4</ele>
        <time>2024-02-23T11:11:50Z</time>
      </trkpt>
      <trkpt lat="43.79248" lon="3.81446">
        <ele>286.6</ele>
        <time>2024-02-23T11:11:51Z</time>
      </trkpt>
      <trkpt lat="43.79248" lon="3.81446">
        <ele>287</ele>
        <time>2024-02-23T11:11:52Z</time>
      </trkpt>
      <trkpt lat="43.79248" lon="3.81446">
        <ele>287.4</ele>
        <time>2024-02-23T11:11:53Z</time>
      </trkpt>
      <trkpt lat="43.79248" lon="3.81446">
        <ele>287.8</ele>
        <time>2024-02-23T11:11:54Z</time>
      </trkpt>
      <trkpt lat="43.79246" lon="3.81449">
        <ele>288.2</ele>
        <time>2024-02-23T11:11:55Z</time>
      </trkpt>
      <trkpt lat="43.79246" lon="3.81449">
        <ele>288.8</ele>
        <time>2024-02-23T11:11:56Z</time>
      </trkpt>
      <trkpt lat="43.79246" lon="3.81449">
        <ele>289.2</ele>
        <time>2024-02-23T11:11:57Z</time>
      </trkpt>
      <trkpt lat="43.79245" lon="3.81452">
        <ele>289.6</ele>
        <time>2024-02-23T11:11:58Z</time>
      </trkpt>
      <trkpt lat="43.79245" lon="3.81452">
        <ele>290</ele>
        <time>2024-02-23T11:11:59Z</time>
      </trkpt>
      <trkpt lat="43.79245" lon="3.81454">
        <ele>290.4</ele>
        <time>2024-02-23T11:12:00Z</time>
      </trkpt>
      <trkpt lat="43.79245" lon="3.81454">
        <ele>290.6</ele>
        <time>2024-02-23T11:12:01Z</time>
      </trkpt>
      <trkpt lat="43.79245" lon="3.81458">
        <ele>290.8</ele>
        <time>2024-02-23T11:12:02Z</time>
      </trkpt>
      <trkpt lat="43.79245" lon="3.81458">
        <ele>290.8</ele>
        <time>2024-02-23T11:12:03Z</time>
      </trkpt>
      <trkpt lat="43.79246" lon="3.81462">
        <ele>291</ele>
        <time>2024-02-23T11:12:04Z</time>
      </trkpt>
      <trkpt lat="43.79246" lon="3.81462">
        <ele>291.2</ele>
        <time>2024-02-23T11:12:05Z</time>
      </trkpt>
      <trkpt lat="43.79248" lon="3.81467">
        <ele>291.4</ele>
        <time>2024-02-23T11:12:06Z</time>
      </trkpt>
      <trkpt lat="43.79248" lon="3.81467">
        <ele>291.6</ele>
        <time>2024-02-23T11:12:07Z</time>
      </trkpt>
      <trkpt lat="43.79249" lon="3.81471">
        <ele>292</ele>
        <time>2024-02-23T11:12:08Z</time>
      </trkpt>
      <trkpt lat="43.79249" lon="3.81471">
        <ele>292.2</ele>
        <time>2024-02-23T11:12:09Z</time>
      </trkpt>
      <trkpt lat="43.79249" lon="3.81475">
        <ele>292.6</ele>
        <time>2024-02-23T11:12:10Z</time>
      </trkpt>
      <trkpt lat="43.79249" lon="3.81475">
        <ele>293</ele>
        <time>2024-02-23T11:12:11Z</time>
      </trkpt>
      <trkpt lat="43.79249" lon="3.81479">
        <ele>293.4</ele>
        <time>2024-02-23T11:12:12Z</time>
      </trkpt>
      <trkpt lat="43.79249" lon="3.81479">
        <ele>293.6</ele>
        <time>2024-02-23T11:12:13Z</time>
      </trkpt>
      <trkpt lat="43.79249" lon="3.81483">
        <ele>294</ele>
        <time>2024-02-23T11:12:14Z</time>
      </trkpt>
      <trkpt lat="43.79249" lon="3.81483">
        <ele>294.2</ele>
        <time>2024-02-23T11:12:15Z</time>
      </trkpt>
      <trkpt lat="43.79249" lon="3.81483">
        <ele>294.4</ele>
        <time>2024-02-23T11:12:16Z</time>
      </trkpt>
      <trkpt lat="43.79248" lon="3.81486">
        <ele>294.6</ele>
        <time>2024-02-23T11:12:17Z</time>
      </trkpt>
      <trkpt lat="43.79248" lon="3.81486">
        <ele>295</ele>
        <time>2024-02-23T11:12:18Z</time>
      </trkpt>
      <trkpt lat="43.79248" lon="3.81488">
        <ele>295.4</ele>
        <time>2024-02-23T11:12:19Z</time>
      </trkpt>
      <trkpt lat="43.79248" lon="3.81488">
        <ele>295.6</ele>
        <time>2024-02-23T11:12:20Z</time>
      </trkpt>
      <trkpt lat="43.7925" lon="3.81492">
        <ele>295.6</ele>
        <time>2024-02-23T11:12:21Z</time>
      </trkpt>
      <trkpt lat="43.7925" lon="3.81492">
        <ele>295.8</ele>
        <time>2024-02-23T11:12:22Z</time>
      </trkpt>
      <trkpt lat="43.79252" lon="3.81497">
        <ele>296</ele>
        <time>2024-02-23T11:12:23Z</time>
      </trkpt>
      <trkpt lat="43.79253" lon="3.815">
        <ele>296.2</ele>
        <time>2024-02-23T11:12:24Z</time>
      </trkpt>
      <trkpt lat="43.79254" lon="3.81503">
        <ele>296.4</ele>
        <time>2024-02-23T11:12:25Z</time>
      </trkpt>
      <trkpt lat="43.79255" lon="3.81505">
        <ele>296.6</ele>
        <time>2024-02-23T11:12:26Z</time>
      </trkpt>
      <trkpt lat="43.79256" lon="3.81508">
        <ele>296.6</ele>
        <time>2024-02-23T11:12:27Z</time>
      </trkpt>
      <trkpt lat="43.79256" lon="3.8151">
        <ele>296.6</ele>
        <time>2024-02-23T11:12:28Z</time>
      </trkpt>
      <trkpt lat="43.79257" lon="3.81513">
        <ele>296.8</ele>
        <time>2024-02-23T11:12:29Z</time>
      </trkpt>
      <trkpt lat="43.79258" lon="3.81516">
        <ele>297</ele>
        <time>2024-02-23T11:12:30Z</time>
      </trkpt>
      <trkpt lat="43.79259" lon="3.81518">
        <ele>297</ele>
        <time>2024-02-23T11:12:31Z</time>
      </trkpt>
      <trkpt lat="43.79259" lon="3.81518">
        <ele>297</ele>
        <time>2024-02-23T11:12:32Z</time>
      </trkpt>
      <trkpt lat="43.7926" lon="3.81521">
        <ele>296.8</ele>
        <time>2024-02-23T11:12:33Z</time>
      </trkpt>
      <trkpt lat="43.79262" lon="3.81522">
        <ele>297</ele>
        <time>2024-02-23T11:12:34Z</time>
      </trkpt>
      <trkpt lat="43.79264" lon="3.81525">
        <ele>297</ele>
        <time>2024-02-23T11:12:35Z</time>
      </trkpt>
      <trkpt lat="43.79266" lon="3.81527">
        <ele>296.8</ele>
        <time>2024-02-23T11:12:36Z</time>
      </trkpt>
      <trkpt lat="43.79268" lon="3.81531">
        <ele>296.6</ele>
        <time>2024-02-23T11:12:37Z</time>
      </trkpt>
      <trkpt lat="43.79269" lon="3.81534">
        <ele>296.8</ele>
        <time>2024-02-23T11:12:38Z</time>
      </trkpt>
      <trkpt lat="43.7927" lon="3.81537">
        <ele>296.8</ele>
        <time>2024-02-23T11:12:39Z</time>
      </trkpt>
      <trkpt lat="43.7927" lon="3.81539">
        <ele>297.2</ele>
        <time>2024-02-23T11:12:40Z</time>
      </trkpt>
      <trkpt lat="43.7927" lon="3.81539">
        <ele>297.4</ele>
        <time>2024-02-23T11:12:41Z</time>
      </trkpt>
      <trkpt lat="43.79271" lon="3.81543">
        <ele>297.4</ele>
        <time>2024-02-23T11:12:42Z</time>
      </trkpt>
      <trkpt lat="43.79271" lon="3.81543">
        <ele>297.6</ele>
        <time>2024-02-23T11:12:43Z</time>
      </trkpt>
      <trkpt lat="43.79271" lon="3.81543">
        <ele>297.8</ele>
        <time>2024-02-23T11:12:44Z</time>
      </trkpt>
      <trkpt lat="43.79269" lon="3.81545">
        <ele>298.2</ele>
        <time>2024-02-23T11:12:45Z</time>
      </trkpt>
      <trkpt lat="43.79269" lon="3.81545">
        <ele>298.6</ele>
        <time>2024-02-23T11:12:46Z</time>
      </trkpt>
      <trkpt lat="43.79269" lon="3.81545">
        <ele>299</ele>
        <time>2024-02-23T11:12:47Z</time>
      </trkpt>
      <trkpt lat="43.79269" lon="3.81545">
        <ele>299.6</ele>
        <time>2024-02-23T11:12:48Z</time>
      </trkpt>
      <trkpt lat="43.79266" lon="3.81546">
        <ele>300</ele>
        <time>2024-02-23T11:12:49Z</time>
      </trkpt>
      <trkpt lat="43.79265" lon="3.81548">
        <ele>300.4</ele>
        <time>2024-02-23T11:12:50Z</time>
      </trkpt>
      <trkpt lat="43.79265" lon="3.81548">
        <ele>300.6</ele>
        <time>2024-02-23T11:12:51Z</time>
      </trkpt>
      <trkpt lat="43.79264" lon="3.81552">
        <ele>300.8</ele>
        <time>2024-02-23T11:12:52Z</time>
      </trkpt>
      <trkpt lat="43.79264" lon="3.81552">
        <ele>301</ele>
        <time>2024-02-23T11:12:53Z</time>
      </trkpt>
      <trkpt lat="43.79265" lon="3.81557">
        <ele>301.6</ele>
        <time>2024-02-23T11:12:54Z</time>
      </trkpt>
      <trkpt lat="43.79265" lon="3.81557">
        <ele>301.8</ele>
        <time>2024-02-23T11:12:55Z</time>
      </trkpt>
      <trkpt lat="43.79265" lon="3.81561">
        <ele>301.8</ele>
        <time>2024-02-23T11:12:56Z</time>
      </trkpt>
      <trkpt lat="43.79265" lon="3.81561">
        <ele>301.8</ele>
        <time>2024-02-23T11:12:57Z</time>
      </trkpt>
      <trkpt lat="43.79266" lon="3.81564">
        <ele>302.2</ele>
        <time>2024-02-23T11:12:58Z</time>
      </trkpt>
      <trkpt lat="43.79267" lon="3.81566">
        <ele>302.4</ele>
        <time>2024-02-23T11:12:59Z</time>
      </trkpt>
      <trkpt lat="43.79268" lon="3.81569">
        <ele>302.8</ele>
        <time>2024-02-23T11:13:00Z</time>
      </trkpt>
      <trkpt lat="43.79269" lon="3.81571">
        <ele>303.2</ele>
        <time>2024-02-23T11:13:01Z</time>
      </trkpt>
      <trkpt lat="43.79269" lon="3.81571">
        <ele>303.6</ele>
        <time>2024-02-23T11:13:02Z</time>
      </trkpt>
      <trkpt lat="43.7927" lon="3.81575">
        <ele>304</ele>
        <time>2024-02-23T11:13:03Z</time>
      </trkpt>
      <trkpt lat="43.7927" lon="3.81575">
        <ele>304.2</ele>
        <time>2024-02-23T11:13:04Z</time>
      </trkpt>
      <trkpt lat="43.7927" lon="3.8158">
        <ele>304.4</ele>
        <time>2024-02-23T11:13:05Z</time>
      </trkpt>
      <trkpt lat="43.7927" lon="3.8158">
        <ele>304.4</ele>
        <time>2024-02-23T11:13:06Z</time>
      </trkpt>
      <trkpt lat="43.79271" lon="3.81584">
        <ele>304.2</ele>
        <time>2024-02-23T11:13:07Z</time>
      </trkpt>
      <trkpt lat="43.79271" lon="3.81584">
        <ele>304</ele>
        <time>2024-02-23T11:13:08Z</time>
      </trkpt>
      <trkpt lat="43.79271" lon="3.81588">
        <ele>303.4</ele>
        <time>2024-02-23T11:13:09Z</time>
      </trkpt>
      <trkpt lat="43.79271" lon="3.81588">
        <ele>303</ele>
        <time>2024-02-23T11:13:10Z</time>
      </trkpt>
      <trkpt lat="43.79272" lon="3.81591">
        <ele>302.6</ele>
        <time>2024-02-23T11:13:11Z</time>
      </trkpt>
      <trkpt lat="43.79272" lon="3.81591">
        <ele>302.4</ele>
        <time>2024-02-23T11:13:12Z</time>
      </trkpt>
      <trkpt lat="43.79272" lon="3.81595">
        <ele>302.2</ele>
        <time>2024-02-23T11:13:13Z</time>
      </trkpt>
      <trkpt lat="43.79272" lon="3.81595">
        <ele>302</ele>
        <time>2024-02-23T11:13:14Z</time>
      </trkpt>
      <trkpt lat="43.79272" lon="3.81599">
        <ele>302</ele>
        <time>2024-02-23T11:13:15Z</time>
      </trkpt>
      <trkpt lat="43.79272" lon="3.81599">
        <ele>302</ele>
        <time>2024-02-23T11:13:16Z</time>
      </trkpt>
      <trkpt lat="43.79273" lon="3.81603">
        <ele>302</ele>
        <time>2024-02-23T11:13:17Z</time>
      </trkpt>
      <trkpt lat="43.79273" lon="3.81603">
        <ele>302.2</ele>
        <time>2024-02-23T11:13:18Z</time>
      </trkpt>
      <trkpt lat="43.79274" lon="3.81606">
        <ele>302.2</ele>
        <time>2024-02-23T11:13:19Z</time>
      </trkpt>
      <trkpt lat="43.79274" lon="3.81606">
        <ele>302.6</ele>
        <time>2024-02-23T11:13:20Z</time>
      </trkpt>
      <trkpt lat="43.79275" lon="3.81609">
        <ele>302.6</ele>
        <time>2024-02-23T11:13:21Z</time>
      </trkpt>
      <trkpt lat="43.79275" lon="3.81609">
        <ele>302.8</ele>
        <time>2024-02-23T11:13:22Z</time>
      </trkpt>
      <trkpt lat="43.79275" lon="3.81613">
        <ele>302.8</ele>
        <time>2024-02-23T11:13:23Z</time>
      </trkpt>
      <trkpt lat="43.79275" lon="3.81613">
        <ele>302.8</ele>
        <time>2024-02-23T11:13:24Z</time>
      </trkpt>
      <trkpt lat="43.79276" lon="3.81616">
        <ele>302.8</ele>
        <time>2024-02-23T11:13:25Z</time>
      </trkpt>
      <trkpt lat="43.79276" lon="3.81616">
        <ele>302.8</ele>
        <time>2024-02-23T11:13:26Z</time>
      </trkpt>
      <trkpt lat="43.79278" lon="3.81618">
        <ele>302.6</ele>
        <time>2024-02-23T11:13:27Z</time>
      </trkpt>
      <trkpt lat="43.79278" lon="3.81618">
        <ele>302.4</ele>
        <time>2024-02-23T11:13:28Z</time>
      </trkpt>
      <trkpt lat="43.79281" lon="3.8162">
        <ele>302.2</ele>
        <time>2024-02-23T11:13:29Z</time>
      </trkpt>
      <trkpt lat="43.79281" lon="3.8162">
        <ele>302.2</ele>
        <time>2024-02-23T11:13:30Z</time>
      </trkpt>
      <trkpt lat="43.79282" lon="3.81625">
        <ele>302.2</ele>
        <time>2024-02-23T11:13:31Z</time>
      </trkpt>
      <trkpt lat="43.79282" lon="3.81625">
        <ele>302.2</ele>
        <time>2024-02-23T11:13:32Z</time>
      </trkpt>
      <trkpt lat="43.79282" lon="3.81625">
        <ele>302.4</ele>
        <time>2024-02-23T11:13:33Z</time>
      </trkpt>
      <trkpt lat="43.79283" lon="3.81629">
        <ele>302.4</ele>
        <time>2024-02-23T11:13:34Z</time>
      </trkpt>
      <trkpt lat="43.79283" lon="3.81629">
        <ele>302.4</ele>
        <time>2024-02-23T11:13:35Z</time>
      </trkpt>
      <trkpt lat="43.79284" lon="3.81631">
        <ele>302.6</ele>
        <time>2024-02-23T11:13:36Z</time>
      </trkpt>
      <trkpt lat="43.79284" lon="3.81631">
        <ele>302.6</ele>
        <time>2024-02-23T11:13:37Z</time>
      </trkpt>
      <trkpt lat="43.79285" lon="3.81634">
        <ele>302.6</ele>
        <time>2024-02-23T11:13:38Z</time>
      </trkpt>
      <trkpt lat="43.79285" lon="3.81634">
        <ele>302.6</ele>
        <time>2024-02-23T11:13:39Z</time>
      </trkpt>
      <trkpt lat="43.79285" lon="3.81637">
        <ele>302.8</ele>
        <time>2024-02-23T11:13:40Z</time>
      </trkpt>
      <trkpt lat="43.79285" lon="3.81637">
        <ele>303</ele>
        <time>2024-02-23T11:13:41Z</time>
      </trkpt>
      <trkpt lat="43.79285" lon="3.81641">
        <ele>303.2</ele>
        <time>2024-02-23T11:13:42Z</time>
      </trkpt>
      <trkpt lat="43.79285" lon="3.81641">
        <ele>303.4</ele>
        <time>2024-02-23T11:13:43Z</time>
      </trkpt>
      <trkpt lat="43.79285" lon="3.81643">
        <ele>303.8</ele>
        <time>2024-02-23T11:13:44Z</time>
      </trkpt>
      <trkpt lat="43.79285" lon="3.81643">
        <ele>304.2</ele>
        <time>2024-02-23T11:13:45Z</time>
      </trkpt>
      <trkpt lat="43.79285" lon="3.81647">
        <ele>304.4</ele>
        <time>2024-02-23T11:13:46Z</time>
      </trkpt>
      <trkpt lat="43.79285" lon="3.81647">
        <ele>304.8</ele>
        <time>2024-02-23T11:13:47Z</time>
      </trkpt>
      <trkpt lat="43.79285" lon="3.81649">
        <ele>305.4</ele>
        <time>2024-02-23T11:13:48Z</time>
      </trkpt>
      <trkpt lat="43.79285" lon="3.81649">
        <ele>305.8</ele>
        <time>2024-02-23T11:13:49Z</time>
      </trkpt>
      <trkpt lat="43.79284" lon="3.81652">
        <ele>306</ele>
        <time>2024-02-23T11:13:50Z</time>
      </trkpt>
      <trkpt lat="43.79284" lon="3.81652">
        <ele>306</ele>
        <time>2024-02-23T11:13:51Z</time>
      </trkpt>
      <trkpt lat="43.79285" lon="3.81655">
        <ele>306</ele>
        <time>2024-02-23T11:13:52Z</time>
      </trkpt>
      <trkpt lat="43.79285" lon="3.81655">
        <ele>305.8</ele>
        <time>2024-02-23T11:13:53Z</time>
      </trkpt>
      <trkpt lat="43.79287" lon="3.81657">
        <ele>305.4</ele>
        <time>2024-02-23T11:13:54Z</time>
      </trkpt>
      <trkpt lat="43.79287" lon="3.81657">
        <ele>305</ele>
        <time>2024-02-23T11:13:55Z</time>
      </trkpt>
      <trkpt lat="43.79289" lon="3.8166">
        <ele>304.6</ele>
        <time>2024-02-23T11:13:56Z</time>
      </trkpt>
      <trkpt lat="43.79289" lon="3.81663">
        <ele>304.4</ele>
        <time>2024-02-23T11:13:57Z</time>
      </trkpt>
      <trkpt lat="43.79289" lon="3.81665">
        <ele>304.2</ele>
        <time>2024-02-23T11:13:58Z</time>
      </trkpt>
      <trkpt lat="43.79289" lon="3.81665">
        <ele>304.2</ele>
        <time>2024-02-23T11:13:59Z</time>
      </trkpt>
      <trkpt lat="43.7929" lon="3.81669">
        <ele>304.2</ele>
        <time>2024-02-23T11:14:00Z</time>
      </trkpt>
      <trkpt lat="43.7929" lon="3.81669">
        <ele>304.2</ele>
        <time>2024-02-23T11:14:01Z</time>
      </trkpt>
      <trkpt lat="43.79291" lon="3.81673">
        <ele>304.2</ele>
        <time>2024-02-23T11:14:02Z</time>
      </trkpt>
      <trkpt lat="43.79291" lon="3.81673">
        <ele>304.2</ele>
        <time>2024-02-23T11:14:03Z</time>
      </trkpt>
      <trkpt lat="43.79291" lon="3.81673">
        <ele>304.2</ele>
        <time>2024-02-23T11:14:04Z</time>
      </trkpt>
      <trkpt lat="43.79292" lon="3.81676">
        <ele>304</ele>
        <time>2024-02-23T11:14:05Z</time>
      </trkpt>
      <trkpt lat="43.79292" lon="3.81676">
        <ele>304</ele>
        <time>2024-02-23T11:14:06Z</time>
      </trkpt>
      <trkpt lat="43.79293" lon="3.81679">
        <ele>303.8</ele>
        <time>2024-02-23T11:14:07Z</time>
      </trkpt>
      <trkpt lat="43.79293" lon="3.81679">
        <ele>303.8</ele>
        <time>2024-02-23T11:14:08Z</time>
      </trkpt>
      <trkpt lat="43.79294" lon="3.81683">
        <ele>303.8</ele>
        <time>2024-02-23T11:14:09Z</time>
      </trkpt>
      <trkpt lat="43.79294" lon="3.81683">
        <ele>303.6</ele>
        <time>2024-02-23T11:14:10Z</time>
      </trkpt>
      <trkpt lat="43.79295" lon="3.81686">
        <ele>303.8</ele>
        <time>2024-02-23T11:14:11Z</time>
      </trkpt>
      <trkpt lat="43.79295" lon="3.81686">
        <ele>303.8</ele>
        <time>2024-02-23T11:14:12Z</time>
      </trkpt>
      <trkpt lat="43.79295" lon="3.81686">
        <ele>304</ele>
        <time>2024-02-23T11:14:13Z</time>
      </trkpt>
      <trkpt lat="43.79295" lon="3.81689">
        <ele>304</ele>
        <time>2024-02-23T11:14:14Z</time>
      </trkpt>
      <trkpt lat="43.79295" lon="3.81689">
        <ele>304</ele>
        <time>2024-02-23T11:14:15Z</time>
      </trkpt>
      <trkpt lat="43.79295" lon="3.81692">
        <ele>304.2</ele>
        <time>2024-02-23T11:14:16Z</time>
      </trkpt>
      <trkpt lat="43.79295" lon="3.81692">
        <ele>304.2</ele>
        <time>2024-02-23T11:14:17Z</time>
      </trkpt>
      <trkpt lat="43.79295" lon="3.81695">
        <ele>304.2</ele>
        <time>2024-02-23T11:14:18Z</time>
      </trkpt>
      <trkpt lat="43.79295" lon="3.81695">
        <ele>304.4</ele>
        <time>2024-02-23T11:14:19Z</time>
      </trkpt>
      <trkpt lat="43.79295" lon="3.81695">
        <ele>304.6</ele>
        <time>2024-02-23T11:14:20Z</time>
      </trkpt>
      <trkpt lat="43.79295" lon="3.81698">
        <ele>305</ele>
        <time>2024-02-23T11:14:21Z</time>
      </trkpt>
      <trkpt lat="43.79295" lon="3.81698">
        <ele>305.4</ele>
        <time>2024-02-23T11:14:22Z</time>
      </trkpt>
      <trkpt lat="43.79295" lon="3.81698">
        <ele>305.6</ele>
        <time>2024-02-23T11:14:23Z</time>
      </trkpt>
      <trkpt lat="43.79295" lon="3.81698">
        <ele>306</ele>
        <time>2024-02-23T11:14:24Z</time>
      </trkpt>
      <trkpt lat="43.79293" lon="3.817">
        <ele>306.2</ele>
        <time>2024-02-23T11:14:25Z</time>
      </trkpt>
      <trkpt lat="43.79293" lon="3.817">
        <ele>306.6</ele>
        <time>2024-02-23T11:14:26Z</time>
      </trkpt>
      <trkpt lat="43.79294" lon="3.81703">
        <ele>307</ele>
        <time>2024-02-23T11:14:27Z</time>
      </trkpt>
      <trkpt lat="43.79295" lon="3.81706">
        <ele>307</ele>
        <time>2024-02-23T11:14:28Z</time>
      </trkpt>
      <trkpt lat="43.79296" lon="3.81708">
        <ele>307</ele>
        <time>2024-02-23T11:14:29Z</time>
      </trkpt>
      <trkpt lat="43.79297" lon="3.81711">
        <ele>306.8</ele>
        <time>2024-02-23T11:14:30Z</time>
      </trkpt>
      <trkpt lat="43.79298" lon="3.81714">
        <ele>306.8</ele>
        <time>2024-02-23T11:14:31Z</time>
      </trkpt>
      <trkpt lat="43.793" lon="3.81716">
        <ele>306.6</ele>
        <time>2024-02-23T11:14:32Z</time>
      </trkpt>
      <trkpt lat="43.79301" lon="3.81718">
        <ele>306.6</ele>
        <time>2024-02-23T11:14:33Z</time>
      </trkpt>
      <trkpt lat="43.79301" lon="3.81721">
        <ele>306.6</ele>
        <time>2024-02-23T11:14:34Z</time>
      </trkpt>
      <trkpt lat="43.79301" lon="3.81721">
        <ele>306.6</ele>
        <time>2024-02-23T11:14:35Z</time>
      </trkpt>
      <trkpt lat="43.79301" lon="3.81725">
        <ele>306.8</ele>
        <time>2024-02-23T11:14:36Z</time>
      </trkpt>
      <trkpt lat="43.79301" lon="3.81725">
        <ele>306.8</ele>
        <time>2024-02-23T11:14:37Z</time>
      </trkpt>
      <trkpt lat="43.79301" lon="3.81728">
        <ele>306.8</ele>
        <time>2024-02-23T11:14:38Z</time>
      </trkpt>
      <trkpt lat="43.79301" lon="3.81728">
        <ele>306.8</ele>
        <time>2024-02-23T11:14:39Z</time>
      </trkpt>
      <trkpt lat="43.793" lon="3.81731">
        <ele>306.8</ele>
        <time>2024-02-23T11:14:40Z</time>
      </trkpt>
      <trkpt lat="43.793" lon="3.81731">
        <ele>306.8</ele>
        <time>2024-02-23T11:14:41Z</time>
      </trkpt>
      <trkpt lat="43.793" lon="3.81734">
        <ele>306.6</ele>
        <time>2024-02-23T11:14:42Z</time>
      </trkpt>
      <trkpt lat="43.793" lon="3.81736">
        <ele>306.6</ele>
        <time>2024-02-23T11:14:43Z</time>
      </trkpt>
      <trkpt lat="43.793" lon="3.81739">
        <ele>306.4</ele>
        <time>2024-02-23T11:14:44Z</time>
      </trkpt>
      <trkpt lat="43.793" lon="3.81739">
        <ele>306.2</ele>
        <time>2024-02-23T11:14:45Z</time>
      </trkpt>
      <trkpt lat="43.79301" lon="3.81742">
        <ele>305.8</ele>
        <time>2024-02-23T11:14:46Z</time>
      </trkpt>
      <trkpt lat="43.79301" lon="3.81742">
        <ele>305.4</ele>
        <time>2024-02-23T11:14:47Z</time>
      </trkpt>
      <trkpt lat="43.79302" lon="3.81747">
        <ele>305</ele>
        <time>2024-02-23T11:14:48Z</time>
      </trkpt>
      <trkpt lat="43.79302" lon="3.81747">
        <ele>304.6</ele>
        <time>2024-02-23T11:14:49Z</time>
      </trkpt>
      <trkpt lat="43.79304" lon="3.8175">
        <ele>304.2</ele>
        <time>2024-02-23T11:14:50Z</time>
      </trkpt>
      <trkpt lat="43.79304" lon="3.8175">
        <ele>303.8</ele>
        <time>2024-02-23T11:14:51Z</time>
      </trkpt>
      <trkpt lat="43.79305" lon="3.81753">
        <ele>303.4</ele>
        <time>2024-02-23T11:14:52Z</time>
      </trkpt>
      <trkpt lat="43.79305" lon="3.81753">
        <ele>303.2</ele>
        <time>2024-02-23T11:14:53Z</time>
      </trkpt>
      <trkpt lat="43.79305" lon="3.81756">
        <ele>303.2</ele>
        <time>2024-02-23T11:14:54Z</time>
      </trkpt>
      <trkpt lat="43.79305" lon="3.81756">
        <ele>303</ele>
        <time>2024-02-23T11:14:55Z</time>
      </trkpt>
      <trkpt lat="43.79305" lon="3.81759">
        <ele>303.2</ele>
        <time>2024-02-23T11:14:56Z</time>
      </trkpt>
      <trkpt lat="43.79305" lon="3.81759">
        <ele>303.4</ele>
        <time>2024-02-23T11:14:57Z</time>
      </trkpt>
      <trkpt lat="43.79303" lon="3.81763">
        <ele>303.8</ele>
        <time>2024-02-23T11:14:58Z</time>
      </trkpt>
      <trkpt lat="43.79303" lon="3.81763">
        <ele>304.2</ele>
        <time>2024-02-23T11:14:59Z</time>
      </trkpt>
      <trkpt lat="43.79302" lon="3.81767">
        <ele>304.2</ele>
        <time>2024-02-23T11:15:00Z</time>
      </trkpt>
      <trkpt lat="43.79302" lon="3.81767">
        <ele>304.4</ele>
        <time>2024-02-23T11:15:01Z</time>
      </trkpt>
      <trkpt lat="43.79302" lon="3.81771">
        <ele>304.6</ele>
        <time>2024-02-23T11:15:02Z</time>
      </trkpt>
      <trkpt lat="43.79302" lon="3.81773">
        <ele>305</ele>
        <time>2024-02-23T11:15:03Z</time>
      </trkpt>
      <trkpt lat="43.79302" lon="3.81773">
        <ele>305.2</ele>
        <time>2024-02-23T11:15:04Z</time>
      </trkpt>
      <trkpt lat="43.79303" lon="3.81778">
        <ele>305.6</ele>
        <time>2024-02-23T11:15:05Z</time>
      </trkpt>
      <trkpt lat="43.79303" lon="3.81778">
        <ele>305.8</ele>
        <time>2024-02-23T11:15:06Z</time>
      </trkpt>
      <trkpt lat="43.79305" lon="3.8178">
        <ele>306</ele>
        <time>2024-02-23T11:15:07Z</time>
      </trkpt>
      <trkpt lat="43.79305" lon="3.8178">
        <ele>306.4</ele>
        <time>2024-02-23T11:15:08Z</time>
      </trkpt>
      <trkpt lat="43.79307" lon="3.81784">
        <ele>306.6</ele>
        <time>2024-02-23T11:15:09Z</time>
      </trkpt>
      <trkpt lat="43.79307" lon="3.81787">
        <ele>306.8</ele>
        <time>2024-02-23T11:15:10Z</time>
      </trkpt>
      <trkpt lat="43.79308" lon="3.8179">
        <ele>307.2</ele>
        <time>2024-02-23T11:15:11Z</time>
      </trkpt>
      <trkpt lat="43.79308" lon="3.81792">
        <ele>307.6</ele>
        <time>2024-02-23T11:15:12Z</time>
      </trkpt>
      <trkpt lat="43.79307" lon="3.81795">
        <ele>307.8</ele>
        <time>2024-02-23T11:15:13Z</time>
      </trkpt>
      <trkpt lat="43.79307" lon="3.81795">
        <ele>308.2</ele>
        <time>2024-02-23T11:15:14Z</time>
      </trkpt>
      <trkpt lat="43.79306" lon="3.818">
        <ele>308.2</ele>
        <time>2024-02-23T11:15:15Z</time>
      </trkpt>
      <trkpt lat="43.79306" lon="3.81803">
        <ele>308.2</ele>
        <time>2024-02-23T11:15:16Z</time>
      </trkpt>
      <trkpt lat="43.79306" lon="3.81806">
        <ele>308.4</ele>
        <time>2024-02-23T11:15:17Z</time>
      </trkpt>
      <trkpt lat="43.79306" lon="3.8181">
        <ele>308.4</ele>
        <time>2024-02-23T11:15:18Z</time>
      </trkpt>
      <trkpt lat="43.79306" lon="3.81813">
        <ele>308.6</ele>
        <time>2024-02-23T11:15:19Z</time>
      </trkpt>
      <trkpt lat="43.79306" lon="3.81816">
        <ele>309</ele>
        <time>2024-02-23T11:15:20Z</time>
      </trkpt>
      <trkpt lat="43.79306" lon="3.81816">
        <ele>309.2</ele>
        <time>2024-02-23T11:15:21Z</time>
      </trkpt>
      <trkpt lat="43.79307" lon="3.8182">
        <ele>309.6</ele>
        <time>2024-02-23T11:15:22Z</time>
      </trkpt>
      <trkpt lat="43.79307" lon="3.8182">
        <ele>310</ele>
        <time>2024-02-23T11:15:23Z</time>
      </trkpt>
      <trkpt lat="43.79307" lon="3.81824">
        <ele>310.4</ele>
        <time>2024-02-23T11:15:24Z</time>
      </trkpt>
      <trkpt lat="43.79307" lon="3.81824">
        <ele>310.8</ele>
        <time>2024-02-23T11:15:25Z</time>
      </trkpt>
      <trkpt lat="43.79306" lon="3.81826">
        <ele>311</ele>
        <time>2024-02-23T11:15:26Z</time>
      </trkpt>
      <trkpt lat="43.79306" lon="3.81826">
        <ele>311.2</ele>
        <time>2024-02-23T11:15:27Z</time>
      </trkpt>
      <trkpt lat="43.79306" lon="3.81826">
        <ele>311.2</ele>
        <time>2024-02-23T11:15:28Z</time>
      </trkpt>
      <trkpt lat="43.79306" lon="3.81826">
        <ele>311.2</ele>
        <time>2024-02-23T11:15:29Z</time>
      </trkpt>
      <trkpt lat="43.79306" lon="3.81826">
        <ele>311.2</ele>
        <time>2024-02-23T11:15:30Z</time>
      </trkpt>
      <trkpt lat="43.79306" lon="3.81826">
        <ele>311.2</ele>
        <time>2024-02-23T11:15:31Z</time>
      </trkpt>
      <trkpt lat="43.79306" lon="3.81826">
        <ele>311.2</ele>
        <time>2024-02-23T11:15:32Z</time>
      </trkpt>
      <trkpt lat="43.79305" lon="3.8183">
        <ele>311.4</ele>
        <time>2024-02-23T11:15:33Z</time>
      </trkpt>
      <trkpt lat="43.79305" lon="3.8183">
        <ele>311.4</ele>
        <time>2024-02-23T11:15:34Z</time>
      </trkpt>
      <trkpt lat="43.79302" lon="3.81832">
        <ele>311.2</ele>
        <time>2024-02-23T11:15:35Z</time>
      </trkpt>
      <trkpt lat="43.79302" lon="3.81832">
        <ele>311.2</ele>
        <time>2024-02-23T11:15:36Z</time>
      </trkpt>
      <trkpt lat="43.793" lon="3.81835">
        <ele>311</ele>
        <time>2024-02-23T11:15:37Z</time>
      </trkpt>
      <trkpt lat="43.793" lon="3.81837">
        <ele>310.8</ele>
        <time>2024-02-23T11:15:38Z</time>
      </trkpt>
      <trkpt lat="43.793" lon="3.81837">
        <ele>310.6</ele>
        <time>2024-02-23T11:15:39Z</time>
      </trkpt>
      <trkpt lat="43.79299" lon="3.81841">
        <ele>310.2</ele>
        <time>2024-02-23T11:15:40Z</time>
      </trkpt>
      <trkpt lat="43.79299" lon="3.81841">
        <ele>309.6</ele>
        <time>2024-02-23T11:15:41Z</time>
      </trkpt>
      <trkpt lat="43.79298" lon="3.81846">
        <ele>309.2</ele>
        <time>2024-02-23T11:15:42Z</time>
      </trkpt>
      <trkpt lat="43.79297" lon="3.81849">
        <ele>309</ele>
        <time>2024-02-23T11:15:43Z</time>
      </trkpt>
      <trkpt lat="43.79297" lon="3.81852">
        <ele>308.8</ele>
        <time>2024-02-23T11:15:44Z</time>
      </trkpt>
      <trkpt lat="43.79297" lon="3.81852">
        <ele>308.8</ele>
        <time>2024-02-23T11:15:45Z</time>
      </trkpt>
      <trkpt lat="43.79295" lon="3.81857">
        <ele>309</ele>
        <time>2024-02-23T11:15:46Z</time>
      </trkpt>
      <trkpt lat="43.79295" lon="3.81857">
        <ele>309.2</ele>
        <time>2024-02-23T11:15:47Z</time>
      </trkpt>
      <trkpt lat="43.79295" lon="3.81861">
        <ele>309.4</ele>
        <time>2024-02-23T11:15:48Z</time>
      </trkpt>
      <trkpt lat="43.79295" lon="3.81864">
        <ele>309.6</ele>
        <time>2024-02-23T11:15:49Z</time>
      </trkpt>
      <trkpt lat="43.79295" lon="3.81864">
        <ele>309.6</ele>
        <time>2024-02-23T11:15:50Z</time>
      </trkpt>
      <trkpt lat="43.79296" lon="3.81869">
        <ele>309.8</ele>
        <time>2024-02-23T11:15:51Z</time>
      </trkpt>
      <trkpt lat="43.79296" lon="3.81869">
        <ele>309.8</ele>
        <time>2024-02-23T11:15:52Z</time>
      </trkpt>
      <trkpt lat="43.79296" lon="3.81872">
        <ele>309.8</ele>
        <time>2024-02-23T11:15:53Z</time>
      </trkpt>
      <trkpt lat="43.79296" lon="3.81872">
        <ele>309.6</ele>
        <time>2024-02-23T11:15:54Z</time>
      </trkpt>
      <trkpt lat="43.79297" lon="3.81877">
        <ele>309.6</ele>
        <time>2024-02-23T11:15:55Z</time>
      </trkpt>
      <trkpt lat="43.79297" lon="3.81877">
        <ele>309.6</ele>
        <time>2024-02-23T11:15:56Z</time>
      </trkpt>
      <trkpt lat="43.79299" lon="3.8188">
        <ele>309.6</ele>
        <time>2024-02-23T11:15:57Z</time>
      </trkpt>
      <trkpt lat="43.79299" lon="3.8188">
        <ele>309.8</ele>
        <time>2024-02-23T11:15:58Z</time>
      </trkpt>
      <trkpt lat="43.79299" lon="3.8188">
        <ele>310</ele>
        <time>2024-02-23T11:15:59Z</time>
      </trkpt>
      <trkpt lat="43.793" lon="3.81883">
        <ele>310.4</ele>
        <time>2024-02-23T11:16:00Z</time>
      </trkpt>
      <trkpt lat="43.793" lon="3.81883">
        <ele>311</ele>
        <time>2024-02-23T11:16:01Z</time>
      </trkpt>
      <trkpt lat="43.793" lon="3.81883">
        <ele>311.2</ele>
        <time>2024-02-23T11:16:02Z</time>
      </trkpt>
      <trkpt lat="43.793" lon="3.81887">
        <ele>312</ele>
        <time>2024-02-23T11:16:03Z</time>
      </trkpt>
      <trkpt lat="43.793" lon="3.81887">
        <ele>313</ele>
        <time>2024-02-23T11:16:04Z</time>
      </trkpt>
      <trkpt lat="43.79301" lon="3.81891">
        <ele>313.6</ele>
        <time>2024-02-23T11:16:05Z</time>
      </trkpt>
      <trkpt lat="43.79301" lon="3.81891">
        <ele>313.8</ele>
        <time>2024-02-23T11:16:06Z</time>
      </trkpt>
      <trkpt lat="43.79303" lon="3.81894">
        <ele>314.2</ele>
        <time>2024-02-23T11:16:07Z</time>
      </trkpt>
      <trkpt lat="43.79306" lon="3.81895">
        <ele>314.6</ele>
        <time>2024-02-23T11:16:08Z</time>
      </trkpt>
      <trkpt lat="43.79307" lon="3.81896">
        <ele>314.6</ele>
        <time>2024-02-23T11:16:09Z</time>
      </trkpt>
      <trkpt lat="43.79308" lon="3.81898">
        <ele>314.8</ele>
        <time>2024-02-23T11:16:10Z</time>
      </trkpt>
      <trkpt lat="43.7931" lon="3.819">
        <ele>315.2</ele>
        <time>2024-02-23T11:16:11Z</time>
      </trkpt>
      <trkpt lat="43.7931" lon="3.819">
        <ele>315.4</ele>
        <time>2024-02-23T11:16:12Z</time>
      </trkpt>
      <trkpt lat="43.79312" lon="3.81902">
        <ele>315.6</ele>
        <time>2024-02-23T11:16:13Z</time>
      </trkpt>
      <trkpt lat="43.79312" lon="3.81902">
        <ele>315.6</ele>
        <time>2024-02-23T11:16:14Z</time>
      </trkpt>
      <trkpt lat="43.79315" lon="3.81905">
        <ele>315.6</ele>
        <time>2024-02-23T11:16:15Z</time>
      </trkpt>
      <trkpt lat="43.79315" lon="3.81905">
        <ele>315.4</ele>
        <time>2024-02-23T11:16:16Z</time>
      </trkpt>
      <trkpt lat="43.79315" lon="3.81909">
        <ele>315</ele>
        <time>2024-02-23T11:16:17Z</time>
      </trkpt>
      <trkpt lat="43.79315" lon="3.81909">
        <ele>314.4</ele>
        <time>2024-02-23T11:17:16Z</time>
      </trkpt>
      <trkpt lat="43.79315" lon="3.81909">
        <ele>314.4</ele>
        <time>2024-02-23T11:17:17Z</time>
      </trkpt>
      <trkpt lat="43.79315" lon="3.81909">
        <ele>314.4</ele>
        <time>2024-02-23T11:17:18Z</time>
      </trkpt>
      <trkpt lat="43.79315" lon="3.81909">
        <ele>314.2</ele>
        <time>2024-02-23T11:17:19Z</time>
      </trkpt>
      <trkpt lat="43.79318" lon="3.81918">
        <ele>314</ele>
        <time>2024-02-23T11:17:20Z</time>
      </trkpt>
      <trkpt lat="43.79319" lon="3.81922">
        <ele>313.8</ele>
        <time>2024-02-23T11:17:21Z</time>
      </trkpt>
      <trkpt lat="43.79319" lon="3.81925">
        <ele>313.6</ele>
        <time>2024-02-23T11:17:22Z</time>
      </trkpt>
      <trkpt lat="43.7932" lon="3.81929">
        <ele>313.4</ele>
        <time>2024-02-23T11:17:23Z</time>
      </trkpt>
      <trkpt lat="43.79321" lon="3.81932">
        <ele>313.4</ele>
        <time>2024-02-23T11:17:24Z</time>
      </trkpt>
      <trkpt lat="43.79321" lon="3.81932">
        <ele>313.4</ele>
        <time>2024-02-23T11:17:25Z</time>
      </trkpt>
      <trkpt lat="43.79322" lon="3.81936">
        <ele>313.6</ele>
        <time>2024-02-23T11:17:26Z</time>
      </trkpt>
      <trkpt lat="43.79322" lon="3.81936">
        <ele>314</ele>
        <time>2024-02-23T11:17:27Z</time>
      </trkpt>
      <trkpt lat="43.79323" lon="3.8194">
        <ele>314.4</ele>
        <time>2024-02-23T11:17:28Z</time>
      </trkpt>
      <trkpt lat="43.79323" lon="3.8194">
        <ele>314.8</ele>
        <time>2024-02-23T11:17:29Z</time>
      </trkpt>
      <trkpt lat="43.79324" lon="3.81944">
        <ele>315</ele>
        <time>2024-02-23T11:17:30Z</time>
      </trkpt>
      <trkpt lat="43.79325" lon="3.81946">
        <ele>315.2</ele>
        <time>2024-02-23T11:17:31Z</time>
      </trkpt>
      <trkpt lat="43.79325" lon="3.81946">
        <ele>315.6</ele>
        <time>2024-02-23T11:17:32Z</time>
      </trkpt>
      <trkpt lat="43.79325" lon="3.81951">
        <ele>316</ele>
        <time>2024-02-23T11:17:33Z</time>
      </trkpt>
      <trkpt lat="43.79327" lon="3.81953">
        <ele>316.2</ele>
        <time>2024-02-23T11:17:34Z</time>
      </trkpt>
      <trkpt lat="43.79327" lon="3.81953">
        <ele>316.4</ele>
        <time>2024-02-23T11:17:35Z</time>
      </trkpt>
      <trkpt lat="43.79327" lon="3.81957">
        <ele>316.8</ele>
        <time>2024-02-23T11:17:36Z</time>
      </trkpt>
      <trkpt lat="43.79328" lon="3.8196">
        <ele>317</ele>
        <time>2024-02-23T11:17:37Z</time>
      </trkpt>
      <trkpt lat="43.79329" lon="3.81962">
        <ele>317.4</ele>
        <time>2024-02-23T11:17:38Z</time>
      </trkpt>
      <trkpt lat="43.7933" lon="3.81965">
        <ele>317.4</ele>
        <time>2024-02-23T11:17:39Z</time>
      </trkpt>
      <trkpt lat="43.79331" lon="3.81968">
        <ele>317.4</ele>
        <time>2024-02-23T11:17:40Z</time>
      </trkpt>
      <trkpt lat="43.79331" lon="3.81971">
        <ele>317.4</ele>
        <time>2024-02-23T11:17:41Z</time>
      </trkpt>
      <trkpt lat="43.79331" lon="3.81974">
        <ele>317.6</ele>
        <time>2024-02-23T11:17:42Z</time>
      </trkpt>
      <trkpt lat="43.7933" lon="3.81977">
        <ele>317.8</ele>
        <time>2024-02-23T11:17:43Z</time>
      </trkpt>
      <trkpt lat="43.79331" lon="3.8198">
        <ele>317.8</ele>
        <time>2024-02-23T11:17:44Z</time>
      </trkpt>
      <trkpt lat="43.79331" lon="3.81983">
        <ele>318</ele>
        <time>2024-02-23T11:17:45Z</time>
      </trkpt>
      <trkpt lat="43.7933" lon="3.81986">
        <ele>318.2</ele>
        <time>2024-02-23T11:17:46Z</time>
      </trkpt>
      <trkpt lat="43.79329" lon="3.81988">
        <ele>318.4</ele>
        <time>2024-02-23T11:17:47Z</time>
      </trkpt>
      <trkpt lat="43.79328" lon="3.81991">
        <ele>318.6</ele>
        <time>2024-02-23T11:17:48Z</time>
      </trkpt>
      <trkpt lat="43.79328" lon="3.81991">
        <ele>318.8</ele>
        <time>2024-02-23T11:17:49Z</time>
      </trkpt>
      <trkpt lat="43.79327" lon="3.81995">
        <ele>319.2</ele>
        <time>2024-02-23T11:17:50Z</time>
      </trkpt>
      <trkpt lat="43.79327" lon="3.81998">
        <ele>319.4</ele>
        <time>2024-02-23T11:17:51Z</time>
      </trkpt>
      <trkpt lat="43.79327" lon="3.81998">
        <ele>319.8</ele>
        <time>2024-02-23T11:17:52Z</time>
      </trkpt>
      <trkpt lat="43.79327" lon="3.82002">
        <ele>320.2</ele>
        <time>2024-02-23T11:17:53Z</time>
      </trkpt>
      <trkpt lat="43.79327" lon="3.82002">
        <ele>320.4</ele>
        <time>2024-02-23T11:17:54Z</time>
      </trkpt>
      <trkpt lat="43.79325" lon="3.82004">
        <ele>320.8</ele>
        <time>2024-02-23T11:17:55Z</time>
      </trkpt>
      <trkpt lat="43.79325" lon="3.82004">
        <ele>321.2</ele>
        <time>2024-02-23T11:17:56Z</time>
      </trkpt>
      <trkpt lat="43.79326" lon="3.82007">
        <ele>321.4</ele>
        <time>2024-02-23T11:17:57Z</time>
      </trkpt>
      <trkpt lat="43.79326" lon="3.82007">
        <ele>321.8</ele>
        <time>2024-02-23T11:17:58Z</time>
      </trkpt>
      <trkpt lat="43.79326" lon="3.82011">
        <ele>322</ele>
        <time>2024-02-23T11:17:59Z</time>
      </trkpt>
      <trkpt lat="43.79327" lon="3.82014">
        <ele>322.2</ele>
        <time>2024-02-23T11:18:00Z</time>
      </trkpt>
      <trkpt lat="43.79327" lon="3.82014">
        <ele>322.6</ele>
        <time>2024-02-23T11:18:01Z</time>
      </trkpt>
      <trkpt lat="43.79329" lon="3.82018">
        <ele>323</ele>
        <time>2024-02-23T11:18:02Z</time>
      </trkpt>
      <trkpt lat="43.79329" lon="3.82018">
        <ele>323.4</ele>
        <time>2024-02-23T11:18:03Z</time>
      </trkpt>
      <trkpt lat="43.7933" lon="3.82022">
        <ele>323.6</ele>
        <time>2024-02-23T11:18:04Z</time>
      </trkpt>
      <trkpt lat="43.7933" lon="3.82022">
        <ele>324</ele>
        <time>2024-02-23T11:18:05Z</time>
      </trkpt>
      <trkpt lat="43.7933" lon="3.82022">
        <ele>324.4</ele>
        <time>2024-02-23T11:18:06Z</time>
      </trkpt>
      <trkpt lat="43.79329" lon="3.82026">
        <ele>324.8</ele>
        <time>2024-02-23T11:18:07Z</time>
      </trkpt>
      <trkpt lat="43.79328" lon="3.82028">
        <ele>325.2</ele>
        <time>2024-02-23T11:18:08Z</time>
      </trkpt>
      <trkpt lat="43.79328" lon="3.82028">
        <ele>325.4</ele>
        <time>2024-02-23T11:18:09Z</time>
      </trkpt>
      <trkpt lat="43.79328" lon="3.82031">
        <ele>325.8</ele>
        <time>2024-02-23T11:18:10Z</time>
      </trkpt>
      <trkpt lat="43.79328" lon="3.82031">
        <ele>326</ele>
        <time>2024-02-23T11:18:11Z</time>
      </trkpt>
      <trkpt lat="43.79328" lon="3.82034">
        <ele>326.2</ele>
        <time>2024-02-23T11:18:12Z</time>
      </trkpt>
      <trkpt lat="43.79328" lon="3.82034">
        <ele>326.6</ele>
        <time>2024-02-23T11:18:13Z</time>
      </trkpt>
      <trkpt lat="43.79328" lon="3.82034">
        <ele>327</ele>
        <time>2024-02-23T11:18:14Z</time>
      </trkpt>
      <trkpt lat="43.79328" lon="3.82034">
        <ele>327.2</ele>
        <time>2024-02-23T11:18:15Z</time>
      </trkpt>
      <trkpt lat="43.79328" lon="3.82034">
        <ele>327.6</ele>
        <time>2024-02-23T11:18:16Z</time>
      </trkpt>
      <trkpt lat="43.79325" lon="3.82037">
        <ele>327.8</ele>
        <time>2024-02-23T11:18:17Z</time>
      </trkpt>
      <trkpt lat="43.79325" lon="3.82037">
        <ele>328.2</ele>
        <time>2024-02-23T11:18:18Z</time>
      </trkpt>
      <trkpt lat="43.79325" lon="3.82037">
        <ele>328.4</ele>
        <time>2024-02-23T11:18:19Z</time>
      </trkpt>
      <trkpt lat="43.79325" lon="3.82037">
        <ele>328.8</ele>
        <time>2024-02-23T11:18:20Z</time>
      </trkpt>
      <trkpt lat="43.79325" lon="3.82037">
        <ele>329</ele>
        <time>2024-02-23T11:18:21Z</time>
      </trkpt>
      <trkpt lat="43.79326" lon="3.8204">
        <ele>329.6</ele>
        <time>2024-02-23T11:18:22Z</time>
      </trkpt>
      <trkpt lat="43.79326" lon="3.8204">
        <ele>330</ele>
        <time>2024-02-23T11:18:23Z</time>
      </trkpt>
      <trkpt lat="43.79326" lon="3.8204">
        <ele>330.4</ele>
        <time>2024-02-23T11:18:24Z</time>
      </trkpt>
      <trkpt lat="43.79326" lon="3.8204">
        <ele>330.8</ele>
        <time>2024-02-23T11:18:25Z</time>
      </trkpt>
      <trkpt lat="43.79325" lon="3.82042">
        <ele>331.2</ele>
        <time>2024-02-23T11:18:26Z</time>
      </trkpt>
      <trkpt lat="43.79325" lon="3.82042">
        <ele>331.6</ele>
        <time>2024-02-23T11:18:27Z</time>
      </trkpt>
      <trkpt lat="43.79325" lon="3.82042">
        <ele>331.8</ele>
        <time>2024-02-23T11:18:28Z</time>
      </trkpt>
      <trkpt lat="43.79325" lon="3.82042">
        <ele>332.2</ele>
        <time>2024-02-23T11:18:29Z</time>
      </trkpt>
      <trkpt lat="43.79325" lon="3.82042">
        <ele>332.6</ele>
        <time>2024-02-23T11:18:30Z</time>
      </trkpt>
      <trkpt lat="43.79325" lon="3.82046">
        <ele>333</ele>
        <time>2024-02-23T11:18:31Z</time>
      </trkpt>
      <trkpt lat="43.79325" lon="3.82046">
        <ele>333.4</ele>
        <time>2024-02-23T11:18:32Z</time>
      </trkpt>
      <trkpt lat="43.79325" lon="3.82046">
        <ele>333.6</ele>
        <time>2024-02-23T11:18:33Z</time>
      </trkpt>
      <trkpt lat="43.79325" lon="3.82049">
        <ele>334</ele>
        <time>2024-02-23T11:18:34Z</time>
      </trkpt>
      <trkpt lat="43.79325" lon="3.82049">
        <ele>334</ele>
        <time>2024-02-23T11:18:35Z</time>
      </trkpt>
      <trkpt lat="43.79326" lon="3.82053">
        <ele>334.2</ele>
        <time>2024-02-23T11:18:36Z</time>
      </trkpt>
      <trkpt lat="43.79326" lon="3.82053">
        <ele>334.2</ele>
        <time>2024-02-23T11:18:37Z</time>
      </trkpt>
      <trkpt lat="43.79327" lon="3.82056">
        <ele>334.4</ele>
        <time>2024-02-23T11:18:38Z</time>
      </trkpt>
      <trkpt lat="43.79327" lon="3.82056">
        <ele>334.4</ele>
        <time>2024-02-23T11:18:39Z</time>
      </trkpt>
      <trkpt lat="43.79327" lon="3.82056">
        <ele>334.6</ele>
        <time>2024-02-23T11:18:40Z</time>
      </trkpt>
      <trkpt lat="43.79327" lon="3.82056">
        <ele>334.6</ele>
        <time>2024-02-23T11:18:41Z</time>
      </trkpt>
      <trkpt lat="43.79326" lon="3.82059">
        <ele>334.8</ele>
        <time>2024-02-23T11:18:42Z</time>
      </trkpt>
      <trkpt lat="43.79326" lon="3.82059">
        <ele>335</ele>
        <time>2024-02-23T11:18:43Z</time>
      </trkpt>
      <trkpt lat="43.79327" lon="3.82062">
        <ele>335.4</ele>
        <time>2024-02-23T11:18:44Z</time>
      </trkpt>
      <trkpt lat="43.79327" lon="3.82062">
        <ele>335.8</ele>
        <time>2024-02-23T11:18:45Z</time>
      </trkpt>
      <trkpt lat="43.79327" lon="3.82062">
        <ele>336.2</ele>
        <time>2024-02-23T11:18:46Z</time>
      </trkpt>
      <trkpt lat="43.79326" lon="3.82065">
        <ele>336.4</ele>
        <time>2024-02-23T11:18:47Z</time>
      </trkpt>
      <trkpt lat="43.79326" lon="3.82065">
        <ele>336.8</ele>
        <time>2024-02-23T11:18:48Z</time>
      </trkpt>
      <trkpt lat="43.79325" lon="3.82068">
        <ele>337</ele>
        <time>2024-02-23T11:18:49Z</time>
      </trkpt>
      <trkpt lat="43.79325" lon="3.82068">
        <ele>337.4</ele>
        <time>2024-02-23T11:18:50Z</time>
      </trkpt>
      <trkpt lat="43.79325" lon="3.82068">
        <ele>337.8</ele>
        <time>2024-02-23T11:18:51Z</time>
      </trkpt>
      <trkpt lat="43.79325" lon="3.82068">
        <ele>338.2</ele>
        <time>2024-02-23T11:18:52Z</time>
      </trkpt>
      <trkpt lat="43.79325" lon="3.82068">
        <ele>338.6</ele>
        <time>2024-02-23T11:18:53Z</time>
      </trkpt>
      <trkpt lat="43.79325" lon="3.82068">
        <ele>339</ele>
        <time>2024-02-23T11:18:54Z</time>
      </trkpt>
      <trkpt lat="43.79323" lon="3.8207">
        <ele>339.4</ele>
        <time>2024-02-23T11:18:55Z</time>
      </trkpt>
      <trkpt lat="43.79322" lon="3.82072">
        <ele>339.8</ele>
        <time>2024-02-23T11:18:56Z</time>
      </trkpt>
      <trkpt lat="43.79322" lon="3.82072">
        <ele>340.2</ele>
        <time>2024-02-23T11:18:57Z</time>
      </trkpt>
      <trkpt lat="43.79322" lon="3.82072">
        <ele>340.6</ele>
        <time>2024-02-23T11:18:58Z</time>
      </trkpt>
      <trkpt lat="43.79322" lon="3.82072">
        <ele>340.8</ele>
        <time>2024-02-23T11:18:59Z</time>
      </trkpt>
      <trkpt lat="43.79321" lon="3.82075">
        <ele>341</ele>
        <time>2024-02-23T11:19:00Z</time>
      </trkpt>
      <trkpt lat="43.79321" lon="3.82075">
        <ele>341.4</ele>
        <time>2024-02-23T11:19:01Z</time>
      </trkpt>
      <trkpt lat="43.79321" lon="3.82075">
        <ele>341.6</ele>
        <time>2024-02-23T11:19:02Z</time>
      </trkpt>
      <trkpt lat="43.79322" lon="3.82078">
        <ele>342</ele>
        <time>2024-02-23T11:19:03Z</time>
      </trkpt>
      <trkpt lat="43.79322" lon="3.82078">
        <ele>342.2</ele>
        <time>2024-02-23T11:19:04Z</time>
      </trkpt>
      <trkpt lat="43.79322" lon="3.82078">
        <ele>342</ele>
        <time>2024-02-23T11:19:05Z</time>
      </trkpt>
      <trkpt lat="43.79322" lon="3.82082">
        <ele>341.8</ele>
        <time>2024-02-23T11:19:06Z</time>
      </trkpt>
      <trkpt lat="43.79322" lon="3.82082">
        <ele>341.6</ele>
        <time>2024-02-23T11:19:07Z</time>
      </trkpt>
      <trkpt lat="43.79322" lon="3.82082">
        <ele>341.4</ele>
        <time>2024-02-23T11:19:08Z</time>
      </trkpt>
      <trkpt lat="43.79322" lon="3.82085">
        <ele>341.2</ele>
        <time>2024-02-23T11:19:09Z</time>
      </trkpt>
      <trkpt lat="43.79322" lon="3.82085">
        <ele>341.2</ele>
        <time>2024-02-23T11:19:10Z</time>
      </trkpt>
      <trkpt lat="43.79322" lon="3.82085">
        <ele>341.4</ele>
        <time>2024-02-23T11:19:11Z</time>
      </trkpt>
      <trkpt lat="43.79322" lon="3.82088">
        <ele>341.6</ele>
        <time>2024-02-23T11:19:12Z</time>
      </trkpt>
      <trkpt lat="43.79322" lon="3.82088">
        <ele>341.8</ele>
        <time>2024-02-23T11:19:13Z</time>
      </trkpt>
      <trkpt lat="43.79321" lon="3.8209">
        <ele>342.2</ele>
        <time>2024-02-23T11:19:14Z</time>
      </trkpt>
      <trkpt lat="43.79321" lon="3.8209">
        <ele>342.6</ele>
        <time>2024-02-23T11:19:15Z</time>
      </trkpt>
      <trkpt lat="43.79321" lon="3.8209">
        <ele>343</ele>
        <time>2024-02-23T11:19:16Z</time>
      </trkpt>
      <trkpt lat="43.79321" lon="3.8209">
        <ele>343.2</ele>
        <time>2024-02-23T11:19:17Z</time>
      </trkpt>
      <trkpt lat="43.79319" lon="3.82092">
        <ele>343.6</ele>
        <time>2024-02-23T11:19:18Z</time>
      </trkpt>
      <trkpt lat="43.79319" lon="3.82092">
        <ele>343.8</ele>
        <time>2024-02-23T11:19:19Z</time>
      </trkpt>
      <trkpt lat="43.79319" lon="3.82092">
        <ele>344</ele>
        <time>2024-02-23T11:19:20Z</time>
      </trkpt>
      <trkpt lat="43.79319" lon="3.82095">
        <ele>344.4</ele>
        <time>2024-02-23T11:19:21Z</time>
      </trkpt>
      <trkpt lat="43.79319" lon="3.82095">
        <ele>344.6</ele>
        <time>2024-02-23T11:19:22Z</time>
      </trkpt>
      <trkpt lat="43.79319" lon="3.82095">
        <ele>344.8</ele>
        <time>2024-02-23T11:19:23Z</time>
      </trkpt>
      <trkpt lat="43.79319" lon="3.82095">
        <ele>345.2</ele>
        <time>2024-02-23T11:19:24Z</time>
      </trkpt>
      <trkpt lat="43.7932" lon="3.82098">
        <ele>345.6</ele>
        <time>2024-02-23T11:19:25Z</time>
      </trkpt>
      <trkpt lat="43.7932" lon="3.82098">
        <ele>345.8</ele>
        <time>2024-02-23T11:19:26Z</time>
      </trkpt>
      <trkpt lat="43.79321" lon="3.82101">
        <ele>345.8</ele>
        <time>2024-02-23T11:19:27Z</time>
      </trkpt>
      <trkpt lat="43.79321" lon="3.82101">
        <ele>346</ele>
        <time>2024-02-23T11:19:28Z</time>
      </trkpt>
      <trkpt lat="43.79321" lon="3.82101">
        <ele>346</ele>
        <time>2024-02-23T11:19:29Z</time>
      </trkpt>
      <trkpt lat="43.79321" lon="3.82101">
        <ele>346.2</ele>
        <time>2024-02-23T11:19:30Z</time>
      </trkpt>
      <trkpt lat="43.79321" lon="3.82101">
        <ele>346.6</ele>
        <time>2024-02-23T11:19:31Z</time>
      </trkpt>
      <trkpt lat="43.79321" lon="3.82101">
        <ele>346.8</ele>
        <time>2024-02-23T11:19:32Z</time>
      </trkpt>
      <trkpt lat="43.79321" lon="3.82101">
        <ele>346.8</ele>
        <time>2024-02-23T11:19:33Z</time>
      </trkpt>
      <trkpt lat="43.79321" lon="3.82101">
        <ele>346.8</ele>
        <time>2024-02-23T11:19:34Z</time>
      </trkpt>
      <trkpt lat="43.79323" lon="3.82101">
        <ele>346.4</ele>
        <time>2024-02-23T11:19:35Z</time>
      </trkpt>
      <trkpt lat="43.79323" lon="3.82101">
        <ele>346.2</ele>
        <time>2024-02-23T11:19:36Z</time>
      </trkpt>
      <trkpt lat="43.79325" lon="3.82102">
        <ele>345.8</ele>
        <time>2024-02-23T11:19:37Z</time>
      </trkpt>
      <trkpt lat="43.79325" lon="3.82102">
        <ele>345.4</ele>
        <time>2024-02-23T11:19:38Z</time>
      </trkpt>
      <trkpt lat="43.79325" lon="3.82104">
        <ele>345</ele>
        <time>2024-02-23T11:19:39Z</time>
      </trkpt>
      <trkpt lat="43.79327" lon="3.82106">
        <ele>344.6</ele>
        <time>2024-02-23T11:19:40Z</time>
      </trkpt>
      <trkpt lat="43.79327" lon="3.82106">
        <ele>344</ele>
        <time>2024-02-23T11:19:41Z</time>
      </trkpt>
      <trkpt lat="43.79327" lon="3.8211">
        <ele>343.8</ele>
        <time>2024-02-23T11:19:42Z</time>
      </trkpt>
      <trkpt lat="43.79327" lon="3.8211">
        <ele>343.6</ele>
        <time>2024-02-23T11:19:43Z</time>
      </trkpt>
      <trkpt lat="43.79327" lon="3.82114">
        <ele>343.6</ele>
        <time>2024-02-23T11:19:44Z</time>
      </trkpt>
      <trkpt lat="43.79327" lon="3.82114">
        <ele>343.6</ele>
        <time>2024-02-23T11:19:45Z</time>
      </trkpt>
      <trkpt lat="43.79328" lon="3.82118">
        <ele>343.8</ele>
        <time>2024-02-23T11:19:46Z</time>
      </trkpt>
      <trkpt lat="43.79328" lon="3.82121">
        <ele>344</ele>
        <time>2024-02-23T11:19:47Z</time>
      </trkpt>
      <trkpt lat="43.79329" lon="3.82124">
        <ele>344.2</ele>
        <time>2024-02-23T11:19:48Z</time>
      </trkpt>
      <trkpt lat="43.79329" lon="3.82124">
        <ele>344.4</ele>
        <time>2024-02-23T11:19:49Z</time>
      </trkpt>
      <trkpt lat="43.7933" lon="3.82128">
        <ele>344.4</ele>
        <time>2024-02-23T11:19:50Z</time>
      </trkpt>
      <trkpt lat="43.79331" lon="3.8213">
        <ele>344.6</ele>
        <time>2024-02-23T11:19:51Z</time>
      </trkpt>
      <trkpt lat="43.79331" lon="3.82133">
        <ele>344.8</ele>
        <time>2024-02-23T11:19:52Z</time>
      </trkpt>
      <trkpt lat="43.79332" lon="3.82136">
        <ele>345</ele>
        <time>2024-02-23T11:19:53Z</time>
      </trkpt>
      <trkpt lat="43.79332" lon="3.82136">
        <ele>345.2</ele>
        <time>2024-02-23T11:19:54Z</time>
      </trkpt>
      <trkpt lat="43.79331" lon="3.8214">
        <ele>345.2</ele>
        <time>2024-02-23T11:19:55Z</time>
      </trkpt>
      <trkpt lat="43.79331" lon="3.82142">
        <ele>345.2</ele>
        <time>2024-02-23T11:19:56Z</time>
      </trkpt>
      <trkpt lat="43.79331" lon="3.82145">
        <ele>345.2</ele>
        <time>2024-02-23T11:19:57Z</time>
      </trkpt>
      <trkpt lat="43.79331" lon="3.82145">
        <ele>345.2</ele>
        <time>2024-02-23T11:19:58Z</time>
      </trkpt>
      <trkpt lat="43.79332" lon="3.8215">
        <ele>345.4</ele>
        <time>2024-02-23T11:19:59Z</time>
      </trkpt>
      <trkpt lat="43.79332" lon="3.82153">
        <ele>345.4</ele>
        <time>2024-02-23T11:20:00Z</time>
      </trkpt>
      <trkpt lat="43.79333" lon="3.82157">
        <ele>345.4</ele>
        <time>2024-02-23T11:20:01Z</time>
      </trkpt>
      <trkpt lat="43.79333" lon="3.82159">
        <ele>345.8</ele>
        <time>2024-02-23T11:20:02Z</time>
      </trkpt>
      <trkpt lat="43.79333" lon="3.82161">
        <ele>346</ele>
        <time>2024-02-23T11:20:03Z</time>
      </trkpt>
      <trkpt lat="43.79333" lon="3.82164">
        <ele>345.8</ele>
        <time>2024-02-23T11:20:04Z</time>
      </trkpt>
      <trkpt lat="43.79334" lon="3.82167">
        <ele>345.8</ele>
        <time>2024-02-23T11:20:05Z</time>
      </trkpt>
      <trkpt lat="43.79335" lon="3.8217">
        <ele>345.8</ele>
        <time>2024-02-23T11:20:06Z</time>
      </trkpt>
      <trkpt lat="43.79337" lon="3.82172">
        <ele>345.6</ele>
        <time>2024-02-23T11:20:07Z</time>
      </trkpt>
      <trkpt lat="43.79338" lon="3.82175">
        <ele>345.6</ele>
        <time>2024-02-23T11:20:08Z</time>
      </trkpt>
      <trkpt lat="43.79338" lon="3.82178">
        <ele>345.6</ele>
        <time>2024-02-23T11:20:09Z</time>
      </trkpt>
      <trkpt lat="43.79338" lon="3.82178">
        <ele>345.6</ele>
        <time>2024-02-23T11:20:10Z</time>
      </trkpt>
      <trkpt lat="43.79338" lon="3.82182">
        <ele>345.8</ele>
        <time>2024-02-23T11:20:11Z</time>
      </trkpt>
      <trkpt lat="43.79338" lon="3.82182">
        <ele>346</ele>
        <time>2024-02-23T11:20:12Z</time>
      </trkpt>
      <trkpt lat="43.79337" lon="3.82184">
        <ele>346.2</ele>
        <time>2024-02-23T11:20:13Z</time>
      </trkpt>
      <trkpt lat="43.79337" lon="3.82184">
        <ele>346.6</ele>
        <time>2024-02-23T11:20:14Z</time>
      </trkpt>
      <trkpt lat="43.79337" lon="3.82184">
        <ele>346.8</ele>
        <time>2024-02-23T11:20:15Z</time>
      </trkpt>
      <trkpt lat="43.79337" lon="3.82188">
        <ele>347</ele>
        <time>2024-02-23T11:20:16Z</time>
      </trkpt>
      <trkpt lat="43.79337" lon="3.82188">
        <ele>347.4</ele>
        <time>2024-02-23T11:20:17Z</time>
      </trkpt>
      <trkpt lat="43.79337" lon="3.82191">
        <ele>347.6</ele>
        <time>2024-02-23T11:20:18Z</time>
      </trkpt>
      <trkpt lat="43.79337" lon="3.82191">
        <ele>347.8</ele>
        <time>2024-02-23T11:20:19Z</time>
      </trkpt>
      <trkpt lat="43.79338" lon="3.82194">
        <ele>348</ele>
        <time>2024-02-23T11:20:20Z</time>
      </trkpt>
      <trkpt lat="43.79338" lon="3.82194">
        <ele>348.2</ele>
        <time>2024-02-23T11:20:21Z</time>
      </trkpt>
      <trkpt lat="43.7934" lon="3.82197">
        <ele>348</ele>
        <time>2024-02-23T11:20:22Z</time>
      </trkpt>
      <trkpt lat="43.79341" lon="3.82199">
        <ele>347.8</ele>
        <time>2024-02-23T11:20:23Z</time>
      </trkpt>
      <trkpt lat="43.79341" lon="3.82199">
        <ele>347.6</ele>
        <time>2024-02-23T11:20:24Z</time>
      </trkpt>
      <trkpt lat="43.79341" lon="3.82204">
        <ele>347.4</ele>
        <time>2024-02-23T11:20:25Z</time>
      </trkpt>
      <trkpt lat="43.79341" lon="3.82204">
        <ele>347.4</ele>
        <time>2024-02-23T11:20:26Z</time>
      </trkpt>
      <trkpt lat="43.79341" lon="3.82208">
        <ele>347.4</ele>
        <time>2024-02-23T11:20:27Z</time>
      </trkpt>
      <trkpt lat="43.79341" lon="3.82208">
        <ele>347.6</ele>
        <time>2024-02-23T11:20:28Z</time>
      </trkpt>
      <trkpt lat="43.7934" lon="3.82212">
        <ele>347.8</ele>
        <time>2024-02-23T11:20:29Z</time>
      </trkpt>
      <trkpt lat="43.7934" lon="3.82212">
        <ele>348.2</ele>
        <time>2024-02-23T11:20:30Z</time>
      </trkpt>
      <trkpt lat="43.79339" lon="3.82215">
        <ele>348.4</ele>
        <time>2024-02-23T11:20:31Z</time>
      </trkpt>
      <trkpt lat="43.79339" lon="3.82215">
        <ele>348.6</ele>
        <time>2024-02-23T11:20:32Z</time>
      </trkpt>
      <trkpt lat="43.79339" lon="3.82219">
        <ele>348.8</ele>
        <time>2024-02-23T11:20:33Z</time>
      </trkpt>
      <trkpt lat="43.79339" lon="3.82219">
        <ele>349</ele>
        <time>2024-02-23T11:20:34Z</time>
      </trkpt>
      <trkpt lat="43.7934" lon="3.82223">
        <ele>349.2</ele>
        <time>2024-02-23T11:20:35Z</time>
      </trkpt>
      <trkpt lat="43.7934" lon="3.82223">
        <ele>349.4</ele>
        <time>2024-02-23T11:20:36Z</time>
      </trkpt>
      <trkpt lat="43.79341" lon="3.82226">
        <ele>349.6</ele>
        <time>2024-02-23T11:20:37Z</time>
      </trkpt>
      <trkpt lat="43.79341" lon="3.82226">
        <ele>349.6</ele>
        <time>2024-02-23T11:20:38Z</time>
      </trkpt>
      <trkpt lat="43.79342" lon="3.8223">
        <ele>349.8</ele>
        <time>2024-02-23T11:20:39Z</time>
      </trkpt>
      <trkpt lat="43.79342" lon="3.8223">
        <ele>349.8</ele>
        <time>2024-02-23T11:20:40Z</time>
      </trkpt>
      <trkpt lat="43.79343" lon="3.82234">
        <ele>350</ele>
        <time>2024-02-23T11:20:41Z</time>
      </trkpt>
      <trkpt lat="43.79343" lon="3.82234">
        <ele>350</ele>
        <time>2024-02-23T11:20:42Z</time>
      </trkpt>
      <trkpt lat="43.79343" lon="3.82237">
        <ele>350.2</ele>
        <time>2024-02-23T11:20:43Z</time>
      </trkpt>
      <trkpt lat="43.79343" lon="3.82237">
        <ele>350.4</ele>
        <time>2024-02-23T11:20:44Z</time>
      </trkpt>
      <trkpt lat="43.79343" lon="3.82239">
        <ele>350.6</ele>
        <time>2024-02-23T11:20:45Z</time>
      </trkpt>
      <trkpt lat="43.79343" lon="3.82239">
        <ele>351</ele>
        <time>2024-02-23T11:20:46Z</time>
      </trkpt>
      <trkpt lat="43.79344" lon="3.82242">
        <ele>351.4</ele>
        <time>2024-02-23T11:20:47Z</time>
      </trkpt>
      <trkpt lat="43.79344" lon="3.82242">
        <ele>351.6</ele>
        <time>2024-02-23T11:20:48Z</time>
      </trkpt>
      <trkpt lat="43.79344" lon="3.82246">
        <ele>351.6</ele>
        <time>2024-02-23T11:20:49Z</time>
      </trkpt>
      <trkpt lat="43.79344" lon="3.82246">
        <ele>351.6</ele>
        <time>2024-02-23T11:20:50Z</time>
      </trkpt>
      <trkpt lat="43.79344" lon="3.82246">
        <ele>351.6</ele>
        <time>2024-02-23T11:20:51Z</time>
      </trkpt>
      <trkpt lat="43.79344" lon="3.8225">
        <ele>352</ele>
        <time>2024-02-23T11:20:52Z</time>
      </trkpt>
      <trkpt lat="43.79344" lon="3.82252">
        <ele>352.2</ele>
        <time>2024-02-23T11:20:53Z</time>
      </trkpt>
      <trkpt lat="43.79345" lon="3.82255">
        <ele>352.6</ele>
        <time>2024-02-23T11:20:54Z</time>
      </trkpt>
      <trkpt lat="43.79345" lon="3.82258">
        <ele>353.2</ele>
        <time>2024-02-23T11:20:55Z</time>
      </trkpt>
      <trkpt lat="43.79345" lon="3.82258">
        <ele>353.6</ele>
        <time>2024-02-23T11:20:56Z</time>
      </trkpt>
      <trkpt lat="43.79347" lon="3.82263">
        <ele>354</ele>
        <time>2024-02-23T11:20:57Z</time>
      </trkpt>
      <trkpt lat="43.79348" lon="3.82266">
        <ele>354.4</ele>
        <time>2024-02-23T11:20:58Z</time>
      </trkpt>
      <trkpt lat="43.79348" lon="3.82269">
        <ele>354.6</ele>
        <time>2024-02-23T11:20:59Z</time>
      </trkpt>
      <trkpt lat="43.79349" lon="3.82273">
        <ele>354.6</ele>
        <time>2024-02-23T11:21:00Z</time>
      </trkpt>
      <trkpt lat="43.79349" lon="3.82276">
        <ele>354.6</ele>
        <time>2024-02-23T11:21:01Z</time>
      </trkpt>
      <trkpt lat="43.7935" lon="3.82278">
        <ele>354.6</ele>
        <time>2024-02-23T11:21:02Z</time>
      </trkpt>
      <trkpt lat="43.7935" lon="3.82278">
        <ele>354.8</ele>
        <time>2024-02-23T11:21:03Z</time>
      </trkpt>
      <trkpt lat="43.79351" lon="3.82283">
        <ele>354.8</ele>
        <time>2024-02-23T11:21:04Z</time>
      </trkpt>
      <trkpt lat="43.79351" lon="3.82283">
        <ele>354.8</ele>
        <time>2024-02-23T11:21:05Z</time>
      </trkpt>
      <trkpt lat="43.79352" lon="3.82287">
        <ele>354.8</ele>
        <time>2024-02-23T11:21:06Z</time>
      </trkpt>
      <trkpt lat="43.79352" lon="3.82287">
        <ele>354.8</ele>
        <time>2024-02-23T11:21:07Z</time>
      </trkpt>
      <trkpt lat="43.79353" lon="3.82292">
        <ele>355</ele>
        <time>2024-02-23T11:21:08Z</time>
      </trkpt>
      <trkpt lat="43.79353" lon="3.82292">
        <ele>355.4</ele>
        <time>2024-02-23T11:21:09Z</time>
      </trkpt>
      <trkpt lat="43.79353" lon="3.82295">
        <ele>355.6</ele>
        <time>2024-02-23T11:21:10Z</time>
      </trkpt>
      <trkpt lat="43.79353" lon="3.82295">
        <ele>355.8</ele>
        <time>2024-02-23T11:21:11Z</time>
      </trkpt>
      <trkpt lat="43.79353" lon="3.82298">
        <ele>356.2</ele>
        <time>2024-02-23T11:21:12Z</time>
      </trkpt>
      <trkpt lat="43.79353" lon="3.82298">
        <ele>356.4</ele>
        <time>2024-02-23T11:21:13Z</time>
      </trkpt>
      <trkpt lat="43.79352" lon="3.82301">
        <ele>356.6</ele>
        <time>2024-02-23T11:21:14Z</time>
      </trkpt>
      <trkpt lat="43.79352" lon="3.82301">
        <ele>356.8</ele>
        <time>2024-02-23T11:21:15Z</time>
      </trkpt>
      <trkpt lat="43.79352" lon="3.82305">
        <ele>357</ele>
        <time>2024-02-23T11:21:16Z</time>
      </trkpt>
      <trkpt lat="43.79352" lon="3.82305">
        <ele>357.4</ele>
        <time>2024-02-23T11:21:17Z</time>
      </trkpt>
      <trkpt lat="43.79351" lon="3.82308">
        <ele>358.2</ele>
        <time>2024-02-23T11:21:18Z</time>
      </trkpt>
      <trkpt lat="43.79351" lon="3.82308">
        <ele>358.8</ele>
        <time>2024-02-23T11:21:19Z</time>
      </trkpt>
      <trkpt lat="43.79352" lon="3.82311">
        <ele>359.2</ele>
        <time>2024-02-23T11:21:20Z</time>
      </trkpt>
      <trkpt lat="43.79353" lon="3.82313">
        <ele>359.6</ele>
        <time>2024-02-23T11:21:21Z</time>
      </trkpt>
      <trkpt lat="43.79353" lon="3.82313">
        <ele>360</ele>
        <time>2024-02-23T11:21:22Z</time>
      </trkpt>
      <trkpt lat="43.79353" lon="3.82318">
        <ele>360</ele>
        <time>2024-02-23T11:21:23Z</time>
      </trkpt>
      <trkpt lat="43.79353" lon="3.82318">
        <ele>359.8</ele>
        <time>2024-02-23T11:21:24Z</time>
      </trkpt>
      <trkpt lat="43.79353" lon="3.82322">
        <ele>359.8</ele>
        <time>2024-02-23T11:21:25Z</time>
      </trkpt>
      <trkpt lat="43.79353" lon="3.82322">
        <ele>360</ele>
        <time>2024-02-23T11:21:26Z</time>
      </trkpt>
      <trkpt lat="43.79353" lon="3.82326">
        <ele>360.2</ele>
        <time>2024-02-23T11:21:27Z</time>
      </trkpt>
      <trkpt lat="43.79353" lon="3.82326">
        <ele>360.4</ele>
        <time>2024-02-23T11:21:28Z</time>
      </trkpt>
      <trkpt lat="43.79355" lon="3.8233">
        <ele>360.4</ele>
        <time>2024-02-23T11:21:29Z</time>
      </trkpt>
      <trkpt lat="43.79355" lon="3.8233">
        <ele>360.4</ele>
        <time>2024-02-23T11:21:30Z</time>
      </trkpt>
      <trkpt lat="43.79355" lon="3.82334">
        <ele>360.4</ele>
        <time>2024-02-23T11:21:31Z</time>
      </trkpt>
      <trkpt lat="43.79355" lon="3.82334">
        <ele>360.4</ele>
        <time>2024-02-23T11:21:32Z</time>
      </trkpt>
      <trkpt lat="43.79356" lon="3.82338">
        <ele>360.8</ele>
        <time>2024-02-23T11:21:33Z</time>
      </trkpt>
      <trkpt lat="43.79356" lon="3.82341">
        <ele>360.8</ele>
        <time>2024-02-23T11:21:34Z</time>
      </trkpt>
      <trkpt lat="43.79356" lon="3.82341">
        <ele>361</ele>
        <time>2024-02-23T11:21:35Z</time>
      </trkpt>
      <trkpt lat="43.79357" lon="3.82344">
        <ele>361.2</ele>
        <time>2024-02-23T11:21:36Z</time>
      </trkpt>
      <trkpt lat="43.79357" lon="3.82344">
        <ele>361.4</ele>
        <time>2024-02-23T11:21:37Z</time>
      </trkpt>
      <trkpt lat="43.79359" lon="3.82348">
        <ele>361.8</ele>
        <time>2024-02-23T11:21:38Z</time>
      </trkpt>
      <trkpt lat="43.7936" lon="3.8235">
        <ele>362</ele>
        <time>2024-02-23T11:21:39Z</time>
      </trkpt>
      <trkpt lat="43.79361" lon="3.82353">
        <ele>362.2</ele>
        <time>2024-02-23T11:21:40Z</time>
      </trkpt>
      <trkpt lat="43.79362" lon="3.82356">
        <ele>362.4</ele>
        <time>2024-02-23T11:21:41Z</time>
      </trkpt>
      <trkpt lat="43.79363" lon="3.82359">
        <ele>362.8</ele>
        <time>2024-02-23T11:21:42Z</time>
      </trkpt>
      <trkpt lat="43.79364" lon="3.82361">
        <ele>363</ele>
        <time>2024-02-23T11:21:43Z</time>
      </trkpt>
      <trkpt lat="43.79365" lon="3.82363">
        <ele>363.2</ele>
        <time>2024-02-23T11:21:44Z</time>
      </trkpt>
      <trkpt lat="43.79366" lon="3.82366">
        <ele>363.4</ele>
        <time>2024-02-23T11:21:45Z</time>
      </trkpt>
      <trkpt lat="43.79367" lon="3.82369">
        <ele>363.6</ele>
        <time>2024-02-23T11:21:46Z</time>
      </trkpt>
      <trkpt lat="43.79369" lon="3.82371">
        <ele>363.6</ele>
        <time>2024-02-23T11:21:47Z</time>
      </trkpt>
      <trkpt lat="43.79369" lon="3.82371">
        <ele>363.8</ele>
        <time>2024-02-23T11:21:48Z</time>
      </trkpt>
      <trkpt lat="43.79369" lon="3.82375">
        <ele>363.8</ele>
        <time>2024-02-23T11:21:49Z</time>
      </trkpt>
      <trkpt lat="43.79369" lon="3.82375">
        <ele>364</ele>
        <time>2024-02-23T11:21:50Z</time>
      </trkpt>
      <trkpt lat="43.79369" lon="3.82375">
        <ele>364.4</ele>
        <time>2024-02-23T11:21:51Z</time>
      </trkpt>
      <trkpt lat="43.79369" lon="3.82378">
        <ele>364.6</ele>
        <time>2024-02-23T11:21:52Z</time>
      </trkpt>
      <trkpt lat="43.79369" lon="3.82378">
        <ele>364.8</ele>
        <time>2024-02-23T11:21:53Z</time>
      </trkpt>
      <trkpt lat="43.7937" lon="3.82381">
        <ele>365</ele>
        <time>2024-02-23T11:21:54Z</time>
      </trkpt>
      <trkpt lat="43.7937" lon="3.82381">
        <ele>365.2</ele>
        <time>2024-02-23T11:21:55Z</time>
      </trkpt>
      <trkpt lat="43.79371" lon="3.82384">
        <ele>365.4</ele>
        <time>2024-02-23T11:21:56Z</time>
      </trkpt>
      <trkpt lat="43.79372" lon="3.82387">
        <ele>365.6</ele>
        <time>2024-02-23T11:21:57Z</time>
      </trkpt>
      <trkpt lat="43.79373" lon="3.82389">
        <ele>365.8</ele>
        <time>2024-02-23T11:21:58Z</time>
      </trkpt>
      <trkpt lat="43.79373" lon="3.82389">
        <ele>365.8</ele>
        <time>2024-02-23T11:21:59Z</time>
      </trkpt>
      <trkpt lat="43.79373" lon="3.82394">
        <ele>366</ele>
        <time>2024-02-23T11:22:00Z</time>
      </trkpt>
      <trkpt lat="43.79374" lon="3.82396">
        <ele>366</ele>
        <time>2024-02-23T11:22:01Z</time>
      </trkpt>
      <trkpt lat="43.79374" lon="3.82396">
        <ele>366.2</ele>
        <time>2024-02-23T11:22:02Z</time>
      </trkpt>
      <trkpt lat="43.79375" lon="3.824">
        <ele>366.4</ele>
        <time>2024-02-23T11:22:03Z</time>
      </trkpt>
      <trkpt lat="43.79375" lon="3.82403">
        <ele>366.4</ele>
        <time>2024-02-23T11:22:04Z</time>
      </trkpt>
      <trkpt lat="43.79375" lon="3.82403">
        <ele>366.6</ele>
        <time>2024-02-23T11:22:05Z</time>
      </trkpt>
      <trkpt lat="43.79375" lon="3.82407">
        <ele>366.8</ele>
        <time>2024-02-23T11:22:06Z</time>
      </trkpt>
      <trkpt lat="43.79375" lon="3.82407">
        <ele>367</ele>
        <time>2024-02-23T11:22:07Z</time>
      </trkpt>
      <trkpt lat="43.79375" lon="3.8241">
        <ele>367.2</ele>
        <time>2024-02-23T11:22:08Z</time>
      </trkpt>
      <trkpt lat="43.79375" lon="3.8241">
        <ele>367.4</ele>
        <time>2024-02-23T11:22:09Z</time>
      </trkpt>
      <trkpt lat="43.79377" lon="3.82414">
        <ele>367.6</ele>
        <time>2024-02-23T11:22:10Z</time>
      </trkpt>
      <trkpt lat="43.79377" lon="3.82414">
        <ele>367.8</ele>
        <time>2024-02-23T11:22:11Z</time>
      </trkpt>
      <trkpt lat="43.79377" lon="3.82418">
        <ele>367.8</ele>
        <time>2024-02-23T11:22:12Z</time>
      </trkpt>
      <trkpt lat="43.79377" lon="3.82418">
        <ele>368</ele>
        <time>2024-02-23T11:22:13Z</time>
      </trkpt>
      <trkpt lat="43.79377" lon="3.8242">
        <ele>368.2</ele>
        <time>2024-02-23T11:22:14Z</time>
      </trkpt>
      <trkpt lat="43.79377" lon="3.8242">
        <ele>368.4</ele>
        <time>2024-02-23T11:22:15Z</time>
      </trkpt>
      <trkpt lat="43.79377" lon="3.82423">
        <ele>368.8</ele>
        <time>2024-02-23T11:22:16Z</time>
      </trkpt>
      <trkpt lat="43.79377" lon="3.82423">
        <ele>369</ele>
        <time>2024-02-23T11:22:17Z</time>
      </trkpt>
      <trkpt lat="43.79378" lon="3.82426">
        <ele>369.4</ele>
        <time>2024-02-23T11:22:18Z</time>
      </trkpt>
      <trkpt lat="43.79378" lon="3.82426">
        <ele>369.8</ele>
        <time>2024-02-23T11:22:19Z</time>
      </trkpt>
      <trkpt lat="43.7938" lon="3.82429">
        <ele>370.2</ele>
        <time>2024-02-23T11:22:20Z</time>
      </trkpt>
      <trkpt lat="43.7938" lon="3.82429">
        <ele>370.4</ele>
        <time>2024-02-23T11:22:21Z</time>
      </trkpt>
      <trkpt lat="43.79381" lon="3.82434">
        <ele>370.4</ele>
        <time>2024-02-23T11:22:22Z</time>
      </trkpt>
      <trkpt lat="43.79381" lon="3.82434">
        <ele>370.4</ele>
        <time>2024-02-23T11:22:23Z</time>
      </trkpt>
      <trkpt lat="43.79383" lon="3.82438">
        <ele>370.8</ele>
        <time>2024-02-23T11:22:24Z</time>
      </trkpt>
      <trkpt lat="43.79384" lon="3.8244">
        <ele>370.8</ele>
        <time>2024-02-23T11:22:25Z</time>
      </trkpt>
      <trkpt lat="43.79385" lon="3.82443">
        <ele>371</ele>
        <time>2024-02-23T11:22:26Z</time>
      </trkpt>
      <trkpt lat="43.79385" lon="3.82443">
        <ele>371</ele>
        <time>2024-02-23T11:22:27Z</time>
      </trkpt>
      <trkpt lat="43.79385" lon="3.82446">
        <ele>371.2</ele>
        <time>2024-02-23T11:22:28Z</time>
      </trkpt>
      <trkpt lat="43.79385" lon="3.82446">
        <ele>371.4</ele>
        <time>2024-02-23T11:22:29Z</time>
      </trkpt>
      <trkpt lat="43.79385" lon="3.82449">
        <ele>371.6</ele>
        <time>2024-02-23T11:22:30Z</time>
      </trkpt>
      <trkpt lat="43.79385" lon="3.82449">
        <ele>371.6</ele>
        <time>2024-02-23T11:22:31Z</time>
      </trkpt>
      <trkpt lat="43.79387" lon="3.82453">
        <ele>372</ele>
        <time>2024-02-23T11:22:32Z</time>
      </trkpt>
      <trkpt lat="43.79389" lon="3.82455">
        <ele>372.2</ele>
        <time>2024-02-23T11:22:33Z</time>
      </trkpt>
      <trkpt lat="43.7939" lon="3.82457">
        <ele>372.2</ele>
        <time>2024-02-23T11:22:34Z</time>
      </trkpt>
      <trkpt lat="43.79392" lon="3.82459">
        <ele>372.4</ele>
        <time>2024-02-23T11:22:35Z</time>
      </trkpt>
      <trkpt lat="43.79394" lon="3.82461">
        <ele>372.4</ele>
        <time>2024-02-23T11:22:36Z</time>
      </trkpt>
      <trkpt lat="43.79395" lon="3.82463">
        <ele>372.2</ele>
        <time>2024-02-23T11:22:37Z</time>
      </trkpt>
      <trkpt lat="43.79397" lon="3.82465">
        <ele>372</ele>
        <time>2024-02-23T11:22:38Z</time>
      </trkpt>
      <trkpt lat="43.79397" lon="3.82465">
        <ele>371.8</ele>
        <time>2024-02-23T11:22:39Z</time>
      </trkpt>
      <trkpt lat="43.794" lon="3.82467">
        <ele>371.6</ele>
        <time>2024-02-23T11:22:40Z</time>
      </trkpt>
      <trkpt lat="43.79402" lon="3.82468">
        <ele>371.2</ele>
        <time>2024-02-23T11:22:41Z</time>
      </trkpt>
      <trkpt lat="43.79403" lon="3.8247">
        <ele>370.8</ele>
        <time>2024-02-23T11:22:42Z</time>
      </trkpt>
      <trkpt lat="43.79405" lon="3.82472">
        <ele>370.6</ele>
        <time>2024-02-23T11:22:43Z</time>
      </trkpt>
      <trkpt lat="43.79405" lon="3.82472">
        <ele>370.4</ele>
        <time>2024-02-23T11:22:44Z</time>
      </trkpt>
      <trkpt lat="43.79406" lon="3.82476">
        <ele>370.4</ele>
        <time>2024-02-23T11:22:45Z</time>
      </trkpt>
      <trkpt lat="43.79406" lon="3.82476">
        <ele>370.2</ele>
        <time>2024-02-23T11:22:46Z</time>
      </trkpt>
      <trkpt lat="43.79409" lon="3.82481">
        <ele>370</ele>
        <time>2024-02-23T11:22:47Z</time>
      </trkpt>
      <trkpt lat="43.7941" lon="3.82483">
        <ele>370</ele>
        <time>2024-02-23T11:22:48Z</time>
      </trkpt>
      <trkpt lat="43.7941" lon="3.82486">
        <ele>370</ele>
        <time>2024-02-23T11:22:49Z</time>
      </trkpt>
      <trkpt lat="43.79411" lon="3.82489">
        <ele>369.8</ele>
        <time>2024-02-23T11:22:50Z</time>
      </trkpt>
      <trkpt lat="43.79412" lon="3.82492">
        <ele>369.8</ele>
        <time>2024-02-23T11:22:51Z</time>
      </trkpt>
      <trkpt lat="43.79412" lon="3.82492">
        <ele>369.8</ele>
        <time>2024-02-23T11:22:52Z</time>
      </trkpt>
      <trkpt lat="43.79412" lon="3.82492">
        <ele>369.8</ele>
        <time>2024-02-23T11:22:53Z</time>
      </trkpt>
      <trkpt lat="43.79411" lon="3.82495">
        <ele>370</ele>
        <time>2024-02-23T11:22:54Z</time>
      </trkpt>
      <trkpt lat="43.79411" lon="3.82495">
        <ele>370.2</ele>
        <time>2024-02-23T11:22:55Z</time>
      </trkpt>
      <trkpt lat="43.79411" lon="3.82495">
        <ele>370.6</ele>
        <time>2024-02-23T11:22:56Z</time>
      </trkpt>
      <trkpt lat="43.79411" lon="3.82495">
        <ele>370.8</ele>
        <time>2024-02-23T11:22:57Z</time>
      </trkpt>
      <trkpt lat="43.79409" lon="3.82497">
        <ele>371.2</ele>
        <time>2024-02-23T11:22:58Z</time>
      </trkpt>
      <trkpt lat="43.79409" lon="3.82497">
        <ele>371.4</ele>
        <time>2024-02-23T11:22:59Z</time>
      </trkpt>
      <trkpt lat="43.79408" lon="3.82499">
        <ele>371.8</ele>
        <time>2024-02-23T11:23:00Z</time>
      </trkpt>
      <trkpt lat="43.79408" lon="3.82499">
        <ele>372.2</ele>
        <time>2024-02-23T11:23:01Z</time>
      </trkpt>
      <trkpt lat="43.79407" lon="3.82502">
        <ele>372.6</ele>
        <time>2024-02-23T11:23:02Z</time>
      </trkpt>
      <trkpt lat="43.79407" lon="3.82502">
        <ele>372.8</ele>
        <time>2024-02-23T11:23:03Z</time>
      </trkpt>
      <trkpt lat="43.79407" lon="3.82502">
        <ele>373.2</ele>
        <time>2024-02-23T11:23:04Z</time>
      </trkpt>
      <trkpt lat="43.79405" lon="3.82502">
        <ele>373.4</ele>
        <time>2024-02-23T11:23:05Z</time>
      </trkpt>
      <trkpt lat="43.79405" lon="3.82502">
        <ele>373.8</ele>
        <time>2024-02-23T11:23:06Z</time>
      </trkpt>
      <trkpt lat="43.79405" lon="3.82502">
        <ele>374.2</ele>
        <time>2024-02-23T11:23:07Z</time>
      </trkpt>
      <trkpt lat="43.79403" lon="3.82503">
        <ele>374.6</ele>
        <time>2024-02-23T11:23:08Z</time>
      </trkpt>
      <trkpt lat="43.79403" lon="3.82503">
        <ele>375</ele>
        <time>2024-02-23T11:23:09Z</time>
      </trkpt>
      <trkpt lat="43.79403" lon="3.82503">
        <ele>375.2</ele>
        <time>2024-02-23T11:23:10Z</time>
      </trkpt>
      <trkpt lat="43.79402" lon="3.82505">
        <ele>375.6</ele>
        <time>2024-02-23T11:23:11Z</time>
      </trkpt>
      <trkpt lat="43.79402" lon="3.82505">
        <ele>376</ele>
        <time>2024-02-23T11:23:12Z</time>
      </trkpt>
      <trkpt lat="43.79402" lon="3.82505">
        <ele>376.2</ele>
        <time>2024-02-23T11:23:13Z</time>
      </trkpt>
      <trkpt lat="43.794" lon="3.82507">
        <ele>376.6</ele>
        <time>2024-02-23T11:23:14Z</time>
      </trkpt>
      <trkpt lat="43.794" lon="3.82507">
        <ele>376.8</ele>
        <time>2024-02-23T11:23:15Z</time>
      </trkpt>
      <trkpt lat="43.794" lon="3.82507">
        <ele>377.2</ele>
        <time>2024-02-23T11:23:16Z</time>
      </trkpt>
      <trkpt lat="43.79398" lon="3.82509">
        <ele>377.4</ele>
        <time>2024-02-23T11:23:17Z</time>
      </trkpt>
      <trkpt lat="43.79398" lon="3.82509">
        <ele>377.8</ele>
        <time>2024-02-23T11:23:18Z</time>
      </trkpt>
      <trkpt lat="43.79398" lon="3.82509">
        <ele>378.2</ele>
        <time>2024-02-23T11:23:19Z</time>
      </trkpt>
      <trkpt lat="43.79398" lon="3.82509">
        <ele>378.4</ele>
        <time>2024-02-23T11:23:20Z</time>
      </trkpt>
      <trkpt lat="43.79397" lon="3.82511">
        <ele>378.6</ele>
        <time>2024-02-23T11:23:21Z</time>
      </trkpt>
      <trkpt lat="43.79397" lon="3.82511">
        <ele>378.8</ele>
        <time>2024-02-23T11:23:22Z</time>
      </trkpt>
      <trkpt lat="43.79397" lon="3.82514">
        <ele>379</ele>
        <time>2024-02-23T11:23:23Z</time>
      </trkpt>
      <trkpt lat="43.79397" lon="3.82514">
        <ele>379.2</ele>
        <time>2024-02-23T11:23:24Z</time>
      </trkpt>
      <trkpt lat="43.79397" lon="3.82517">
        <ele>379.8</ele>
        <time>2024-02-23T11:23:25Z</time>
      </trkpt>
      <trkpt lat="43.79397" lon="3.82517">
        <ele>380</ele>
        <time>2024-02-23T11:23:26Z</time>
      </trkpt>
      <trkpt lat="43.79397" lon="3.82522">
        <ele>380.4</ele>
        <time>2024-02-23T11:23:27Z</time>
      </trkpt>
      <trkpt lat="43.79397" lon="3.82522">
        <ele>380.6</ele>
        <time>2024-02-23T11:23:28Z</time>
      </trkpt>
      <trkpt lat="43.79396" lon="3.82525">
        <ele>380.8</ele>
        <time>2024-02-23T11:23:29Z</time>
      </trkpt>
      <trkpt lat="43.79396" lon="3.82525">
        <ele>381</ele>
        <time>2024-02-23T11:23:30Z</time>
      </trkpt>
      <trkpt lat="43.79396" lon="3.82525">
        <ele>381.4</ele>
        <time>2024-02-23T11:23:31Z</time>
      </trkpt>
      <trkpt lat="43.79395" lon="3.82528">
        <ele>381.6</ele>
        <time>2024-02-23T11:23:32Z</time>
      </trkpt>
      <trkpt lat="43.79395" lon="3.82528">
        <ele>382</ele>
        <time>2024-02-23T11:23:33Z</time>
      </trkpt>
      <trkpt lat="43.79395" lon="3.82528">
        <ele>382.2</ele>
        <time>2024-02-23T11:23:34Z</time>
      </trkpt>
      <trkpt lat="43.79395" lon="3.82532">
        <ele>382.2</ele>
        <time>2024-02-23T11:23:35Z</time>
      </trkpt>
      <trkpt lat="43.79395" lon="3.82532">
        <ele>382.2</ele>
        <time>2024-02-23T11:23:36Z</time>
      </trkpt>
      <trkpt lat="43.79396" lon="3.82536">
        <ele>382.4</ele>
        <time>2024-02-23T11:23:37Z</time>
      </trkpt>
      <trkpt lat="43.79397" lon="3.82539">
        <ele>382.8</ele>
        <time>2024-02-23T11:23:38Z</time>
      </trkpt>
      <trkpt lat="43.79398" lon="3.82541">
        <ele>383</ele>
        <time>2024-02-23T11:23:39Z</time>
      </trkpt>
      <trkpt lat="43.79398" lon="3.82541">
        <ele>383.2</ele>
        <time>2024-02-23T11:23:40Z</time>
      </trkpt>
      <trkpt lat="43.79398" lon="3.82545">
        <ele>383.6</ele>
        <time>2024-02-23T11:23:41Z</time>
      </trkpt>
      <trkpt lat="43.79398" lon="3.82545">
        <ele>383.8</ele>
        <time>2024-02-23T11:23:42Z</time>
      </trkpt>
      <trkpt lat="43.79398" lon="3.82545">
        <ele>384.2</ele>
        <time>2024-02-23T11:23:43Z</time>
      </trkpt>
      <trkpt lat="43.79398" lon="3.82545">
        <ele>384.4</ele>
        <time>2024-02-23T11:23:44Z</time>
      </trkpt>
      <trkpt lat="43.79397" lon="3.82547">
        <ele>384.6</ele>
        <time>2024-02-23T11:23:45Z</time>
      </trkpt>
      <trkpt lat="43.79397" lon="3.82547">
        <ele>384.8</ele>
        <time>2024-02-23T11:23:46Z</time>
      </trkpt>
      <trkpt lat="43.79397" lon="3.82547">
        <ele>385.2</ele>
        <time>2024-02-23T11:23:47Z</time>
      </trkpt>
      <trkpt lat="43.79395" lon="3.82548">
        <ele>385.6</ele>
        <time>2024-02-23T11:23:48Z</time>
      </trkpt>
      <trkpt lat="43.79395" lon="3.82548">
        <ele>386</ele>
        <time>2024-02-23T11:23:49Z</time>
      </trkpt>
      <trkpt lat="43.79393" lon="3.82548">
        <ele>386.4</ele>
        <time>2024-02-23T11:23:50Z</time>
      </trkpt>
      <trkpt lat="43.79391" lon="3.82548">
        <ele>386.6</ele>
        <time>2024-02-23T11:23:51Z</time>
      </trkpt>
      <trkpt lat="43.79391" lon="3.82548">
        <ele>387</ele>
        <time>2024-02-23T11:23:52Z</time>
      </trkpt>
      <trkpt lat="43.79391" lon="3.82548">
        <ele>387.4</ele>
        <time>2024-02-23T11:23:53Z</time>
      </trkpt>
      <trkpt lat="43.79391" lon="3.82548">
        <ele>387.8</ele>
        <time>2024-02-23T11:23:54Z</time>
      </trkpt>
      <trkpt lat="43.79389" lon="3.82549">
        <ele>388.2</ele>
        <time>2024-02-23T11:23:55Z</time>
      </trkpt>
      <trkpt lat="43.79389" lon="3.82549">
        <ele>388.6</ele>
        <time>2024-02-23T11:23:56Z</time>
      </trkpt>
      <trkpt lat="43.79387" lon="3.8255">
        <ele>389</ele>
        <time>2024-02-23T11:23:57Z</time>
      </trkpt>
      <trkpt lat="43.79385" lon="3.82551">
        <ele>389.2</ele>
        <time>2024-02-23T11:23:58Z</time>
      </trkpt>
      <trkpt lat="43.79385" lon="3.82551">
        <ele>389.6</ele>
        <time>2024-02-23T11:23:59Z</time>
      </trkpt>
      <trkpt lat="43.79383" lon="3.82551">
        <ele>390</ele>
        <time>2024-02-23T11:24:00Z</time>
      </trkpt>
      <trkpt lat="43.79383" lon="3.82551">
        <ele>390.4</ele>
        <time>2024-02-23T11:24:01Z</time>
      </trkpt>
      <trkpt lat="43.79381" lon="3.82552">
        <ele>390.6</ele>
        <time>2024-02-23T11:24:02Z</time>
      </trkpt>
      <trkpt lat="43.79381" lon="3.82552">
        <ele>391</ele>
        <time>2024-02-23T11:24:03Z</time>
      </trkpt>
      <trkpt lat="43.79381" lon="3.82552">
        <ele>391.4</ele>
        <time>2024-02-23T11:24:04Z</time>
      </trkpt>
      <trkpt lat="43.79381" lon="3.82552">
        <ele>391.6</ele>
        <time>2024-02-23T11:24:05Z</time>
      </trkpt>
      <trkpt lat="43.7938" lon="3.82557">
        <ele>392</ele>
        <time>2024-02-23T11:24:06Z</time>
      </trkpt>
      <trkpt lat="43.79381" lon="3.82559">
        <ele>392.2</ele>
        <time>2024-02-23T11:24:07Z</time>
      </trkpt>
      <trkpt lat="43.79381" lon="3.82559">
        <ele>392.6</ele>
        <time>2024-02-23T11:24:08Z</time>
      </trkpt>
      <trkpt lat="43.79381" lon="3.82564">
        <ele>392.6</ele>
        <time>2024-02-23T11:24:09Z</time>
      </trkpt>
      <trkpt lat="43.79382" lon="3.82566">
        <ele>392.8</ele>
        <time>2024-02-23T11:24:10Z</time>
      </trkpt>
      <trkpt lat="43.79384" lon="3.82568">
        <ele>393</ele>
        <time>2024-02-23T11:24:11Z</time>
      </trkpt>
      <trkpt lat="43.79386" lon="3.82571">
        <ele>393</ele>
        <time>2024-02-23T11:24:12Z</time>
      </trkpt>
      <trkpt lat="43.79387" lon="3.82574">
        <ele>393.2</ele>
        <time>2024-02-23T11:24:13Z</time>
      </trkpt>
      <trkpt lat="43.79388" lon="3.82578">
        <ele>393.4</ele>
        <time>2024-02-23T11:24:14Z</time>
      </trkpt>
      <trkpt lat="43.79389" lon="3.8258">
        <ele>393.4</ele>
        <time>2024-02-23T11:24:15Z</time>
      </trkpt>
      <trkpt lat="43.79389" lon="3.82583">
        <ele>393.6</ele>
        <time>2024-02-23T11:24:16Z</time>
      </trkpt>
      <trkpt lat="43.79389" lon="3.82586">
        <ele>393.8</ele>
        <time>2024-02-23T11:24:17Z</time>
      </trkpt>
      <trkpt lat="43.79389" lon="3.82589">
        <ele>394</ele>
        <time>2024-02-23T11:24:18Z</time>
      </trkpt>
      <trkpt lat="43.79389" lon="3.82592">
        <ele>394.2</ele>
        <time>2024-02-23T11:24:19Z</time>
      </trkpt>
      <trkpt lat="43.79389" lon="3.82592">
        <ele>394.6</ele>
        <time>2024-02-23T11:24:20Z</time>
      </trkpt>
      <trkpt lat="43.7939" lon="3.82596">
        <ele>395</ele>
        <time>2024-02-23T11:24:21Z</time>
      </trkpt>
      <trkpt lat="43.7939" lon="3.82596">
        <ele>395.4</ele>
        <time>2024-02-23T11:24:22Z</time>
      </trkpt>
      <trkpt lat="43.79389" lon="3.82601">
        <ele>395.6</ele>
        <time>2024-02-23T11:24:23Z</time>
      </trkpt>
      <trkpt lat="43.79389" lon="3.82601">
        <ele>396</ele>
        <time>2024-02-23T11:24:24Z</time>
      </trkpt>
      <trkpt lat="43.79389" lon="3.82604">
        <ele>396.4</ele>
        <time>2024-02-23T11:24:25Z</time>
      </trkpt>
      <trkpt lat="43.79389" lon="3.82604">
        <ele>396.6</ele>
        <time>2024-02-23T11:24:26Z</time>
      </trkpt>
      <trkpt lat="43.7939" lon="3.82608">
        <ele>396.8</ele>
        <time>2024-02-23T11:24:27Z</time>
      </trkpt>
      <trkpt lat="43.79391" lon="3.82611">
        <ele>397</ele>
        <time>2024-02-23T11:24:28Z</time>
      </trkpt>
      <trkpt lat="43.79393" lon="3.82613">
        <ele>397.2</ele>
        <time>2024-02-23T11:24:29Z</time>
      </trkpt>
      <trkpt lat="43.79395" lon="3.82615">
        <ele>397.2</ele>
        <time>2024-02-23T11:24:30Z</time>
      </trkpt>
      <trkpt lat="43.79395" lon="3.82618">
        <ele>397.2</ele>
        <time>2024-02-23T11:24:31Z</time>
      </trkpt>
      <trkpt lat="43.79395" lon="3.82618">
        <ele>397.2</ele>
        <time>2024-02-23T11:24:32Z</time>
      </trkpt>
      <trkpt lat="43.79395" lon="3.82622">
        <ele>397.4</ele>
        <time>2024-02-23T11:24:33Z</time>
      </trkpt>
      <trkpt lat="43.79395" lon="3.82622">
        <ele>397.6</ele>
        <time>2024-02-23T11:24:34Z</time>
      </trkpt>
      <trkpt lat="43.79395" lon="3.82625">
        <ele>397.6</ele>
        <time>2024-02-23T11:24:35Z</time>
      </trkpt>
      <trkpt lat="43.79395" lon="3.82625">
        <ele>398</ele>
        <time>2024-02-23T11:24:36Z</time>
      </trkpt>
      <trkpt lat="43.79395" lon="3.82628">
        <ele>398.2</ele>
        <time>2024-02-23T11:24:37Z</time>
      </trkpt>
      <trkpt lat="43.79395" lon="3.82628">
        <ele>398.4</ele>
        <time>2024-02-23T11:24:38Z</time>
      </trkpt>
      <trkpt lat="43.79394" lon="3.82631">
        <ele>398.6</ele>
        <time>2024-02-23T11:24:39Z</time>
      </trkpt>
      <trkpt lat="43.79394" lon="3.82631">
        <ele>398.8</ele>
        <time>2024-02-23T11:24:40Z</time>
      </trkpt>
      <trkpt lat="43.79393" lon="3.82634">
        <ele>399.2</ele>
        <time>2024-02-23T11:24:41Z</time>
      </trkpt>
      <trkpt lat="43.79393" lon="3.82634">
        <ele>399.4</ele>
        <time>2024-02-23T11:24:42Z</time>
      </trkpt>
      <trkpt lat="43.79393" lon="3.82637">
        <ele>399.6</ele>
        <time>2024-02-23T11:24:43Z</time>
      </trkpt>
      <trkpt lat="43.79393" lon="3.82637">
        <ele>400</ele>
        <time>2024-02-23T11:24:44Z</time>
      </trkpt>
      <trkpt lat="43.79394" lon="3.82641">
        <ele>400.2</ele>
        <time>2024-02-23T11:24:45Z</time>
      </trkpt>
      <trkpt lat="43.79394" lon="3.82641">
        <ele>400.6</ele>
        <time>2024-02-23T11:24:46Z</time>
      </trkpt>
      <trkpt lat="43.79394" lon="3.82646">
        <ele>400.8</ele>
        <time>2024-02-23T11:24:47Z</time>
      </trkpt>
      <trkpt lat="43.79394" lon="3.82646">
        <ele>401</ele>
        <time>2024-02-23T11:24:48Z</time>
      </trkpt>
      <trkpt lat="43.79395" lon="3.82651">
        <ele>401.4</ele>
        <time>2024-02-23T11:24:49Z</time>
      </trkpt>
      <trkpt lat="43.79395" lon="3.82651">
        <ele>401.8</ele>
        <time>2024-02-23T11:24:50Z</time>
      </trkpt>
      <trkpt lat="43.79395" lon="3.82654">
        <ele>402</ele>
        <time>2024-02-23T11:24:51Z</time>
      </trkpt>
      <trkpt lat="43.79395" lon="3.82654">
        <ele>402.2</ele>
        <time>2024-02-23T11:24:52Z</time>
      </trkpt>
      <trkpt lat="43.79396" lon="3.82657">
        <ele>402.6</ele>
        <time>2024-02-23T11:24:53Z</time>
      </trkpt>
      <trkpt lat="43.79396" lon="3.82657">
        <ele>403</ele>
        <time>2024-02-23T11:24:54Z</time>
      </trkpt>
      <trkpt lat="43.79395" lon="3.82661">
        <ele>403.4</ele>
        <time>2024-02-23T11:24:55Z</time>
      </trkpt>
      <trkpt lat="43.79395" lon="3.82661">
        <ele>403.8</ele>
        <time>2024-02-23T11:24:56Z</time>
      </trkpt>
      <trkpt lat="43.79395" lon="3.82664">
        <ele>404</ele>
        <time>2024-02-23T11:24:57Z</time>
      </trkpt>
      <trkpt lat="43.79395" lon="3.82664">
        <ele>404.4</ele>
        <time>2024-02-23T11:24:58Z</time>
      </trkpt>
      <trkpt lat="43.79395" lon="3.82668">
        <ele>404.6</ele>
        <time>2024-02-23T11:24:59Z</time>
      </trkpt>
      <trkpt lat="43.79395" lon="3.82668">
        <ele>404.8</ele>
        <time>2024-02-23T11:25:00Z</time>
      </trkpt>
      <trkpt lat="43.79395" lon="3.82672">
        <ele>404.8</ele>
        <time>2024-02-23T11:25:01Z</time>
      </trkpt>
      <trkpt lat="43.79395" lon="3.82672">
        <ele>405</ele>
        <time>2024-02-23T11:25:02Z</time>
      </trkpt>
      <trkpt lat="43.79395" lon="3.82675">
        <ele>405.4</ele>
        <time>2024-02-23T11:25:03Z</time>
      </trkpt>
      <trkpt lat="43.79395" lon="3.82675">
        <ele>405.6</ele>
        <time>2024-02-23T11:25:04Z</time>
      </trkpt>
      <trkpt lat="43.79395" lon="3.82678">
        <ele>405.8</ele>
        <time>2024-02-23T11:25:05Z</time>
      </trkpt>
      <trkpt lat="43.79395" lon="3.82678">
        <ele>406</ele>
        <time>2024-02-23T11:25:06Z</time>
      </trkpt>
      <trkpt lat="43.79394" lon="3.82682">
        <ele>406.2</ele>
        <time>2024-02-23T11:25:07Z</time>
      </trkpt>
      <trkpt lat="43.79394" lon="3.82682">
        <ele>406.4</ele>
        <time>2024-02-23T11:25:08Z</time>
      </trkpt>
      <trkpt lat="43.79394" lon="3.82686">
        <ele>406.6</ele>
        <time>2024-02-23T11:25:09Z</time>
      </trkpt>
      <trkpt lat="43.79394" lon="3.82686">
        <ele>406.8</ele>
        <time>2024-02-23T11:25:10Z</time>
      </trkpt>
      <trkpt lat="43.79394" lon="3.8269">
        <ele>407.2</ele>
        <time>2024-02-23T11:25:11Z</time>
      </trkpt>
      <trkpt lat="43.79394" lon="3.8269">
        <ele>407.4</ele>
        <time>2024-02-23T11:25:12Z</time>
      </trkpt>
      <trkpt lat="43.79396" lon="3.82693">
        <ele>407.4</ele>
        <time>2024-02-23T11:25:13Z</time>
      </trkpt>
      <trkpt lat="43.79396" lon="3.82693">
        <ele>407.6</ele>
        <time>2024-02-23T11:25:14Z</time>
      </trkpt>
      <trkpt lat="43.79397" lon="3.82697">
        <ele>407.8</ele>
        <time>2024-02-23T11:25:15Z</time>
      </trkpt>
      <trkpt lat="43.79398" lon="3.82699">
        <ele>408</ele>
        <time>2024-02-23T11:25:16Z</time>
      </trkpt>
      <trkpt lat="43.79398" lon="3.82699">
        <ele>408.2</ele>
        <time>2024-02-23T11:25:17Z</time>
      </trkpt>
      <trkpt lat="43.794" lon="3.82703">
        <ele>408.4</ele>
        <time>2024-02-23T11:25:18Z</time>
      </trkpt>
      <trkpt lat="43.79402" lon="3.82705">
        <ele>408.4</ele>
        <time>2024-02-23T11:25:19Z</time>
      </trkpt>
      <trkpt lat="43.79403" lon="3.82707">
        <ele>408.4</ele>
        <time>2024-02-23T11:25:20Z</time>
      </trkpt>
      <trkpt lat="43.79405" lon="3.8271">
        <ele>408.4</ele>
        <time>2024-02-23T11:25:21Z</time>
      </trkpt>
      <trkpt lat="43.79406" lon="3.82712">
        <ele>408.4</ele>
        <time>2024-02-23T11:25:22Z</time>
      </trkpt>
      <trkpt lat="43.79408" lon="3.82714">
        <ele>408.4</ele>
        <time>2024-02-23T11:25:23Z</time>
      </trkpt>
      <trkpt lat="43.79409" lon="3.82717">
        <ele>408.4</ele>
        <time>2024-02-23T11:25:24Z</time>
      </trkpt>
      <trkpt lat="43.7941" lon="3.82719">
        <ele>408.4</ele>
        <time>2024-02-23T11:25:25Z</time>
      </trkpt>
      <trkpt lat="43.7941" lon="3.82719">
        <ele>408.4</ele>
        <time>2024-02-23T11:25:26Z</time>
      </trkpt>
      <trkpt lat="43.79411" lon="3.82723">
        <ele>408.2</ele>
        <time>2024-02-23T11:25:27Z</time>
      </trkpt>
      <trkpt lat="43.79411" lon="3.82723">
        <ele>408.4</ele>
        <time>2024-02-23T11:25:28Z</time>
      </trkpt>
      <trkpt lat="43.79411" lon="3.82727">
        <ele>408.6</ele>
        <time>2024-02-23T11:25:29Z</time>
      </trkpt>
      <trkpt lat="43.79411" lon="3.82727">
        <ele>408.8</ele>
        <time>2024-02-23T11:25:30Z</time>
      </trkpt>
      <trkpt lat="43.79409" lon="3.82729">
        <ele>409.2</ele>
        <time>2024-02-23T11:25:31Z</time>
      </trkpt>
      <trkpt lat="43.79409" lon="3.82729">
        <ele>409.6</ele>
        <time>2024-02-23T11:25:32Z</time>
      </trkpt>
      <trkpt lat="43.79409" lon="3.82729">
        <ele>410</ele>
        <time>2024-02-23T11:25:33Z</time>
      </trkpt>
      <trkpt lat="43.79409" lon="3.82732">
        <ele>410.6</ele>
        <time>2024-02-23T11:25:34Z</time>
      </trkpt>
      <trkpt lat="43.79409" lon="3.82732">
        <ele>411</ele>
        <time>2024-02-23T11:25:35Z</time>
      </trkpt>
      <trkpt lat="43.79409" lon="3.82735">
        <ele>411.4</ele>
        <time>2024-02-23T11:25:36Z</time>
      </trkpt>
      <trkpt lat="43.79409" lon="3.82735">
        <ele>412</ele>
        <time>2024-02-23T11:25:37Z</time>
      </trkpt>
      <trkpt lat="43.79409" lon="3.8274">
        <ele>412.2</ele>
        <time>2024-02-23T11:25:38Z</time>
      </trkpt>
      <trkpt lat="43.79409" lon="3.82743">
        <ele>412.2</ele>
        <time>2024-02-23T11:25:39Z</time>
      </trkpt>
      <trkpt lat="43.79409" lon="3.82746">
        <ele>412.2</ele>
        <time>2024-02-23T11:25:40Z</time>
      </trkpt>
      <trkpt lat="43.79409" lon="3.82749">
        <ele>412.2</ele>
        <time>2024-02-23T11:25:41Z</time>
      </trkpt>
      <trkpt lat="43.79409" lon="3.82749">
        <ele>412.2</ele>
        <time>2024-02-23T11:25:42Z</time>
      </trkpt>
      <trkpt lat="43.79409" lon="3.82753">
        <ele>412.4</ele>
        <time>2024-02-23T11:25:43Z</time>
      </trkpt>
      <trkpt lat="43.79409" lon="3.82753">
        <ele>412.4</ele>
        <time>2024-02-23T11:25:44Z</time>
      </trkpt>
      <trkpt lat="43.79409" lon="3.82757">
        <ele>412.4</ele>
        <time>2024-02-23T11:25:45Z</time>
      </trkpt>
      <trkpt lat="43.79409" lon="3.82757">
        <ele>412.6</ele>
        <time>2024-02-23T11:25:46Z</time>
      </trkpt>
      <trkpt lat="43.7941" lon="3.8276">
        <ele>412.8</ele>
        <time>2024-02-23T11:25:47Z</time>
      </trkpt>
      <trkpt lat="43.79411" lon="3.82762">
        <ele>413.2</ele>
        <time>2024-02-23T11:25:48Z</time>
      </trkpt>
      <trkpt lat="43.79411" lon="3.82762">
        <ele>413.4</ele>
        <time>2024-02-23T11:25:49Z</time>
      </trkpt>
      <trkpt lat="43.79412" lon="3.82766">
        <ele>413.6</ele>
        <time>2024-02-23T11:25:50Z</time>
      </trkpt>
      <trkpt lat="43.79412" lon="3.82766">
        <ele>413.8</ele>
        <time>2024-02-23T11:25:51Z</time>
      </trkpt>
      <trkpt lat="43.79413" lon="3.82769">
        <ele>414</ele>
        <time>2024-02-23T11:25:52Z</time>
      </trkpt>
      <trkpt lat="43.79413" lon="3.82769">
        <ele>414.4</ele>
        <time>2024-02-23T11:25:53Z</time>
      </trkpt>
      <trkpt lat="43.79412" lon="3.82772">
        <ele>414.8</ele>
        <time>2024-02-23T11:25:54Z</time>
      </trkpt>
      <trkpt lat="43.79412" lon="3.82772">
        <ele>415.2</ele>
        <time>2024-02-23T11:25:55Z</time>
      </trkpt>
      <trkpt lat="43.7941" lon="3.82774">
        <ele>415.4</ele>
        <time>2024-02-23T11:25:56Z</time>
      </trkpt>
      <trkpt lat="43.7941" lon="3.82774">
        <ele>415.8</ele>
        <time>2024-02-23T11:25:57Z</time>
      </trkpt>
      <trkpt lat="43.79409" lon="3.82777">
        <ele>416</ele>
        <time>2024-02-23T11:25:58Z</time>
      </trkpt>
      <trkpt lat="43.79409" lon="3.82777">
        <ele>416.2</ele>
        <time>2024-02-23T11:25:59Z</time>
      </trkpt>
      <trkpt lat="43.79409" lon="3.82777">
        <ele>416.4</ele>
        <time>2024-02-23T11:26:00Z</time>
      </trkpt>
      <trkpt lat="43.79409" lon="3.82777">
        <ele>416.6</ele>
        <time>2024-02-23T11:26:01Z</time>
      </trkpt>
      <trkpt lat="43.79408" lon="3.8278">
        <ele>417</ele>
        <time>2024-02-23T11:26:02Z</time>
      </trkpt>
      <trkpt lat="43.79408" lon="3.8278">
        <ele>417.4</ele>
        <time>2024-02-23T11:26:03Z</time>
      </trkpt>
      <trkpt lat="43.79408" lon="3.82783">
        <ele>417.6</ele>
        <time>2024-02-23T11:26:04Z</time>
      </trkpt>
      <trkpt lat="43.79408" lon="3.82783">
        <ele>417.8</ele>
        <time>2024-02-23T11:26:05Z</time>
      </trkpt>
      <trkpt lat="43.79409" lon="3.82786">
        <ele>418.2</ele>
        <time>2024-02-23T11:26:06Z</time>
      </trkpt>
      <trkpt lat="43.7941" lon="3.82788">
        <ele>418.4</ele>
        <time>2024-02-23T11:26:07Z</time>
      </trkpt>
      <trkpt lat="43.79412" lon="3.8279">
        <ele>418.6</ele>
        <time>2024-02-23T11:26:08Z</time>
      </trkpt>
      <trkpt lat="43.79412" lon="3.8279">
        <ele>419</ele>
        <time>2024-02-23T11:26:09Z</time>
      </trkpt>
      <trkpt lat="43.79413" lon="3.82795">
        <ele>419.2</ele>
        <time>2024-02-23T11:26:10Z</time>
      </trkpt>
      <trkpt lat="43.79414" lon="3.82797">
        <ele>419.4</ele>
        <time>2024-02-23T11:26:11Z</time>
      </trkpt>
      <trkpt lat="43.79415" lon="3.828">
        <ele>419.8</ele>
        <time>2024-02-23T11:26:12Z</time>
      </trkpt>
      <trkpt lat="43.79415" lon="3.828">
        <ele>420</ele>
        <time>2024-02-23T11:26:13Z</time>
      </trkpt>
      <trkpt lat="43.79416" lon="3.82804">
        <ele>420.4</ele>
        <time>2024-02-23T11:26:14Z</time>
      </trkpt>
      <trkpt lat="43.79417" lon="3.82806">
        <ele>420.6</ele>
        <time>2024-02-23T11:26:15Z</time>
      </trkpt>
      <trkpt lat="43.79418" lon="3.82808">
        <ele>420.8</ele>
        <time>2024-02-23T11:26:16Z</time>
      </trkpt>
      <trkpt lat="43.79418" lon="3.82808">
        <ele>421</ele>
        <time>2024-02-23T11:26:17Z</time>
      </trkpt>
      <trkpt lat="43.7942" lon="3.82813">
        <ele>421.2</ele>
        <time>2024-02-23T11:26:18Z</time>
      </trkpt>
      <trkpt lat="43.79421" lon="3.82815">
        <ele>421.6</ele>
        <time>2024-02-23T11:26:19Z</time>
      </trkpt>
      <trkpt lat="43.79422" lon="3.82817">
        <ele>421.8</ele>
        <time>2024-02-23T11:26:20Z</time>
      </trkpt>
      <trkpt lat="43.79422" lon="3.82817">
        <ele>422</ele>
        <time>2024-02-23T11:26:21Z</time>
      </trkpt>
      <trkpt lat="43.79422" lon="3.8282">
        <ele>422.2</ele>
        <time>2024-02-23T11:26:22Z</time>
      </trkpt>
      <trkpt lat="43.79422" lon="3.8282">
        <ele>422.4</ele>
        <time>2024-02-23T11:26:23Z</time>
      </trkpt>
      <trkpt lat="43.79422" lon="3.8282">
        <ele>422.6</ele>
        <time>2024-02-23T11:26:24Z</time>
      </trkpt>
      <trkpt lat="43.7942" lon="3.82822">
        <ele>422.8</ele>
        <time>2024-02-23T11:26:25Z</time>
      </trkpt>
      <trkpt lat="43.7942" lon="3.82822">
        <ele>423.2</ele>
        <time>2024-02-23T11:26:26Z</time>
      </trkpt>
      <trkpt lat="43.7942" lon="3.82822">
        <ele>423.6</ele>
        <time>2024-02-23T11:26:27Z</time>
      </trkpt>
      <trkpt lat="43.79419" lon="3.82825">
        <ele>423.8</ele>
        <time>2024-02-23T11:26:28Z</time>
      </trkpt>
      <trkpt lat="43.79419" lon="3.82825">
        <ele>424</ele>
        <time>2024-02-23T11:26:29Z</time>
      </trkpt>
      <trkpt lat="43.79419" lon="3.82825">
        <ele>424.4</ele>
        <time>2024-02-23T11:26:30Z</time>
      </trkpt>
      <trkpt lat="43.79418" lon="3.82828">
        <ele>424.6</ele>
        <time>2024-02-23T11:26:31Z</time>
      </trkpt>
      <trkpt lat="43.79418" lon="3.82828">
        <ele>424.8</ele>
        <time>2024-02-23T11:26:32Z</time>
      </trkpt>
      <trkpt lat="43.79417" lon="3.8283">
        <ele>425.2</ele>
        <time>2024-02-23T11:26:33Z</time>
      </trkpt>
      <trkpt lat="43.79417" lon="3.8283">
        <ele>425.4</ele>
        <time>2024-02-23T11:26:34Z</time>
      </trkpt>
      <trkpt lat="43.79417" lon="3.82834">
        <ele>425.8</ele>
        <time>2024-02-23T11:26:35Z</time>
      </trkpt>
      <trkpt lat="43.79417" lon="3.82834">
        <ele>426.2</ele>
        <time>2024-02-23T11:26:36Z</time>
      </trkpt>
      <trkpt lat="43.79416" lon="3.82837">
        <ele>426.6</ele>
        <time>2024-02-23T11:26:37Z</time>
      </trkpt>
      <trkpt lat="43.79416" lon="3.82837">
        <ele>427</ele>
        <time>2024-02-23T11:26:38Z</time>
      </trkpt>
      <trkpt lat="43.79418" lon="3.82841">
        <ele>427.2</ele>
        <time>2024-02-23T11:26:39Z</time>
      </trkpt>
      <trkpt lat="43.79418" lon="3.82841">
        <ele>427.4</ele>
        <time>2024-02-23T11:26:40Z</time>
      </trkpt>
      <trkpt lat="43.7942" lon="3.82845">
        <ele>427.8</ele>
        <time>2024-02-23T11:26:41Z</time>
      </trkpt>
      <trkpt lat="43.79421" lon="3.82848">
        <ele>427.8</ele>
        <time>2024-02-23T11:26:42Z</time>
      </trkpt>
      <trkpt lat="43.79422" lon="3.8285">
        <ele>428</ele>
        <time>2024-02-23T11:26:43Z</time>
      </trkpt>
      <trkpt lat="43.79423" lon="3.82853">
        <ele>428.2</ele>
        <time>2024-02-23T11:26:44Z</time>
      </trkpt>
      <trkpt lat="43.79424" lon="3.82856">
        <ele>428.2</ele>
        <time>2024-02-23T11:26:45Z</time>
      </trkpt>
      <trkpt lat="43.79425" lon="3.82858">
        <ele>428.2</ele>
        <time>2024-02-23T11:26:46Z</time>
      </trkpt>
      <trkpt lat="43.79425" lon="3.82858">
        <ele>428.2</ele>
        <time>2024-02-23T11:26:47Z</time>
      </trkpt>
      <trkpt lat="43.79425" lon="3.82862">
        <ele>428.2</ele>
        <time>2024-02-23T11:26:48Z</time>
      </trkpt>
      <trkpt lat="43.79425" lon="3.82862">
        <ele>428.4</ele>
        <time>2024-02-23T11:26:49Z</time>
      </trkpt>
      <trkpt lat="43.79425" lon="3.82862">
        <ele>428.6</ele>
        <time>2024-02-23T11:26:50Z</time>
      </trkpt>
      <trkpt lat="43.79422" lon="3.82864">
        <ele>428.8</ele>
        <time>2024-02-23T11:26:51Z</time>
      </trkpt>
      <trkpt lat="43.79422" lon="3.82864">
        <ele>429</ele>
        <time>2024-02-23T11:26:52Z</time>
      </trkpt>
      <trkpt lat="43.79422" lon="3.82864">
        <ele>429.2</ele>
        <time>2024-02-23T11:26:53Z</time>
      </trkpt>
      <trkpt lat="43.79422" lon="3.82864">
        <ele>429.4</ele>
        <time>2024-02-23T11:26:54Z</time>
      </trkpt>
      <trkpt lat="43.79421" lon="3.82866">
        <ele>429.8</ele>
        <time>2024-02-23T11:26:55Z</time>
      </trkpt>
      <trkpt lat="43.79421" lon="3.82866">
        <ele>430</ele>
        <time>2024-02-23T11:26:56Z</time>
      </trkpt>
      <trkpt lat="43.7942" lon="3.82869">
        <ele>430.4</ele>
        <time>2024-02-23T11:26:57Z</time>
      </trkpt>
      <trkpt lat="43.7942" lon="3.82869">
        <ele>430.6</ele>
        <time>2024-02-23T11:26:58Z</time>
      </trkpt>
      <trkpt lat="43.79419" lon="3.82872">
        <ele>431</ele>
        <time>2024-02-23T11:26:59Z</time>
      </trkpt>
      <trkpt lat="43.79419" lon="3.82872">
        <ele>431.4</ele>
        <time>2024-02-23T11:27:00Z</time>
      </trkpt>
      <trkpt lat="43.79418" lon="3.82877">
        <ele>431.6</ele>
        <time>2024-02-23T11:27:01Z</time>
      </trkpt>
      <trkpt lat="43.79418" lon="3.8288">
        <ele>432</ele>
        <time>2024-02-23T11:27:02Z</time>
      </trkpt>
      <trkpt lat="43.79418" lon="3.8288">
        <ele>432.2</ele>
        <time>2024-02-23T11:27:03Z</time>
      </trkpt>
      <trkpt lat="43.79417" lon="3.82884">
        <ele>432.6</ele>
        <time>2024-02-23T11:27:04Z</time>
      </trkpt>
      <trkpt lat="43.79417" lon="3.82884">
        <ele>432.8</ele>
        <time>2024-02-23T11:27:05Z</time>
      </trkpt>
      <trkpt lat="43.79418" lon="3.82887">
        <ele>433.2</ele>
        <time>2024-02-23T11:27:06Z</time>
      </trkpt>
      <trkpt lat="43.79418" lon="3.82887">
        <ele>433.4</ele>
        <time>2024-02-23T11:27:07Z</time>
      </trkpt>
      <trkpt lat="43.79419" lon="3.8289">
        <ele>433.6</ele>
        <time>2024-02-23T11:27:08Z</time>
      </trkpt>
      <trkpt lat="43.79419" lon="3.8289">
        <ele>433.8</ele>
        <time>2024-02-23T11:27:09Z</time>
      </trkpt>
      <trkpt lat="43.79418" lon="3.82894">
        <ele>434</ele>
        <time>2024-02-23T11:27:10Z</time>
      </trkpt>
      <trkpt lat="43.79418" lon="3.82894">
        <ele>434.2</ele>
        <time>2024-02-23T11:27:11Z</time>
      </trkpt>
      <trkpt lat="43.79419" lon="3.82897">
        <ele>434.4</ele>
        <time>2024-02-23T11:27:12Z</time>
      </trkpt>
      <trkpt lat="43.79419" lon="3.82897">
        <ele>434.6</ele>
        <time>2024-02-23T11:27:13Z</time>
      </trkpt>
      <trkpt lat="43.79419" lon="3.82899">
        <ele>434.8</ele>
        <time>2024-02-23T11:27:14Z</time>
      </trkpt>
      <trkpt lat="43.79419" lon="3.82899">
        <ele>434.8</ele>
        <time>2024-02-23T11:27:15Z</time>
      </trkpt>
      <trkpt lat="43.79419" lon="3.82904">
        <ele>435</ele>
        <time>2024-02-23T11:27:16Z</time>
      </trkpt>
      <trkpt lat="43.79419" lon="3.82904">
        <ele>435.2</ele>
        <time>2024-02-23T11:27:17Z</time>
      </trkpt>
      <trkpt lat="43.79421" lon="3.82908">
        <ele>435.4</ele>
        <time>2024-02-23T11:27:18Z</time>
      </trkpt>
      <trkpt lat="43.79421" lon="3.82908">
        <ele>435.8</ele>
        <time>2024-02-23T11:27:19Z</time>
      </trkpt>
      <trkpt lat="43.79422" lon="3.82911">
        <ele>436</ele>
        <time>2024-02-23T11:27:20Z</time>
      </trkpt>
      <trkpt lat="43.79422" lon="3.82914">
        <ele>436.4</ele>
        <time>2024-02-23T11:27:21Z</time>
      </trkpt>
      <trkpt lat="43.79422" lon="3.82914">
        <ele>436.4</ele>
        <time>2024-02-23T11:27:22Z</time>
      </trkpt>
      <trkpt lat="43.79422" lon="3.82918">
        <ele>436.6</ele>
        <time>2024-02-23T11:27:23Z</time>
      </trkpt>
      <trkpt lat="43.79422" lon="3.82918">
        <ele>437</ele>
        <time>2024-02-23T11:27:24Z</time>
      </trkpt>
      <trkpt lat="43.79422" lon="3.82918">
        <ele>437.2</ele>
        <time>2024-02-23T11:27:25Z</time>
      </trkpt>
      <trkpt lat="43.79421" lon="3.82921">
        <ele>437.6</ele>
        <time>2024-02-23T11:27:26Z</time>
      </trkpt>
      <trkpt lat="43.79421" lon="3.82921">
        <ele>437.8</ele>
        <time>2024-02-23T11:27:27Z</time>
      </trkpt>
      <trkpt lat="43.79421" lon="3.82921">
        <ele>438.2</ele>
        <time>2024-02-23T11:27:28Z</time>
      </trkpt>
      <trkpt lat="43.79421" lon="3.82921">
        <ele>438.6</ele>
        <time>2024-02-23T11:27:29Z</time>
      </trkpt>
      <trkpt lat="43.79419" lon="3.82924">
        <ele>438.8</ele>
        <time>2024-02-23T11:27:30Z</time>
      </trkpt>
      <trkpt lat="43.79419" lon="3.82924">
        <ele>439.2</ele>
        <time>2024-02-23T11:27:31Z</time>
      </trkpt>
      <trkpt lat="43.79418" lon="3.82927">
        <ele>439.6</ele>
        <time>2024-02-23T11:27:32Z</time>
      </trkpt>
      <trkpt lat="43.79418" lon="3.82927">
        <ele>439.8</ele>
        <time>2024-02-23T11:27:33Z</time>
      </trkpt>
      <trkpt lat="43.79417" lon="3.8293">
        <ele>440.2</ele>
        <time>2024-02-23T11:27:34Z</time>
      </trkpt>
      <trkpt lat="43.79417" lon="3.8293">
        <ele>440.6</ele>
        <time>2024-02-23T11:27:35Z</time>
      </trkpt>
      <trkpt lat="43.79417" lon="3.82933">
        <ele>440.8</ele>
        <time>2024-02-23T11:27:36Z</time>
      </trkpt>
      <trkpt lat="43.79417" lon="3.82933">
        <ele>441</ele>
        <time>2024-02-23T11:27:37Z</time>
      </trkpt>
      <trkpt lat="43.79416" lon="3.82936">
        <ele>441.2</ele>
        <time>2024-02-23T11:27:38Z</time>
      </trkpt>
      <trkpt lat="43.79416" lon="3.82936">
        <ele>441.6</ele>
        <time>2024-02-23T11:27:39Z</time>
      </trkpt>
      <trkpt lat="43.79415" lon="3.82939">
        <ele>441.8</ele>
        <time>2024-02-23T11:27:40Z</time>
      </trkpt>
      <trkpt lat="43.79415" lon="3.82939">
        <ele>442</ele>
        <time>2024-02-23T11:27:41Z</time>
      </trkpt>
      <trkpt lat="43.79414" lon="3.82941">
        <ele>442.2</ele>
        <time>2024-02-23T11:27:42Z</time>
      </trkpt>
      <trkpt lat="43.79414" lon="3.82941">
        <ele>442.4</ele>
        <time>2024-02-23T11:27:43Z</time>
      </trkpt>
      <trkpt lat="43.79414" lon="3.82941">
        <ele>442.4</ele>
        <time>2024-02-23T11:27:44Z</time>
      </trkpt>
      <trkpt lat="43.79413" lon="3.82944">
        <ele>442.8</ele>
        <time>2024-02-23T11:27:45Z</time>
      </trkpt>
      <trkpt lat="43.79413" lon="3.82944">
        <ele>443</ele>
        <time>2024-02-23T11:27:46Z</time>
      </trkpt>
      <trkpt lat="43.7941" lon="3.82945">
        <ele>443.4</ele>
        <time>2024-02-23T11:27:47Z</time>
      </trkpt>
      <trkpt lat="43.7941" lon="3.82945">
        <ele>443.6</ele>
        <time>2024-02-23T11:27:48Z</time>
      </trkpt>
      <trkpt lat="43.7941" lon="3.82945">
        <ele>443.8</ele>
        <time>2024-02-23T11:27:49Z</time>
      </trkpt>
      <trkpt lat="43.7941" lon="3.82948">
        <ele>444</ele>
        <time>2024-02-23T11:27:50Z</time>
      </trkpt>
      <trkpt lat="43.7941" lon="3.82948">
        <ele>444.2</ele>
        <time>2024-02-23T11:27:51Z</time>
      </trkpt>
      <trkpt lat="43.79411" lon="3.82952">
        <ele>444.4</ele>
        <time>2024-02-23T11:27:52Z</time>
      </trkpt>
      <trkpt lat="43.79411" lon="3.82952">
        <ele>444.6</ele>
        <time>2024-02-23T11:27:53Z</time>
      </trkpt>
      <trkpt lat="43.79411" lon="3.82956">
        <ele>444.8</ele>
        <time>2024-02-23T11:27:54Z</time>
      </trkpt>
      <trkpt lat="43.79411" lon="3.82959">
        <ele>445.2</ele>
        <time>2024-02-23T11:27:55Z</time>
      </trkpt>
      <trkpt lat="43.7941" lon="3.82962">
        <ele>445.4</ele>
        <time>2024-02-23T11:27:56Z</time>
      </trkpt>
      <trkpt lat="43.7941" lon="3.82962">
        <ele>445.8</ele>
        <time>2024-02-23T11:27:57Z</time>
      </trkpt>
      <trkpt lat="43.7941" lon="3.82967">
        <ele>446.2</ele>
        <time>2024-02-23T11:27:58Z</time>
      </trkpt>
      <trkpt lat="43.7941" lon="3.8297">
        <ele>446.6</ele>
        <time>2024-02-23T11:27:59Z</time>
      </trkpt>
      <trkpt lat="43.79409" lon="3.82972">
        <ele>446.8</ele>
        <time>2024-02-23T11:28:00Z</time>
      </trkpt>
      <trkpt lat="43.79409" lon="3.82972">
        <ele>447</ele>
        <time>2024-02-23T11:28:01Z</time>
      </trkpt>
      <trkpt lat="43.79409" lon="3.82977">
        <ele>447.4</ele>
        <time>2024-02-23T11:28:02Z</time>
      </trkpt>
      <trkpt lat="43.79409" lon="3.82977">
        <ele>447.6</ele>
        <time>2024-02-23T11:28:03Z</time>
      </trkpt>
      <trkpt lat="43.79409" lon="3.82982">
        <ele>448</ele>
        <time>2024-02-23T11:28:04Z</time>
      </trkpt>
      <trkpt lat="43.79409" lon="3.82985">
        <ele>448.4</ele>
        <time>2024-02-23T11:28:05Z</time>
      </trkpt>
      <trkpt lat="43.79409" lon="3.82987">
        <ele>448.6</ele>
        <time>2024-02-23T11:28:06Z</time>
      </trkpt>
      <trkpt lat="43.79409" lon="3.82987">
        <ele>448.8</ele>
        <time>2024-02-23T11:28:07Z</time>
      </trkpt>
      <trkpt lat="43.7941" lon="3.82992">
        <ele>449</ele>
        <time>2024-02-23T11:28:08Z</time>
      </trkpt>
      <trkpt lat="43.7941" lon="3.82992">
        <ele>449</ele>
        <time>2024-02-23T11:28:09Z</time>
      </trkpt>
      <trkpt lat="43.79412" lon="3.82996">
        <ele>449.2</ele>
        <time>2024-02-23T11:28:10Z</time>
      </trkpt>
      <trkpt lat="43.79412" lon="3.82996">
        <ele>449.4</ele>
        <time>2024-02-23T11:28:11Z</time>
      </trkpt>
      <trkpt lat="43.79412" lon="3.83">
        <ele>449.6</ele>
        <time>2024-02-23T11:28:12Z</time>
      </trkpt>
      <trkpt lat="43.79412" lon="3.83">
        <ele>449.8</ele>
        <time>2024-02-23T11:28:13Z</time>
      </trkpt>
      <trkpt lat="43.79413" lon="3.83004">
        <ele>450</ele>
        <time>2024-02-23T11:28:14Z</time>
      </trkpt>
      <trkpt lat="43.79413" lon="3.83004">
        <ele>450.2</ele>
        <time>2024-02-23T11:28:15Z</time>
      </trkpt>
      <trkpt lat="43.79412" lon="3.83009">
        <ele>450.4</ele>
        <time>2024-02-23T11:28:16Z</time>
      </trkpt>
      <trkpt lat="43.79411" lon="3.83011">
        <ele>450.6</ele>
        <time>2024-02-23T11:28:17Z</time>
      </trkpt>
      <trkpt lat="43.79411" lon="3.83014">
        <ele>450.6</ele>
        <time>2024-02-23T11:28:18Z</time>
      </trkpt>
      <trkpt lat="43.79412" lon="3.83016">
        <ele>450.8</ele>
        <time>2024-02-23T11:28:19Z</time>
      </trkpt>
      <trkpt lat="43.79412" lon="3.83019">
        <ele>451</ele>
        <time>2024-02-23T11:28:20Z</time>
      </trkpt>
      <trkpt lat="43.79412" lon="3.83021">
        <ele>451.2</ele>
        <time>2024-02-23T11:28:21Z</time>
      </trkpt>
      <trkpt lat="43.79412" lon="3.83021">
        <ele>451.4</ele>
        <time>2024-02-23T11:28:22Z</time>
      </trkpt>
      <trkpt lat="43.79413" lon="3.83025">
        <ele>451.4</ele>
        <time>2024-02-23T11:28:23Z</time>
      </trkpt>
      <trkpt lat="43.79415" lon="3.83026">
        <ele>451.4</ele>
        <time>2024-02-23T11:28:24Z</time>
      </trkpt>
      <trkpt lat="43.79415" lon="3.83026">
        <ele>451.4</ele>
        <time>2024-02-23T11:28:25Z</time>
      </trkpt>
      <trkpt lat="43.79418" lon="3.83027">
        <ele>451.4</ele>
        <time>2024-02-23T11:28:26Z</time>
      </trkpt>
      <trkpt lat="43.79418" lon="3.83027">
        <ele>451.2</ele>
        <time>2024-02-23T11:28:27Z</time>
      </trkpt>
      <trkpt lat="43.79421" lon="3.83027">
        <ele>450.8</ele>
        <time>2024-02-23T11:28:28Z</time>
      </trkpt>
      <trkpt lat="43.79421" lon="3.83027">
        <ele>450.6</ele>
        <time>2024-02-23T11:28:29Z</time>
      </trkpt>
      <trkpt lat="43.79424" lon="3.83028">
        <ele>450.2</ele>
        <time>2024-02-23T11:28:30Z</time>
      </trkpt>
      <trkpt lat="43.79424" lon="3.83028">
        <ele>449.8</ele>
        <time>2024-02-23T11:28:31Z</time>
      </trkpt>
      <trkpt lat="43.79427" lon="3.8303">
        <ele>449.6</ele>
        <time>2024-02-23T11:28:32Z</time>
      </trkpt>
      <trkpt lat="43.79429" lon="3.83032">
        <ele>449.2</ele>
        <time>2024-02-23T11:28:33Z</time>
      </trkpt>
      <trkpt lat="43.7943" lon="3.83033">
        <ele>448.8</ele>
        <time>2024-02-23T11:28:34Z</time>
      </trkpt>
      <trkpt lat="43.7943" lon="3.83033">
        <ele>448.4</ele>
        <time>2024-02-23T11:28:35Z</time>
      </trkpt>
      <trkpt lat="43.79431" lon="3.83037">
        <ele>448</ele>
        <time>2024-02-23T11:28:36Z</time>
      </trkpt>
      <trkpt lat="43.79431" lon="3.83037">
        <ele>447.8</ele>
        <time>2024-02-23T11:28:37Z</time>
      </trkpt>
      <trkpt lat="43.79429" lon="3.83041">
        <ele>447.6</ele>
        <time>2024-02-23T11:28:38Z</time>
      </trkpt>
      <trkpt lat="43.79429" lon="3.83041">
        <ele>447.6</ele>
        <time>2024-02-23T11:28:39Z</time>
      </trkpt>
      <trkpt lat="43.7943" lon="3.83046">
        <ele>447.6</ele>
        <time>2024-02-23T11:28:40Z</time>
      </trkpt>
      <trkpt lat="43.7943" lon="3.83046">
        <ele>447.6</ele>
        <time>2024-02-23T11:28:41Z</time>
      </trkpt>
      <trkpt lat="43.7943" lon="3.83049">
        <ele>447.8</ele>
        <time>2024-02-23T11:28:42Z</time>
      </trkpt>
      <trkpt lat="43.7943" lon="3.83049">
        <ele>447.8</ele>
        <time>2024-02-23T11:28:43Z</time>
      </trkpt>
      <trkpt lat="43.79431" lon="3.83053">
        <ele>448</ele>
        <time>2024-02-23T11:28:44Z</time>
      </trkpt>
      <trkpt lat="43.79431" lon="3.83053">
        <ele>448.2</ele>
        <time>2024-02-23T11:28:45Z</time>
      </trkpt>
      <trkpt lat="43.79432" lon="3.83056">
        <ele>448.2</ele>
        <time>2024-02-23T11:28:46Z</time>
      </trkpt>
      <trkpt lat="43.79432" lon="3.83056">
        <ele>448.4</ele>
        <time>2024-02-23T11:28:47Z</time>
      </trkpt>
      <trkpt lat="43.79432" lon="3.83056">
        <ele>448.4</ele>
        <time>2024-02-23T11:28:48Z</time>
      </trkpt>
      <trkpt lat="43.79431" lon="3.83058">
        <ele>448.6</ele>
        <time>2024-02-23T11:28:49Z</time>
      </trkpt>
      <trkpt lat="43.79431" lon="3.83058">
        <ele>449</ele>
        <time>2024-02-23T11:28:50Z</time>
      </trkpt>
      <trkpt lat="43.79431" lon="3.83062">
        <ele>449.2</ele>
        <time>2024-02-23T11:28:51Z</time>
      </trkpt>
      <trkpt lat="43.79431" lon="3.83062">
        <ele>449.6</ele>
        <time>2024-02-23T11:28:52Z</time>
      </trkpt>
      <trkpt lat="43.7943" lon="3.83064">
        <ele>449.8</ele>
        <time>2024-02-23T11:28:53Z</time>
      </trkpt>
      <trkpt lat="43.7943" lon="3.83064">
        <ele>450.2</ele>
        <time>2024-02-23T11:28:54Z</time>
      </trkpt>
      <trkpt lat="43.7943" lon="3.83064">
        <ele>450.4</ele>
        <time>2024-02-23T11:28:55Z</time>
      </trkpt>
      <trkpt lat="43.79427" lon="3.83065">
        <ele>450.8</ele>
        <time>2024-02-23T11:28:56Z</time>
      </trkpt>
      <trkpt lat="43.79427" lon="3.83065">
        <ele>451</ele>
        <time>2024-02-23T11:28:57Z</time>
      </trkpt>
      <trkpt lat="43.79424" lon="3.83065">
        <ele>451.2</ele>
        <time>2024-02-23T11:28:58Z</time>
      </trkpt>
      <trkpt lat="43.79424" lon="3.83065">
        <ele>451.4</ele>
        <time>2024-02-23T11:28:59Z</time>
      </trkpt>
      <trkpt lat="43.79422" lon="3.83067">
        <ele>451.6</ele>
        <time>2024-02-23T11:29:00Z</time>
      </trkpt>
      <trkpt lat="43.79422" lon="3.83067">
        <ele>451.6</ele>
        <time>2024-02-23T11:29:01Z</time>
      </trkpt>
      <trkpt lat="43.79421" lon="3.83069">
        <ele>452</ele>
        <time>2024-02-23T11:29:02Z</time>
      </trkpt>
      <trkpt lat="43.79421" lon="3.83069">
        <ele>452.6</ele>
        <time>2024-02-23T11:29:03Z</time>
      </trkpt>
      <trkpt lat="43.79419" lon="3.83073">
        <ele>453.2</ele>
        <time>2024-02-23T11:29:04Z</time>
      </trkpt>
      <trkpt lat="43.79419" lon="3.83073">
        <ele>453.6</ele>
        <time>2024-02-23T11:29:05Z</time>
      </trkpt>
      <trkpt lat="43.79419" lon="3.83077">
        <ele>453.8</ele>
        <time>2024-02-23T11:29:06Z</time>
      </trkpt>
      <trkpt lat="43.7942" lon="3.83079">
        <ele>454</ele>
        <time>2024-02-23T11:29:07Z</time>
      </trkpt>
      <trkpt lat="43.79421" lon="3.83082">
        <ele>454.2</ele>
        <time>2024-02-23T11:29:08Z</time>
      </trkpt>
      <trkpt lat="43.79422" lon="3.83084">
        <ele>454.4</ele>
        <time>2024-02-23T11:29:09Z</time>
      </trkpt>
      <trkpt lat="43.79422" lon="3.83084">
        <ele>454.4</ele>
        <time>2024-02-23T11:29:10Z</time>
      </trkpt>
      <trkpt lat="43.79423" lon="3.83088">
        <ele>454.4</ele>
        <time>2024-02-23T11:29:11Z</time>
      </trkpt>
      <trkpt lat="43.79423" lon="3.83088">
        <ele>454.2</ele>
        <time>2024-02-23T11:29:12Z</time>
      </trkpt>
      <trkpt lat="43.79423" lon="3.83088">
        <ele>454</ele>
        <time>2024-02-23T11:29:13Z</time>
      </trkpt>
      <trkpt lat="43.79425" lon="3.8309">
        <ele>454</ele>
        <time>2024-02-23T11:29:14Z</time>
      </trkpt>
      <trkpt lat="43.79425" lon="3.8309">
        <ele>454</ele>
        <time>2024-02-23T11:29:15Z</time>
      </trkpt>
      <trkpt lat="43.79427" lon="3.83094">
        <ele>454.2</ele>
        <time>2024-02-23T11:29:16Z</time>
      </trkpt>
      <trkpt lat="43.79427" lon="3.83094">
        <ele>454</ele>
        <time>2024-02-23T11:29:17Z</time>
      </trkpt>
      <trkpt lat="43.79429" lon="3.83097">
        <ele>454</ele>
        <time>2024-02-23T11:29:18Z</time>
      </trkpt>
      <trkpt lat="43.7943" lon="3.83099">
        <ele>453.8</ele>
        <time>2024-02-23T11:29:19Z</time>
      </trkpt>
      <trkpt lat="43.7943" lon="3.83099">
        <ele>453.8</ele>
        <time>2024-02-23T11:29:20Z</time>
      </trkpt>
      <trkpt lat="43.79431" lon="3.83103">
        <ele>454</ele>
        <time>2024-02-23T11:29:21Z</time>
      </trkpt>
      <trkpt lat="43.79431" lon="3.83103">
        <ele>454.2</ele>
        <time>2024-02-23T11:29:22Z</time>
      </trkpt>
      <trkpt lat="43.7943" lon="3.83106">
        <ele>454.4</ele>
        <time>2024-02-23T11:29:23Z</time>
      </trkpt>
      <trkpt lat="43.7943" lon="3.83106">
        <ele>454.4</ele>
        <time>2024-02-23T11:29:24Z</time>
      </trkpt>
      <trkpt lat="43.79429" lon="3.8311">
        <ele>454.6</ele>
        <time>2024-02-23T11:29:25Z</time>
      </trkpt>
      <trkpt lat="43.79429" lon="3.8311">
        <ele>454.8</ele>
        <time>2024-02-23T11:29:26Z</time>
      </trkpt>
      <trkpt lat="43.79429" lon="3.83114">
        <ele>455</ele>
        <time>2024-02-23T11:29:27Z</time>
      </trkpt>
      <trkpt lat="43.79429" lon="3.83114">
        <ele>455.4</ele>
        <time>2024-02-23T11:29:28Z</time>
      </trkpt>
      <trkpt lat="43.79429" lon="3.83118">
        <ele>455.8</ele>
        <time>2024-02-23T11:29:29Z</time>
      </trkpt>
      <trkpt lat="43.79429" lon="3.83118">
        <ele>456.2</ele>
        <time>2024-02-23T11:29:30Z</time>
      </trkpt>
      <trkpt lat="43.79429" lon="3.83123">
        <ele>456.4</ele>
        <time>2024-02-23T11:29:31Z</time>
      </trkpt>
      <trkpt lat="43.79429" lon="3.83123">
        <ele>456.6</ele>
        <time>2024-02-23T11:29:32Z</time>
      </trkpt>
      <trkpt lat="43.79429" lon="3.83126">
        <ele>456.8</ele>
        <time>2024-02-23T11:29:33Z</time>
      </trkpt>
      <trkpt lat="43.79429" lon="3.83126">
        <ele>456.8</ele>
        <time>2024-02-23T11:29:34Z</time>
      </trkpt>
      <trkpt lat="43.79428" lon="3.83128">
        <ele>457.2</ele>
        <time>2024-02-23T11:29:35Z</time>
      </trkpt>
      <trkpt lat="43.79428" lon="3.83128">
        <ele>457.4</ele>
        <time>2024-02-23T11:29:36Z</time>
      </trkpt>
      <trkpt lat="43.79428" lon="3.83128">
        <ele>457.8</ele>
        <time>2024-02-23T11:29:37Z</time>
      </trkpt>
      <trkpt lat="43.79428" lon="3.83128">
        <ele>458.2</ele>
        <time>2024-02-23T11:29:38Z</time>
      </trkpt>
      <trkpt lat="43.79427" lon="3.83131">
        <ele>458.6</ele>
        <time>2024-02-23T11:29:39Z</time>
      </trkpt>
      <trkpt lat="43.79427" lon="3.83131">
        <ele>459</ele>
        <time>2024-02-23T11:29:40Z</time>
      </trkpt>
      <trkpt lat="43.79427" lon="3.83131">
        <ele>459.4</ele>
        <time>2024-02-23T11:29:41Z</time>
      </trkpt>
      <trkpt lat="43.79427" lon="3.83131">
        <ele>459.6</ele>
        <time>2024-02-23T11:29:42Z</time>
      </trkpt>
      <trkpt lat="43.79426" lon="3.83133">
        <ele>460</ele>
        <time>2024-02-23T11:29:43Z</time>
      </trkpt>
      <trkpt lat="43.79426" lon="3.83133">
        <ele>460.4</ele>
        <time>2024-02-23T11:29:44Z</time>
      </trkpt>
      <trkpt lat="43.79426" lon="3.83133">
        <ele>460.6</ele>
        <time>2024-02-23T11:29:45Z</time>
      </trkpt>
      <trkpt lat="43.79425" lon="3.83135">
        <ele>461</ele>
        <time>2024-02-23T11:29:46Z</time>
      </trkpt>
      <trkpt lat="43.79425" lon="3.83135">
        <ele>461.4</ele>
        <time>2024-02-23T11:29:47Z</time>
      </trkpt>
      <trkpt lat="43.79425" lon="3.83135">
        <ele>461.8</ele>
        <time>2024-02-23T11:29:48Z</time>
      </trkpt>
      <trkpt lat="43.79425" lon="3.83139">
        <ele>462</ele>
        <time>2024-02-23T11:29:49Z</time>
      </trkpt>
      <trkpt lat="43.79425" lon="3.83139">
        <ele>462.2</ele>
        <time>2024-02-23T11:29:50Z</time>
      </trkpt>
      <trkpt lat="43.79425" lon="3.83141">
        <ele>462.6</ele>
        <time>2024-02-23T11:29:51Z</time>
      </trkpt>
      <trkpt lat="43.79425" lon="3.83141">
        <ele>462.8</ele>
        <time>2024-02-23T11:29:52Z</time>
      </trkpt>
      <trkpt lat="43.79425" lon="3.83141">
        <ele>463</ele>
        <time>2024-02-23T11:29:53Z</time>
      </trkpt>
      <trkpt lat="43.79425" lon="3.83144">
        <ele>463.2</ele>
        <time>2024-02-23T11:29:54Z</time>
      </trkpt>
      <trkpt lat="43.79425" lon="3.83144">
        <ele>463.6</ele>
        <time>2024-02-23T11:29:55Z</time>
      </trkpt>
      <trkpt lat="43.79425" lon="3.83144">
        <ele>463.8</ele>
        <time>2024-02-23T11:29:56Z</time>
      </trkpt>
      <trkpt lat="43.79422" lon="3.83146">
        <ele>464.2</ele>
        <time>2024-02-23T11:29:57Z</time>
      </trkpt>
      <trkpt lat="43.79422" lon="3.83146">
        <ele>464.6</ele>
        <time>2024-02-23T11:29:58Z</time>
      </trkpt>
      <trkpt lat="43.79422" lon="3.83146">
        <ele>465</ele>
        <time>2024-02-23T11:29:59Z</time>
      </trkpt>
      <trkpt lat="43.79422" lon="3.8315">
        <ele>465</ele>
        <time>2024-02-23T11:30:00Z</time>
      </trkpt>
      <trkpt lat="43.79422" lon="3.8315">
        <ele>465.6</ele>
        <time>2024-02-23T11:30:01Z</time>
      </trkpt>
      <trkpt lat="43.7942" lon="3.83153">
        <ele>466</ele>
        <time>2024-02-23T11:30:02Z</time>
      </trkpt>
      <trkpt lat="43.7942" lon="3.83153">
        <ele>466.2</ele>
        <time>2024-02-23T11:30:03Z</time>
      </trkpt>
      <trkpt lat="43.7942" lon="3.83153">
        <ele>466.6</ele>
        <time>2024-02-23T11:30:04Z</time>
      </trkpt>
      <trkpt lat="43.79419" lon="3.83156">
        <ele>466.8</ele>
        <time>2024-02-23T11:30:05Z</time>
      </trkpt>
      <trkpt lat="43.79419" lon="3.83156">
        <ele>467.2</ele>
        <time>2024-02-23T11:30:06Z</time>
      </trkpt>
      <trkpt lat="43.79419" lon="3.83159">
        <ele>467.6</ele>
        <time>2024-02-23T11:30:07Z</time>
      </trkpt>
      <trkpt lat="43.79419" lon="3.83159">
        <ele>468</ele>
        <time>2024-02-23T11:30:08Z</time>
      </trkpt>
      <trkpt lat="43.7942" lon="3.83163">
        <ele>468.2</ele>
        <time>2024-02-23T11:30:09Z</time>
      </trkpt>
      <trkpt lat="43.7942" lon="3.83163">
        <ele>468.4</ele>
        <time>2024-02-23T11:30:10Z</time>
      </trkpt>
      <trkpt lat="43.7942" lon="3.83166">
        <ele>468.6</ele>
        <time>2024-02-23T11:30:11Z</time>
      </trkpt>
      <trkpt lat="43.7942" lon="3.83166">
        <ele>468.8</ele>
        <time>2024-02-23T11:30:12Z</time>
      </trkpt>
      <trkpt lat="43.7942" lon="3.83169">
        <ele>469</ele>
        <time>2024-02-23T11:30:13Z</time>
      </trkpt>
      <trkpt lat="43.7942" lon="3.83169">
        <ele>469.2</ele>
        <time>2024-02-23T11:30:14Z</time>
      </trkpt>
      <trkpt lat="43.7942" lon="3.83173">
        <ele>469.6</ele>
        <time>2024-02-23T11:30:15Z</time>
      </trkpt>
      <trkpt lat="43.7942" lon="3.83173">
        <ele>469.8</ele>
        <time>2024-02-23T11:30:16Z</time>
      </trkpt>
      <trkpt lat="43.79419" lon="3.83177">
        <ele>470</ele>
        <time>2024-02-23T11:30:17Z</time>
      </trkpt>
      <trkpt lat="43.79419" lon="3.83177">
        <ele>470.4</ele>
        <time>2024-02-23T11:30:18Z</time>
      </trkpt>
      <trkpt lat="43.79418" lon="3.8318">
        <ele>470.6</ele>
        <time>2024-02-23T11:30:19Z</time>
      </trkpt>
      <trkpt lat="43.79418" lon="3.8318">
        <ele>471</ele>
        <time>2024-02-23T11:30:20Z</time>
      </trkpt>
      <trkpt lat="43.79417" lon="3.83183">
        <ele>471.2</ele>
        <time>2024-02-23T11:30:21Z</time>
      </trkpt>
      <trkpt lat="43.79417" lon="3.83183">
        <ele>471.6</ele>
        <time>2024-02-23T11:30:22Z</time>
      </trkpt>
      <trkpt lat="43.79417" lon="3.83186">
        <ele>472</ele>
        <time>2024-02-23T11:30:23Z</time>
      </trkpt>
      <trkpt lat="43.79417" lon="3.83186">
        <ele>472.2</ele>
        <time>2024-02-23T11:30:24Z</time>
      </trkpt>
      <trkpt lat="43.79417" lon="3.83189">
        <ele>472.4</ele>
        <time>2024-02-23T11:30:25Z</time>
      </trkpt>
      <trkpt lat="43.79417" lon="3.83189">
        <ele>472.6</ele>
        <time>2024-02-23T11:30:26Z</time>
      </trkpt>
      <trkpt lat="43.79417" lon="3.83189">
        <ele>473</ele>
        <time>2024-02-23T11:30:27Z</time>
      </trkpt>
      <trkpt lat="43.79418" lon="3.83193">
        <ele>473.2</ele>
        <time>2024-02-23T11:30:28Z</time>
      </trkpt>
      <trkpt lat="43.79418" lon="3.83193">
        <ele>473.6</ele>
        <time>2024-02-23T11:30:29Z</time>
      </trkpt>
      <trkpt lat="43.79417" lon="3.83197">
        <ele>473.8</ele>
        <time>2024-02-23T11:30:30Z</time>
      </trkpt>
      <trkpt lat="43.79417" lon="3.83197">
        <ele>474</ele>
        <time>2024-02-23T11:30:31Z</time>
      </trkpt>
      <trkpt lat="43.79415" lon="3.83199">
        <ele>474.2</ele>
        <time>2024-02-23T11:30:32Z</time>
      </trkpt>
      <trkpt lat="43.79415" lon="3.83199">
        <ele>474.6</ele>
        <time>2024-02-23T11:30:33Z</time>
      </trkpt>
      <trkpt lat="43.79415" lon="3.83202">
        <ele>474.8</ele>
        <time>2024-02-23T11:30:34Z</time>
      </trkpt>
      <trkpt lat="43.79415" lon="3.83202">
        <ele>475.2</ele>
        <time>2024-02-23T11:30:35Z</time>
      </trkpt>
      <trkpt lat="43.79414" lon="3.83205">
        <ele>475.2</ele>
        <time>2024-02-23T11:30:36Z</time>
      </trkpt>
      <trkpt lat="43.79414" lon="3.83205">
        <ele>475.4</ele>
        <time>2024-02-23T11:30:37Z</time>
      </trkpt>
      <trkpt lat="43.79413" lon="3.83208">
        <ele>475.6</ele>
        <time>2024-02-23T11:30:38Z</time>
      </trkpt>
      <trkpt lat="43.79413" lon="3.83208">
        <ele>475.8</ele>
        <time>2024-02-23T11:30:39Z</time>
      </trkpt>
      <trkpt lat="43.79414" lon="3.83212">
        <ele>476</ele>
        <time>2024-02-23T11:30:40Z</time>
      </trkpt>
      <trkpt lat="43.79414" lon="3.83212">
        <ele>476</ele>
        <time>2024-02-23T11:30:41Z</time>
      </trkpt>
      <trkpt lat="43.79414" lon="3.83216">
        <ele>476</ele>
        <time>2024-02-23T11:30:42Z</time>
      </trkpt>
      <trkpt lat="43.79414" lon="3.83216">
        <ele>476.2</ele>
        <time>2024-02-23T11:30:43Z</time>
      </trkpt>
      <trkpt lat="43.79413" lon="3.83218">
        <ele>476.6</ele>
        <time>2024-02-23T11:30:44Z</time>
      </trkpt>
      <trkpt lat="43.79413" lon="3.83218">
        <ele>477</ele>
        <time>2024-02-23T11:30:45Z</time>
      </trkpt>
      <trkpt lat="43.79413" lon="3.83223">
        <ele>477.2</ele>
        <time>2024-02-23T11:30:46Z</time>
      </trkpt>
      <trkpt lat="43.79413" lon="3.83223">
        <ele>477.4</ele>
        <time>2024-02-23T11:30:47Z</time>
      </trkpt>
      <trkpt lat="43.79412" lon="3.83227">
        <ele>477.8</ele>
        <time>2024-02-23T11:30:48Z</time>
      </trkpt>
      <trkpt lat="43.79412" lon="3.8323">
        <ele>478</ele>
        <time>2024-02-23T11:30:49Z</time>
      </trkpt>
      <trkpt lat="43.79412" lon="3.8323">
        <ele>478.2</ele>
        <time>2024-02-23T11:30:50Z</time>
      </trkpt>
      <trkpt lat="43.79413" lon="3.83234">
        <ele>478.4</ele>
        <time>2024-02-23T11:30:51Z</time>
      </trkpt>
      <trkpt lat="43.79413" lon="3.83234">
        <ele>478.6</ele>
        <time>2024-02-23T11:30:52Z</time>
      </trkpt>
      <trkpt lat="43.79414" lon="3.83238">
        <ele>479</ele>
        <time>2024-02-23T11:30:53Z</time>
      </trkpt>
      <trkpt lat="43.79414" lon="3.83238">
        <ele>479.2</ele>
        <time>2024-02-23T11:30:54Z</time>
      </trkpt>
      <trkpt lat="43.79414" lon="3.83241">
        <ele>479.4</ele>
        <time>2024-02-23T11:30:55Z</time>
      </trkpt>
      <trkpt lat="43.79414" lon="3.83244">
        <ele>479.2</ele>
        <time>2024-02-23T11:30:56Z</time>
      </trkpt>
      <trkpt lat="43.79414" lon="3.83244">
        <ele>479.2</ele>
        <time>2024-02-23T11:30:57Z</time>
      </trkpt>
      <trkpt lat="43.79415" lon="3.83247">
        <ele>479</ele>
        <time>2024-02-23T11:30:58Z</time>
      </trkpt>
      <trkpt lat="43.79415" lon="3.83247">
        <ele>479</ele>
        <time>2024-02-23T11:30:59Z</time>
      </trkpt>
      <trkpt lat="43.79417" lon="3.83248">
        <ele>479.2</ele>
        <time>2024-02-23T11:31:00Z</time>
      </trkpt>
      <trkpt lat="43.79417" lon="3.83248">
        <ele>479.4</ele>
        <time>2024-02-23T11:31:01Z</time>
      </trkpt>
      <trkpt lat="43.79419" lon="3.83249">
        <ele>479.4</ele>
        <time>2024-02-23T11:31:02Z</time>
      </trkpt>
      <trkpt lat="43.79421" lon="3.83251">
        <ele>479.4</ele>
        <time>2024-02-23T11:31:03Z</time>
      </trkpt>
      <trkpt lat="43.79422" lon="3.83253">
        <ele>479.4</ele>
        <time>2024-02-23T11:31:04Z</time>
      </trkpt>
      <trkpt lat="43.79424" lon="3.83254">
        <ele>479.4</ele>
        <time>2024-02-23T11:31:05Z</time>
      </trkpt>
      <trkpt lat="43.79425" lon="3.83257">
        <ele>479.4</ele>
        <time>2024-02-23T11:31:06Z</time>
      </trkpt>
      <trkpt lat="43.79427" lon="3.83259">
        <ele>479.2</ele>
        <time>2024-02-23T11:31:07Z</time>
      </trkpt>
      <trkpt lat="43.79429" lon="3.8326">
        <ele>479.2</ele>
        <time>2024-02-23T11:31:08Z</time>
      </trkpt>
      <trkpt lat="43.79431" lon="3.83261">
        <ele>479.2</ele>
        <time>2024-02-23T11:31:09Z</time>
      </trkpt>
      <trkpt lat="43.79433" lon="3.83262">
        <ele>479.4</ele>
        <time>2024-02-23T11:31:10Z</time>
      </trkpt>
      <trkpt lat="43.79435" lon="3.83262">
        <ele>479.2</ele>
        <time>2024-02-23T11:31:11Z</time>
      </trkpt>
      <trkpt lat="43.79438" lon="3.83263">
        <ele>479</ele>
        <time>2024-02-23T11:31:12Z</time>
      </trkpt>
      <trkpt lat="43.79439" lon="3.83265">
        <ele>478.6</ele>
        <time>2024-02-23T11:31:13Z</time>
      </trkpt>
      <trkpt lat="43.7944" lon="3.83267">
        <ele>478.4</ele>
        <time>2024-02-23T11:31:14Z</time>
      </trkpt>
      <trkpt lat="43.79442" lon="3.83269">
        <ele>478</ele>
        <time>2024-02-23T11:31:15Z</time>
      </trkpt>
      <trkpt lat="43.79443" lon="3.83272">
        <ele>477.8</ele>
        <time>2024-02-23T11:31:16Z</time>
      </trkpt>
      <trkpt lat="43.79445" lon="3.83275">
        <ele>477.6</ele>
        <time>2024-02-23T11:31:17Z</time>
      </trkpt>
      <trkpt lat="43.79445" lon="3.83277">
        <ele>477.4</ele>
        <time>2024-02-23T11:31:18Z</time>
      </trkpt>
      <trkpt lat="43.79445" lon="3.8328">
        <ele>477.2</ele>
        <time>2024-02-23T11:31:19Z</time>
      </trkpt>
      <trkpt lat="43.79445" lon="3.8328">
        <ele>477</ele>
        <time>2024-02-23T11:31:20Z</time>
      </trkpt>
      <trkpt lat="43.79445" lon="3.83284">
        <ele>477</ele>
        <time>2024-02-23T11:31:21Z</time>
      </trkpt>
      <trkpt lat="43.79445" lon="3.83284">
        <ele>477.2</ele>
        <time>2024-02-23T11:31:22Z</time>
      </trkpt>
      <trkpt lat="43.79446" lon="3.83288">
        <ele>477.2</ele>
        <time>2024-02-23T11:31:23Z</time>
      </trkpt>
      <trkpt lat="43.79446" lon="3.83288">
        <ele>477.2</ele>
        <time>2024-02-23T11:31:24Z</time>
      </trkpt>
      <trkpt lat="43.79445" lon="3.83292">
        <ele>477.4</ele>
        <time>2024-02-23T11:31:25Z</time>
      </trkpt>
      <trkpt lat="43.79445" lon="3.83292">
        <ele>477.6</ele>
        <time>2024-02-23T11:31:26Z</time>
      </trkpt>
      <trkpt lat="43.79445" lon="3.83292">
        <ele>477.8</ele>
        <time>2024-02-23T11:31:27Z</time>
      </trkpt>
      <trkpt lat="43.79443" lon="3.83294">
        <ele>478</ele>
        <time>2024-02-23T11:31:28Z</time>
      </trkpt>
      <trkpt lat="43.79443" lon="3.83294">
        <ele>478.2</ele>
        <time>2024-02-23T11:31:29Z</time>
      </trkpt>
      <trkpt lat="43.79441" lon="3.83294">
        <ele>478.6</ele>
        <time>2024-02-23T11:31:30Z</time>
      </trkpt>
      <trkpt lat="43.79441" lon="3.83294">
        <ele>478.8</ele>
        <time>2024-02-23T11:31:31Z</time>
      </trkpt>
      <trkpt lat="43.79439" lon="3.83295">
        <ele>479</ele>
        <time>2024-02-23T11:31:32Z</time>
      </trkpt>
      <trkpt lat="43.79439" lon="3.83295">
        <ele>479.2</ele>
        <time>2024-02-23T11:31:33Z</time>
      </trkpt>
      <trkpt lat="43.79439" lon="3.83295">
        <ele>479.6</ele>
        <time>2024-02-23T11:31:34Z</time>
      </trkpt>
      <trkpt lat="43.79439" lon="3.83295">
        <ele>479.8</ele>
        <time>2024-02-23T11:31:35Z</time>
      </trkpt>
      <trkpt lat="43.79437" lon="3.83297">
        <ele>480.2</ele>
        <time>2024-02-23T11:31:36Z</time>
      </trkpt>
      <trkpt lat="43.79437" lon="3.83297">
        <ele>480.6</ele>
        <time>2024-02-23T11:31:37Z</time>
      </trkpt>
      <trkpt lat="43.79435" lon="3.83299">
        <ele>481</ele>
        <time>2024-02-23T11:31:38Z</time>
      </trkpt>
      <trkpt lat="43.79435" lon="3.83299">
        <ele>481.2</ele>
        <time>2024-02-23T11:31:39Z</time>
      </trkpt>
      <trkpt lat="43.79433" lon="3.83302">
        <ele>481.4</ele>
        <time>2024-02-23T11:31:40Z</time>
      </trkpt>
      <trkpt lat="43.79433" lon="3.83302">
        <ele>481.8</ele>
        <time>2024-02-23T11:31:41Z</time>
      </trkpt>
      <trkpt lat="43.79433" lon="3.83302">
        <ele>482</ele>
        <time>2024-02-23T11:31:42Z</time>
      </trkpt>
      <trkpt lat="43.79433" lon="3.83305">
        <ele>482.2</ele>
        <time>2024-02-23T11:31:43Z</time>
      </trkpt>
      <trkpt lat="43.79433" lon="3.83305">
        <ele>482.4</ele>
        <time>2024-02-23T11:31:44Z</time>
      </trkpt>
      <trkpt lat="43.79434" lon="3.83308">
        <ele>482.8</ele>
        <time>2024-02-23T11:31:45Z</time>
      </trkpt>
      <trkpt lat="43.79434" lon="3.83308">
        <ele>483.2</ele>
        <time>2024-02-23T11:31:46Z</time>
      </trkpt>
      <trkpt lat="43.79434" lon="3.83311">
        <ele>483.6</ele>
        <time>2024-02-23T11:31:47Z</time>
      </trkpt>
      <trkpt lat="43.79434" lon="3.83311">
        <ele>483.8</ele>
        <time>2024-02-23T11:31:48Z</time>
      </trkpt>
      <trkpt lat="43.79432" lon="3.83312">
        <ele>484</ele>
        <time>2024-02-23T11:31:49Z</time>
      </trkpt>
      <trkpt lat="43.79432" lon="3.83312">
        <ele>484.2</ele>
        <time>2024-02-23T11:31:50Z</time>
      </trkpt>
      <trkpt lat="43.7943" lon="3.83314">
        <ele>484.6</ele>
        <time>2024-02-23T11:31:51Z</time>
      </trkpt>
      <trkpt lat="43.7943" lon="3.83314">
        <ele>485</ele>
        <time>2024-02-23T11:31:52Z</time>
      </trkpt>
      <trkpt lat="43.7943" lon="3.83318">
        <ele>485.2</ele>
        <time>2024-02-23T11:31:53Z</time>
      </trkpt>
      <trkpt lat="43.7943" lon="3.83318">
        <ele>485.2</ele>
        <time>2024-02-23T11:31:54Z</time>
      </trkpt>
      <trkpt lat="43.79432" lon="3.83322">
        <ele>485.4</ele>
        <time>2024-02-23T11:31:55Z</time>
      </trkpt>
      <trkpt lat="43.79432" lon="3.83322">
        <ele>485.6</ele>
        <time>2024-02-23T11:31:56Z</time>
      </trkpt>
      <trkpt lat="43.79432" lon="3.83326">
        <ele>485.6</ele>
        <time>2024-02-23T11:31:57Z</time>
      </trkpt>
      <trkpt lat="43.79432" lon="3.83326">
        <ele>485.8</ele>
        <time>2024-02-23T11:31:58Z</time>
      </trkpt>
      <trkpt lat="43.79432" lon="3.8333">
        <ele>486</ele>
        <time>2024-02-23T11:31:59Z</time>
      </trkpt>
      <trkpt lat="43.79432" lon="3.8333">
        <ele>486.2</ele>
        <time>2024-02-23T11:32:00Z</time>
      </trkpt>
      <trkpt lat="43.79433" lon="3.83334">
        <ele>486.4</ele>
        <time>2024-02-23T11:32:01Z</time>
      </trkpt>
      <trkpt lat="43.79433" lon="3.83334">
        <ele>486.4</ele>
        <time>2024-02-23T11:32:02Z</time>
      </trkpt>
      <trkpt lat="43.79433" lon="3.83338">
        <ele>486.8</ele>
        <time>2024-02-23T11:32:03Z</time>
      </trkpt>
      <trkpt lat="43.79434" lon="3.83341">
        <ele>487</ele>
        <time>2024-02-23T11:32:04Z</time>
      </trkpt>
      <trkpt lat="43.79434" lon="3.83343">
        <ele>487.4</ele>
        <time>2024-02-23T11:32:05Z</time>
      </trkpt>
      <trkpt lat="43.79434" lon="3.83346">
        <ele>487.6</ele>
        <time>2024-02-23T11:32:06Z</time>
      </trkpt>
      <trkpt lat="43.79434" lon="3.83348">
        <ele>488</ele>
        <time>2024-02-23T11:32:07Z</time>
      </trkpt>
      <trkpt lat="43.79434" lon="3.83348">
        <ele>488.4</ele>
        <time>2024-02-23T11:32:08Z</time>
      </trkpt>
      <trkpt lat="43.79434" lon="3.83352">
        <ele>488.6</ele>
        <time>2024-02-23T11:32:09Z</time>
      </trkpt>
      <trkpt lat="43.79434" lon="3.83352">
        <ele>489</ele>
        <time>2024-02-23T11:32:10Z</time>
      </trkpt>
      <trkpt lat="43.79432" lon="3.83357">
        <ele>489.4</ele>
        <time>2024-02-23T11:32:11Z</time>
      </trkpt>
      <trkpt lat="43.79432" lon="3.83357">
        <ele>489.8</ele>
        <time>2024-02-23T11:32:12Z</time>
      </trkpt>
      <trkpt lat="43.79431" lon="3.83359">
        <ele>490.2</ele>
        <time>2024-02-23T11:32:13Z</time>
      </trkpt>
      <trkpt lat="43.79431" lon="3.83359">
        <ele>490.4</ele>
        <time>2024-02-23T11:32:14Z</time>
      </trkpt>
      <trkpt lat="43.79429" lon="3.83362">
        <ele>490.6</ele>
        <time>2024-02-23T11:32:15Z</time>
      </trkpt>
      <trkpt lat="43.79429" lon="3.83362">
        <ele>491</ele>
        <time>2024-02-23T11:32:16Z</time>
      </trkpt>
      <trkpt lat="43.79427" lon="3.83364">
        <ele>491.4</ele>
        <time>2024-02-23T11:32:17Z</time>
      </trkpt>
      <trkpt lat="43.79427" lon="3.83364">
        <ele>491.8</ele>
        <time>2024-02-23T11:32:18Z</time>
      </trkpt>
      <trkpt lat="43.79424" lon="3.83367">
        <ele>492</ele>
        <time>2024-02-23T11:32:19Z</time>
      </trkpt>
      <trkpt lat="43.79424" lon="3.83367">
        <ele>492.2</ele>
        <time>2024-02-23T11:32:20Z</time>
      </trkpt>
      <trkpt lat="43.79424" lon="3.83367">
        <ele>492.4</ele>
        <time>2024-02-23T11:32:21Z</time>
      </trkpt>
      <trkpt lat="43.79422" lon="3.83369">
        <ele>492.8</ele>
        <time>2024-02-23T11:32:22Z</time>
      </trkpt>
      <trkpt lat="43.79422" lon="3.83372">
        <ele>493.2</ele>
        <time>2024-02-23T11:32:23Z</time>
      </trkpt>
      <trkpt lat="43.79422" lon="3.83372">
        <ele>493.8</ele>
        <time>2024-02-23T11:32:24Z</time>
      </trkpt>
      <trkpt lat="43.79419" lon="3.83373">
        <ele>494.2</ele>
        <time>2024-02-23T11:32:25Z</time>
      </trkpt>
      <trkpt lat="43.79419" lon="3.83373">
        <ele>494.8</ele>
        <time>2024-02-23T11:32:26Z</time>
      </trkpt>
      <trkpt lat="43.79417" lon="3.83373">
        <ele>495.2</ele>
        <time>2024-02-23T11:32:27Z</time>
      </trkpt>
      <trkpt lat="43.79417" lon="3.83373">
        <ele>495.8</ele>
        <time>2024-02-23T11:32:28Z</time>
      </trkpt>
      <trkpt lat="43.79415" lon="3.83375">
        <ele>496.2</ele>
        <time>2024-02-23T11:32:29Z</time>
      </trkpt>
      <trkpt lat="43.79415" lon="3.83375">
        <ele>496.8</ele>
        <time>2024-02-23T11:32:30Z</time>
      </trkpt>
      <trkpt lat="43.79414" lon="3.83377">
        <ele>497.2</ele>
        <time>2024-02-23T11:32:31Z</time>
      </trkpt>
      <trkpt lat="43.79414" lon="3.83377">
        <ele>497.8</ele>
        <time>2024-02-23T11:32:32Z</time>
      </trkpt>
      <trkpt lat="43.79413" lon="3.8338">
        <ele>498.6</ele>
        <time>2024-02-23T11:32:33Z</time>
      </trkpt>
      <trkpt lat="43.79412" lon="3.83383">
        <ele>499</ele>
        <time>2024-02-23T11:32:34Z</time>
      </trkpt>
      <trkpt lat="43.79411" lon="3.83386">
        <ele>499.4</ele>
        <time>2024-02-23T11:32:35Z</time>
      </trkpt>
      <trkpt lat="43.79411" lon="3.83388">
        <ele>500.2</ele>
        <time>2024-02-23T11:32:36Z</time>
      </trkpt>
      <trkpt lat="43.79411" lon="3.83388">
        <ele>500.6</ele>
        <time>2024-02-23T11:32:37Z</time>
      </trkpt>
      <trkpt lat="43.79411" lon="3.83393">
        <ele>500.8</ele>
        <time>2024-02-23T11:32:38Z</time>
      </trkpt>
      <trkpt lat="43.79411" lon="3.83395">
        <ele>500.8</ele>
        <time>2024-02-23T11:32:39Z</time>
      </trkpt>
      <trkpt lat="43.79413" lon="3.83397">
        <ele>501</ele>
        <time>2024-02-23T11:32:40Z</time>
      </trkpt>
      <trkpt lat="43.79413" lon="3.83397">
        <ele>501</ele>
        <time>2024-02-23T11:32:41Z</time>
      </trkpt>
      <trkpt lat="43.79415" lon="3.834">
        <ele>501.2</ele>
        <time>2024-02-23T11:32:42Z</time>
      </trkpt>
      <trkpt lat="43.79415" lon="3.83403">
        <ele>501.2</ele>
        <time>2024-02-23T11:32:43Z</time>
      </trkpt>
      <trkpt lat="43.79416" lon="3.83406">
        <ele>501</ele>
        <time>2024-02-23T11:32:44Z</time>
      </trkpt>
      <trkpt lat="43.79416" lon="3.83408">
        <ele>501.2</ele>
        <time>2024-02-23T11:32:45Z</time>
      </trkpt>
      <trkpt lat="43.79416" lon="3.83411">
        <ele>501.2</ele>
        <time>2024-02-23T11:32:46Z</time>
      </trkpt>
      <trkpt lat="43.79416" lon="3.83411">
        <ele>501.2</ele>
        <time>2024-02-23T11:32:47Z</time>
      </trkpt>
      <trkpt lat="43.79417" lon="3.83416">
        <ele>501.4</ele>
        <time>2024-02-23T11:32:48Z</time>
      </trkpt>
      <trkpt lat="43.79418" lon="3.83419">
        <ele>501.6</ele>
        <time>2024-02-23T11:32:49Z</time>
      </trkpt>
      <trkpt lat="43.79419" lon="3.83422">
        <ele>501.6</ele>
        <time>2024-02-23T11:32:50Z</time>
      </trkpt>
      <trkpt lat="43.7942" lon="3.83425">
        <ele>501.6</ele>
        <time>2024-02-23T11:32:51Z</time>
      </trkpt>
      <trkpt lat="43.79421" lon="3.83428">
        <ele>501.4</ele>
        <time>2024-02-23T11:32:52Z</time>
      </trkpt>
      <trkpt lat="43.79421" lon="3.83431">
        <ele>501.4</ele>
        <time>2024-02-23T11:32:53Z</time>
      </trkpt>
      <trkpt lat="43.79421" lon="3.83434">
        <ele>501.4</ele>
        <time>2024-02-23T11:32:54Z</time>
      </trkpt>
      <trkpt lat="43.79421" lon="3.83437">
        <ele>501.4</ele>
        <time>2024-02-23T11:32:55Z</time>
      </trkpt>
      <trkpt lat="43.7942" lon="3.8344">
        <ele>501.6</ele>
        <time>2024-02-23T11:32:56Z</time>
      </trkpt>
      <trkpt lat="43.7942" lon="3.83442">
        <ele>501.6</ele>
        <time>2024-02-23T11:32:57Z</time>
      </trkpt>
      <trkpt lat="43.7942" lon="3.83445">
        <ele>501.6</ele>
        <time>2024-02-23T11:32:58Z</time>
      </trkpt>
      <trkpt lat="43.7942" lon="3.83445">
        <ele>501.6</ele>
        <time>2024-02-23T11:32:59Z</time>
      </trkpt>
      <trkpt lat="43.79421" lon="3.8345">
        <ele>501.8</ele>
        <time>2024-02-23T11:33:00Z</time>
      </trkpt>
      <trkpt lat="43.79421" lon="3.8345">
        <ele>502.2</ele>
        <time>2024-02-23T11:33:01Z</time>
      </trkpt>
      <trkpt lat="43.79421" lon="3.83454">
        <ele>502.2</ele>
        <time>2024-02-23T11:33:02Z</time>
      </trkpt>
      <trkpt lat="43.79421" lon="3.83454">
        <ele>502.2</ele>
        <time>2024-02-23T11:33:03Z</time>
      </trkpt>
      <trkpt lat="43.79422" lon="3.83459">
        <ele>502.2</ele>
        <time>2024-02-23T11:33:04Z</time>
      </trkpt>
      <trkpt lat="43.79422" lon="3.83459">
        <ele>502.2</ele>
        <time>2024-02-23T11:33:05Z</time>
      </trkpt>
      <trkpt lat="43.79425" lon="3.83461">
        <ele>502.2</ele>
        <time>2024-02-23T11:33:06Z</time>
      </trkpt>
      <trkpt lat="43.79427" lon="3.83462">
        <ele>502</ele>
        <time>2024-02-23T11:33:07Z</time>
      </trkpt>
      <trkpt lat="43.79429" lon="3.83463">
        <ele>501.8</ele>
        <time>2024-02-23T11:33:08Z</time>
      </trkpt>
      <trkpt lat="43.7943" lon="3.83464">
        <ele>501.4</ele>
        <time>2024-02-23T11:33:09Z</time>
      </trkpt>
      <trkpt lat="43.79433" lon="3.83466">
        <ele>501.2</ele>
        <time>2024-02-23T11:33:10Z</time>
      </trkpt>
      <trkpt lat="43.79434" lon="3.83469">
        <ele>501</ele>
        <time>2024-02-23T11:33:11Z</time>
      </trkpt>
      <trkpt lat="43.79435" lon="3.83472">
        <ele>500.6</ele>
        <time>2024-02-23T11:33:12Z</time>
      </trkpt>
      <trkpt lat="43.79435" lon="3.83475">
        <ele>500.4</ele>
        <time>2024-02-23T11:33:13Z</time>
      </trkpt>
      <trkpt lat="43.79436" lon="3.83478">
        <ele>500.4</ele>
        <time>2024-02-23T11:33:14Z</time>
      </trkpt>
      <trkpt lat="43.79435" lon="3.8348">
        <ele>500.4</ele>
        <time>2024-02-23T11:33:15Z</time>
      </trkpt>
      <trkpt lat="43.79435" lon="3.83483">
        <ele>500.4</ele>
        <time>2024-02-23T11:33:16Z</time>
      </trkpt>
      <trkpt lat="43.79435" lon="3.83483">
        <ele>500.4</ele>
        <time>2024-02-23T11:33:17Z</time>
      </trkpt>
      <trkpt lat="43.79433" lon="3.83486">
        <ele>500.6</ele>
        <time>2024-02-23T11:33:18Z</time>
      </trkpt>
      <trkpt lat="43.79433" lon="3.83486">
        <ele>500.8</ele>
        <time>2024-02-23T11:33:19Z</time>
      </trkpt>
      <trkpt lat="43.7943" lon="3.83489">
        <ele>501</ele>
        <time>2024-02-23T11:33:20Z</time>
      </trkpt>
      <trkpt lat="43.79429" lon="3.83491">
        <ele>501.2</ele>
        <time>2024-02-23T11:33:21Z</time>
      </trkpt>
      <trkpt lat="43.79429" lon="3.83491">
        <ele>501.2</ele>
        <time>2024-02-23T11:33:22Z</time>
      </trkpt>
      <trkpt lat="43.79427" lon="3.83495">
        <ele>501.6</ele>
        <time>2024-02-23T11:33:23Z</time>
      </trkpt>
      <trkpt lat="43.79426" lon="3.83497">
        <ele>502</ele>
        <time>2024-02-23T11:33:24Z</time>
      </trkpt>
      <trkpt lat="43.79426" lon="3.83497">
        <ele>502.4</ele>
        <time>2024-02-23T11:33:25Z</time>
      </trkpt>
      <trkpt lat="43.79427" lon="3.83501">
        <ele>502.6</ele>
        <time>2024-02-23T11:33:26Z</time>
      </trkpt>
      <trkpt lat="43.79427" lon="3.83501">
        <ele>502.8</ele>
        <time>2024-02-23T11:33:27Z</time>
      </trkpt>
      <trkpt lat="43.79429" lon="3.83504">
        <ele>502.8</ele>
        <time>2024-02-23T11:33:28Z</time>
      </trkpt>
      <trkpt lat="43.79429" lon="3.83504">
        <ele>503</ele>
        <time>2024-02-23T11:33:29Z</time>
      </trkpt>
      <trkpt lat="43.79429" lon="3.83508">
        <ele>503.2</ele>
        <time>2024-02-23T11:33:30Z</time>
      </trkpt>
      <trkpt lat="43.79429" lon="3.83508">
        <ele>503.6</ele>
        <time>2024-02-23T11:33:31Z</time>
      </trkpt>
      <trkpt lat="43.79429" lon="3.83512">
        <ele>503.8</ele>
        <time>2024-02-23T11:33:32Z</time>
      </trkpt>
      <trkpt lat="43.7943" lon="3.83514">
        <ele>504.2</ele>
        <time>2024-02-23T11:33:33Z</time>
      </trkpt>
      <trkpt lat="43.79432" lon="3.83516">
        <ele>504.2</ele>
        <time>2024-02-23T11:33:34Z</time>
      </trkpt>
      <trkpt lat="43.79433" lon="3.83518">
        <ele>504.2</ele>
        <time>2024-02-23T11:33:35Z</time>
      </trkpt>
      <trkpt lat="43.79435" lon="3.83521">
        <ele>504</ele>
        <time>2024-02-23T11:33:36Z</time>
      </trkpt>
      <trkpt lat="43.79436" lon="3.83523">
        <ele>504</ele>
        <time>2024-02-23T11:33:37Z</time>
      </trkpt>
      <trkpt lat="43.79436" lon="3.83526">
        <ele>504</ele>
        <time>2024-02-23T11:33:38Z</time>
      </trkpt>
      <trkpt lat="43.79437" lon="3.83529">
        <ele>504</ele>
        <time>2024-02-23T11:33:39Z</time>
      </trkpt>
      <trkpt lat="43.79437" lon="3.83531">
        <ele>504</ele>
        <time>2024-02-23T11:33:40Z</time>
      </trkpt>
      <trkpt lat="43.79437" lon="3.83531">
        <ele>504.2</ele>
        <time>2024-02-23T11:33:41Z</time>
      </trkpt>
      <trkpt lat="43.79436" lon="3.83536">
        <ele>504.6</ele>
        <time>2024-02-23T11:33:42Z</time>
      </trkpt>
      <trkpt lat="43.79436" lon="3.83539">
        <ele>505</ele>
        <time>2024-02-23T11:33:43Z</time>
      </trkpt>
      <trkpt lat="43.79437" lon="3.83541">
        <ele>505.2</ele>
        <time>2024-02-23T11:33:44Z</time>
      </trkpt>
      <trkpt lat="43.79438" lon="3.83544">
        <ele>505.4</ele>
        <time>2024-02-23T11:33:45Z</time>
      </trkpt>
      <trkpt lat="43.7944" lon="3.83546">
        <ele>505.6</ele>
        <time>2024-02-23T11:33:46Z</time>
      </trkpt>
      <trkpt lat="43.79441" lon="3.83548">
        <ele>505.6</ele>
        <time>2024-02-23T11:33:47Z</time>
      </trkpt>
      <trkpt lat="43.79443" lon="3.8355">
        <ele>505.6</ele>
        <time>2024-02-23T11:33:48Z</time>
      </trkpt>
      <trkpt lat="43.79445" lon="3.83551">
        <ele>505.6</ele>
        <time>2024-02-23T11:33:49Z</time>
      </trkpt>
      <trkpt lat="43.79446" lon="3.83553">
        <ele>505.4</ele>
        <time>2024-02-23T11:33:50Z</time>
      </trkpt>
      <trkpt lat="43.79448" lon="3.83554">
        <ele>505.2</ele>
        <time>2024-02-23T11:33:51Z</time>
      </trkpt>
      <trkpt lat="43.7945" lon="3.83556">
        <ele>504.8</ele>
        <time>2024-02-23T11:33:52Z</time>
      </trkpt>
      <trkpt lat="43.79451" lon="3.83558">
        <ele>504.4</ele>
        <time>2024-02-23T11:33:53Z</time>
      </trkpt>
      <trkpt lat="43.79451" lon="3.83558">
        <ele>504</ele>
        <time>2024-02-23T11:33:54Z</time>
      </trkpt>
      <trkpt lat="43.79451" lon="3.83563">
        <ele>503.6</ele>
        <time>2024-02-23T11:33:55Z</time>
      </trkpt>
      <trkpt lat="43.79452" lon="3.83566">
        <ele>503.4</ele>
        <time>2024-02-23T11:33:56Z</time>
      </trkpt>
      <trkpt lat="43.79452" lon="3.83569">
        <ele>503.2</ele>
        <time>2024-02-23T11:33:57Z</time>
      </trkpt>
      <trkpt lat="43.79453" lon="3.83571">
        <ele>503.2</ele>
        <time>2024-02-23T11:33:58Z</time>
      </trkpt>
      <trkpt lat="43.79454" lon="3.83574">
        <ele>503</ele>
        <time>2024-02-23T11:33:59Z</time>
      </trkpt>
      <trkpt lat="43.79456" lon="3.83576">
        <ele>502.8</ele>
        <time>2024-02-23T11:34:00Z</time>
      </trkpt>
      <trkpt lat="43.79457" lon="3.83578">
        <ele>502.6</ele>
        <time>2024-02-23T11:34:01Z</time>
      </trkpt>
      <trkpt lat="43.79459" lon="3.8358">
        <ele>502.6</ele>
        <time>2024-02-23T11:34:02Z</time>
      </trkpt>
      <trkpt lat="43.7946" lon="3.83583">
        <ele>502.6</ele>
        <time>2024-02-23T11:34:03Z</time>
      </trkpt>
      <trkpt lat="43.79461" lon="3.83586">
        <ele>502.4</ele>
        <time>2024-02-23T11:34:04Z</time>
      </trkpt>
      <trkpt lat="43.79461" lon="3.83588">
        <ele>502.4</ele>
        <time>2024-02-23T11:34:05Z</time>
      </trkpt>
      <trkpt lat="43.79461" lon="3.83588">
        <ele>502.2</ele>
        <time>2024-02-23T11:34:06Z</time>
      </trkpt>
      <trkpt lat="43.79464" lon="3.83591">
        <ele>502.4</ele>
        <time>2024-02-23T11:34:07Z</time>
      </trkpt>
      <trkpt lat="43.79464" lon="3.83594">
        <ele>502.4</ele>
        <time>2024-02-23T11:34:08Z</time>
      </trkpt>
      <trkpt lat="43.79465" lon="3.83596">
        <ele>502.2</ele>
        <time>2024-02-23T11:34:09Z</time>
      </trkpt>
      <trkpt lat="43.79465" lon="3.83596">
        <ele>502</ele>
        <time>2024-02-23T11:34:10Z</time>
      </trkpt>
      <trkpt lat="43.79467" lon="3.83601">
        <ele>502</ele>
        <time>2024-02-23T11:34:11Z</time>
      </trkpt>
      <trkpt lat="43.79468" lon="3.83604">
        <ele>501.8</ele>
        <time>2024-02-23T11:34:12Z</time>
      </trkpt>
      <trkpt lat="43.79469" lon="3.83606">
        <ele>501.6</ele>
        <time>2024-02-23T11:34:13Z</time>
      </trkpt>
      <trkpt lat="43.79469" lon="3.83606">
        <ele>501.6</ele>
        <time>2024-02-23T11:34:14Z</time>
      </trkpt>
      <trkpt lat="43.79469" lon="3.83606">
        <ele>501.4</ele>
        <time>2024-02-23T11:34:15Z</time>
      </trkpt>
      <trkpt lat="43.79469" lon="3.83606">
        <ele>501.2</ele>
        <time>2024-02-23T11:34:16Z</time>
      </trkpt>
      <trkpt lat="43.79469" lon="3.83606">
        <ele>501</ele>
        <time>2024-02-23T11:34:17Z</time>
      </trkpt>
      <trkpt lat="43.79469" lon="3.83606">
        <ele>500.8</ele>
        <time>2024-02-23T11:34:18Z</time>
      </trkpt>
      <trkpt lat="43.79469" lon="3.83606">
        <ele>500.8</ele>
        <time>2024-02-23T11:34:19Z</time>
      </trkpt>
      <trkpt lat="43.79469" lon="3.83602">
        <ele>501</ele>
        <time>2024-02-23T11:34:20Z</time>
      </trkpt>
      <trkpt lat="43.79469" lon="3.83602">
        <ele>501</ele>
        <time>2024-02-23T11:34:21Z</time>
      </trkpt>
      <trkpt lat="43.79472" lon="3.83598">
        <ele>501</ele>
        <time>2024-02-23T11:34:22Z</time>
      </trkpt>
      <trkpt lat="43.79474" lon="3.83597">
        <ele>500.8</ele>
        <time>2024-02-23T11:34:23Z</time>
      </trkpt>
      <trkpt lat="43.79476" lon="3.83597">
        <ele>500.6</ele>
        <time>2024-02-23T11:34:24Z</time>
      </trkpt>
      <trkpt lat="43.79477" lon="3.83598">
        <ele>500.2</ele>
        <time>2024-02-23T11:34:25Z</time>
      </trkpt>
      <trkpt lat="43.79479" lon="3.83598">
        <ele>500</ele>
        <time>2024-02-23T11:34:26Z</time>
      </trkpt>
      <trkpt lat="43.79481" lon="3.83598">
        <ele>499.4</ele>
        <time>2024-02-23T11:34:27Z</time>
      </trkpt>
      <trkpt lat="43.79481" lon="3.83598">
        <ele>499</ele>
        <time>2024-02-23T11:34:28Z</time>
      </trkpt>
      <trkpt lat="43.79485" lon="3.836">
        <ele>498.6</ele>
        <time>2024-02-23T11:34:29Z</time>
      </trkpt>
      <trkpt lat="43.79487" lon="3.83601">
        <ele>498.2</ele>
        <time>2024-02-23T11:34:30Z</time>
      </trkpt>
      <trkpt lat="43.79489" lon="3.83601">
        <ele>497.8</ele>
        <time>2024-02-23T11:34:31Z</time>
      </trkpt>
      <trkpt lat="43.79489" lon="3.83601">
        <ele>497.4</ele>
        <time>2024-02-23T11:34:32Z</time>
      </trkpt>
      <trkpt lat="43.79492" lon="3.83601">
        <ele>496.8</ele>
        <time>2024-02-23T11:34:33Z</time>
      </trkpt>
      <trkpt lat="43.79492" lon="3.83601">
        <ele>496.2</ele>
        <time>2024-02-23T11:34:34Z</time>
      </trkpt>
      <trkpt lat="43.79495" lon="3.83598">
        <ele>495.8</ele>
        <time>2024-02-23T11:34:35Z</time>
      </trkpt>
      <trkpt lat="43.79497" lon="3.83598">
        <ele>495.2</ele>
        <time>2024-02-23T11:34:36Z</time>
      </trkpt>
      <trkpt lat="43.795" lon="3.83597">
        <ele>494.6</ele>
        <time>2024-02-23T11:34:37Z</time>
      </trkpt>
      <trkpt lat="43.79501" lon="3.83597">
        <ele>494</ele>
        <time>2024-02-23T11:34:38Z</time>
      </trkpt>
      <trkpt lat="43.79504" lon="3.83599">
        <ele>493.6</ele>
        <time>2024-02-23T11:34:39Z</time>
      </trkpt>
      <trkpt lat="43.79504" lon="3.83599">
        <ele>493.2</ele>
        <time>2024-02-23T11:34:40Z</time>
      </trkpt>
      <trkpt lat="43.79505" lon="3.83603">
        <ele>492.8</ele>
        <time>2024-02-23T11:34:41Z</time>
      </trkpt>
      <trkpt lat="43.79505" lon="3.83606">
        <ele>492.2</ele>
        <time>2024-02-23T11:34:42Z</time>
      </trkpt>
      <trkpt lat="43.79506" lon="3.83609">
        <ele>492</ele>
        <time>2024-02-23T11:34:43Z</time>
      </trkpt>
      <trkpt lat="43.79506" lon="3.83609">
        <ele>491.6</ele>
        <time>2024-02-23T11:34:44Z</time>
      </trkpt>
      <trkpt lat="43.79507" lon="3.83613">
        <ele>491.2</ele>
        <time>2024-02-23T11:34:45Z</time>
      </trkpt>
      <trkpt lat="43.79507" lon="3.83613">
        <ele>490.8</ele>
        <time>2024-02-23T11:34:46Z</time>
      </trkpt>
      <trkpt lat="43.79508" lon="3.83616">
        <ele>490.6</ele>
        <time>2024-02-23T11:34:47Z</time>
      </trkpt>
      <trkpt lat="43.79508" lon="3.83616">
        <ele>490.4</ele>
        <time>2024-02-23T11:34:48Z</time>
      </trkpt>
      <trkpt lat="43.79509" lon="3.83618">
        <ele>490</ele>
        <time>2024-02-23T11:34:49Z</time>
      </trkpt>
      <trkpt lat="43.79509" lon="3.83618">
        <ele>489.8</ele>
        <time>2024-02-23T11:34:50Z</time>
      </trkpt>
      <trkpt lat="43.79512" lon="3.83622">
        <ele>489.6</ele>
        <time>2024-02-23T11:34:51Z</time>
      </trkpt>
      <trkpt lat="43.79513" lon="3.83625">
        <ele>489.2</ele>
        <time>2024-02-23T11:34:52Z</time>
      </trkpt>
      <trkpt lat="43.79514" lon="3.83627">
        <ele>488.8</ele>
        <time>2024-02-23T11:34:53Z</time>
      </trkpt>
      <trkpt lat="43.79515" lon="3.8363">
        <ele>488.6</ele>
        <time>2024-02-23T11:34:54Z</time>
      </trkpt>
      <trkpt lat="43.79515" lon="3.83633">
        <ele>488.2</ele>
        <time>2024-02-23T11:34:55Z</time>
      </trkpt>
      <trkpt lat="43.79516" lon="3.83636">
        <ele>488.4</ele>
        <time>2024-02-23T11:34:56Z</time>
      </trkpt>
      <trkpt lat="43.79516" lon="3.83638">
        <ele>488.6</ele>
        <time>2024-02-23T11:34:57Z</time>
      </trkpt>
      <trkpt lat="43.79517" lon="3.83641">
        <ele>488.6</ele>
        <time>2024-02-23T11:34:58Z</time>
      </trkpt>
      <trkpt lat="43.79518" lon="3.83643">
        <ele>488.6</ele>
        <time>2024-02-23T11:34:59Z</time>
      </trkpt>
      <trkpt lat="43.79519" lon="3.83646">
        <ele>488.6</ele>
        <time>2024-02-23T11:35:00Z</time>
      </trkpt>
      <trkpt lat="43.79519" lon="3.83646">
        <ele>488.6</ele>
        <time>2024-02-23T11:35:01Z</time>
      </trkpt>
      <trkpt lat="43.79521" lon="3.8365">
        <ele>488.4</ele>
        <time>2024-02-23T11:35:02Z</time>
      </trkpt>
      <trkpt lat="43.79522" lon="3.83653">
        <ele>488.2</ele>
        <time>2024-02-23T11:35:03Z</time>
      </trkpt>
      <trkpt lat="43.79524" lon="3.83656">
        <ele>488</ele>
        <time>2024-02-23T11:35:04Z</time>
      </trkpt>
      <trkpt lat="43.79525" lon="3.83659">
        <ele>488</ele>
        <time>2024-02-23T11:35:05Z</time>
      </trkpt>
      <trkpt lat="43.79526" lon="3.83661">
        <ele>488</ele>
        <time>2024-02-23T11:35:06Z</time>
      </trkpt>
      <trkpt lat="43.79527" lon="3.83663">
        <ele>487.8</ele>
        <time>2024-02-23T11:35:07Z</time>
      </trkpt>
      <trkpt lat="43.79528" lon="3.83666">
        <ele>487.8</ele>
        <time>2024-02-23T11:35:08Z</time>
      </trkpt>
      <trkpt lat="43.79528" lon="3.83669">
        <ele>487.6</ele>
        <time>2024-02-23T11:35:09Z</time>
      </trkpt>
      <trkpt lat="43.79528" lon="3.83669">
        <ele>487.4</ele>
        <time>2024-02-23T11:35:10Z</time>
      </trkpt>
      <trkpt lat="43.79527" lon="3.83671">
        <ele>487.4</ele>
        <time>2024-02-23T11:35:11Z</time>
      </trkpt>
      <trkpt lat="43.79527" lon="3.83671">
        <ele>487.4</ele>
        <time>2024-02-23T11:35:12Z</time>
      </trkpt>
      <trkpt lat="43.79527" lon="3.83671">
        <ele>487.4</ele>
        <time>2024-02-23T11:35:13Z</time>
      </trkpt>
      <trkpt lat="43.79527" lon="3.83671">
        <ele>487.6</ele>
        <time>2024-02-23T11:35:14Z</time>
      </trkpt>
      <trkpt lat="43.79527" lon="3.83671">
        <ele>488</ele>
        <time>2024-02-23T11:35:15Z</time>
      </trkpt>
      <trkpt lat="43.79525" lon="3.83674">
        <ele>488.2</ele>
        <time>2024-02-23T11:35:16Z</time>
      </trkpt>
      <trkpt lat="43.79525" lon="3.83674">
        <ele>488.6</ele>
        <time>2024-02-23T11:35:17Z</time>
      </trkpt>
      <trkpt lat="43.79524" lon="3.83676">
        <ele>488.8</ele>
        <time>2024-02-23T11:35:18Z</time>
      </trkpt>
      <trkpt lat="43.79524" lon="3.83676">
        <ele>489</ele>
        <time>2024-02-23T11:35:19Z</time>
      </trkpt>
      <trkpt lat="43.79524" lon="3.8368">
        <ele>489.2</ele>
        <time>2024-02-23T11:35:20Z</time>
      </trkpt>
      <trkpt lat="43.79524" lon="3.8368">
        <ele>489.4</ele>
        <time>2024-02-23T11:35:21Z</time>
      </trkpt>
      <trkpt lat="43.79523" lon="3.83683">
        <ele>490</ele>
        <time>2024-02-23T11:35:22Z</time>
      </trkpt>
      <trkpt lat="43.79523" lon="3.83683">
        <ele>490.4</ele>
        <time>2024-02-23T11:35:23Z</time>
      </trkpt>
      <trkpt lat="43.79522" lon="3.83686">
        <ele>490.8</ele>
        <time>2024-02-23T11:35:24Z</time>
      </trkpt>
      <trkpt lat="43.79522" lon="3.83686">
        <ele>491.2</ele>
        <time>2024-02-23T11:35:25Z</time>
      </trkpt>
      <trkpt lat="43.79521" lon="3.83688">
        <ele>491.4</ele>
        <time>2024-02-23T11:35:26Z</time>
      </trkpt>
      <trkpt lat="43.79521" lon="3.83688">
        <ele>491.8</ele>
        <time>2024-02-23T11:35:27Z</time>
      </trkpt>
      <trkpt lat="43.79519" lon="3.83692">
        <ele>492</ele>
        <time>2024-02-23T11:35:28Z</time>
      </trkpt>
      <trkpt lat="43.79518" lon="3.83694">
        <ele>492.4</ele>
        <time>2024-02-23T11:35:29Z</time>
      </trkpt>
      <trkpt lat="43.79517" lon="3.83697">
        <ele>492.8</ele>
        <time>2024-02-23T11:35:30Z</time>
      </trkpt>
      <trkpt lat="43.79517" lon="3.83697">
        <ele>493</ele>
        <time>2024-02-23T11:35:31Z</time>
      </trkpt>
      <trkpt lat="43.79518" lon="3.83701">
        <ele>493.2</ele>
        <time>2024-02-23T11:35:32Z</time>
      </trkpt>
      <trkpt lat="43.79518" lon="3.83701">
        <ele>493.4</ele>
        <time>2024-02-23T11:35:33Z</time>
      </trkpt>
      <trkpt lat="43.79522" lon="3.83702">
        <ele>493.4</ele>
        <time>2024-02-23T11:35:34Z</time>
      </trkpt>
      <trkpt lat="43.79524" lon="3.83703">
        <ele>493.4</ele>
        <time>2024-02-23T11:35:35Z</time>
      </trkpt>
      <trkpt lat="43.79526" lon="3.83704">
        <ele>493.2</ele>
        <time>2024-02-23T11:35:36Z</time>
      </trkpt>
      <trkpt lat="43.79528" lon="3.83706">
        <ele>493</ele>
        <time>2024-02-23T11:35:37Z</time>
      </trkpt>
      <trkpt lat="43.79529" lon="3.83707">
        <ele>492.8</ele>
        <time>2024-02-23T11:35:38Z</time>
      </trkpt>
      <trkpt lat="43.79531" lon="3.83708">
        <ele>492.6</ele>
        <time>2024-02-23T11:35:39Z</time>
      </trkpt>
      <trkpt lat="43.79531" lon="3.83708">
        <ele>492.4</ele>
        <time>2024-02-23T11:35:40Z</time>
      </trkpt>
      <trkpt lat="43.79534" lon="3.83711">
        <ele>492.2</ele>
        <time>2024-02-23T11:35:41Z</time>
      </trkpt>
      <trkpt lat="43.79534" lon="3.83711">
        <ele>492</ele>
        <time>2024-02-23T11:35:42Z</time>
      </trkpt>
      <trkpt lat="43.79537" lon="3.83712">
        <ele>491.8</ele>
        <time>2024-02-23T11:35:43Z</time>
      </trkpt>
      <trkpt lat="43.79537" lon="3.83712">
        <ele>491.4</ele>
        <time>2024-02-23T11:35:44Z</time>
      </trkpt>
      <trkpt lat="43.7954" lon="3.83713">
        <ele>491</ele>
        <time>2024-02-23T11:35:45Z</time>
      </trkpt>
      <trkpt lat="43.7954" lon="3.83713">
        <ele>490.6</ele>
        <time>2024-02-23T11:35:46Z</time>
      </trkpt>
      <trkpt lat="43.79542" lon="3.83715">
        <ele>490.2</ele>
        <time>2024-02-23T11:35:47Z</time>
      </trkpt>
      <trkpt lat="43.79542" lon="3.83715">
        <ele>489.8</ele>
        <time>2024-02-23T11:35:48Z</time>
      </trkpt>
      <trkpt lat="43.79543" lon="3.83719">
        <ele>489.2</ele>
        <time>2024-02-23T11:35:49Z</time>
      </trkpt>
      <trkpt lat="43.79543" lon="3.83719">
        <ele>488.8</ele>
        <time>2024-02-23T11:35:50Z</time>
      </trkpt>
      <trkpt lat="43.79543" lon="3.83722">
        <ele>488.2</ele>
        <time>2024-02-23T11:35:51Z</time>
      </trkpt>
      <trkpt lat="43.79542" lon="3.83725">
        <ele>487.6</ele>
        <time>2024-02-23T11:35:52Z</time>
      </trkpt>
      <trkpt lat="43.79542" lon="3.83725">
        <ele>487</ele>
        <time>2024-02-23T11:35:53Z</time>
      </trkpt>
      <trkpt lat="43.79542" lon="3.83729">
        <ele>486.8</ele>
        <time>2024-02-23T11:35:54Z</time>
      </trkpt>
      <trkpt lat="43.79542" lon="3.83729">
        <ele>486.6</ele>
        <time>2024-02-23T11:35:55Z</time>
      </trkpt>
      <trkpt lat="43.79545" lon="3.83728">
        <ele>486.4</ele>
        <time>2024-02-23T11:35:56Z</time>
      </trkpt>
      <trkpt lat="43.79547" lon="3.83727">
        <ele>486.2</ele>
        <time>2024-02-23T11:35:57Z</time>
      </trkpt>
      <trkpt lat="43.79547" lon="3.83727">
        <ele>486</ele>
        <time>2024-02-23T11:35:58Z</time>
      </trkpt>
      <trkpt lat="43.7955" lon="3.83726">
        <ele>485.8</ele>
        <time>2024-02-23T11:35:59Z</time>
      </trkpt>
      <trkpt lat="43.7955" lon="3.83726">
        <ele>485.4</ele>
        <time>2024-02-23T11:36:00Z</time>
      </trkpt>
      <trkpt lat="43.79551" lon="3.8373">
        <ele>485</ele>
        <time>2024-02-23T11:36:01Z</time>
      </trkpt>
      <trkpt lat="43.79551" lon="3.8373">
        <ele>485</ele>
        <time>2024-02-23T11:36:02Z</time>
      </trkpt>
      <trkpt lat="43.79553" lon="3.83732">
        <ele>484.8</ele>
        <time>2024-02-23T11:36:03Z</time>
      </trkpt>
      <trkpt lat="43.79553" lon="3.83732">
        <ele>484.4</ele>
        <time>2024-02-23T11:36:04Z</time>
      </trkpt>
      <trkpt lat="43.79554" lon="3.83737">
        <ele>484</ele>
        <time>2024-02-23T11:36:05Z</time>
      </trkpt>
      <trkpt lat="43.79556" lon="3.83739">
        <ele>483.4</ele>
        <time>2024-02-23T11:36:06Z</time>
      </trkpt>
      <trkpt lat="43.79556" lon="3.83739">
        <ele>482.8</ele>
        <time>2024-02-23T11:36:07Z</time>
      </trkpt>
      <trkpt lat="43.79558" lon="3.83741">
        <ele>482.2</ele>
        <time>2024-02-23T11:36:08Z</time>
      </trkpt>
      <trkpt lat="43.79558" lon="3.83741">
        <ele>481.8</ele>
        <time>2024-02-23T11:36:09Z</time>
      </trkpt>
      <trkpt lat="43.79562" lon="3.83743">
        <ele>481.2</ele>
        <time>2024-02-23T11:36:10Z</time>
      </trkpt>
      <trkpt lat="43.79562" lon="3.83743">
        <ele>480.6</ele>
        <time>2024-02-23T11:36:11Z</time>
      </trkpt>
      <trkpt lat="43.79565" lon="3.83745">
        <ele>480</ele>
        <time>2024-02-23T11:36:12Z</time>
      </trkpt>
      <trkpt lat="43.79568" lon="3.83746">
        <ele>479.4</ele>
        <time>2024-02-23T11:36:13Z</time>
      </trkpt>
      <trkpt lat="43.7957" lon="3.83746">
        <ele>478.8</ele>
        <time>2024-02-23T11:36:14Z</time>
      </trkpt>
      <trkpt lat="43.79573" lon="3.83746">
        <ele>478.4</ele>
        <time>2024-02-23T11:36:15Z</time>
      </trkpt>
      <trkpt lat="43.79575" lon="3.83745">
        <ele>478</ele>
        <time>2024-02-23T11:36:16Z</time>
      </trkpt>
      <trkpt lat="43.79578" lon="3.83744">
        <ele>477.6</ele>
        <time>2024-02-23T11:36:17Z</time>
      </trkpt>
      <trkpt lat="43.7958" lon="3.83744">
        <ele>477.2</ele>
        <time>2024-02-23T11:36:18Z</time>
      </trkpt>
      <trkpt lat="43.79581" lon="3.83746">
        <ele>476.8</ele>
        <time>2024-02-23T11:36:19Z</time>
      </trkpt>
      <trkpt lat="43.79582" lon="3.83749">
        <ele>476.4</ele>
        <time>2024-02-23T11:36:20Z</time>
      </trkpt>
      <trkpt lat="43.79583" lon="3.83751">
        <ele>476</ele>
        <time>2024-02-23T11:36:21Z</time>
      </trkpt>
      <trkpt lat="43.79583" lon="3.83751">
        <ele>475.4</ele>
        <time>2024-02-23T11:36:22Z</time>
      </trkpt>
      <trkpt lat="43.79584" lon="3.83755">
        <ele>475</ele>
        <time>2024-02-23T11:36:23Z</time>
      </trkpt>
      <trkpt lat="43.79585" lon="3.83758">
        <ele>474.6</ele>
        <time>2024-02-23T11:36:24Z</time>
      </trkpt>
      <trkpt lat="43.79586" lon="3.83761">
        <ele>474.2</ele>
        <time>2024-02-23T11:36:25Z</time>
      </trkpt>
      <trkpt lat="43.79586" lon="3.83764">
        <ele>473.8</ele>
        <time>2024-02-23T11:36:26Z</time>
      </trkpt>
      <trkpt lat="43.79587" lon="3.83766">
        <ele>473.4</ele>
        <time>2024-02-23T11:36:27Z</time>
      </trkpt>
      <trkpt lat="43.79588" lon="3.83768">
        <ele>473.2</ele>
        <time>2024-02-23T11:36:28Z</time>
      </trkpt>
      <trkpt lat="43.79589" lon="3.83771">
        <ele>473</ele>
        <time>2024-02-23T11:36:29Z</time>
      </trkpt>
      <trkpt lat="43.7959" lon="3.83774">
        <ele>473</ele>
        <time>2024-02-23T11:36:30Z</time>
      </trkpt>
      <trkpt lat="43.7959" lon="3.83774">
        <ele>472.6</ele>
        <time>2024-02-23T11:36:31Z</time>
      </trkpt>
      <trkpt lat="43.7959" lon="3.83779">
        <ele>472.4</ele>
        <time>2024-02-23T11:36:32Z</time>
      </trkpt>
      <trkpt lat="43.7959" lon="3.83782">
        <ele>472</ele>
        <time>2024-02-23T11:36:33Z</time>
      </trkpt>
      <trkpt lat="43.7959" lon="3.83784">
        <ele>471.6</ele>
        <time>2024-02-23T11:36:34Z</time>
      </trkpt>
      <trkpt lat="43.7959" lon="3.83784">
        <ele>471.2</ele>
        <time>2024-02-23T11:36:35Z</time>
      </trkpt>
      <trkpt lat="43.79591" lon="3.83788">
        <ele>470.6</ele>
        <time>2024-02-23T11:36:36Z</time>
      </trkpt>
      <trkpt lat="43.79592" lon="3.8379">
        <ele>470.2</ele>
        <time>2024-02-23T11:36:37Z</time>
      </trkpt>
      <trkpt lat="43.79593" lon="3.83793">
        <ele>470</ele>
        <time>2024-02-23T11:36:38Z</time>
      </trkpt>
      <trkpt lat="43.79593" lon="3.83795">
        <ele>469.6</ele>
        <time>2024-02-23T11:36:39Z</time>
      </trkpt>
      <trkpt lat="43.79595" lon="3.83797">
        <ele>469.4</ele>
        <time>2024-02-23T11:36:40Z</time>
      </trkpt>
      <trkpt lat="43.79597" lon="3.83798">
        <ele>469</ele>
        <time>2024-02-23T11:36:41Z</time>
      </trkpt>
      <trkpt lat="43.79599" lon="3.83798">
        <ele>468.8</ele>
        <time>2024-02-23T11:36:42Z</time>
      </trkpt>
      <trkpt lat="43.79602" lon="3.83798">
        <ele>468.6</ele>
        <time>2024-02-23T11:36:43Z</time>
      </trkpt>
      <trkpt lat="43.79605" lon="3.83798">
        <ele>468.2</ele>
        <time>2024-02-23T11:36:44Z</time>
      </trkpt>
      <trkpt lat="43.79607" lon="3.83799">
        <ele>467.8</ele>
        <time>2024-02-23T11:36:45Z</time>
      </trkpt>
      <trkpt lat="43.79608" lon="3.83802">
        <ele>467.2</ele>
        <time>2024-02-23T11:36:46Z</time>
      </trkpt>
      <trkpt lat="43.79609" lon="3.83805">
        <ele>466.8</ele>
        <time>2024-02-23T11:36:47Z</time>
      </trkpt>
      <trkpt lat="43.79609" lon="3.8381">
        <ele>466.2</ele>
        <time>2024-02-23T11:36:48Z</time>
      </trkpt>
      <trkpt lat="43.79608" lon="3.83813">
        <ele>466</ele>
        <time>2024-02-23T11:36:49Z</time>
      </trkpt>
      <trkpt lat="43.79608" lon="3.83817">
        <ele>465.6</ele>
        <time>2024-02-23T11:36:50Z</time>
      </trkpt>
      <trkpt lat="43.79607" lon="3.83819">
        <ele>465.4</ele>
        <time>2024-02-23T11:36:51Z</time>
      </trkpt>
      <trkpt lat="43.79607" lon="3.83819">
        <ele>465.2</ele>
        <time>2024-02-23T11:36:52Z</time>
      </trkpt>
      <trkpt lat="43.79606" lon="3.83824">
        <ele>465</ele>
        <time>2024-02-23T11:36:53Z</time>
      </trkpt>
      <trkpt lat="43.79606" lon="3.83827">
        <ele>464.8</ele>
        <time>2024-02-23T11:36:54Z</time>
      </trkpt>
      <trkpt lat="43.79606" lon="3.83829">
        <ele>464.6</ele>
        <time>2024-02-23T11:36:55Z</time>
      </trkpt>
      <trkpt lat="43.79606" lon="3.83832">
        <ele>464.2</ele>
        <time>2024-02-23T11:36:56Z</time>
      </trkpt>
      <trkpt lat="43.79606" lon="3.83832">
        <ele>463.8</ele>
        <time>2024-02-23T11:36:57Z</time>
      </trkpt>
      <trkpt lat="43.79605" lon="3.83836">
        <ele>463.4</ele>
        <time>2024-02-23T11:36:58Z</time>
      </trkpt>
      <trkpt lat="43.79605" lon="3.83836">
        <ele>462.8</ele>
        <time>2024-02-23T11:36:59Z</time>
      </trkpt>
      <trkpt lat="43.79604" lon="3.83838">
        <ele>462.2</ele>
        <time>2024-02-23T11:37:00Z</time>
      </trkpt>
      <trkpt lat="43.79604" lon="3.83838">
        <ele>461.8</ele>
        <time>2024-02-23T11:37:01Z</time>
      </trkpt>
      <trkpt lat="43.79606" lon="3.83841">
        <ele>461.4</ele>
        <time>2024-02-23T11:37:02Z</time>
      </trkpt>
      <trkpt lat="43.79607" lon="3.83844">
        <ele>461.2</ele>
        <time>2024-02-23T11:37:03Z</time>
      </trkpt>
      <trkpt lat="43.79608" lon="3.83847">
        <ele>461</ele>
        <time>2024-02-23T11:37:04Z</time>
      </trkpt>
      <trkpt lat="43.79608" lon="3.8385">
        <ele>460.6</ele>
        <time>2024-02-23T11:37:05Z</time>
      </trkpt>
      <trkpt lat="43.79609" lon="3.83852">
        <ele>460.2</ele>
        <time>2024-02-23T11:37:06Z</time>
      </trkpt>
      <trkpt lat="43.79611" lon="3.83855">
        <ele>459.8</ele>
        <time>2024-02-23T11:37:07Z</time>
      </trkpt>
      <trkpt lat="43.79613" lon="3.83858">
        <ele>459.4</ele>
        <time>2024-02-23T11:37:08Z</time>
      </trkpt>
      <trkpt lat="43.79614" lon="3.83861">
        <ele>458.8</ele>
        <time>2024-02-23T11:37:09Z</time>
      </trkpt>
      <trkpt lat="43.79616" lon="3.83864">
        <ele>458.4</ele>
        <time>2024-02-23T11:37:10Z</time>
      </trkpt>
      <trkpt lat="43.79618" lon="3.83867">
        <ele>458</ele>
        <time>2024-02-23T11:37:11Z</time>
      </trkpt>
      <trkpt lat="43.79621" lon="3.8387">
        <ele>457.8</ele>
        <time>2024-02-23T11:37:12Z</time>
      </trkpt>
      <trkpt lat="43.79623" lon="3.83873">
        <ele>457.6</ele>
        <time>2024-02-23T11:37:13Z</time>
      </trkpt>
      <trkpt lat="43.79625" lon="3.83876">
        <ele>457.2</ele>
        <time>2024-02-23T11:37:14Z</time>
      </trkpt>
      <trkpt lat="43.79627" lon="3.83878">
        <ele>457</ele>
        <time>2024-02-23T11:37:15Z</time>
      </trkpt>
      <trkpt lat="43.7963" lon="3.83879">
        <ele>456.6</ele>
        <time>2024-02-23T11:37:16Z</time>
      </trkpt>
      <trkpt lat="43.79633" lon="3.8388">
        <ele>456.4</ele>
        <time>2024-02-23T11:37:17Z</time>
      </trkpt>
      <trkpt lat="43.79635" lon="3.8388">
        <ele>456.2</ele>
        <time>2024-02-23T11:37:18Z</time>
      </trkpt>
      <trkpt lat="43.79638" lon="3.83879">
        <ele>456</ele>
        <time>2024-02-23T11:37:19Z</time>
      </trkpt>
      <trkpt lat="43.7964" lon="3.83878">
        <ele>455.8</ele>
        <time>2024-02-23T11:37:20Z</time>
      </trkpt>
      <trkpt lat="43.79643" lon="3.83877">
        <ele>455.4</ele>
        <time>2024-02-23T11:37:21Z</time>
      </trkpt>
      <trkpt lat="43.79645" lon="3.83876">
        <ele>455.2</ele>
        <time>2024-02-23T11:37:22Z</time>
      </trkpt>
      <trkpt lat="43.79648" lon="3.83876">
        <ele>454.8</ele>
        <time>2024-02-23T11:37:23Z</time>
      </trkpt>
      <trkpt lat="43.7965" lon="3.83877">
        <ele>454.6</ele>
        <time>2024-02-23T11:37:24Z</time>
      </trkpt>
      <trkpt lat="43.79652" lon="3.83878">
        <ele>454.2</ele>
        <time>2024-02-23T11:37:25Z</time>
      </trkpt>
      <trkpt lat="43.79654" lon="3.8388">
        <ele>453.8</ele>
        <time>2024-02-23T11:37:26Z</time>
      </trkpt>
      <trkpt lat="43.79656" lon="3.83881">
        <ele>453.6</ele>
        <time>2024-02-23T11:37:27Z</time>
      </trkpt>
      <trkpt lat="43.79657" lon="3.83883">
        <ele>453.2</ele>
        <time>2024-02-23T11:37:28Z</time>
      </trkpt>
      <trkpt lat="43.79657" lon="3.83883">
        <ele>453</ele>
        <time>2024-02-23T11:37:29Z</time>
      </trkpt>
      <trkpt lat="43.79661" lon="3.83886">
        <ele>452.8</ele>
        <time>2024-02-23T11:37:30Z</time>
      </trkpt>
      <trkpt lat="43.79663" lon="3.83887">
        <ele>452.4</ele>
        <time>2024-02-23T11:37:31Z</time>
      </trkpt>
      <trkpt lat="43.79665" lon="3.83888">
        <ele>452.2</ele>
        <time>2024-02-23T11:37:32Z</time>
      </trkpt>
      <trkpt lat="43.79665" lon="3.83888">
        <ele>451.8</ele>
        <time>2024-02-23T11:37:33Z</time>
      </trkpt>
      <trkpt lat="43.79668" lon="3.83888">
        <ele>451.6</ele>
        <time>2024-02-23T11:37:34Z</time>
      </trkpt>
      <trkpt lat="43.7967" lon="3.83888">
        <ele>451.4</ele>
        <time>2024-02-23T11:37:35Z</time>
      </trkpt>
      <trkpt lat="43.79673" lon="3.83889">
        <ele>451.2</ele>
        <time>2024-02-23T11:37:36Z</time>
      </trkpt>
      <trkpt lat="43.79676" lon="3.83892">
        <ele>451</ele>
        <time>2024-02-23T11:37:37Z</time>
      </trkpt>
      <trkpt lat="43.79678" lon="3.83894">
        <ele>450.6</ele>
        <time>2024-02-23T11:37:38Z</time>
      </trkpt>
      <trkpt lat="43.7968" lon="3.83895">
        <ele>450.4</ele>
        <time>2024-02-23T11:37:39Z</time>
      </trkpt>
      <trkpt lat="43.79683" lon="3.83896">
        <ele>450.2</ele>
        <time>2024-02-23T11:37:40Z</time>
      </trkpt>
      <trkpt lat="43.79685" lon="3.83897">
        <ele>450</ele>
        <time>2024-02-23T11:37:41Z</time>
      </trkpt>
      <trkpt lat="43.79687" lon="3.83898">
        <ele>449.8</ele>
        <time>2024-02-23T11:37:42Z</time>
      </trkpt>
      <trkpt lat="43.79689" lon="3.83899">
        <ele>449.6</ele>
        <time>2024-02-23T11:37:43Z</time>
      </trkpt>
      <trkpt lat="43.79689" lon="3.83899">
        <ele>449.2</ele>
        <time>2024-02-23T11:37:44Z</time>
      </trkpt>
      <trkpt lat="43.79692" lon="3.839">
        <ele>449</ele>
        <time>2024-02-23T11:37:45Z</time>
      </trkpt>
      <trkpt lat="43.79692" lon="3.839">
        <ele>448.8</ele>
        <time>2024-02-23T11:37:46Z</time>
      </trkpt>
      <trkpt lat="43.79694" lon="3.83903">
        <ele>448.6</ele>
        <time>2024-02-23T11:37:47Z</time>
      </trkpt>
      <trkpt lat="43.79696" lon="3.83904">
        <ele>448.4</ele>
        <time>2024-02-23T11:37:48Z</time>
      </trkpt>
      <trkpt lat="43.79699" lon="3.83905">
        <ele>448.4</ele>
        <time>2024-02-23T11:37:49Z</time>
      </trkpt>
      <trkpt lat="43.79701" lon="3.83907">
        <ele>448.4</ele>
        <time>2024-02-23T11:37:50Z</time>
      </trkpt>
      <trkpt lat="43.79703" lon="3.83908">
        <ele>448.2</ele>
        <time>2024-02-23T11:37:51Z</time>
      </trkpt>
      <trkpt lat="43.79705" lon="3.8391">
        <ele>448</ele>
        <time>2024-02-23T11:37:52Z</time>
      </trkpt>
      <trkpt lat="43.79707" lon="3.83911">
        <ele>447.8</ele>
        <time>2024-02-23T11:37:53Z</time>
      </trkpt>
      <trkpt lat="43.7971" lon="3.8391">
        <ele>447.4</ele>
        <time>2024-02-23T11:37:54Z</time>
      </trkpt>
      <trkpt lat="43.79712" lon="3.8391">
        <ele>447.2</ele>
        <time>2024-02-23T11:37:55Z</time>
      </trkpt>
      <trkpt lat="43.79715" lon="3.8391">
        <ele>447</ele>
        <time>2024-02-23T11:37:56Z</time>
      </trkpt>
      <trkpt lat="43.79717" lon="3.83911">
        <ele>446.8</ele>
        <time>2024-02-23T11:37:57Z</time>
      </trkpt>
      <trkpt lat="43.7972" lon="3.83912">
        <ele>446.6</ele>
        <time>2024-02-23T11:37:58Z</time>
      </trkpt>
      <trkpt lat="43.79722" lon="3.83913">
        <ele>446.2</ele>
        <time>2024-02-23T11:37:59Z</time>
      </trkpt>
      <trkpt lat="43.79725" lon="3.83913">
        <ele>445.8</ele>
        <time>2024-02-23T11:38:00Z</time>
      </trkpt>
      <trkpt lat="43.79728" lon="3.83914">
        <ele>445.6</ele>
        <time>2024-02-23T11:38:01Z</time>
      </trkpt>
      <trkpt lat="43.7973" lon="3.83915">
        <ele>445.2</ele>
        <time>2024-02-23T11:38:02Z</time>
      </trkpt>
      <trkpt lat="43.79732" lon="3.83915">
        <ele>444.8</ele>
        <time>2024-02-23T11:38:03Z</time>
      </trkpt>
      <trkpt lat="43.79734" lon="3.83915">
        <ele>444.6</ele>
        <time>2024-02-23T11:38:04Z</time>
      </trkpt>
      <trkpt lat="43.79736" lon="3.83915">
        <ele>444.4</ele>
        <time>2024-02-23T11:38:05Z</time>
      </trkpt>
      <trkpt lat="43.79738" lon="3.83915">
        <ele>444</ele>
        <time>2024-02-23T11:38:06Z</time>
      </trkpt>
      <trkpt lat="43.79738" lon="3.83915">
        <ele>443.8</ele>
        <time>2024-02-23T11:38:07Z</time>
      </trkpt>
      <trkpt lat="43.79741" lon="3.83914">
        <ele>443.6</ele>
        <time>2024-02-23T11:38:08Z</time>
      </trkpt>
      <trkpt lat="43.79743" lon="3.83914">
        <ele>443.2</ele>
        <time>2024-02-23T11:38:09Z</time>
      </trkpt>
      <trkpt lat="43.79746" lon="3.83913">
        <ele>443</ele>
        <time>2024-02-23T11:38:10Z</time>
      </trkpt>
      <trkpt lat="43.79746" lon="3.83913">
        <ele>442.6</ele>
        <time>2024-02-23T11:38:11Z</time>
      </trkpt>
      <trkpt lat="43.79748" lon="3.83916">
        <ele>442.2</ele>
        <time>2024-02-23T11:38:12Z</time>
      </trkpt>
      <trkpt lat="43.7975" lon="3.83918">
        <ele>441.8</ele>
        <time>2024-02-23T11:38:13Z</time>
      </trkpt>
      <trkpt lat="43.79752" lon="3.83918">
        <ele>441.4</ele>
        <time>2024-02-23T11:38:14Z</time>
      </trkpt>
      <trkpt lat="43.79754" lon="3.83919">
        <ele>441.2</ele>
        <time>2024-02-23T11:38:15Z</time>
      </trkpt>
      <trkpt lat="43.79756" lon="3.8392">
        <ele>440.8</ele>
        <time>2024-02-23T11:38:16Z</time>
      </trkpt>
      <trkpt lat="43.79758" lon="3.83922">
        <ele>440.8</ele>
        <time>2024-02-23T11:38:17Z</time>
      </trkpt>
      <trkpt lat="43.79758" lon="3.83924">
        <ele>440.6</ele>
        <time>2024-02-23T11:38:18Z</time>
      </trkpt>
      <trkpt lat="43.79758" lon="3.83924">
        <ele>440.2</ele>
        <time>2024-02-23T11:38:19Z</time>
      </trkpt>
      <trkpt lat="43.7976" lon="3.83929">
        <ele>439.8</ele>
        <time>2024-02-23T11:38:20Z</time>
      </trkpt>
      <trkpt lat="43.79763" lon="3.8393">
        <ele>439.4</ele>
        <time>2024-02-23T11:38:21Z</time>
      </trkpt>
      <trkpt lat="43.79765" lon="3.83931">
        <ele>438.8</ele>
        <time>2024-02-23T11:38:22Z</time>
      </trkpt>
      <trkpt lat="43.79766" lon="3.83933">
        <ele>438.2</ele>
        <time>2024-02-23T11:38:23Z</time>
      </trkpt>
      <trkpt lat="43.79768" lon="3.83934">
        <ele>437.8</ele>
        <time>2024-02-23T11:38:24Z</time>
      </trkpt>
      <trkpt lat="43.7977" lon="3.83936">
        <ele>437.6</ele>
        <time>2024-02-23T11:38:25Z</time>
      </trkpt>
      <trkpt lat="43.79772" lon="3.83937">
        <ele>437.4</ele>
        <time>2024-02-23T11:38:26Z</time>
      </trkpt>
      <trkpt lat="43.79774" lon="3.83937">
        <ele>437</ele>
        <time>2024-02-23T11:38:27Z</time>
      </trkpt>
      <trkpt lat="43.79776" lon="3.83939">
        <ele>436.8</ele>
        <time>2024-02-23T11:38:28Z</time>
      </trkpt>
      <trkpt lat="43.79778" lon="3.83941">
        <ele>436.4</ele>
        <time>2024-02-23T11:38:29Z</time>
      </trkpt>
      <trkpt lat="43.7978" lon="3.83943">
        <ele>436</ele>
        <time>2024-02-23T11:38:30Z</time>
      </trkpt>
      <trkpt lat="43.79781" lon="3.83945">
        <ele>435.6</ele>
        <time>2024-02-23T11:38:31Z</time>
      </trkpt>
      <trkpt lat="43.79783" lon="3.83947">
        <ele>435.2</ele>
        <time>2024-02-23T11:38:32Z</time>
      </trkpt>
      <trkpt lat="43.79784" lon="3.83949">
        <ele>434.6</ele>
        <time>2024-02-23T11:38:33Z</time>
      </trkpt>
      <trkpt lat="43.79786" lon="3.83951">
        <ele>434.2</ele>
        <time>2024-02-23T11:38:34Z</time>
      </trkpt>
      <trkpt lat="43.79789" lon="3.83953">
        <ele>433.8</ele>
        <time>2024-02-23T11:38:35Z</time>
      </trkpt>
      <trkpt lat="43.79792" lon="3.83955">
        <ele>433</ele>
        <time>2024-02-23T11:38:36Z</time>
      </trkpt>
      <trkpt lat="43.79795" lon="3.83956">
        <ele>432.6</ele>
        <time>2024-02-23T11:38:37Z</time>
      </trkpt>
      <trkpt lat="43.79798" lon="3.83956">
        <ele>432.2</ele>
        <time>2024-02-23T11:38:38Z</time>
      </trkpt>
      <trkpt lat="43.79802" lon="3.83956">
        <ele>432</ele>
        <time>2024-02-23T11:38:39Z</time>
      </trkpt>
      <trkpt lat="43.79805" lon="3.83957">
        <ele>431.6</ele>
        <time>2024-02-23T11:38:40Z</time>
      </trkpt>
      <trkpt lat="43.79807" lon="3.83958">
        <ele>431.2</ele>
        <time>2024-02-23T11:38:41Z</time>
      </trkpt>
      <trkpt lat="43.7981" lon="3.8396">
        <ele>430.8</ele>
        <time>2024-02-23T11:38:42Z</time>
      </trkpt>
      <trkpt lat="43.79812" lon="3.83962">
        <ele>430.4</ele>
        <time>2024-02-23T11:38:43Z</time>
      </trkpt>
      <trkpt lat="43.79814" lon="3.83963">
        <ele>429.8</ele>
        <time>2024-02-23T11:38:44Z</time>
      </trkpt>
      <trkpt lat="43.79816" lon="3.83963">
        <ele>429.2</ele>
        <time>2024-02-23T11:38:45Z</time>
      </trkpt>
      <trkpt lat="43.79818" lon="3.83965">
        <ele>428.6</ele>
        <time>2024-02-23T11:38:46Z</time>
      </trkpt>
      <trkpt lat="43.79821" lon="3.83966">
        <ele>428</ele>
        <time>2024-02-23T11:38:47Z</time>
      </trkpt>
      <trkpt lat="43.79822" lon="3.83967">
        <ele>427.6</ele>
        <time>2024-02-23T11:38:48Z</time>
      </trkpt>
      <trkpt lat="43.79824" lon="3.83969">
        <ele>427</ele>
        <time>2024-02-23T11:38:49Z</time>
      </trkpt>
      <trkpt lat="43.79826" lon="3.83971">
        <ele>426.4</ele>
        <time>2024-02-23T11:38:50Z</time>
      </trkpt>
      <trkpt lat="43.79828" lon="3.83972">
        <ele>425.8</ele>
        <time>2024-02-23T11:38:51Z</time>
      </trkpt>
      <trkpt lat="43.7983" lon="3.83973">
        <ele>425.4</ele>
        <time>2024-02-23T11:38:52Z</time>
      </trkpt>
      <trkpt lat="43.79833" lon="3.83974">
        <ele>424.8</ele>
        <time>2024-02-23T11:38:53Z</time>
      </trkpt>
      <trkpt lat="43.79836" lon="3.83975">
        <ele>424.4</ele>
        <time>2024-02-23T11:38:54Z</time>
      </trkpt>
      <trkpt lat="43.79839" lon="3.83976">
        <ele>423.8</ele>
        <time>2024-02-23T11:38:55Z</time>
      </trkpt>
      <trkpt lat="43.79841" lon="3.83977">
        <ele>423.4</ele>
        <time>2024-02-23T11:38:56Z</time>
      </trkpt>
      <trkpt lat="43.79843" lon="3.83978">
        <ele>423</ele>
        <time>2024-02-23T11:38:57Z</time>
      </trkpt>
      <trkpt lat="43.79845" lon="3.83978">
        <ele>422.6</ele>
        <time>2024-02-23T11:38:58Z</time>
      </trkpt>
      <trkpt lat="43.79849" lon="3.83979">
        <ele>422.4</ele>
        <time>2024-02-23T11:38:59Z</time>
      </trkpt>
      <trkpt lat="43.79851" lon="3.83979">
        <ele>422</ele>
        <time>2024-02-23T11:39:00Z</time>
      </trkpt>
      <trkpt lat="43.79853" lon="3.83979">
        <ele>421.6</ele>
        <time>2024-02-23T11:39:01Z</time>
      </trkpt>
      <trkpt lat="43.79856" lon="3.83979">
        <ele>421.2</ele>
        <time>2024-02-23T11:39:02Z</time>
      </trkpt>
      <trkpt lat="43.79858" lon="3.8398">
        <ele>420.8</ele>
        <time>2024-02-23T11:39:03Z</time>
      </trkpt>
      <trkpt lat="43.7986" lon="3.83982">
        <ele>420.4</ele>
        <time>2024-02-23T11:39:04Z</time>
      </trkpt>
      <trkpt lat="43.79862" lon="3.83985">
        <ele>420.2</ele>
        <time>2024-02-23T11:39:05Z</time>
      </trkpt>
      <trkpt lat="43.79864" lon="3.83987">
        <ele>419.8</ele>
        <time>2024-02-23T11:39:06Z</time>
      </trkpt>
      <trkpt lat="43.79866" lon="3.83989">
        <ele>419.6</ele>
        <time>2024-02-23T11:39:07Z</time>
      </trkpt>
      <trkpt lat="43.79868" lon="3.83989">
        <ele>419.2</ele>
        <time>2024-02-23T11:39:08Z</time>
      </trkpt>
      <trkpt lat="43.79871" lon="3.8399">
        <ele>418.8</ele>
        <time>2024-02-23T11:39:09Z</time>
      </trkpt>
      <trkpt lat="43.79873" lon="3.8399">
        <ele>418.4</ele>
        <time>2024-02-23T11:39:10Z</time>
      </trkpt>
      <trkpt lat="43.79875" lon="3.8399">
        <ele>418</ele>
        <time>2024-02-23T11:39:11Z</time>
      </trkpt>
      <trkpt lat="43.79875" lon="3.8399">
        <ele>417.6</ele>
        <time>2024-02-23T11:39:12Z</time>
      </trkpt>
      <trkpt lat="43.79877" lon="3.83991">
        <ele>417</ele>
        <time>2024-02-23T11:39:13Z</time>
      </trkpt>
      <trkpt lat="43.79877" lon="3.83991">
        <ele>416.6</ele>
        <time>2024-02-23T11:39:14Z</time>
      </trkpt>
      <trkpt lat="43.79877" lon="3.83991">
        <ele>416.2</ele>
        <time>2024-02-23T11:39:15Z</time>
      </trkpt>
      <trkpt lat="43.7988" lon="3.8399">
        <ele>416</ele>
        <time>2024-02-23T11:39:16Z</time>
      </trkpt>
      <trkpt lat="43.79882" lon="3.83989">
        <ele>415.6</ele>
        <time>2024-02-23T11:39:17Z</time>
      </trkpt>
      <trkpt lat="43.79885" lon="3.8399">
        <ele>415.4</ele>
        <time>2024-02-23T11:39:18Z</time>
      </trkpt>
      <trkpt lat="43.79887" lon="3.83991">
        <ele>415.2</ele>
        <time>2024-02-23T11:39:19Z</time>
      </trkpt>
      <trkpt lat="43.79889" lon="3.83993">
        <ele>415</ele>
        <time>2024-02-23T11:39:20Z</time>
      </trkpt>
      <trkpt lat="43.79891" lon="3.83995">
        <ele>414.8</ele>
        <time>2024-02-23T11:39:21Z</time>
      </trkpt>
      <trkpt lat="43.79892" lon="3.83997">
        <ele>414.6</ele>
        <time>2024-02-23T11:39:22Z</time>
      </trkpt>
      <trkpt lat="43.79893" lon="3.84">
        <ele>414.2</ele>
        <time>2024-02-23T11:39:23Z</time>
      </trkpt>
      <trkpt lat="43.79895" lon="3.84002">
        <ele>414</ele>
        <time>2024-02-23T11:39:24Z</time>
      </trkpt>
      <trkpt lat="43.79896" lon="3.84003">
        <ele>413.6</ele>
        <time>2024-02-23T11:39:25Z</time>
      </trkpt>
      <trkpt lat="43.79899" lon="3.84004">
        <ele>413.2</ele>
        <time>2024-02-23T11:39:26Z</time>
      </trkpt>
      <trkpt lat="43.79901" lon="3.84004">
        <ele>413</ele>
        <time>2024-02-23T11:39:27Z</time>
      </trkpt>
      <trkpt lat="43.79903" lon="3.84005">
        <ele>412.8</ele>
        <time>2024-02-23T11:39:28Z</time>
      </trkpt>
      <trkpt lat="43.79905" lon="3.84006">
        <ele>412.6</ele>
        <time>2024-02-23T11:39:29Z</time>
      </trkpt>
      <trkpt lat="43.79907" lon="3.84007">
        <ele>412.4</ele>
        <time>2024-02-23T11:39:30Z</time>
      </trkpt>
      <trkpt lat="43.79909" lon="3.84009">
        <ele>412</ele>
        <time>2024-02-23T11:39:31Z</time>
      </trkpt>
      <trkpt lat="43.79912" lon="3.8401">
        <ele>411.6</ele>
        <time>2024-02-23T11:39:32Z</time>
      </trkpt>
      <trkpt lat="43.79915" lon="3.84011">
        <ele>411.2</ele>
        <time>2024-02-23T11:39:33Z</time>
      </trkpt>
      <trkpt lat="43.79917" lon="3.8401">
        <ele>410.6</ele>
        <time>2024-02-23T11:39:34Z</time>
      </trkpt>
      <trkpt lat="43.79921" lon="3.84008">
        <ele>410.2</ele>
        <time>2024-02-23T11:39:35Z</time>
      </trkpt>
      <trkpt lat="43.79923" lon="3.84007">
        <ele>409.8</ele>
        <time>2024-02-23T11:39:36Z</time>
      </trkpt>
      <trkpt lat="43.79926" lon="3.84007">
        <ele>409.6</ele>
        <time>2024-02-23T11:39:37Z</time>
      </trkpt>
      <trkpt lat="43.79929" lon="3.84007">
        <ele>409.4</ele>
        <time>2024-02-23T11:39:38Z</time>
      </trkpt>
      <trkpt lat="43.79931" lon="3.84007">
        <ele>409.4</ele>
        <time>2024-02-23T11:39:39Z</time>
      </trkpt>
      <trkpt lat="43.79935" lon="3.84007">
        <ele>409.2</ele>
        <time>2024-02-23T11:39:40Z</time>
      </trkpt>
      <trkpt lat="43.79937" lon="3.84007">
        <ele>408.8</ele>
        <time>2024-02-23T11:39:41Z</time>
      </trkpt>
      <trkpt lat="43.7994" lon="3.84007">
        <ele>408.6</ele>
        <time>2024-02-23T11:39:42Z</time>
      </trkpt>
      <trkpt lat="43.79942" lon="3.84007">
        <ele>408.6</ele>
        <time>2024-02-23T11:39:43Z</time>
      </trkpt>
      <trkpt lat="43.79944" lon="3.84008">
        <ele>408.6</ele>
        <time>2024-02-23T11:39:44Z</time>
      </trkpt>
      <trkpt lat="43.79947" lon="3.84008">
        <ele>408.4</ele>
        <time>2024-02-23T11:39:45Z</time>
      </trkpt>
      <trkpt lat="43.79949" lon="3.84009">
        <ele>408.2</ele>
        <time>2024-02-23T11:39:46Z</time>
      </trkpt>
      <trkpt lat="43.79949" lon="3.84009">
        <ele>408</ele>
        <time>2024-02-23T11:39:47Z</time>
      </trkpt>
      <trkpt lat="43.79949" lon="3.84013">
        <ele>407.8</ele>
        <time>2024-02-23T11:39:48Z</time>
      </trkpt>
      <trkpt lat="43.79949" lon="3.84013">
        <ele>407.8</ele>
        <time>2024-02-23T11:39:49Z</time>
      </trkpt>
      <trkpt lat="43.79947" lon="3.84014">
        <ele>407.6</ele>
        <time>2024-02-23T11:39:50Z</time>
      </trkpt>
      <trkpt lat="43.79947" lon="3.84014">
        <ele>407.4</ele>
        <time>2024-02-23T11:39:51Z</time>
      </trkpt>
      <trkpt lat="43.79947" lon="3.84014">
        <ele>407</ele>
        <time>2024-02-23T11:39:52Z</time>
      </trkpt>
      <trkpt lat="43.79945" lon="3.84015">
        <ele>406.6</ele>
        <time>2024-02-23T11:39:53Z</time>
      </trkpt>
      <trkpt lat="43.79945" lon="3.84015">
        <ele>406</ele>
        <time>2024-02-23T11:39:54Z</time>
      </trkpt>
      <trkpt lat="43.79945" lon="3.84015">
        <ele>405.6</ele>
        <time>2024-02-23T11:39:55Z</time>
      </trkpt>
      <trkpt lat="43.79943" lon="3.84015">
        <ele>405.2</ele>
        <time>2024-02-23T11:39:56Z</time>
      </trkpt>
      <trkpt lat="43.79943" lon="3.84015">
        <ele>404.8</ele>
        <time>2024-02-23T11:39:57Z</time>
      </trkpt>
      <trkpt lat="43.79943" lon="3.84015">
        <ele>404.2</ele>
        <time>2024-02-23T11:39:58Z</time>
      </trkpt>
      <trkpt lat="43.79943" lon="3.84015">
        <ele>403.8</ele>
        <time>2024-02-23T11:39:59Z</time>
      </trkpt>
      <trkpt lat="43.79941" lon="3.84017">
        <ele>403.4</ele>
        <time>2024-02-23T11:40:00Z</time>
      </trkpt>
      <trkpt lat="43.79941" lon="3.84017">
        <ele>403</ele>
        <time>2024-02-23T11:40:01Z</time>
      </trkpt>
      <trkpt lat="43.79941" lon="3.84017">
        <ele>402.4</ele>
        <time>2024-02-23T11:40:02Z</time>
      </trkpt>
      <trkpt lat="43.79941" lon="3.84017">
        <ele>401.8</ele>
        <time>2024-02-23T11:40:03Z</time>
      </trkpt>
      <trkpt lat="43.79941" lon="3.84017">
        <ele>401.2</ele>
        <time>2024-02-23T11:40:04Z</time>
      </trkpt>
      <trkpt lat="43.79941" lon="3.84017">
        <ele>400.8</ele>
        <time>2024-02-23T11:40:05Z</time>
      </trkpt>
      <trkpt lat="43.79941" lon="3.84017">
        <ele>400.4</ele>
        <time>2024-02-23T11:40:06Z</time>
      </trkpt>
      <trkpt lat="43.79941" lon="3.84017">
        <ele>400</ele>
        <time>2024-02-23T11:40:07Z</time>
      </trkpt>
      <trkpt lat="43.7994" lon="3.84015">
        <ele>399.6</ele>
        <time>2024-02-23T11:40:08Z</time>
      </trkpt>
      <trkpt lat="43.7994" lon="3.84015">
        <ele>399.4</ele>
        <time>2024-02-23T11:40:09Z</time>
      </trkpt>
      <trkpt lat="43.7994" lon="3.84015">
        <ele>399</ele>
        <time>2024-02-23T11:40:10Z</time>
      </trkpt>
      <trkpt lat="43.7994" lon="3.84015">
        <ele>398.8</ele>
        <time>2024-02-23T11:40:11Z</time>
      </trkpt>
      <trkpt lat="43.7994" lon="3.84015">
        <ele>398.4</ele>
        <time>2024-02-23T11:40:12Z</time>
      </trkpt>
      <trkpt lat="43.7994" lon="3.84015">
        <ele>398.2</ele>
        <time>2024-02-23T11:40:13Z</time>
      </trkpt>
      <trkpt lat="43.7994" lon="3.84015">
        <ele>398</ele>
        <time>2024-02-23T11:40:14Z</time>
      </trkpt>
      <trkpt lat="43.7994" lon="3.84015">
        <ele>397.6</ele>
        <time>2024-02-23T11:40:15Z</time>
      </trkpt>
      <trkpt lat="43.79938" lon="3.84017">
        <ele>397.4</ele>
        <time>2024-02-23T11:40:16Z</time>
      </trkpt>
      <trkpt lat="43.79938" lon="3.84017">
        <ele>397.4</ele>
        <time>2024-02-23T11:40:17Z</time>
      </trkpt>
      <trkpt lat="43.79938" lon="3.8402">
        <ele>397.2</ele>
        <time>2024-02-23T11:40:18Z</time>
      </trkpt>
      <trkpt lat="43.79938" lon="3.8402">
        <ele>397</ele>
        <time>2024-02-23T11:40:19Z</time>
      </trkpt>
      <trkpt lat="43.79938" lon="3.8402">
        <ele>396.6</ele>
        <time>2024-02-23T11:40:20Z</time>
      </trkpt>
      <trkpt lat="43.79938" lon="3.8402">
        <ele>396.4</ele>
        <time>2024-02-23T11:40:21Z</time>
      </trkpt>
      <trkpt lat="43.79938" lon="3.8402">
        <ele>396</ele>
        <time>2024-02-23T11:40:22Z</time>
      </trkpt>
      <trkpt lat="43.79938" lon="3.8402">
        <ele>395.6</ele>
        <time>2024-02-23T11:40:23Z</time>
      </trkpt>
      <trkpt lat="43.79938" lon="3.8402">
        <ele>395.4</ele>
        <time>2024-02-23T11:40:24Z</time>
      </trkpt>
      <trkpt lat="43.79938" lon="3.8402">
        <ele>395.2</ele>
        <time>2024-02-23T11:40:25Z</time>
      </trkpt>
      <trkpt lat="43.79938" lon="3.8402">
        <ele>395</ele>
        <time>2024-02-23T11:40:26Z</time>
      </trkpt>
      <trkpt lat="43.79938" lon="3.8402">
        <ele>394.8</ele>
        <time>2024-02-23T11:40:27Z</time>
      </trkpt>
      <trkpt lat="43.79937" lon="3.84015">
        <ele>394.6</ele>
        <time>2024-02-23T11:40:28Z</time>
      </trkpt>
      <trkpt lat="43.79937" lon="3.84012">
        <ele>394.4</ele>
        <time>2024-02-23T11:40:29Z</time>
      </trkpt>
      <trkpt lat="43.79937" lon="3.84009">
        <ele>394.4</ele>
        <time>2024-02-23T11:40:30Z</time>
      </trkpt>
      <trkpt lat="43.79937" lon="3.84005">
        <ele>394.2</ele>
        <time>2024-02-23T11:40:31Z</time>
      </trkpt>
      <trkpt lat="43.79938" lon="3.84003">
        <ele>394.2</ele>
        <time>2024-02-23T11:40:32Z</time>
      </trkpt>
      <trkpt lat="43.79938" lon="3.84002">
        <ele>394</ele>
        <time>2024-02-23T11:40:33Z</time>
      </trkpt>
      <trkpt lat="43.79938" lon="3.84">
        <ele>394</ele>
        <time>2024-02-23T11:40:34Z</time>
      </trkpt>
      <trkpt lat="43.79938" lon="3.83998">
        <ele>394</ele>
        <time>2024-02-23T11:40:35Z</time>
      </trkpt>
      <trkpt lat="43.79939" lon="3.83996">
        <ele>393.8</ele>
        <time>2024-02-23T11:40:36Z</time>
      </trkpt>
      <trkpt lat="43.79939" lon="3.83995">
        <ele>393.8</ele>
        <time>2024-02-23T11:40:37Z</time>
      </trkpt>
      <trkpt lat="43.79939" lon="3.83993">
        <ele>393.6</ele>
        <time>2024-02-23T11:40:38Z</time>
      </trkpt>
      <trkpt lat="43.79939" lon="3.83991">
        <ele>393.6</ele>
        <time>2024-02-23T11:40:39Z</time>
      </trkpt>
      <trkpt lat="43.7994" lon="3.83989">
        <ele>393.6</ele>
        <time>2024-02-23T11:40:40Z</time>
      </trkpt>
      <trkpt lat="43.7994" lon="3.83989">
        <ele>393.6</ele>
        <time>2024-02-23T11:40:41Z</time>
      </trkpt>
      <trkpt lat="43.7994" lon="3.83985">
        <ele>393.4</ele>
        <time>2024-02-23T11:40:42Z</time>
      </trkpt>
      <trkpt lat="43.79941" lon="3.83981">
        <ele>393.4</ele>
        <time>2024-02-23T11:40:43Z</time>
      </trkpt>
      <trkpt lat="43.79941" lon="3.83981">
        <ele>393.4</ele>
        <time>2024-02-23T11:40:44Z</time>
      </trkpt>
      <trkpt lat="43.79941" lon="3.83981">
        <ele>393.2</ele>
        <time>2024-02-23T11:40:45Z</time>
      </trkpt>
      <trkpt lat="43.79941" lon="3.83981">
        <ele>392.8</ele>
        <time>2024-02-23T11:40:46Z</time>
      </trkpt>
      <trkpt lat="43.79941" lon="3.83981">
        <ele>392.4</ele>
        <time>2024-02-23T11:40:47Z</time>
      </trkpt>
      <trkpt lat="43.79941" lon="3.83981">
        <ele>392.2</ele>
        <time>2024-02-23T11:40:48Z</time>
      </trkpt>
      <trkpt lat="43.79941" lon="3.83981">
        <ele>392</ele>
        <time>2024-02-23T11:40:49Z</time>
      </trkpt>
      <trkpt lat="43.79942" lon="3.83983">
        <ele>391.6</ele>
        <time>2024-02-23T11:40:50Z</time>
      </trkpt>
      <trkpt lat="43.79942" lon="3.83983">
        <ele>391.2</ele>
        <time>2024-02-23T11:40:51Z</time>
      </trkpt>
      <trkpt lat="43.79942" lon="3.83986">
        <ele>390.6</ele>
        <time>2024-02-23T11:40:52Z</time>
      </trkpt>
      <trkpt lat="43.79942" lon="3.83986">
        <ele>390.2</ele>
        <time>2024-02-23T11:40:53Z</time>
      </trkpt>
      <trkpt lat="43.79942" lon="3.83989">
        <ele>389.8</ele>
        <time>2024-02-23T11:40:54Z</time>
      </trkpt>
      <trkpt lat="43.79942" lon="3.83989">
        <ele>389.2</ele>
        <time>2024-02-23T11:40:55Z</time>
      </trkpt>
      <trkpt lat="43.7994" lon="3.83992">
        <ele>388.8</ele>
        <time>2024-02-23T11:40:56Z</time>
      </trkpt>
      <trkpt lat="43.7994" lon="3.83992">
        <ele>388.2</ele>
        <time>2024-02-23T11:40:57Z</time>
      </trkpt>
      <trkpt lat="43.79939" lon="3.83994">
        <ele>387.8</ele>
        <time>2024-02-23T11:40:58Z</time>
      </trkpt>
      <trkpt lat="43.79939" lon="3.83994">
        <ele>387.2</ele>
        <time>2024-02-23T11:40:59Z</time>
      </trkpt>
      <trkpt lat="43.79937" lon="3.83997">
        <ele>386.8</ele>
        <time>2024-02-23T11:41:00Z</time>
      </trkpt>
      <trkpt lat="43.79937" lon="3.83997">
        <ele>386.4</ele>
        <time>2024-02-23T11:41:01Z</time>
      </trkpt>
      <trkpt lat="43.79934" lon="3.84">
        <ele>386</ele>
        <time>2024-02-23T11:41:02Z</time>
      </trkpt>
      <trkpt lat="43.79932" lon="3.84001">
        <ele>385.6</ele>
        <time>2024-02-23T11:41:03Z</time>
      </trkpt>
      <trkpt lat="43.79932" lon="3.84001">
        <ele>385.2</ele>
        <time>2024-02-23T11:41:04Z</time>
      </trkpt>
      <trkpt lat="43.79929" lon="3.84003">
        <ele>384.8</ele>
        <time>2024-02-23T11:41:05Z</time>
      </trkpt>
      <trkpt lat="43.79929" lon="3.84003">
        <ele>384.4</ele>
        <time>2024-02-23T11:41:06Z</time>
      </trkpt>
      <trkpt lat="43.79928" lon="3.84007">
        <ele>384</ele>
        <time>2024-02-23T11:41:07Z</time>
      </trkpt>
      <trkpt lat="43.79928" lon="3.84007">
        <ele>383.6</ele>
        <time>2024-02-23T11:41:08Z</time>
      </trkpt>
      <trkpt lat="43.79927" lon="3.84011">
        <ele>383.2</ele>
        <time>2024-02-23T11:41:09Z</time>
      </trkpt>
      <trkpt lat="43.79927" lon="3.84011">
        <ele>382.8</ele>
        <time>2024-02-23T11:41:10Z</time>
      </trkpt>
      <trkpt lat="43.79926" lon="3.84015">
        <ele>382.2</ele>
        <time>2024-02-23T11:41:11Z</time>
      </trkpt>
      <trkpt lat="43.79926" lon="3.84015">
        <ele>381.8</ele>
        <time>2024-02-23T11:41:12Z</time>
      </trkpt>
      <trkpt lat="43.79924" lon="3.84017">
        <ele>381.2</ele>
        <time>2024-02-23T11:41:13Z</time>
      </trkpt>
      <trkpt lat="43.79923" lon="3.84019">
        <ele>380.8</ele>
        <time>2024-02-23T11:41:14Z</time>
      </trkpt>
      <trkpt lat="43.79923" lon="3.84019">
        <ele>380.2</ele>
        <time>2024-02-23T11:41:15Z</time>
      </trkpt>
      <trkpt lat="43.79923" lon="3.84019">
        <ele>379.6</ele>
        <time>2024-02-23T11:41:16Z</time>
      </trkpt>
      <trkpt lat="43.79923" lon="3.84019">
        <ele>379.2</ele>
        <time>2024-02-23T11:41:17Z</time>
      </trkpt>
      <trkpt lat="43.79921" lon="3.84017">
        <ele>378.6</ele>
        <time>2024-02-23T11:41:18Z</time>
      </trkpt>
      <trkpt lat="43.79921" lon="3.84017">
        <ele>378.2</ele>
        <time>2024-02-23T11:41:19Z</time>
      </trkpt>
      <trkpt lat="43.79921" lon="3.84017">
        <ele>378</ele>
        <time>2024-02-23T11:41:20Z</time>
      </trkpt>
      <trkpt lat="43.79921" lon="3.84017">
        <ele>377.6</ele>
        <time>2024-02-23T11:41:21Z</time>
      </trkpt>
      <trkpt lat="43.79921" lon="3.84017">
        <ele>377.2</ele>
        <time>2024-02-23T11:41:22Z</time>
      </trkpt>
      <trkpt lat="43.79921" lon="3.84017">
        <ele>377</ele>
        <time>2024-02-23T11:41:23Z</time>
      </trkpt>
      <trkpt lat="43.79921" lon="3.84017">
        <ele>376.8</ele>
        <time>2024-02-23T11:41:24Z</time>
      </trkpt>
      <trkpt lat="43.79921" lon="3.84017">
        <ele>376.6</ele>
        <time>2024-02-23T11:41:25Z</time>
      </trkpt>
      <trkpt lat="43.79921" lon="3.84017">
        <ele>376.4</ele>
        <time>2024-02-23T11:41:26Z</time>
      </trkpt>
      <trkpt lat="43.79921" lon="3.84017">
        <ele>376.2</ele>
        <time>2024-02-23T11:41:27Z</time>
      </trkpt>
      <trkpt lat="43.79921" lon="3.84017">
        <ele>376.2</ele>
        <time>2024-02-23T11:41:28Z</time>
      </trkpt>
      <trkpt lat="43.79921" lon="3.84017">
        <ele>375.8</ele>
        <time>2024-02-23T11:41:29Z</time>
      </trkpt>
      <trkpt lat="43.79921" lon="3.84017">
        <ele>375.6</ele>
        <time>2024-02-23T11:41:30Z</time>
      </trkpt>
      <trkpt lat="43.79921" lon="3.84017">
        <ele>375.2</ele>
        <time>2024-02-23T11:41:31Z</time>
      </trkpt>
      <trkpt lat="43.79921" lon="3.84017">
        <ele>374.8</ele>
        <time>2024-02-23T11:41:32Z</time>
      </trkpt>
      <trkpt lat="43.7992" lon="3.8402">
        <ele>374.4</ele>
        <time>2024-02-23T11:41:33Z</time>
      </trkpt>
      <trkpt lat="43.7992" lon="3.8402">
        <ele>373.8</ele>
        <time>2024-02-23T11:41:34Z</time>
      </trkpt>
      <trkpt lat="43.79918" lon="3.8402">
        <ele>373.4</ele>
        <time>2024-02-23T11:41:35Z</time>
      </trkpt>
      <trkpt lat="43.79918" lon="3.8402">
        <ele>373.2</ele>
        <time>2024-02-23T11:41:36Z</time>
      </trkpt>
      <trkpt lat="43.79918" lon="3.8402">
        <ele>372.8</ele>
        <time>2024-02-23T11:41:37Z</time>
      </trkpt>
      <trkpt lat="43.79917" lon="3.84021">
        <ele>372.4</ele>
        <time>2024-02-23T11:41:38Z</time>
      </trkpt>
      <trkpt lat="43.79917" lon="3.84021">
        <ele>372</ele>
        <time>2024-02-23T11:41:39Z</time>
      </trkpt>
      <trkpt lat="43.79917" lon="3.84021">
        <ele>371.4</ele>
        <time>2024-02-23T11:41:40Z</time>
      </trkpt>
      <trkpt lat="43.79915" lon="3.84023">
        <ele>371</ele>
        <time>2024-02-23T11:41:41Z</time>
      </trkpt>
      <trkpt lat="43.79915" lon="3.84023">
        <ele>370.4</ele>
        <time>2024-02-23T11:41:42Z</time>
      </trkpt>
      <trkpt lat="43.79915" lon="3.84023">
        <ele>369.8</ele>
        <time>2024-02-23T11:41:43Z</time>
      </trkpt>
      <trkpt lat="43.79913" lon="3.84025">
        <ele>369.4</ele>
        <time>2024-02-23T11:41:44Z</time>
      </trkpt>
      <trkpt lat="43.79913" lon="3.84025">
        <ele>369</ele>
        <time>2024-02-23T11:41:45Z</time>
      </trkpt>
      <trkpt lat="43.79913" lon="3.84025">
        <ele>368.4</ele>
        <time>2024-02-23T11:41:46Z</time>
      </trkpt>
      <trkpt lat="43.79911" lon="3.84027">
        <ele>367.8</ele>
        <time>2024-02-23T11:41:47Z</time>
      </trkpt>
      <trkpt lat="43.79911" lon="3.84027">
        <ele>367.4</ele>
        <time>2024-02-23T11:41:48Z</time>
      </trkpt>
      <trkpt lat="43.79911" lon="3.84027">
        <ele>366.8</ele>
        <time>2024-02-23T11:41:49Z</time>
      </trkpt>
      <trkpt lat="43.79911" lon="3.84027">
        <ele>366.2</ele>
        <time>2024-02-23T11:41:50Z</time>
      </trkpt>
      <trkpt lat="43.79911" lon="3.84027">
        <ele>365.6</ele>
        <time>2024-02-23T11:41:51Z</time>
      </trkpt>
      <trkpt lat="43.79909" lon="3.84029">
        <ele>365</ele>
        <time>2024-02-23T11:41:52Z</time>
      </trkpt>
      <trkpt lat="43.79909" lon="3.84029">
        <ele>364.4</ele>
        <time>2024-02-23T11:41:53Z</time>
      </trkpt>
      <trkpt lat="43.79907" lon="3.8403">
        <ele>363.8</ele>
        <time>2024-02-23T11:41:54Z</time>
      </trkpt>
      <trkpt lat="43.79907" lon="3.8403">
        <ele>363.2</ele>
        <time>2024-02-23T11:41:55Z</time>
      </trkpt>
      <trkpt lat="43.79904" lon="3.84032">
        <ele>362.6</ele>
        <time>2024-02-23T11:41:56Z</time>
      </trkpt>
      <trkpt lat="43.79904" lon="3.84032">
        <ele>362</ele>
        <time>2024-02-23T11:41:57Z</time>
      </trkpt>
      <trkpt lat="43.79901" lon="3.84035">
        <ele>361.4</ele>
        <time>2024-02-23T11:41:58Z</time>
      </trkpt>
      <trkpt lat="43.79899" lon="3.84037">
        <ele>360.8</ele>
        <time>2024-02-23T11:41:59Z</time>
      </trkpt>
      <trkpt lat="43.79897" lon="3.84037">
        <ele>360.2</ele>
        <time>2024-02-23T11:42:00Z</time>
      </trkpt>
      <trkpt lat="43.79895" lon="3.84038">
        <ele>359.8</ele>
        <time>2024-02-23T11:42:01Z</time>
      </trkpt>
      <trkpt lat="43.79893" lon="3.84038">
        <ele>359.2</ele>
        <time>2024-02-23T11:42:02Z</time>
      </trkpt>
      <trkpt lat="43.79891" lon="3.84038">
        <ele>358.6</ele>
        <time>2024-02-23T11:42:03Z</time>
      </trkpt>
      <trkpt lat="43.79888" lon="3.84038">
        <ele>358</ele>
        <time>2024-02-23T11:42:04Z</time>
      </trkpt>
      <trkpt lat="43.79886" lon="3.84039">
        <ele>357.4</ele>
        <time>2024-02-23T11:42:05Z</time>
      </trkpt>
      <trkpt lat="43.79886" lon="3.84039">
        <ele>357</ele>
        <time>2024-02-23T11:42:06Z</time>
      </trkpt>
      <trkpt lat="43.79883" lon="3.84037">
        <ele>356.6</ele>
        <time>2024-02-23T11:42:07Z</time>
      </trkpt>
      <trkpt lat="43.79883" lon="3.84037">
        <ele>356.4</ele>
        <time>2024-02-23T11:42:08Z</time>
      </trkpt>
      <trkpt lat="43.79881" lon="3.84036">
        <ele>356.2</ele>
        <time>2024-02-23T11:42:09Z</time>
      </trkpt>
      <trkpt lat="43.79878" lon="3.84035">
        <ele>356</ele>
        <time>2024-02-23T11:42:10Z</time>
      </trkpt>
      <trkpt lat="43.79875" lon="3.84036">
        <ele>355.8</ele>
        <time>2024-02-23T11:42:11Z</time>
      </trkpt>
      <trkpt lat="43.79873" lon="3.84036">
        <ele>355.6</ele>
        <time>2024-02-23T11:42:12Z</time>
      </trkpt>
      <trkpt lat="43.79873" lon="3.84036">
        <ele>355.4</ele>
        <time>2024-02-23T11:42:13Z</time>
      </trkpt>
      <trkpt lat="43.79869" lon="3.84037">
        <ele>355.2</ele>
        <time>2024-02-23T11:42:14Z</time>
      </trkpt>
      <trkpt lat="43.79867" lon="3.84038">
        <ele>354.8</ele>
        <time>2024-02-23T11:42:15Z</time>
      </trkpt>
      <trkpt lat="43.79865" lon="3.84039">
        <ele>354.4</ele>
        <time>2024-02-23T11:42:16Z</time>
      </trkpt>
      <trkpt lat="43.79863" lon="3.84038">
        <ele>354</ele>
        <time>2024-02-23T11:42:17Z</time>
      </trkpt>
      <trkpt lat="43.79861" lon="3.84037">
        <ele>353.8</ele>
        <time>2024-02-23T11:42:18Z</time>
      </trkpt>
      <trkpt lat="43.79861" lon="3.84037">
        <ele>353.6</ele>
        <time>2024-02-23T11:42:19Z</time>
      </trkpt>
      <trkpt lat="43.79859" lon="3.84036">
        <ele>353.4</ele>
        <time>2024-02-23T11:42:20Z</time>
      </trkpt>
      <trkpt lat="43.79859" lon="3.84036">
        <ele>353.4</ele>
        <time>2024-02-23T11:42:21Z</time>
      </trkpt>
      <trkpt lat="43.79857" lon="3.84035">
        <ele>353.6</ele>
        <time>2024-02-23T11:42:22Z</time>
      </trkpt>
      <trkpt lat="43.79857" lon="3.84035">
        <ele>353.6</ele>
        <time>2024-02-23T11:42:23Z</time>
      </trkpt>
      <trkpt lat="43.79854" lon="3.84035">
        <ele>353.6</ele>
        <time>2024-02-23T11:42:24Z</time>
      </trkpt>
      <trkpt lat="43.79851" lon="3.84036">
        <ele>353.6</ele>
        <time>2024-02-23T11:42:25Z</time>
      </trkpt>
      <trkpt lat="43.79849" lon="3.84037">
        <ele>353.4</ele>
        <time>2024-02-23T11:42:26Z</time>
      </trkpt>
      <trkpt lat="43.79847" lon="3.84037">
        <ele>353.2</ele>
        <time>2024-02-23T11:42:27Z</time>
      </trkpt>
      <trkpt lat="43.79844" lon="3.84037">
        <ele>353</ele>
        <time>2024-02-23T11:42:28Z</time>
      </trkpt>
      <trkpt lat="43.79841" lon="3.84038">
        <ele>352.8</ele>
        <time>2024-02-23T11:42:29Z</time>
      </trkpt>
      <trkpt lat="43.79839" lon="3.84038">
        <ele>352.6</ele>
        <time>2024-02-23T11:42:30Z</time>
      </trkpt>
      <trkpt lat="43.79836" lon="3.84038">
        <ele>352.6</ele>
        <time>2024-02-23T11:42:31Z</time>
      </trkpt>
      <trkpt lat="43.79834" lon="3.84038">
        <ele>352.4</ele>
        <time>2024-02-23T11:42:32Z</time>
      </trkpt>
      <trkpt lat="43.79834" lon="3.84038">
        <ele>352.4</ele>
        <time>2024-02-23T11:42:33Z</time>
      </trkpt>
      <trkpt lat="43.79831" lon="3.84038">
        <ele>352.6</ele>
        <time>2024-02-23T11:42:34Z</time>
      </trkpt>
      <trkpt lat="43.79831" lon="3.84038">
        <ele>352.8</ele>
        <time>2024-02-23T11:42:35Z</time>
      </trkpt>
      <trkpt lat="43.7983" lon="3.84036">
        <ele>353</ele>
        <time>2024-02-23T11:42:36Z</time>
      </trkpt>
      <trkpt lat="43.7983" lon="3.84036">
        <ele>353.2</ele>
        <time>2024-02-23T11:42:37Z</time>
      </trkpt>
      <trkpt lat="43.7983" lon="3.84036">
        <ele>353.6</ele>
        <time>2024-02-23T11:42:38Z</time>
      </trkpt>
      <trkpt lat="43.79828" lon="3.84034">
        <ele>353.8</ele>
        <time>2024-02-23T11:42:39Z</time>
      </trkpt>
      <trkpt lat="43.79826" lon="3.84033">
        <ele>354</ele>
        <time>2024-02-23T11:42:40Z</time>
      </trkpt>
      <trkpt lat="43.79826" lon="3.84033">
        <ele>354.4</ele>
        <time>2024-02-23T11:42:41Z</time>
      </trkpt>
      <trkpt lat="43.79823" lon="3.84033">
        <ele>354.4</ele>
        <time>2024-02-23T11:42:42Z</time>
      </trkpt>
      <trkpt lat="43.79823" lon="3.84033">
        <ele>354.6</ele>
        <time>2024-02-23T11:42:43Z</time>
      </trkpt>
      <trkpt lat="43.7982" lon="3.84032">
        <ele>354.6</ele>
        <time>2024-02-23T11:42:44Z</time>
      </trkpt>
      <trkpt lat="43.7982" lon="3.84032">
        <ele>354.6</ele>
        <time>2024-02-23T11:42:45Z</time>
      </trkpt>
      <trkpt lat="43.79817" lon="3.84031">
        <ele>354.8</ele>
        <time>2024-02-23T11:42:46Z</time>
      </trkpt>
      <trkpt lat="43.79817" lon="3.84031">
        <ele>355</ele>
        <time>2024-02-23T11:42:47Z</time>
      </trkpt>
      <trkpt lat="43.79815" lon="3.84029">
        <ele>355</ele>
        <time>2024-02-23T11:42:48Z</time>
      </trkpt>
      <trkpt lat="43.79815" lon="3.84029">
        <ele>355.2</ele>
        <time>2024-02-23T11:42:49Z</time>
      </trkpt>
      <trkpt lat="43.79813" lon="3.84029">
        <ele>355.4</ele>
        <time>2024-02-23T11:42:50Z</time>
      </trkpt>
      <trkpt lat="43.79813" lon="3.84029">
        <ele>355.8</ele>
        <time>2024-02-23T11:42:51Z</time>
      </trkpt>
      <trkpt lat="43.7981" lon="3.84028">
        <ele>355.8</ele>
        <time>2024-02-23T11:42:52Z</time>
      </trkpt>
      <trkpt lat="43.7981" lon="3.84028">
        <ele>356.2</ele>
        <time>2024-02-23T11:42:53Z</time>
      </trkpt>
      <trkpt lat="43.79808" lon="3.84027">
        <ele>356.2</ele>
        <time>2024-02-23T11:42:54Z</time>
      </trkpt>
      <trkpt lat="43.79808" lon="3.84027">
        <ele>356.4</ele>
        <time>2024-02-23T11:42:55Z</time>
      </trkpt>
      <trkpt lat="43.79805" lon="3.84026">
        <ele>356.2</ele>
        <time>2024-02-23T11:42:56Z</time>
      </trkpt>
      <trkpt lat="43.79804" lon="3.84025">
        <ele>356.2</ele>
        <time>2024-02-23T11:42:57Z</time>
      </trkpt>
      <trkpt lat="43.79802" lon="3.84024">
        <ele>356</ele>
        <time>2024-02-23T11:42:58Z</time>
      </trkpt>
      <trkpt lat="43.798" lon="3.84023">
        <ele>356</ele>
        <time>2024-02-23T11:42:59Z</time>
      </trkpt>
      <trkpt lat="43.798" lon="3.84023">
        <ele>356</ele>
        <time>2024-02-23T11:43:00Z</time>
      </trkpt>
      <trkpt lat="43.79797" lon="3.84021">
        <ele>356</ele>
        <time>2024-02-23T11:43:01Z</time>
      </trkpt>
      <trkpt lat="43.79796" lon="3.8402">
        <ele>356</ele>
        <time>2024-02-23T11:43:02Z</time>
      </trkpt>
      <trkpt lat="43.79794" lon="3.84019">
        <ele>356.2</ele>
        <time>2024-02-23T11:43:03Z</time>
      </trkpt>
      <trkpt lat="43.79791" lon="3.84018">
        <ele>356.4</ele>
        <time>2024-02-23T11:43:04Z</time>
      </trkpt>
      <trkpt lat="43.79789" lon="3.84017">
        <ele>356.8</ele>
        <time>2024-02-23T11:43:05Z</time>
      </trkpt>
      <trkpt lat="43.79786" lon="3.84018">
        <ele>357</ele>
        <time>2024-02-23T11:43:06Z</time>
      </trkpt>
      <trkpt lat="43.79783" lon="3.84017">
        <ele>357.2</ele>
        <time>2024-02-23T11:43:07Z</time>
      </trkpt>
      <trkpt lat="43.7978" lon="3.84017">
        <ele>357.4</ele>
        <time>2024-02-23T11:43:08Z</time>
      </trkpt>
      <trkpt lat="43.79778" lon="3.84017">
        <ele>356.8</ele>
        <time>2024-02-23T11:44:37Z</time>
      </trkpt>
      <trkpt lat="43.79776" lon="3.84018">
        <ele>356.8</ele>
        <time>2024-02-23T11:44:38Z</time>
      </trkpt>
      <trkpt lat="43.79774" lon="3.84018">
        <ele>356.8</ele>
        <time>2024-02-23T11:44:39Z</time>
      </trkpt>
      <trkpt lat="43.79772" lon="3.84019">
        <ele>356.8</ele>
        <time>2024-02-23T11:44:40Z</time>
      </trkpt>
      <trkpt lat="43.79771" lon="3.84019">
        <ele>357</ele>
        <time>2024-02-23T11:44:41Z</time>
      </trkpt>
      <trkpt lat="43.79768" lon="3.84018">
        <ele>357.2</ele>
        <time>2024-02-23T11:44:42Z</time>
      </trkpt>
      <trkpt lat="43.79765" lon="3.84018">
        <ele>357.2</ele>
        <time>2024-02-23T11:44:43Z</time>
      </trkpt>
      <trkpt lat="43.79763" lon="3.84016">
        <ele>357.4</ele>
        <time>2024-02-23T11:44:44Z</time>
      </trkpt>
      <trkpt lat="43.79763" lon="3.84016">
        <ele>357.6</ele>
        <time>2024-02-23T11:44:45Z</time>
      </trkpt>
      <trkpt lat="43.7976" lon="3.84015">
        <ele>358</ele>
        <time>2024-02-23T11:44:46Z</time>
      </trkpt>
      <trkpt lat="43.79757" lon="3.84015">
        <ele>358.2</ele>
        <time>2024-02-23T11:44:47Z</time>
      </trkpt>
      <trkpt lat="43.79754" lon="3.84014">
        <ele>358.4</ele>
        <time>2024-02-23T11:44:48Z</time>
      </trkpt>
      <trkpt lat="43.7975" lon="3.84015">
        <ele>358.6</ele>
        <time>2024-02-23T11:44:49Z</time>
      </trkpt>
      <trkpt lat="43.79749" lon="3.84016">
        <ele>358.8</ele>
        <time>2024-02-23T11:44:50Z</time>
      </trkpt>
      <trkpt lat="43.79746" lon="3.84016">
        <ele>358.8</ele>
        <time>2024-02-23T11:44:51Z</time>
      </trkpt>
      <trkpt lat="43.79742" lon="3.84017">
        <ele>358.6</ele>
        <time>2024-02-23T11:44:52Z</time>
      </trkpt>
      <trkpt lat="43.79739" lon="3.84017">
        <ele>358.4</ele>
        <time>2024-02-23T11:44:53Z</time>
      </trkpt>
      <trkpt lat="43.79736" lon="3.84017">
        <ele>358.2</ele>
        <time>2024-02-23T11:44:54Z</time>
      </trkpt>
      <trkpt lat="43.79734" lon="3.84017">
        <ele>358.2</ele>
        <time>2024-02-23T11:44:55Z</time>
      </trkpt>
      <trkpt lat="43.79732" lon="3.84016">
        <ele>358</ele>
        <time>2024-02-23T11:44:56Z</time>
      </trkpt>
      <trkpt lat="43.7973" lon="3.84015">
        <ele>358</ele>
        <time>2024-02-23T11:44:57Z</time>
      </trkpt>
      <trkpt lat="43.79727" lon="3.84013">
        <ele>357.8</ele>
        <time>2024-02-23T11:44:58Z</time>
      </trkpt>
      <trkpt lat="43.79725" lon="3.8401">
        <ele>357.6</ele>
        <time>2024-02-23T11:44:59Z</time>
      </trkpt>
      <trkpt lat="43.79724" lon="3.84008">
        <ele>357.6</ele>
        <time>2024-02-23T11:45:00Z</time>
      </trkpt>
      <trkpt lat="43.79723" lon="3.84006">
        <ele>357.6</ele>
        <time>2024-02-23T11:45:01Z</time>
      </trkpt>
      <trkpt lat="43.79723" lon="3.84006">
        <ele>357.8</ele>
        <time>2024-02-23T11:45:02Z</time>
      </trkpt>
      <trkpt lat="43.79722" lon="3.84002">
        <ele>357.8</ele>
        <time>2024-02-23T11:45:03Z</time>
      </trkpt>
      <trkpt lat="43.79722" lon="3.84002">
        <ele>358</ele>
        <time>2024-02-23T11:45:04Z</time>
      </trkpt>
      <trkpt lat="43.79718" lon="3.84002">
        <ele>358.2</ele>
        <time>2024-02-23T11:45:05Z</time>
      </trkpt>
      <trkpt lat="43.79717" lon="3.84001">
        <ele>358</ele>
        <time>2024-02-23T11:45:06Z</time>
      </trkpt>
      <trkpt lat="43.79717" lon="3.84001">
        <ele>357.8</ele>
        <time>2024-02-23T11:45:07Z</time>
      </trkpt>
      <trkpt lat="43.79714" lon="3.84001">
        <ele>357.4</ele>
        <time>2024-02-23T11:45:08Z</time>
      </trkpt>
      <trkpt lat="43.79714" lon="3.84001">
        <ele>357.2</ele>
        <time>2024-02-23T11:45:09Z</time>
      </trkpt>
      <trkpt lat="43.79711" lon="3.84003">
        <ele>356.6</ele>
        <time>2024-02-23T11:45:10Z</time>
      </trkpt>
      <trkpt lat="43.79711" lon="3.84003">
        <ele>356.2</ele>
        <time>2024-02-23T11:45:11Z</time>
      </trkpt>
      <trkpt lat="43.79709" lon="3.84005">
        <ele>355.6</ele>
        <time>2024-02-23T11:45:12Z</time>
      </trkpt>
      <trkpt lat="43.79709" lon="3.84005">
        <ele>355</ele>
        <time>2024-02-23T11:45:13Z</time>
      </trkpt>
      <trkpt lat="43.79707" lon="3.84007">
        <ele>354.4</ele>
        <time>2024-02-23T11:45:14Z</time>
      </trkpt>
      <trkpt lat="43.79705" lon="3.8401">
        <ele>353.8</ele>
        <time>2024-02-23T11:45:15Z</time>
      </trkpt>
      <trkpt lat="43.79704" lon="3.84013">
        <ele>353.2</ele>
        <time>2024-02-23T11:45:16Z</time>
      </trkpt>
      <trkpt lat="43.79704" lon="3.84013">
        <ele>352.6</ele>
        <time>2024-02-23T11:45:17Z</time>
      </trkpt>
      <trkpt lat="43.79701" lon="3.84014">
        <ele>351.8</ele>
        <time>2024-02-23T11:45:18Z</time>
      </trkpt>
      <trkpt lat="43.79698" lon="3.84017">
        <ele>351.4</ele>
        <time>2024-02-23T11:45:19Z</time>
      </trkpt>
      <trkpt lat="43.79696" lon="3.84017">
        <ele>350.8</ele>
        <time>2024-02-23T11:45:20Z</time>
      </trkpt>
      <trkpt lat="43.79696" lon="3.84017">
        <ele>350.2</ele>
        <time>2024-02-23T11:45:21Z</time>
      </trkpt>
      <trkpt lat="43.79694" lon="3.84017">
        <ele>349.4</ele>
        <time>2024-02-23T11:45:22Z</time>
      </trkpt>
      <trkpt lat="43.79694" lon="3.84017">
        <ele>348.8</ele>
        <time>2024-02-23T11:45:23Z</time>
      </trkpt>
      <trkpt lat="43.79692" lon="3.84018">
        <ele>348.2</ele>
        <time>2024-02-23T11:45:24Z</time>
      </trkpt>
      <trkpt lat="43.7969" lon="3.84019">
        <ele>347.6</ele>
        <time>2024-02-23T11:45:25Z</time>
      </trkpt>
      <trkpt lat="43.79688" lon="3.84021">
        <ele>347</ele>
        <time>2024-02-23T11:45:26Z</time>
      </trkpt>
      <trkpt lat="43.79686" lon="3.84021">
        <ele>346.4</ele>
        <time>2024-02-23T11:45:27Z</time>
      </trkpt>
      <trkpt lat="43.79684" lon="3.84022">
        <ele>345.6</ele>
        <time>2024-02-23T11:45:28Z</time>
      </trkpt>
      <trkpt lat="43.79682" lon="3.84022">
        <ele>345</ele>
        <time>2024-02-23T11:45:29Z</time>
      </trkpt>
      <trkpt lat="43.79679" lon="3.84024">
        <ele>344.2</ele>
        <time>2024-02-23T11:45:30Z</time>
      </trkpt>
      <trkpt lat="43.79679" lon="3.84024">
        <ele>343.4</ele>
        <time>2024-02-23T11:45:31Z</time>
      </trkpt>
      <trkpt lat="43.79677" lon="3.84027">
        <ele>342.6</ele>
        <time>2024-02-23T11:45:32Z</time>
      </trkpt>
      <trkpt lat="43.79677" lon="3.84027">
        <ele>342</ele>
        <time>2024-02-23T11:45:33Z</time>
      </trkpt>
      <trkpt lat="43.79677" lon="3.84027">
        <ele>341.2</ele>
        <time>2024-02-23T11:45:34Z</time>
      </trkpt>
      <trkpt lat="43.79677" lon="3.84027">
        <ele>340.6</ele>
        <time>2024-02-23T11:45:35Z</time>
      </trkpt>
      <trkpt lat="43.79676" lon="3.84029">
        <ele>339.8</ele>
        <time>2024-02-23T11:45:36Z</time>
      </trkpt>
      <trkpt lat="43.79676" lon="3.84029">
        <ele>339.2</ele>
        <time>2024-02-23T11:45:37Z</time>
      </trkpt>
      <trkpt lat="43.79676" lon="3.84029">
        <ele>338.4</ele>
        <time>2024-02-23T11:45:38Z</time>
      </trkpt>
      <trkpt lat="43.79674" lon="3.8403">
        <ele>337.6</ele>
        <time>2024-02-23T11:45:39Z</time>
      </trkpt>
      <trkpt lat="43.79673" lon="3.84033">
        <ele>336.8</ele>
        <time>2024-02-23T11:45:40Z</time>
      </trkpt>
      <trkpt lat="43.79672" lon="3.84035">
        <ele>336</ele>
        <time>2024-02-23T11:45:41Z</time>
      </trkpt>
      <trkpt lat="43.79671" lon="3.84038">
        <ele>335</ele>
        <time>2024-02-23T11:45:42Z</time>
      </trkpt>
      <trkpt lat="43.7967" lon="3.84041">
        <ele>334.2</ele>
        <time>2024-02-23T11:45:43Z</time>
      </trkpt>
      <trkpt lat="43.79669" lon="3.84044">
        <ele>333.4</ele>
        <time>2024-02-23T11:45:44Z</time>
      </trkpt>
      <trkpt lat="43.79667" lon="3.84046">
        <ele>332.6</ele>
        <time>2024-02-23T11:45:45Z</time>
      </trkpt>
      <trkpt lat="43.79667" lon="3.84046">
        <ele>331.8</ele>
        <time>2024-02-23T11:45:46Z</time>
      </trkpt>
      <trkpt lat="43.79667" lon="3.84046">
        <ele>330.8</ele>
        <time>2024-02-23T11:45:47Z</time>
      </trkpt>
      <trkpt lat="43.79667" lon="3.8405">
        <ele>330</ele>
        <time>2024-02-23T11:45:48Z</time>
      </trkpt>
      <trkpt lat="43.79667" lon="3.8405">
        <ele>329</ele>
        <time>2024-02-23T11:45:49Z</time>
      </trkpt>
      <trkpt lat="43.79666" lon="3.84053">
        <ele>328.2</ele>
        <time>2024-02-23T11:45:50Z</time>
      </trkpt>
      <trkpt lat="43.79666" lon="3.84053">
        <ele>327.2</ele>
        <time>2024-02-23T11:45:51Z</time>
      </trkpt>
      <trkpt lat="43.79665" lon="3.84055">
        <ele>326.4</ele>
        <time>2024-02-23T11:45:52Z</time>
      </trkpt>
      <trkpt lat="43.79665" lon="3.84055">
        <ele>325.8</ele>
        <time>2024-02-23T11:45:53Z</time>
      </trkpt>
      <trkpt lat="43.79665" lon="3.8406">
        <ele>325.2</ele>
        <time>2024-02-23T11:45:54Z</time>
      </trkpt>
      <trkpt lat="43.79665" lon="3.8406">
        <ele>324.4</ele>
        <time>2024-02-23T11:45:55Z</time>
      </trkpt>
      <trkpt lat="43.79667" lon="3.84063">
        <ele>323.6</ele>
        <time>2024-02-23T11:45:56Z</time>
      </trkpt>
      <trkpt lat="43.79667" lon="3.84065">
        <ele>323</ele>
        <time>2024-02-23T11:45:57Z</time>
      </trkpt>
      <trkpt lat="43.79667" lon="3.84065">
        <ele>322.2</ele>
        <time>2024-02-23T11:45:58Z</time>
      </trkpt>
      <trkpt lat="43.79666" lon="3.84068">
        <ele>321.6</ele>
        <time>2024-02-23T11:45:59Z</time>
      </trkpt>
      <trkpt lat="43.79664" lon="3.8407">
        <ele>320.8</ele>
        <time>2024-02-23T11:46:00Z</time>
      </trkpt>
      <trkpt lat="43.79664" lon="3.8407">
        <ele>320</ele>
        <time>2024-02-23T11:46:01Z</time>
      </trkpt>
      <trkpt lat="43.79661" lon="3.84071">
        <ele>319</ele>
        <time>2024-02-23T11:46:02Z</time>
      </trkpt>
      <trkpt lat="43.79659" lon="3.84073">
        <ele>318.2</ele>
        <time>2024-02-23T11:46:03Z</time>
      </trkpt>
      <trkpt lat="43.79657" lon="3.84074">
        <ele>317.6</ele>
        <time>2024-02-23T11:46:04Z</time>
      </trkpt>
      <trkpt lat="43.79655" lon="3.84076">
        <ele>316.8</ele>
        <time>2024-02-23T11:46:05Z</time>
      </trkpt>
      <trkpt lat="43.79655" lon="3.84076">
        <ele>316</ele>
        <time>2024-02-23T11:46:06Z</time>
      </trkpt>
      <trkpt lat="43.79654" lon="3.8408">
        <ele>315.2</ele>
        <time>2024-02-23T11:46:07Z</time>
      </trkpt>
      <trkpt lat="43.79654" lon="3.8408">
        <ele>314.4</ele>
        <time>2024-02-23T11:46:08Z</time>
      </trkpt>
      <trkpt lat="43.79653" lon="3.84085">
        <ele>313.6</ele>
        <time>2024-02-23T11:46:09Z</time>
      </trkpt>
      <trkpt lat="43.79652" lon="3.84087">
        <ele>312.8</ele>
        <time>2024-02-23T11:46:10Z</time>
      </trkpt>
      <trkpt lat="43.79651" lon="3.84089">
        <ele>312</ele>
        <time>2024-02-23T11:46:11Z</time>
      </trkpt>
      <trkpt lat="43.79651" lon="3.84089">
        <ele>311</ele>
        <time>2024-02-23T11:46:12Z</time>
      </trkpt>
      <trkpt lat="43.79651" lon="3.84092">
        <ele>310.4</ele>
        <time>2024-02-23T11:46:13Z</time>
      </trkpt>
      <trkpt lat="43.79651" lon="3.84092">
        <ele>309.6</ele>
        <time>2024-02-23T11:46:14Z</time>
      </trkpt>
      <trkpt lat="43.79651" lon="3.84096">
        <ele>308.8</ele>
        <time>2024-02-23T11:46:15Z</time>
      </trkpt>
      <trkpt lat="43.79651" lon="3.84096">
        <ele>307.8</ele>
        <time>2024-02-23T11:46:16Z</time>
      </trkpt>
      <trkpt lat="43.7965" lon="3.84099">
        <ele>307</ele>
        <time>2024-02-23T11:46:17Z</time>
      </trkpt>
      <trkpt lat="43.7965" lon="3.84099">
        <ele>306</ele>
        <time>2024-02-23T11:46:18Z</time>
      </trkpt>
      <trkpt lat="43.79649" lon="3.84102">
        <ele>305</ele>
        <time>2024-02-23T11:46:19Z</time>
      </trkpt>
      <trkpt lat="43.79648" lon="3.84105">
        <ele>304.2</ele>
        <time>2024-02-23T11:46:20Z</time>
      </trkpt>
      <trkpt lat="43.79648" lon="3.84105">
        <ele>303.4</ele>
        <time>2024-02-23T11:46:21Z</time>
      </trkpt>
      <trkpt lat="43.79647" lon="3.84108">
        <ele>302.6</ele>
        <time>2024-02-23T11:46:22Z</time>
      </trkpt>
      <trkpt lat="43.79647" lon="3.84108">
        <ele>301.8</ele>
        <time>2024-02-23T11:46:23Z</time>
      </trkpt>
      <trkpt lat="43.79645" lon="3.84111">
        <ele>300.8</ele>
        <time>2024-02-23T11:46:24Z</time>
      </trkpt>
      <trkpt lat="43.79645" lon="3.84111">
        <ele>300</ele>
        <time>2024-02-23T11:46:25Z</time>
      </trkpt>
      <trkpt lat="43.79644" lon="3.84113">
        <ele>299.2</ele>
        <time>2024-02-23T11:46:26Z</time>
      </trkpt>
      <trkpt lat="43.79644" lon="3.84113">
        <ele>298.4</ele>
        <time>2024-02-23T11:46:27Z</time>
      </trkpt>
      <trkpt lat="43.79642" lon="3.84116">
        <ele>297.8</ele>
        <time>2024-02-23T11:46:28Z</time>
      </trkpt>
      <trkpt lat="43.79642" lon="3.84116">
        <ele>296.8</ele>
        <time>2024-02-23T11:46:29Z</time>
      </trkpt>
      <trkpt lat="43.79641" lon="3.8412">
        <ele>296</ele>
        <time>2024-02-23T11:46:30Z</time>
      </trkpt>
      <trkpt lat="43.79641" lon="3.8412">
        <ele>295.2</ele>
        <time>2024-02-23T11:46:31Z</time>
      </trkpt>
      <trkpt lat="43.79639" lon="3.84123">
        <ele>294.4</ele>
        <time>2024-02-23T11:46:32Z</time>
      </trkpt>
      <trkpt lat="43.79639" lon="3.84123">
        <ele>293.6</ele>
        <time>2024-02-23T11:46:33Z</time>
      </trkpt>
      <trkpt lat="43.79637" lon="3.84125">
        <ele>292.8</ele>
        <time>2024-02-23T11:46:34Z</time>
      </trkpt>
      <trkpt lat="43.79637" lon="3.84125">
        <ele>292</ele>
        <time>2024-02-23T11:46:35Z</time>
      </trkpt>
      <trkpt lat="43.79637" lon="3.84125">
        <ele>291.2</ele>
        <time>2024-02-23T11:46:36Z</time>
      </trkpt>
      <trkpt lat="43.79636" lon="3.84128">
        <ele>290.4</ele>
        <time>2024-02-23T11:46:37Z</time>
      </trkpt>
      <trkpt lat="43.79636" lon="3.84128">
        <ele>289.6</ele>
        <time>2024-02-23T11:46:38Z</time>
      </trkpt>
      <trkpt lat="43.79635" lon="3.84133">
        <ele>288.8</ele>
        <time>2024-02-23T11:46:39Z</time>
      </trkpt>
      <trkpt lat="43.79635" lon="3.84133">
        <ele>288</ele>
        <time>2024-02-23T11:46:40Z</time>
      </trkpt>
      <trkpt lat="43.79635" lon="3.84136">
        <ele>287.2</ele>
        <time>2024-02-23T11:46:41Z</time>
      </trkpt>
      <trkpt lat="43.79635" lon="3.84136">
        <ele>286.4</ele>
        <time>2024-02-23T11:46:42Z</time>
      </trkpt>
      <trkpt lat="43.79632" lon="3.84138">
        <ele>285.6</ele>
        <time>2024-02-23T11:46:43Z</time>
      </trkpt>
      <trkpt lat="43.79632" lon="3.84138">
        <ele>284.6</ele>
        <time>2024-02-23T11:46:44Z</time>
      </trkpt>
      <trkpt lat="43.7963" lon="3.8414">
        <ele>284</ele>
        <time>2024-02-23T11:46:45Z</time>
      </trkpt>
      <trkpt lat="43.7963" lon="3.8414">
        <ele>283.2</ele>
        <time>2024-02-23T11:46:46Z</time>
      </trkpt>
      <trkpt lat="43.79628" lon="3.84142">
        <ele>282.4</ele>
        <time>2024-02-23T11:46:47Z</time>
      </trkpt>
      <trkpt lat="43.79628" lon="3.84142">
        <ele>281.4</ele>
        <time>2024-02-23T11:46:48Z</time>
      </trkpt>
      <trkpt lat="43.79625" lon="3.84144">
        <ele>280.6</ele>
        <time>2024-02-23T11:46:49Z</time>
      </trkpt>
      <trkpt lat="43.79625" lon="3.84144">
        <ele>279.8</ele>
        <time>2024-02-23T11:46:50Z</time>
      </trkpt>
      <trkpt lat="43.79624" lon="3.84147">
        <ele>279</ele>
        <time>2024-02-23T11:46:51Z</time>
      </trkpt>
      <trkpt lat="43.79624" lon="3.84147">
        <ele>278.4</ele>
        <time>2024-02-23T11:46:52Z</time>
      </trkpt>
      <trkpt lat="43.79623" lon="3.84152">
        <ele>277.6</ele>
        <time>2024-02-23T11:46:53Z</time>
      </trkpt>
      <trkpt lat="43.79624" lon="3.84154">
        <ele>276.6</ele>
        <time>2024-02-23T11:46:54Z</time>
      </trkpt>
      <trkpt lat="43.79622" lon="3.84156">
        <ele>275.8</ele>
        <time>2024-02-23T11:46:55Z</time>
      </trkpt>
      <trkpt lat="43.79621" lon="3.84158">
        <ele>274.8</ele>
        <time>2024-02-23T11:46:56Z</time>
      </trkpt>
      <trkpt lat="43.79619" lon="3.8416">
        <ele>273.8</ele>
        <time>2024-02-23T11:46:57Z</time>
      </trkpt>
      <trkpt lat="43.79617" lon="3.84161">
        <ele>273</ele>
        <time>2024-02-23T11:46:58Z</time>
      </trkpt>
      <trkpt lat="43.79617" lon="3.84161">
        <ele>272.2</ele>
        <time>2024-02-23T11:46:59Z</time>
      </trkpt>
      <trkpt lat="43.79615" lon="3.84163">
        <ele>271.6</ele>
        <time>2024-02-23T11:47:00Z</time>
      </trkpt>
      <trkpt lat="43.79615" lon="3.84163">
        <ele>270.8</ele>
        <time>2024-02-23T11:47:01Z</time>
      </trkpt>
      <trkpt lat="43.79615" lon="3.84166">
        <ele>270.2</ele>
        <time>2024-02-23T11:47:02Z</time>
      </trkpt>
      <trkpt lat="43.79615" lon="3.84166">
        <ele>269.6</ele>
        <time>2024-02-23T11:47:03Z</time>
      </trkpt>
      <trkpt lat="43.79616" lon="3.84168">
        <ele>268.8</ele>
        <time>2024-02-23T11:47:04Z</time>
      </trkpt>
      <trkpt lat="43.79617" lon="3.84171">
        <ele>268</ele>
        <time>2024-02-23T11:47:05Z</time>
      </trkpt>
      <trkpt lat="43.79618" lon="3.84174">
        <ele>267.2</ele>
        <time>2024-02-23T11:47:06Z</time>
      </trkpt>
      <trkpt lat="43.79619" lon="3.84177">
        <ele>266.4</ele>
        <time>2024-02-23T11:47:07Z</time>
      </trkpt>
      <trkpt lat="43.79619" lon="3.8418">
        <ele>265.6</ele>
        <time>2024-02-23T11:47:08Z</time>
      </trkpt>
      <trkpt lat="43.79618" lon="3.84183">
        <ele>264.8</ele>
        <time>2024-02-23T11:47:09Z</time>
      </trkpt>
      <trkpt lat="43.79617" lon="3.84186">
        <ele>264</ele>
        <time>2024-02-23T11:47:10Z</time>
      </trkpt>
      <trkpt lat="43.79617" lon="3.84186">
        <ele>263.2</ele>
        <time>2024-02-23T11:47:11Z</time>
      </trkpt>
      <trkpt lat="43.79616" lon="3.8419">
        <ele>262.6</ele>
        <time>2024-02-23T11:47:12Z</time>
      </trkpt>
      <trkpt lat="43.79615" lon="3.84192">
        <ele>261.8</ele>
        <time>2024-02-23T11:47:13Z</time>
      </trkpt>
      <trkpt lat="43.79615" lon="3.84192">
        <ele>261.2</ele>
        <time>2024-02-23T11:47:14Z</time>
      </trkpt>
      <trkpt lat="43.79615" lon="3.84192">
        <ele>260.4</ele>
        <time>2024-02-23T11:47:15Z</time>
      </trkpt>
      <trkpt lat="43.79616" lon="3.84195">
        <ele>259.8</ele>
        <time>2024-02-23T11:47:16Z</time>
      </trkpt>
      <trkpt lat="43.79616" lon="3.84195">
        <ele>259</ele>
        <time>2024-02-23T11:47:17Z</time>
      </trkpt>
      <trkpt lat="43.79615" lon="3.84199">
        <ele>258.4</ele>
        <time>2024-02-23T11:47:18Z</time>
      </trkpt>
      <trkpt lat="43.79615" lon="3.84199">
        <ele>257.6</ele>
        <time>2024-02-23T11:47:19Z</time>
      </trkpt>
      <trkpt lat="43.79615" lon="3.84202">
        <ele>256.8</ele>
        <time>2024-02-23T11:47:20Z</time>
      </trkpt>
      <trkpt lat="43.79615" lon="3.84202">
        <ele>256</ele>
        <time>2024-02-23T11:47:21Z</time>
      </trkpt>
      <trkpt lat="43.79615" lon="3.84207">
        <ele>255.2</ele>
        <time>2024-02-23T11:47:22Z</time>
      </trkpt>
      <trkpt lat="43.79615" lon="3.84207">
        <ele>254.4</ele>
        <time>2024-02-23T11:47:23Z</time>
      </trkpt>
      <trkpt lat="43.79613" lon="3.84211">
        <ele>253.6</ele>
        <time>2024-02-23T11:47:24Z</time>
      </trkpt>
      <trkpt lat="43.79612" lon="3.84213">
        <ele>253</ele>
        <time>2024-02-23T11:47:25Z</time>
      </trkpt>
      <trkpt lat="43.79609" lon="3.84214">
        <ele>252.2</ele>
        <time>2024-02-23T11:47:26Z</time>
      </trkpt>
      <trkpt lat="43.79606" lon="3.84216">
        <ele>251.4</ele>
        <time>2024-02-23T11:47:27Z</time>
      </trkpt>
      <trkpt lat="43.79602" lon="3.84217">
        <ele>250.8</ele>
        <time>2024-02-23T11:47:28Z</time>
      </trkpt>
      <trkpt lat="43.79599" lon="3.84218">
        <ele>250.2</ele>
        <time>2024-02-23T11:47:29Z</time>
      </trkpt>
      <trkpt lat="43.79595" lon="3.84217">
        <ele>249.6</ele>
        <time>2024-02-23T11:47:30Z</time>
      </trkpt>
      <trkpt lat="43.79593" lon="3.84216">
        <ele>249.2</ele>
        <time>2024-02-23T11:47:31Z</time>
      </trkpt>
      <trkpt lat="43.7959" lon="3.84215">
        <ele>249</ele>
        <time>2024-02-23T11:47:32Z</time>
      </trkpt>
      <trkpt lat="43.79588" lon="3.84213">
        <ele>248.8</ele>
        <time>2024-02-23T11:47:33Z</time>
      </trkpt>
      <trkpt lat="43.79585" lon="3.84212">
        <ele>248.8</ele>
        <time>2024-02-23T11:47:34Z</time>
      </trkpt>
      <trkpt lat="43.79582" lon="3.84211">
        <ele>248.6</ele>
        <time>2024-02-23T11:47:35Z</time>
      </trkpt>
      <trkpt lat="43.79579" lon="3.8421">
        <ele>248.6</ele>
        <time>2024-02-23T11:47:36Z</time>
      </trkpt>
      <trkpt lat="43.79576" lon="3.84208">
        <ele>248.4</ele>
        <time>2024-02-23T11:47:37Z</time>
      </trkpt>
      <trkpt lat="43.79573" lon="3.84208">
        <ele>248.4</ele>
        <time>2024-02-23T11:47:38Z</time>
      </trkpt>
      <trkpt lat="43.79569" lon="3.84206">
        <ele>248.2</ele>
        <time>2024-02-23T11:47:39Z</time>
      </trkpt>
      <trkpt lat="43.79567" lon="3.84205">
        <ele>248</ele>
        <time>2024-02-23T11:47:40Z</time>
      </trkpt>
      <trkpt lat="43.79564" lon="3.84204">
        <ele>247.8</ele>
        <time>2024-02-23T11:47:41Z</time>
      </trkpt>
      <trkpt lat="43.79561" lon="3.84203">
        <ele>247.8</ele>
        <time>2024-02-23T11:47:42Z</time>
      </trkpt>
      <trkpt lat="43.79558" lon="3.84201">
        <ele>247.8</ele>
        <time>2024-02-23T11:47:43Z</time>
      </trkpt>
      <trkpt lat="43.79556" lon="3.84199">
        <ele>247.8</ele>
        <time>2024-02-23T11:47:44Z</time>
      </trkpt>
      <trkpt lat="43.79553" lon="3.84196">
        <ele>247.6</ele>
        <time>2024-02-23T11:47:45Z</time>
      </trkpt>
      <trkpt lat="43.7955" lon="3.84194">
        <ele>247.6</ele>
        <time>2024-02-23T11:47:46Z</time>
      </trkpt>
      <trkpt lat="43.79548" lon="3.84193">
        <ele>247.6</ele>
        <time>2024-02-23T11:47:47Z</time>
      </trkpt>
      <trkpt lat="43.79545" lon="3.84191">
        <ele>247.6</ele>
        <time>2024-02-23T11:47:48Z</time>
      </trkpt>
      <trkpt lat="43.79542" lon="3.8419">
        <ele>247.6</ele>
        <time>2024-02-23T11:47:49Z</time>
      </trkpt>
      <trkpt lat="43.7954" lon="3.84189">
        <ele>247.6</ele>
        <time>2024-02-23T11:47:50Z</time>
      </trkpt>
      <trkpt lat="43.79537" lon="3.84188">
        <ele>247.6</ele>
        <time>2024-02-23T11:47:51Z</time>
      </trkpt>
      <trkpt lat="43.79534" lon="3.84186">
        <ele>247.6</ele>
        <time>2024-02-23T11:47:52Z</time>
      </trkpt>
      <trkpt lat="43.79532" lon="3.84184">
        <ele>247.6</ele>
        <time>2024-02-23T11:47:53Z</time>
      </trkpt>
      <trkpt lat="43.7953" lon="3.84182">
        <ele>247.8</ele>
        <time>2024-02-23T11:47:54Z</time>
      </trkpt>
      <trkpt lat="43.79527" lon="3.84181">
        <ele>247.8</ele>
        <time>2024-02-23T11:47:55Z</time>
      </trkpt>
      <trkpt lat="43.79525" lon="3.8418">
        <ele>247.8</ele>
        <time>2024-02-23T11:47:56Z</time>
      </trkpt>
      <trkpt lat="43.79522" lon="3.84178">
        <ele>247.8</ele>
        <time>2024-02-23T11:47:57Z</time>
      </trkpt>
      <trkpt lat="43.7952" lon="3.84177">
        <ele>247.8</ele>
        <time>2024-02-23T11:47:58Z</time>
      </trkpt>
      <trkpt lat="43.79517" lon="3.84175">
        <ele>248</ele>
        <time>2024-02-23T11:47:59Z</time>
      </trkpt>
      <trkpt lat="43.79514" lon="3.84174">
        <ele>248</ele>
        <time>2024-02-23T11:48:00Z</time>
      </trkpt>
      <trkpt lat="43.79511" lon="3.84173">
        <ele>248.2</ele>
        <time>2024-02-23T11:48:01Z</time>
      </trkpt>
      <trkpt lat="43.79509" lon="3.84172">
        <ele>248.2</ele>
        <time>2024-02-23T11:48:02Z</time>
      </trkpt>
      <trkpt lat="43.79506" lon="3.84172">
        <ele>248.2</ele>
        <time>2024-02-23T11:48:03Z</time>
      </trkpt>
      <trkpt lat="43.79503" lon="3.84171">
        <ele>248</ele>
        <time>2024-02-23T11:48:04Z</time>
      </trkpt>
      <trkpt lat="43.795" lon="3.8417">
        <ele>248</ele>
        <time>2024-02-23T11:48:05Z</time>
      </trkpt>
      <trkpt lat="43.79496" lon="3.84169">
        <ele>248</ele>
        <time>2024-02-23T11:48:06Z</time>
      </trkpt>
      <trkpt lat="43.79494" lon="3.84168">
        <ele>247.8</ele>
        <time>2024-02-23T11:48:07Z</time>
      </trkpt>
      <trkpt lat="43.79492" lon="3.84166">
        <ele>247.8</ele>
        <time>2024-02-23T11:48:08Z</time>
      </trkpt>
      <trkpt lat="43.79488" lon="3.84164">
        <ele>247.6</ele>
        <time>2024-02-23T11:48:09Z</time>
      </trkpt>
      <trkpt lat="43.79486" lon="3.84162">
        <ele>247.6</ele>
        <time>2024-02-23T11:48:10Z</time>
      </trkpt>
      <trkpt lat="43.79484" lon="3.84161">
        <ele>247.6</ele>
        <time>2024-02-23T11:48:11Z</time>
      </trkpt>
      <trkpt lat="43.7948" lon="3.8416">
        <ele>247.6</ele>
        <time>2024-02-23T11:48:12Z</time>
      </trkpt>
      <trkpt lat="43.79478" lon="3.84158">
        <ele>247.6</ele>
        <time>2024-02-23T11:48:13Z</time>
      </trkpt>
      <trkpt lat="43.79475" lon="3.84157">
        <ele>247.6</ele>
        <time>2024-02-23T11:48:14Z</time>
      </trkpt>
      <trkpt lat="43.79473" lon="3.84154">
        <ele>247.6</ele>
        <time>2024-02-23T11:48:15Z</time>
      </trkpt>
      <trkpt lat="43.7947" lon="3.84152">
        <ele>247.6</ele>
        <time>2024-02-23T11:48:16Z</time>
      </trkpt>
      <trkpt lat="43.79468" lon="3.84151">
        <ele>247.6</ele>
        <time>2024-02-23T11:48:17Z</time>
      </trkpt>
      <trkpt lat="43.79465" lon="3.84149">
        <ele>247.4</ele>
        <time>2024-02-23T11:48:18Z</time>
      </trkpt>
      <trkpt lat="43.79462" lon="3.84147">
        <ele>247.2</ele>
        <time>2024-02-23T11:48:19Z</time>
      </trkpt>
      <trkpt lat="43.7946" lon="3.84145">
        <ele>247.2</ele>
        <time>2024-02-23T11:48:20Z</time>
      </trkpt>
      <trkpt lat="43.79457" lon="3.84144">
        <ele>247.4</ele>
        <time>2024-02-23T11:48:21Z</time>
      </trkpt>
      <trkpt lat="43.79455" lon="3.84142">
        <ele>247.4</ele>
        <time>2024-02-23T11:48:22Z</time>
      </trkpt>
      <trkpt lat="43.79453" lon="3.8414">
        <ele>247.4</ele>
        <time>2024-02-23T11:48:23Z</time>
      </trkpt>
      <trkpt lat="43.7945" lon="3.84137">
        <ele>247.2</ele>
        <time>2024-02-23T11:48:24Z</time>
      </trkpt>
      <trkpt lat="43.79448" lon="3.84136">
        <ele>247.2</ele>
        <time>2024-02-23T11:48:25Z</time>
      </trkpt>
      <trkpt lat="43.79445" lon="3.84134">
        <ele>247.2</ele>
        <time>2024-02-23T11:48:26Z</time>
      </trkpt>
      <trkpt lat="43.79443" lon="3.84132">
        <ele>247.2</ele>
        <time>2024-02-23T11:48:27Z</time>
      </trkpt>
      <trkpt lat="43.79442" lon="3.8413">
        <ele>247</ele>
        <time>2024-02-23T11:48:28Z</time>
      </trkpt>
      <trkpt lat="43.79439" lon="3.84128">
        <ele>246.8</ele>
        <time>2024-02-23T11:48:29Z</time>
      </trkpt>
      <trkpt lat="43.79437" lon="3.84126">
        <ele>246.6</ele>
        <time>2024-02-23T11:48:30Z</time>
      </trkpt>
      <trkpt lat="43.79434" lon="3.84124">
        <ele>246.4</ele>
        <time>2024-02-23T11:48:31Z</time>
      </trkpt>
      <trkpt lat="43.79432" lon="3.84121">
        <ele>246.4</ele>
        <time>2024-02-23T11:48:32Z</time>
      </trkpt>
      <trkpt lat="43.7943" lon="3.84119">
        <ele>246.4</ele>
        <time>2024-02-23T11:48:33Z</time>
      </trkpt>
      <trkpt lat="43.79427" lon="3.84116">
        <ele>246.4</ele>
        <time>2024-02-23T11:48:34Z</time>
      </trkpt>
      <trkpt lat="43.79425" lon="3.84113">
        <ele>246.4</ele>
        <time>2024-02-23T11:48:35Z</time>
      </trkpt>
      <trkpt lat="43.79424" lon="3.84111">
        <ele>246.4</ele>
        <time>2024-02-23T11:48:36Z</time>
      </trkpt>
      <trkpt lat="43.79421" lon="3.84108">
        <ele>246.4</ele>
        <time>2024-02-23T11:48:37Z</time>
      </trkpt>
      <trkpt lat="43.79419" lon="3.84105">
        <ele>246.6</ele>
        <time>2024-02-23T11:48:38Z</time>
      </trkpt>
      <trkpt lat="43.79417" lon="3.84102">
        <ele>246.4</ele>
        <time>2024-02-23T11:48:39Z</time>
      </trkpt>
      <trkpt lat="43.79415" lon="3.841">
        <ele>246.4</ele>
        <time>2024-02-23T11:48:40Z</time>
      </trkpt>
      <trkpt lat="43.79412" lon="3.84097">
        <ele>246.2</ele>
        <time>2024-02-23T11:48:41Z</time>
      </trkpt>
      <trkpt lat="43.7941" lon="3.84094">
        <ele>246.4</ele>
        <time>2024-02-23T11:48:42Z</time>
      </trkpt>
      <trkpt lat="43.79407" lon="3.84091">
        <ele>246.4</ele>
        <time>2024-02-23T11:48:43Z</time>
      </trkpt>
      <trkpt lat="43.79405" lon="3.84089">
        <ele>246.4</ele>
        <time>2024-02-23T11:48:44Z</time>
      </trkpt>
      <trkpt lat="43.79403" lon="3.84087">
        <ele>246.6</ele>
        <time>2024-02-23T11:48:45Z</time>
      </trkpt>
      <trkpt lat="43.794" lon="3.84085">
        <ele>246.4</ele>
        <time>2024-02-23T11:48:46Z</time>
      </trkpt>
      <trkpt lat="43.79397" lon="3.84082">
        <ele>246.2</ele>
        <time>2024-02-23T11:48:47Z</time>
      </trkpt>
      <trkpt lat="43.79396" lon="3.8408">
        <ele>246.2</ele>
        <time>2024-02-23T11:48:48Z</time>
      </trkpt>
      <trkpt lat="43.79392" lon="3.84077">
        <ele>246.2</ele>
        <time>2024-02-23T11:48:49Z</time>
      </trkpt>
      <trkpt lat="43.79389" lon="3.84073">
        <ele>246.2</ele>
        <time>2024-02-23T11:48:50Z</time>
      </trkpt>
      <trkpt lat="43.79387" lon="3.84069">
        <ele>246</ele>
        <time>2024-02-23T11:48:51Z</time>
      </trkpt>
      <trkpt lat="43.79385" lon="3.84065">
        <ele>246</ele>
        <time>2024-02-23T11:48:52Z</time>
      </trkpt>
      <trkpt lat="43.79383" lon="3.84062">
        <ele>246</ele>
        <time>2024-02-23T11:48:53Z</time>
      </trkpt>
      <trkpt lat="43.79381" lon="3.84058">
        <ele>246</ele>
        <time>2024-02-23T11:48:54Z</time>
      </trkpt>
      <trkpt lat="43.7938" lon="3.84054">
        <ele>246</ele>
        <time>2024-02-23T11:48:55Z</time>
      </trkpt>
      <trkpt lat="43.79379" lon="3.84051">
        <ele>246</ele>
        <time>2024-02-23T11:48:56Z</time>
      </trkpt>
      <trkpt lat="43.79376" lon="3.84048">
        <ele>246</ele>
        <time>2024-02-23T11:48:57Z</time>
      </trkpt>
      <trkpt lat="43.79375" lon="3.84045">
        <ele>246.2</ele>
        <time>2024-02-23T11:48:58Z</time>
      </trkpt>
      <trkpt lat="43.79373" lon="3.84042">
        <ele>246.2</ele>
        <time>2024-02-23T11:48:59Z</time>
      </trkpt>
      <trkpt lat="43.79371" lon="3.84039">
        <ele>246.2</ele>
        <time>2024-02-23T11:49:00Z</time>
      </trkpt>
      <trkpt lat="43.7937" lon="3.84036">
        <ele>246.2</ele>
        <time>2024-02-23T11:49:01Z</time>
      </trkpt>
      <trkpt lat="43.79368" lon="3.84033">
        <ele>246.2</ele>
        <time>2024-02-23T11:49:02Z</time>
      </trkpt>
      <trkpt lat="43.79366" lon="3.8403">
        <ele>246.2</ele>
        <time>2024-02-23T11:49:03Z</time>
      </trkpt>
      <trkpt lat="43.79365" lon="3.84027">
        <ele>246.2</ele>
        <time>2024-02-23T11:49:04Z</time>
      </trkpt>
      <trkpt lat="43.79363" lon="3.84024">
        <ele>246.2</ele>
        <time>2024-02-23T11:49:05Z</time>
      </trkpt>
      <trkpt lat="43.79362" lon="3.84021">
        <ele>246.2</ele>
        <time>2024-02-23T11:49:06Z</time>
      </trkpt>
      <trkpt lat="43.79361" lon="3.84018">
        <ele>246.2</ele>
        <time>2024-02-23T11:49:07Z</time>
      </trkpt>
      <trkpt lat="43.79361" lon="3.84014">
        <ele>246.2</ele>
        <time>2024-02-23T11:49:08Z</time>
      </trkpt>
      <trkpt lat="43.79359" lon="3.84011">
        <ele>246.2</ele>
        <time>2024-02-23T11:49:09Z</time>
      </trkpt>
      <trkpt lat="43.79358" lon="3.84007">
        <ele>246</ele>
        <time>2024-02-23T11:49:10Z</time>
      </trkpt>
      <trkpt lat="43.79357" lon="3.84004">
        <ele>246</ele>
        <time>2024-02-23T11:49:11Z</time>
      </trkpt>
      <trkpt lat="43.79355" lon="3.84001">
        <ele>246</ele>
        <time>2024-02-23T11:49:12Z</time>
      </trkpt>
      <trkpt lat="43.79353" lon="3.83997">
        <ele>246</ele>
        <time>2024-02-23T11:49:13Z</time>
      </trkpt>
      <trkpt lat="43.79352" lon="3.83994">
        <ele>246.2</ele>
        <time>2024-02-23T11:49:14Z</time>
      </trkpt>
      <trkpt lat="43.7935" lon="3.83991">
        <ele>246.2</ele>
        <time>2024-02-23T11:49:15Z</time>
      </trkpt>
      <trkpt lat="43.79349" lon="3.83987">
        <ele>246.4</ele>
        <time>2024-02-23T11:49:16Z</time>
      </trkpt>
      <trkpt lat="43.79347" lon="3.83984">
        <ele>246.4</ele>
        <time>2024-02-23T11:49:17Z</time>
      </trkpt>
      <trkpt lat="43.79347" lon="3.8398">
        <ele>246.6</ele>
        <time>2024-02-23T11:49:18Z</time>
      </trkpt>
      <trkpt lat="43.79346" lon="3.83977">
        <ele>246.4</ele>
        <time>2024-02-23T11:49:19Z</time>
      </trkpt>
      <trkpt lat="43.79345" lon="3.83974">
        <ele>246.2</ele>
        <time>2024-02-23T11:49:20Z</time>
      </trkpt>
      <trkpt lat="43.79344" lon="3.83971">
        <ele>246</ele>
        <time>2024-02-23T11:49:21Z</time>
      </trkpt>
      <trkpt lat="43.79342" lon="3.83968">
        <ele>246</ele>
        <time>2024-02-23T11:49:22Z</time>
      </trkpt>
      <trkpt lat="43.79341" lon="3.83965">
        <ele>245.8</ele>
        <time>2024-02-23T11:49:23Z</time>
      </trkpt>
      <trkpt lat="43.79339" lon="3.83962">
        <ele>245.6</ele>
        <time>2024-02-23T11:49:24Z</time>
      </trkpt>
      <trkpt lat="43.79338" lon="3.83959">
        <ele>245.6</ele>
        <time>2024-02-23T11:49:25Z</time>
      </trkpt>
      <trkpt lat="43.79337" lon="3.83956">
        <ele>245.4</ele>
        <time>2024-02-23T11:49:26Z</time>
      </trkpt>
      <trkpt lat="43.79335" lon="3.83954">
        <ele>245.2</ele>
        <time>2024-02-23T11:49:27Z</time>
      </trkpt>
      <trkpt lat="43.79333" lon="3.83951">
        <ele>245.2</ele>
        <time>2024-02-23T11:49:28Z</time>
      </trkpt>
      <trkpt lat="43.79331" lon="3.83948">
        <ele>245.2</ele>
        <time>2024-02-23T11:49:29Z</time>
      </trkpt>
      <trkpt lat="43.79328" lon="3.83945">
        <ele>245.2</ele>
        <time>2024-02-23T11:49:30Z</time>
      </trkpt>
      <trkpt lat="43.79326" lon="3.83942">
        <ele>245.4</ele>
        <time>2024-02-23T11:49:31Z</time>
      </trkpt>
      <trkpt lat="43.79325" lon="3.83938">
        <ele>245.4</ele>
        <time>2024-02-23T11:49:32Z</time>
      </trkpt>
      <trkpt lat="43.79322" lon="3.83936">
        <ele>245.6</ele>
        <time>2024-02-23T11:49:33Z</time>
      </trkpt>
      <trkpt lat="43.7932" lon="3.83933">
        <ele>245.8</ele>
        <time>2024-02-23T11:49:34Z</time>
      </trkpt>
      <trkpt lat="43.79319" lon="3.8393">
        <ele>246</ele>
        <time>2024-02-23T11:49:35Z</time>
      </trkpt>
      <trkpt lat="43.79317" lon="3.83927">
        <ele>246.2</ele>
        <time>2024-02-23T11:49:36Z</time>
      </trkpt>
      <trkpt lat="43.79315" lon="3.83924">
        <ele>246.2</ele>
        <time>2024-02-23T11:49:37Z</time>
      </trkpt>
      <trkpt lat="43.79313" lon="3.83921">
        <ele>246</ele>
        <time>2024-02-23T11:49:38Z</time>
      </trkpt>
      <trkpt lat="43.79311" lon="3.83918">
        <ele>246.2</ele>
        <time>2024-02-23T11:49:39Z</time>
      </trkpt>
      <trkpt lat="43.79309" lon="3.83915">
        <ele>246.2</ele>
        <time>2024-02-23T11:49:40Z</time>
      </trkpt>
      <trkpt lat="43.79307" lon="3.83913">
        <ele>246.2</ele>
        <time>2024-02-23T11:49:41Z</time>
      </trkpt>
      <trkpt lat="43.79305" lon="3.8391">
        <ele>246</ele>
        <time>2024-02-23T11:49:42Z</time>
      </trkpt>
      <trkpt lat="43.79303" lon="3.83907">
        <ele>246</ele>
        <time>2024-02-23T11:49:43Z</time>
      </trkpt>
      <trkpt lat="43.79301" lon="3.83904">
        <ele>246</ele>
        <time>2024-02-23T11:49:44Z</time>
      </trkpt>
      <trkpt lat="43.793" lon="3.83901">
        <ele>246</ele>
        <time>2024-02-23T11:49:45Z</time>
      </trkpt>
      <trkpt lat="43.79298" lon="3.83898">
        <ele>246</ele>
        <time>2024-02-23T11:49:46Z</time>
      </trkpt>
      <trkpt lat="43.79297" lon="3.83894">
        <ele>246</ele>
        <time>2024-02-23T11:49:47Z</time>
      </trkpt>
      <trkpt lat="43.79295" lon="3.8389">
        <ele>246</ele>
        <time>2024-02-23T11:49:48Z</time>
      </trkpt>
      <trkpt lat="43.79293" lon="3.83886">
        <ele>246</ele>
        <time>2024-02-23T11:49:49Z</time>
      </trkpt>
      <trkpt lat="43.79291" lon="3.83882">
        <ele>246</ele>
        <time>2024-02-23T11:49:50Z</time>
      </trkpt>
      <trkpt lat="43.7929" lon="3.83878">
        <ele>246</ele>
        <time>2024-02-23T11:49:51Z</time>
      </trkpt>
      <trkpt lat="43.79288" lon="3.83875">
        <ele>245.8</ele>
        <time>2024-02-23T11:49:52Z</time>
      </trkpt>
      <trkpt lat="43.79287" lon="3.83872">
        <ele>245.8</ele>
        <time>2024-02-23T11:49:53Z</time>
      </trkpt>
      <trkpt lat="43.79285" lon="3.83869">
        <ele>245.8</ele>
        <time>2024-02-23T11:49:54Z</time>
      </trkpt>
      <trkpt lat="43.79284" lon="3.83866">
        <ele>245.6</ele>
        <time>2024-02-23T11:49:55Z</time>
      </trkpt>
      <trkpt lat="43.79282" lon="3.83863">
        <ele>245.4</ele>
        <time>2024-02-23T11:49:56Z</time>
      </trkpt>
      <trkpt lat="43.7928" lon="3.83859">
        <ele>245.4</ele>
        <time>2024-02-23T11:49:57Z</time>
      </trkpt>
      <trkpt lat="43.79278" lon="3.83857">
        <ele>245.4</ele>
        <time>2024-02-23T11:49:58Z</time>
      </trkpt>
      <trkpt lat="43.79277" lon="3.83853">
        <ele>245.4</ele>
        <time>2024-02-23T11:49:59Z</time>
      </trkpt>
      <trkpt lat="43.79276" lon="3.8385">
        <ele>245.4</ele>
        <time>2024-02-23T11:50:00Z</time>
      </trkpt>
      <trkpt lat="43.79274" lon="3.83847">
        <ele>245.4</ele>
        <time>2024-02-23T11:50:01Z</time>
      </trkpt>
      <trkpt lat="43.79272" lon="3.83843">
        <ele>245.6</ele>
        <time>2024-02-23T11:50:02Z</time>
      </trkpt>
      <trkpt lat="43.79271" lon="3.8384">
        <ele>245.6</ele>
        <time>2024-02-23T11:50:03Z</time>
      </trkpt>
      <trkpt lat="43.79269" lon="3.83836">
        <ele>245.6</ele>
        <time>2024-02-23T11:50:04Z</time>
      </trkpt>
      <trkpt lat="43.79268" lon="3.83833">
        <ele>245.6</ele>
        <time>2024-02-23T11:50:05Z</time>
      </trkpt>
      <trkpt lat="43.79266" lon="3.8383">
        <ele>245.4</ele>
        <time>2024-02-23T11:50:06Z</time>
      </trkpt>
      <trkpt lat="43.79265" lon="3.83826">
        <ele>245.6</ele>
        <time>2024-02-23T11:50:07Z</time>
      </trkpt>
      <trkpt lat="43.79263" lon="3.83823">
        <ele>245.4</ele>
        <time>2024-02-23T11:50:08Z</time>
      </trkpt>
      <trkpt lat="43.79261" lon="3.83819">
        <ele>245.4</ele>
        <time>2024-02-23T11:50:09Z</time>
      </trkpt>
      <trkpt lat="43.7926" lon="3.83816">
        <ele>245.6</ele>
        <time>2024-02-23T11:50:10Z</time>
      </trkpt>
      <trkpt lat="43.79258" lon="3.83812">
        <ele>245.6</ele>
        <time>2024-02-23T11:50:11Z</time>
      </trkpt>
      <trkpt lat="43.79257" lon="3.83809">
        <ele>245.6</ele>
        <time>2024-02-23T11:50:12Z</time>
      </trkpt>
      <trkpt lat="43.79256" lon="3.83805">
        <ele>245.6</ele>
        <time>2024-02-23T11:50:13Z</time>
      </trkpt>
      <trkpt lat="43.79255" lon="3.83801">
        <ele>245.6</ele>
        <time>2024-02-23T11:50:14Z</time>
      </trkpt>
      <trkpt lat="43.79254" lon="3.83797">
        <ele>245.4</ele>
        <time>2024-02-23T11:50:15Z</time>
      </trkpt>
      <trkpt lat="43.79253" lon="3.83793">
        <ele>245.4</ele>
        <time>2024-02-23T11:50:16Z</time>
      </trkpt>
      <trkpt lat="43.79252" lon="3.8379">
        <ele>245.4</ele>
        <time>2024-02-23T11:50:17Z</time>
      </trkpt>
      <trkpt lat="43.7925" lon="3.83787">
        <ele>245.2</ele>
        <time>2024-02-23T11:50:18Z</time>
      </trkpt>
      <trkpt lat="43.79248" lon="3.83784">
        <ele>245.2</ele>
        <time>2024-02-23T11:50:19Z</time>
      </trkpt>
      <trkpt lat="43.79246" lon="3.83781">
        <ele>245.2</ele>
        <time>2024-02-23T11:50:20Z</time>
      </trkpt>
      <trkpt lat="43.79245" lon="3.83776">
        <ele>245.2</ele>
        <time>2024-02-23T11:50:21Z</time>
      </trkpt>
      <trkpt lat="43.79244" lon="3.83772">
        <ele>245.2</ele>
        <time>2024-02-23T11:50:22Z</time>
      </trkpt>
      <trkpt lat="43.79244" lon="3.83767">
        <ele>245.4</ele>
        <time>2024-02-23T11:50:23Z</time>
      </trkpt>
      <trkpt lat="43.79244" lon="3.83763">
        <ele>245.4</ele>
        <time>2024-02-23T11:50:24Z</time>
      </trkpt>
      <trkpt lat="43.79243" lon="3.83758">
        <ele>245.6</ele>
        <time>2024-02-23T11:50:25Z</time>
      </trkpt>
      <trkpt lat="43.79241" lon="3.83755">
        <ele>245.6</ele>
        <time>2024-02-23T11:50:26Z</time>
      </trkpt>
      <trkpt lat="43.7924" lon="3.8375">
        <ele>245.4</ele>
        <time>2024-02-23T11:50:27Z</time>
      </trkpt>
      <trkpt lat="43.79238" lon="3.83746">
        <ele>245.4</ele>
        <time>2024-02-23T11:50:28Z</time>
      </trkpt>
      <trkpt lat="43.79237" lon="3.83742">
        <ele>245.4</ele>
        <time>2024-02-23T11:50:29Z</time>
      </trkpt>
      <trkpt lat="43.79236" lon="3.83738">
        <ele>245.4</ele>
        <time>2024-02-23T11:50:30Z</time>
      </trkpt>
      <trkpt lat="43.79234" lon="3.83734">
        <ele>245.4</ele>
        <time>2024-02-23T11:50:31Z</time>
      </trkpt>
      <trkpt lat="43.79233" lon="3.8373">
        <ele>245.6</ele>
        <time>2024-02-23T11:50:32Z</time>
      </trkpt>
      <trkpt lat="43.79233" lon="3.83725">
        <ele>245.6</ele>
        <time>2024-02-23T11:50:33Z</time>
      </trkpt>
      <trkpt lat="43.79232" lon="3.83721">
        <ele>245.6</ele>
        <time>2024-02-23T11:50:34Z</time>
      </trkpt>
      <trkpt lat="43.79232" lon="3.83717">
        <ele>245.6</ele>
        <time>2024-02-23T11:50:35Z</time>
      </trkpt>
      <trkpt lat="43.79231" lon="3.83713">
        <ele>245.4</ele>
        <time>2024-02-23T11:50:36Z</time>
      </trkpt>
      <trkpt lat="43.7923" lon="3.8371">
        <ele>245.4</ele>
        <time>2024-02-23T11:50:37Z</time>
      </trkpt>
      <trkpt lat="43.79229" lon="3.83706">
        <ele>245.4</ele>
        <time>2024-02-23T11:50:38Z</time>
      </trkpt>
      <trkpt lat="43.79229" lon="3.83702">
        <ele>245.6</ele>
        <time>2024-02-23T11:50:39Z</time>
      </trkpt>
      <trkpt lat="43.79228" lon="3.83698">
        <ele>245.6</ele>
        <time>2024-02-23T11:50:40Z</time>
      </trkpt>
      <trkpt lat="43.79227" lon="3.83694">
        <ele>245.6</ele>
        <time>2024-02-23T11:50:41Z</time>
      </trkpt>
      <trkpt lat="43.79226" lon="3.83691">
        <ele>245.6</ele>
        <time>2024-02-23T11:50:42Z</time>
      </trkpt>
      <trkpt lat="43.79225" lon="3.83687">
        <ele>245.4</ele>
        <time>2024-02-23T11:50:43Z</time>
      </trkpt>
      <trkpt lat="43.79224" lon="3.83683">
        <ele>245.4</ele>
        <time>2024-02-23T11:50:44Z</time>
      </trkpt>
      <trkpt lat="43.79223" lon="3.8368">
        <ele>245.2</ele>
        <time>2024-02-23T11:50:45Z</time>
      </trkpt>
      <trkpt lat="43.79222" lon="3.83676">
        <ele>245.4</ele>
        <time>2024-02-23T11:50:46Z</time>
      </trkpt>
      <trkpt lat="43.79222" lon="3.83672">
        <ele>245.6</ele>
        <time>2024-02-23T11:50:47Z</time>
      </trkpt>
      <trkpt lat="43.79221" lon="3.83668">
        <ele>245.6</ele>
        <time>2024-02-23T11:50:48Z</time>
      </trkpt>
      <trkpt lat="43.7922" lon="3.83664">
        <ele>245.4</ele>
        <time>2024-02-23T11:50:49Z</time>
      </trkpt>
      <trkpt lat="43.7922" lon="3.8366">
        <ele>245.4</ele>
        <time>2024-02-23T11:50:50Z</time>
      </trkpt>
      <trkpt lat="43.7922" lon="3.83656">
        <ele>245.4</ele>
        <time>2024-02-23T11:50:51Z</time>
      </trkpt>
      <trkpt lat="43.7922" lon="3.83652">
        <ele>245.4</ele>
        <time>2024-02-23T11:50:52Z</time>
      </trkpt>
      <trkpt lat="43.7922" lon="3.83648">
        <ele>245.2</ele>
        <time>2024-02-23T11:50:53Z</time>
      </trkpt>
      <trkpt lat="43.7922" lon="3.83645">
        <ele>245.2</ele>
        <time>2024-02-23T11:50:54Z</time>
      </trkpt>
      <trkpt lat="43.7922" lon="3.83641">
        <ele>245.2</ele>
        <time>2024-02-23T11:50:55Z</time>
      </trkpt>
      <trkpt lat="43.79219" lon="3.83637">
        <ele>245</ele>
        <time>2024-02-23T11:50:56Z</time>
      </trkpt>
      <trkpt lat="43.79219" lon="3.83633">
        <ele>245</ele>
        <time>2024-02-23T11:50:57Z</time>
      </trkpt>
      <trkpt lat="43.79219" lon="3.83629">
        <ele>245</ele>
        <time>2024-02-23T11:50:58Z</time>
      </trkpt>
      <trkpt lat="43.79218" lon="3.83626">
        <ele>245</ele>
        <time>2024-02-23T11:50:59Z</time>
      </trkpt>
      <trkpt lat="43.79218" lon="3.83622">
        <ele>245</ele>
        <time>2024-02-23T11:51:00Z</time>
      </trkpt>
      <trkpt lat="43.79217" lon="3.83618">
        <ele>244.8</ele>
        <time>2024-02-23T11:51:01Z</time>
      </trkpt>
      <trkpt lat="43.79217" lon="3.83614">
        <ele>244.8</ele>
        <time>2024-02-23T11:51:02Z</time>
      </trkpt>
      <trkpt lat="43.79217" lon="3.8361">
        <ele>245</ele>
        <time>2024-02-23T11:51:03Z</time>
      </trkpt>
      <trkpt lat="43.79216" lon="3.83607">
        <ele>245</ele>
        <time>2024-02-23T11:51:04Z</time>
      </trkpt>
      <trkpt lat="43.79216" lon="3.83603">
        <ele>245</ele>
        <time>2024-02-23T11:51:05Z</time>
      </trkpt>
      <trkpt lat="43.79215" lon="3.83598">
        <ele>245</ele>
        <time>2024-02-23T11:51:06Z</time>
      </trkpt>
      <trkpt lat="43.79215" lon="3.83594">
        <ele>244.6</ele>
        <time>2024-02-23T11:51:07Z</time>
      </trkpt>
      <trkpt lat="43.79215" lon="3.83591">
        <ele>244.4</ele>
        <time>2024-02-23T11:51:08Z</time>
      </trkpt>
      <trkpt lat="43.79215" lon="3.83587">
        <ele>244.4</ele>
        <time>2024-02-23T11:51:09Z</time>
      </trkpt>
      <trkpt lat="43.79215" lon="3.83583">
        <ele>244.8</ele>
        <time>2024-02-23T11:51:10Z</time>
      </trkpt>
      <trkpt lat="43.79214" lon="3.8358">
        <ele>245</ele>
        <time>2024-02-23T11:51:11Z</time>
      </trkpt>
      <trkpt lat="43.79214" lon="3.83576">
        <ele>245</ele>
        <time>2024-02-23T11:51:12Z</time>
      </trkpt>
      <trkpt lat="43.79214" lon="3.83571">
        <ele>244.8</ele>
        <time>2024-02-23T11:51:13Z</time>
      </trkpt>
      <trkpt lat="43.79214" lon="3.83566">
        <ele>244.8</ele>
        <time>2024-02-23T11:51:14Z</time>
      </trkpt>
      <trkpt lat="43.79214" lon="3.83561">
        <ele>244.6</ele>
        <time>2024-02-23T11:51:15Z</time>
      </trkpt>
      <trkpt lat="43.79215" lon="3.83557">
        <ele>244.4</ele>
        <time>2024-02-23T11:51:16Z</time>
      </trkpt>
      <trkpt lat="43.79214" lon="3.83553">
        <ele>244.4</ele>
        <time>2024-02-23T11:51:17Z</time>
      </trkpt>
      <trkpt lat="43.79214" lon="3.83549">
        <ele>244.4</ele>
        <time>2024-02-23T11:51:18Z</time>
      </trkpt>
      <trkpt lat="43.79215" lon="3.83545">
        <ele>244.4</ele>
        <time>2024-02-23T11:51:19Z</time>
      </trkpt>
      <trkpt lat="43.79215" lon="3.83541">
        <ele>244.6</ele>
        <time>2024-02-23T11:51:20Z</time>
      </trkpt>
      <trkpt lat="43.79215" lon="3.83537">
        <ele>244.4</ele>
        <time>2024-02-23T11:51:21Z</time>
      </trkpt>
      <trkpt lat="43.79215" lon="3.83534">
        <ele>244.4</ele>
        <time>2024-02-23T11:51:22Z</time>
      </trkpt>
      <trkpt lat="43.79215" lon="3.8353">
        <ele>244.2</ele>
        <time>2024-02-23T11:51:23Z</time>
      </trkpt>
      <trkpt lat="43.79215" lon="3.83527">
        <ele>244.2</ele>
        <time>2024-02-23T11:51:24Z</time>
      </trkpt>
      <trkpt lat="43.79215" lon="3.83523">
        <ele>244.4</ele>
        <time>2024-02-23T11:51:25Z</time>
      </trkpt>
      <trkpt lat="43.79214" lon="3.83519">
        <ele>244.4</ele>
        <time>2024-02-23T11:51:26Z</time>
      </trkpt>
      <trkpt lat="43.79214" lon="3.83516">
        <ele>244.4</ele>
        <time>2024-02-23T11:51:27Z</time>
      </trkpt>
      <trkpt lat="43.79214" lon="3.83513">
        <ele>244.2</ele>
        <time>2024-02-23T11:51:28Z</time>
      </trkpt>
      <trkpt lat="43.79213" lon="3.83509">
        <ele>244.2</ele>
        <time>2024-02-23T11:51:29Z</time>
      </trkpt>
      <trkpt lat="43.79213" lon="3.83505">
        <ele>244</ele>
        <time>2024-02-23T11:51:30Z</time>
      </trkpt>
      <trkpt lat="43.79212" lon="3.83502">
        <ele>244</ele>
        <time>2024-02-23T11:51:31Z</time>
      </trkpt>
      <trkpt lat="43.79212" lon="3.83498">
        <ele>243.8</ele>
        <time>2024-02-23T11:51:32Z</time>
      </trkpt>
      <trkpt lat="43.79211" lon="3.83494">
        <ele>243.6</ele>
        <time>2024-02-23T11:51:33Z</time>
      </trkpt>
      <trkpt lat="43.79211" lon="3.8349">
        <ele>243.6</ele>
        <time>2024-02-23T11:51:34Z</time>
      </trkpt>
      <trkpt lat="43.7921" lon="3.83487">
        <ele>243.6</ele>
        <time>2024-02-23T11:51:35Z</time>
      </trkpt>
      <trkpt lat="43.79209" lon="3.83483">
        <ele>243.4</ele>
        <time>2024-02-23T11:51:36Z</time>
      </trkpt>
      <trkpt lat="43.79208" lon="3.83479">
        <ele>243.4</ele>
        <time>2024-02-23T11:51:37Z</time>
      </trkpt>
      <trkpt lat="43.79208" lon="3.83475">
        <ele>243.4</ele>
        <time>2024-02-23T11:51:38Z</time>
      </trkpt>
      <trkpt lat="43.79208" lon="3.83472">
        <ele>243.4</ele>
        <time>2024-02-23T11:51:39Z</time>
      </trkpt>
      <trkpt lat="43.79207" lon="3.83468">
        <ele>243.4</ele>
        <time>2024-02-23T11:51:40Z</time>
      </trkpt>
      <trkpt lat="43.79207" lon="3.83464">
        <ele>243.2</ele>
        <time>2024-02-23T11:51:41Z</time>
      </trkpt>
      <trkpt lat="43.79207" lon="3.83459">
        <ele>243.2</ele>
        <time>2024-02-23T11:51:42Z</time>
      </trkpt>
      <trkpt lat="43.79207" lon="3.83455">
        <ele>243.2</ele>
        <time>2024-02-23T11:51:43Z</time>
      </trkpt>
      <trkpt lat="43.79206" lon="3.83451">
        <ele>243</ele>
        <time>2024-02-23T11:51:44Z</time>
      </trkpt>
      <trkpt lat="43.79206" lon="3.83447">
        <ele>243</ele>
        <time>2024-02-23T11:51:45Z</time>
      </trkpt>
      <trkpt lat="43.79207" lon="3.83443">
        <ele>243</ele>
        <time>2024-02-23T11:51:46Z</time>
      </trkpt>
      <trkpt lat="43.79207" lon="3.83439">
        <ele>242.8</ele>
        <time>2024-02-23T11:51:47Z</time>
      </trkpt>
      <trkpt lat="43.79208" lon="3.83435">
        <ele>242.6</ele>
        <time>2024-02-23T11:51:48Z</time>
      </trkpt>
      <trkpt lat="43.7921" lon="3.83432">
        <ele>242.6</ele>
        <time>2024-02-23T11:51:49Z</time>
      </trkpt>
      <trkpt lat="43.79211" lon="3.83429">
        <ele>242.4</ele>
        <time>2024-02-23T11:51:50Z</time>
      </trkpt>
      <trkpt lat="43.79212" lon="3.83425">
        <ele>242.2</ele>
        <time>2024-02-23T11:51:51Z</time>
      </trkpt>
      <trkpt lat="43.79212" lon="3.83421">
        <ele>242.2</ele>
        <time>2024-02-23T11:51:52Z</time>
      </trkpt>
      <trkpt lat="43.79213" lon="3.83417">
        <ele>242</ele>
        <time>2024-02-23T11:51:53Z</time>
      </trkpt>
      <trkpt lat="43.79213" lon="3.83413">
        <ele>242</ele>
        <time>2024-02-23T11:51:54Z</time>
      </trkpt>
      <trkpt lat="43.79214" lon="3.83409">
        <ele>241.8</ele>
        <time>2024-02-23T11:51:55Z</time>
      </trkpt>
      <trkpt lat="43.79214" lon="3.83405">
        <ele>241.8</ele>
        <time>2024-02-23T11:51:56Z</time>
      </trkpt>
      <trkpt lat="43.79215" lon="3.83401">
        <ele>241.6</ele>
        <time>2024-02-23T11:51:57Z</time>
      </trkpt>
      <trkpt lat="43.79216" lon="3.83397">
        <ele>241.6</ele>
        <time>2024-02-23T11:51:58Z</time>
      </trkpt>
      <trkpt lat="43.79216" lon="3.83394">
        <ele>241.6</ele>
        <time>2024-02-23T11:51:59Z</time>
      </trkpt>
      <trkpt lat="43.79216" lon="3.83389">
        <ele>241.6</ele>
        <time>2024-02-23T11:52:00Z</time>
      </trkpt>
      <trkpt lat="43.79216" lon="3.83385">
        <ele>241.6</ele>
        <time>2024-02-23T11:52:01Z</time>
      </trkpt>
      <trkpt lat="43.79216" lon="3.83382">
        <ele>241.6</ele>
        <time>2024-02-23T11:52:02Z</time>
      </trkpt>
      <trkpt lat="43.79216" lon="3.83378">
        <ele>241.8</ele>
        <time>2024-02-23T11:52:03Z</time>
      </trkpt>
      <trkpt lat="43.79216" lon="3.83375">
        <ele>241.6</ele>
        <time>2024-02-23T11:52:04Z</time>
      </trkpt>
      <trkpt lat="43.79215" lon="3.83371">
        <ele>241.6</ele>
        <time>2024-02-23T11:52:05Z</time>
      </trkpt>
      <trkpt lat="43.79215" lon="3.83368">
        <ele>241.6</ele>
        <time>2024-02-23T11:52:06Z</time>
      </trkpt>
      <trkpt lat="43.79216" lon="3.83364">
        <ele>241.6</ele>
        <time>2024-02-23T11:52:07Z</time>
      </trkpt>
      <trkpt lat="43.79216" lon="3.8336">
        <ele>241.4</ele>
        <time>2024-02-23T11:52:08Z</time>
      </trkpt>
      <trkpt lat="43.79216" lon="3.83356">
        <ele>241.4</ele>
        <time>2024-02-23T11:52:09Z</time>
      </trkpt>
      <trkpt lat="43.79216" lon="3.83352">
        <ele>241.4</ele>
        <time>2024-02-23T11:52:10Z</time>
      </trkpt>
      <trkpt lat="43.79216" lon="3.83347">
        <ele>241.2</ele>
        <time>2024-02-23T11:52:11Z</time>
      </trkpt>
      <trkpt lat="43.79216" lon="3.83343">
        <ele>241.2</ele>
        <time>2024-02-23T11:52:12Z</time>
      </trkpt>
      <trkpt lat="43.79215" lon="3.83339">
        <ele>241</ele>
        <time>2024-02-23T11:52:13Z</time>
      </trkpt>
      <trkpt lat="43.79215" lon="3.83334">
        <ele>241</ele>
        <time>2024-02-23T11:52:14Z</time>
      </trkpt>
      <trkpt lat="43.79214" lon="3.8333">
        <ele>241</ele>
        <time>2024-02-23T11:52:15Z</time>
      </trkpt>
      <trkpt lat="43.79214" lon="3.83326">
        <ele>241</ele>
        <time>2024-02-23T11:52:16Z</time>
      </trkpt>
      <trkpt lat="43.79214" lon="3.83322">
        <ele>240.8</ele>
        <time>2024-02-23T11:52:17Z</time>
      </trkpt>
      <trkpt lat="43.79214" lon="3.83318">
        <ele>240.6</ele>
        <time>2024-02-23T11:52:18Z</time>
      </trkpt>
      <trkpt lat="43.79213" lon="3.83314">
        <ele>240.4</ele>
        <time>2024-02-23T11:52:19Z</time>
      </trkpt>
      <trkpt lat="43.79213" lon="3.8331">
        <ele>240.4</ele>
        <time>2024-02-23T11:52:20Z</time>
      </trkpt>
      <trkpt lat="43.79213" lon="3.83306">
        <ele>240.2</ele>
        <time>2024-02-23T11:52:21Z</time>
      </trkpt>
      <trkpt lat="43.79213" lon="3.83302">
        <ele>240.2</ele>
        <time>2024-02-23T11:52:22Z</time>
      </trkpt>
      <trkpt lat="43.79213" lon="3.83298">
        <ele>240.2</ele>
        <time>2024-02-23T11:52:23Z</time>
      </trkpt>
      <trkpt lat="43.79212" lon="3.83295">
        <ele>240.2</ele>
        <time>2024-02-23T11:52:24Z</time>
      </trkpt>
      <trkpt lat="43.79211" lon="3.83291">
        <ele>240.4</ele>
        <time>2024-02-23T11:52:25Z</time>
      </trkpt>
      <trkpt lat="43.79211" lon="3.83287">
        <ele>240.6</ele>
        <time>2024-02-23T11:52:26Z</time>
      </trkpt>
      <trkpt lat="43.7921" lon="3.83282">
        <ele>240.6</ele>
        <time>2024-02-23T11:52:27Z</time>
      </trkpt>
      <trkpt lat="43.7921" lon="3.83278">
        <ele>240.6</ele>
        <time>2024-02-23T11:52:28Z</time>
      </trkpt>
      <trkpt lat="43.7921" lon="3.83273">
        <ele>240.4</ele>
        <time>2024-02-23T11:52:29Z</time>
      </trkpt>
      <trkpt lat="43.79209" lon="3.83269">
        <ele>240.2</ele>
        <time>2024-02-23T11:52:30Z</time>
      </trkpt>
      <trkpt lat="43.79208" lon="3.83265">
        <ele>240</ele>
        <time>2024-02-23T11:52:31Z</time>
      </trkpt>
      <trkpt lat="43.79208" lon="3.8326">
        <ele>240</ele>
        <time>2024-02-23T11:52:32Z</time>
      </trkpt>
      <trkpt lat="43.79208" lon="3.83256">
        <ele>239.8</ele>
        <time>2024-02-23T11:52:33Z</time>
      </trkpt>
      <trkpt lat="43.79207" lon="3.83252">
        <ele>239.8</ele>
        <time>2024-02-23T11:52:34Z</time>
      </trkpt>
      <trkpt lat="43.79206" lon="3.83247">
        <ele>239.6</ele>
        <time>2024-02-23T11:52:35Z</time>
      </trkpt>
      <trkpt lat="43.79205" lon="3.83243">
        <ele>239.6</ele>
        <time>2024-02-23T11:52:36Z</time>
      </trkpt>
      <trkpt lat="43.79205" lon="3.83239">
        <ele>239.6</ele>
        <time>2024-02-23T11:52:37Z</time>
      </trkpt>
      <trkpt lat="43.79204" lon="3.83235">
        <ele>239.6</ele>
        <time>2024-02-23T11:52:38Z</time>
      </trkpt>
      <trkpt lat="43.79204" lon="3.8323">
        <ele>239.6</ele>
        <time>2024-02-23T11:52:39Z</time>
      </trkpt>
      <trkpt lat="43.79203" lon="3.83226">
        <ele>239.4</ele>
        <time>2024-02-23T11:52:40Z</time>
      </trkpt>
      <trkpt lat="43.79202" lon="3.83222">
        <ele>239.4</ele>
        <time>2024-02-23T11:52:41Z</time>
      </trkpt>
      <trkpt lat="43.79202" lon="3.83217">
        <ele>239.4</ele>
        <time>2024-02-23T11:52:42Z</time>
      </trkpt>
      <trkpt lat="43.79201" lon="3.83213">
        <ele>239.2</ele>
        <time>2024-02-23T11:52:43Z</time>
      </trkpt>
      <trkpt lat="43.792" lon="3.83209">
        <ele>239</ele>
        <time>2024-02-23T11:52:44Z</time>
      </trkpt>
      <trkpt lat="43.79199" lon="3.83205">
        <ele>239</ele>
        <time>2024-02-23T11:52:45Z</time>
      </trkpt>
      <trkpt lat="43.79199" lon="3.83201">
        <ele>238.8</ele>
        <time>2024-02-23T11:52:46Z</time>
      </trkpt>
      <trkpt lat="43.79198" lon="3.83196">
        <ele>238.8</ele>
        <time>2024-02-23T11:52:47Z</time>
      </trkpt>
      <trkpt lat="43.79198" lon="3.83192">
        <ele>238.8</ele>
        <time>2024-02-23T11:52:48Z</time>
      </trkpt>
      <trkpt lat="43.79197" lon="3.83188">
        <ele>238.8</ele>
        <time>2024-02-23T11:52:49Z</time>
      </trkpt>
      <trkpt lat="43.79196" lon="3.83184">
        <ele>238.6</ele>
        <time>2024-02-23T11:52:50Z</time>
      </trkpt>
      <trkpt lat="43.79196" lon="3.83179">
        <ele>238.6</ele>
        <time>2024-02-23T11:52:51Z</time>
      </trkpt>
      <trkpt lat="43.79196" lon="3.83175">
        <ele>238.6</ele>
        <time>2024-02-23T11:52:52Z</time>
      </trkpt>
      <trkpt lat="43.79196" lon="3.8317">
        <ele>238.8</ele>
        <time>2024-02-23T11:52:53Z</time>
      </trkpt>
      <trkpt lat="43.79196" lon="3.83165">
        <ele>238.6</ele>
        <time>2024-02-23T11:52:54Z</time>
      </trkpt>
      <trkpt lat="43.79196" lon="3.8316">
        <ele>238.6</ele>
        <time>2024-02-23T11:52:55Z</time>
      </trkpt>
      <trkpt lat="43.79196" lon="3.83156">
        <ele>238.6</ele>
        <time>2024-02-23T11:52:56Z</time>
      </trkpt>
      <trkpt lat="43.79196" lon="3.83151">
        <ele>238.4</ele>
        <time>2024-02-23T11:52:57Z</time>
      </trkpt>
      <trkpt lat="43.79196" lon="3.83147">
        <ele>238.4</ele>
        <time>2024-02-23T11:52:58Z</time>
      </trkpt>
      <trkpt lat="43.79197" lon="3.83142">
        <ele>238.2</ele>
        <time>2024-02-23T11:52:59Z</time>
      </trkpt>
      <trkpt lat="43.79199" lon="3.83137">
        <ele>238.2</ele>
        <time>2024-02-23T11:53:00Z</time>
      </trkpt>
      <trkpt lat="43.792" lon="3.83134">
        <ele>238.2</ele>
        <time>2024-02-23T11:53:01Z</time>
      </trkpt>
      <trkpt lat="43.792" lon="3.83131">
        <ele>238</ele>
        <time>2024-02-23T11:53:02Z</time>
      </trkpt>
      <trkpt lat="43.79201" lon="3.83127">
        <ele>238</ele>
        <time>2024-02-23T11:53:03Z</time>
      </trkpt>
      <trkpt lat="43.79202" lon="3.83124">
        <ele>237.8</ele>
        <time>2024-02-23T11:53:04Z</time>
      </trkpt>
      <trkpt lat="43.79203" lon="3.8312">
        <ele>237.8</ele>
        <time>2024-02-23T11:53:05Z</time>
      </trkpt>
      <trkpt lat="43.79204" lon="3.83116">
        <ele>237.6</ele>
        <time>2024-02-23T11:53:06Z</time>
      </trkpt>
      <trkpt lat="43.79204" lon="3.83113">
        <ele>237.6</ele>
        <time>2024-02-23T11:53:07Z</time>
      </trkpt>
      <trkpt lat="43.79205" lon="3.83109">
        <ele>237.4</ele>
        <time>2024-02-23T11:53:08Z</time>
      </trkpt>
      <trkpt lat="43.79205" lon="3.83105">
        <ele>237.4</ele>
        <time>2024-02-23T11:53:09Z</time>
      </trkpt>
      <trkpt lat="43.79205" lon="3.831">
        <ele>237.4</ele>
        <time>2024-02-23T11:53:10Z</time>
      </trkpt>
      <trkpt lat="43.79205" lon="3.83096">
        <ele>237.2</ele>
        <time>2024-02-23T11:53:11Z</time>
      </trkpt>
      <trkpt lat="43.79204" lon="3.83092">
        <ele>237.2</ele>
        <time>2024-02-23T11:53:12Z</time>
      </trkpt>
      <trkpt lat="43.79204" lon="3.83088">
        <ele>237.2</ele>
        <time>2024-02-23T11:53:13Z</time>
      </trkpt>
      <trkpt lat="43.79203" lon="3.83084">
        <ele>237.2</ele>
        <time>2024-02-23T11:53:14Z</time>
      </trkpt>
      <trkpt lat="43.79202" lon="3.8308">
        <ele>237.2</ele>
        <time>2024-02-23T11:53:15Z</time>
      </trkpt>
      <trkpt lat="43.792" lon="3.83075">
        <ele>237</ele>
        <time>2024-02-23T11:53:16Z</time>
      </trkpt>
      <trkpt lat="43.79199" lon="3.83071">
        <ele>236.8</ele>
        <time>2024-02-23T11:53:17Z</time>
      </trkpt>
      <trkpt lat="43.79198" lon="3.83067">
        <ele>236.8</ele>
        <time>2024-02-23T11:53:18Z</time>
      </trkpt>
      <trkpt lat="43.79197" lon="3.83064">
        <ele>236.8</ele>
        <time>2024-02-23T11:53:19Z</time>
      </trkpt>
      <trkpt lat="43.79196" lon="3.8306">
        <ele>236.8</ele>
        <time>2024-02-23T11:53:20Z</time>
      </trkpt>
      <trkpt lat="43.79195" lon="3.83056">
        <ele>236.8</ele>
        <time>2024-02-23T11:53:21Z</time>
      </trkpt>
      <trkpt lat="43.79194" lon="3.83052">
        <ele>236.8</ele>
        <time>2024-02-23T11:53:22Z</time>
      </trkpt>
      <trkpt lat="43.79193" lon="3.83048">
        <ele>236.8</ele>
        <time>2024-02-23T11:53:23Z</time>
      </trkpt>
      <trkpt lat="43.79192" lon="3.83044">
        <ele>236.8</ele>
        <time>2024-02-23T11:53:24Z</time>
      </trkpt>
      <trkpt lat="43.79192" lon="3.8304">
        <ele>236.4</ele>
        <time>2024-02-23T11:53:25Z</time>
      </trkpt>
      <trkpt lat="43.79192" lon="3.83035">
        <ele>236.2</ele>
        <time>2024-02-23T11:53:26Z</time>
      </trkpt>
      <trkpt lat="43.79192" lon="3.83031">
        <ele>236.2</ele>
        <time>2024-02-23T11:53:27Z</time>
      </trkpt>
      <trkpt lat="43.79192" lon="3.83027">
        <ele>236.2</ele>
        <time>2024-02-23T11:53:28Z</time>
      </trkpt>
      <trkpt lat="43.79192" lon="3.83023">
        <ele>236</ele>
        <time>2024-02-23T11:53:29Z</time>
      </trkpt>
      <trkpt lat="43.79192" lon="3.8302">
        <ele>235.6</ele>
        <time>2024-02-23T11:53:30Z</time>
      </trkpt>
      <trkpt lat="43.79192" lon="3.83015">
        <ele>235.6</ele>
        <time>2024-02-23T11:53:31Z</time>
      </trkpt>
      <trkpt lat="43.79192" lon="3.8301">
        <ele>235.4</ele>
        <time>2024-02-23T11:53:32Z</time>
      </trkpt>
      <trkpt lat="43.79192" lon="3.83005">
        <ele>235.4</ele>
        <time>2024-02-23T11:53:33Z</time>
      </trkpt>
      <trkpt lat="43.79191" lon="3.83">
        <ele>235.4</ele>
        <time>2024-02-23T11:53:34Z</time>
      </trkpt>
      <trkpt lat="43.7919" lon="3.82995">
        <ele>235.4</ele>
        <time>2024-02-23T11:53:35Z</time>
      </trkpt>
      <trkpt lat="43.79189" lon="3.8299">
        <ele>235.2</ele>
        <time>2024-02-23T11:53:36Z</time>
      </trkpt>
      <trkpt lat="43.79189" lon="3.82986">
        <ele>235.2</ele>
        <time>2024-02-23T11:53:37Z</time>
      </trkpt>
      <trkpt lat="43.79189" lon="3.82981">
        <ele>235</ele>
        <time>2024-02-23T11:53:38Z</time>
      </trkpt>
      <trkpt lat="43.79189" lon="3.82977">
        <ele>235</ele>
        <time>2024-02-23T11:53:39Z</time>
      </trkpt>
      <trkpt lat="43.7919" lon="3.82973">
        <ele>234.8</ele>
        <time>2024-02-23T11:53:40Z</time>
      </trkpt>
      <trkpt lat="43.7919" lon="3.82969">
        <ele>234.6</ele>
        <time>2024-02-23T11:53:41Z</time>
      </trkpt>
      <trkpt lat="43.79191" lon="3.82965">
        <ele>234.4</ele>
        <time>2024-02-23T11:53:42Z</time>
      </trkpt>
      <trkpt lat="43.79191" lon="3.82962">
        <ele>234.2</ele>
        <time>2024-02-23T11:53:43Z</time>
      </trkpt>
      <trkpt lat="43.79192" lon="3.82958">
        <ele>234</ele>
        <time>2024-02-23T11:53:44Z</time>
      </trkpt>
      <trkpt lat="43.79192" lon="3.82954">
        <ele>234</ele>
        <time>2024-02-23T11:53:45Z</time>
      </trkpt>
      <trkpt lat="43.79194" lon="3.8295">
        <ele>234.2</ele>
        <time>2024-02-23T11:53:46Z</time>
      </trkpt>
      <trkpt lat="43.79194" lon="3.82946">
        <ele>234.2</ele>
        <time>2024-02-23T11:53:47Z</time>
      </trkpt>
      <trkpt lat="43.79196" lon="3.82943">
        <ele>234.2</ele>
        <time>2024-02-23T11:53:48Z</time>
      </trkpt>
      <trkpt lat="43.79197" lon="3.8294">
        <ele>234.2</ele>
        <time>2024-02-23T11:53:49Z</time>
      </trkpt>
      <trkpt lat="43.79197" lon="3.82937">
        <ele>234</ele>
        <time>2024-02-23T11:53:50Z</time>
      </trkpt>
      <trkpt lat="43.79198" lon="3.82934">
        <ele>234</ele>
        <time>2024-02-23T11:53:51Z</time>
      </trkpt>
      <trkpt lat="43.792" lon="3.82931">
        <ele>234</ele>
        <time>2024-02-23T11:53:52Z</time>
      </trkpt>
      <trkpt lat="43.79201" lon="3.82928">
        <ele>234</ele>
        <time>2024-02-23T11:53:53Z</time>
      </trkpt>
      <trkpt lat="43.79202" lon="3.82925">
        <ele>234</ele>
        <time>2024-02-23T11:53:54Z</time>
      </trkpt>
      <trkpt lat="43.79202" lon="3.82922">
        <ele>234</ele>
        <time>2024-02-23T11:53:55Z</time>
      </trkpt>
      <trkpt lat="43.79202" lon="3.82918">
        <ele>234</ele>
        <time>2024-02-23T11:53:56Z</time>
      </trkpt>
      <trkpt lat="43.79202" lon="3.82914">
        <ele>234</ele>
        <time>2024-02-23T11:53:57Z</time>
      </trkpt>
      <trkpt lat="43.79201" lon="3.82911">
        <ele>234.2</ele>
        <time>2024-02-23T11:53:58Z</time>
      </trkpt>
      <trkpt lat="43.79201" lon="3.82908">
        <ele>234.2</ele>
        <time>2024-02-23T11:53:59Z</time>
      </trkpt>
      <trkpt lat="43.792" lon="3.82903">
        <ele>234.2</ele>
        <time>2024-02-23T11:54:00Z</time>
      </trkpt>
      <trkpt lat="43.792" lon="3.82899">
        <ele>234.2</ele>
        <time>2024-02-23T11:54:01Z</time>
      </trkpt>
      <trkpt lat="43.79199" lon="3.82895">
        <ele>234.2</ele>
        <time>2024-02-23T11:54:02Z</time>
      </trkpt>
      <trkpt lat="43.79198" lon="3.82892">
        <ele>234.2</ele>
        <time>2024-02-23T11:54:03Z</time>
      </trkpt>
      <trkpt lat="43.79196" lon="3.82889">
        <ele>234</ele>
        <time>2024-02-23T11:54:04Z</time>
      </trkpt>
      <trkpt lat="43.79195" lon="3.82885">
        <ele>234</ele>
        <time>2024-02-23T11:54:05Z</time>
      </trkpt>
      <trkpt lat="43.79194" lon="3.82882">
        <ele>234</ele>
        <time>2024-02-23T11:54:06Z</time>
      </trkpt>
      <trkpt lat="43.79193" lon="3.82878">
        <ele>234</ele>
        <time>2024-02-23T11:54:07Z</time>
      </trkpt>
      <trkpt lat="43.79191" lon="3.82875">
        <ele>234</ele>
        <time>2024-02-23T11:54:08Z</time>
      </trkpt>
      <trkpt lat="43.7919" lon="3.82873">
        <ele>233.8</ele>
        <time>2024-02-23T11:54:09Z</time>
      </trkpt>
      <trkpt lat="43.79188" lon="3.82869">
        <ele>233.8</ele>
        <time>2024-02-23T11:54:10Z</time>
      </trkpt>
      <trkpt lat="43.79186" lon="3.82866">
        <ele>233.8</ele>
        <time>2024-02-23T11:54:11Z</time>
      </trkpt>
      <trkpt lat="43.79184" lon="3.82862">
        <ele>233.6</ele>
        <time>2024-02-23T11:54:12Z</time>
      </trkpt>
      <trkpt lat="43.79183" lon="3.82858">
        <ele>233.6</ele>
        <time>2024-02-23T11:54:13Z</time>
      </trkpt>
      <trkpt lat="43.79182" lon="3.82854">
        <ele>233.4</ele>
        <time>2024-02-23T11:54:14Z</time>
      </trkpt>
      <trkpt lat="43.7918" lon="3.8285">
        <ele>233.4</ele>
        <time>2024-02-23T11:54:15Z</time>
      </trkpt>
      <trkpt lat="43.79178" lon="3.82846">
        <ele>233.2</ele>
        <time>2024-02-23T11:54:16Z</time>
      </trkpt>
      <trkpt lat="43.79176" lon="3.82843">
        <ele>233</ele>
        <time>2024-02-23T11:54:17Z</time>
      </trkpt>
      <trkpt lat="43.79174" lon="3.82839">
        <ele>233</ele>
        <time>2024-02-23T11:54:18Z</time>
      </trkpt>
      <trkpt lat="43.79173" lon="3.82835">
        <ele>232.8</ele>
        <time>2024-02-23T11:54:19Z</time>
      </trkpt>
      <trkpt lat="43.79171" lon="3.82831">
        <ele>232.8</ele>
        <time>2024-02-23T11:54:20Z</time>
      </trkpt>
      <trkpt lat="43.79169" lon="3.82827">
        <ele>232.8</ele>
        <time>2024-02-23T11:54:21Z</time>
      </trkpt>
      <trkpt lat="43.79168" lon="3.82822">
        <ele>232.6</ele>
        <time>2024-02-23T11:54:22Z</time>
      </trkpt>
      <trkpt lat="43.79167" lon="3.82817">
        <ele>232.8</ele>
        <time>2024-02-23T11:54:23Z</time>
      </trkpt>
      <trkpt lat="43.79166" lon="3.82813">
        <ele>232.8</ele>
        <time>2024-02-23T11:54:24Z</time>
      </trkpt>
      <trkpt lat="43.79166" lon="3.82808">
        <ele>232.6</ele>
        <time>2024-02-23T11:54:25Z</time>
      </trkpt>
      <trkpt lat="43.79165" lon="3.82804">
        <ele>232.6</ele>
        <time>2024-02-23T11:54:26Z</time>
      </trkpt>
      <trkpt lat="43.79164" lon="3.828">
        <ele>232.6</ele>
        <time>2024-02-23T11:54:27Z</time>
      </trkpt>
      <trkpt lat="43.79164" lon="3.82796">
        <ele>232.4</ele>
        <time>2024-02-23T11:54:28Z</time>
      </trkpt>
      <trkpt lat="43.79164" lon="3.82792">
        <ele>232.6</ele>
        <time>2024-02-23T11:54:29Z</time>
      </trkpt>
      <trkpt lat="43.79163" lon="3.82788">
        <ele>232.4</ele>
        <time>2024-02-23T11:54:30Z</time>
      </trkpt>
      <trkpt lat="43.79162" lon="3.82784">
        <ele>232.2</ele>
        <time>2024-02-23T11:54:31Z</time>
      </trkpt>
      <trkpt lat="43.79162" lon="3.8278">
        <ele>232.2</ele>
        <time>2024-02-23T11:54:32Z</time>
      </trkpt>
      <trkpt lat="43.79162" lon="3.82775">
        <ele>232</ele>
        <time>2024-02-23T11:54:33Z</time>
      </trkpt>
      <trkpt lat="43.79161" lon="3.82771">
        <ele>231.8</ele>
        <time>2024-02-23T11:54:34Z</time>
      </trkpt>
      <trkpt lat="43.7916" lon="3.82767">
        <ele>231.6</ele>
        <time>2024-02-23T11:54:35Z</time>
      </trkpt>
      <trkpt lat="43.7916" lon="3.82763">
        <ele>231.4</ele>
        <time>2024-02-23T11:54:36Z</time>
      </trkpt>
      <trkpt lat="43.79159" lon="3.82759">
        <ele>231.2</ele>
        <time>2024-02-23T11:54:37Z</time>
      </trkpt>
      <trkpt lat="43.79159" lon="3.82754">
        <ele>231.2</ele>
        <time>2024-02-23T11:54:38Z</time>
      </trkpt>
      <trkpt lat="43.79158" lon="3.8275">
        <ele>231</ele>
        <time>2024-02-23T11:54:39Z</time>
      </trkpt>
      <trkpt lat="43.79158" lon="3.82745">
        <ele>231</ele>
        <time>2024-02-23T11:54:40Z</time>
      </trkpt>
      <trkpt lat="43.79158" lon="3.82741">
        <ele>231</ele>
        <time>2024-02-23T11:54:41Z</time>
      </trkpt>
      <trkpt lat="43.79158" lon="3.82736">
        <ele>230.8</ele>
        <time>2024-02-23T11:54:42Z</time>
      </trkpt>
      <trkpt lat="43.79158" lon="3.82732">
        <ele>230.6</ele>
        <time>2024-02-23T11:54:43Z</time>
      </trkpt>
      <trkpt lat="43.79158" lon="3.82727">
        <ele>230.4</ele>
        <time>2024-02-23T11:54:44Z</time>
      </trkpt>
      <trkpt lat="43.79158" lon="3.82723">
        <ele>230.2</ele>
        <time>2024-02-23T11:54:45Z</time>
      </trkpt>
      <trkpt lat="43.79158" lon="3.82719">
        <ele>230</ele>
        <time>2024-02-23T11:54:46Z</time>
      </trkpt>
      <trkpt lat="43.79157" lon="3.82715">
        <ele>229.8</ele>
        <time>2024-02-23T11:54:47Z</time>
      </trkpt>
      <trkpt lat="43.79157" lon="3.8271">
        <ele>229.6</ele>
        <time>2024-02-23T11:54:48Z</time>
      </trkpt>
      <trkpt lat="43.79157" lon="3.82706">
        <ele>229.4</ele>
        <time>2024-02-23T11:54:49Z</time>
      </trkpt>
      <trkpt lat="43.79156" lon="3.82702">
        <ele>229</ele>
        <time>2024-02-23T11:54:50Z</time>
      </trkpt>
      <trkpt lat="43.79156" lon="3.82698">
        <ele>228.8</ele>
        <time>2024-02-23T11:54:51Z</time>
      </trkpt>
      <trkpt lat="43.79156" lon="3.82694">
        <ele>228.6</ele>
        <time>2024-02-23T11:54:52Z</time>
      </trkpt>
      <trkpt lat="43.79157" lon="3.8269">
        <ele>228.4</ele>
        <time>2024-02-23T11:54:53Z</time>
      </trkpt>
      <trkpt lat="43.79157" lon="3.82685">
        <ele>228.2</ele>
        <time>2024-02-23T11:54:54Z</time>
      </trkpt>
      <trkpt lat="43.79157" lon="3.82681">
        <ele>228</ele>
        <time>2024-02-23T11:54:55Z</time>
      </trkpt>
      <trkpt lat="43.79157" lon="3.82673">
        <ele>228</ele>
        <time>2024-02-23T11:54:56Z</time>
      </trkpt>
      <trkpt lat="43.79157" lon="3.8267">
        <ele>228</ele>
        <time>2024-02-23T11:54:57Z</time>
      </trkpt>
      <trkpt lat="43.79157" lon="3.82666">
        <ele>227.4</ele>
        <time>2024-02-23T11:54:58Z</time>
      </trkpt>
      <trkpt lat="43.79157" lon="3.8266">
        <ele>227.2</ele>
        <time>2024-02-23T11:54:59Z</time>
      </trkpt>
      <trkpt lat="43.79157" lon="3.82655">
        <ele>227</ele>
        <time>2024-02-23T11:55:00Z</time>
      </trkpt>
      <trkpt lat="43.79157" lon="3.8265">
        <ele>226.6</ele>
        <time>2024-02-23T11:55:01Z</time>
      </trkpt>
      <trkpt lat="43.79157" lon="3.82644">
        <ele>226.6</ele>
        <time>2024-02-23T11:55:02Z</time>
      </trkpt>
      <trkpt lat="43.79157" lon="3.82639">
        <ele>226.4</ele>
        <time>2024-02-23T11:55:03Z</time>
      </trkpt>
      <trkpt lat="43.79157" lon="3.82634">
        <ele>226.4</ele>
        <time>2024-02-23T11:55:04Z</time>
      </trkpt>
      <trkpt lat="43.79158" lon="3.82629">
        <ele>226.2</ele>
        <time>2024-02-23T11:55:05Z</time>
      </trkpt>
      <trkpt lat="43.79158" lon="3.82624">
        <ele>226.2</ele>
        <time>2024-02-23T11:55:06Z</time>
      </trkpt>
      <trkpt lat="43.79158" lon="3.8262">
        <ele>226.2</ele>
        <time>2024-02-23T11:55:07Z</time>
      </trkpt>
      <trkpt lat="43.79158" lon="3.82615">
        <ele>225.8</ele>
        <time>2024-02-23T11:55:08Z</time>
      </trkpt>
      <trkpt lat="43.79158" lon="3.82611">
        <ele>225.6</ele>
        <time>2024-02-23T11:55:09Z</time>
      </trkpt>
      <trkpt lat="43.79157" lon="3.82607">
        <ele>225.6</ele>
        <time>2024-02-23T11:55:10Z</time>
      </trkpt>
      <trkpt lat="43.79157" lon="3.82603">
        <ele>225.2</ele>
        <time>2024-02-23T11:55:11Z</time>
      </trkpt>
      <trkpt lat="43.79156" lon="3.82596">
        <ele>225</ele>
        <time>2024-02-23T11:55:12Z</time>
      </trkpt>
      <trkpt lat="43.79155" lon="3.82594">
        <ele>224.8</ele>
        <time>2024-02-23T11:55:13Z</time>
      </trkpt>
      <trkpt lat="43.79155" lon="3.82589">
        <ele>224.6</ele>
        <time>2024-02-23T11:55:14Z</time>
      </trkpt>
      <trkpt lat="43.79155" lon="3.82585">
        <ele>224.2</ele>
        <time>2024-02-23T11:55:15Z</time>
      </trkpt>
      <trkpt lat="43.79154" lon="3.8258">
        <ele>223.8</ele>
        <time>2024-02-23T11:55:16Z</time>
      </trkpt>
      <trkpt lat="43.79154" lon="3.82576">
        <ele>223.4</ele>
        <time>2024-02-23T11:55:17Z</time>
      </trkpt>
      <trkpt lat="43.79153" lon="3.82572">
        <ele>223.2</ele>
        <time>2024-02-23T11:55:18Z</time>
      </trkpt>
      <trkpt lat="43.79153" lon="3.82568">
        <ele>223</ele>
        <time>2024-02-23T11:55:19Z</time>
      </trkpt>
      <trkpt lat="43.79153" lon="3.82564">
        <ele>222.8</ele>
        <time>2024-02-23T11:55:20Z</time>
      </trkpt>
      <trkpt lat="43.79152" lon="3.82561">
        <ele>222.6</ele>
        <time>2024-02-23T11:55:21Z</time>
      </trkpt>
      <trkpt lat="43.79152" lon="3.82556">
        <ele>222.2</ele>
        <time>2024-02-23T11:55:22Z</time>
      </trkpt>
      <trkpt lat="43.79152" lon="3.82553">
        <ele>222</ele>
        <time>2024-02-23T11:55:23Z</time>
      </trkpt>
      <trkpt lat="43.79152" lon="3.82548">
        <ele>222</ele>
        <time>2024-02-23T11:55:24Z</time>
      </trkpt>
      <trkpt lat="43.79151" lon="3.82544">
        <ele>221.8</ele>
        <time>2024-02-23T11:55:25Z</time>
      </trkpt>
      <trkpt lat="43.79151" lon="3.8254">
        <ele>221.6</ele>
        <time>2024-02-23T11:55:26Z</time>
      </trkpt>
      <trkpt lat="43.7915" lon="3.82536">
        <ele>221.4</ele>
        <time>2024-02-23T11:55:27Z</time>
      </trkpt>
      <trkpt lat="43.7915" lon="3.82532">
        <ele>221</ele>
        <time>2024-02-23T11:55:28Z</time>
      </trkpt>
      <trkpt lat="43.79149" lon="3.82527">
        <ele>221</ele>
        <time>2024-02-23T11:55:29Z</time>
      </trkpt>
      <trkpt lat="43.79149" lon="3.82522">
        <ele>220.8</ele>
        <time>2024-02-23T11:55:30Z</time>
      </trkpt>
      <trkpt lat="43.79149" lon="3.82517">
        <ele>220.4</ele>
        <time>2024-02-23T11:55:31Z</time>
      </trkpt>
      <trkpt lat="43.79148" lon="3.82513">
        <ele>220.2</ele>
        <time>2024-02-23T11:55:32Z</time>
      </trkpt>
      <trkpt lat="43.79147" lon="3.8251">
        <ele>220</ele>
        <time>2024-02-23T11:55:33Z</time>
      </trkpt>
      <trkpt lat="43.79146" lon="3.82506">
        <ele>219.8</ele>
        <time>2024-02-23T11:55:34Z</time>
      </trkpt>
      <trkpt lat="43.79145" lon="3.82502">
        <ele>219.6</ele>
        <time>2024-02-23T11:55:35Z</time>
      </trkpt>
      <trkpt lat="43.79144" lon="3.82497">
        <ele>219.4</ele>
        <time>2024-02-23T11:55:36Z</time>
      </trkpt>
      <trkpt lat="43.79144" lon="3.82493">
        <ele>219</ele>
        <time>2024-02-23T11:55:37Z</time>
      </trkpt>
      <trkpt lat="43.79143" lon="3.82489">
        <ele>218.8</ele>
        <time>2024-02-23T11:55:38Z</time>
      </trkpt>
      <trkpt lat="43.79144" lon="3.82483">
        <ele>218.6</ele>
        <time>2024-02-23T11:55:39Z</time>
      </trkpt>
      <trkpt lat="43.79145" lon="3.82479">
        <ele>218.4</ele>
        <time>2024-02-23T11:55:40Z</time>
      </trkpt>
      <trkpt lat="43.79146" lon="3.82476">
        <ele>218.2</ele>
        <time>2024-02-23T11:55:41Z</time>
      </trkpt>
      <trkpt lat="43.79146" lon="3.82476">
        <ele>218.2</ele>
        <time>2024-02-23T11:55:42Z</time>
      </trkpt>
      <trkpt lat="43.79149" lon="3.82472">
        <ele>218.2</ele>
        <time>2024-02-23T11:55:43Z</time>
      </trkpt>
      <trkpt lat="43.79149" lon="3.82472">
        <ele>218.4</ele>
        <time>2024-02-23T11:55:44Z</time>
      </trkpt>
      <trkpt lat="43.79149" lon="3.82469">
        <ele>218.8</ele>
        <time>2024-02-23T11:55:45Z</time>
      </trkpt>
      <trkpt lat="43.79149" lon="3.82469">
        <ele>219.2</ele>
        <time>2024-02-23T11:55:46Z</time>
      </trkpt>
      <trkpt lat="43.79149" lon="3.82465">
        <ele>219.6</ele>
        <time>2024-02-23T11:55:47Z</time>
      </trkpt>
      <trkpt lat="43.79149" lon="3.82465">
        <ele>219.8</ele>
        <time>2024-02-23T11:55:48Z</time>
      </trkpt>
      <trkpt lat="43.79149" lon="3.82461">
        <ele>220.2</ele>
        <time>2024-02-23T11:55:49Z</time>
      </trkpt>
      <trkpt lat="43.79149" lon="3.82461">
        <ele>220.4</ele>
        <time>2024-02-23T11:55:50Z</time>
      </trkpt>
      <trkpt lat="43.7915" lon="3.82456">
        <ele>220.8</ele>
        <time>2024-02-23T11:55:51Z</time>
      </trkpt>
      <trkpt lat="43.79151" lon="3.82453">
        <ele>221</ele>
        <time>2024-02-23T11:55:52Z</time>
      </trkpt>
      <trkpt lat="43.79152" lon="3.82451">
        <ele>221.2</ele>
        <time>2024-02-23T11:55:53Z</time>
      </trkpt>
      <trkpt lat="43.79152" lon="3.82451">
        <ele>221.6</ele>
        <time>2024-02-23T11:55:54Z</time>
      </trkpt>
      <trkpt lat="43.79153" lon="3.82447">
        <ele>221.8</ele>
        <time>2024-02-23T11:55:55Z</time>
      </trkpt>
      <trkpt lat="43.79154" lon="3.82445">
        <ele>222</ele>
        <time>2024-02-23T11:55:56Z</time>
      </trkpt>
      <trkpt lat="43.79154" lon="3.82445">
        <ele>222.2</ele>
        <time>2024-02-23T11:55:57Z</time>
      </trkpt>
      <trkpt lat="43.79157" lon="3.82442">
        <ele>222.4</ele>
        <time>2024-02-23T11:55:58Z</time>
      </trkpt>
      <trkpt lat="43.79158" lon="3.82441">
        <ele>222.8</ele>
        <time>2024-02-23T11:55:59Z</time>
      </trkpt>
      <trkpt lat="43.79158" lon="3.82441">
        <ele>223.2</ele>
        <time>2024-02-23T11:56:00Z</time>
      </trkpt>
      <trkpt lat="43.7916" lon="3.82439">
        <ele>223.6</ele>
        <time>2024-02-23T11:56:01Z</time>
      </trkpt>
      <trkpt lat="43.7916" lon="3.82439">
        <ele>224</ele>
        <time>2024-02-23T11:56:02Z</time>
      </trkpt>
      <trkpt lat="43.79162" lon="3.82435">
        <ele>224.2</ele>
        <time>2024-02-23T11:56:03Z</time>
      </trkpt>
      <trkpt lat="43.79162" lon="3.82435">
        <ele>224.6</ele>
        <time>2024-02-23T11:56:04Z</time>
      </trkpt>
      <trkpt lat="43.79164" lon="3.82432">
        <ele>225</ele>
        <time>2024-02-23T11:56:05Z</time>
      </trkpt>
      <trkpt lat="43.79164" lon="3.82432">
        <ele>225.4</ele>
        <time>2024-02-23T11:56:06Z</time>
      </trkpt>
      <trkpt lat="43.79164" lon="3.82429">
        <ele>225.8</ele>
        <time>2024-02-23T11:56:07Z</time>
      </trkpt>
      <trkpt lat="43.79164" lon="3.82429">
        <ele>226.2</ele>
        <time>2024-02-23T11:56:08Z</time>
      </trkpt>
      <trkpt lat="43.79165" lon="3.82427">
        <ele>226.4</ele>
        <time>2024-02-23T11:56:09Z</time>
      </trkpt>
      <trkpt lat="43.79165" lon="3.82427">
        <ele>226.8</ele>
        <time>2024-02-23T11:56:10Z</time>
      </trkpt>
      <trkpt lat="43.79167" lon="3.82424">
        <ele>227</ele>
        <time>2024-02-23T11:56:11Z</time>
      </trkpt>
      <trkpt lat="43.79167" lon="3.82424">
        <ele>227.2</ele>
        <time>2024-02-23T11:56:12Z</time>
      </trkpt>
      <trkpt lat="43.79168" lon="3.82421">
        <ele>227.4</ele>
        <time>2024-02-23T11:56:13Z</time>
      </trkpt>
      <trkpt lat="43.79168" lon="3.82421">
        <ele>227.8</ele>
        <time>2024-02-23T11:56:14Z</time>
      </trkpt>
      <trkpt lat="43.7917" lon="3.82418">
        <ele>228</ele>
        <time>2024-02-23T11:56:15Z</time>
      </trkpt>
      <trkpt lat="43.7917" lon="3.82418">
        <ele>228.4</ele>
        <time>2024-02-23T11:56:16Z</time>
      </trkpt>
      <trkpt lat="43.79172" lon="3.82415">
        <ele>228.6</ele>
        <time>2024-02-23T11:56:17Z</time>
      </trkpt>
      <trkpt lat="43.79172" lon="3.82415">
        <ele>229</ele>
        <time>2024-02-23T11:56:18Z</time>
      </trkpt>
      <trkpt lat="43.79174" lon="3.82412">
        <ele>229.4</ele>
        <time>2024-02-23T11:56:19Z</time>
      </trkpt>
      <trkpt lat="43.79174" lon="3.82412">
        <ele>229.8</ele>
        <time>2024-02-23T11:56:20Z</time>
      </trkpt>
      <trkpt lat="43.79175" lon="3.82409">
        <ele>230</ele>
        <time>2024-02-23T11:56:21Z</time>
      </trkpt>
      <trkpt lat="43.79175" lon="3.82409">
        <ele>230.4</ele>
        <time>2024-02-23T11:56:22Z</time>
      </trkpt>
      <trkpt lat="43.79176" lon="3.82406">
        <ele>230.8</ele>
        <time>2024-02-23T11:56:23Z</time>
      </trkpt>
      <trkpt lat="43.79176" lon="3.82406">
        <ele>231.2</ele>
        <time>2024-02-23T11:56:24Z</time>
      </trkpt>
      <trkpt lat="43.79177" lon="3.82402">
        <ele>231.6</ele>
        <time>2024-02-23T11:56:25Z</time>
      </trkpt>
      <trkpt lat="43.79177" lon="3.82402">
        <ele>231.8</ele>
        <time>2024-02-23T11:56:26Z</time>
      </trkpt>
      <trkpt lat="43.79179" lon="3.82399">
        <ele>232.2</ele>
        <time>2024-02-23T11:56:27Z</time>
      </trkpt>
      <trkpt lat="43.79179" lon="3.82399">
        <ele>232.4</ele>
        <time>2024-02-23T11:56:28Z</time>
      </trkpt>
      <trkpt lat="43.7918" lon="3.82395">
        <ele>232.6</ele>
        <time>2024-02-23T11:56:29Z</time>
      </trkpt>
      <trkpt lat="43.7918" lon="3.82395">
        <ele>233</ele>
        <time>2024-02-23T11:56:30Z</time>
      </trkpt>
      <trkpt lat="43.79181" lon="3.82391">
        <ele>233.2</ele>
        <time>2024-02-23T11:56:31Z</time>
      </trkpt>
      <trkpt lat="43.79181" lon="3.82391">
        <ele>233.4</ele>
        <time>2024-02-23T11:56:32Z</time>
      </trkpt>
      <trkpt lat="43.79182" lon="3.82386">
        <ele>233.4</ele>
        <time>2024-02-23T11:56:33Z</time>
      </trkpt>
      <trkpt lat="43.79182" lon="3.82386">
        <ele>233.6</ele>
        <time>2024-02-23T11:56:34Z</time>
      </trkpt>
      <trkpt lat="43.79183" lon="3.82381">
        <ele>233.8</ele>
        <time>2024-02-23T11:56:35Z</time>
      </trkpt>
      <trkpt lat="43.79183" lon="3.82381">
        <ele>234</ele>
        <time>2024-02-23T11:56:36Z</time>
      </trkpt>
      <trkpt lat="43.79186" lon="3.82378">
        <ele>234</ele>
        <time>2024-02-23T11:56:37Z</time>
      </trkpt>
      <trkpt lat="43.79186" lon="3.82378">
        <ele>234.2</ele>
        <time>2024-02-23T11:56:38Z</time>
      </trkpt>
      <trkpt lat="43.79188" lon="3.82375">
        <ele>234.4</ele>
        <time>2024-02-23T11:56:39Z</time>
      </trkpt>
      <trkpt lat="43.79189" lon="3.82373">
        <ele>234.6</ele>
        <time>2024-02-23T11:56:40Z</time>
      </trkpt>
      <trkpt lat="43.79191" lon="3.82371">
        <ele>234.8</ele>
        <time>2024-02-23T11:56:41Z</time>
      </trkpt>
      <trkpt lat="43.79192" lon="3.82369">
        <ele>235</ele>
        <time>2024-02-23T11:56:42Z</time>
      </trkpt>
      <trkpt lat="43.79192" lon="3.82369">
        <ele>235.2</ele>
        <time>2024-02-23T11:56:43Z</time>
      </trkpt>
      <trkpt lat="43.79196" lon="3.82368">
        <ele>235.6</ele>
        <time>2024-02-23T11:56:44Z</time>
      </trkpt>
      <trkpt lat="43.79196" lon="3.82368">
        <ele>235.8</ele>
        <time>2024-02-23T11:56:45Z</time>
      </trkpt>
      <trkpt lat="43.79197" lon="3.82366">
        <ele>236</ele>
        <time>2024-02-23T11:56:46Z</time>
      </trkpt>
      <trkpt lat="43.79197" lon="3.82366">
        <ele>236.2</ele>
        <time>2024-02-23T11:56:47Z</time>
      </trkpt>
      <trkpt lat="43.79199" lon="3.82363">
        <ele>236.6</ele>
        <time>2024-02-23T11:56:48Z</time>
      </trkpt>
      <trkpt lat="43.79199" lon="3.82363">
        <ele>237</ele>
        <time>2024-02-23T11:56:49Z</time>
      </trkpt>
      <trkpt lat="43.79201" lon="3.8236">
        <ele>237.2</ele>
        <time>2024-02-23T11:56:50Z</time>
      </trkpt>
      <trkpt lat="43.79201" lon="3.8236">
        <ele>237.6</ele>
        <time>2024-02-23T11:56:51Z</time>
      </trkpt>
      <trkpt lat="43.79203" lon="3.82357">
        <ele>237.8</ele>
        <time>2024-02-23T11:56:52Z</time>
      </trkpt>
      <trkpt lat="43.79204" lon="3.82355">
        <ele>238</ele>
        <time>2024-02-23T11:56:53Z</time>
      </trkpt>
      <trkpt lat="43.79205" lon="3.82351">
        <ele>238.2</ele>
        <time>2024-02-23T11:56:54Z</time>
      </trkpt>
      <trkpt lat="43.79205" lon="3.82351">
        <ele>238.4</ele>
        <time>2024-02-23T11:56:55Z</time>
      </trkpt>
      <trkpt lat="43.79207" lon="3.82349">
        <ele>238.8</ele>
        <time>2024-02-23T11:56:56Z</time>
      </trkpt>
      <trkpt lat="43.79207" lon="3.82349">
        <ele>239</ele>
        <time>2024-02-23T11:56:57Z</time>
      </trkpt>
      <trkpt lat="43.79209" lon="3.82347">
        <ele>239.4</ele>
        <time>2024-02-23T11:56:58Z</time>
      </trkpt>
      <trkpt lat="43.79209" lon="3.82347">
        <ele>239.8</ele>
        <time>2024-02-23T11:56:59Z</time>
      </trkpt>
      <trkpt lat="43.79211" lon="3.82345">
        <ele>240.2</ele>
        <time>2024-02-23T11:57:00Z</time>
      </trkpt>
      <trkpt lat="43.79211" lon="3.82345">
        <ele>240.4</ele>
        <time>2024-02-23T11:57:01Z</time>
      </trkpt>
      <trkpt lat="43.79212" lon="3.82343">
        <ele>240.8</ele>
        <time>2024-02-23T11:57:02Z</time>
      </trkpt>
      <trkpt lat="43.79212" lon="3.82343">
        <ele>241.2</ele>
        <time>2024-02-23T11:57:03Z</time>
      </trkpt>
      <trkpt lat="43.79213" lon="3.8234">
        <ele>241.4</ele>
        <time>2024-02-23T11:57:04Z</time>
      </trkpt>
      <trkpt lat="43.79213" lon="3.82335">
        <ele>241.6</ele>
        <time>2024-02-23T11:57:05Z</time>
      </trkpt>
      <trkpt lat="43.79213" lon="3.82331">
        <ele>241.6</ele>
        <time>2024-02-23T11:57:06Z</time>
      </trkpt>
      <trkpt lat="43.79213" lon="3.82327">
        <ele>241.8</ele>
        <time>2024-02-23T11:57:07Z</time>
      </trkpt>
      <trkpt lat="43.79213" lon="3.8232">
        <ele>241.8</ele>
        <time>2024-02-23T11:57:08Z</time>
      </trkpt>
      <trkpt lat="43.79214" lon="3.82313">
        <ele>242</ele>
        <time>2024-02-23T11:57:09Z</time>
      </trkpt>
      <trkpt lat="43.79216" lon="3.82307">
        <ele>242.2</ele>
        <time>2024-02-23T11:57:10Z</time>
      </trkpt>
      <trkpt lat="43.79216" lon="3.82304">
        <ele>242.4</ele>
        <time>2024-02-23T11:57:11Z</time>
      </trkpt>
      <trkpt lat="43.79217" lon="3.82302">
        <ele>242.6</ele>
        <time>2024-02-23T11:57:12Z</time>
      </trkpt>
      <trkpt lat="43.79218" lon="3.82298">
        <ele>243</ele>
        <time>2024-02-23T11:57:13Z</time>
      </trkpt>
      <trkpt lat="43.79219" lon="3.82294">
        <ele>243.2</ele>
        <time>2024-02-23T11:57:14Z</time>
      </trkpt>
      <trkpt lat="43.79219" lon="3.82294">
        <ele>243.4</ele>
        <time>2024-02-23T11:57:15Z</time>
      </trkpt>
      <trkpt lat="43.7922" lon="3.82289">
        <ele>243.6</ele>
        <time>2024-02-23T11:57:16Z</time>
      </trkpt>
      <trkpt lat="43.7922" lon="3.82286">
        <ele>243.8</ele>
        <time>2024-02-23T11:57:17Z</time>
      </trkpt>
      <trkpt lat="43.79221" lon="3.82284">
        <ele>244</ele>
        <time>2024-02-23T11:57:18Z</time>
      </trkpt>
      <trkpt lat="43.79222" lon="3.82281">
        <ele>244.2</ele>
        <time>2024-02-23T11:57:19Z</time>
      </trkpt>
      <trkpt lat="43.79224" lon="3.82279">
        <ele>244.2</ele>
        <time>2024-02-23T11:57:20Z</time>
      </trkpt>
      <trkpt lat="43.79224" lon="3.82279">
        <ele>244.4</ele>
        <time>2024-02-23T11:57:21Z</time>
      </trkpt>
      <trkpt lat="43.79224" lon="3.82279">
        <ele>244.6</ele>
        <time>2024-02-23T11:57:22Z</time>
      </trkpt>
      <trkpt lat="43.79226" lon="3.82279">
        <ele>244.8</ele>
        <time>2024-02-23T11:57:23Z</time>
      </trkpt>
      <trkpt lat="43.79226" lon="3.82279">
        <ele>245</ele>
        <time>2024-02-23T11:57:24Z</time>
      </trkpt>
      <trkpt lat="43.79226" lon="3.82279">
        <ele>245.2</ele>
        <time>2024-02-23T11:57:25Z</time>
      </trkpt>
      <trkpt lat="43.79227" lon="3.82277">
        <ele>245.4</ele>
        <time>2024-02-23T11:57:26Z</time>
      </trkpt>
      <trkpt lat="43.79227" lon="3.82277">
        <ele>245.4</ele>
        <time>2024-02-23T11:57:27Z</time>
      </trkpt>
      <trkpt lat="43.79228" lon="3.82273">
        <ele>245.6</ele>
        <time>2024-02-23T11:57:28Z</time>
      </trkpt>
      <trkpt lat="43.79228" lon="3.82273">
        <ele>245.8</ele>
        <time>2024-02-23T11:57:29Z</time>
      </trkpt>
      <trkpt lat="43.79229" lon="3.82268">
        <ele>245.8</ele>
        <time>2024-02-23T11:57:30Z</time>
      </trkpt>
      <trkpt lat="43.79229" lon="3.82265">
        <ele>245.8</ele>
        <time>2024-02-23T11:57:31Z</time>
      </trkpt>
      <trkpt lat="43.79229" lon="3.82262">
        <ele>246</ele>
        <time>2024-02-23T11:57:32Z</time>
      </trkpt>
      <trkpt lat="43.7923" lon="3.82259">
        <ele>246</ele>
        <time>2024-02-23T11:57:33Z</time>
      </trkpt>
      <trkpt lat="43.79229" lon="3.82256">
        <ele>246</ele>
        <time>2024-02-23T11:57:34Z</time>
      </trkpt>
      <trkpt lat="43.79229" lon="3.82253">
        <ele>246</ele>
        <time>2024-02-23T11:57:35Z</time>
      </trkpt>
      <trkpt lat="43.79229" lon="3.8225">
        <ele>246</ele>
        <time>2024-02-23T11:57:36Z</time>
      </trkpt>
      <trkpt lat="43.7923" lon="3.82248">
        <ele>246</ele>
        <time>2024-02-23T11:57:37Z</time>
      </trkpt>
      <trkpt lat="43.79231" lon="3.82246">
        <ele>246</ele>
        <time>2024-02-23T11:57:38Z</time>
      </trkpt>
      <trkpt lat="43.79231" lon="3.82246">
        <ele>246</ele>
        <time>2024-02-23T11:57:39Z</time>
      </trkpt>
      <trkpt lat="43.79232" lon="3.82241">
        <ele>246</ele>
        <time>2024-02-23T11:57:40Z</time>
      </trkpt>
      <trkpt lat="43.79233" lon="3.82239">
        <ele>246.2</ele>
        <time>2024-02-23T11:57:41Z</time>
      </trkpt>
      <trkpt lat="43.79233" lon="3.82239">
        <ele>246.4</ele>
        <time>2024-02-23T11:57:42Z</time>
      </trkpt>
      <trkpt lat="43.79233" lon="3.82235">
        <ele>246.6</ele>
        <time>2024-02-23T11:57:43Z</time>
      </trkpt>
      <trkpt lat="43.79233" lon="3.82235">
        <ele>246.8</ele>
        <time>2024-02-23T11:57:44Z</time>
      </trkpt>
      <trkpt lat="43.79233" lon="3.82232">
        <ele>246.8</ele>
        <time>2024-02-23T11:57:45Z</time>
      </trkpt>
      <trkpt lat="43.79233" lon="3.82232">
        <ele>247</ele>
        <time>2024-02-23T11:57:46Z</time>
      </trkpt>
      <trkpt lat="43.79235" lon="3.82228">
        <ele>247.2</ele>
        <time>2024-02-23T11:57:47Z</time>
      </trkpt>
      <trkpt lat="43.79235" lon="3.82228">
        <ele>247.4</ele>
        <time>2024-02-23T11:57:48Z</time>
      </trkpt>
      <trkpt lat="43.79235" lon="3.82224">
        <ele>247.6</ele>
        <time>2024-02-23T11:57:49Z</time>
      </trkpt>
      <trkpt lat="43.79235" lon="3.82224">
        <ele>248</ele>
        <time>2024-02-23T11:57:50Z</time>
      </trkpt>
      <trkpt lat="43.79236" lon="3.82221">
        <ele>248.4</ele>
        <time>2024-02-23T11:57:51Z</time>
      </trkpt>
      <trkpt lat="43.79236" lon="3.82221">
        <ele>248.6</ele>
        <time>2024-02-23T11:57:52Z</time>
      </trkpt>
      <trkpt lat="43.79236" lon="3.82215">
        <ele>248.8</ele>
        <time>2024-02-23T11:57:53Z</time>
      </trkpt>
      <trkpt lat="43.79237" lon="3.82212">
        <ele>249</ele>
        <time>2024-02-23T11:57:54Z</time>
      </trkpt>
      <trkpt lat="43.79237" lon="3.82209">
        <ele>249</ele>
        <time>2024-02-23T11:57:55Z</time>
      </trkpt>
      <trkpt lat="43.79237" lon="3.82206">
        <ele>249</ele>
        <time>2024-02-23T11:57:56Z</time>
      </trkpt>
      <trkpt lat="43.79237" lon="3.82203">
        <ele>249.2</ele>
        <time>2024-02-23T11:57:57Z</time>
      </trkpt>
      <trkpt lat="43.79238" lon="3.82201">
        <ele>249.2</ele>
        <time>2024-02-23T11:57:58Z</time>
      </trkpt>
      <trkpt lat="43.79238" lon="3.82198">
        <ele>249.2</ele>
        <time>2024-02-23T11:57:59Z</time>
      </trkpt>
      <trkpt lat="43.79238" lon="3.82198">
        <ele>249.4</ele>
        <time>2024-02-23T11:58:00Z</time>
      </trkpt>
      <trkpt lat="43.79239" lon="3.82194">
        <ele>249.4</ele>
        <time>2024-02-23T11:58:01Z</time>
      </trkpt>
      <trkpt lat="43.79239" lon="3.82191">
        <ele>249.8</ele>
        <time>2024-02-23T11:58:02Z</time>
      </trkpt>
      <trkpt lat="43.7924" lon="3.82188">
        <ele>249.8</ele>
        <time>2024-02-23T11:58:03Z</time>
      </trkpt>
      <trkpt lat="43.79241" lon="3.82186">
        <ele>250</ele>
        <time>2024-02-23T11:58:04Z</time>
      </trkpt>
      <trkpt lat="43.79241" lon="3.82183">
        <ele>250.4</ele>
        <time>2024-02-23T11:58:05Z</time>
      </trkpt>
      <trkpt lat="43.79241" lon="3.8218">
        <ele>250.6</ele>
        <time>2024-02-23T11:58:06Z</time>
      </trkpt>
      <trkpt lat="43.7924" lon="3.82177">
        <ele>250.8</ele>
        <time>2024-02-23T11:58:07Z</time>
      </trkpt>
      <trkpt lat="43.79241" lon="3.82174">
        <ele>251</ele>
        <time>2024-02-23T11:58:08Z</time>
      </trkpt>
      <trkpt lat="43.79241" lon="3.82172">
        <ele>251</ele>
        <time>2024-02-23T11:58:09Z</time>
      </trkpt>
      <trkpt lat="43.79241" lon="3.82169">
        <ele>251.2</ele>
        <time>2024-02-23T11:58:10Z</time>
      </trkpt>
      <trkpt lat="43.79241" lon="3.82165">
        <ele>251.2</ele>
        <time>2024-02-23T11:58:11Z</time>
      </trkpt>
      <trkpt lat="43.79241" lon="3.82163">
        <ele>251.2</ele>
        <time>2024-02-23T11:58:12Z</time>
      </trkpt>
      <trkpt lat="43.79241" lon="3.82163">
        <ele>251.4</ele>
        <time>2024-02-23T11:58:13Z</time>
      </trkpt>
      <trkpt lat="43.79242" lon="3.82159">
        <ele>251.6</ele>
        <time>2024-02-23T11:58:14Z</time>
      </trkpt>
      <trkpt lat="43.79241" lon="3.82156">
        <ele>251.8</ele>
        <time>2024-02-23T11:58:15Z</time>
      </trkpt>
      <trkpt lat="43.79241" lon="3.82153">
        <ele>251.8</ele>
        <time>2024-02-23T11:58:16Z</time>
      </trkpt>
      <trkpt lat="43.79241" lon="3.82153">
        <ele>252</ele>
        <time>2024-02-23T11:58:17Z</time>
      </trkpt>
      <trkpt lat="43.7924" lon="3.82148">
        <ele>252</ele>
        <time>2024-02-23T11:58:18Z</time>
      </trkpt>
      <trkpt lat="43.79239" lon="3.82145">
        <ele>252</ele>
        <time>2024-02-23T11:58:19Z</time>
      </trkpt>
      <trkpt lat="43.79239" lon="3.82143">
        <ele>252.2</ele>
        <time>2024-02-23T11:58:20Z</time>
      </trkpt>
      <trkpt lat="43.79239" lon="3.8214">
        <ele>252.2</ele>
        <time>2024-02-23T11:58:21Z</time>
      </trkpt>
      <trkpt lat="43.79239" lon="3.8214">
        <ele>252.4</ele>
        <time>2024-02-23T11:58:22Z</time>
      </trkpt>
      <trkpt lat="43.79238" lon="3.82136">
        <ele>252.6</ele>
        <time>2024-02-23T11:58:23Z</time>
      </trkpt>
      <trkpt lat="43.79239" lon="3.82133">
        <ele>253</ele>
        <time>2024-02-23T11:58:24Z</time>
      </trkpt>
      <trkpt lat="43.79239" lon="3.82133">
        <ele>253.2</ele>
        <time>2024-02-23T11:58:25Z</time>
      </trkpt>
      <trkpt lat="43.79239" lon="3.82129">
        <ele>253.6</ele>
        <time>2024-02-23T11:58:26Z</time>
      </trkpt>
      <trkpt lat="43.79239" lon="3.82129">
        <ele>253.8</ele>
        <time>2024-02-23T11:58:27Z</time>
      </trkpt>
      <trkpt lat="43.79241" lon="3.82125">
        <ele>254.2</ele>
        <time>2024-02-23T11:58:28Z</time>
      </trkpt>
      <trkpt lat="43.79241" lon="3.82125">
        <ele>254.6</ele>
        <time>2024-02-23T11:58:29Z</time>
      </trkpt>
      <trkpt lat="43.79241" lon="3.82125">
        <ele>255</ele>
        <time>2024-02-23T11:58:30Z</time>
      </trkpt>
      <trkpt lat="43.79241" lon="3.82122">
        <ele>255.2</ele>
        <time>2024-02-23T11:58:31Z</time>
      </trkpt>
      <trkpt lat="43.79241" lon="3.82122">
        <ele>255.6</ele>
        <time>2024-02-23T11:58:32Z</time>
      </trkpt>
      <trkpt lat="43.79241" lon="3.82119">
        <ele>256</ele>
        <time>2024-02-23T11:58:33Z</time>
      </trkpt>
      <trkpt lat="43.79241" lon="3.82119">
        <ele>256.2</ele>
        <time>2024-02-23T11:58:34Z</time>
      </trkpt>
      <trkpt lat="43.79242" lon="3.82115">
        <ele>256.6</ele>
        <time>2024-02-23T11:58:35Z</time>
      </trkpt>
      <trkpt lat="43.79243" lon="3.82113">
        <ele>257</ele>
        <time>2024-02-23T11:58:36Z</time>
      </trkpt>
      <trkpt lat="43.79244" lon="3.82109">
        <ele>257.4</ele>
        <time>2024-02-23T11:58:37Z</time>
      </trkpt>
      <trkpt lat="43.79244" lon="3.82107">
        <ele>257.6</ele>
        <time>2024-02-23T11:58:38Z</time>
      </trkpt>
      <trkpt lat="43.79244" lon="3.82107">
        <ele>258</ele>
        <time>2024-02-23T11:58:39Z</time>
      </trkpt>
      <trkpt lat="43.79244" lon="3.82103">
        <ele>258.2</ele>
        <time>2024-02-23T11:58:40Z</time>
      </trkpt>
      <trkpt lat="43.79244" lon="3.82101">
        <ele>258.6</ele>
        <time>2024-02-23T11:58:41Z</time>
      </trkpt>
      <trkpt lat="43.79244" lon="3.82098">
        <ele>259</ele>
        <time>2024-02-23T11:58:42Z</time>
      </trkpt>
      <trkpt lat="43.79244" lon="3.82095">
        <ele>259.2</ele>
        <time>2024-02-23T11:58:43Z</time>
      </trkpt>
      <trkpt lat="43.79244" lon="3.82092">
        <ele>259.4</ele>
        <time>2024-02-23T11:58:44Z</time>
      </trkpt>
      <trkpt lat="43.79244" lon="3.82088">
        <ele>259.8</ele>
        <time>2024-02-23T11:58:45Z</time>
      </trkpt>
      <trkpt lat="43.79244" lon="3.82085">
        <ele>260</ele>
        <time>2024-02-23T11:58:46Z</time>
      </trkpt>
      <trkpt lat="43.79245" lon="3.82082">
        <ele>260.2</ele>
        <time>2024-02-23T11:58:47Z</time>
      </trkpt>
      <trkpt lat="43.79245" lon="3.82079">
        <ele>260.2</ele>
        <time>2024-02-23T11:58:48Z</time>
      </trkpt>
      <trkpt lat="43.79245" lon="3.82076">
        <ele>260.4</ele>
        <time>2024-02-23T11:58:49Z</time>
      </trkpt>
      <trkpt lat="43.79245" lon="3.82076">
        <ele>260.6</ele>
        <time>2024-02-23T11:58:50Z</time>
      </trkpt>
      <trkpt lat="43.79245" lon="3.82072">
        <ele>260.8</ele>
        <time>2024-02-23T11:58:51Z</time>
      </trkpt>
      <trkpt lat="43.79245" lon="3.82072">
        <ele>261</ele>
        <time>2024-02-23T11:58:52Z</time>
      </trkpt>
      <trkpt lat="43.79245" lon="3.82072">
        <ele>261.4</ele>
        <time>2024-02-23T11:58:53Z</time>
      </trkpt>
      <trkpt lat="43.79245" lon="3.82068">
        <ele>261.6</ele>
        <time>2024-02-23T11:58:54Z</time>
      </trkpt>
      <trkpt lat="43.79245" lon="3.82068">
        <ele>262</ele>
        <time>2024-02-23T11:58:55Z</time>
      </trkpt>
      <trkpt lat="43.79245" lon="3.82064">
        <ele>262.4</ele>
        <time>2024-02-23T11:58:56Z</time>
      </trkpt>
      <trkpt lat="43.79245" lon="3.82064">
        <ele>262.6</ele>
        <time>2024-02-23T11:58:57Z</time>
      </trkpt>
      <trkpt lat="43.79247" lon="3.8206">
        <ele>263</ele>
        <time>2024-02-23T11:58:58Z</time>
      </trkpt>
      <trkpt lat="43.79247" lon="3.8206">
        <ele>263.2</ele>
        <time>2024-02-23T11:58:59Z</time>
      </trkpt>
      <trkpt lat="43.79249" lon="3.82059">
        <ele>263.6</ele>
        <time>2024-02-23T11:59:00Z</time>
      </trkpt>
      <trkpt lat="43.79249" lon="3.82059">
        <ele>263.8</ele>
        <time>2024-02-23T11:59:01Z</time>
      </trkpt>
      <trkpt lat="43.79249" lon="3.82059">
        <ele>264</ele>
        <time>2024-02-23T11:59:02Z</time>
      </trkpt>
      <trkpt lat="43.79249" lon="3.82055">
        <ele>264.2</ele>
        <time>2024-02-23T11:59:03Z</time>
      </trkpt>
      <trkpt lat="43.79249" lon="3.82055">
        <ele>264.6</ele>
        <time>2024-02-23T11:59:04Z</time>
      </trkpt>
      <trkpt lat="43.7925" lon="3.82052">
        <ele>264.8</ele>
        <time>2024-02-23T11:59:05Z</time>
      </trkpt>
      <trkpt lat="43.7925" lon="3.82049">
        <ele>265</ele>
        <time>2024-02-23T11:59:06Z</time>
      </trkpt>
      <trkpt lat="43.79251" lon="3.82046">
        <ele>265.2</ele>
        <time>2024-02-23T11:59:07Z</time>
      </trkpt>
      <trkpt lat="43.79252" lon="3.82043">
        <ele>265.4</ele>
        <time>2024-02-23T11:59:08Z</time>
      </trkpt>
      <trkpt lat="43.79253" lon="3.8204">
        <ele>265.8</ele>
        <time>2024-02-23T11:59:09Z</time>
      </trkpt>
      <trkpt lat="43.79253" lon="3.8204">
        <ele>266</ele>
        <time>2024-02-23T11:59:10Z</time>
      </trkpt>
      <trkpt lat="43.79253" lon="3.82035">
        <ele>266.2</ele>
        <time>2024-02-23T11:59:11Z</time>
      </trkpt>
      <trkpt lat="43.79253" lon="3.82035">
        <ele>266.6</ele>
        <time>2024-02-23T11:59:12Z</time>
      </trkpt>
      <trkpt lat="43.79252" lon="3.82031">
        <ele>266.8</ele>
        <time>2024-02-23T11:59:13Z</time>
      </trkpt>
      <trkpt lat="43.79252" lon="3.82031">
        <ele>267</ele>
        <time>2024-02-23T11:59:14Z</time>
      </trkpt>
      <trkpt lat="43.79252" lon="3.82026">
        <ele>267.2</ele>
        <time>2024-02-23T11:59:15Z</time>
      </trkpt>
      <trkpt lat="43.79252" lon="3.82026">
        <ele>267.4</ele>
        <time>2024-02-23T11:59:16Z</time>
      </trkpt>
      <trkpt lat="43.79253" lon="3.82022">
        <ele>267.6</ele>
        <time>2024-02-23T11:59:17Z</time>
      </trkpt>
      <trkpt lat="43.79253" lon="3.82019">
        <ele>268</ele>
        <time>2024-02-23T11:59:18Z</time>
      </trkpt>
      <trkpt lat="43.79253" lon="3.82019">
        <ele>268.2</ele>
        <time>2024-02-23T11:59:19Z</time>
      </trkpt>
      <trkpt lat="43.79255" lon="3.82016">
        <ele>268.6</ele>
        <time>2024-02-23T11:59:20Z</time>
      </trkpt>
      <trkpt lat="43.79255" lon="3.82014">
        <ele>268.8</ele>
        <time>2024-02-23T11:59:21Z</time>
      </trkpt>
      <trkpt lat="43.79256" lon="3.82011">
        <ele>269</ele>
        <time>2024-02-23T11:59:22Z</time>
      </trkpt>
      <trkpt lat="43.79256" lon="3.82008">
        <ele>269</ele>
        <time>2024-02-23T11:59:23Z</time>
      </trkpt>
      <trkpt lat="43.79256" lon="3.82005">
        <ele>269.2</ele>
        <time>2024-02-23T11:59:24Z</time>
      </trkpt>
      <trkpt lat="43.79257" lon="3.82003">
        <ele>269.2</ele>
        <time>2024-02-23T11:59:25Z</time>
      </trkpt>
      <trkpt lat="43.79257" lon="3.82003">
        <ele>269.4</ele>
        <time>2024-02-23T11:59:26Z</time>
      </trkpt>
      <trkpt lat="43.79258" lon="3.81998">
        <ele>269.4</ele>
        <time>2024-02-23T11:59:27Z</time>
      </trkpt>
      <trkpt lat="43.79257" lon="3.81995">
        <ele>269.6</ele>
        <time>2024-02-23T11:59:28Z</time>
      </trkpt>
      <trkpt lat="43.79256" lon="3.81992">
        <ele>269.8</ele>
        <time>2024-02-23T11:59:29Z</time>
      </trkpt>
      <trkpt lat="43.79256" lon="3.81992">
        <ele>270</ele>
        <time>2024-02-23T11:59:30Z</time>
      </trkpt>
      <trkpt lat="43.79256" lon="3.81987">
        <ele>270.2</ele>
        <time>2024-02-23T11:59:31Z</time>
      </trkpt>
      <trkpt lat="43.79256" lon="3.81987">
        <ele>270.4</ele>
        <time>2024-02-23T11:59:32Z</time>
      </trkpt>
      <trkpt lat="43.79256" lon="3.81983">
        <ele>270.6</ele>
        <time>2024-02-23T11:59:33Z</time>
      </trkpt>
      <trkpt lat="43.79257" lon="3.81981">
        <ele>270.8</ele>
        <time>2024-02-23T11:59:34Z</time>
      </trkpt>
      <trkpt lat="43.79257" lon="3.81981">
        <ele>271.2</ele>
        <time>2024-02-23T11:59:35Z</time>
      </trkpt>
      <trkpt lat="43.79257" lon="3.81976">
        <ele>271.4</ele>
        <time>2024-02-23T11:59:36Z</time>
      </trkpt>
      <trkpt lat="43.79257" lon="3.81976">
        <ele>271.6</ele>
        <time>2024-02-23T11:59:37Z</time>
      </trkpt>
      <trkpt lat="43.79256" lon="3.81971">
        <ele>271.8</ele>
        <time>2024-02-23T11:59:38Z</time>
      </trkpt>
      <trkpt lat="43.79256" lon="3.81969">
        <ele>272.2</ele>
        <time>2024-02-23T11:59:39Z</time>
      </trkpt>
      <trkpt lat="43.79256" lon="3.81966">
        <ele>272.4</ele>
        <time>2024-02-23T11:59:40Z</time>
      </trkpt>
      <trkpt lat="43.79256" lon="3.81966">
        <ele>272.8</ele>
        <time>2024-02-23T11:59:41Z</time>
      </trkpt>
      <trkpt lat="43.79256" lon="3.81962">
        <ele>273.2</ele>
        <time>2024-02-23T11:59:42Z</time>
      </trkpt>
      <trkpt lat="43.79256" lon="3.81962">
        <ele>273.4</ele>
        <time>2024-02-23T11:59:43Z</time>
      </trkpt>
      <trkpt lat="43.79257" lon="3.81958">
        <ele>273.6</ele>
        <time>2024-02-23T11:59:44Z</time>
      </trkpt>
      <trkpt lat="43.79257" lon="3.81958">
        <ele>273.8</ele>
        <time>2024-02-23T11:59:45Z</time>
      </trkpt>
      <trkpt lat="43.79256" lon="3.81954">
        <ele>274</ele>
        <time>2024-02-23T11:59:46Z</time>
      </trkpt>
      <trkpt lat="43.79256" lon="3.81954">
        <ele>274.4</ele>
        <time>2024-02-23T11:59:47Z</time>
      </trkpt>
      <trkpt lat="43.79256" lon="3.8195">
        <ele>274.6</ele>
        <time>2024-02-23T11:59:48Z</time>
      </trkpt>
      <trkpt lat="43.79256" lon="3.8195">
        <ele>274.8</ele>
        <time>2024-02-23T11:59:49Z</time>
      </trkpt>
      <trkpt lat="43.79257" lon="3.81945">
        <ele>275</ele>
        <time>2024-02-23T11:59:50Z</time>
      </trkpt>
      <trkpt lat="43.79257" lon="3.81945">
        <ele>275.2</ele>
        <time>2024-02-23T11:59:51Z</time>
      </trkpt>
      <trkpt lat="43.79257" lon="3.81942">
        <ele>275.6</ele>
        <time>2024-02-23T11:59:52Z</time>
      </trkpt>
      <trkpt lat="43.79257" lon="3.81942">
        <ele>275.8</ele>
        <time>2024-02-23T11:59:53Z</time>
      </trkpt>
      <trkpt lat="43.79256" lon="3.81939">
        <ele>276.2</ele>
        <time>2024-02-23T11:59:54Z</time>
      </trkpt>
      <trkpt lat="43.79256" lon="3.81939">
        <ele>276.4</ele>
        <time>2024-02-23T11:59:55Z</time>
      </trkpt>
      <trkpt lat="43.79257" lon="3.81935">
        <ele>276.8</ele>
        <time>2024-02-23T11:59:56Z</time>
      </trkpt>
      <trkpt lat="43.79257" lon="3.81935">
        <ele>277</ele>
        <time>2024-02-23T11:59:57Z</time>
      </trkpt>
      <trkpt lat="43.79257" lon="3.81931">
        <ele>277.2</ele>
        <time>2024-02-23T11:59:58Z</time>
      </trkpt>
      <trkpt lat="43.79257" lon="3.81931">
        <ele>277.4</ele>
        <time>2024-02-23T11:59:59Z</time>
      </trkpt>
      <trkpt lat="43.79257" lon="3.81928">
        <ele>277.6</ele>
        <time>2024-02-23T12:00:00Z</time>
      </trkpt>
      <trkpt lat="43.79257" lon="3.81928">
        <ele>278</ele>
        <time>2024-02-23T12:00:01Z</time>
      </trkpt>
      <trkpt lat="43.79257" lon="3.81924">
        <ele>278.2</ele>
        <time>2024-02-23T12:00:02Z</time>
      </trkpt>
      <trkpt lat="43.79257" lon="3.81924">
        <ele>278.4</ele>
        <time>2024-02-23T12:00:03Z</time>
      </trkpt>
      <trkpt lat="43.79258" lon="3.81921">
        <ele>278.6</ele>
        <time>2024-02-23T12:00:04Z</time>
      </trkpt>
      <trkpt lat="43.79258" lon="3.81921">
        <ele>279</ele>
        <time>2024-02-23T12:00:05Z</time>
      </trkpt>
      <trkpt lat="43.79258" lon="3.81917">
        <ele>279</ele>
        <time>2024-02-23T12:00:06Z</time>
      </trkpt>
      <trkpt lat="43.79258" lon="3.81917">
        <ele>279.4</ele>
        <time>2024-02-23T12:00:07Z</time>
      </trkpt>
      <trkpt lat="43.79259" lon="3.81915">
        <ele>279.6</ele>
        <time>2024-02-23T12:00:08Z</time>
      </trkpt>
      <trkpt lat="43.79259" lon="3.81915">
        <ele>280</ele>
        <time>2024-02-23T12:00:09Z</time>
      </trkpt>
      <trkpt lat="43.7926" lon="3.81911">
        <ele>280.2</ele>
        <time>2024-02-23T12:00:10Z</time>
      </trkpt>
      <trkpt lat="43.7926" lon="3.81911">
        <ele>280.6</ele>
        <time>2024-02-23T12:00:11Z</time>
      </trkpt>
      <trkpt lat="43.7926" lon="3.81908">
        <ele>281</ele>
        <time>2024-02-23T12:00:12Z</time>
      </trkpt>
      <trkpt lat="43.7926" lon="3.81908">
        <ele>281.4</ele>
        <time>2024-02-23T12:00:13Z</time>
      </trkpt>
      <trkpt lat="43.79261" lon="3.81905">
        <ele>281.6</ele>
        <time>2024-02-23T12:00:14Z</time>
      </trkpt>
      <trkpt lat="43.79261" lon="3.81905">
        <ele>282</ele>
        <time>2024-02-23T12:00:15Z</time>
      </trkpt>
      <trkpt lat="43.79261" lon="3.81905">
        <ele>282.2</ele>
        <time>2024-02-23T12:00:16Z</time>
      </trkpt>
      <trkpt lat="43.79261" lon="3.81905">
        <ele>282.2</ele>
        <time>2024-02-23T12:00:17Z</time>
      </trkpt>
      <trkpt lat="43.79261" lon="3.81905">
        <ele>282.8</ele>
        <time>2024-02-23T12:00:18Z</time>
      </trkpt>
      <trkpt lat="43.79262" lon="3.81902">
        <ele>283.2</ele>
        <time>2024-02-23T12:00:19Z</time>
      </trkpt>
      <trkpt lat="43.79262" lon="3.81902">
        <ele>283.4</ele>
        <time>2024-02-23T12:00:20Z</time>
      </trkpt>
      <trkpt lat="43.79261" lon="3.81899">
        <ele>283.6</ele>
        <time>2024-02-23T12:00:21Z</time>
      </trkpt>
      <trkpt lat="43.79261" lon="3.81899">
        <ele>284</ele>
        <time>2024-02-23T12:00:22Z</time>
      </trkpt>
      <trkpt lat="43.79261" lon="3.81894">
        <ele>284.4</ele>
        <time>2024-02-23T12:00:23Z</time>
      </trkpt>
      <trkpt lat="43.79261" lon="3.81894">
        <ele>284.6</ele>
        <time>2024-02-23T12:00:24Z</time>
      </trkpt>
      <trkpt lat="43.79261" lon="3.8189">
        <ele>284.8</ele>
        <time>2024-02-23T12:00:25Z</time>
      </trkpt>
      <trkpt lat="43.79261" lon="3.8189">
        <ele>285.2</ele>
        <time>2024-02-23T12:00:26Z</time>
      </trkpt>
      <trkpt lat="43.79262" lon="3.81887">
        <ele>285.4</ele>
        <time>2024-02-23T12:00:27Z</time>
      </trkpt>
      <trkpt lat="43.79262" lon="3.81887">
        <ele>285.6</ele>
        <time>2024-02-23T12:00:28Z</time>
      </trkpt>
      <trkpt lat="43.79262" lon="3.81883">
        <ele>286</ele>
        <time>2024-02-23T12:00:29Z</time>
      </trkpt>
      <trkpt lat="43.79262" lon="3.81883">
        <ele>286.4</ele>
        <time>2024-02-23T12:00:30Z</time>
      </trkpt>
      <trkpt lat="43.79263" lon="3.8188">
        <ele>286.6</ele>
        <time>2024-02-23T12:00:31Z</time>
      </trkpt>
      <trkpt lat="43.79263" lon="3.8188">
        <ele>286.8</ele>
        <time>2024-02-23T12:00:32Z</time>
      </trkpt>
      <trkpt lat="43.79263" lon="3.81876">
        <ele>287.2</ele>
        <time>2024-02-23T12:00:33Z</time>
      </trkpt>
      <trkpt lat="43.79262" lon="3.81874">
        <ele>287.4</ele>
        <time>2024-02-23T12:00:34Z</time>
      </trkpt>
      <trkpt lat="43.79262" lon="3.81874">
        <ele>287.8</ele>
        <time>2024-02-23T12:00:35Z</time>
      </trkpt>
      <trkpt lat="43.79263" lon="3.81871">
        <ele>288</ele>
        <time>2024-02-23T12:00:36Z</time>
      </trkpt>
      <trkpt lat="43.79263" lon="3.81871">
        <ele>288.2</ele>
        <time>2024-02-23T12:00:37Z</time>
      </trkpt>
      <trkpt lat="43.79263" lon="3.81871">
        <ele>288.6</ele>
        <time>2024-02-23T12:00:38Z</time>
      </trkpt>
      <trkpt lat="43.79263" lon="3.81871">
        <ele>289</ele>
        <time>2024-02-23T12:00:39Z</time>
      </trkpt>
      <trkpt lat="43.79264" lon="3.81868">
        <ele>289.4</ele>
        <time>2024-02-23T12:00:40Z</time>
      </trkpt>
      <trkpt lat="43.79264" lon="3.81868">
        <ele>289.8</ele>
        <time>2024-02-23T12:00:41Z</time>
      </trkpt>
      <trkpt lat="43.79265" lon="3.81866">
        <ele>290.2</ele>
        <time>2024-02-23T12:00:42Z</time>
      </trkpt>
      <trkpt lat="43.79265" lon="3.81866">
        <ele>290.6</ele>
        <time>2024-02-23T12:00:43Z</time>
      </trkpt>
      <trkpt lat="43.79267" lon="3.81865">
        <ele>290.8</ele>
        <time>2024-02-23T12:00:44Z</time>
      </trkpt>
      <trkpt lat="43.79267" lon="3.81865">
        <ele>291.2</ele>
        <time>2024-02-23T12:00:45Z</time>
      </trkpt>
      <trkpt lat="43.79267" lon="3.81865">
        <ele>291.6</ele>
        <time>2024-02-23T12:00:46Z</time>
      </trkpt>
      <trkpt lat="43.79267" lon="3.81865">
        <ele>292</ele>
        <time>2024-02-23T12:00:47Z</time>
      </trkpt>
      <trkpt lat="43.79267" lon="3.81865">
        <ele>292.2</ele>
        <time>2024-02-23T12:00:48Z</time>
      </trkpt>
      <trkpt lat="43.79267" lon="3.81865">
        <ele>292.6</ele>
        <time>2024-02-23T12:00:49Z</time>
      </trkpt>
      <trkpt lat="43.79267" lon="3.81865">
        <ele>293</ele>
        <time>2024-02-23T12:00:50Z</time>
      </trkpt>
      <trkpt lat="43.79269" lon="3.81866">
        <ele>293.2</ele>
        <time>2024-02-23T12:00:51Z</time>
      </trkpt>
      <trkpt lat="43.79269" lon="3.81866">
        <ele>293.6</ele>
        <time>2024-02-23T12:00:52Z</time>
      </trkpt>
      <trkpt lat="43.79269" lon="3.81866">
        <ele>294</ele>
        <time>2024-02-23T12:00:53Z</time>
      </trkpt>
      <trkpt lat="43.79269" lon="3.81866">
        <ele>294.4</ele>
        <time>2024-02-23T12:00:54Z</time>
      </trkpt>
      <trkpt lat="43.79269" lon="3.81866">
        <ele>294.8</ele>
        <time>2024-02-23T12:00:55Z</time>
      </trkpt>
      <trkpt lat="43.79272" lon="3.81866">
        <ele>295.2</ele>
        <time>2024-02-23T12:00:56Z</time>
      </trkpt>
      <trkpt lat="43.79272" lon="3.81866">
        <ele>295.6</ele>
        <time>2024-02-23T12:00:57Z</time>
      </trkpt>
      <trkpt lat="43.79272" lon="3.81866">
        <ele>296</ele>
        <time>2024-02-23T12:00:58Z</time>
      </trkpt>
      <trkpt lat="43.79272" lon="3.81866">
        <ele>296.4</ele>
        <time>2024-02-23T12:00:59Z</time>
      </trkpt>
      <trkpt lat="43.79272" lon="3.81866">
        <ele>296.8</ele>
        <time>2024-02-23T12:01:00Z</time>
      </trkpt>
      <trkpt lat="43.79272" lon="3.81866">
        <ele>297</ele>
        <time>2024-02-23T12:01:01Z</time>
      </trkpt>
      <trkpt lat="43.79272" lon="3.81866">
        <ele>297.4</ele>
        <time>2024-02-23T12:01:02Z</time>
      </trkpt>
      <trkpt lat="43.79273" lon="3.81868">
        <ele>297.8</ele>
        <time>2024-02-23T12:01:03Z</time>
      </trkpt>
      <trkpt lat="43.79273" lon="3.81868">
        <ele>298</ele>
        <time>2024-02-23T12:01:04Z</time>
      </trkpt>
      <trkpt lat="43.79273" lon="3.81868">
        <ele>298.4</ele>
        <time>2024-02-23T12:01:05Z</time>
      </trkpt>
      <trkpt lat="43.79276" lon="3.8187">
        <ele>298.8</ele>
        <time>2024-02-23T12:01:06Z</time>
      </trkpt>
      <trkpt lat="43.79276" lon="3.8187">
        <ele>299.2</ele>
        <time>2024-02-23T12:01:07Z</time>
      </trkpt>
      <trkpt lat="43.79276" lon="3.8187">
        <ele>299.6</ele>
        <time>2024-02-23T12:01:08Z</time>
      </trkpt>
      <trkpt lat="43.79276" lon="3.8187">
        <ele>300</ele>
        <time>2024-02-23T12:01:09Z</time>
      </trkpt>
      <trkpt lat="43.79276" lon="3.8187">
        <ele>300.4</ele>
        <time>2024-02-23T12:01:10Z</time>
      </trkpt>
      <trkpt lat="43.79276" lon="3.8187">
        <ele>300.8</ele>
        <time>2024-02-23T12:01:11Z</time>
      </trkpt>
      <trkpt lat="43.79276" lon="3.8187">
        <ele>301.2</ele>
        <time>2024-02-23T12:01:12Z</time>
      </trkpt>
      <trkpt lat="43.79276" lon="3.8187">
        <ele>301.4</ele>
        <time>2024-02-23T12:01:13Z</time>
      </trkpt>
      <trkpt lat="43.79278" lon="3.81868">
        <ele>301.8</ele>
        <time>2024-02-23T12:01:14Z</time>
      </trkpt>
      <trkpt lat="43.79278" lon="3.81868">
        <ele>302</ele>
        <time>2024-02-23T12:01:15Z</time>
      </trkpt>
      <trkpt lat="43.79278" lon="3.81868">
        <ele>302.4</ele>
        <time>2024-02-23T12:01:16Z</time>
      </trkpt>
      <trkpt lat="43.79279" lon="3.81866">
        <ele>302.6</ele>
        <time>2024-02-23T12:01:17Z</time>
      </trkpt>
      <trkpt lat="43.79279" lon="3.81866">
        <ele>302.8</ele>
        <time>2024-02-23T12:01:18Z</time>
      </trkpt>
      <trkpt lat="43.79279" lon="3.81866">
        <ele>303.2</ele>
        <time>2024-02-23T12:01:19Z</time>
      </trkpt>
      <trkpt lat="43.7928" lon="3.81863">
        <ele>303.4</ele>
        <time>2024-02-23T12:01:20Z</time>
      </trkpt>
      <trkpt lat="43.7928" lon="3.81863">
        <ele>303.6</ele>
        <time>2024-02-23T12:01:21Z</time>
      </trkpt>
      <trkpt lat="43.7928" lon="3.81863">
        <ele>304</ele>
        <time>2024-02-23T12:01:22Z</time>
      </trkpt>
      <trkpt lat="43.7928" lon="3.81863">
        <ele>304.2</ele>
        <time>2024-02-23T12:01:23Z</time>
      </trkpt>
      <trkpt lat="43.79281" lon="3.8186">
        <ele>304.6</ele>
        <time>2024-02-23T12:01:24Z</time>
      </trkpt>
      <trkpt lat="43.79281" lon="3.8186">
        <ele>304.8</ele>
        <time>2024-02-23T12:01:25Z</time>
      </trkpt>
      <trkpt lat="43.79282" lon="3.81857">
        <ele>305</ele>
        <time>2024-02-23T12:01:26Z</time>
      </trkpt>
      <trkpt lat="43.79282" lon="3.81857">
        <ele>305.2</ele>
        <time>2024-02-23T12:01:27Z</time>
      </trkpt>
      <trkpt lat="43.79282" lon="3.81857">
        <ele>305.6</ele>
        <time>2024-02-23T12:01:28Z</time>
      </trkpt>
      <trkpt lat="43.79285" lon="3.81857">
        <ele>306</ele>
        <time>2024-02-23T12:01:29Z</time>
      </trkpt>
      <trkpt lat="43.79285" lon="3.81857">
        <ele>306.2</ele>
        <time>2024-02-23T12:01:30Z</time>
      </trkpt>
      <trkpt lat="43.79285" lon="3.81857">
        <ele>306.4</ele>
        <time>2024-02-23T12:01:31Z</time>
      </trkpt>
      <trkpt lat="43.79287" lon="3.81858">
        <ele>306.8</ele>
        <time>2024-02-23T12:01:32Z</time>
      </trkpt>
      <trkpt lat="43.79287" lon="3.81858">
        <ele>307</ele>
        <time>2024-02-23T12:01:33Z</time>
      </trkpt>
      <trkpt lat="43.7929" lon="3.81859">
        <ele>307.4</ele>
        <time>2024-02-23T12:01:34Z</time>
      </trkpt>
      <trkpt lat="43.7929" lon="3.81859">
        <ele>307.6</ele>
        <time>2024-02-23T12:01:35Z</time>
      </trkpt>
      <trkpt lat="43.7929" lon="3.81859">
        <ele>308</ele>
        <time>2024-02-23T12:01:36Z</time>
      </trkpt>
      <trkpt lat="43.79291" lon="3.81855">
        <ele>308.2</ele>
        <time>2024-02-23T12:01:37Z</time>
      </trkpt>
      <trkpt lat="43.79291" lon="3.81855">
        <ele>308.6</ele>
        <time>2024-02-23T12:01:38Z</time>
      </trkpt>
      <trkpt lat="43.79293" lon="3.81852">
        <ele>308.8</ele>
        <time>2024-02-23T12:01:39Z</time>
      </trkpt>
      <trkpt lat="43.79293" lon="3.81852">
        <ele>309.2</ele>
        <time>2024-02-23T12:01:40Z</time>
      </trkpt>
      <trkpt lat="43.79294" lon="3.81848">
        <ele>309.6</ele>
        <time>2024-02-23T12:01:41Z</time>
      </trkpt>
      <trkpt lat="43.79294" lon="3.81848">
        <ele>310.2</ele>
        <time>2024-02-23T12:01:42Z</time>
      </trkpt>
      <trkpt lat="43.79295" lon="3.81844">
        <ele>310.6</ele>
        <time>2024-02-23T12:01:43Z</time>
      </trkpt>
      <trkpt lat="43.79295" lon="3.81844">
        <ele>311</ele>
        <time>2024-02-23T12:01:44Z</time>
      </trkpt>
      <trkpt lat="43.79298" lon="3.81843">
        <ele>311.4</ele>
        <time>2024-02-23T12:01:45Z</time>
      </trkpt>
      <trkpt lat="43.79298" lon="3.81843">
        <ele>311.8</ele>
        <time>2024-02-23T12:01:46Z</time>
      </trkpt>
      <trkpt lat="43.79301" lon="3.81841">
        <ele>312</ele>
        <time>2024-02-23T12:01:47Z</time>
      </trkpt>
      <trkpt lat="43.79301" lon="3.81841">
        <ele>312.4</ele>
        <time>2024-02-23T12:01:48Z</time>
      </trkpt>
      <trkpt lat="43.79302" lon="3.81838">
        <ele>312.6</ele>
        <time>2024-02-23T12:01:49Z</time>
      </trkpt>
      <trkpt lat="43.79302" lon="3.81838">
        <ele>313</ele>
        <time>2024-02-23T12:01:50Z</time>
      </trkpt>
      <trkpt lat="43.79304" lon="3.81835">
        <ele>313.2</ele>
        <time>2024-02-23T12:01:51Z</time>
      </trkpt>
      <trkpt lat="43.79304" lon="3.81835">
        <ele>313.2</ele>
        <time>2024-02-23T12:01:52Z</time>
      </trkpt>
      <trkpt lat="43.79304" lon="3.81832">
        <ele>313</ele>
        <time>2024-02-23T12:01:53Z</time>
      </trkpt>
      <trkpt lat="43.79304" lon="3.81832">
        <ele>312.8</ele>
        <time>2024-02-23T12:01:54Z</time>
      </trkpt>
      <trkpt lat="43.79303" lon="3.81828">
        <ele>312.4</ele>
        <time>2024-02-23T12:01:55Z</time>
      </trkpt>
      <trkpt lat="43.79303" lon="3.81825">
        <ele>312</ele>
        <time>2024-02-23T12:01:56Z</time>
      </trkpt>
      <trkpt lat="43.79303" lon="3.81821">
        <ele>311.8</ele>
        <time>2024-02-23T12:01:57Z</time>
      </trkpt>
      <trkpt lat="43.79303" lon="3.81817">
        <ele>311.4</ele>
        <time>2024-02-23T12:01:58Z</time>
      </trkpt>
      <trkpt lat="43.79302" lon="3.81814">
        <ele>311.2</ele>
        <time>2024-02-23T12:01:59Z</time>
      </trkpt>
      <trkpt lat="43.79302" lon="3.81812">
        <ele>311</ele>
        <time>2024-02-23T12:02:00Z</time>
      </trkpt>
      <trkpt lat="43.79302" lon="3.81812">
        <ele>310.8</ele>
        <time>2024-02-23T12:02:01Z</time>
      </trkpt>
      <trkpt lat="43.79302" lon="3.81807">
        <ele>310.8</ele>
        <time>2024-02-23T12:02:02Z</time>
      </trkpt>
      <trkpt lat="43.79302" lon="3.81807">
        <ele>310.8</ele>
        <time>2024-02-23T12:02:03Z</time>
      </trkpt>
      <trkpt lat="43.79301" lon="3.81803">
        <ele>310.6</ele>
        <time>2024-02-23T12:02:04Z</time>
      </trkpt>
      <trkpt lat="43.79301" lon="3.81803">
        <ele>310.4</ele>
        <time>2024-02-23T12:02:05Z</time>
      </trkpt>
      <trkpt lat="43.79301" lon="3.81799">
        <ele>310.2</ele>
        <time>2024-02-23T12:02:06Z</time>
      </trkpt>
      <trkpt lat="43.79301" lon="3.81799">
        <ele>309.8</ele>
        <time>2024-02-23T12:02:07Z</time>
      </trkpt>
      <trkpt lat="43.79302" lon="3.81795">
        <ele>309.4</ele>
        <time>2024-02-23T12:02:08Z</time>
      </trkpt>
      <trkpt lat="43.79302" lon="3.81795">
        <ele>309.2</ele>
        <time>2024-02-23T12:02:09Z</time>
      </trkpt>
      <trkpt lat="43.79302" lon="3.8179">
        <ele>308.8</ele>
        <time>2024-02-23T12:02:10Z</time>
      </trkpt>
      <trkpt lat="43.79302" lon="3.8179">
        <ele>308.4</ele>
        <time>2024-02-23T12:02:11Z</time>
      </trkpt>
      <trkpt lat="43.79302" lon="3.81786">
        <ele>308</ele>
        <time>2024-02-23T12:02:12Z</time>
      </trkpt>
      <trkpt lat="43.79302" lon="3.81786">
        <ele>307.4</ele>
        <time>2024-02-23T12:02:13Z</time>
      </trkpt>
      <trkpt lat="43.79302" lon="3.81781">
        <ele>307.2</ele>
        <time>2024-02-23T12:02:14Z</time>
      </trkpt>
      <trkpt lat="43.79303" lon="3.81779">
        <ele>307.2</ele>
        <time>2024-02-23T12:02:15Z</time>
      </trkpt>
      <trkpt lat="43.79303" lon="3.81779">
        <ele>307.2</ele>
        <time>2024-02-23T12:02:16Z</time>
      </trkpt>
      <trkpt lat="43.79304" lon="3.81775">
        <ele>307</ele>
        <time>2024-02-23T12:02:17Z</time>
      </trkpt>
      <trkpt lat="43.79305" lon="3.81773">
        <ele>306.8</ele>
        <time>2024-02-23T12:02:18Z</time>
      </trkpt>
      <trkpt lat="43.79305" lon="3.81773">
        <ele>306.4</ele>
        <time>2024-02-23T12:02:19Z</time>
      </trkpt>
      <trkpt lat="43.79306" lon="3.81769">
        <ele>306</ele>
        <time>2024-02-23T12:02:20Z</time>
      </trkpt>
      <trkpt lat="43.79306" lon="3.81769">
        <ele>305.4</ele>
        <time>2024-02-23T12:02:21Z</time>
      </trkpt>
      <trkpt lat="43.79307" lon="3.81765">
        <ele>305</ele>
        <time>2024-02-23T12:02:22Z</time>
      </trkpt>
      <trkpt lat="43.79307" lon="3.81761">
        <ele>304.8</ele>
        <time>2024-02-23T12:02:23Z</time>
      </trkpt>
      <trkpt lat="43.79307" lon="3.81759">
        <ele>304.6</ele>
        <time>2024-02-23T12:02:24Z</time>
      </trkpt>
      <trkpt lat="43.79307" lon="3.81759">
        <ele>304.4</ele>
        <time>2024-02-23T12:02:25Z</time>
      </trkpt>
      <trkpt lat="43.79307" lon="3.81755">
        <ele>304</ele>
        <time>2024-02-23T12:02:26Z</time>
      </trkpt>
      <trkpt lat="43.79307" lon="3.81755">
        <ele>303.6</ele>
        <time>2024-02-23T12:02:27Z</time>
      </trkpt>
      <trkpt lat="43.79308" lon="3.81751">
        <ele>303.2</ele>
        <time>2024-02-23T12:02:28Z</time>
      </trkpt>
      <trkpt lat="43.79308" lon="3.81751">
        <ele>302.8</ele>
        <time>2024-02-23T12:02:29Z</time>
      </trkpt>
      <trkpt lat="43.79309" lon="3.81747">
        <ele>302.6</ele>
        <time>2024-02-23T12:02:30Z</time>
      </trkpt>
      <trkpt lat="43.79309" lon="3.81747">
        <ele>302.2</ele>
        <time>2024-02-23T12:02:31Z</time>
      </trkpt>
      <trkpt lat="43.79311" lon="3.81743">
        <ele>301.6</ele>
        <time>2024-02-23T12:02:32Z</time>
      </trkpt>
      <trkpt lat="43.79311" lon="3.8174">
        <ele>301</ele>
        <time>2024-02-23T12:02:33Z</time>
      </trkpt>
      <trkpt lat="43.79312" lon="3.81738">
        <ele>300.6</ele>
        <time>2024-02-23T12:02:34Z</time>
      </trkpt>
      <trkpt lat="43.79313" lon="3.81735">
        <ele>300.2</ele>
        <time>2024-02-23T12:02:35Z</time>
      </trkpt>
      <trkpt lat="43.79314" lon="3.81733">
        <ele>300</ele>
        <time>2024-02-23T12:02:36Z</time>
      </trkpt>
      <trkpt lat="43.79314" lon="3.81733">
        <ele>299.6</ele>
        <time>2024-02-23T12:02:37Z</time>
      </trkpt>
      <trkpt lat="43.79315" lon="3.81728">
        <ele>299.2</ele>
        <time>2024-02-23T12:02:38Z</time>
      </trkpt>
      <trkpt lat="43.79315" lon="3.81725">
        <ele>299</ele>
        <time>2024-02-23T12:02:39Z</time>
      </trkpt>
      <trkpt lat="43.79317" lon="3.81722">
        <ele>298.6</ele>
        <time>2024-02-23T12:02:40Z</time>
      </trkpt>
      <trkpt lat="43.79317" lon="3.81719">
        <ele>298.2</ele>
        <time>2024-02-23T12:02:41Z</time>
      </trkpt>
      <trkpt lat="43.79318" lon="3.81716">
        <ele>297.8</ele>
        <time>2024-02-23T12:02:42Z</time>
      </trkpt>
      <trkpt lat="43.79319" lon="3.81712">
        <ele>297.4</ele>
        <time>2024-02-23T12:02:43Z</time>
      </trkpt>
      <trkpt lat="43.7932" lon="3.8171">
        <ele>297</ele>
        <time>2024-02-23T12:02:44Z</time>
      </trkpt>
      <trkpt lat="43.7932" lon="3.8171">
        <ele>296.4</ele>
        <time>2024-02-23T12:02:45Z</time>
      </trkpt>
      <trkpt lat="43.79322" lon="3.81706">
        <ele>296</ele>
        <time>2024-02-23T12:02:46Z</time>
      </trkpt>
      <trkpt lat="43.79322" lon="3.81706">
        <ele>295.6</ele>
        <time>2024-02-23T12:02:47Z</time>
      </trkpt>
      <trkpt lat="43.79322" lon="3.81701">
        <ele>295</ele>
        <time>2024-02-23T12:02:48Z</time>
      </trkpt>
      <trkpt lat="43.79322" lon="3.81698">
        <ele>294.4</ele>
        <time>2024-02-23T12:02:49Z</time>
      </trkpt>
      <trkpt lat="43.79322" lon="3.81696">
        <ele>294</ele>
        <time>2024-02-23T12:02:50Z</time>
      </trkpt>
      <trkpt lat="43.79323" lon="3.81693">
        <ele>293.6</ele>
        <time>2024-02-23T12:02:51Z</time>
      </trkpt>
      <trkpt lat="43.79323" lon="3.81693">
        <ele>293.2</ele>
        <time>2024-02-23T12:02:52Z</time>
      </trkpt>
      <trkpt lat="43.79323" lon="3.81688">
        <ele>293</ele>
        <time>2024-02-23T12:02:53Z</time>
      </trkpt>
      <trkpt lat="43.79323" lon="3.81686">
        <ele>292.6</ele>
        <time>2024-02-23T12:02:54Z</time>
      </trkpt>
      <trkpt lat="43.79323" lon="3.81686">
        <ele>292</ele>
        <time>2024-02-23T12:02:55Z</time>
      </trkpt>
      <trkpt lat="43.79323" lon="3.8168">
        <ele>291.6</ele>
        <time>2024-02-23T12:02:56Z</time>
      </trkpt>
      <trkpt lat="43.79324" lon="3.81677">
        <ele>291.2</ele>
        <time>2024-02-23T12:02:57Z</time>
      </trkpt>
      <trkpt lat="43.79325" lon="3.81675">
        <ele>290.8</ele>
        <time>2024-02-23T12:02:58Z</time>
      </trkpt>
      <trkpt lat="43.79325" lon="3.81672">
        <ele>290.4</ele>
        <time>2024-02-23T12:02:59Z</time>
      </trkpt>
      <trkpt lat="43.79326" lon="3.81669">
        <ele>289.8</ele>
        <time>2024-02-23T12:03:00Z</time>
      </trkpt>
      <trkpt lat="43.79327" lon="3.81667">
        <ele>289.2</ele>
        <time>2024-02-23T12:03:01Z</time>
      </trkpt>
      <trkpt lat="43.79327" lon="3.81663">
        <ele>288.8</ele>
        <time>2024-02-23T12:03:02Z</time>
      </trkpt>
      <trkpt lat="43.79327" lon="3.81659">
        <ele>288.4</ele>
        <time>2024-02-23T12:03:03Z</time>
      </trkpt>
      <trkpt lat="43.79326" lon="3.81655">
        <ele>287.8</ele>
        <time>2024-02-23T12:03:04Z</time>
      </trkpt>
      <trkpt lat="43.79325" lon="3.81652">
        <ele>287.4</ele>
        <time>2024-02-23T12:03:05Z</time>
      </trkpt>
      <trkpt lat="43.79323" lon="3.81649">
        <ele>287</ele>
        <time>2024-02-23T12:03:06Z</time>
      </trkpt>
      <trkpt lat="43.79322" lon="3.81646">
        <ele>286.8</ele>
        <time>2024-02-23T12:03:07Z</time>
      </trkpt>
      <trkpt lat="43.79321" lon="3.81643">
        <ele>286.6</ele>
        <time>2024-02-23T12:03:08Z</time>
      </trkpt>
      <trkpt lat="43.79321" lon="3.8164">
        <ele>286.6</ele>
        <time>2024-02-23T12:03:09Z</time>
      </trkpt>
      <trkpt lat="43.79322" lon="3.81637">
        <ele>286.2</ele>
        <time>2024-02-23T12:03:10Z</time>
      </trkpt>
      <trkpt lat="43.79322" lon="3.81634">
        <ele>286</ele>
        <time>2024-02-23T12:03:11Z</time>
      </trkpt>
      <trkpt lat="43.79321" lon="3.81629">
        <ele>285.8</ele>
        <time>2024-02-23T12:03:12Z</time>
      </trkpt>
      <trkpt lat="43.7932" lon="3.81624">
        <ele>285.8</ele>
        <time>2024-02-23T12:03:13Z</time>
      </trkpt>
      <trkpt lat="43.79319" lon="3.8162">
        <ele>285.6</ele>
        <time>2024-02-23T12:03:14Z</time>
      </trkpt>
      <trkpt lat="43.79318" lon="3.81616">
        <ele>285.4</ele>
        <time>2024-02-23T12:03:15Z</time>
      </trkpt>
      <trkpt lat="43.79317" lon="3.81611">
        <ele>285.2</ele>
        <time>2024-02-23T12:03:16Z</time>
      </trkpt>
      <trkpt lat="43.79317" lon="3.81606">
        <ele>285</ele>
        <time>2024-02-23T12:03:17Z</time>
      </trkpt>
      <trkpt lat="43.79316" lon="3.81602">
        <ele>284.8</ele>
        <time>2024-02-23T12:03:18Z</time>
      </trkpt>
      <trkpt lat="43.79315" lon="3.81598">
        <ele>284.6</ele>
        <time>2024-02-23T12:03:19Z</time>
      </trkpt>
      <trkpt lat="43.79315" lon="3.81593">
        <ele>284.4</ele>
        <time>2024-02-23T12:03:20Z</time>
      </trkpt>
      <trkpt lat="43.79314" lon="3.81588">
        <ele>284.2</ele>
        <time>2024-02-23T12:03:21Z</time>
      </trkpt>
      <trkpt lat="43.79314" lon="3.81583">
        <ele>284</ele>
        <time>2024-02-23T12:03:22Z</time>
      </trkpt>
      <trkpt lat="43.79314" lon="3.81579">
        <ele>283.8</ele>
        <time>2024-02-23T12:03:23Z</time>
      </trkpt>
      <trkpt lat="43.79313" lon="3.81575">
        <ele>283.6</ele>
        <time>2024-02-23T12:03:24Z</time>
      </trkpt>
      <trkpt lat="43.79313" lon="3.81571">
        <ele>283.4</ele>
        <time>2024-02-23T12:03:25Z</time>
      </trkpt>
      <trkpt lat="43.79312" lon="3.81567">
        <ele>283</ele>
        <time>2024-02-23T12:03:26Z</time>
      </trkpt>
      <trkpt lat="43.79311" lon="3.81564">
        <ele>282.6</ele>
        <time>2024-02-23T12:03:27Z</time>
      </trkpt>
      <trkpt lat="43.7931" lon="3.8156">
        <ele>282.2</ele>
        <time>2024-02-23T12:03:28Z</time>
      </trkpt>
      <trkpt lat="43.79309" lon="3.81557">
        <ele>281.8</ele>
        <time>2024-02-23T12:03:29Z</time>
      </trkpt>
      <trkpt lat="43.79308" lon="3.81553">
        <ele>281.6</ele>
        <time>2024-02-23T12:03:30Z</time>
      </trkpt>
      <trkpt lat="43.79307" lon="3.81549">
        <ele>281.2</ele>
        <time>2024-02-23T12:03:31Z</time>
      </trkpt>
      <trkpt lat="43.79306" lon="3.81545">
        <ele>281</ele>
        <time>2024-02-23T12:03:32Z</time>
      </trkpt>
      <trkpt lat="43.79305" lon="3.81542">
        <ele>280.8</ele>
        <time>2024-02-23T12:03:33Z</time>
      </trkpt>
      <trkpt lat="43.79304" lon="3.81538">
        <ele>280.4</ele>
        <time>2024-02-23T12:03:34Z</time>
      </trkpt>
      <trkpt lat="43.79303" lon="3.81535">
        <ele>280.2</ele>
        <time>2024-02-23T12:03:35Z</time>
      </trkpt>
      <trkpt lat="43.79302" lon="3.81532">
        <ele>280</ele>
        <time>2024-02-23T12:03:36Z</time>
      </trkpt>
      <trkpt lat="43.79301" lon="3.81529">
        <ele>279.8</ele>
        <time>2024-02-23T12:03:37Z</time>
      </trkpt>
      <trkpt lat="43.793" lon="3.81525">
        <ele>279.6</ele>
        <time>2024-02-23T12:03:38Z</time>
      </trkpt>
      <trkpt lat="43.79298" lon="3.81521">
        <ele>279.4</ele>
        <time>2024-02-23T12:03:39Z</time>
      </trkpt>
      <trkpt lat="43.79297" lon="3.81517">
        <ele>279.2</ele>
        <time>2024-02-23T12:03:40Z</time>
      </trkpt>
      <trkpt lat="43.79296" lon="3.81513">
        <ele>279</ele>
        <time>2024-02-23T12:03:41Z</time>
      </trkpt>
      <trkpt lat="43.79295" lon="3.8151">
        <ele>278.8</ele>
        <time>2024-02-23T12:03:42Z</time>
      </trkpt>
      <trkpt lat="43.79294" lon="3.81507">
        <ele>278.6</ele>
        <time>2024-02-23T12:03:43Z</time>
      </trkpt>
      <trkpt lat="43.79293" lon="3.81503">
        <ele>278.4</ele>
        <time>2024-02-23T12:03:44Z</time>
      </trkpt>
      <trkpt lat="43.79291" lon="3.815">
        <ele>278.4</ele>
        <time>2024-02-23T12:03:45Z</time>
      </trkpt>
      <trkpt lat="43.7929" lon="3.81496">
        <ele>278.2</ele>
        <time>2024-02-23T12:03:46Z</time>
      </trkpt>
      <trkpt lat="43.79289" lon="3.81493">
        <ele>278.2</ele>
        <time>2024-02-23T12:03:47Z</time>
      </trkpt>
      <trkpt lat="43.79288" lon="3.81489">
        <ele>278</ele>
        <time>2024-02-23T12:03:48Z</time>
      </trkpt>
      <trkpt lat="43.79287" lon="3.81485">
        <ele>277.6</ele>
        <time>2024-02-23T12:03:49Z</time>
      </trkpt>
      <trkpt lat="43.79287" lon="3.81481">
        <ele>277.4</ele>
        <time>2024-02-23T12:03:50Z</time>
      </trkpt>
      <trkpt lat="43.79286" lon="3.81478">
        <ele>277.2</ele>
        <time>2024-02-23T12:03:51Z</time>
      </trkpt>
      <trkpt lat="43.79285" lon="3.81474">
        <ele>277</ele>
        <time>2024-02-23T12:03:52Z</time>
      </trkpt>
      <trkpt lat="43.79284" lon="3.81471">
        <ele>276.6</ele>
        <time>2024-02-23T12:03:53Z</time>
      </trkpt>
      <trkpt lat="43.79284" lon="3.81467">
        <ele>276.4</ele>
        <time>2024-02-23T12:03:54Z</time>
      </trkpt>
      <trkpt lat="43.79282" lon="3.81464">
        <ele>276.2</ele>
        <time>2024-02-23T12:03:55Z</time>
      </trkpt>
      <trkpt lat="43.79281" lon="3.8146">
        <ele>275.8</ele>
        <time>2024-02-23T12:03:56Z</time>
      </trkpt>
      <trkpt lat="43.79281" lon="3.81457">
        <ele>275.6</ele>
        <time>2024-02-23T12:03:57Z</time>
      </trkpt>
      <trkpt lat="43.7928" lon="3.81453">
        <ele>275.2</ele>
        <time>2024-02-23T12:03:58Z</time>
      </trkpt>
      <trkpt lat="43.79279" lon="3.81449">
        <ele>274.8</ele>
        <time>2024-02-23T12:03:59Z</time>
      </trkpt>
      <trkpt lat="43.79278" lon="3.81445">
        <ele>274.4</ele>
        <time>2024-02-23T12:04:00Z</time>
      </trkpt>
      <trkpt lat="43.79277" lon="3.81441">
        <ele>274</ele>
        <time>2024-02-23T12:04:01Z</time>
      </trkpt>
      <trkpt lat="43.79276" lon="3.81437">
        <ele>273.6</ele>
        <time>2024-02-23T12:04:02Z</time>
      </trkpt>
      <trkpt lat="43.79276" lon="3.81433">
        <ele>273</ele>
        <time>2024-02-23T12:04:03Z</time>
      </trkpt>
      <trkpt lat="43.79274" lon="3.8143">
        <ele>272.6</ele>
        <time>2024-02-23T12:04:04Z</time>
      </trkpt>
      <trkpt lat="43.79273" lon="3.81427">
        <ele>272.2</ele>
        <time>2024-02-23T12:04:05Z</time>
      </trkpt>
      <trkpt lat="43.79272" lon="3.81423">
        <ele>271.8</ele>
        <time>2024-02-23T12:04:06Z</time>
      </trkpt>
      <trkpt lat="43.7927" lon="3.8142">
        <ele>271.2</ele>
        <time>2024-02-23T12:04:07Z</time>
      </trkpt>
      <trkpt lat="43.79269" lon="3.81416">
        <ele>270.6</ele>
        <time>2024-02-23T12:04:08Z</time>
      </trkpt>
      <trkpt lat="43.79268" lon="3.81413">
        <ele>270.2</ele>
        <time>2024-02-23T12:04:09Z</time>
      </trkpt>
      <trkpt lat="43.79268" lon="3.81409">
        <ele>269.8</ele>
        <time>2024-02-23T12:04:10Z</time>
      </trkpt>
      <trkpt lat="43.79269" lon="3.81406">
        <ele>269.2</ele>
        <time>2024-02-23T12:04:11Z</time>
      </trkpt>
      <trkpt lat="43.79269" lon="3.81403">
        <ele>268.6</ele>
        <time>2024-02-23T12:04:12Z</time>
      </trkpt>
      <trkpt lat="43.7927" lon="3.814">
        <ele>268.2</ele>
        <time>2024-02-23T12:04:13Z</time>
      </trkpt>
      <trkpt lat="43.7927" lon="3.81396">
        <ele>267.4</ele>
        <time>2024-02-23T12:04:14Z</time>
      </trkpt>
      <trkpt lat="43.79269" lon="3.81392">
        <ele>267</ele>
        <time>2024-02-23T12:04:15Z</time>
      </trkpt>
      <trkpt lat="43.79268" lon="3.81388">
        <ele>266.4</ele>
        <time>2024-02-23T12:04:16Z</time>
      </trkpt>
      <trkpt lat="43.79268" lon="3.81385">
        <ele>266</ele>
        <time>2024-02-23T12:04:17Z</time>
      </trkpt>
      <trkpt lat="43.79267" lon="3.81381">
        <ele>265.6</ele>
        <time>2024-02-23T12:04:18Z</time>
      </trkpt>
      <trkpt lat="43.79267" lon="3.81377">
        <ele>265</ele>
        <time>2024-02-23T12:04:19Z</time>
      </trkpt>
      <trkpt lat="43.79266" lon="3.81373">
        <ele>264.6</ele>
        <time>2024-02-23T12:04:20Z</time>
      </trkpt>
      <trkpt lat="43.79266" lon="3.8137">
        <ele>264.4</ele>
        <time>2024-02-23T12:04:21Z</time>
      </trkpt>
      <trkpt lat="43.79265" lon="3.81367">
        <ele>263.8</ele>
        <time>2024-02-23T12:04:22Z</time>
      </trkpt>
      <trkpt lat="43.79264" lon="3.81364">
        <ele>263.4</ele>
        <time>2024-02-23T12:04:23Z</time>
      </trkpt>
      <trkpt lat="43.79263" lon="3.8136">
        <ele>263.2</ele>
        <time>2024-02-23T12:04:24Z</time>
      </trkpt>
      <trkpt lat="43.79262" lon="3.81356">
        <ele>262.8</ele>
        <time>2024-02-23T12:04:25Z</time>
      </trkpt>
      <trkpt lat="43.79262" lon="3.81353">
        <ele>262.4</ele>
        <time>2024-02-23T12:04:26Z</time>
      </trkpt>
      <trkpt lat="43.79261" lon="3.81349">
        <ele>262</ele>
        <time>2024-02-23T12:04:27Z</time>
      </trkpt>
      <trkpt lat="43.79261" lon="3.81345">
        <ele>261.6</ele>
        <time>2024-02-23T12:04:28Z</time>
      </trkpt>
      <trkpt lat="43.7926" lon="3.81342">
        <ele>261.2</ele>
        <time>2024-02-23T12:04:29Z</time>
      </trkpt>
      <trkpt lat="43.79258" lon="3.81338">
        <ele>260.6</ele>
        <time>2024-02-23T12:04:30Z</time>
      </trkpt>
      <trkpt lat="43.79256" lon="3.81335">
        <ele>260.2</ele>
        <time>2024-02-23T12:04:31Z</time>
      </trkpt>
      <trkpt lat="43.79255" lon="3.81332">
        <ele>259.8</ele>
        <time>2024-02-23T12:04:32Z</time>
      </trkpt>
      <trkpt lat="43.79253" lon="3.81328">
        <ele>259.4</ele>
        <time>2024-02-23T12:04:33Z</time>
      </trkpt>
      <trkpt lat="43.79253" lon="3.81324">
        <ele>259.2</ele>
        <time>2024-02-23T12:04:34Z</time>
      </trkpt>
      <trkpt lat="43.79252" lon="3.8132">
        <ele>259</ele>
        <time>2024-02-23T12:04:35Z</time>
      </trkpt>
      <trkpt lat="43.79251" lon="3.81316">
        <ele>258.6</ele>
        <time>2024-02-23T12:04:36Z</time>
      </trkpt>
      <trkpt lat="43.7925" lon="3.81313">
        <ele>258.2</ele>
        <time>2024-02-23T12:04:37Z</time>
      </trkpt>
      <trkpt lat="43.79248" lon="3.81309">
        <ele>257.8</ele>
        <time>2024-02-23T12:04:38Z</time>
      </trkpt>
      <trkpt lat="43.79247" lon="3.81306">
        <ele>257.4</ele>
        <time>2024-02-23T12:04:39Z</time>
      </trkpt>
      <trkpt lat="43.79246" lon="3.81302">
        <ele>257.2</ele>
        <time>2024-02-23T12:04:40Z</time>
      </trkpt>
      <trkpt lat="43.79244" lon="3.81298">
        <ele>256.8</ele>
        <time>2024-02-23T12:04:41Z</time>
      </trkpt>
      <trkpt lat="43.79244" lon="3.81294">
        <ele>256.4</ele>
        <time>2024-02-23T12:04:42Z</time>
      </trkpt>
      <trkpt lat="43.79242" lon="3.81291">
        <ele>256</ele>
        <time>2024-02-23T12:04:43Z</time>
      </trkpt>
      <trkpt lat="43.79241" lon="3.81287">
        <ele>255.8</ele>
        <time>2024-02-23T12:04:44Z</time>
      </trkpt>
      <trkpt lat="43.7924" lon="3.81284">
        <ele>255.6</ele>
        <time>2024-02-23T12:04:45Z</time>
      </trkpt>
      <trkpt lat="43.79239" lon="3.8128">
        <ele>255.6</ele>
        <time>2024-02-23T12:04:46Z</time>
      </trkpt>
      <trkpt lat="43.79238" lon="3.81276">
        <ele>255.6</ele>
        <time>2024-02-23T12:04:47Z</time>
      </trkpt>
      <trkpt lat="43.79237" lon="3.81273">
        <ele>255.4</ele>
        <time>2024-02-23T12:04:48Z</time>
      </trkpt>
      <trkpt lat="43.79237" lon="3.81269">
        <ele>255.4</ele>
        <time>2024-02-23T12:04:49Z</time>
      </trkpt>
      <trkpt lat="43.79236" lon="3.81266">
        <ele>255.4</ele>
        <time>2024-02-23T12:04:50Z</time>
      </trkpt>
      <trkpt lat="43.79235" lon="3.81263">
        <ele>255.4</ele>
        <time>2024-02-23T12:04:51Z</time>
      </trkpt>
      <trkpt lat="43.79234" lon="3.8126">
        <ele>255.4</ele>
        <time>2024-02-23T12:04:52Z</time>
      </trkpt>
      <trkpt lat="43.79232" lon="3.81257">
        <ele>255.4</ele>
        <time>2024-02-23T12:04:53Z</time>
      </trkpt>
      <trkpt lat="43.79231" lon="3.81253">
        <ele>255.6</ele>
        <time>2024-02-23T12:04:54Z</time>
      </trkpt>
      <trkpt lat="43.7923" lon="3.8125">
        <ele>255.8</ele>
        <time>2024-02-23T12:04:55Z</time>
      </trkpt>
      <trkpt lat="43.79229" lon="3.81246">
        <ele>255.8</ele>
        <time>2024-02-23T12:04:56Z</time>
      </trkpt>
      <trkpt lat="43.79229" lon="3.81242">
        <ele>255.8</ele>
        <time>2024-02-23T12:04:57Z</time>
      </trkpt>
      <trkpt lat="43.79229" lon="3.81238">
        <ele>255.6</ele>
        <time>2024-02-23T12:04:58Z</time>
      </trkpt>
      <trkpt lat="43.79228" lon="3.81234">
        <ele>255.4</ele>
        <time>2024-02-23T12:04:59Z</time>
      </trkpt>
      <trkpt lat="43.79227" lon="3.8123">
        <ele>255.2</ele>
        <time>2024-02-23T12:05:00Z</time>
      </trkpt>
      <trkpt lat="43.79226" lon="3.81227">
        <ele>255</ele>
        <time>2024-02-23T12:05:01Z</time>
      </trkpt>
      <trkpt lat="43.79224" lon="3.81223">
        <ele>254.8</ele>
        <time>2024-02-23T12:05:02Z</time>
      </trkpt>
      <trkpt lat="43.79224" lon="3.81219">
        <ele>254.6</ele>
        <time>2024-02-23T12:05:03Z</time>
      </trkpt>
      <trkpt lat="43.79223" lon="3.81216">
        <ele>254.2</ele>
        <time>2024-02-23T12:05:04Z</time>
      </trkpt>
      <trkpt lat="43.79223" lon="3.81211">
        <ele>253.8</ele>
        <time>2024-02-23T12:05:05Z</time>
      </trkpt>
      <trkpt lat="43.79224" lon="3.81207">
        <ele>253.4</ele>
        <time>2024-02-23T12:05:06Z</time>
      </trkpt>
      <trkpt lat="43.79225" lon="3.81204">
        <ele>253.2</ele>
        <time>2024-02-23T12:05:07Z</time>
      </trkpt>
      <trkpt lat="43.79226" lon="3.81202">
        <ele>252.6</ele>
        <time>2024-02-23T12:05:08Z</time>
      </trkpt>
      <trkpt lat="43.79227" lon="3.81199">
        <ele>251.8</ele>
        <time>2024-02-23T12:05:09Z</time>
      </trkpt>
      <trkpt lat="43.79228" lon="3.81196">
        <ele>251.2</ele>
        <time>2024-02-23T12:05:10Z</time>
      </trkpt>
      <trkpt lat="43.79228" lon="3.81192">
        <ele>250.8</ele>
        <time>2024-02-23T12:05:11Z</time>
      </trkpt>
      <trkpt lat="43.79228" lon="3.81188">
        <ele>250.2</ele>
        <time>2024-02-23T12:05:12Z</time>
      </trkpt>
      <trkpt lat="43.79229" lon="3.81184">
        <ele>249.4</ele>
        <time>2024-02-23T12:05:13Z</time>
      </trkpt>
      <trkpt lat="43.7923" lon="3.81179">
        <ele>248.8</ele>
        <time>2024-02-23T12:05:14Z</time>
      </trkpt>
      <trkpt lat="43.7923" lon="3.81175">
        <ele>248.2</ele>
        <time>2024-02-23T12:05:15Z</time>
      </trkpt>
      <trkpt lat="43.7923" lon="3.81171">
        <ele>247.6</ele>
        <time>2024-02-23T12:05:16Z</time>
      </trkpt>
      <trkpt lat="43.7923" lon="3.81167">
        <ele>247</ele>
        <time>2024-02-23T12:05:17Z</time>
      </trkpt>
      <trkpt lat="43.79229" lon="3.81163">
        <ele>246.6</ele>
        <time>2024-02-23T12:05:18Z</time>
      </trkpt>
      <trkpt lat="43.79229" lon="3.81159">
        <ele>246.2</ele>
        <time>2024-02-23T12:05:19Z</time>
      </trkpt>
      <trkpt lat="43.79228" lon="3.81155">
        <ele>245.8</ele>
        <time>2024-02-23T12:05:20Z</time>
      </trkpt>
      <trkpt lat="43.79227" lon="3.81151">
        <ele>245.6</ele>
        <time>2024-02-23T12:05:21Z</time>
      </trkpt>
      <trkpt lat="43.79225" lon="3.81147">
        <ele>245.4</ele>
        <time>2024-02-23T12:05:22Z</time>
      </trkpt>
      <trkpt lat="43.79224" lon="3.81143">
        <ele>245</ele>
        <time>2024-02-23T12:05:23Z</time>
      </trkpt>
      <trkpt lat="43.79222" lon="3.81139">
        <ele>244.8</ele>
        <time>2024-02-23T12:05:24Z</time>
      </trkpt>
      <trkpt lat="43.79222" lon="3.81136">
        <ele>244.6</ele>
        <time>2024-02-23T12:05:25Z</time>
      </trkpt>
      <trkpt lat="43.79221" lon="3.81132">
        <ele>244.6</ele>
        <time>2024-02-23T12:05:26Z</time>
      </trkpt>
      <trkpt lat="43.79219" lon="3.81129">
        <ele>244.4</ele>
        <time>2024-02-23T12:05:27Z</time>
      </trkpt>
      <trkpt lat="43.79218" lon="3.81125">
        <ele>244.4</ele>
        <time>2024-02-23T12:05:28Z</time>
      </trkpt>
      <trkpt lat="43.79216" lon="3.81122">
        <ele>244.2</ele>
        <time>2024-02-23T12:05:29Z</time>
      </trkpt>
      <trkpt lat="43.79214" lon="3.81119">
        <ele>244.2</ele>
        <time>2024-02-23T12:05:30Z</time>
      </trkpt>
      <trkpt lat="43.79212" lon="3.81117">
        <ele>244.4</ele>
        <time>2024-02-23T12:05:31Z</time>
      </trkpt>
      <trkpt lat="43.7921" lon="3.81115">
        <ele>244.4</ele>
        <time>2024-02-23T12:05:32Z</time>
      </trkpt>
      <trkpt lat="43.79208" lon="3.81112">
        <ele>244.4</ele>
        <time>2024-02-23T12:05:33Z</time>
      </trkpt>
      <trkpt lat="43.79208" lon="3.81108">
        <ele>244.4</ele>
        <time>2024-02-23T12:05:34Z</time>
      </trkpt>
      <trkpt lat="43.79207" lon="3.81104">
        <ele>244.4</ele>
        <time>2024-02-23T12:05:35Z</time>
      </trkpt>
      <trkpt lat="43.79207" lon="3.811">
        <ele>244.4</ele>
        <time>2024-02-23T12:05:36Z</time>
      </trkpt>
      <trkpt lat="43.79207" lon="3.81095">
        <ele>244</ele>
        <time>2024-02-23T12:05:37Z</time>
      </trkpt>
      <trkpt lat="43.79206" lon="3.81091">
        <ele>243.6</ele>
        <time>2024-02-23T12:05:38Z</time>
      </trkpt>
      <trkpt lat="43.79205" lon="3.81088">
        <ele>243.4</ele>
        <time>2024-02-23T12:05:39Z</time>
      </trkpt>
      <trkpt lat="43.79205" lon="3.81082">
        <ele>243.2</ele>
        <time>2024-02-23T12:05:40Z</time>
      </trkpt>
      <trkpt lat="43.79204" lon="3.81078">
        <ele>242.8</ele>
        <time>2024-02-23T12:05:41Z</time>
      </trkpt>
      <trkpt lat="43.79204" lon="3.81073">
        <ele>242.6</ele>
        <time>2024-02-23T12:05:42Z</time>
      </trkpt>
      <trkpt lat="43.79203" lon="3.8107">
        <ele>242.2</ele>
        <time>2024-02-23T12:05:43Z</time>
      </trkpt>
      <trkpt lat="43.79202" lon="3.81066">
        <ele>242</ele>
        <time>2024-02-23T12:05:44Z</time>
      </trkpt>
      <trkpt lat="43.79201" lon="3.81063">
        <ele>241.8</ele>
        <time>2024-02-23T12:05:45Z</time>
      </trkpt>
      <trkpt lat="43.792" lon="3.81059">
        <ele>241.6</ele>
        <time>2024-02-23T12:05:46Z</time>
      </trkpt>
      <trkpt lat="43.79199" lon="3.81055">
        <ele>241.4</ele>
        <time>2024-02-23T12:05:47Z</time>
      </trkpt>
      <trkpt lat="43.79198" lon="3.81052">
        <ele>241.4</ele>
        <time>2024-02-23T12:05:48Z</time>
      </trkpt>
      <trkpt lat="43.79197" lon="3.81048">
        <ele>241.2</ele>
        <time>2024-02-23T12:05:49Z</time>
      </trkpt>
      <trkpt lat="43.79196" lon="3.81045">
        <ele>240.8</ele>
        <time>2024-02-23T12:05:50Z</time>
      </trkpt>
      <trkpt lat="43.79195" lon="3.81041">
        <ele>240.4</ele>
        <time>2024-02-23T12:05:51Z</time>
      </trkpt>
      <trkpt lat="43.79194" lon="3.81037">
        <ele>240</ele>
        <time>2024-02-23T12:05:52Z</time>
      </trkpt>
      <trkpt lat="43.79192" lon="3.81034">
        <ele>239.8</ele>
        <time>2024-02-23T12:05:53Z</time>
      </trkpt>
      <trkpt lat="43.79192" lon="3.8103">
        <ele>239.4</ele>
        <time>2024-02-23T12:05:54Z</time>
      </trkpt>
      <trkpt lat="43.7919" lon="3.81026">
        <ele>239</ele>
        <time>2024-02-23T12:05:55Z</time>
      </trkpt>
      <trkpt lat="43.79189" lon="3.81023">
        <ele>238.8</ele>
        <time>2024-02-23T12:05:56Z</time>
      </trkpt>
      <trkpt lat="43.79188" lon="3.81019">
        <ele>238.6</ele>
        <time>2024-02-23T12:05:57Z</time>
      </trkpt>
      <trkpt lat="43.79186" lon="3.81015">
        <ele>238.4</ele>
        <time>2024-02-23T12:05:58Z</time>
      </trkpt>
      <trkpt lat="43.79185" lon="3.81012">
        <ele>238.4</ele>
        <time>2024-02-23T12:05:59Z</time>
      </trkpt>
      <trkpt lat="43.79184" lon="3.81008">
        <ele>238</ele>
        <time>2024-02-23T12:06:00Z</time>
      </trkpt>
      <trkpt lat="43.79183" lon="3.81004">
        <ele>237.8</ele>
        <time>2024-02-23T12:06:01Z</time>
      </trkpt>
      <trkpt lat="43.79182" lon="3.81">
        <ele>237.6</ele>
        <time>2024-02-23T12:06:02Z</time>
      </trkpt>
      <trkpt lat="43.79182" lon="3.80996">
        <ele>237.2</ele>
        <time>2024-02-23T12:06:03Z</time>
      </trkpt>
      <trkpt lat="43.79182" lon="3.80992">
        <ele>237</ele>
        <time>2024-02-23T12:06:04Z</time>
      </trkpt>
      <trkpt lat="43.79181" lon="3.80987">
        <ele>236.8</ele>
        <time>2024-02-23T12:06:05Z</time>
      </trkpt>
      <trkpt lat="43.7918" lon="3.80983">
        <ele>236.4</ele>
        <time>2024-02-23T12:06:06Z</time>
      </trkpt>
      <trkpt lat="43.7918" lon="3.80979">
        <ele>236.2</ele>
        <time>2024-02-23T12:06:07Z</time>
      </trkpt>
      <trkpt lat="43.79178" lon="3.80976">
        <ele>236</ele>
        <time>2024-02-23T12:06:08Z</time>
      </trkpt>
      <trkpt lat="43.79176" lon="3.80972">
        <ele>236</ele>
        <time>2024-02-23T12:06:09Z</time>
      </trkpt>
      <trkpt lat="43.79175" lon="3.80969">
        <ele>235.8</ele>
        <time>2024-02-23T12:06:10Z</time>
      </trkpt>
      <trkpt lat="43.79174" lon="3.80965">
        <ele>235.8</ele>
        <time>2024-02-23T12:06:11Z</time>
      </trkpt>
      <trkpt lat="43.79173" lon="3.80962">
        <ele>235.6</ele>
        <time>2024-02-23T12:06:12Z</time>
      </trkpt>
      <trkpt lat="43.79171" lon="3.80959">
        <ele>235.6</ele>
        <time>2024-02-23T12:06:13Z</time>
      </trkpt>
      <trkpt lat="43.79171" lon="3.80954">
        <ele>235.4</ele>
        <time>2024-02-23T12:06:14Z</time>
      </trkpt>
      <trkpt lat="43.7917" lon="3.8095">
        <ele>235.2</ele>
        <time>2024-02-23T12:06:15Z</time>
      </trkpt>
      <trkpt lat="43.79169" lon="3.80946">
        <ele>234.8</ele>
        <time>2024-02-23T12:06:16Z</time>
      </trkpt>
      <trkpt lat="43.79168" lon="3.80943">
        <ele>234.6</ele>
        <time>2024-02-23T12:06:17Z</time>
      </trkpt>
      <trkpt lat="43.79166" lon="3.8094">
        <ele>234.4</ele>
        <time>2024-02-23T12:06:18Z</time>
      </trkpt>
      <trkpt lat="43.79165" lon="3.80937">
        <ele>233.8</ele>
        <time>2024-02-23T12:06:19Z</time>
      </trkpt>
      <trkpt lat="43.79163" lon="3.80935">
        <ele>233.2</ele>
        <time>2024-02-23T12:06:20Z</time>
      </trkpt>
      <trkpt lat="43.79161" lon="3.80931">
        <ele>232.8</ele>
        <time>2024-02-23T12:06:21Z</time>
      </trkpt>
      <trkpt lat="43.79159" lon="3.80928">
        <ele>232.4</ele>
        <time>2024-02-23T12:06:22Z</time>
      </trkpt>
      <trkpt lat="43.79157" lon="3.80924">
        <ele>232</ele>
        <time>2024-02-23T12:06:23Z</time>
      </trkpt>
      <trkpt lat="43.79155" lon="3.80921">
        <ele>231.6</ele>
        <time>2024-02-23T12:06:24Z</time>
      </trkpt>
      <trkpt lat="43.79154" lon="3.80917">
        <ele>231.4</ele>
        <time>2024-02-23T12:06:25Z</time>
      </trkpt>
      <trkpt lat="43.79152" lon="3.80914">
        <ele>231.2</ele>
        <time>2024-02-23T12:06:26Z</time>
      </trkpt>
      <trkpt lat="43.7915" lon="3.8091">
        <ele>231</ele>
        <time>2024-02-23T12:06:27Z</time>
      </trkpt>
      <trkpt lat="43.79149" lon="3.80906">
        <ele>230.8</ele>
        <time>2024-02-23T12:06:28Z</time>
      </trkpt>
      <trkpt lat="43.79147" lon="3.80903">
        <ele>231</ele>
        <time>2024-02-23T12:06:29Z</time>
      </trkpt>
      <trkpt lat="43.79146" lon="3.80899">
        <ele>231</ele>
        <time>2024-02-23T12:06:30Z</time>
      </trkpt>
      <trkpt lat="43.79145" lon="3.80896">
        <ele>230.6</ele>
        <time>2024-02-23T12:06:31Z</time>
      </trkpt>
      <trkpt lat="43.79144" lon="3.80892">
        <ele>230.4</ele>
        <time>2024-02-23T12:06:32Z</time>
      </trkpt>
      <trkpt lat="43.79142" lon="3.80889">
        <ele>230.2</ele>
        <time>2024-02-23T12:06:33Z</time>
      </trkpt>
      <trkpt lat="43.79141" lon="3.80885">
        <ele>230</ele>
        <time>2024-02-23T12:06:34Z</time>
      </trkpt>
      <trkpt lat="43.7914" lon="3.80881">
        <ele>229.6</ele>
        <time>2024-02-23T12:06:35Z</time>
      </trkpt>
      <trkpt lat="43.79138" lon="3.80877">
        <ele>229.4</ele>
        <time>2024-02-23T12:06:36Z</time>
      </trkpt>
      <trkpt lat="43.79137" lon="3.80873">
        <ele>229.4</ele>
        <time>2024-02-23T12:06:37Z</time>
      </trkpt>
      <trkpt lat="43.79135" lon="3.8087">
        <ele>229.2</ele>
        <time>2024-02-23T12:06:38Z</time>
      </trkpt>
      <trkpt lat="43.79133" lon="3.80866">
        <ele>228.8</ele>
        <time>2024-02-23T12:06:39Z</time>
      </trkpt>
      <trkpt lat="43.79131" lon="3.80862">
        <ele>228.6</ele>
        <time>2024-02-23T12:06:40Z</time>
      </trkpt>
      <trkpt lat="43.7913" lon="3.80859">
        <ele>228.2</ele>
        <time>2024-02-23T12:06:41Z</time>
      </trkpt>
      <trkpt lat="43.79128" lon="3.80854">
        <ele>228</ele>
        <time>2024-02-23T12:06:42Z</time>
      </trkpt>
      <trkpt lat="43.79127" lon="3.8085">
        <ele>227.6</ele>
        <time>2024-02-23T12:06:43Z</time>
      </trkpt>
      <trkpt lat="43.79125" lon="3.80846">
        <ele>227.4</ele>
        <time>2024-02-23T12:06:44Z</time>
      </trkpt>
      <trkpt lat="43.79125" lon="3.80842">
        <ele>227.2</ele>
        <time>2024-02-23T12:06:45Z</time>
      </trkpt>
      <trkpt lat="43.79123" lon="3.80839">
        <ele>227</ele>
        <time>2024-02-23T12:06:46Z</time>
      </trkpt>
      <trkpt lat="43.79121" lon="3.80835">
        <ele>226.8</ele>
        <time>2024-02-23T12:06:47Z</time>
      </trkpt>
      <trkpt lat="43.7912" lon="3.80832">
        <ele>226.6</ele>
        <time>2024-02-23T12:06:48Z</time>
      </trkpt>
      <trkpt lat="43.79118" lon="3.80829">
        <ele>226.6</ele>
        <time>2024-02-23T12:06:49Z</time>
      </trkpt>
      <trkpt lat="43.79117" lon="3.80826">
        <ele>226.4</ele>
        <time>2024-02-23T12:06:50Z</time>
      </trkpt>
      <trkpt lat="43.79115" lon="3.80823">
        <ele>226.4</ele>
        <time>2024-02-23T12:06:51Z</time>
      </trkpt>
      <trkpt lat="43.79112" lon="3.80821">
        <ele>226.4</ele>
        <time>2024-02-23T12:06:52Z</time>
      </trkpt>
      <trkpt lat="43.7911" lon="3.80818">
        <ele>226.4</ele>
        <time>2024-02-23T12:06:53Z</time>
      </trkpt>
      <trkpt lat="43.79108" lon="3.80815">
        <ele>226.4</ele>
        <time>2024-02-23T12:06:54Z</time>
      </trkpt>
      <trkpt lat="43.79106" lon="3.80812">
        <ele>226.4</ele>
        <time>2024-02-23T12:06:55Z</time>
      </trkpt>
      <trkpt lat="43.79104" lon="3.80809">
        <ele>226.4</ele>
        <time>2024-02-23T12:06:56Z</time>
      </trkpt>
      <trkpt lat="43.79103" lon="3.80806">
        <ele>226.4</ele>
        <time>2024-02-23T12:06:57Z</time>
      </trkpt>
      <trkpt lat="43.79101" lon="3.80803">
        <ele>226.4</ele>
        <time>2024-02-23T12:06:58Z</time>
      </trkpt>
      <trkpt lat="43.791" lon="3.808">
        <ele>226.4</ele>
        <time>2024-02-23T12:06:59Z</time>
      </trkpt>
      <trkpt lat="43.79098" lon="3.80797">
        <ele>226.4</ele>
        <time>2024-02-23T12:07:00Z</time>
      </trkpt>
      <trkpt lat="43.79095" lon="3.80795">
        <ele>226.4</ele>
        <time>2024-02-23T12:07:01Z</time>
      </trkpt>
      <trkpt lat="43.79093" lon="3.80792">
        <ele>226.4</ele>
        <time>2024-02-23T12:07:02Z</time>
      </trkpt>
      <trkpt lat="43.79092" lon="3.8079">
        <ele>226.4</ele>
        <time>2024-02-23T12:07:03Z</time>
      </trkpt>
      <trkpt lat="43.7909" lon="3.80787">
        <ele>226.4</ele>
        <time>2024-02-23T12:07:04Z</time>
      </trkpt>
      <trkpt lat="43.79088" lon="3.80785">
        <ele>226.2</ele>
        <time>2024-02-23T12:07:05Z</time>
      </trkpt>
      <trkpt lat="43.79086" lon="3.80782">
        <ele>226.2</ele>
        <time>2024-02-23T12:07:06Z</time>
      </trkpt>
      <trkpt lat="43.79085" lon="3.8078">
        <ele>226.4</ele>
        <time>2024-02-23T12:07:07Z</time>
      </trkpt>
      <trkpt lat="43.79083" lon="3.80777">
        <ele>226.4</ele>
        <time>2024-02-23T12:07:08Z</time>
      </trkpt>
      <trkpt lat="43.79081" lon="3.80774">
        <ele>226.2</ele>
        <time>2024-02-23T12:07:09Z</time>
      </trkpt>
      <trkpt lat="43.79079" lon="3.80771">
        <ele>226.2</ele>
        <time>2024-02-23T12:07:10Z</time>
      </trkpt>
      <trkpt lat="43.79077" lon="3.80768">
        <ele>226</ele>
        <time>2024-02-23T12:07:11Z</time>
      </trkpt>
      <trkpt lat="43.79075" lon="3.80765">
        <ele>226.2</ele>
        <time>2024-02-23T12:07:12Z</time>
      </trkpt>
      <trkpt lat="43.79073" lon="3.80763">
        <ele>226.2</ele>
        <time>2024-02-23T12:07:13Z</time>
      </trkpt>
      <trkpt lat="43.79071" lon="3.8076">
        <ele>226.2</ele>
        <time>2024-02-23T12:07:14Z</time>
      </trkpt>
      <trkpt lat="43.79069" lon="3.80758">
        <ele>226.4</ele>
        <time>2024-02-23T12:07:15Z</time>
      </trkpt>
      <trkpt lat="43.79068" lon="3.80756">
        <ele>226.4</ele>
        <time>2024-02-23T12:07:16Z</time>
      </trkpt>
      <trkpt lat="43.79066" lon="3.80753">
        <ele>226.4</ele>
        <time>2024-02-23T12:07:17Z</time>
      </trkpt>
      <trkpt lat="43.79065" lon="3.8075">
        <ele>226.2</ele>
        <time>2024-02-23T12:07:18Z</time>
      </trkpt>
      <trkpt lat="43.79063" lon="3.80748">
        <ele>226.4</ele>
        <time>2024-02-23T12:07:19Z</time>
      </trkpt>
      <trkpt lat="43.79061" lon="3.80745">
        <ele>226.4</ele>
        <time>2024-02-23T12:07:20Z</time>
      </trkpt>
      <trkpt lat="43.79061" lon="3.80742">
        <ele>226.2</ele>
        <time>2024-02-23T12:07:21Z</time>
      </trkpt>
      <trkpt lat="43.79059" lon="3.80739">
        <ele>226.2</ele>
        <time>2024-02-23T12:07:22Z</time>
      </trkpt>
      <trkpt lat="43.79056" lon="3.80737">
        <ele>226.2</ele>
        <time>2024-02-23T12:07:23Z</time>
      </trkpt>
      <trkpt lat="43.79054" lon="3.80734">
        <ele>226.2</ele>
        <time>2024-02-23T12:07:24Z</time>
      </trkpt>
      <trkpt lat="43.79053" lon="3.80731">
        <ele>226.2</ele>
        <time>2024-02-23T12:07:25Z</time>
      </trkpt>
      <trkpt lat="43.7905" lon="3.80729">
        <ele>226.2</ele>
        <time>2024-02-23T12:07:26Z</time>
      </trkpt>
      <trkpt lat="43.79047" lon="3.80727">
        <ele>226.2</ele>
        <time>2024-02-23T12:07:27Z</time>
      </trkpt>
      <trkpt lat="43.79045" lon="3.80723">
        <ele>226.4</ele>
        <time>2024-02-23T12:07:28Z</time>
      </trkpt>
      <trkpt lat="43.79045" lon="3.8072">
        <ele>226.4</ele>
        <time>2024-02-23T12:07:29Z</time>
      </trkpt>
      <trkpt lat="43.79043" lon="3.80717">
        <ele>226.4</ele>
        <time>2024-02-23T12:07:30Z</time>
      </trkpt>
      <trkpt lat="43.79041" lon="3.80714">
        <ele>226.4</ele>
        <time>2024-02-23T12:07:31Z</time>
      </trkpt>
      <trkpt lat="43.79039" lon="3.80711">
        <ele>226.4</ele>
        <time>2024-02-23T12:07:32Z</time>
      </trkpt>
      <trkpt lat="43.79037" lon="3.80709">
        <ele>226.4</ele>
        <time>2024-02-23T12:07:33Z</time>
      </trkpt>
      <trkpt lat="43.79036" lon="3.80706">
        <ele>226.4</ele>
        <time>2024-02-23T12:07:34Z</time>
      </trkpt>
      <trkpt lat="43.79034" lon="3.80703">
        <ele>226.2</ele>
        <time>2024-02-23T12:07:35Z</time>
      </trkpt>
      <trkpt lat="43.79033" lon="3.807">
        <ele>226.2</ele>
        <time>2024-02-23T12:07:36Z</time>
      </trkpt>
      <trkpt lat="43.79031" lon="3.80698">
        <ele>226</ele>
        <time>2024-02-23T12:07:37Z</time>
      </trkpt>
      <trkpt lat="43.79029" lon="3.80695">
        <ele>226</ele>
        <time>2024-02-23T12:07:38Z</time>
      </trkpt>
      <trkpt lat="43.79027" lon="3.80693">
        <ele>225.8</ele>
        <time>2024-02-23T12:07:39Z</time>
      </trkpt>
      <trkpt lat="43.79024" lon="3.80691">
        <ele>225.8</ele>
        <time>2024-02-23T12:07:40Z</time>
      </trkpt>
      <trkpt lat="43.79022" lon="3.80688">
        <ele>226</ele>
        <time>2024-02-23T12:07:41Z</time>
      </trkpt>
      <trkpt lat="43.7902" lon="3.80686">
        <ele>225.8</ele>
        <time>2024-02-23T12:07:42Z</time>
      </trkpt>
      <trkpt lat="43.79018" lon="3.80683">
        <ele>225.8</ele>
        <time>2024-02-23T12:07:43Z</time>
      </trkpt>
      <trkpt lat="43.79016" lon="3.80681">
        <ele>225.8</ele>
        <time>2024-02-23T12:07:44Z</time>
      </trkpt>
      <trkpt lat="43.79014" lon="3.80679">
        <ele>226.2</ele>
        <time>2024-02-23T12:07:45Z</time>
      </trkpt>
      <trkpt lat="43.79012" lon="3.80677">
        <ele>226.4</ele>
        <time>2024-02-23T12:07:46Z</time>
      </trkpt>
      <trkpt lat="43.7901" lon="3.80674">
        <ele>226.8</ele>
        <time>2024-02-23T12:07:47Z</time>
      </trkpt>
      <trkpt lat="43.79008" lon="3.80672">
        <ele>226.8</ele>
        <time>2024-02-23T12:07:48Z</time>
      </trkpt>
      <trkpt lat="43.79006" lon="3.8067">
        <ele>226.8</ele>
        <time>2024-02-23T12:07:49Z</time>
      </trkpt>
      <trkpt lat="43.79004" lon="3.80668">
        <ele>226.8</ele>
        <time>2024-02-23T12:07:50Z</time>
      </trkpt>
      <trkpt lat="43.79002" lon="3.80667">
        <ele>226.6</ele>
        <time>2024-02-23T12:07:51Z</time>
      </trkpt>
      <trkpt lat="43.79" lon="3.80665">
        <ele>226.8</ele>
        <time>2024-02-23T12:07:52Z</time>
      </trkpt>
      <trkpt lat="43.78999" lon="3.80662">
        <ele>226.8</ele>
        <time>2024-02-23T12:07:53Z</time>
      </trkpt>
      <trkpt lat="43.78998" lon="3.80659">
        <ele>226.8</ele>
        <time>2024-02-23T12:07:54Z</time>
      </trkpt>
      <trkpt lat="43.78997" lon="3.80657">
        <ele>226.8</ele>
        <time>2024-02-23T12:07:55Z</time>
      </trkpt>
      <trkpt lat="43.78995" lon="3.80654">
        <ele>227</ele>
        <time>2024-02-23T12:07:56Z</time>
      </trkpt>
      <trkpt lat="43.78993" lon="3.80652">
        <ele>227</ele>
        <time>2024-02-23T12:07:57Z</time>
      </trkpt>
      <trkpt lat="43.78991" lon="3.8065">
        <ele>227</ele>
        <time>2024-02-23T12:07:58Z</time>
      </trkpt>
      <trkpt lat="43.78988" lon="3.80649">
        <ele>227</ele>
        <time>2024-02-23T12:07:59Z</time>
      </trkpt>
      <trkpt lat="43.78984" lon="3.80648">
        <ele>227</ele>
        <time>2024-02-23T12:08:00Z</time>
      </trkpt>
      <trkpt lat="43.78981" lon="3.80647">
        <ele>227.2</ele>
        <time>2024-02-23T12:08:01Z</time>
      </trkpt>
      <trkpt lat="43.78978" lon="3.80646">
        <ele>227.2</ele>
        <time>2024-02-23T12:08:02Z</time>
      </trkpt>
      <trkpt lat="43.78976" lon="3.80644">
        <ele>227.2</ele>
        <time>2024-02-23T12:08:03Z</time>
      </trkpt>
      <trkpt lat="43.78974" lon="3.80643">
        <ele>227.4</ele>
        <time>2024-02-23T12:08:04Z</time>
      </trkpt>
      <trkpt lat="43.78972" lon="3.80641">
        <ele>227.4</ele>
        <time>2024-02-23T12:08:05Z</time>
      </trkpt>
      <trkpt lat="43.7897" lon="3.8064">
        <ele>227.6</ele>
        <time>2024-02-23T12:08:06Z</time>
      </trkpt>
      <trkpt lat="43.78968" lon="3.80638">
        <ele>227.6</ele>
        <time>2024-02-23T12:08:07Z</time>
      </trkpt>
      <trkpt lat="43.78966" lon="3.80636">
        <ele>227.6</ele>
        <time>2024-02-23T12:08:08Z</time>
      </trkpt>
      <trkpt lat="43.78964" lon="3.80634">
        <ele>227.6</ele>
        <time>2024-02-23T12:08:09Z</time>
      </trkpt>
      <trkpt lat="43.78962" lon="3.80633">
        <ele>227.6</ele>
        <time>2024-02-23T12:08:10Z</time>
      </trkpt>
      <trkpt lat="43.7896" lon="3.80631">
        <ele>227.6</ele>
        <time>2024-02-23T12:08:11Z</time>
      </trkpt>
      <trkpt lat="43.78957" lon="3.8063">
        <ele>227.8</ele>
        <time>2024-02-23T12:08:12Z</time>
      </trkpt>
      <trkpt lat="43.78953" lon="3.80627">
        <ele>227.8</ele>
        <time>2024-02-23T12:08:13Z</time>
      </trkpt>
      <trkpt lat="43.78952" lon="3.80626">
        <ele>227.8</ele>
        <time>2024-02-23T12:08:14Z</time>
      </trkpt>
      <trkpt lat="43.7895" lon="3.80624">
        <ele>227.8</ele>
        <time>2024-02-23T12:08:15Z</time>
      </trkpt>
      <trkpt lat="43.78948" lon="3.80622">
        <ele>227.8</ele>
        <time>2024-02-23T12:08:16Z</time>
      </trkpt>
      <trkpt lat="43.78945" lon="3.8062">
        <ele>227.6</ele>
        <time>2024-02-23T12:08:17Z</time>
      </trkpt>
      <trkpt lat="43.78942" lon="3.80618">
        <ele>227.8</ele>
        <time>2024-02-23T12:08:18Z</time>
      </trkpt>
      <trkpt lat="43.7894" lon="3.80615">
        <ele>227.8</ele>
        <time>2024-02-23T12:08:19Z</time>
      </trkpt>
      <trkpt lat="43.78939" lon="3.80614">
        <ele>228</ele>
        <time>2024-02-23T12:08:20Z</time>
      </trkpt>
      <trkpt lat="43.78936" lon="3.80612">
        <ele>228.2</ele>
        <time>2024-02-23T12:08:21Z</time>
      </trkpt>
      <trkpt lat="43.78933" lon="3.80611">
        <ele>228.2</ele>
        <time>2024-02-23T12:08:22Z</time>
      </trkpt>
      <trkpt lat="43.78931" lon="3.8061">
        <ele>228.2</ele>
        <time>2024-02-23T12:08:23Z</time>
      </trkpt>
      <trkpt lat="43.78929" lon="3.8061">
        <ele>228.2</ele>
        <time>2024-02-23T12:08:24Z</time>
      </trkpt>
      <trkpt lat="43.78926" lon="3.80609">
        <ele>228.4</ele>
        <time>2024-02-23T12:08:25Z</time>
      </trkpt>
      <trkpt lat="43.78924" lon="3.8061">
        <ele>228.4</ele>
        <time>2024-02-23T12:08:26Z</time>
      </trkpt>
      <trkpt lat="43.78922" lon="3.80609">
        <ele>228.4</ele>
        <time>2024-02-23T12:08:27Z</time>
      </trkpt>
      <trkpt lat="43.78919" lon="3.80608">
        <ele>228.6</ele>
        <time>2024-02-23T12:08:28Z</time>
      </trkpt>
      <trkpt lat="43.78917" lon="3.80605">
        <ele>228.8</ele>
        <time>2024-02-23T12:08:29Z</time>
      </trkpt>
      <trkpt lat="43.78916" lon="3.80602">
        <ele>229</ele>
        <time>2024-02-23T12:08:30Z</time>
      </trkpt>
      <trkpt lat="43.78916" lon="3.80602">
        <ele>229.2</ele>
        <time>2024-02-23T12:08:31Z</time>
      </trkpt>
      <trkpt lat="43.78914" lon="3.80599">
        <ele>229.2</ele>
        <time>2024-02-23T12:08:32Z</time>
      </trkpt>
      <trkpt lat="43.78914" lon="3.80599">
        <ele>229.2</ele>
        <time>2024-02-23T12:08:33Z</time>
      </trkpt>
      <trkpt lat="43.78912" lon="3.80599">
        <ele>229.2</ele>
        <time>2024-02-23T12:08:34Z</time>
      </trkpt>
      <trkpt lat="43.78912" lon="3.80599">
        <ele>229.4</ele>
        <time>2024-02-23T12:08:35Z</time>
      </trkpt>
      <trkpt lat="43.78909" lon="3.80601">
        <ele>229.6</ele>
        <time>2024-02-23T12:08:36Z</time>
      </trkpt>
      <trkpt lat="43.78909" lon="3.80601">
        <ele>229.8</ele>
        <time>2024-02-23T12:08:37Z</time>
      </trkpt>
      <trkpt lat="43.78909" lon="3.80601">
        <ele>230.2</ele>
        <time>2024-02-23T12:08:38Z</time>
      </trkpt>
      <trkpt lat="43.78907" lon="3.80603">
        <ele>230.6</ele>
        <time>2024-02-23T12:08:39Z</time>
      </trkpt>
      <trkpt lat="43.78907" lon="3.80603">
        <ele>231</ele>
        <time>2024-02-23T12:08:40Z</time>
      </trkpt>
      <trkpt lat="43.78905" lon="3.80606">
        <ele>231.4</ele>
        <time>2024-02-23T12:08:41Z</time>
      </trkpt>
      <trkpt lat="43.78905" lon="3.80606">
        <ele>231.8</ele>
        <time>2024-02-23T12:08:42Z</time>
      </trkpt>
      <trkpt lat="43.78903" lon="3.80607">
        <ele>232.2</ele>
        <time>2024-02-23T12:08:43Z</time>
      </trkpt>
      <trkpt lat="43.78903" lon="3.80607">
        <ele>232.6</ele>
        <time>2024-02-23T12:08:44Z</time>
      </trkpt>
      <trkpt lat="43.78901" lon="3.80608">
        <ele>233</ele>
        <time>2024-02-23T12:08:45Z</time>
      </trkpt>
      <trkpt lat="43.78901" lon="3.80608">
        <ele>233.2</ele>
        <time>2024-02-23T12:08:46Z</time>
      </trkpt>
      <trkpt lat="43.78899" lon="3.8061">
        <ele>233.6</ele>
        <time>2024-02-23T12:08:47Z</time>
      </trkpt>
      <trkpt lat="43.78899" lon="3.8061">
        <ele>234</ele>
        <time>2024-02-23T12:08:48Z</time>
      </trkpt>
      <trkpt lat="43.78898" lon="3.80612">
        <ele>234.4</ele>
        <time>2024-02-23T12:08:49Z</time>
      </trkpt>
      <trkpt lat="43.78898" lon="3.80612">
        <ele>234.8</ele>
        <time>2024-02-23T12:08:50Z</time>
      </trkpt>
      <trkpt lat="43.78898" lon="3.80612">
        <ele>235.2</ele>
        <time>2024-02-23T12:08:51Z</time>
      </trkpt>
      <trkpt lat="43.78898" lon="3.80612">
        <ele>235.4</ele>
        <time>2024-02-23T12:08:52Z</time>
      </trkpt>
      <trkpt lat="43.78895" lon="3.80613">
        <ele>235.8</ele>
        <time>2024-02-23T12:08:53Z</time>
      </trkpt>
      <trkpt lat="43.78895" lon="3.80613">
        <ele>236.2</ele>
        <time>2024-02-23T12:08:54Z</time>
      </trkpt>
      <trkpt lat="43.78895" lon="3.80613">
        <ele>236.6</ele>
        <time>2024-02-23T12:08:55Z</time>
      </trkpt>
      <trkpt lat="43.78895" lon="3.80613">
        <ele>237</ele>
        <time>2024-02-23T12:08:56Z</time>
      </trkpt>
      <trkpt lat="43.78896" lon="3.80616">
        <ele>237.2</ele>
        <time>2024-02-23T12:08:57Z</time>
      </trkpt>
      <trkpt lat="43.78896" lon="3.80616">
        <ele>237.4</ele>
        <time>2024-02-23T12:08:58Z</time>
      </trkpt>
      <trkpt lat="43.78896" lon="3.8062">
        <ele>237.6</ele>
        <time>2024-02-23T12:08:59Z</time>
      </trkpt>
      <trkpt lat="43.78896" lon="3.8062">
        <ele>237.8</ele>
        <time>2024-02-23T12:09:00Z</time>
      </trkpt>
      <trkpt lat="43.78896" lon="3.8062">
        <ele>238</ele>
        <time>2024-02-23T12:09:01Z</time>
      </trkpt>
      <trkpt lat="43.78895" lon="3.80621">
        <ele>238.4</ele>
        <time>2024-02-23T12:09:02Z</time>
      </trkpt>
      <trkpt lat="43.78893" lon="3.80621">
        <ele>238.6</ele>
        <time>2024-02-23T12:09:03Z</time>
      </trkpt>
      <trkpt lat="43.78891" lon="3.8062">
        <ele>239</ele>
        <time>2024-02-23T12:09:04Z</time>
      </trkpt>
      <trkpt lat="43.78888" lon="3.8062">
        <ele>239.2</ele>
        <time>2024-02-23T12:09:05Z</time>
      </trkpt>
      <trkpt lat="43.78886" lon="3.80621">
        <ele>239.4</ele>
        <time>2024-02-23T12:09:06Z</time>
      </trkpt>
      <trkpt lat="43.78884" lon="3.80621">
        <ele>239.4</ele>
        <time>2024-02-23T12:09:07Z</time>
      </trkpt>
      <trkpt lat="43.78882" lon="3.80622">
        <ele>239.6</ele>
        <time>2024-02-23T12:09:08Z</time>
      </trkpt>
      <trkpt lat="43.78882" lon="3.80622">
        <ele>239.6</ele>
        <time>2024-02-23T12:09:09Z</time>
      </trkpt>
      <trkpt lat="43.78879" lon="3.80625">
        <ele>239.8</ele>
        <time>2024-02-23T12:09:10Z</time>
      </trkpt>
      <trkpt lat="43.78879" lon="3.80625">
        <ele>240</ele>
        <time>2024-02-23T12:09:11Z</time>
      </trkpt>
      <trkpt lat="43.78877" lon="3.80628">
        <ele>240.2</ele>
        <time>2024-02-23T12:09:12Z</time>
      </trkpt>
      <trkpt lat="43.78875" lon="3.8063">
        <ele>240.4</ele>
        <time>2024-02-23T12:09:13Z</time>
      </trkpt>
      <trkpt lat="43.78873" lon="3.80631">
        <ele>240.8</ele>
        <time>2024-02-23T12:09:14Z</time>
      </trkpt>
      <trkpt lat="43.78871" lon="3.80631">
        <ele>241</ele>
        <time>2024-02-23T12:09:15Z</time>
      </trkpt>
      <trkpt lat="43.7887" lon="3.80629">
        <ele>241.2</ele>
        <time>2024-02-23T12:09:16Z</time>
      </trkpt>
      <trkpt lat="43.78868" lon="3.80627">
        <ele>241.4</ele>
        <time>2024-02-23T12:09:17Z</time>
      </trkpt>
      <trkpt lat="43.78867" lon="3.80624">
        <ele>241.6</ele>
        <time>2024-02-23T12:09:18Z</time>
      </trkpt>
      <trkpt lat="43.78866" lon="3.80622">
        <ele>241.2</ele>
        <time>2024-02-23T12:09:19Z</time>
      </trkpt>
      <trkpt lat="43.78865" lon="3.8062">
        <ele>241</ele>
        <time>2024-02-23T12:09:20Z</time>
      </trkpt>
      <trkpt lat="43.78865" lon="3.8062">
        <ele>240.8</ele>
        <time>2024-02-23T12:09:21Z</time>
      </trkpt>
      <trkpt lat="43.78863" lon="3.80616">
        <ele>240.4</ele>
        <time>2024-02-23T12:09:22Z</time>
      </trkpt>
      <trkpt lat="43.78861" lon="3.80615">
        <ele>240.2</ele>
        <time>2024-02-23T12:09:23Z</time>
      </trkpt>
      <trkpt lat="43.78859" lon="3.80614">
        <ele>239.8</ele>
        <time>2024-02-23T12:09:24Z</time>
      </trkpt>
      <trkpt lat="43.78857" lon="3.80614">
        <ele>239.4</ele>
        <time>2024-02-23T12:09:25Z</time>
      </trkpt>
      <trkpt lat="43.78854" lon="3.80614">
        <ele>239</ele>
        <time>2024-02-23T12:09:26Z</time>
      </trkpt>
      <trkpt lat="43.78853" lon="3.80615">
        <ele>238.8</ele>
        <time>2024-02-23T12:09:27Z</time>
      </trkpt>
      <trkpt lat="43.78851" lon="3.80616">
        <ele>238.6</ele>
        <time>2024-02-23T12:09:28Z</time>
      </trkpt>
      <trkpt lat="43.78849" lon="3.80617">
        <ele>238.6</ele>
        <time>2024-02-23T12:09:29Z</time>
      </trkpt>
      <trkpt lat="43.78845" lon="3.80619">
        <ele>238.4</ele>
        <time>2024-02-23T12:09:30Z</time>
      </trkpt>
      <trkpt lat="43.78842" lon="3.8062">
        <ele>238.2</ele>
        <time>2024-02-23T12:09:31Z</time>
      </trkpt>
      <trkpt lat="43.78842" lon="3.8062">
        <ele>238</ele>
        <time>2024-02-23T12:09:32Z</time>
      </trkpt>
      <trkpt lat="43.78839" lon="3.80622">
        <ele>237.8</ele>
        <time>2024-02-23T12:09:33Z</time>
      </trkpt>
      <trkpt lat="43.78839" lon="3.80622">
        <ele>238</ele>
        <time>2024-02-23T12:09:34Z</time>
      </trkpt>
      <trkpt lat="43.78837" lon="3.80622">
        <ele>238</ele>
        <time>2024-02-23T12:09:35Z</time>
      </trkpt>
      <trkpt lat="43.78835" lon="3.80622">
        <ele>238.2</ele>
        <time>2024-02-23T12:09:36Z</time>
      </trkpt>
      <trkpt lat="43.78835" lon="3.80622">
        <ele>238.2</ele>
        <time>2024-02-23T12:09:37Z</time>
      </trkpt>
      <trkpt lat="43.78831" lon="3.80622">
        <ele>238.4</ele>
        <time>2024-02-23T12:09:38Z</time>
      </trkpt>
      <trkpt lat="43.78829" lon="3.80621">
        <ele>238.6</ele>
        <time>2024-02-23T12:09:39Z</time>
      </trkpt>
      <trkpt lat="43.78827" lon="3.8062">
        <ele>238.8</ele>
        <time>2024-02-23T12:09:40Z</time>
      </trkpt>
      <trkpt lat="43.78827" lon="3.8062">
        <ele>238.8</ele>
        <time>2024-02-23T12:09:41Z</time>
      </trkpt>
      <trkpt lat="43.78824" lon="3.80619">
        <ele>239</ele>
        <time>2024-02-23T12:09:42Z</time>
      </trkpt>
      <trkpt lat="43.78822" lon="3.8062">
        <ele>238.8</ele>
        <time>2024-02-23T12:09:43Z</time>
      </trkpt>
      <trkpt lat="43.78819" lon="3.80621">
        <ele>238.6</ele>
        <time>2024-02-23T12:09:44Z</time>
      </trkpt>
      <trkpt lat="43.78817" lon="3.80622">
        <ele>238.6</ele>
        <time>2024-02-23T12:09:45Z</time>
      </trkpt>
      <trkpt lat="43.78815" lon="3.80623">
        <ele>238.4</ele>
        <time>2024-02-23T12:09:46Z</time>
      </trkpt>
      <trkpt lat="43.78813" lon="3.80624">
        <ele>238.2</ele>
        <time>2024-02-23T12:09:47Z</time>
      </trkpt>
      <trkpt lat="43.7881" lon="3.80625">
        <ele>238.2</ele>
        <time>2024-02-23T12:09:48Z</time>
      </trkpt>
      <trkpt lat="43.78807" lon="3.80625">
        <ele>238.2</ele>
        <time>2024-02-23T12:09:49Z</time>
      </trkpt>
      <trkpt lat="43.78805" lon="3.80627">
        <ele>238</ele>
        <time>2024-02-23T12:09:50Z</time>
      </trkpt>
      <trkpt lat="43.78802" lon="3.80628">
        <ele>238</ele>
        <time>2024-02-23T12:09:51Z</time>
      </trkpt>
      <trkpt lat="43.788" lon="3.80628">
        <ele>237.8</ele>
        <time>2024-02-23T12:09:52Z</time>
      </trkpt>
      <trkpt lat="43.78797" lon="3.80628">
        <ele>237.8</ele>
        <time>2024-02-23T12:09:53Z</time>
      </trkpt>
      <trkpt lat="43.78796" lon="3.80629">
        <ele>237.6</ele>
        <time>2024-02-23T12:09:54Z</time>
      </trkpt>
      <trkpt lat="43.78793" lon="3.8063">
        <ele>237.4</ele>
        <time>2024-02-23T12:09:55Z</time>
      </trkpt>
      <trkpt lat="43.78793" lon="3.8063">
        <ele>237.2</ele>
        <time>2024-02-23T12:09:56Z</time>
      </trkpt>
      <trkpt lat="43.7879" lon="3.80633">
        <ele>237.2</ele>
        <time>2024-02-23T12:09:57Z</time>
      </trkpt>
      <trkpt lat="43.78789" lon="3.80635">
        <ele>237.2</ele>
        <time>2024-02-23T12:09:58Z</time>
      </trkpt>
      <trkpt lat="43.78789" lon="3.80638">
        <ele>237.2</ele>
        <time>2024-02-23T12:09:59Z</time>
      </trkpt>
      <trkpt lat="43.78789" lon="3.80638">
        <ele>237.2</ele>
        <time>2024-02-23T12:10:00Z</time>
      </trkpt>
      <trkpt lat="43.78787" lon="3.80641">
        <ele>237.2</ele>
        <time>2024-02-23T12:10:01Z</time>
      </trkpt>
      <trkpt lat="43.78787" lon="3.80641">
        <ele>237.4</ele>
        <time>2024-02-23T12:10:02Z</time>
      </trkpt>
      <trkpt lat="43.78787" lon="3.80641">
        <ele>237.4</ele>
        <time>2024-02-23T12:10:03Z</time>
      </trkpt>
      <trkpt lat="43.78787" lon="3.80641">
        <ele>237.4</ele>
        <time>2024-02-23T12:10:04Z</time>
      </trkpt>
      <trkpt lat="43.78789" lon="3.80639">
        <ele>237.4</ele>
        <time>2024-02-23T12:10:05Z</time>
      </trkpt>
      <trkpt lat="43.78789" lon="3.80639">
        <ele>237.2</ele>
        <time>2024-02-23T12:10:06Z</time>
      </trkpt>
      <trkpt lat="43.78789" lon="3.80636">
        <ele>237.2</ele>
        <time>2024-02-23T12:10:07Z</time>
      </trkpt>
      <trkpt lat="43.78791" lon="3.80633">
        <ele>237.2</ele>
        <time>2024-02-23T12:10:08Z</time>
      </trkpt>
      <trkpt lat="43.78793" lon="3.80631">
        <ele>237</ele>
        <time>2024-02-23T12:10:09Z</time>
      </trkpt>
      <trkpt lat="43.78796" lon="3.80628">
        <ele>237</ele>
        <time>2024-02-23T12:10:10Z</time>
      </trkpt>
      <trkpt lat="43.78798" lon="3.80627">
        <ele>237</ele>
        <time>2024-02-23T12:10:11Z</time>
      </trkpt>
      <trkpt lat="43.788" lon="3.80627">
        <ele>237</ele>
        <time>2024-02-23T12:10:12Z</time>
      </trkpt>
      <trkpt lat="43.788" lon="3.80627">
        <ele>236.8</ele>
        <time>2024-02-23T12:10:13Z</time>
      </trkpt>
      <trkpt lat="43.78803" lon="3.80631">
        <ele>236.8</ele>
        <time>2024-02-23T12:10:14Z</time>
      </trkpt>
      <trkpt lat="43.78804" lon="3.80634">
        <ele>237</ele>
        <time>2024-02-23T12:10:15Z</time>
      </trkpt>
      <trkpt lat="43.78805" lon="3.80636">
        <ele>237.2</ele>
        <time>2024-02-23T12:10:16Z</time>
      </trkpt>
      <trkpt lat="43.78806" lon="3.80638">
        <ele>237.2</ele>
        <time>2024-02-23T12:10:17Z</time>
      </trkpt>
      <trkpt lat="43.78806" lon="3.80638">
        <ele>239</ele>
        <time>2024-02-23T12:10:57Z</time>
      </trkpt>
      <trkpt lat="43.78806" lon="3.80638">
        <ele>239</ele>
        <time>2024-02-23T12:10:58Z</time>
      </trkpt>
      <trkpt lat="43.78806" lon="3.80638">
        <ele>239</ele>
        <time>2024-02-23T12:10:59Z</time>
      </trkpt>
      <trkpt lat="43.78806" lon="3.80638">
        <ele>239</ele>
        <time>2024-02-23T12:11:00Z</time>
      </trkpt>
      <trkpt lat="43.78808" lon="3.80646">
        <ele>239.2</ele>
        <time>2024-02-23T12:11:01Z</time>
      </trkpt>
      <trkpt lat="43.78808" lon="3.80649">
        <ele>239.4</ele>
        <time>2024-02-23T12:11:02Z</time>
      </trkpt>
      <trkpt lat="43.78809" lon="3.80652">
        <ele>239.6</ele>
        <time>2024-02-23T12:11:03Z</time>
      </trkpt>
      <trkpt lat="43.78809" lon="3.80655">
        <ele>239.8</ele>
        <time>2024-02-23T12:11:04Z</time>
      </trkpt>
      <trkpt lat="43.7881" lon="3.80658">
        <ele>240</ele>
        <time>2024-02-23T12:11:05Z</time>
      </trkpt>
      <trkpt lat="43.78811" lon="3.80661">
        <ele>240.2</ele>
        <time>2024-02-23T12:11:06Z</time>
      </trkpt>
      <trkpt lat="43.78811" lon="3.80661">
        <ele>240.6</ele>
        <time>2024-02-23T12:11:07Z</time>
      </trkpt>
      <trkpt lat="43.78813" lon="3.80666">
        <ele>240.8</ele>
        <time>2024-02-23T12:11:08Z</time>
      </trkpt>
      <trkpt lat="43.78814" lon="3.80669">
        <ele>241</ele>
        <time>2024-02-23T12:11:09Z</time>
      </trkpt>
      <trkpt lat="43.78815" lon="3.80673">
        <ele>241.2</ele>
        <time>2024-02-23T12:11:10Z</time>
      </trkpt>
      <trkpt lat="43.78816" lon="3.80676">
        <ele>241.4</ele>
        <time>2024-02-23T12:11:11Z</time>
      </trkpt>
      <trkpt lat="43.78817" lon="3.80679">
        <ele>241.6</ele>
        <time>2024-02-23T12:11:12Z</time>
      </trkpt>
      <trkpt lat="43.78818" lon="3.80682">
        <ele>241.4</ele>
        <time>2024-02-23T12:11:13Z</time>
      </trkpt>
      <trkpt lat="43.78818" lon="3.80682">
        <ele>241.2</ele>
        <time>2024-02-23T12:11:14Z</time>
      </trkpt>
      <trkpt lat="43.78821" lon="3.80684">
        <ele>241</ele>
        <time>2024-02-23T12:11:15Z</time>
      </trkpt>
      <trkpt lat="43.78821" lon="3.80684">
        <ele>240.8</ele>
        <time>2024-02-23T12:11:16Z</time>
      </trkpt>
      <trkpt lat="43.78824" lon="3.80685">
        <ele>240.4</ele>
        <time>2024-02-23T12:11:17Z</time>
      </trkpt>
      <trkpt lat="43.78826" lon="3.80685">
        <ele>240</ele>
        <time>2024-02-23T12:11:18Z</time>
      </trkpt>
      <trkpt lat="43.78828" lon="3.80685">
        <ele>239.6</ele>
        <time>2024-02-23T12:11:19Z</time>
      </trkpt>
      <trkpt lat="43.7883" lon="3.80685">
        <ele>239.2</ele>
        <time>2024-02-23T12:11:20Z</time>
      </trkpt>
      <trkpt lat="43.78833" lon="3.80687">
        <ele>238.8</ele>
        <time>2024-02-23T12:11:21Z</time>
      </trkpt>
      <trkpt lat="43.78834" lon="3.80689">
        <ele>238.4</ele>
        <time>2024-02-23T12:11:22Z</time>
      </trkpt>
      <trkpt lat="43.78836" lon="3.8069">
        <ele>238</ele>
        <time>2024-02-23T12:11:23Z</time>
      </trkpt>
      <trkpt lat="43.78838" lon="3.8069">
        <ele>237.4</ele>
        <time>2024-02-23T12:11:24Z</time>
      </trkpt>
      <trkpt lat="43.78841" lon="3.80689">
        <ele>237</ele>
        <time>2024-02-23T12:11:25Z</time>
      </trkpt>
      <trkpt lat="43.78844" lon="3.80689">
        <ele>236.8</ele>
        <time>2024-02-23T12:11:26Z</time>
      </trkpt>
      <trkpt lat="43.78846" lon="3.8069">
        <ele>236.6</ele>
        <time>2024-02-23T12:11:27Z</time>
      </trkpt>
      <trkpt lat="43.78848" lon="3.80691">
        <ele>236.4</ele>
        <time>2024-02-23T12:11:28Z</time>
      </trkpt>
      <trkpt lat="43.78849" lon="3.80694">
        <ele>236.2</ele>
        <time>2024-02-23T12:11:29Z</time>
      </trkpt>
      <trkpt lat="43.78851" lon="3.80695">
        <ele>235.8</ele>
        <time>2024-02-23T12:11:30Z</time>
      </trkpt>
      <trkpt lat="43.78854" lon="3.80696">
        <ele>235.6</ele>
        <time>2024-02-23T12:11:31Z</time>
      </trkpt>
      <trkpt lat="43.78856" lon="3.80698">
        <ele>235.2</ele>
        <time>2024-02-23T12:11:32Z</time>
      </trkpt>
      <trkpt lat="43.78857" lon="3.80699">
        <ele>234.8</ele>
        <time>2024-02-23T12:11:33Z</time>
      </trkpt>
      <trkpt lat="43.78859" lon="3.80701">
        <ele>234.4</ele>
        <time>2024-02-23T12:11:34Z</time>
      </trkpt>
      <trkpt lat="43.78862" lon="3.80702">
        <ele>234</ele>
        <time>2024-02-23T12:11:35Z</time>
      </trkpt>
      <trkpt lat="43.78865" lon="3.80704">
        <ele>233.6</ele>
        <time>2024-02-23T12:11:36Z</time>
      </trkpt>
      <trkpt lat="43.78868" lon="3.80705">
        <ele>233.4</ele>
        <time>2024-02-23T12:11:37Z</time>
      </trkpt>
      <trkpt lat="43.7887" lon="3.80707">
        <ele>233</ele>
        <time>2024-02-23T12:11:38Z</time>
      </trkpt>
      <trkpt lat="43.78872" lon="3.8071">
        <ele>233</ele>
        <time>2024-02-23T12:11:39Z</time>
      </trkpt>
      <trkpt lat="43.78872" lon="3.80713">
        <ele>233</ele>
        <time>2024-02-23T12:11:40Z</time>
      </trkpt>
      <trkpt lat="43.78874" lon="3.80717">
        <ele>232.8</ele>
        <time>2024-02-23T12:11:41Z</time>
      </trkpt>
      <trkpt lat="43.78875" lon="3.8072">
        <ele>232.6</ele>
        <time>2024-02-23T12:11:42Z</time>
      </trkpt>
      <trkpt lat="43.78875" lon="3.80724">
        <ele>232.2</ele>
        <time>2024-02-23T12:11:43Z</time>
      </trkpt>
      <trkpt lat="43.78875" lon="3.80727">
        <ele>231.8</ele>
        <time>2024-02-23T12:11:44Z</time>
      </trkpt>
      <trkpt lat="43.78876" lon="3.8073">
        <ele>231.4</ele>
        <time>2024-02-23T12:11:45Z</time>
      </trkpt>
      <trkpt lat="43.78876" lon="3.80733">
        <ele>231</ele>
        <time>2024-02-23T12:11:46Z</time>
      </trkpt>
      <trkpt lat="43.78876" lon="3.80736">
        <ele>230.8</ele>
        <time>2024-02-23T12:11:47Z</time>
      </trkpt>
      <trkpt lat="43.78876" lon="3.80739">
        <ele>230.6</ele>
        <time>2024-02-23T12:11:48Z</time>
      </trkpt>
      <trkpt lat="43.78876" lon="3.80743">
        <ele>230</ele>
        <time>2024-02-23T12:11:49Z</time>
      </trkpt>
      <trkpt lat="43.78876" lon="3.80746">
        <ele>229.8</ele>
        <time>2024-02-23T12:11:50Z</time>
      </trkpt>
      <trkpt lat="43.78875" lon="3.8075">
        <ele>229.4</ele>
        <time>2024-02-23T12:11:51Z</time>
      </trkpt>
      <trkpt lat="43.78874" lon="3.80754">
        <ele>229</ele>
        <time>2024-02-23T12:11:52Z</time>
      </trkpt>
      <trkpt lat="43.78874" lon="3.80758">
        <ele>228.8</ele>
        <time>2024-02-23T12:11:53Z</time>
      </trkpt>
      <trkpt lat="43.78873" lon="3.80761">
        <ele>228.6</ele>
        <time>2024-02-23T12:11:54Z</time>
      </trkpt>
      <trkpt lat="43.78872" lon="3.80764">
        <ele>228.2</ele>
        <time>2024-02-23T12:11:55Z</time>
      </trkpt>
      <trkpt lat="43.7887" lon="3.80767">
        <ele>228</ele>
        <time>2024-02-23T12:11:56Z</time>
      </trkpt>
      <trkpt lat="43.78869" lon="3.8077">
        <ele>227.8</ele>
        <time>2024-02-23T12:11:57Z</time>
      </trkpt>
      <trkpt lat="43.78868" lon="3.80774">
        <ele>227.4</ele>
        <time>2024-02-23T12:11:58Z</time>
      </trkpt>
      <trkpt lat="43.78867" lon="3.80777">
        <ele>227.2</ele>
        <time>2024-02-23T12:11:59Z</time>
      </trkpt>
      <trkpt lat="43.78865" lon="3.8078">
        <ele>227</ele>
        <time>2024-02-23T12:12:00Z</time>
      </trkpt>
      <trkpt lat="43.78864" lon="3.80782">
        <ele>227</ele>
        <time>2024-02-23T12:12:01Z</time>
      </trkpt>
      <trkpt lat="43.78861" lon="3.80785">
        <ele>227</ele>
        <time>2024-02-23T12:12:02Z</time>
      </trkpt>
      <trkpt lat="43.78859" lon="3.80786">
        <ele>226.8</ele>
        <time>2024-02-23T12:12:03Z</time>
      </trkpt>
      <trkpt lat="43.78857" lon="3.80785">
        <ele>226.6</ele>
        <time>2024-02-23T12:12:04Z</time>
      </trkpt>
      <trkpt lat="43.78855" lon="3.80785">
        <ele>226.4</ele>
        <time>2024-02-23T12:12:05Z</time>
      </trkpt>
      <trkpt lat="43.78853" lon="3.80785">
        <ele>226.2</ele>
        <time>2024-02-23T12:12:06Z</time>
      </trkpt>
      <trkpt lat="43.7885" lon="3.80785">
        <ele>226.2</ele>
        <time>2024-02-23T12:12:07Z</time>
      </trkpt>
      <trkpt lat="43.78848" lon="3.80786">
        <ele>226</ele>
        <time>2024-02-23T12:12:08Z</time>
      </trkpt>
      <trkpt lat="43.78846" lon="3.80786">
        <ele>225.8</ele>
        <time>2024-02-23T12:12:09Z</time>
      </trkpt>
      <trkpt lat="43.78845" lon="3.80788">
        <ele>225.6</ele>
        <time>2024-02-23T12:12:10Z</time>
      </trkpt>
      <trkpt lat="43.78843" lon="3.8079">
        <ele>225.4</ele>
        <time>2024-02-23T12:12:11Z</time>
      </trkpt>
      <trkpt lat="43.78841" lon="3.80792">
        <ele>225.2</ele>
        <time>2024-02-23T12:12:12Z</time>
      </trkpt>
      <trkpt lat="43.78839" lon="3.80794">
        <ele>224.8</ele>
        <time>2024-02-23T12:12:13Z</time>
      </trkpt>
      <trkpt lat="43.78837" lon="3.80796">
        <ele>224.6</ele>
        <time>2024-02-23T12:12:14Z</time>
      </trkpt>
      <trkpt lat="43.78835" lon="3.80799">
        <ele>224.4</ele>
        <time>2024-02-23T12:12:15Z</time>
      </trkpt>
      <trkpt lat="43.78833" lon="3.80801">
        <ele>224.4</ele>
        <time>2024-02-23T12:12:16Z</time>
      </trkpt>
      <trkpt lat="43.78831" lon="3.80804">
        <ele>224.2</ele>
        <time>2024-02-23T12:12:17Z</time>
      </trkpt>
      <trkpt lat="43.78831" lon="3.80807">
        <ele>224</ele>
        <time>2024-02-23T12:12:18Z</time>
      </trkpt>
      <trkpt lat="43.78829" lon="3.8081">
        <ele>223.8</ele>
        <time>2024-02-23T12:12:19Z</time>
      </trkpt>
      <trkpt lat="43.78829" lon="3.80813">
        <ele>223.4</ele>
        <time>2024-02-23T12:12:20Z</time>
      </trkpt>
      <trkpt lat="43.78827" lon="3.80816">
        <ele>223.2</ele>
        <time>2024-02-23T12:12:21Z</time>
      </trkpt>
      <trkpt lat="43.78825" lon="3.80819">
        <ele>222.8</ele>
        <time>2024-02-23T12:12:22Z</time>
      </trkpt>
      <trkpt lat="43.78823" lon="3.80821">
        <ele>222.6</ele>
        <time>2024-02-23T12:12:23Z</time>
      </trkpt>
      <trkpt lat="43.78821" lon="3.80824">
        <ele>222.2</ele>
        <time>2024-02-23T12:12:24Z</time>
      </trkpt>
      <trkpt lat="43.78819" lon="3.80827">
        <ele>222.2</ele>
        <time>2024-02-23T12:12:25Z</time>
      </trkpt>
      <trkpt lat="43.78817" lon="3.8083">
        <ele>221.8</ele>
        <time>2024-02-23T12:12:26Z</time>
      </trkpt>
      <trkpt lat="43.78815" lon="3.80832">
        <ele>221.6</ele>
        <time>2024-02-23T12:12:27Z</time>
      </trkpt>
      <trkpt lat="43.78813" lon="3.80835">
        <ele>221.4</ele>
        <time>2024-02-23T12:12:28Z</time>
      </trkpt>
      <trkpt lat="43.78812" lon="3.80837">
        <ele>221</ele>
        <time>2024-02-23T12:12:29Z</time>
      </trkpt>
      <trkpt lat="43.78811" lon="3.8084">
        <ele>220.8</ele>
        <time>2024-02-23T12:12:30Z</time>
      </trkpt>
      <trkpt lat="43.78808" lon="3.80843">
        <ele>220.6</ele>
        <time>2024-02-23T12:12:31Z</time>
      </trkpt>
      <trkpt lat="43.78806" lon="3.80845">
        <ele>220.2</ele>
        <time>2024-02-23T12:12:32Z</time>
      </trkpt>
      <trkpt lat="43.78804" lon="3.80847">
        <ele>219.8</ele>
        <time>2024-02-23T12:12:33Z</time>
      </trkpt>
      <trkpt lat="43.78803" lon="3.80849">
        <ele>219.6</ele>
        <time>2024-02-23T12:12:34Z</time>
      </trkpt>
      <trkpt lat="43.788" lon="3.80851">
        <ele>219</ele>
        <time>2024-02-23T12:12:35Z</time>
      </trkpt>
      <trkpt lat="43.78798" lon="3.80853">
        <ele>218.6</ele>
        <time>2024-02-23T12:12:36Z</time>
      </trkpt>
      <trkpt lat="43.78796" lon="3.80856">
        <ele>218.2</ele>
        <time>2024-02-23T12:12:37Z</time>
      </trkpt>
      <trkpt lat="43.78795" lon="3.80859">
        <ele>217.6</ele>
        <time>2024-02-23T12:12:38Z</time>
      </trkpt>
      <trkpt lat="43.78794" lon="3.80861">
        <ele>217.2</ele>
        <time>2024-02-23T12:12:39Z</time>
      </trkpt>
      <trkpt lat="43.78794" lon="3.80861">
        <ele>216.8</ele>
        <time>2024-02-23T12:12:40Z</time>
      </trkpt>
      <trkpt lat="43.78797" lon="3.80864">
        <ele>216.4</ele>
        <time>2024-02-23T12:12:41Z</time>
      </trkpt>
      <trkpt lat="43.78799" lon="3.80863">
        <ele>216</ele>
        <time>2024-02-23T12:12:42Z</time>
      </trkpt>
      <trkpt lat="43.78801" lon="3.80863">
        <ele>215.6</ele>
        <time>2024-02-23T12:12:43Z</time>
      </trkpt>
      <trkpt lat="43.78803" lon="3.80862">
        <ele>215.2</ele>
        <time>2024-02-23T12:12:44Z</time>
      </trkpt>
      <trkpt lat="43.78805" lon="3.80861">
        <ele>214.8</ele>
        <time>2024-02-23T12:12:45Z</time>
      </trkpt>
      <trkpt lat="43.78807" lon="3.80859">
        <ele>214.2</ele>
        <time>2024-02-23T12:12:46Z</time>
      </trkpt>
      <trkpt lat="43.78809" lon="3.80858">
        <ele>213.8</ele>
        <time>2024-02-23T12:12:47Z</time>
      </trkpt>
      <trkpt lat="43.78811" lon="3.80857">
        <ele>213.4</ele>
        <time>2024-02-23T12:12:48Z</time>
      </trkpt>
      <trkpt lat="43.78813" lon="3.80855">
        <ele>213</ele>
        <time>2024-02-23T12:12:49Z</time>
      </trkpt>
      <trkpt lat="43.78815" lon="3.80853">
        <ele>212.6</ele>
        <time>2024-02-23T12:12:50Z</time>
      </trkpt>
      <trkpt lat="43.78818" lon="3.80852">
        <ele>212.4</ele>
        <time>2024-02-23T12:12:51Z</time>
      </trkpt>
      <trkpt lat="43.7882" lon="3.80851">
        <ele>212</ele>
        <time>2024-02-23T12:12:52Z</time>
      </trkpt>
      <trkpt lat="43.78822" lon="3.8085">
        <ele>211.6</ele>
        <time>2024-02-23T12:12:53Z</time>
      </trkpt>
      <trkpt lat="43.78825" lon="3.80849">
        <ele>211.2</ele>
        <time>2024-02-23T12:12:54Z</time>
      </trkpt>
      <trkpt lat="43.78827" lon="3.80848">
        <ele>210.8</ele>
        <time>2024-02-23T12:12:55Z</time>
      </trkpt>
      <trkpt lat="43.78829" lon="3.80849">
        <ele>210.2</ele>
        <time>2024-02-23T12:12:56Z</time>
      </trkpt>
      <trkpt lat="43.78831" lon="3.8085">
        <ele>209.6</ele>
        <time>2024-02-23T12:12:57Z</time>
      </trkpt>
      <trkpt lat="43.78833" lon="3.80851">
        <ele>209.2</ele>
        <time>2024-02-23T12:12:58Z</time>
      </trkpt>
      <trkpt lat="43.78834" lon="3.80853">
        <ele>208.6</ele>
        <time>2024-02-23T12:12:59Z</time>
      </trkpt>
      <trkpt lat="43.78834" lon="3.80853">
        <ele>208</ele>
        <time>2024-02-23T12:13:00Z</time>
      </trkpt>
      <trkpt lat="43.78835" lon="3.80858">
        <ele>207.4</ele>
        <time>2024-02-23T12:13:01Z</time>
      </trkpt>
      <trkpt lat="43.78835" lon="3.80858">
        <ele>207</ele>
        <time>2024-02-23T12:13:02Z</time>
      </trkpt>
      <trkpt lat="43.78833" lon="3.80862">
        <ele>206.4</ele>
        <time>2024-02-23T12:13:03Z</time>
      </trkpt>
      <trkpt lat="43.78833" lon="3.80862">
        <ele>205.8</ele>
        <time>2024-02-23T12:13:04Z</time>
      </trkpt>
      <trkpt lat="43.78833" lon="3.80866">
        <ele>205.4</ele>
        <time>2024-02-23T12:13:05Z</time>
      </trkpt>
      <trkpt lat="43.78831" lon="3.80869">
        <ele>204.8</ele>
        <time>2024-02-23T12:13:06Z</time>
      </trkpt>
      <trkpt lat="43.7883" lon="3.80872">
        <ele>204.4</ele>
        <time>2024-02-23T12:13:07Z</time>
      </trkpt>
      <trkpt lat="43.7883" lon="3.80875">
        <ele>203.8</ele>
        <time>2024-02-23T12:13:08Z</time>
      </trkpt>
      <trkpt lat="43.7883" lon="3.80878">
        <ele>203.4</ele>
        <time>2024-02-23T12:13:09Z</time>
      </trkpt>
      <trkpt lat="43.78829" lon="3.80882">
        <ele>203</ele>
        <time>2024-02-23T12:13:10Z</time>
      </trkpt>
      <trkpt lat="43.78829" lon="3.80884">
        <ele>202.6</ele>
        <time>2024-02-23T12:13:11Z</time>
      </trkpt>
      <trkpt lat="43.78829" lon="3.80884">
        <ele>202</ele>
        <time>2024-02-23T12:13:12Z</time>
      </trkpt>
      <trkpt lat="43.78829" lon="3.80888">
        <ele>201.4</ele>
        <time>2024-02-23T12:13:13Z</time>
      </trkpt>
      <trkpt lat="43.78829" lon="3.80888">
        <ele>201</ele>
        <time>2024-02-23T12:13:14Z</time>
      </trkpt>
      <trkpt lat="43.78829" lon="3.80892">
        <ele>200.6</ele>
        <time>2024-02-23T12:13:15Z</time>
      </trkpt>
      <trkpt lat="43.78829" lon="3.80892">
        <ele>200</ele>
        <time>2024-02-23T12:13:16Z</time>
      </trkpt>
      <trkpt lat="43.78829" lon="3.80896">
        <ele>199.6</ele>
        <time>2024-02-23T12:13:17Z</time>
      </trkpt>
      <trkpt lat="43.78828" lon="3.80898">
        <ele>199.2</ele>
        <time>2024-02-23T12:13:18Z</time>
      </trkpt>
      <trkpt lat="43.78828" lon="3.80898">
        <ele>198.6</ele>
        <time>2024-02-23T12:13:19Z</time>
      </trkpt>
      <trkpt lat="43.78825" lon="3.80903">
        <ele>198.2</ele>
        <time>2024-02-23T12:13:20Z</time>
      </trkpt>
      <trkpt lat="43.78823" lon="3.80907">
        <ele>197.6</ele>
        <time>2024-02-23T12:13:21Z</time>
      </trkpt>
      <trkpt lat="43.78823" lon="3.8091">
        <ele>197.2</ele>
        <time>2024-02-23T12:13:22Z</time>
      </trkpt>
      <trkpt lat="43.78822" lon="3.80914">
        <ele>196.8</ele>
        <time>2024-02-23T12:13:23Z</time>
      </trkpt>
      <trkpt lat="43.78822" lon="3.80917">
        <ele>196.2</ele>
        <time>2024-02-23T12:13:24Z</time>
      </trkpt>
      <trkpt lat="43.78822" lon="3.8092">
        <ele>195.6</ele>
        <time>2024-02-23T12:13:25Z</time>
      </trkpt>
      <trkpt lat="43.78821" lon="3.80923">
        <ele>195</ele>
        <time>2024-02-23T12:13:26Z</time>
      </trkpt>
      <trkpt lat="43.78821" lon="3.80926">
        <ele>194.6</ele>
        <time>2024-02-23T12:13:27Z</time>
      </trkpt>
      <trkpt lat="43.7882" lon="3.80928">
        <ele>194</ele>
        <time>2024-02-23T12:13:28Z</time>
      </trkpt>
      <trkpt lat="43.78819" lon="3.80931">
        <ele>193.8</ele>
        <time>2024-02-23T12:13:29Z</time>
      </trkpt>
      <trkpt lat="43.78818" lon="3.80934">
        <ele>193.4</ele>
        <time>2024-02-23T12:13:30Z</time>
      </trkpt>
      <trkpt lat="43.78817" lon="3.80937">
        <ele>193.2</ele>
        <time>2024-02-23T12:13:31Z</time>
      </trkpt>
      <trkpt lat="43.78815" lon="3.8094">
        <ele>192.8</ele>
        <time>2024-02-23T12:13:32Z</time>
      </trkpt>
      <trkpt lat="43.78813" lon="3.80943">
        <ele>192.4</ele>
        <time>2024-02-23T12:13:33Z</time>
      </trkpt>
      <trkpt lat="43.78812" lon="3.80946">
        <ele>191.8</ele>
        <time>2024-02-23T12:13:34Z</time>
      </trkpt>
      <trkpt lat="43.78813" lon="3.80949">
        <ele>191.4</ele>
        <time>2024-02-23T12:13:35Z</time>
      </trkpt>
      <trkpt lat="43.78814" lon="3.80951">
        <ele>191</ele>
        <time>2024-02-23T12:13:36Z</time>
      </trkpt>
      <trkpt lat="43.78814" lon="3.80955">
        <ele>190.6</ele>
        <time>2024-02-23T12:13:37Z</time>
      </trkpt>
      <trkpt lat="43.78815" lon="3.80957">
        <ele>190.2</ele>
        <time>2024-02-23T12:13:38Z</time>
      </trkpt>
      <trkpt lat="43.78814" lon="3.8096">
        <ele>189.6</ele>
        <time>2024-02-23T12:13:39Z</time>
      </trkpt>
      <trkpt lat="43.78814" lon="3.80963">
        <ele>189</ele>
        <time>2024-02-23T12:13:40Z</time>
      </trkpt>
      <trkpt lat="43.78814" lon="3.80966">
        <ele>188.4</ele>
        <time>2024-02-23T12:13:41Z</time>
      </trkpt>
      <trkpt lat="43.78814" lon="3.8097">
        <ele>187.6</ele>
        <time>2024-02-23T12:13:42Z</time>
      </trkpt>
      <trkpt lat="43.78814" lon="3.8097">
        <ele>187</ele>
        <time>2024-02-23T12:13:43Z</time>
      </trkpt>
      <trkpt lat="43.78812" lon="3.80972">
        <ele>186.4</ele>
        <time>2024-02-23T12:13:44Z</time>
      </trkpt>
      <trkpt lat="43.7881" lon="3.80972">
        <ele>185.8</ele>
        <time>2024-02-23T12:13:45Z</time>
      </trkpt>
      <trkpt lat="43.78808" lon="3.80971">
        <ele>185.2</ele>
        <time>2024-02-23T12:13:46Z</time>
      </trkpt>
      <trkpt lat="43.78808" lon="3.80971">
        <ele>184.8</ele>
        <time>2024-02-23T12:13:47Z</time>
      </trkpt>
      <trkpt lat="43.78805" lon="3.80969">
        <ele>184.2</ele>
        <time>2024-02-23T12:13:48Z</time>
      </trkpt>
      <trkpt lat="43.78805" lon="3.80969">
        <ele>183.6</ele>
        <time>2024-02-23T12:13:49Z</time>
      </trkpt>
      <trkpt lat="43.78802" lon="3.80968">
        <ele>183.2</ele>
        <time>2024-02-23T12:13:50Z</time>
      </trkpt>
      <trkpt lat="43.788" lon="3.80969">
        <ele>182.4</ele>
        <time>2024-02-23T12:13:51Z</time>
      </trkpt>
      <trkpt lat="43.78797" lon="3.8097">
        <ele>181.8</ele>
        <time>2024-02-23T12:13:52Z</time>
      </trkpt>
      <trkpt lat="43.78795" lon="3.80972">
        <ele>181.2</ele>
        <time>2024-02-23T12:13:53Z</time>
      </trkpt>
      <trkpt lat="43.78792" lon="3.80974">
        <ele>180.8</ele>
        <time>2024-02-23T12:13:54Z</time>
      </trkpt>
      <trkpt lat="43.78789" lon="3.80975">
        <ele>180.2</ele>
        <time>2024-02-23T12:13:55Z</time>
      </trkpt>
      <trkpt lat="43.78785" lon="3.80976">
        <ele>179.6</ele>
        <time>2024-02-23T12:13:56Z</time>
      </trkpt>
      <trkpt lat="43.78783" lon="3.80977">
        <ele>179.2</ele>
        <time>2024-02-23T12:13:57Z</time>
      </trkpt>
      <trkpt lat="43.78781" lon="3.80977">
        <ele>178.6</ele>
        <time>2024-02-23T12:13:58Z</time>
      </trkpt>
      <trkpt lat="43.78779" lon="3.80978">
        <ele>178</ele>
        <time>2024-02-23T12:13:59Z</time>
      </trkpt>
      <trkpt lat="43.78775" lon="3.80979">
        <ele>177.6</ele>
        <time>2024-02-23T12:14:00Z</time>
      </trkpt>
      <trkpt lat="43.78773" lon="3.80981">
        <ele>177.4</ele>
        <time>2024-02-23T12:14:01Z</time>
      </trkpt>
      <trkpt lat="43.7877" lon="3.80982">
        <ele>177</ele>
        <time>2024-02-23T12:14:02Z</time>
      </trkpt>
      <trkpt lat="43.78767" lon="3.80983">
        <ele>176.6</ele>
        <time>2024-02-23T12:14:03Z</time>
      </trkpt>
      <trkpt lat="43.78767" lon="3.80983">
        <ele>176.2</ele>
        <time>2024-02-23T12:14:04Z</time>
      </trkpt>
      <trkpt lat="43.78765" lon="3.80985">
        <ele>175.6</ele>
        <time>2024-02-23T12:14:05Z</time>
      </trkpt>
      <trkpt lat="43.78765" lon="3.80985">
        <ele>175.2</ele>
        <time>2024-02-23T12:14:06Z</time>
      </trkpt>
      <trkpt lat="43.78763" lon="3.80986">
        <ele>175</ele>
        <time>2024-02-23T12:14:07Z</time>
      </trkpt>
      <trkpt lat="43.78763" lon="3.80986">
        <ele>174.8</ele>
        <time>2024-02-23T12:14:08Z</time>
      </trkpt>
      <trkpt lat="43.78761" lon="3.80988">
        <ele>174.4</ele>
        <time>2024-02-23T12:14:09Z</time>
      </trkpt>
      <trkpt lat="43.78761" lon="3.80988">
        <ele>174.4</ele>
        <time>2024-02-23T12:14:10Z</time>
      </trkpt>
      <trkpt lat="43.78759" lon="3.80989">
        <ele>174.4</ele>
        <time>2024-02-23T12:14:11Z</time>
      </trkpt>
      <trkpt lat="43.78759" lon="3.80989">
        <ele>174.6</ele>
        <time>2024-02-23T12:14:12Z</time>
      </trkpt>
      <trkpt lat="43.78759" lon="3.80993">
        <ele>174.8</ele>
        <time>2024-02-23T12:14:13Z</time>
      </trkpt>
      <trkpt lat="43.78759" lon="3.80993">
        <ele>175</ele>
        <time>2024-02-23T12:14:14Z</time>
      </trkpt>
      <trkpt lat="43.78758" lon="3.80995">
        <ele>175.2</ele>
        <time>2024-02-23T12:14:15Z</time>
      </trkpt>
      <trkpt lat="43.78758" lon="3.80995">
        <ele>175.6</ele>
        <time>2024-02-23T12:14:16Z</time>
      </trkpt>
      <trkpt lat="43.78757" lon="3.80998">
        <ele>176</ele>
        <time>2024-02-23T12:14:17Z</time>
      </trkpt>
      <trkpt lat="43.78758" lon="3.81001">
        <ele>176.2</ele>
        <time>2024-02-23T12:14:18Z</time>
      </trkpt>
      <trkpt lat="43.78758" lon="3.81003">
        <ele>176.4</ele>
        <time>2024-02-23T12:14:19Z</time>
      </trkpt>
      <trkpt lat="43.78759" lon="3.81006">
        <ele>176.8</ele>
        <time>2024-02-23T12:14:20Z</time>
      </trkpt>
      <trkpt lat="43.78759" lon="3.81009">
        <ele>177</ele>
        <time>2024-02-23T12:14:21Z</time>
      </trkpt>
      <trkpt lat="43.7876" lon="3.81012">
        <ele>177</ele>
        <time>2024-02-23T12:14:22Z</time>
      </trkpt>
      <trkpt lat="43.78761" lon="3.81015">
        <ele>177.2</ele>
        <time>2024-02-23T12:14:23Z</time>
      </trkpt>
      <trkpt lat="43.78763" lon="3.81017">
        <ele>177.2</ele>
        <time>2024-02-23T12:14:24Z</time>
      </trkpt>
      <trkpt lat="43.78764" lon="3.8102">
        <ele>177</ele>
        <time>2024-02-23T12:14:25Z</time>
      </trkpt>
      <trkpt lat="43.78764" lon="3.81023">
        <ele>176.6</ele>
        <time>2024-02-23T12:14:26Z</time>
      </trkpt>
      <trkpt lat="43.78763" lon="3.81026">
        <ele>176.6</ele>
        <time>2024-02-23T12:14:27Z</time>
      </trkpt>
      <trkpt lat="43.78763" lon="3.81028">
        <ele>176.4</ele>
        <time>2024-02-23T12:14:28Z</time>
      </trkpt>
      <trkpt lat="43.78762" lon="3.81031">
        <ele>176.4</ele>
        <time>2024-02-23T12:14:29Z</time>
      </trkpt>
      <trkpt lat="43.78762" lon="3.81034">
        <ele>176.6</ele>
        <time>2024-02-23T12:14:30Z</time>
      </trkpt>
      <trkpt lat="43.78762" lon="3.81036">
        <ele>176.6</ele>
        <time>2024-02-23T12:14:31Z</time>
      </trkpt>
      <trkpt lat="43.78762" lon="3.81036">
        <ele>176.8</ele>
        <time>2024-02-23T12:14:32Z</time>
      </trkpt>
      <trkpt lat="43.78762" lon="3.81041">
        <ele>177</ele>
        <time>2024-02-23T12:14:33Z</time>
      </trkpt>
      <trkpt lat="43.78762" lon="3.81041">
        <ele>177.2</ele>
        <time>2024-02-23T12:14:34Z</time>
      </trkpt>
      <trkpt lat="43.78761" lon="3.81046">
        <ele>177.4</ele>
        <time>2024-02-23T12:14:35Z</time>
      </trkpt>
      <trkpt lat="43.7876" lon="3.81048">
        <ele>177.6</ele>
        <time>2024-02-23T12:14:36Z</time>
      </trkpt>
      <trkpt lat="43.7876" lon="3.8105">
        <ele>177.6</ele>
        <time>2024-02-23T12:14:37Z</time>
      </trkpt>
      <trkpt lat="43.7876" lon="3.8105">
        <ele>177.8</ele>
        <time>2024-02-23T12:14:38Z</time>
      </trkpt>
      <trkpt lat="43.78758" lon="3.81055">
        <ele>177.8</ele>
        <time>2024-02-23T12:14:39Z</time>
      </trkpt>
      <trkpt lat="43.78757" lon="3.81057">
        <ele>178</ele>
        <time>2024-02-23T12:14:40Z</time>
      </trkpt>
      <trkpt lat="43.78755" lon="3.81059">
        <ele>178.2</ele>
        <time>2024-02-23T12:14:41Z</time>
      </trkpt>
      <trkpt lat="43.78754" lon="3.81063">
        <ele>178.2</ele>
        <time>2024-02-23T12:14:42Z</time>
      </trkpt>
      <trkpt lat="43.78753" lon="3.81066">
        <ele>178.4</ele>
        <time>2024-02-23T12:14:43Z</time>
      </trkpt>
      <trkpt lat="43.78751" lon="3.81069">
        <ele>178.6</ele>
        <time>2024-02-23T12:14:44Z</time>
      </trkpt>
      <trkpt lat="43.7875" lon="3.81072">
        <ele>178.6</ele>
        <time>2024-02-23T12:14:45Z</time>
      </trkpt>
      <trkpt lat="43.78749" lon="3.81075">
        <ele>178.8</ele>
        <time>2024-02-23T12:14:46Z</time>
      </trkpt>
      <trkpt lat="43.78747" lon="3.81077">
        <ele>178.8</ele>
        <time>2024-02-23T12:14:47Z</time>
      </trkpt>
      <trkpt lat="43.78746" lon="3.8108">
        <ele>179</ele>
        <time>2024-02-23T12:14:48Z</time>
      </trkpt>
      <trkpt lat="43.78745" lon="3.81082">
        <ele>179</ele>
        <time>2024-02-23T12:14:49Z</time>
      </trkpt>
      <trkpt lat="43.78744" lon="3.81085">
        <ele>179.2</ele>
        <time>2024-02-23T12:14:50Z</time>
      </trkpt>
      <trkpt lat="43.78742" lon="3.81087">
        <ele>179.2</ele>
        <time>2024-02-23T12:14:51Z</time>
      </trkpt>
      <trkpt lat="43.78741" lon="3.8109">
        <ele>179.2</ele>
        <time>2024-02-23T12:14:52Z</time>
      </trkpt>
      <trkpt lat="43.78739" lon="3.81092">
        <ele>179.4</ele>
        <time>2024-02-23T12:14:53Z</time>
      </trkpt>
      <trkpt lat="43.78737" lon="3.81094">
        <ele>179.4</ele>
        <time>2024-02-23T12:14:54Z</time>
      </trkpt>
      <trkpt lat="43.78737" lon="3.81097">
        <ele>179.4</ele>
        <time>2024-02-23T12:14:55Z</time>
      </trkpt>
      <trkpt lat="43.78735" lon="3.81099">
        <ele>179.6</ele>
        <time>2024-02-23T12:14:56Z</time>
      </trkpt>
      <trkpt lat="43.78734" lon="3.81101">
        <ele>179.8</ele>
        <time>2024-02-23T12:14:57Z</time>
      </trkpt>
      <trkpt lat="43.78734" lon="3.81101">
        <ele>179.8</ele>
        <time>2024-02-23T12:14:58Z</time>
      </trkpt>
      <trkpt lat="43.78732" lon="3.81105">
        <ele>180</ele>
        <time>2024-02-23T12:14:59Z</time>
      </trkpt>
      <trkpt lat="43.7873" lon="3.81108">
        <ele>180.2</ele>
        <time>2024-02-23T12:15:00Z</time>
      </trkpt>
      <trkpt lat="43.7873" lon="3.81112">
        <ele>180.2</ele>
        <time>2024-02-23T12:15:01Z</time>
      </trkpt>
      <trkpt lat="43.7873" lon="3.81117">
        <ele>180.4</ele>
        <time>2024-02-23T12:15:02Z</time>
      </trkpt>
      <trkpt lat="43.78729" lon="3.8112">
        <ele>180.6</ele>
        <time>2024-02-23T12:15:03Z</time>
      </trkpt>
      <trkpt lat="43.78728" lon="3.81123">
        <ele>180.6</ele>
        <time>2024-02-23T12:15:04Z</time>
      </trkpt>
      <trkpt lat="43.78727" lon="3.81127">
        <ele>180.6</ele>
        <time>2024-02-23T12:15:05Z</time>
      </trkpt>
      <trkpt lat="43.78727" lon="3.8113">
        <ele>180.6</ele>
        <time>2024-02-23T12:15:06Z</time>
      </trkpt>
      <trkpt lat="43.78727" lon="3.81134">
        <ele>180.4</ele>
        <time>2024-02-23T12:15:07Z</time>
      </trkpt>
      <trkpt lat="43.78727" lon="3.81139">
        <ele>180.2</ele>
        <time>2024-02-23T12:15:08Z</time>
      </trkpt>
      <trkpt lat="43.78727" lon="3.81142">
        <ele>180.2</ele>
        <time>2024-02-23T12:15:09Z</time>
      </trkpt>
      <trkpt lat="43.78727" lon="3.81146">
        <ele>180</ele>
        <time>2024-02-23T12:15:10Z</time>
      </trkpt>
      <trkpt lat="43.78727" lon="3.8115">
        <ele>179.6</ele>
        <time>2024-02-23T12:15:11Z</time>
      </trkpt>
      <trkpt lat="43.78728" lon="3.81153">
        <ele>179.4</ele>
        <time>2024-02-23T12:15:12Z</time>
      </trkpt>
      <trkpt lat="43.78727" lon="3.81156">
        <ele>179.4</ele>
        <time>2024-02-23T12:15:13Z</time>
      </trkpt>
      <trkpt lat="43.78727" lon="3.8116">
        <ele>179.4</ele>
        <time>2024-02-23T12:15:14Z</time>
      </trkpt>
      <trkpt lat="43.78726" lon="3.81163">
        <ele>179.4</ele>
        <time>2024-02-23T12:15:15Z</time>
      </trkpt>
      <trkpt lat="43.78725" lon="3.81166">
        <ele>179.4</ele>
        <time>2024-02-23T12:15:16Z</time>
      </trkpt>
      <trkpt lat="43.78724" lon="3.81169">
        <ele>179.6</ele>
        <time>2024-02-23T12:15:17Z</time>
      </trkpt>
      <trkpt lat="43.78723" lon="3.81172">
        <ele>179.4</ele>
        <time>2024-02-23T12:15:18Z</time>
      </trkpt>
      <trkpt lat="43.78722" lon="3.81176">
        <ele>179.6</ele>
        <time>2024-02-23T12:15:19Z</time>
      </trkpt>
      <trkpt lat="43.78721" lon="3.81179">
        <ele>179.6</ele>
        <time>2024-02-23T12:15:20Z</time>
      </trkpt>
      <trkpt lat="43.7872" lon="3.81183">
        <ele>179.6</ele>
        <time>2024-02-23T12:15:21Z</time>
      </trkpt>
      <trkpt lat="43.7872" lon="3.81186">
        <ele>179.6</ele>
        <time>2024-02-23T12:15:22Z</time>
      </trkpt>
      <trkpt lat="43.78719" lon="3.8119">
        <ele>179.6</ele>
        <time>2024-02-23T12:15:23Z</time>
      </trkpt>
      <trkpt lat="43.78718" lon="3.81194">
        <ele>179.6</ele>
        <time>2024-02-23T12:15:24Z</time>
      </trkpt>
      <trkpt lat="43.78717" lon="3.81197">
        <ele>179.6</ele>
        <time>2024-02-23T12:15:25Z</time>
      </trkpt>
      <trkpt lat="43.78716" lon="3.812">
        <ele>179.4</ele>
        <time>2024-02-23T12:15:26Z</time>
      </trkpt>
      <trkpt lat="43.78714" lon="3.81203">
        <ele>179.4</ele>
        <time>2024-02-23T12:15:27Z</time>
      </trkpt>
      <trkpt lat="43.78713" lon="3.81206">
        <ele>179.2</ele>
        <time>2024-02-23T12:15:28Z</time>
      </trkpt>
      <trkpt lat="43.78711" lon="3.81209">
        <ele>179.2</ele>
        <time>2024-02-23T12:15:29Z</time>
      </trkpt>
      <trkpt lat="43.7871" lon="3.81212">
        <ele>179</ele>
        <time>2024-02-23T12:15:30Z</time>
      </trkpt>
      <trkpt lat="43.78709" lon="3.81215">
        <ele>179</ele>
        <time>2024-02-23T12:15:31Z</time>
      </trkpt>
      <trkpt lat="43.78707" lon="3.81218">
        <ele>178.8</ele>
        <time>2024-02-23T12:15:32Z</time>
      </trkpt>
      <trkpt lat="43.78705" lon="3.8122">
        <ele>179</ele>
        <time>2024-02-23T12:15:33Z</time>
      </trkpt>
      <trkpt lat="43.78703" lon="3.81223">
        <ele>179</ele>
        <time>2024-02-23T12:15:34Z</time>
      </trkpt>
      <trkpt lat="43.78703" lon="3.81223">
        <ele>177.8</ele>
        <time>2024-02-23T12:16:12Z</time>
      </trkpt>
      <trkpt lat="43.78703" lon="3.81223">
        <ele>178</ele>
        <time>2024-02-23T12:16:13Z</time>
      </trkpt>
      <trkpt lat="43.78703" lon="3.81223">
        <ele>178</ele>
        <time>2024-02-23T12:16:14Z</time>
      </trkpt>
      <trkpt lat="43.78703" lon="3.81223">
        <ele>178.2</ele>
        <time>2024-02-23T12:16:15Z</time>
      </trkpt>
      <trkpt lat="43.78697" lon="3.81234">
        <ele>178.4</ele>
        <time>2024-02-23T12:16:16Z</time>
      </trkpt>
      <trkpt lat="43.78697" lon="3.81239">
        <ele>178.6</ele>
        <time>2024-02-23T12:16:17Z</time>
      </trkpt>
      <trkpt lat="43.78696" lon="3.81243">
        <ele>178.8</ele>
        <time>2024-02-23T12:16:18Z</time>
      </trkpt>
      <trkpt lat="43.78694" lon="3.81247">
        <ele>179</ele>
        <time>2024-02-23T12:16:19Z</time>
      </trkpt>
      <trkpt lat="43.78693" lon="3.81252">
        <ele>179</ele>
        <time>2024-02-23T12:16:20Z</time>
      </trkpt>
      <trkpt lat="43.78692" lon="3.81256">
        <ele>179.2</ele>
        <time>2024-02-23T12:16:21Z</time>
      </trkpt>
      <trkpt lat="43.78692" lon="3.8126">
        <ele>179.2</ele>
        <time>2024-02-23T12:16:22Z</time>
      </trkpt>
      <trkpt lat="43.7869" lon="3.81264">
        <ele>179.2</ele>
        <time>2024-02-23T12:16:23Z</time>
      </trkpt>
      <trkpt lat="43.7869" lon="3.81267">
        <ele>179.2</ele>
        <time>2024-02-23T12:16:24Z</time>
      </trkpt>
      <trkpt lat="43.78689" lon="3.8127">
        <ele>179.4</ele>
        <time>2024-02-23T12:16:25Z</time>
      </trkpt>
      <trkpt lat="43.78689" lon="3.81274">
        <ele>179.6</ele>
        <time>2024-02-23T12:16:26Z</time>
      </trkpt>
      <trkpt lat="43.78688" lon="3.81277">
        <ele>179.8</ele>
        <time>2024-02-23T12:16:27Z</time>
      </trkpt>
      <trkpt lat="43.78687" lon="3.8128">
        <ele>179.8</ele>
        <time>2024-02-23T12:16:28Z</time>
      </trkpt>
      <trkpt lat="43.78685" lon="3.81283">
        <ele>180</ele>
        <time>2024-02-23T12:16:29Z</time>
      </trkpt>
      <trkpt lat="43.78684" lon="3.81287">
        <ele>180</ele>
        <time>2024-02-23T12:16:30Z</time>
      </trkpt>
      <trkpt lat="43.78682" lon="3.81291">
        <ele>180</ele>
        <time>2024-02-23T12:16:31Z</time>
      </trkpt>
      <trkpt lat="43.78681" lon="3.81295">
        <ele>180</ele>
        <time>2024-02-23T12:16:32Z</time>
      </trkpt>
      <trkpt lat="43.78681" lon="3.81298">
        <ele>180</ele>
        <time>2024-02-23T12:16:33Z</time>
      </trkpt>
      <trkpt lat="43.7868" lon="3.81302">
        <ele>180</ele>
        <time>2024-02-23T12:16:34Z</time>
      </trkpt>
      <trkpt lat="43.7868" lon="3.81306">
        <ele>179.8</ele>
        <time>2024-02-23T12:16:35Z</time>
      </trkpt>
      <trkpt lat="43.78679" lon="3.81309">
        <ele>179.8</ele>
        <time>2024-02-23T12:16:36Z</time>
      </trkpt>
      <trkpt lat="43.78677" lon="3.81313">
        <ele>179.8</ele>
        <time>2024-02-23T12:16:37Z</time>
      </trkpt>
      <trkpt lat="43.78677" lon="3.81316">
        <ele>179.8</ele>
        <time>2024-02-23T12:16:38Z</time>
      </trkpt>
      <trkpt lat="43.78675" lon="3.8132">
        <ele>179.8</ele>
        <time>2024-02-23T12:16:39Z</time>
      </trkpt>
      <trkpt lat="43.78674" lon="3.81324">
        <ele>179.8</ele>
        <time>2024-02-23T12:16:40Z</time>
      </trkpt>
      <trkpt lat="43.78672" lon="3.81327">
        <ele>179.8</ele>
        <time>2024-02-23T12:16:41Z</time>
      </trkpt>
      <trkpt lat="43.78671" lon="3.81331">
        <ele>179.8</ele>
        <time>2024-02-23T12:16:42Z</time>
      </trkpt>
      <trkpt lat="43.78669" lon="3.81334">
        <ele>179.8</ele>
        <time>2024-02-23T12:16:43Z</time>
      </trkpt>
      <trkpt lat="43.78667" lon="3.81337">
        <ele>179.8</ele>
        <time>2024-02-23T12:16:44Z</time>
      </trkpt>
      <trkpt lat="43.78665" lon="3.81341">
        <ele>179.8</ele>
        <time>2024-02-23T12:16:45Z</time>
      </trkpt>
      <trkpt lat="43.78664" lon="3.81344">
        <ele>179.8</ele>
        <time>2024-02-23T12:16:46Z</time>
      </trkpt>
      <trkpt lat="43.78662" lon="3.81348">
        <ele>179.8</ele>
        <time>2024-02-23T12:16:47Z</time>
      </trkpt>
      <trkpt lat="43.78661" lon="3.81351">
        <ele>179.8</ele>
        <time>2024-02-23T12:16:48Z</time>
      </trkpt>
      <trkpt lat="43.78659" lon="3.81354">
        <ele>179.8</ele>
        <time>2024-02-23T12:16:49Z</time>
      </trkpt>
      <trkpt lat="43.78657" lon="3.81356">
        <ele>179.8</ele>
        <time>2024-02-23T12:16:50Z</time>
      </trkpt>
      <trkpt lat="43.78655" lon="3.81358">
        <ele>179.8</ele>
        <time>2024-02-23T12:16:51Z</time>
      </trkpt>
      <trkpt lat="43.78653" lon="3.8136">
        <ele>179.8</ele>
        <time>2024-02-23T12:16:52Z</time>
      </trkpt>
      <trkpt lat="43.78652" lon="3.81363">
        <ele>179.8</ele>
        <time>2024-02-23T12:16:53Z</time>
      </trkpt>
      <trkpt lat="43.7865" lon="3.81366">
        <ele>180</ele>
        <time>2024-02-23T12:16:54Z</time>
      </trkpt>
      <trkpt lat="43.78649" lon="3.81368">
        <ele>180</ele>
        <time>2024-02-23T12:16:55Z</time>
      </trkpt>
      <trkpt lat="43.78648" lon="3.81371">
        <ele>180</ele>
        <time>2024-02-23T12:16:56Z</time>
      </trkpt>
      <trkpt lat="43.78646" lon="3.81374">
        <ele>180</ele>
        <time>2024-02-23T12:16:57Z</time>
      </trkpt>
      <trkpt lat="43.78645" lon="3.81377">
        <ele>180</ele>
        <time>2024-02-23T12:16:58Z</time>
      </trkpt>
      <trkpt lat="43.78645" lon="3.8138">
        <ele>180</ele>
        <time>2024-02-23T12:16:59Z</time>
      </trkpt>
      <trkpt lat="43.78644" lon="3.81383">
        <ele>180</ele>
        <time>2024-02-23T12:17:00Z</time>
      </trkpt>
      <trkpt lat="43.78642" lon="3.81386">
        <ele>180</ele>
        <time>2024-02-23T12:17:01Z</time>
      </trkpt>
      <trkpt lat="43.7864" lon="3.81389">
        <ele>180.2</ele>
        <time>2024-02-23T12:17:02Z</time>
      </trkpt>
      <trkpt lat="43.78639" lon="3.81392">
        <ele>180.2</ele>
        <time>2024-02-23T12:17:03Z</time>
      </trkpt>
      <trkpt lat="43.78638" lon="3.81395">
        <ele>180.4</ele>
        <time>2024-02-23T12:17:04Z</time>
      </trkpt>
      <trkpt lat="43.78637" lon="3.81398">
        <ele>180.4</ele>
        <time>2024-02-23T12:17:05Z</time>
      </trkpt>
      <trkpt lat="43.78636" lon="3.81402">
        <ele>180.4</ele>
        <time>2024-02-23T12:17:06Z</time>
      </trkpt>
      <trkpt lat="43.78636" lon="3.81405">
        <ele>180.4</ele>
        <time>2024-02-23T12:17:07Z</time>
      </trkpt>
      <trkpt lat="43.78634" lon="3.81408">
        <ele>180.6</ele>
        <time>2024-02-23T12:17:08Z</time>
      </trkpt>
      <trkpt lat="43.78632" lon="3.8141">
        <ele>180.6</ele>
        <time>2024-02-23T12:17:09Z</time>
      </trkpt>
      <trkpt lat="43.7863" lon="3.81411">
        <ele>180.8</ele>
        <time>2024-02-23T12:17:10Z</time>
      </trkpt>
      <trkpt lat="43.78629" lon="3.81413">
        <ele>181</ele>
        <time>2024-02-23T12:17:11Z</time>
      </trkpt>
      <trkpt lat="43.78627" lon="3.81415">
        <ele>181</ele>
        <time>2024-02-23T12:17:12Z</time>
      </trkpt>
      <trkpt lat="43.78626" lon="3.81418">
        <ele>181.2</ele>
        <time>2024-02-23T12:17:13Z</time>
      </trkpt>
      <trkpt lat="43.78624" lon="3.8142">
        <ele>181.4</ele>
        <time>2024-02-23T12:17:14Z</time>
      </trkpt>
      <trkpt lat="43.78623" lon="3.81423">
        <ele>181.4</ele>
        <time>2024-02-23T12:17:15Z</time>
      </trkpt>
      <trkpt lat="43.78623" lon="3.81426">
        <ele>181.4</ele>
        <time>2024-02-23T12:17:16Z</time>
      </trkpt>
      <trkpt lat="43.78622" lon="3.81428">
        <ele>181.4</ele>
        <time>2024-02-23T12:17:17Z</time>
      </trkpt>
      <trkpt lat="43.7862" lon="3.81431">
        <ele>181.4</ele>
        <time>2024-02-23T12:17:18Z</time>
      </trkpt>
      <trkpt lat="43.78619" lon="3.81434">
        <ele>181.4</ele>
        <time>2024-02-23T12:17:19Z</time>
      </trkpt>
      <trkpt lat="43.78617" lon="3.81435">
        <ele>181.4</ele>
        <time>2024-02-23T12:17:20Z</time>
      </trkpt>
      <trkpt lat="43.78615" lon="3.81437">
        <ele>181.4</ele>
        <time>2024-02-23T12:17:21Z</time>
      </trkpt>
      <trkpt lat="43.78613" lon="3.81438">
        <ele>181.6</ele>
        <time>2024-02-23T12:17:22Z</time>
      </trkpt>
      <trkpt lat="43.78611" lon="3.81441">
        <ele>181.8</ele>
        <time>2024-02-23T12:17:23Z</time>
      </trkpt>
      <trkpt lat="43.7861" lon="3.81443">
        <ele>181.8</ele>
        <time>2024-02-23T12:17:24Z</time>
      </trkpt>
      <trkpt lat="43.78609" lon="3.81446">
        <ele>182</ele>
        <time>2024-02-23T12:17:25Z</time>
      </trkpt>
      <trkpt lat="43.78608" lon="3.81449">
        <ele>182.2</ele>
        <time>2024-02-23T12:17:26Z</time>
      </trkpt>
      <trkpt lat="43.78607" lon="3.81451">
        <ele>182.4</ele>
        <time>2024-02-23T12:17:27Z</time>
      </trkpt>
      <trkpt lat="43.78606" lon="3.81454">
        <ele>182.6</ele>
        <time>2024-02-23T12:17:28Z</time>
      </trkpt>
      <trkpt lat="43.78604" lon="3.81457">
        <ele>182.6</ele>
        <time>2024-02-23T12:17:29Z</time>
      </trkpt>
      <trkpt lat="43.78603" lon="3.81461">
        <ele>182.8</ele>
        <time>2024-02-23T12:17:30Z</time>
      </trkpt>
      <trkpt lat="43.78603" lon="3.81464">
        <ele>182.6</ele>
        <time>2024-02-23T12:17:31Z</time>
      </trkpt>
      <trkpt lat="43.78604" lon="3.81467">
        <ele>182.6</ele>
        <time>2024-02-23T12:17:32Z</time>
      </trkpt>
      <trkpt lat="43.78606" lon="3.81471">
        <ele>182.4</ele>
        <time>2024-02-23T12:17:33Z</time>
      </trkpt>
      <trkpt lat="43.78607" lon="3.81474">
        <ele>182.2</ele>
        <time>2024-02-23T12:17:34Z</time>
      </trkpt>
      <trkpt lat="43.78608" lon="3.81478">
        <ele>182</ele>
        <time>2024-02-23T12:17:35Z</time>
      </trkpt>
      <trkpt lat="43.78609" lon="3.81484">
        <ele>181.6</ele>
        <time>2024-02-23T12:17:36Z</time>
      </trkpt>
      <trkpt lat="43.78609" lon="3.81488">
        <ele>181.2</ele>
        <time>2024-02-23T12:17:37Z</time>
      </trkpt>
      <trkpt lat="43.78608" lon="3.81492">
        <ele>180.8</ele>
        <time>2024-02-23T12:17:38Z</time>
      </trkpt>
      <trkpt lat="43.78607" lon="3.81497">
        <ele>180.6</ele>
        <time>2024-02-23T12:17:39Z</time>
      </trkpt>
      <trkpt lat="43.78606" lon="3.81501">
        <ele>180.2</ele>
        <time>2024-02-23T12:17:40Z</time>
      </trkpt>
      <trkpt lat="43.78605" lon="3.81505">
        <ele>180</ele>
        <time>2024-02-23T12:17:41Z</time>
      </trkpt>
      <trkpt lat="43.78603" lon="3.81509">
        <ele>180</ele>
        <time>2024-02-23T12:17:42Z</time>
      </trkpt>
      <trkpt lat="43.78601" lon="3.81512">
        <ele>179.8</ele>
        <time>2024-02-23T12:17:43Z</time>
      </trkpt>
      <trkpt lat="43.78598" lon="3.81515">
        <ele>179.6</ele>
        <time>2024-02-23T12:17:44Z</time>
      </trkpt>
      <trkpt lat="43.78598" lon="3.81518">
        <ele>179.6</ele>
        <time>2024-02-23T12:17:45Z</time>
      </trkpt>
      <trkpt lat="43.78597" lon="3.81522">
        <ele>179.4</ele>
        <time>2024-02-23T12:17:46Z</time>
      </trkpt>
      <trkpt lat="43.78595" lon="3.81525">
        <ele>179.4</ele>
        <time>2024-02-23T12:17:47Z</time>
      </trkpt>
      <trkpt lat="43.78594" lon="3.81529">
        <ele>179.4</ele>
        <time>2024-02-23T12:17:48Z</time>
      </trkpt>
      <trkpt lat="43.78594" lon="3.81532">
        <ele>179.2</ele>
        <time>2024-02-23T12:17:49Z</time>
      </trkpt>
      <trkpt lat="43.78593" lon="3.81536">
        <ele>179</ele>
        <time>2024-02-23T12:17:50Z</time>
      </trkpt>
      <trkpt lat="43.78593" lon="3.8154">
        <ele>179</ele>
        <time>2024-02-23T12:17:51Z</time>
      </trkpt>
      <trkpt lat="43.78592" lon="3.81544">
        <ele>179</ele>
        <time>2024-02-23T12:17:52Z</time>
      </trkpt>
      <trkpt lat="43.78591" lon="3.81548">
        <ele>179</ele>
        <time>2024-02-23T12:17:53Z</time>
      </trkpt>
      <trkpt lat="43.7859" lon="3.81551">
        <ele>179</ele>
        <time>2024-02-23T12:17:54Z</time>
      </trkpt>
      <trkpt lat="43.78589" lon="3.81555">
        <ele>179</ele>
        <time>2024-02-23T12:17:55Z</time>
      </trkpt>
      <trkpt lat="43.78589" lon="3.81559">
        <ele>179</ele>
        <time>2024-02-23T12:17:56Z</time>
      </trkpt>
      <trkpt lat="43.78588" lon="3.81563">
        <ele>179</ele>
        <time>2024-02-23T12:17:57Z</time>
      </trkpt>
      <trkpt lat="43.78587" lon="3.81566">
        <ele>178.8</ele>
        <time>2024-02-23T12:17:58Z</time>
      </trkpt>
      <trkpt lat="43.78585" lon="3.81569">
        <ele>178.8</ele>
        <time>2024-02-23T12:17:59Z</time>
      </trkpt>
      <trkpt lat="43.78585" lon="3.81572">
        <ele>178.8</ele>
        <time>2024-02-23T12:18:00Z</time>
      </trkpt>
      <trkpt lat="43.78583" lon="3.81575">
        <ele>178.8</ele>
        <time>2024-02-23T12:18:01Z</time>
      </trkpt>
      <trkpt lat="43.78582" lon="3.81577">
        <ele>178.6</ele>
        <time>2024-02-23T12:18:02Z</time>
      </trkpt>
      <trkpt lat="43.78581" lon="3.8158">
        <ele>178.6</ele>
        <time>2024-02-23T12:18:03Z</time>
      </trkpt>
      <trkpt lat="43.78579" lon="3.81582">
        <ele>178.6</ele>
        <time>2024-02-23T12:18:04Z</time>
      </trkpt>
      <trkpt lat="43.78577" lon="3.81584">
        <ele>178.6</ele>
        <time>2024-02-23T12:18:05Z</time>
      </trkpt>
      <trkpt lat="43.78575" lon="3.81586">
        <ele>178.8</ele>
        <time>2024-02-23T12:18:06Z</time>
      </trkpt>
      <trkpt lat="43.78573" lon="3.81588">
        <ele>178.8</ele>
        <time>2024-02-23T12:18:07Z</time>
      </trkpt>
      <trkpt lat="43.78571" lon="3.8159">
        <ele>179</ele>
        <time>2024-02-23T12:18:08Z</time>
      </trkpt>
      <trkpt lat="43.78569" lon="3.81592">
        <ele>179</ele>
        <time>2024-02-23T12:18:09Z</time>
      </trkpt>
      <trkpt lat="43.78567" lon="3.81594">
        <ele>179.2</ele>
        <time>2024-02-23T12:18:10Z</time>
      </trkpt>
      <trkpt lat="43.78565" lon="3.81597">
        <ele>179.2</ele>
        <time>2024-02-23T12:18:11Z</time>
      </trkpt>
      <trkpt lat="43.78563" lon="3.81599">
        <ele>179.4</ele>
        <time>2024-02-23T12:18:12Z</time>
      </trkpt>
      <trkpt lat="43.78561" lon="3.81602">
        <ele>179.4</ele>
        <time>2024-02-23T12:18:13Z</time>
      </trkpt>
      <trkpt lat="43.78559" lon="3.81604">
        <ele>179.2</ele>
        <time>2024-02-23T12:18:14Z</time>
      </trkpt>
      <trkpt lat="43.78557" lon="3.81606">
        <ele>179.4</ele>
        <time>2024-02-23T12:18:15Z</time>
      </trkpt>
      <trkpt lat="43.78554" lon="3.81608">
        <ele>179.4</ele>
        <time>2024-02-23T12:18:16Z</time>
      </trkpt>
      <trkpt lat="43.78552" lon="3.8161">
        <ele>179.4</ele>
        <time>2024-02-23T12:18:17Z</time>
      </trkpt>
      <trkpt lat="43.78551" lon="3.81612">
        <ele>179.6</ele>
        <time>2024-02-23T12:18:18Z</time>
      </trkpt>
      <trkpt lat="43.78549" lon="3.81613">
        <ele>180</ele>
        <time>2024-02-23T12:18:19Z</time>
      </trkpt>
      <trkpt lat="43.78546" lon="3.81614">
        <ele>180</ele>
        <time>2024-02-23T12:18:20Z</time>
      </trkpt>
      <trkpt lat="43.78543" lon="3.81615">
        <ele>180.2</ele>
        <time>2024-02-23T12:18:21Z</time>
      </trkpt>
      <trkpt lat="43.78541" lon="3.81617">
        <ele>180.4</ele>
        <time>2024-02-23T12:18:22Z</time>
      </trkpt>
      <trkpt lat="43.78539" lon="3.81618">
        <ele>180.6</ele>
        <time>2024-02-23T12:18:23Z</time>
      </trkpt>
      <trkpt lat="43.78537" lon="3.81619">
        <ele>180.8</ele>
        <time>2024-02-23T12:18:24Z</time>
      </trkpt>
      <trkpt lat="43.78534" lon="3.8162">
        <ele>181</ele>
        <time>2024-02-23T12:18:25Z</time>
      </trkpt>
      <trkpt lat="43.78532" lon="3.81622">
        <ele>181</ele>
        <time>2024-02-23T12:18:26Z</time>
      </trkpt>
      <trkpt lat="43.78529" lon="3.81623">
        <ele>181.2</ele>
        <time>2024-02-23T12:18:27Z</time>
      </trkpt>
      <trkpt lat="43.78527" lon="3.81624">
        <ele>181.2</ele>
        <time>2024-02-23T12:18:28Z</time>
      </trkpt>
      <trkpt lat="43.78525" lon="3.81625">
        <ele>181.2</ele>
        <time>2024-02-23T12:18:29Z</time>
      </trkpt>
      <trkpt lat="43.78522" lon="3.81626">
        <ele>181.2</ele>
        <time>2024-02-23T12:18:30Z</time>
      </trkpt>
      <trkpt lat="43.78519" lon="3.81628">
        <ele>181</ele>
        <time>2024-02-23T12:18:31Z</time>
      </trkpt>
      <trkpt lat="43.78517" lon="3.8163">
        <ele>181</ele>
        <time>2024-02-23T12:18:32Z</time>
      </trkpt>
      <trkpt lat="43.78514" lon="3.81632">
        <ele>181</ele>
        <time>2024-02-23T12:18:33Z</time>
      </trkpt>
      <trkpt lat="43.7851" lon="3.81633">
        <ele>181</ele>
        <time>2024-02-23T12:18:34Z</time>
      </trkpt>
      <trkpt lat="43.78509" lon="3.81633">
        <ele>180.8</ele>
        <time>2024-02-23T12:18:35Z</time>
      </trkpt>
      <trkpt lat="43.78507" lon="3.81634">
        <ele>180.8</ele>
        <time>2024-02-23T12:18:36Z</time>
      </trkpt>
      <trkpt lat="43.78504" lon="3.81635">
        <ele>180.6</ele>
        <time>2024-02-23T12:18:37Z</time>
      </trkpt>
      <trkpt lat="43.78502" lon="3.81635">
        <ele>180.6</ele>
        <time>2024-02-23T12:18:38Z</time>
      </trkpt>
      <trkpt lat="43.78502" lon="3.81635">
        <ele>180.4</ele>
        <time>2024-02-23T12:18:39Z</time>
      </trkpt>
      <trkpt lat="43.785" lon="3.81639">
        <ele>180.2</ele>
        <time>2024-02-23T12:18:40Z</time>
      </trkpt>
      <trkpt lat="43.785" lon="3.81642">
        <ele>180.2</ele>
        <time>2024-02-23T12:18:41Z</time>
      </trkpt>
      <trkpt lat="43.785" lon="3.81644">
        <ele>180.2</ele>
        <time>2024-02-23T12:18:42Z</time>
      </trkpt>
      <trkpt lat="43.785" lon="3.81644">
        <ele>180.4</ele>
        <time>2024-02-23T12:18:43Z</time>
      </trkpt>
      <trkpt lat="43.78501" lon="3.81649">
        <ele>180.6</ele>
        <time>2024-02-23T12:18:44Z</time>
      </trkpt>
      <trkpt lat="43.78503" lon="3.81651">
        <ele>181</ele>
        <time>2024-02-23T12:18:45Z</time>
      </trkpt>
      <trkpt lat="43.78504" lon="3.81653">
        <ele>181</ele>
        <time>2024-02-23T12:18:46Z</time>
      </trkpt>
      <trkpt lat="43.78505" lon="3.81656">
        <ele>181</ele>
        <time>2024-02-23T12:18:47Z</time>
      </trkpt>
      <trkpt lat="43.78507" lon="3.81657">
        <ele>181</ele>
        <time>2024-02-23T12:18:48Z</time>
      </trkpt>
      <trkpt lat="43.78507" lon="3.81657">
        <ele>181.2</ele>
        <time>2024-02-23T12:18:49Z</time>
      </trkpt>
      <trkpt lat="43.78509" lon="3.8166">
        <ele>181.4</ele>
        <time>2024-02-23T12:18:50Z</time>
      </trkpt>
      <trkpt lat="43.78511" lon="3.81661">
        <ele>181.6</ele>
        <time>2024-02-23T12:18:51Z</time>
      </trkpt>
      <trkpt lat="43.78513" lon="3.81663">
        <ele>181.6</ele>
        <time>2024-02-23T12:18:52Z</time>
      </trkpt>
      <trkpt lat="43.78514" lon="3.81665">
        <ele>181.8</ele>
        <time>2024-02-23T12:18:53Z</time>
      </trkpt>
      <trkpt lat="43.78515" lon="3.81667">
        <ele>182</ele>
        <time>2024-02-23T12:18:54Z</time>
      </trkpt>
      <trkpt lat="43.78517" lon="3.8167">
        <ele>182.2</ele>
        <time>2024-02-23T12:18:55Z</time>
      </trkpt>
      <trkpt lat="43.78518" lon="3.81672">
        <ele>182.4</ele>
        <time>2024-02-23T12:18:56Z</time>
      </trkpt>
      <trkpt lat="43.78519" lon="3.81676">
        <ele>182.8</ele>
        <time>2024-02-23T12:18:57Z</time>
      </trkpt>
      <trkpt lat="43.7852" lon="3.81679">
        <ele>183</ele>
        <time>2024-02-23T12:18:58Z</time>
      </trkpt>
      <trkpt lat="43.78521" lon="3.81682">
        <ele>183.2</ele>
        <time>2024-02-23T12:18:59Z</time>
      </trkpt>
      <trkpt lat="43.78522" lon="3.81685">
        <ele>183.6</ele>
        <time>2024-02-23T12:19:00Z</time>
      </trkpt>
      <trkpt lat="43.78523" lon="3.81688">
        <ele>183.8</ele>
        <time>2024-02-23T12:19:01Z</time>
      </trkpt>
      <trkpt lat="43.78523" lon="3.81688">
        <ele>184</ele>
        <time>2024-02-23T12:19:02Z</time>
      </trkpt>
      <trkpt lat="43.78524" lon="3.81692">
        <ele>184.2</ele>
        <time>2024-02-23T12:19:03Z</time>
      </trkpt>
      <trkpt lat="43.78524" lon="3.81692">
        <ele>184.4</ele>
        <time>2024-02-23T12:19:04Z</time>
      </trkpt>
      <trkpt lat="43.78525" lon="3.81697">
        <ele>184.8</ele>
        <time>2024-02-23T12:19:05Z</time>
      </trkpt>
      <trkpt lat="43.78524" lon="3.817">
        <ele>185</ele>
        <time>2024-02-23T12:19:06Z</time>
      </trkpt>
      <trkpt lat="43.78523" lon="3.81702">
        <ele>185</ele>
        <time>2024-02-23T12:19:07Z</time>
      </trkpt>
      <trkpt lat="43.78523" lon="3.81702">
        <ele>185.2</ele>
        <time>2024-02-23T12:19:08Z</time>
      </trkpt>
      <trkpt lat="43.78523" lon="3.81707">
        <ele>185.2</ele>
        <time>2024-02-23T12:19:09Z</time>
      </trkpt>
      <trkpt lat="43.78521" lon="3.8171">
        <ele>185.4</ele>
        <time>2024-02-23T12:19:10Z</time>
      </trkpt>
      <trkpt lat="43.7852" lon="3.81714">
        <ele>185.4</ele>
        <time>2024-02-23T12:19:11Z</time>
      </trkpt>
      <trkpt lat="43.78519" lon="3.81717">
        <ele>185.4</ele>
        <time>2024-02-23T12:19:12Z</time>
      </trkpt>
      <trkpt lat="43.78519" lon="3.81717">
        <ele>186.2</ele>
        <time>2024-02-23T12:19:46Z</time>
      </trkpt>
      <trkpt lat="43.78519" lon="3.81717">
        <ele>186.4</ele>
        <time>2024-02-23T12:19:47Z</time>
      </trkpt>
      <trkpt lat="43.78519" lon="3.81717">
        <ele>186.4</ele>
        <time>2024-02-23T12:19:48Z</time>
      </trkpt>
      <trkpt lat="43.78519" lon="3.81717">
        <ele>186.6</ele>
        <time>2024-02-23T12:19:49Z</time>
      </trkpt>
      <trkpt lat="43.78517" lon="3.81719">
        <ele>186.4</ele>
        <time>2024-02-23T12:19:50Z</time>
      </trkpt>
      <trkpt lat="43.78519" lon="3.81717">
        <ele>186.4</ele>
        <time>2024-02-23T12:19:51Z</time>
      </trkpt>
      <trkpt lat="43.78519" lon="3.81714">
        <ele>186.4</ele>
        <time>2024-02-23T12:19:52Z</time>
      </trkpt>
      <trkpt lat="43.7852" lon="3.81711">
        <ele>186.2</ele>
        <time>2024-02-23T12:19:53Z</time>
      </trkpt>
      <trkpt lat="43.78521" lon="3.81708">
        <ele>186</ele>
        <time>2024-02-23T12:19:54Z</time>
      </trkpt>
      <trkpt lat="43.78521" lon="3.81708">
        <ele>186.4</ele>
        <time>2024-02-23T12:19:55Z</time>
      </trkpt>
      <trkpt lat="43.7852" lon="3.81703">
        <ele>186.4</ele>
        <time>2024-02-23T12:19:56Z</time>
      </trkpt>
      <trkpt lat="43.7852" lon="3.81703">
        <ele>186.4</ele>
        <time>2024-02-23T12:19:57Z</time>
      </trkpt>
      <trkpt lat="43.78518" lon="3.81701">
        <ele>186</ele>
        <time>2024-02-23T12:19:58Z</time>
      </trkpt>
      <trkpt lat="43.78518" lon="3.81701">
        <ele>186</ele>
        <time>2024-02-23T12:19:59Z</time>
      </trkpt>
      <trkpt lat="43.78515" lon="3.81701">
        <ele>186</ele>
        <time>2024-02-23T12:20:00Z</time>
      </trkpt>
      <trkpt lat="43.78513" lon="3.81701">
        <ele>186</ele>
        <time>2024-02-23T12:20:01Z</time>
      </trkpt>
      <trkpt lat="43.78511" lon="3.81701">
        <ele>186.2</ele>
        <time>2024-02-23T12:20:02Z</time>
      </trkpt>
      <trkpt lat="43.78509" lon="3.81701">
        <ele>186.4</ele>
        <time>2024-02-23T12:20:03Z</time>
      </trkpt>
      <trkpt lat="43.78507" lon="3.81702">
        <ele>186.6</ele>
        <time>2024-02-23T12:20:04Z</time>
      </trkpt>
      <trkpt lat="43.78505" lon="3.81703">
        <ele>186.8</ele>
        <time>2024-02-23T12:20:05Z</time>
      </trkpt>
      <trkpt lat="43.78503" lon="3.81704">
        <ele>187.2</ele>
        <time>2024-02-23T12:20:06Z</time>
      </trkpt>
      <trkpt lat="43.78503" lon="3.81704">
        <ele>187.6</ele>
        <time>2024-02-23T12:20:07Z</time>
      </trkpt>
      <trkpt lat="43.785" lon="3.81704">
        <ele>188</ele>
        <time>2024-02-23T12:20:08Z</time>
      </trkpt>
      <trkpt lat="43.78498" lon="3.81704">
        <ele>188.4</ele>
        <time>2024-02-23T12:20:09Z</time>
      </trkpt>
      <trkpt lat="43.78496" lon="3.81704">
        <ele>188.6</ele>
        <time>2024-02-23T12:20:10Z</time>
      </trkpt>
      <trkpt lat="43.78496" lon="3.81704">
        <ele>188.8</ele>
        <time>2024-02-23T12:20:11Z</time>
      </trkpt>
      <trkpt lat="43.78493" lon="3.81704">
        <ele>189</ele>
        <time>2024-02-23T12:20:12Z</time>
      </trkpt>
      <trkpt lat="43.78493" lon="3.81704">
        <ele>189.2</ele>
        <time>2024-02-23T12:20:13Z</time>
      </trkpt>
      <trkpt lat="43.78491" lon="3.81704">
        <ele>189.4</ele>
        <time>2024-02-23T12:20:14Z</time>
      </trkpt>
      <trkpt lat="43.78491" lon="3.81704">
        <ele>189.6</ele>
        <time>2024-02-23T12:20:15Z</time>
      </trkpt>
      <trkpt lat="43.78491" lon="3.81704">
        <ele>189.8</ele>
        <time>2024-02-23T12:20:16Z</time>
      </trkpt>
      <trkpt lat="43.78489" lon="3.81706">
        <ele>190.2</ele>
        <time>2024-02-23T12:20:17Z</time>
      </trkpt>
      <trkpt lat="43.78489" lon="3.81706">
        <ele>190.4</ele>
        <time>2024-02-23T12:20:18Z</time>
      </trkpt>
      <trkpt lat="43.78485" lon="3.81705">
        <ele>190.6</ele>
        <time>2024-02-23T12:20:19Z</time>
      </trkpt>
      <trkpt lat="43.78482" lon="3.81705">
        <ele>190.8</ele>
        <time>2024-02-23T12:20:20Z</time>
      </trkpt>
      <trkpt lat="43.7848" lon="3.81705">
        <ele>191</ele>
        <time>2024-02-23T12:20:21Z</time>
      </trkpt>
      <trkpt lat="43.7848" lon="3.81705">
        <ele>191.2</ele>
        <time>2024-02-23T12:20:22Z</time>
      </trkpt>
      <trkpt lat="43.78478" lon="3.81705">
        <ele>191.4</ele>
        <time>2024-02-23T12:20:23Z</time>
      </trkpt>
      <trkpt lat="43.78478" lon="3.81705">
        <ele>191.6</ele>
        <time>2024-02-23T12:20:24Z</time>
      </trkpt>
      <trkpt lat="43.78475" lon="3.81704">
        <ele>191.8</ele>
        <time>2024-02-23T12:20:25Z</time>
      </trkpt>
      <trkpt lat="43.78475" lon="3.81704">
        <ele>192</ele>
        <time>2024-02-23T12:20:26Z</time>
      </trkpt>
      <trkpt lat="43.78473" lon="3.81703">
        <ele>192.2</ele>
        <time>2024-02-23T12:20:27Z</time>
      </trkpt>
      <trkpt lat="43.78473" lon="3.81703">
        <ele>192.4</ele>
        <time>2024-02-23T12:20:28Z</time>
      </trkpt>
      <trkpt lat="43.78471" lon="3.81701">
        <ele>192.6</ele>
        <time>2024-02-23T12:20:29Z</time>
      </trkpt>
      <trkpt lat="43.78471" lon="3.81701">
        <ele>193</ele>
        <time>2024-02-23T12:20:30Z</time>
      </trkpt>
      <trkpt lat="43.78469" lon="3.81699">
        <ele>193.2</ele>
        <time>2024-02-23T12:20:31Z</time>
      </trkpt>
      <trkpt lat="43.78469" lon="3.81699">
        <ele>193.6</ele>
        <time>2024-02-23T12:20:32Z</time>
      </trkpt>
      <trkpt lat="43.78467" lon="3.81699">
        <ele>193.8</ele>
        <time>2024-02-23T12:20:33Z</time>
      </trkpt>
      <trkpt lat="43.78467" lon="3.81699">
        <ele>194</ele>
        <time>2024-02-23T12:20:34Z</time>
      </trkpt>
      <trkpt lat="43.78467" lon="3.81699">
        <ele>194.4</ele>
        <time>2024-02-23T12:20:35Z</time>
      </trkpt>
      <trkpt lat="43.78467" lon="3.81699">
        <ele>194.6</ele>
        <time>2024-02-23T12:20:36Z</time>
      </trkpt>
      <trkpt lat="43.78465" lon="3.81698">
        <ele>194.8</ele>
        <time>2024-02-23T12:20:37Z</time>
      </trkpt>
      <trkpt lat="43.78465" lon="3.81698">
        <ele>195</ele>
        <time>2024-02-23T12:20:38Z</time>
      </trkpt>
      <trkpt lat="43.78462" lon="3.81695">
        <ele>195.2</ele>
        <time>2024-02-23T12:20:39Z</time>
      </trkpt>
      <trkpt lat="43.78462" lon="3.81695">
        <ele>195.4</ele>
        <time>2024-02-23T12:20:40Z</time>
      </trkpt>
      <trkpt lat="43.78461" lon="3.81693">
        <ele>195.8</ele>
        <time>2024-02-23T12:20:41Z</time>
      </trkpt>
      <trkpt lat="43.78461" lon="3.81693">
        <ele>195.8</ele>
        <time>2024-02-23T12:20:42Z</time>
      </trkpt>
      <trkpt lat="43.78459" lon="3.81693">
        <ele>196</ele>
        <time>2024-02-23T12:20:43Z</time>
      </trkpt>
      <trkpt lat="43.78459" lon="3.81693">
        <ele>196.2</ele>
        <time>2024-02-23T12:20:44Z</time>
      </trkpt>
      <trkpt lat="43.78457" lon="3.81691">
        <ele>196.2</ele>
        <time>2024-02-23T12:20:45Z</time>
      </trkpt>
      <trkpt lat="43.78457" lon="3.81691">
        <ele>196.2</ele>
        <time>2024-02-23T12:20:46Z</time>
      </trkpt>
      <trkpt lat="43.78454" lon="3.81689">
        <ele>196.4</ele>
        <time>2024-02-23T12:20:47Z</time>
      </trkpt>
      <trkpt lat="43.78454" lon="3.81689">
        <ele>196.6</ele>
        <time>2024-02-23T12:20:48Z</time>
      </trkpt>
      <trkpt lat="43.78454" lon="3.81689">
        <ele>197</ele>
        <time>2024-02-23T12:20:49Z</time>
      </trkpt>
      <trkpt lat="43.78452" lon="3.81686">
        <ele>197.2</ele>
        <time>2024-02-23T12:20:50Z</time>
      </trkpt>
      <trkpt lat="43.78452" lon="3.81686">
        <ele>197.4</ele>
        <time>2024-02-23T12:20:51Z</time>
      </trkpt>
      <trkpt lat="43.7845" lon="3.81684">
        <ele>197.8</ele>
        <time>2024-02-23T12:20:52Z</time>
      </trkpt>
      <trkpt lat="43.7845" lon="3.81684">
        <ele>198</ele>
        <time>2024-02-23T12:20:53Z</time>
      </trkpt>
      <trkpt lat="43.78449" lon="3.81681">
        <ele>198.2</ele>
        <time>2024-02-23T12:20:54Z</time>
      </trkpt>
      <trkpt lat="43.78449" lon="3.81681">
        <ele>198.4</ele>
        <time>2024-02-23T12:20:55Z</time>
      </trkpt>
      <trkpt lat="43.78448" lon="3.81679">
        <ele>198.4</ele>
        <time>2024-02-23T12:20:56Z</time>
      </trkpt>
      <trkpt lat="43.78448" lon="3.81679">
        <ele>198.6</ele>
        <time>2024-02-23T12:20:57Z</time>
      </trkpt>
      <trkpt lat="43.78448" lon="3.81679">
        <ele>198.8</ele>
        <time>2024-02-23T12:20:58Z</time>
      </trkpt>
      <trkpt lat="43.78446" lon="3.81676">
        <ele>199.4</ele>
        <time>2024-02-23T12:20:59Z</time>
      </trkpt>
      <trkpt lat="43.78446" lon="3.81676">
        <ele>199.8</ele>
        <time>2024-02-23T12:21:00Z</time>
      </trkpt>
      <trkpt lat="43.78444" lon="3.81674">
        <ele>200.2</ele>
        <time>2024-02-23T12:21:01Z</time>
      </trkpt>
      <trkpt lat="43.78444" lon="3.81674">
        <ele>200.6</ele>
        <time>2024-02-23T12:21:02Z</time>
      </trkpt>
      <trkpt lat="43.78443" lon="3.81671">
        <ele>201</ele>
        <time>2024-02-23T12:21:03Z</time>
      </trkpt>
      <trkpt lat="43.78443" lon="3.81671">
        <ele>201.4</ele>
        <time>2024-02-23T12:21:04Z</time>
      </trkpt>
      <trkpt lat="43.78439" lon="3.8167">
        <ele>201.8</ele>
        <time>2024-02-23T12:21:05Z</time>
      </trkpt>
      <trkpt lat="43.78439" lon="3.8167">
        <ele>202.2</ele>
        <time>2024-02-23T12:21:06Z</time>
      </trkpt>
      <trkpt lat="43.78437" lon="3.81669">
        <ele>202.4</ele>
        <time>2024-02-23T12:21:07Z</time>
      </trkpt>
      <trkpt lat="43.78437" lon="3.81669">
        <ele>202.6</ele>
        <time>2024-02-23T12:21:08Z</time>
      </trkpt>
      <trkpt lat="43.78434" lon="3.81667">
        <ele>203</ele>
        <time>2024-02-23T12:21:09Z</time>
      </trkpt>
      <trkpt lat="43.78432" lon="3.81666">
        <ele>203.2</ele>
        <time>2024-02-23T12:21:10Z</time>
      </trkpt>
      <trkpt lat="43.78432" lon="3.81666">
        <ele>203.4</ele>
        <time>2024-02-23T12:21:11Z</time>
      </trkpt>
      <trkpt lat="43.7843" lon="3.81664">
        <ele>203.6</ele>
        <time>2024-02-23T12:21:12Z</time>
      </trkpt>
      <trkpt lat="43.7843" lon="3.81664">
        <ele>204</ele>
        <time>2024-02-23T12:21:13Z</time>
      </trkpt>
      <trkpt lat="43.78429" lon="3.81661">
        <ele>204.2</ele>
        <time>2024-02-23T12:21:14Z</time>
      </trkpt>
      <trkpt lat="43.78429" lon="3.81661">
        <ele>204.6</ele>
        <time>2024-02-23T12:21:15Z</time>
      </trkpt>
      <trkpt lat="43.78427" lon="3.81658">
        <ele>204.8</ele>
        <time>2024-02-23T12:21:16Z</time>
      </trkpt>
      <trkpt lat="43.78427" lon="3.81658">
        <ele>205.2</ele>
        <time>2024-02-23T12:21:17Z</time>
      </trkpt>
      <trkpt lat="43.78425" lon="3.81656">
        <ele>205.4</ele>
        <time>2024-02-23T12:21:18Z</time>
      </trkpt>
      <trkpt lat="43.78425" lon="3.81656">
        <ele>205.8</ele>
        <time>2024-02-23T12:21:19Z</time>
      </trkpt>
      <trkpt lat="43.78423" lon="3.81655">
        <ele>206</ele>
        <time>2024-02-23T12:21:20Z</time>
      </trkpt>
      <trkpt lat="43.78423" lon="3.81655">
        <ele>206.2</ele>
        <time>2024-02-23T12:21:21Z</time>
      </trkpt>
      <trkpt lat="43.78422" lon="3.81653">
        <ele>206.4</ele>
        <time>2024-02-23T12:21:22Z</time>
      </trkpt>
      <trkpt lat="43.78422" lon="3.81653">
        <ele>206.6</ele>
        <time>2024-02-23T12:21:23Z</time>
      </trkpt>
      <trkpt lat="43.7842" lon="3.81652">
        <ele>207</ele>
        <time>2024-02-23T12:21:24Z</time>
      </trkpt>
      <trkpt lat="43.7842" lon="3.81652">
        <ele>207.2</ele>
        <time>2024-02-23T12:21:25Z</time>
      </trkpt>
      <trkpt lat="43.78418" lon="3.81651">
        <ele>207.4</ele>
        <time>2024-02-23T12:21:26Z</time>
      </trkpt>
      <trkpt lat="43.78418" lon="3.81651">
        <ele>207.6</ele>
        <time>2024-02-23T12:21:27Z</time>
      </trkpt>
      <trkpt lat="43.78418" lon="3.81651">
        <ele>207.8</ele>
        <time>2024-02-23T12:21:28Z</time>
      </trkpt>
      <trkpt lat="43.78418" lon="3.81651">
        <ele>208</ele>
        <time>2024-02-23T12:21:29Z</time>
      </trkpt>
      <trkpt lat="43.78418" lon="3.81651">
        <ele>208.4</ele>
        <time>2024-02-23T12:21:30Z</time>
      </trkpt>
      <trkpt lat="43.78416" lon="3.8165">
        <ele>208.6</ele>
        <time>2024-02-23T12:21:31Z</time>
      </trkpt>
      <trkpt lat="43.78416" lon="3.8165">
        <ele>208.8</ele>
        <time>2024-02-23T12:21:32Z</time>
      </trkpt>
      <trkpt lat="43.78413" lon="3.81652">
        <ele>209</ele>
        <time>2024-02-23T12:21:33Z</time>
      </trkpt>
      <trkpt lat="43.78413" lon="3.81652">
        <ele>209.2</ele>
        <time>2024-02-23T12:21:34Z</time>
      </trkpt>
      <trkpt lat="43.7841" lon="3.81654">
        <ele>209.4</ele>
        <time>2024-02-23T12:21:35Z</time>
      </trkpt>
      <trkpt lat="43.7841" lon="3.81654">
        <ele>209.6</ele>
        <time>2024-02-23T12:21:36Z</time>
      </trkpt>
      <trkpt lat="43.78407" lon="3.81656">
        <ele>210.2</ele>
        <time>2024-02-23T12:21:37Z</time>
      </trkpt>
      <trkpt lat="43.78405" lon="3.81657">
        <ele>210.4</ele>
        <time>2024-02-23T12:21:38Z</time>
      </trkpt>
      <trkpt lat="43.78405" lon="3.81657">
        <ele>210.8</ele>
        <time>2024-02-23T12:21:39Z</time>
      </trkpt>
      <trkpt lat="43.78402" lon="3.81658">
        <ele>210.8</ele>
        <time>2024-02-23T12:21:40Z</time>
      </trkpt>
      <trkpt lat="43.78402" lon="3.81658">
        <ele>211.2</ele>
        <time>2024-02-23T12:21:41Z</time>
      </trkpt>
      <trkpt lat="43.784" lon="3.8166">
        <ele>211.4</ele>
        <time>2024-02-23T12:21:42Z</time>
      </trkpt>
      <trkpt lat="43.78398" lon="3.81661">
        <ele>211.6</ele>
        <time>2024-02-23T12:21:43Z</time>
      </trkpt>
      <trkpt lat="43.78396" lon="3.81662">
        <ele>211.8</ele>
        <time>2024-02-23T12:21:44Z</time>
      </trkpt>
      <trkpt lat="43.78396" lon="3.81662">
        <ele>212</ele>
        <time>2024-02-23T12:21:45Z</time>
      </trkpt>
      <trkpt lat="43.78396" lon="3.81662">
        <ele>212.2</ele>
        <time>2024-02-23T12:21:46Z</time>
      </trkpt>
      <trkpt lat="43.78394" lon="3.81664">
        <ele>212.6</ele>
        <time>2024-02-23T12:21:47Z</time>
      </trkpt>
      <trkpt lat="43.78394" lon="3.81664">
        <ele>212.8</ele>
        <time>2024-02-23T12:21:48Z</time>
      </trkpt>
      <trkpt lat="43.78391" lon="3.81666">
        <ele>213.2</ele>
        <time>2024-02-23T12:21:49Z</time>
      </trkpt>
      <trkpt lat="43.78389" lon="3.81667">
        <ele>213.4</ele>
        <time>2024-02-23T12:21:50Z</time>
      </trkpt>
      <trkpt lat="43.78387" lon="3.81668">
        <ele>213.6</ele>
        <time>2024-02-23T12:21:51Z</time>
      </trkpt>
      <trkpt lat="43.78385" lon="3.81669">
        <ele>213.8</ele>
        <time>2024-02-23T12:21:52Z</time>
      </trkpt>
      <trkpt lat="43.78382" lon="3.8167">
        <ele>214.2</ele>
        <time>2024-02-23T12:21:53Z</time>
      </trkpt>
      <trkpt lat="43.78379" lon="3.81671">
        <ele>214.4</ele>
        <time>2024-02-23T12:21:54Z</time>
      </trkpt>
      <trkpt lat="43.78379" lon="3.81671">
        <ele>214.6</ele>
        <time>2024-02-23T12:21:55Z</time>
      </trkpt>
      <trkpt lat="43.78376" lon="3.81674">
        <ele>214.8</ele>
        <time>2024-02-23T12:21:56Z</time>
      </trkpt>
      <trkpt lat="43.78376" lon="3.81674">
        <ele>215</ele>
        <time>2024-02-23T12:21:57Z</time>
      </trkpt>
      <trkpt lat="43.78373" lon="3.81675">
        <ele>215.2</ele>
        <time>2024-02-23T12:21:58Z</time>
      </trkpt>
      <trkpt lat="43.78371" lon="3.81677">
        <ele>215.2</ele>
        <time>2024-02-23T12:21:59Z</time>
      </trkpt>
      <trkpt lat="43.78371" lon="3.81677">
        <ele>215.4</ele>
        <time>2024-02-23T12:22:00Z</time>
      </trkpt>
      <trkpt lat="43.78368" lon="3.81679">
        <ele>215.6</ele>
        <time>2024-02-23T12:22:01Z</time>
      </trkpt>
      <trkpt lat="43.78368" lon="3.81679">
        <ele>215.8</ele>
        <time>2024-02-23T12:22:02Z</time>
      </trkpt>
      <trkpt lat="43.78367" lon="3.81681">
        <ele>216</ele>
        <time>2024-02-23T12:22:03Z</time>
      </trkpt>
      <trkpt lat="43.78365" lon="3.81681">
        <ele>216.2</ele>
        <time>2024-02-23T12:22:04Z</time>
      </trkpt>
      <trkpt lat="43.78363" lon="3.81682">
        <ele>216.4</ele>
        <time>2024-02-23T12:22:05Z</time>
      </trkpt>
      <trkpt lat="43.78361" lon="3.81684">
        <ele>216.6</ele>
        <time>2024-02-23T12:22:06Z</time>
      </trkpt>
      <trkpt lat="43.78359" lon="3.81686">
        <ele>216.6</ele>
        <time>2024-02-23T12:22:07Z</time>
      </trkpt>
      <trkpt lat="43.78357" lon="3.81688">
        <ele>216.8</ele>
        <time>2024-02-23T12:22:08Z</time>
      </trkpt>
      <trkpt lat="43.78355" lon="3.8169">
        <ele>217</ele>
        <time>2024-02-23T12:22:09Z</time>
      </trkpt>
      <trkpt lat="43.78353" lon="3.81692">
        <ele>217</ele>
        <time>2024-02-23T12:22:10Z</time>
      </trkpt>
      <trkpt lat="43.78351" lon="3.81695">
        <ele>217</ele>
        <time>2024-02-23T12:22:11Z</time>
      </trkpt>
      <trkpt lat="43.78349" lon="3.81697">
        <ele>217</ele>
        <time>2024-02-23T12:22:12Z</time>
      </trkpt>
      <trkpt lat="43.78347" lon="3.817">
        <ele>217</ele>
        <time>2024-02-23T12:22:13Z</time>
      </trkpt>
      <trkpt lat="43.78344" lon="3.81702">
        <ele>217</ele>
        <time>2024-02-23T12:22:14Z</time>
      </trkpt>
      <trkpt lat="43.78342" lon="3.81703">
        <ele>217</ele>
        <time>2024-02-23T12:22:15Z</time>
      </trkpt>
      <trkpt lat="43.7834" lon="3.81704">
        <ele>217</ele>
        <time>2024-02-23T12:22:16Z</time>
      </trkpt>
      <trkpt lat="43.78337" lon="3.81706">
        <ele>217</ele>
        <time>2024-02-23T12:22:17Z</time>
      </trkpt>
      <trkpt lat="43.78335" lon="3.81708">
        <ele>217.2</ele>
        <time>2024-02-23T12:22:18Z</time>
      </trkpt>
      <trkpt lat="43.78335" lon="3.81708">
        <ele>217.2</ele>
        <time>2024-02-23T12:22:19Z</time>
      </trkpt>
      <trkpt lat="43.78334" lon="3.81712">
        <ele>217.2</ele>
        <time>2024-02-23T12:22:20Z</time>
      </trkpt>
      <trkpt lat="43.78334" lon="3.81712">
        <ele>217.2</ele>
        <time>2024-02-23T12:22:21Z</time>
      </trkpt>
      <trkpt lat="43.78333" lon="3.81715">
        <ele>217.4</ele>
        <time>2024-02-23T12:22:22Z</time>
      </trkpt>
      <trkpt lat="43.78333" lon="3.81715">
        <ele>217.4</ele>
        <time>2024-02-23T12:22:23Z</time>
      </trkpt>
      <trkpt lat="43.78331" lon="3.81719">
        <ele>217.6</ele>
        <time>2024-02-23T12:22:24Z</time>
      </trkpt>
      <trkpt lat="43.78331" lon="3.81719">
        <ele>217.8</ele>
        <time>2024-02-23T12:22:25Z</time>
      </trkpt>
      <trkpt lat="43.7833" lon="3.81722">
        <ele>218</ele>
        <time>2024-02-23T12:22:26Z</time>
      </trkpt>
      <trkpt lat="43.7833" lon="3.81722">
        <ele>218.2</ele>
        <time>2024-02-23T12:22:27Z</time>
      </trkpt>
      <trkpt lat="43.78329" lon="3.81726">
        <ele>218.4</ele>
        <time>2024-02-23T12:22:28Z</time>
      </trkpt>
      <trkpt lat="43.78329" lon="3.81726">
        <ele>218.6</ele>
        <time>2024-02-23T12:22:29Z</time>
      </trkpt>
      <trkpt lat="43.78327" lon="3.81729">
        <ele>218.8</ele>
        <time>2024-02-23T12:22:30Z</time>
      </trkpt>
      <trkpt lat="43.78327" lon="3.81729">
        <ele>219</ele>
        <time>2024-02-23T12:22:31Z</time>
      </trkpt>
      <trkpt lat="43.78325" lon="3.81732">
        <ele>219.4</ele>
        <time>2024-02-23T12:22:32Z</time>
      </trkpt>
      <trkpt lat="43.78323" lon="3.81734">
        <ele>219.6</ele>
        <time>2024-02-23T12:22:33Z</time>
      </trkpt>
      <trkpt lat="43.78322" lon="3.81737">
        <ele>219.8</ele>
        <time>2024-02-23T12:22:34Z</time>
      </trkpt>
      <trkpt lat="43.7832" lon="3.81739">
        <ele>220.2</ele>
        <time>2024-02-23T12:22:35Z</time>
      </trkpt>
      <trkpt lat="43.78319" lon="3.81741">
        <ele>220.4</ele>
        <time>2024-02-23T12:22:36Z</time>
      </trkpt>
      <trkpt lat="43.78319" lon="3.81741">
        <ele>220.6</ele>
        <time>2024-02-23T12:22:37Z</time>
      </trkpt>
      <trkpt lat="43.78319" lon="3.81746">
        <ele>220.8</ele>
        <time>2024-02-23T12:22:38Z</time>
      </trkpt>
      <trkpt lat="43.78319" lon="3.81746">
        <ele>221</ele>
        <time>2024-02-23T12:22:39Z</time>
      </trkpt>
      <trkpt lat="43.78318" lon="3.8175">
        <ele>221.2</ele>
        <time>2024-02-23T12:22:40Z</time>
      </trkpt>
      <trkpt lat="43.78318" lon="3.8175">
        <ele>221.4</ele>
        <time>2024-02-23T12:22:41Z</time>
      </trkpt>
      <trkpt lat="43.78316" lon="3.81754">
        <ele>221.6</ele>
        <time>2024-02-23T12:22:42Z</time>
      </trkpt>
      <trkpt lat="43.78316" lon="3.81754">
        <ele>221.8</ele>
        <time>2024-02-23T12:22:43Z</time>
      </trkpt>
      <trkpt lat="43.78314" lon="3.81757">
        <ele>222</ele>
        <time>2024-02-23T12:22:44Z</time>
      </trkpt>
      <trkpt lat="43.78314" lon="3.81757">
        <ele>222.2</ele>
        <time>2024-02-23T12:22:45Z</time>
      </trkpt>
      <trkpt lat="43.78314" lon="3.81757">
        <ele>222.4</ele>
        <time>2024-02-23T12:22:46Z</time>
      </trkpt>
      <trkpt lat="43.78313" lon="3.81761">
        <ele>222.6</ele>
        <time>2024-02-23T12:22:47Z</time>
      </trkpt>
      <trkpt lat="43.78313" lon="3.81761">
        <ele>223</ele>
        <time>2024-02-23T12:22:48Z</time>
      </trkpt>
      <trkpt lat="43.78312" lon="3.81765">
        <ele>223.2</ele>
        <time>2024-02-23T12:22:49Z</time>
      </trkpt>
      <trkpt lat="43.78312" lon="3.81765">
        <ele>223.4</ele>
        <time>2024-02-23T12:22:50Z</time>
      </trkpt>
      <trkpt lat="43.78311" lon="3.81769">
        <ele>223.8</ele>
        <time>2024-02-23T12:22:51Z</time>
      </trkpt>
      <trkpt lat="43.78311" lon="3.81772">
        <ele>224</ele>
        <time>2024-02-23T12:22:52Z</time>
      </trkpt>
      <trkpt lat="43.7831" lon="3.81775">
        <ele>224.2</ele>
        <time>2024-02-23T12:22:53Z</time>
      </trkpt>
      <trkpt lat="43.7831" lon="3.81775">
        <ele>224.4</ele>
        <time>2024-02-23T12:22:54Z</time>
      </trkpt>
      <trkpt lat="43.78309" lon="3.81779">
        <ele>224.6</ele>
        <time>2024-02-23T12:22:55Z</time>
      </trkpt>
      <trkpt lat="43.78309" lon="3.81779">
        <ele>225</ele>
        <time>2024-02-23T12:22:56Z</time>
      </trkpt>
      <trkpt lat="43.78306" lon="3.81782">
        <ele>225.2</ele>
        <time>2024-02-23T12:22:57Z</time>
      </trkpt>
      <trkpt lat="43.78306" lon="3.81782">
        <ele>225.4</ele>
        <time>2024-02-23T12:22:58Z</time>
      </trkpt>
      <trkpt lat="43.78303" lon="3.81784">
        <ele>225.6</ele>
        <time>2024-02-23T12:22:59Z</time>
      </trkpt>
      <trkpt lat="43.78301" lon="3.81785">
        <ele>226</ele>
        <time>2024-02-23T12:23:00Z</time>
      </trkpt>
      <trkpt lat="43.78299" lon="3.81786">
        <ele>226.2</ele>
        <time>2024-02-23T12:23:01Z</time>
      </trkpt>
      <trkpt lat="43.78299" lon="3.81786">
        <ele>226.4</ele>
        <time>2024-02-23T12:23:02Z</time>
      </trkpt>
      <trkpt lat="43.78297" lon="3.81788">
        <ele>226.8</ele>
        <time>2024-02-23T12:23:03Z</time>
      </trkpt>
      <trkpt lat="43.78295" lon="3.8179">
        <ele>227.2</ele>
        <time>2024-02-23T12:23:04Z</time>
      </trkpt>
      <trkpt lat="43.78295" lon="3.8179">
        <ele>227.4</ele>
        <time>2024-02-23T12:23:05Z</time>
      </trkpt>
      <trkpt lat="43.78293" lon="3.81792">
        <ele>227.8</ele>
        <time>2024-02-23T12:23:06Z</time>
      </trkpt>
      <trkpt lat="43.78293" lon="3.81792">
        <ele>228</ele>
        <time>2024-02-23T12:23:07Z</time>
      </trkpt>
      <trkpt lat="43.78291" lon="3.81795">
        <ele>228.2</ele>
        <time>2024-02-23T12:23:08Z</time>
      </trkpt>
      <trkpt lat="43.78291" lon="3.81795">
        <ele>228.6</ele>
        <time>2024-02-23T12:23:09Z</time>
      </trkpt>
      <trkpt lat="43.78288" lon="3.81796">
        <ele>228.8</ele>
        <time>2024-02-23T12:23:10Z</time>
      </trkpt>
      <trkpt lat="43.78286" lon="3.81797">
        <ele>229.2</ele>
        <time>2024-02-23T12:23:11Z</time>
      </trkpt>
      <trkpt lat="43.78285" lon="3.81798">
        <ele>229.4</ele>
        <time>2024-02-23T12:23:12Z</time>
      </trkpt>
      <trkpt lat="43.78283" lon="3.81799">
        <ele>229.6</ele>
        <time>2024-02-23T12:23:13Z</time>
      </trkpt>
      <trkpt lat="43.78283" lon="3.81799">
        <ele>229.8</ele>
        <time>2024-02-23T12:23:14Z</time>
      </trkpt>
      <trkpt lat="43.78281" lon="3.81801">
        <ele>230.2</ele>
        <time>2024-02-23T12:23:15Z</time>
      </trkpt>
      <trkpt lat="43.78281" lon="3.81801">
        <ele>230.4</ele>
        <time>2024-02-23T12:23:16Z</time>
      </trkpt>
      <trkpt lat="43.78278" lon="3.81804">
        <ele>230.6</ele>
        <time>2024-02-23T12:23:17Z</time>
      </trkpt>
      <trkpt lat="43.78278" lon="3.81804">
        <ele>231</ele>
        <time>2024-02-23T12:23:18Z</time>
      </trkpt>
      <trkpt lat="43.78277" lon="3.81808">
        <ele>231.2</ele>
        <time>2024-02-23T12:23:19Z</time>
      </trkpt>
      <trkpt lat="43.78276" lon="3.8181">
        <ele>231.4</ele>
        <time>2024-02-23T12:23:20Z</time>
      </trkpt>
      <trkpt lat="43.78275" lon="3.81812">
        <ele>231.8</ele>
        <time>2024-02-23T12:23:21Z</time>
      </trkpt>
      <trkpt lat="43.78273" lon="3.81814">
        <ele>232</ele>
        <time>2024-02-23T12:23:22Z</time>
      </trkpt>
      <trkpt lat="43.78272" lon="3.81816">
        <ele>232</ele>
        <time>2024-02-23T12:23:23Z</time>
      </trkpt>
      <trkpt lat="43.7827" lon="3.81818">
        <ele>232.2</ele>
        <time>2024-02-23T12:23:24Z</time>
      </trkpt>
      <trkpt lat="43.78268" lon="3.8182">
        <ele>232.2</ele>
        <time>2024-02-23T12:23:25Z</time>
      </trkpt>
      <trkpt lat="43.78266" lon="3.81821">
        <ele>232.4</ele>
        <time>2024-02-23T12:23:26Z</time>
      </trkpt>
      <trkpt lat="43.78264" lon="3.81823">
        <ele>232.4</ele>
        <time>2024-02-23T12:23:27Z</time>
      </trkpt>
      <trkpt lat="43.78262" lon="3.81825">
        <ele>232.4</ele>
        <time>2024-02-23T12:23:28Z</time>
      </trkpt>
      <trkpt lat="43.78261" lon="3.81826">
        <ele>232.4</ele>
        <time>2024-02-23T12:23:29Z</time>
      </trkpt>
      <trkpt lat="43.78259" lon="3.81829">
        <ele>232.4</ele>
        <time>2024-02-23T12:23:30Z</time>
      </trkpt>
      <trkpt lat="43.78258" lon="3.81831">
        <ele>232.4</ele>
        <time>2024-02-23T12:23:31Z</time>
      </trkpt>
      <trkpt lat="43.78256" lon="3.81833">
        <ele>232.6</ele>
        <time>2024-02-23T12:23:32Z</time>
      </trkpt>
      <trkpt lat="43.78254" lon="3.81835">
        <ele>232.6</ele>
        <time>2024-02-23T12:23:33Z</time>
      </trkpt>
      <trkpt lat="43.78253" lon="3.81838">
        <ele>232.8</ele>
        <time>2024-02-23T12:23:34Z</time>
      </trkpt>
      <trkpt lat="43.78251" lon="3.8184">
        <ele>232.8</ele>
        <time>2024-02-23T12:23:35Z</time>
      </trkpt>
      <trkpt lat="43.78249" lon="3.81842">
        <ele>232.8</ele>
        <time>2024-02-23T12:23:36Z</time>
      </trkpt>
      <trkpt lat="43.78247" lon="3.81844">
        <ele>233</ele>
        <time>2024-02-23T12:23:37Z</time>
      </trkpt>
      <trkpt lat="43.78247" lon="3.81844">
        <ele>233</ele>
        <time>2024-02-23T12:23:38Z</time>
      </trkpt>
      <trkpt lat="43.78246" lon="3.81847">
        <ele>233.2</ele>
        <time>2024-02-23T12:23:39Z</time>
      </trkpt>
      <trkpt lat="43.78245" lon="3.81849">
        <ele>233.6</ele>
        <time>2024-02-23T12:23:40Z</time>
      </trkpt>
      <trkpt lat="43.78243" lon="3.81851">
        <ele>233.8</ele>
        <time>2024-02-23T12:23:41Z</time>
      </trkpt>
      <trkpt lat="43.78243" lon="3.81851">
        <ele>234</ele>
        <time>2024-02-23T12:23:42Z</time>
      </trkpt>
      <trkpt lat="43.78242" lon="3.81855">
        <ele>234.2</ele>
        <time>2024-02-23T12:23:43Z</time>
      </trkpt>
      <trkpt lat="43.78241" lon="3.81858">
        <ele>234.4</ele>
        <time>2024-02-23T12:23:44Z</time>
      </trkpt>
      <trkpt lat="43.78241" lon="3.81858">
        <ele>234.8</ele>
        <time>2024-02-23T12:23:45Z</time>
      </trkpt>
      <trkpt lat="43.78239" lon="3.81861">
        <ele>235</ele>
        <time>2024-02-23T12:23:46Z</time>
      </trkpt>
      <trkpt lat="43.78239" lon="3.81861">
        <ele>235.2</ele>
        <time>2024-02-23T12:23:47Z</time>
      </trkpt>
      <trkpt lat="43.78238" lon="3.81866">
        <ele>235.4</ele>
        <time>2024-02-23T12:23:48Z</time>
      </trkpt>
      <trkpt lat="43.78237" lon="3.81868">
        <ele>235.8</ele>
        <time>2024-02-23T12:23:49Z</time>
      </trkpt>
      <trkpt lat="43.78237" lon="3.8187">
        <ele>236</ele>
        <time>2024-02-23T12:23:50Z</time>
      </trkpt>
      <trkpt lat="43.78236" lon="3.81873">
        <ele>236.2</ele>
        <time>2024-02-23T12:23:51Z</time>
      </trkpt>
      <trkpt lat="43.78235" lon="3.81875">
        <ele>236.4</ele>
        <time>2024-02-23T12:23:52Z</time>
      </trkpt>
      <trkpt lat="43.78234" lon="3.81877">
        <ele>236.8</ele>
        <time>2024-02-23T12:23:53Z</time>
      </trkpt>
      <trkpt lat="43.78234" lon="3.81877">
        <ele>237</ele>
        <time>2024-02-23T12:23:54Z</time>
      </trkpt>
      <trkpt lat="43.78233" lon="3.81881">
        <ele>237.2</ele>
        <time>2024-02-23T12:23:55Z</time>
      </trkpt>
      <trkpt lat="43.78233" lon="3.81881">
        <ele>237.4</ele>
        <time>2024-02-23T12:23:56Z</time>
      </trkpt>
      <trkpt lat="43.78232" lon="3.81886">
        <ele>237.6</ele>
        <time>2024-02-23T12:23:57Z</time>
      </trkpt>
      <trkpt lat="43.78232" lon="3.81886">
        <ele>237.8</ele>
        <time>2024-02-23T12:23:58Z</time>
      </trkpt>
      <trkpt lat="43.78231" lon="3.81889">
        <ele>238.2</ele>
        <time>2024-02-23T12:23:59Z</time>
      </trkpt>
      <trkpt lat="43.78231" lon="3.81889">
        <ele>238.4</ele>
        <time>2024-02-23T12:24:00Z</time>
      </trkpt>
      <trkpt lat="43.7823" lon="3.81892">
        <ele>238.8</ele>
        <time>2024-02-23T12:24:01Z</time>
      </trkpt>
      <trkpt lat="43.7823" lon="3.81892">
        <ele>239.2</ele>
        <time>2024-02-23T12:24:02Z</time>
      </trkpt>
      <trkpt lat="43.7823" lon="3.81892">
        <ele>239.4</ele>
        <time>2024-02-23T12:24:03Z</time>
      </trkpt>
      <trkpt lat="43.78229" lon="3.81895">
        <ele>239.8</ele>
        <time>2024-02-23T12:24:04Z</time>
      </trkpt>
      <trkpt lat="43.78229" lon="3.81895">
        <ele>240</ele>
        <time>2024-02-23T12:24:05Z</time>
      </trkpt>
      <trkpt lat="43.78229" lon="3.81899">
        <ele>240.4</ele>
        <time>2024-02-23T12:24:06Z</time>
      </trkpt>
      <trkpt lat="43.78229" lon="3.81899">
        <ele>240.6</ele>
        <time>2024-02-23T12:24:07Z</time>
      </trkpt>
      <trkpt lat="43.78228" lon="3.81902">
        <ele>240.8</ele>
        <time>2024-02-23T12:24:08Z</time>
      </trkpt>
      <trkpt lat="43.78228" lon="3.81902">
        <ele>241</ele>
        <time>2024-02-23T12:24:09Z</time>
      </trkpt>
      <trkpt lat="43.78227" lon="3.81906">
        <ele>241.4</ele>
        <time>2024-02-23T12:24:10Z</time>
      </trkpt>
      <trkpt lat="43.78227" lon="3.81906">
        <ele>241.6</ele>
        <time>2024-02-23T12:24:11Z</time>
      </trkpt>
      <trkpt lat="43.78226" lon="3.8191">
        <ele>241.8</ele>
        <time>2024-02-23T12:24:12Z</time>
      </trkpt>
      <trkpt lat="43.78226" lon="3.8191">
        <ele>242</ele>
        <time>2024-02-23T12:24:13Z</time>
      </trkpt>
      <trkpt lat="43.78224" lon="3.81912">
        <ele>242.2</ele>
        <time>2024-02-23T12:24:14Z</time>
      </trkpt>
      <trkpt lat="43.78224" lon="3.81912">
        <ele>242.4</ele>
        <time>2024-02-23T12:24:15Z</time>
      </trkpt>
      <trkpt lat="43.78221" lon="3.81913">
        <ele>242.6</ele>
        <time>2024-02-23T12:24:16Z</time>
      </trkpt>
      <trkpt lat="43.78221" lon="3.81913">
        <ele>242.8</ele>
        <time>2024-02-23T12:24:17Z</time>
      </trkpt>
      <trkpt lat="43.78219" lon="3.81916">
        <ele>243</ele>
        <time>2024-02-23T12:24:18Z</time>
      </trkpt>
      <trkpt lat="43.78219" lon="3.81916">
        <ele>243.2</ele>
        <time>2024-02-23T12:24:19Z</time>
      </trkpt>
      <trkpt lat="43.78217" lon="3.81918">
        <ele>243.4</ele>
        <time>2024-02-23T12:24:20Z</time>
      </trkpt>
      <trkpt lat="43.78217" lon="3.81918">
        <ele>243.6</ele>
        <time>2024-02-23T12:24:21Z</time>
      </trkpt>
      <trkpt lat="43.78215" lon="3.8192">
        <ele>244</ele>
        <time>2024-02-23T12:24:22Z</time>
      </trkpt>
      <trkpt lat="43.78215" lon="3.8192">
        <ele>244.2</ele>
        <time>2024-02-23T12:24:23Z</time>
      </trkpt>
      <trkpt lat="43.78213" lon="3.81921">
        <ele>244.4</ele>
        <time>2024-02-23T12:24:24Z</time>
      </trkpt>
      <trkpt lat="43.78213" lon="3.81921">
        <ele>244.6</ele>
        <time>2024-02-23T12:24:25Z</time>
      </trkpt>
      <trkpt lat="43.78211" lon="3.81923">
        <ele>244.8</ele>
        <time>2024-02-23T12:24:26Z</time>
      </trkpt>
      <trkpt lat="43.78211" lon="3.81923">
        <ele>245</ele>
        <time>2024-02-23T12:24:27Z</time>
      </trkpt>
      <trkpt lat="43.78211" lon="3.81923">
        <ele>245.2</ele>
        <time>2024-02-23T12:24:28Z</time>
      </trkpt>
      <trkpt lat="43.78211" lon="3.81923">
        <ele>245.6</ele>
        <time>2024-02-23T12:24:29Z</time>
      </trkpt>
      <trkpt lat="43.78209" lon="3.81927">
        <ele>245.8</ele>
        <time>2024-02-23T12:24:30Z</time>
      </trkpt>
      <trkpt lat="43.78209" lon="3.81929">
        <ele>246.2</ele>
        <time>2024-02-23T12:24:31Z</time>
      </trkpt>
      <trkpt lat="43.78209" lon="3.81929">
        <ele>246.4</ele>
        <time>2024-02-23T12:24:32Z</time>
      </trkpt>
      <trkpt lat="43.78209" lon="3.81929">
        <ele>246.8</ele>
        <time>2024-02-23T12:24:33Z</time>
      </trkpt>
      <trkpt lat="43.78208" lon="3.81931">
        <ele>247.2</ele>
        <time>2024-02-23T12:24:34Z</time>
      </trkpt>
      <trkpt lat="43.78208" lon="3.81931">
        <ele>247.4</ele>
        <time>2024-02-23T12:24:35Z</time>
      </trkpt>
      <trkpt lat="43.78208" lon="3.81931">
        <ele>247.6</ele>
        <time>2024-02-23T12:24:36Z</time>
      </trkpt>
      <trkpt lat="43.78208" lon="3.81931">
        <ele>247.8</ele>
        <time>2024-02-23T12:24:37Z</time>
      </trkpt>
      <trkpt lat="43.78206" lon="3.81934">
        <ele>248.2</ele>
        <time>2024-02-23T12:24:38Z</time>
      </trkpt>
      <trkpt lat="43.78206" lon="3.81934">
        <ele>248.4</ele>
        <time>2024-02-23T12:24:39Z</time>
      </trkpt>
      <trkpt lat="43.78204" lon="3.81935">
        <ele>248.6</ele>
        <time>2024-02-23T12:24:40Z</time>
      </trkpt>
      <trkpt lat="43.78204" lon="3.81935">
        <ele>249</ele>
        <time>2024-02-23T12:24:41Z</time>
      </trkpt>
      <trkpt lat="43.78202" lon="3.81937">
        <ele>249.2</ele>
        <time>2024-02-23T12:24:42Z</time>
      </trkpt>
      <trkpt lat="43.78202" lon="3.81937">
        <ele>249.6</ele>
        <time>2024-02-23T12:24:43Z</time>
      </trkpt>
      <trkpt lat="43.782" lon="3.81939">
        <ele>249.8</ele>
        <time>2024-02-23T12:24:44Z</time>
      </trkpt>
      <trkpt lat="43.782" lon="3.81939">
        <ele>250.2</ele>
        <time>2024-02-23T12:24:45Z</time>
      </trkpt>
      <trkpt lat="43.78197" lon="3.81941">
        <ele>250.4</ele>
        <time>2024-02-23T12:24:46Z</time>
      </trkpt>
      <trkpt lat="43.78195" lon="3.81942">
        <ele>250.6</ele>
        <time>2024-02-23T12:24:47Z</time>
      </trkpt>
      <trkpt lat="43.78193" lon="3.81944">
        <ele>251</ele>
        <time>2024-02-23T12:24:48Z</time>
      </trkpt>
      <trkpt lat="43.78191" lon="3.81944">
        <ele>251.2</ele>
        <time>2024-02-23T12:24:49Z</time>
      </trkpt>
      <trkpt lat="43.78188" lon="3.81945">
        <ele>251.4</ele>
        <time>2024-02-23T12:24:50Z</time>
      </trkpt>
      <trkpt lat="43.78186" lon="3.81945">
        <ele>251.6</ele>
        <time>2024-02-23T12:24:51Z</time>
      </trkpt>
      <trkpt lat="43.78186" lon="3.81945">
        <ele>252</ele>
        <time>2024-02-23T12:24:52Z</time>
      </trkpt>
      <trkpt lat="43.78183" lon="3.81946">
        <ele>252.2</ele>
        <time>2024-02-23T12:24:53Z</time>
      </trkpt>
      <trkpt lat="43.78183" lon="3.81946">
        <ele>252.4</ele>
        <time>2024-02-23T12:24:54Z</time>
      </trkpt>
      <trkpt lat="43.7818" lon="3.81949">
        <ele>252.6</ele>
        <time>2024-02-23T12:24:55Z</time>
      </trkpt>
      <trkpt lat="43.7818" lon="3.81949">
        <ele>253</ele>
        <time>2024-02-23T12:24:56Z</time>
      </trkpt>
      <trkpt lat="43.7818" lon="3.81951">
        <ele>253.2</ele>
        <time>2024-02-23T12:24:57Z</time>
      </trkpt>
      <trkpt lat="43.7818" lon="3.81951">
        <ele>253.6</ele>
        <time>2024-02-23T12:24:58Z</time>
      </trkpt>
      <trkpt lat="43.78177" lon="3.81953">
        <ele>253.8</ele>
        <time>2024-02-23T12:24:59Z</time>
      </trkpt>
      <trkpt lat="43.78177" lon="3.81953">
        <ele>254.2</ele>
        <time>2024-02-23T12:25:00Z</time>
      </trkpt>
      <trkpt lat="43.78176" lon="3.81955">
        <ele>254.6</ele>
        <time>2024-02-23T12:25:01Z</time>
      </trkpt>
      <trkpt lat="43.78176" lon="3.81955">
        <ele>254.8</ele>
        <time>2024-02-23T12:25:02Z</time>
      </trkpt>
      <trkpt lat="43.78174" lon="3.81959">
        <ele>255</ele>
        <time>2024-02-23T12:25:03Z</time>
      </trkpt>
      <trkpt lat="43.78174" lon="3.81959">
        <ele>255.4</ele>
        <time>2024-02-23T12:25:04Z</time>
      </trkpt>
      <trkpt lat="43.78172" lon="3.81961">
        <ele>255.6</ele>
        <time>2024-02-23T12:25:05Z</time>
      </trkpt>
      <trkpt lat="43.78172" lon="3.81961">
        <ele>256</ele>
        <time>2024-02-23T12:25:06Z</time>
      </trkpt>
      <trkpt lat="43.7817" lon="3.81964">
        <ele>256.2</ele>
        <time>2024-02-23T12:25:07Z</time>
      </trkpt>
      <trkpt lat="43.7817" lon="3.81964">
        <ele>256.4</ele>
        <time>2024-02-23T12:25:08Z</time>
      </trkpt>
      <trkpt lat="43.78168" lon="3.81965">
        <ele>256.8</ele>
        <time>2024-02-23T12:25:09Z</time>
      </trkpt>
      <trkpt lat="43.78166" lon="3.81965">
        <ele>257.2</ele>
        <time>2024-02-23T12:25:10Z</time>
      </trkpt>
      <trkpt lat="43.78166" lon="3.81965">
        <ele>257.4</ele>
        <time>2024-02-23T12:25:11Z</time>
      </trkpt>
      <trkpt lat="43.78164" lon="3.81967">
        <ele>257.6</ele>
        <time>2024-02-23T12:25:12Z</time>
      </trkpt>
      <trkpt lat="43.78164" lon="3.81967">
        <ele>257.8</ele>
        <time>2024-02-23T12:25:13Z</time>
      </trkpt>
      <trkpt lat="43.78161" lon="3.81967">
        <ele>258.2</ele>
        <time>2024-02-23T12:25:14Z</time>
      </trkpt>
      <trkpt lat="43.78159" lon="3.81967">
        <ele>258.4</ele>
        <time>2024-02-23T12:25:15Z</time>
      </trkpt>
      <trkpt lat="43.78159" lon="3.81967">
        <ele>258.6</ele>
        <time>2024-02-23T12:25:16Z</time>
      </trkpt>
      <trkpt lat="43.78157" lon="3.81967">
        <ele>258.8</ele>
        <time>2024-02-23T12:25:17Z</time>
      </trkpt>
      <trkpt lat="43.78157" lon="3.81967">
        <ele>259</ele>
        <time>2024-02-23T12:25:18Z</time>
      </trkpt>
      <trkpt lat="43.78155" lon="3.81967">
        <ele>259.4</ele>
        <time>2024-02-23T12:25:19Z</time>
      </trkpt>
      <trkpt lat="43.78155" lon="3.81967">
        <ele>259.8</ele>
        <time>2024-02-23T12:25:20Z</time>
      </trkpt>
      <trkpt lat="43.78155" lon="3.81967">
        <ele>260.2</ele>
        <time>2024-02-23T12:25:21Z</time>
      </trkpt>
      <trkpt lat="43.78155" lon="3.81967">
        <ele>260.6</ele>
        <time>2024-02-23T12:25:22Z</time>
      </trkpt>
      <trkpt lat="43.78153" lon="3.81965">
        <ele>260.8</ele>
        <time>2024-02-23T12:25:23Z</time>
      </trkpt>
      <trkpt lat="43.78153" lon="3.81965">
        <ele>261</ele>
        <time>2024-02-23T12:25:24Z</time>
      </trkpt>
      <trkpt lat="43.78151" lon="3.81964">
        <ele>261.4</ele>
        <time>2024-02-23T12:25:25Z</time>
      </trkpt>
      <trkpt lat="43.78151" lon="3.81964">
        <ele>261.8</ele>
        <time>2024-02-23T12:25:26Z</time>
      </trkpt>
      <trkpt lat="43.78149" lon="3.81964">
        <ele>262</ele>
        <time>2024-02-23T12:25:27Z</time>
      </trkpt>
      <trkpt lat="43.78149" lon="3.81964">
        <ele>262.2</ele>
        <time>2024-02-23T12:25:28Z</time>
      </trkpt>
      <trkpt lat="43.78149" lon="3.81964">
        <ele>262.4</ele>
        <time>2024-02-23T12:25:29Z</time>
      </trkpt>
      <trkpt lat="43.78148" lon="3.81963">
        <ele>262.8</ele>
        <time>2024-02-23T12:25:30Z</time>
      </trkpt>
      <trkpt lat="43.78148" lon="3.81963">
        <ele>263</ele>
        <time>2024-02-23T12:25:31Z</time>
      </trkpt>
      <trkpt lat="43.78148" lon="3.81963">
        <ele>263.4</ele>
        <time>2024-02-23T12:25:32Z</time>
      </trkpt>
      <trkpt lat="43.78148" lon="3.81963">
        <ele>263.6</ele>
        <time>2024-02-23T12:25:33Z</time>
      </trkpt>
      <trkpt lat="43.78148" lon="3.81963">
        <ele>264</ele>
        <time>2024-02-23T12:25:34Z</time>
      </trkpt>
      <trkpt lat="43.78148" lon="3.81963">
        <ele>264.4</ele>
        <time>2024-02-23T12:25:35Z</time>
      </trkpt>
      <trkpt lat="43.78146" lon="3.81961">
        <ele>264.8</ele>
        <time>2024-02-23T12:25:36Z</time>
      </trkpt>
      <trkpt lat="43.78146" lon="3.81961">
        <ele>265.2</ele>
        <time>2024-02-23T12:25:37Z</time>
      </trkpt>
      <trkpt lat="43.78146" lon="3.81961">
        <ele>265.6</ele>
        <time>2024-02-23T12:25:38Z</time>
      </trkpt>
      <trkpt lat="43.78144" lon="3.81958">
        <ele>266</ele>
        <time>2024-02-23T12:25:39Z</time>
      </trkpt>
      <trkpt lat="43.78144" lon="3.81958">
        <ele>266.2</ele>
        <time>2024-02-23T12:25:40Z</time>
      </trkpt>
      <trkpt lat="43.78144" lon="3.81958">
        <ele>266.6</ele>
        <time>2024-02-23T12:25:41Z</time>
      </trkpt>
      <trkpt lat="43.78144" lon="3.81958">
        <ele>267</ele>
        <time>2024-02-23T12:25:42Z</time>
      </trkpt>
      <trkpt lat="43.78144" lon="3.81956">
        <ele>267.4</ele>
        <time>2024-02-23T12:25:43Z</time>
      </trkpt>
      <trkpt lat="43.78144" lon="3.81956">
        <ele>267.8</ele>
        <time>2024-02-23T12:25:44Z</time>
      </trkpt>
      <trkpt lat="43.78142" lon="3.81955">
        <ele>268.2</ele>
        <time>2024-02-23T12:25:45Z</time>
      </trkpt>
      <trkpt lat="43.78142" lon="3.81955">
        <ele>268.6</ele>
        <time>2024-02-23T12:25:46Z</time>
      </trkpt>
      <trkpt lat="43.78139" lon="3.81954">
        <ele>268.8</ele>
        <time>2024-02-23T12:25:47Z</time>
      </trkpt>
      <trkpt lat="43.78139" lon="3.81954">
        <ele>269</ele>
        <time>2024-02-23T12:25:48Z</time>
      </trkpt>
      <trkpt lat="43.78137" lon="3.81953">
        <ele>269.4</ele>
        <time>2024-02-23T12:25:49Z</time>
      </trkpt>
      <trkpt lat="43.78137" lon="3.81953">
        <ele>269.6</ele>
        <time>2024-02-23T12:25:50Z</time>
      </trkpt>
      <trkpt lat="43.78137" lon="3.81953">
        <ele>269.8</ele>
        <time>2024-02-23T12:25:51Z</time>
      </trkpt>
      <trkpt lat="43.78134" lon="3.81952">
        <ele>270.2</ele>
        <time>2024-02-23T12:25:52Z</time>
      </trkpt>
      <trkpt lat="43.78134" lon="3.81952">
        <ele>270.4</ele>
        <time>2024-02-23T12:25:53Z</time>
      </trkpt>
      <trkpt lat="43.78134" lon="3.81952">
        <ele>270.6</ele>
        <time>2024-02-23T12:25:54Z</time>
      </trkpt>
      <trkpt lat="43.78134" lon="3.81952">
        <ele>271</ele>
        <time>2024-02-23T12:25:55Z</time>
      </trkpt>
      <trkpt lat="43.78132" lon="3.81952">
        <ele>271.4</ele>
        <time>2024-02-23T12:25:56Z</time>
      </trkpt>
      <trkpt lat="43.78132" lon="3.81952">
        <ele>271.6</ele>
        <time>2024-02-23T12:25:57Z</time>
      </trkpt>
      <trkpt lat="43.78132" lon="3.81952">
        <ele>272</ele>
        <time>2024-02-23T12:25:58Z</time>
      </trkpt>
      <trkpt lat="43.78132" lon="3.81952">
        <ele>272.4</ele>
        <time>2024-02-23T12:25:59Z</time>
      </trkpt>
      <trkpt lat="43.78129" lon="3.81954">
        <ele>272.8</ele>
        <time>2024-02-23T12:26:00Z</time>
      </trkpt>
      <trkpt lat="43.78129" lon="3.81954">
        <ele>273</ele>
        <time>2024-02-23T12:26:01Z</time>
      </trkpt>
      <trkpt lat="43.78128" lon="3.81957">
        <ele>273.2</ele>
        <time>2024-02-23T12:26:02Z</time>
      </trkpt>
      <trkpt lat="43.78128" lon="3.81957">
        <ele>273.4</ele>
        <time>2024-02-23T12:26:03Z</time>
      </trkpt>
      <trkpt lat="43.78128" lon="3.81957">
        <ele>273.6</ele>
        <time>2024-02-23T12:26:04Z</time>
      </trkpt>
      <trkpt lat="43.78128" lon="3.81957">
        <ele>274</ele>
        <time>2024-02-23T12:26:05Z</time>
      </trkpt>
      <trkpt lat="43.78125" lon="3.8196">
        <ele>274.2</ele>
        <time>2024-02-23T12:26:06Z</time>
      </trkpt>
      <trkpt lat="43.78124" lon="3.81961">
        <ele>274.6</ele>
        <time>2024-02-23T12:26:07Z</time>
      </trkpt>
      <trkpt lat="43.78124" lon="3.81961">
        <ele>274.8</ele>
        <time>2024-02-23T12:26:08Z</time>
      </trkpt>
      <trkpt lat="43.78121" lon="3.81963">
        <ele>275</ele>
        <time>2024-02-23T12:26:09Z</time>
      </trkpt>
      <trkpt lat="43.78119" lon="3.81964">
        <ele>275</ele>
        <time>2024-02-23T12:26:10Z</time>
      </trkpt>
      <trkpt lat="43.78117" lon="3.81964">
        <ele>275.2</ele>
        <time>2024-02-23T12:26:11Z</time>
      </trkpt>
      <trkpt lat="43.78115" lon="3.81964">
        <ele>275.4</ele>
        <time>2024-02-23T12:26:12Z</time>
      </trkpt>
      <trkpt lat="43.78115" lon="3.81964">
        <ele>275.6</ele>
        <time>2024-02-23T12:26:13Z</time>
      </trkpt>
      <trkpt lat="43.78113" lon="3.81966">
        <ele>275.8</ele>
        <time>2024-02-23T12:26:14Z</time>
      </trkpt>
      <trkpt lat="43.78113" lon="3.81966">
        <ele>276</ele>
        <time>2024-02-23T12:26:15Z</time>
      </trkpt>
      <trkpt lat="43.7811" lon="3.81968">
        <ele>276.2</ele>
        <time>2024-02-23T12:26:16Z</time>
      </trkpt>
      <trkpt lat="43.78107" lon="3.81969">
        <ele>276.4</ele>
        <time>2024-02-23T12:26:17Z</time>
      </trkpt>
      <trkpt lat="43.78104" lon="3.8197">
        <ele>276.6</ele>
        <time>2024-02-23T12:26:18Z</time>
      </trkpt>
      <trkpt lat="43.78102" lon="3.81971">
        <ele>276.8</ele>
        <time>2024-02-23T12:26:19Z</time>
      </trkpt>
      <trkpt lat="43.78102" lon="3.81971">
        <ele>277</ele>
        <time>2024-02-23T12:26:20Z</time>
      </trkpt>
      <trkpt lat="43.781" lon="3.81969">
        <ele>277.2</ele>
        <time>2024-02-23T12:26:21Z</time>
      </trkpt>
      <trkpt lat="43.781" lon="3.81969">
        <ele>277.6</ele>
        <time>2024-02-23T12:26:22Z</time>
      </trkpt>
      <trkpt lat="43.781" lon="3.81969">
        <ele>277.8</ele>
        <time>2024-02-23T12:26:23Z</time>
      </trkpt>
      <trkpt lat="43.78099" lon="3.81967">
        <ele>278</ele>
        <time>2024-02-23T12:26:24Z</time>
      </trkpt>
      <trkpt lat="43.78099" lon="3.81967">
        <ele>278.4</ele>
        <time>2024-02-23T12:26:25Z</time>
      </trkpt>
      <trkpt lat="43.78099" lon="3.81967">
        <ele>278.6</ele>
        <time>2024-02-23T12:26:26Z</time>
      </trkpt>
      <trkpt lat="43.78099" lon="3.81967">
        <ele>279.2</ele>
        <time>2024-02-23T12:26:27Z</time>
      </trkpt>
      <trkpt lat="43.78097" lon="3.81965">
        <ele>279.6</ele>
        <time>2024-02-23T12:26:28Z</time>
      </trkpt>
      <trkpt lat="43.78097" lon="3.81965">
        <ele>280.2</ele>
        <time>2024-02-23T12:26:29Z</time>
      </trkpt>
      <trkpt lat="43.78095" lon="3.81967">
        <ele>280.6</ele>
        <time>2024-02-23T12:26:30Z</time>
      </trkpt>
      <trkpt lat="43.78095" lon="3.81967">
        <ele>281</ele>
        <time>2024-02-23T12:26:31Z</time>
      </trkpt>
      <trkpt lat="43.78092" lon="3.81968">
        <ele>281.2</ele>
        <time>2024-02-23T12:26:32Z</time>
      </trkpt>
      <trkpt lat="43.78092" lon="3.81968">
        <ele>281.4</ele>
        <time>2024-02-23T12:26:33Z</time>
      </trkpt>
      <trkpt lat="43.78091" lon="3.81971">
        <ele>281.6</ele>
        <time>2024-02-23T12:26:34Z</time>
      </trkpt>
      <trkpt lat="43.78091" lon="3.81971">
        <ele>282</ele>
        <time>2024-02-23T12:26:35Z</time>
      </trkpt>
      <trkpt lat="43.78091" lon="3.81971">
        <ele>282.2</ele>
        <time>2024-02-23T12:26:36Z</time>
      </trkpt>
      <trkpt lat="43.78088" lon="3.8197">
        <ele>282.4</ele>
        <time>2024-02-23T12:26:37Z</time>
      </trkpt>
      <trkpt lat="43.78088" lon="3.8197">
        <ele>282.8</ele>
        <time>2024-02-23T12:26:38Z</time>
      </trkpt>
      <trkpt lat="43.78086" lon="3.81969">
        <ele>283</ele>
        <time>2024-02-23T12:26:39Z</time>
      </trkpt>
      <trkpt lat="43.78086" lon="3.81969">
        <ele>283.4</ele>
        <time>2024-02-23T12:26:40Z</time>
      </trkpt>
      <trkpt lat="43.78084" lon="3.8197">
        <ele>283.6</ele>
        <time>2024-02-23T12:26:41Z</time>
      </trkpt>
      <trkpt lat="43.78084" lon="3.8197">
        <ele>284</ele>
        <time>2024-02-23T12:26:42Z</time>
      </trkpt>
      <trkpt lat="43.78082" lon="3.81971">
        <ele>284.2</ele>
        <time>2024-02-23T12:26:43Z</time>
      </trkpt>
      <trkpt lat="43.78082" lon="3.81971">
        <ele>284.6</ele>
        <time>2024-02-23T12:26:44Z</time>
      </trkpt>
      <trkpt lat="43.78079" lon="3.81972">
        <ele>284.8</ele>
        <time>2024-02-23T12:26:45Z</time>
      </trkpt>
      <trkpt lat="43.78079" lon="3.81972">
        <ele>285</ele>
        <time>2024-02-23T12:26:46Z</time>
      </trkpt>
      <trkpt lat="43.78077" lon="3.81972">
        <ele>285.4</ele>
        <time>2024-02-23T12:26:47Z</time>
      </trkpt>
      <trkpt lat="43.78077" lon="3.81972">
        <ele>285.6</ele>
        <time>2024-02-23T12:26:48Z</time>
      </trkpt>
      <trkpt lat="43.78074" lon="3.81973">
        <ele>285.8</ele>
        <time>2024-02-23T12:26:49Z</time>
      </trkpt>
      <trkpt lat="43.78074" lon="3.81973">
        <ele>286.2</ele>
        <time>2024-02-23T12:26:50Z</time>
      </trkpt>
      <trkpt lat="43.78074" lon="3.81973">
        <ele>286.4</ele>
        <time>2024-02-23T12:26:51Z</time>
      </trkpt>
      <trkpt lat="43.78074" lon="3.81973">
        <ele>286.6</ele>
        <time>2024-02-23T12:26:52Z</time>
      </trkpt>
      <trkpt lat="43.78072" lon="3.81974">
        <ele>287</ele>
        <time>2024-02-23T12:26:53Z</time>
      </trkpt>
      <trkpt lat="43.78072" lon="3.81974">
        <ele>287.2</ele>
        <time>2024-02-23T12:26:54Z</time>
      </trkpt>
      <trkpt lat="43.78072" lon="3.81974">
        <ele>287.4</ele>
        <time>2024-02-23T12:26:55Z</time>
      </trkpt>
      <trkpt lat="43.78072" lon="3.81978">
        <ele>287.6</ele>
        <time>2024-02-23T12:26:56Z</time>
      </trkpt>
      <trkpt lat="43.78072" lon="3.81978">
        <ele>288</ele>
        <time>2024-02-23T12:26:57Z</time>
      </trkpt>
      <trkpt lat="43.7807" lon="3.8198">
        <ele>288.2</ele>
        <time>2024-02-23T12:26:58Z</time>
      </trkpt>
      <trkpt lat="43.7807" lon="3.8198">
        <ele>288.4</ele>
        <time>2024-02-23T12:26:59Z</time>
      </trkpt>
      <trkpt lat="43.78068" lon="3.81981">
        <ele>288.6</ele>
        <time>2024-02-23T12:27:00Z</time>
      </trkpt>
      <trkpt lat="43.78068" lon="3.81981">
        <ele>288.8</ele>
        <time>2024-02-23T12:27:01Z</time>
      </trkpt>
      <trkpt lat="43.78066" lon="3.81984">
        <ele>289</ele>
        <time>2024-02-23T12:27:02Z</time>
      </trkpt>
      <trkpt lat="43.78066" lon="3.81984">
        <ele>289.2</ele>
        <time>2024-02-23T12:27:03Z</time>
      </trkpt>
      <trkpt lat="43.78064" lon="3.81988">
        <ele>289.6</ele>
        <time>2024-02-23T12:27:04Z</time>
      </trkpt>
      <trkpt lat="43.78063" lon="3.8199">
        <ele>289.8</ele>
        <time>2024-02-23T12:27:05Z</time>
      </trkpt>
      <trkpt lat="43.78061" lon="3.81992">
        <ele>290</ele>
        <time>2024-02-23T12:27:06Z</time>
      </trkpt>
      <trkpt lat="43.7806" lon="3.81995">
        <ele>290</ele>
        <time>2024-02-23T12:27:07Z</time>
      </trkpt>
      <trkpt lat="43.78059" lon="3.81996">
        <ele>290</ele>
        <time>2024-02-23T12:27:08Z</time>
      </trkpt>
      <trkpt lat="43.78059" lon="3.81996">
        <ele>290</ele>
        <time>2024-02-23T12:27:09Z</time>
      </trkpt>
      <trkpt lat="43.78056" lon="3.82">
        <ele>290.2</ele>
        <time>2024-02-23T12:27:10Z</time>
      </trkpt>
      <trkpt lat="43.78055" lon="3.82002">
        <ele>290.4</ele>
        <time>2024-02-23T12:27:11Z</time>
      </trkpt>
      <trkpt lat="43.78054" lon="3.82005">
        <ele>290.4</ele>
        <time>2024-02-23T12:27:12Z</time>
      </trkpt>
      <trkpt lat="43.78053" lon="3.82007">
        <ele>290.4</ele>
        <time>2024-02-23T12:27:13Z</time>
      </trkpt>
      <trkpt lat="43.78052" lon="3.8201">
        <ele>290.4</ele>
        <time>2024-02-23T12:27:14Z</time>
      </trkpt>
      <trkpt lat="43.78051" lon="3.82013">
        <ele>290.2</ele>
        <time>2024-02-23T12:27:15Z</time>
      </trkpt>
      <trkpt lat="43.78051" lon="3.82017">
        <ele>290</ele>
        <time>2024-02-23T12:27:16Z</time>
      </trkpt>
      <trkpt lat="43.7805" lon="3.8202">
        <ele>289.8</ele>
        <time>2024-02-23T12:27:17Z</time>
      </trkpt>
      <trkpt lat="43.78048" lon="3.82023">
        <ele>289.6</ele>
        <time>2024-02-23T12:27:18Z</time>
      </trkpt>
      <trkpt lat="43.78047" lon="3.82026">
        <ele>289.4</ele>
        <time>2024-02-23T12:27:19Z</time>
      </trkpt>
      <trkpt lat="43.78046" lon="3.82029">
        <ele>289.2</ele>
        <time>2024-02-23T12:27:20Z</time>
      </trkpt>
      <trkpt lat="43.78046" lon="3.82033">
        <ele>289</ele>
        <time>2024-02-23T12:27:21Z</time>
      </trkpt>
      <trkpt lat="43.78046" lon="3.82037">
        <ele>288.6</ele>
        <time>2024-02-23T12:27:22Z</time>
      </trkpt>
      <trkpt lat="43.78046" lon="3.82041">
        <ele>288.4</ele>
        <time>2024-02-23T12:27:23Z</time>
      </trkpt>
      <trkpt lat="43.78045" lon="3.82044">
        <ele>288.2</ele>
        <time>2024-02-23T12:27:24Z</time>
      </trkpt>
      <trkpt lat="43.78045" lon="3.82046">
        <ele>288</ele>
        <time>2024-02-23T12:27:25Z</time>
      </trkpt>
      <trkpt lat="43.78044" lon="3.82049">
        <ele>288</ele>
        <time>2024-02-23T12:27:26Z</time>
      </trkpt>
      <trkpt lat="43.78042" lon="3.82052">
        <ele>288</ele>
        <time>2024-02-23T12:27:27Z</time>
      </trkpt>
      <trkpt lat="43.78041" lon="3.82055">
        <ele>288</ele>
        <time>2024-02-23T12:27:28Z</time>
      </trkpt>
      <trkpt lat="43.7804" lon="3.8206">
        <ele>288</ele>
        <time>2024-02-23T12:27:29Z</time>
      </trkpt>
      <trkpt lat="43.78038" lon="3.82065">
        <ele>288</ele>
        <time>2024-02-23T12:27:30Z</time>
      </trkpt>
      <trkpt lat="43.78037" lon="3.82069">
        <ele>287.8</ele>
        <time>2024-02-23T12:27:31Z</time>
      </trkpt>
      <trkpt lat="43.78035" lon="3.82073">
        <ele>287.6</ele>
        <time>2024-02-23T12:27:32Z</time>
      </trkpt>
      <trkpt lat="43.78034" lon="3.82076">
        <ele>287.6</ele>
        <time>2024-02-23T12:27:33Z</time>
      </trkpt>
      <trkpt lat="43.78032" lon="3.8208">
        <ele>287.6</ele>
        <time>2024-02-23T12:27:34Z</time>
      </trkpt>
      <trkpt lat="43.7803" lon="3.82083">
        <ele>287.6</ele>
        <time>2024-02-23T12:27:35Z</time>
      </trkpt>
      <trkpt lat="43.78029" lon="3.82087">
        <ele>287.6</ele>
        <time>2024-02-23T12:27:36Z</time>
      </trkpt>
      <trkpt lat="43.78027" lon="3.8209">
        <ele>287.8</ele>
        <time>2024-02-23T12:27:37Z</time>
      </trkpt>
      <trkpt lat="43.78027" lon="3.82094">
        <ele>288</ele>
        <time>2024-02-23T12:27:38Z</time>
      </trkpt>
      <trkpt lat="43.78027" lon="3.82098">
        <ele>288</ele>
        <time>2024-02-23T12:27:39Z</time>
      </trkpt>
      <trkpt lat="43.78026" lon="3.82101">
        <ele>287.8</ele>
        <time>2024-02-23T12:27:40Z</time>
      </trkpt>
      <trkpt lat="43.78026" lon="3.82105">
        <ele>287.8</ele>
        <time>2024-02-23T12:27:41Z</time>
      </trkpt>
      <trkpt lat="43.78025" lon="3.82109">
        <ele>287.8</ele>
        <time>2024-02-23T12:27:42Z</time>
      </trkpt>
      <trkpt lat="43.78024" lon="3.82113">
        <ele>287.8</ele>
        <time>2024-02-23T12:27:43Z</time>
      </trkpt>
      <trkpt lat="43.78023" lon="3.82117">
        <ele>287.8</ele>
        <time>2024-02-23T12:27:44Z</time>
      </trkpt>
      <trkpt lat="43.78021" lon="3.8212">
        <ele>287.8</ele>
        <time>2024-02-23T12:27:45Z</time>
      </trkpt>
      <trkpt lat="43.78019" lon="3.82123">
        <ele>287.6</ele>
        <time>2024-02-23T12:27:46Z</time>
      </trkpt>
      <trkpt lat="43.78018" lon="3.82126">
        <ele>287.6</ele>
        <time>2024-02-23T12:27:47Z</time>
      </trkpt>
      <trkpt lat="43.78017" lon="3.82129">
        <ele>287.4</ele>
        <time>2024-02-23T12:27:48Z</time>
      </trkpt>
      <trkpt lat="43.78015" lon="3.82131">
        <ele>287.4</ele>
        <time>2024-02-23T12:27:49Z</time>
      </trkpt>
      <trkpt lat="43.78013" lon="3.82133">
        <ele>287.2</ele>
        <time>2024-02-23T12:27:50Z</time>
      </trkpt>
      <trkpt lat="43.7801" lon="3.82134">
        <ele>287.2</ele>
        <time>2024-02-23T12:27:51Z</time>
      </trkpt>
      <trkpt lat="43.78008" lon="3.82134">
        <ele>287</ele>
        <time>2024-02-23T12:27:52Z</time>
      </trkpt>
      <trkpt lat="43.78005" lon="3.82135">
        <ele>287</ele>
        <time>2024-02-23T12:27:53Z</time>
      </trkpt>
      <trkpt lat="43.78003" lon="3.82135">
        <ele>287</ele>
        <time>2024-02-23T12:27:54Z</time>
      </trkpt>
      <trkpt lat="43.78001" lon="3.82135">
        <ele>287.2</ele>
        <time>2024-02-23T12:27:55Z</time>
      </trkpt>
      <trkpt lat="43.78001" lon="3.82135">
        <ele>287.2</ele>
        <time>2024-02-23T12:27:56Z</time>
      </trkpt>
      <trkpt lat="43.78001" lon="3.82135">
        <ele>287.2</ele>
        <time>2024-02-23T12:27:57Z</time>
      </trkpt>
      <trkpt lat="43.77999" lon="3.82137">
        <ele>287.4</ele>
        <time>2024-02-23T12:27:58Z</time>
      </trkpt>
      <trkpt lat="43.77997" lon="3.82138">
        <ele>287.4</ele>
        <time>2024-02-23T12:27:59Z</time>
      </trkpt>
      <trkpt lat="43.77997" lon="3.82138">
        <ele>287.6</ele>
        <time>2024-02-23T12:28:00Z</time>
      </trkpt>
      <trkpt lat="43.77995" lon="3.8214">
        <ele>287.8</ele>
        <time>2024-02-23T12:28:01Z</time>
      </trkpt>
      <trkpt lat="43.77995" lon="3.8214">
        <ele>288</ele>
        <time>2024-02-23T12:28:02Z</time>
      </trkpt>
      <trkpt lat="43.77993" lon="3.8214">
        <ele>288.2</ele>
        <time>2024-02-23T12:28:03Z</time>
      </trkpt>
      <trkpt lat="43.77993" lon="3.8214">
        <ele>288.4</ele>
        <time>2024-02-23T12:28:04Z</time>
      </trkpt>
      <trkpt lat="43.77993" lon="3.8214">
        <ele>288.8</ele>
        <time>2024-02-23T12:28:05Z</time>
      </trkpt>
      <trkpt lat="43.7799" lon="3.82142">
        <ele>289</ele>
        <time>2024-02-23T12:28:06Z</time>
      </trkpt>
      <trkpt lat="43.7799" lon="3.82142">
        <ele>289.4</ele>
        <time>2024-02-23T12:28:07Z</time>
      </trkpt>
      <trkpt lat="43.77987" lon="3.82143">
        <ele>289.8</ele>
        <time>2024-02-23T12:28:08Z</time>
      </trkpt>
      <trkpt lat="43.77987" lon="3.82143">
        <ele>290.2</ele>
        <time>2024-02-23T12:28:09Z</time>
      </trkpt>
      <trkpt lat="43.77985" lon="3.82146">
        <ele>290.4</ele>
        <time>2024-02-23T12:28:10Z</time>
      </trkpt>
      <trkpt lat="43.77985" lon="3.82146">
        <ele>290.6</ele>
        <time>2024-02-23T12:28:11Z</time>
      </trkpt>
      <trkpt lat="43.77982" lon="3.82148">
        <ele>291</ele>
        <time>2024-02-23T12:28:12Z</time>
      </trkpt>
      <trkpt lat="43.77982" lon="3.82148">
        <ele>291.4</ele>
        <time>2024-02-23T12:28:13Z</time>
      </trkpt>
      <trkpt lat="43.7798" lon="3.8215">
        <ele>291.6</ele>
        <time>2024-02-23T12:28:14Z</time>
      </trkpt>
      <trkpt lat="43.77978" lon="3.82151">
        <ele>292</ele>
        <time>2024-02-23T12:28:15Z</time>
      </trkpt>
      <trkpt lat="43.77976" lon="3.82152">
        <ele>292.4</ele>
        <time>2024-02-23T12:28:16Z</time>
      </trkpt>
      <trkpt lat="43.77974" lon="3.82153">
        <ele>292.8</ele>
        <time>2024-02-23T12:28:17Z</time>
      </trkpt>
      <trkpt lat="43.77972" lon="3.82153">
        <ele>293</ele>
        <time>2024-02-23T12:28:18Z</time>
      </trkpt>
      <trkpt lat="43.7797" lon="3.82154">
        <ele>293.2</ele>
        <time>2024-02-23T12:28:19Z</time>
      </trkpt>
      <trkpt lat="43.7797" lon="3.82154">
        <ele>293.4</ele>
        <time>2024-02-23T12:28:20Z</time>
      </trkpt>
      <trkpt lat="43.77967" lon="3.82155">
        <ele>293.6</ele>
        <time>2024-02-23T12:28:21Z</time>
      </trkpt>
      <trkpt lat="43.77967" lon="3.82155">
        <ele>293.8</ele>
        <time>2024-02-23T12:28:22Z</time>
      </trkpt>
      <trkpt lat="43.77965" lon="3.82156">
        <ele>294</ele>
        <time>2024-02-23T12:28:23Z</time>
      </trkpt>
      <trkpt lat="43.77965" lon="3.82156">
        <ele>294.2</ele>
        <time>2024-02-23T12:28:24Z</time>
      </trkpt>
      <trkpt lat="43.77961" lon="3.82158">
        <ele>294.4</ele>
        <time>2024-02-23T12:28:25Z</time>
      </trkpt>
      <trkpt lat="43.77961" lon="3.82161">
        <ele>294.6</ele>
        <time>2024-02-23T12:28:26Z</time>
      </trkpt>
      <trkpt lat="43.7796" lon="3.82164">
        <ele>294.8</ele>
        <time>2024-02-23T12:28:27Z</time>
      </trkpt>
      <trkpt lat="43.7796" lon="3.82164">
        <ele>295</ele>
        <time>2024-02-23T12:28:28Z</time>
      </trkpt>
      <trkpt lat="43.77958" lon="3.82166">
        <ele>295.2</ele>
        <time>2024-02-23T12:28:29Z</time>
      </trkpt>
      <trkpt lat="43.77958" lon="3.82166">
        <ele>295.4</ele>
        <time>2024-02-23T12:28:30Z</time>
      </trkpt>
      <trkpt lat="43.77955" lon="3.82168">
        <ele>295.8</ele>
        <time>2024-02-23T12:28:31Z</time>
      </trkpt>
      <trkpt lat="43.77955" lon="3.82168">
        <ele>296</ele>
        <time>2024-02-23T12:28:32Z</time>
      </trkpt>
      <trkpt lat="43.77952" lon="3.82172">
        <ele>296.2</ele>
        <time>2024-02-23T12:28:33Z</time>
      </trkpt>
      <trkpt lat="43.77952" lon="3.82172">
        <ele>296.6</ele>
        <time>2024-02-23T12:28:34Z</time>
      </trkpt>
      <trkpt lat="43.77949" lon="3.82174">
        <ele>296.8</ele>
        <time>2024-02-23T12:28:35Z</time>
      </trkpt>
      <trkpt lat="43.77949" lon="3.82174">
        <ele>297.2</ele>
        <time>2024-02-23T12:28:36Z</time>
      </trkpt>
      <trkpt lat="43.77948" lon="3.82174">
        <ele>297.6</ele>
        <time>2024-02-23T12:28:37Z</time>
      </trkpt>
      <trkpt lat="43.77948" lon="3.82174">
        <ele>297.8</ele>
        <time>2024-02-23T12:28:38Z</time>
      </trkpt>
      <trkpt lat="43.77945" lon="3.82175">
        <ele>298</ele>
        <time>2024-02-23T12:28:39Z</time>
      </trkpt>
      <trkpt lat="43.77945" lon="3.82175">
        <ele>298.4</ele>
        <time>2024-02-23T12:28:40Z</time>
      </trkpt>
      <trkpt lat="43.77942" lon="3.82177">
        <ele>298.6</ele>
        <time>2024-02-23T12:28:41Z</time>
      </trkpt>
      <trkpt lat="43.77942" lon="3.82177">
        <ele>298.8</ele>
        <time>2024-02-23T12:28:42Z</time>
      </trkpt>
      <trkpt lat="43.77939" lon="3.8218">
        <ele>299</ele>
        <time>2024-02-23T12:28:43Z</time>
      </trkpt>
      <trkpt lat="43.77937" lon="3.82182">
        <ele>299.2</ele>
        <time>2024-02-23T12:28:44Z</time>
      </trkpt>
      <trkpt lat="43.77935" lon="3.82182">
        <ele>299.4</ele>
        <time>2024-02-23T12:28:45Z</time>
      </trkpt>
      <trkpt lat="43.77935" lon="3.82182">
        <ele>299.6</ele>
        <time>2024-02-23T12:28:46Z</time>
      </trkpt>
      <trkpt lat="43.77935" lon="3.82182">
        <ele>299.8</ele>
        <time>2024-02-23T12:28:47Z</time>
      </trkpt>
      <trkpt lat="43.77933" lon="3.82185">
        <ele>300.2</ele>
        <time>2024-02-23T12:28:48Z</time>
      </trkpt>
      <trkpt lat="43.77933" lon="3.82185">
        <ele>300.4</ele>
        <time>2024-02-23T12:28:49Z</time>
      </trkpt>
      <trkpt lat="43.77931" lon="3.82187">
        <ele>300.4</ele>
        <time>2024-02-23T12:28:50Z</time>
      </trkpt>
      <trkpt lat="43.77928" lon="3.82188">
        <ele>300.6</ele>
        <time>2024-02-23T12:28:51Z</time>
      </trkpt>
      <trkpt lat="43.77926" lon="3.82189">
        <ele>301</ele>
        <time>2024-02-23T12:28:52Z</time>
      </trkpt>
      <trkpt lat="43.77924" lon="3.82191">
        <ele>301</ele>
        <time>2024-02-23T12:28:53Z</time>
      </trkpt>
      <trkpt lat="43.77921" lon="3.82192">
        <ele>301.2</ele>
        <time>2024-02-23T12:28:54Z</time>
      </trkpt>
      <trkpt lat="43.7792" lon="3.82194">
        <ele>301.4</ele>
        <time>2024-02-23T12:28:55Z</time>
      </trkpt>
      <trkpt lat="43.77917" lon="3.82195">
        <ele>301.6</ele>
        <time>2024-02-23T12:28:56Z</time>
      </trkpt>
      <trkpt lat="43.77916" lon="3.82196">
        <ele>301.8</ele>
        <time>2024-02-23T12:28:57Z</time>
      </trkpt>
      <trkpt lat="43.77914" lon="3.82197">
        <ele>302</ele>
        <time>2024-02-23T12:28:58Z</time>
      </trkpt>
      <trkpt lat="43.77914" lon="3.82197">
        <ele>302.2</ele>
        <time>2024-02-23T12:28:59Z</time>
      </trkpt>
      <trkpt lat="43.7791" lon="3.82199">
        <ele>302.4</ele>
        <time>2024-02-23T12:29:00Z</time>
      </trkpt>
      <trkpt lat="43.77908" lon="3.822">
        <ele>302.6</ele>
        <time>2024-02-23T12:29:01Z</time>
      </trkpt>
      <trkpt lat="43.77906" lon="3.82201">
        <ele>302.8</ele>
        <time>2024-02-23T12:29:02Z</time>
      </trkpt>
      <trkpt lat="43.77904" lon="3.82201">
        <ele>303</ele>
        <time>2024-02-23T12:29:03Z</time>
      </trkpt>
      <trkpt lat="43.77902" lon="3.82203">
        <ele>303.4</ele>
        <time>2024-02-23T12:29:04Z</time>
      </trkpt>
      <trkpt lat="43.779" lon="3.82204">
        <ele>303.6</ele>
        <time>2024-02-23T12:29:05Z</time>
      </trkpt>
      <trkpt lat="43.77898" lon="3.82205">
        <ele>303.8</ele>
        <time>2024-02-23T12:29:06Z</time>
      </trkpt>
      <trkpt lat="43.77898" lon="3.82205">
        <ele>304</ele>
        <time>2024-02-23T12:29:07Z</time>
      </trkpt>
      <trkpt lat="43.77895" lon="3.82208">
        <ele>304</ele>
        <time>2024-02-23T12:29:08Z</time>
      </trkpt>
      <trkpt lat="43.77893" lon="3.8221">
        <ele>304.2</ele>
        <time>2024-02-23T12:29:09Z</time>
      </trkpt>
      <trkpt lat="43.77892" lon="3.82212">
        <ele>304.2</ele>
        <time>2024-02-23T12:29:10Z</time>
      </trkpt>
      <trkpt lat="43.7789" lon="3.82213">
        <ele>304.4</ele>
        <time>2024-02-23T12:29:11Z</time>
      </trkpt>
      <trkpt lat="43.77888" lon="3.82215">
        <ele>304.6</ele>
        <time>2024-02-23T12:29:12Z</time>
      </trkpt>
      <trkpt lat="43.77888" lon="3.82215">
        <ele>305</ele>
        <time>2024-02-23T12:29:13Z</time>
      </trkpt>
      <trkpt lat="43.77885" lon="3.82218">
        <ele>305.2</ele>
        <time>2024-02-23T12:29:14Z</time>
      </trkpt>
      <trkpt lat="43.77885" lon="3.82218">
        <ele>305.4</ele>
        <time>2024-02-23T12:29:15Z</time>
      </trkpt>
      <trkpt lat="43.77882" lon="3.82219">
        <ele>305.6</ele>
        <time>2024-02-23T12:29:16Z</time>
      </trkpt>
      <trkpt lat="43.77882" lon="3.82219">
        <ele>305.8</ele>
        <time>2024-02-23T12:29:17Z</time>
      </trkpt>
      <trkpt lat="43.77879" lon="3.8222">
        <ele>306.2</ele>
        <time>2024-02-23T12:29:18Z</time>
      </trkpt>
      <trkpt lat="43.77879" lon="3.8222">
        <ele>306.4</ele>
        <time>2024-02-23T12:29:19Z</time>
      </trkpt>
      <trkpt lat="43.77877" lon="3.82223">
        <ele>306.8</ele>
        <time>2024-02-23T12:29:20Z</time>
      </trkpt>
      <trkpt lat="43.77875" lon="3.82223">
        <ele>307</ele>
        <time>2024-02-23T12:29:21Z</time>
      </trkpt>
      <trkpt lat="43.77872" lon="3.82224">
        <ele>307.2</ele>
        <time>2024-02-23T12:29:22Z</time>
      </trkpt>
      <trkpt lat="43.7787" lon="3.82225">
        <ele>307.4</ele>
        <time>2024-02-23T12:29:23Z</time>
      </trkpt>
      <trkpt lat="43.77868" lon="3.82227">
        <ele>307.6</ele>
        <time>2024-02-23T12:29:24Z</time>
      </trkpt>
      <trkpt lat="43.77866" lon="3.82229">
        <ele>307.8</ele>
        <time>2024-02-23T12:29:25Z</time>
      </trkpt>
      <trkpt lat="43.77866" lon="3.82229">
        <ele>308</ele>
        <time>2024-02-23T12:29:26Z</time>
      </trkpt>
      <trkpt lat="43.77863" lon="3.82232">
        <ele>308.2</ele>
        <time>2024-02-23T12:29:27Z</time>
      </trkpt>
      <trkpt lat="43.77861" lon="3.82232">
        <ele>308.4</ele>
        <time>2024-02-23T12:29:28Z</time>
      </trkpt>
      <trkpt lat="43.77861" lon="3.82232">
        <ele>308.6</ele>
        <time>2024-02-23T12:29:29Z</time>
      </trkpt>
      <trkpt lat="43.77858" lon="3.82233">
        <ele>308.8</ele>
        <time>2024-02-23T12:29:30Z</time>
      </trkpt>
      <trkpt lat="43.77856" lon="3.82234">
        <ele>309.2</ele>
        <time>2024-02-23T12:29:31Z</time>
      </trkpt>
      <trkpt lat="43.77854" lon="3.82234">
        <ele>309.4</ele>
        <time>2024-02-23T12:29:32Z</time>
      </trkpt>
      <trkpt lat="43.77852" lon="3.82235">
        <ele>309.6</ele>
        <time>2024-02-23T12:29:33Z</time>
      </trkpt>
      <trkpt lat="43.7785" lon="3.82236">
        <ele>309.8</ele>
        <time>2024-02-23T12:29:34Z</time>
      </trkpt>
      <trkpt lat="43.77848" lon="3.82237">
        <ele>310.2</ele>
        <time>2024-02-23T12:29:35Z</time>
      </trkpt>
      <trkpt lat="43.77848" lon="3.82237">
        <ele>310.4</ele>
        <time>2024-02-23T12:29:36Z</time>
      </trkpt>
      <trkpt lat="43.77844" lon="3.82237">
        <ele>310.6</ele>
        <time>2024-02-23T12:29:37Z</time>
      </trkpt>
      <trkpt lat="43.77842" lon="3.82238">
        <ele>310.8</ele>
        <time>2024-02-23T12:29:38Z</time>
      </trkpt>
      <trkpt lat="43.77842" lon="3.82241">
        <ele>311.2</ele>
        <time>2024-02-23T12:29:39Z</time>
      </trkpt>
      <trkpt lat="43.7784" lon="3.82243">
        <ele>311.4</ele>
        <time>2024-02-23T12:29:40Z</time>
      </trkpt>
      <trkpt lat="43.77837" lon="3.82245">
        <ele>311.8</ele>
        <time>2024-02-23T12:29:41Z</time>
      </trkpt>
      <trkpt lat="43.77836" lon="3.82247">
        <ele>312</ele>
        <time>2024-02-23T12:29:42Z</time>
      </trkpt>
      <trkpt lat="43.77834" lon="3.82249">
        <ele>312</ele>
        <time>2024-02-23T12:29:43Z</time>
      </trkpt>
      <trkpt lat="43.77832" lon="3.82251">
        <ele>312.2</ele>
        <time>2024-02-23T12:29:44Z</time>
      </trkpt>
      <trkpt lat="43.7783" lon="3.82253">
        <ele>312.4</ele>
        <time>2024-02-23T12:29:45Z</time>
      </trkpt>
      <trkpt lat="43.77828" lon="3.82256">
        <ele>312.6</ele>
        <time>2024-02-23T12:29:46Z</time>
      </trkpt>
      <trkpt lat="43.77825" lon="3.82258">
        <ele>312.8</ele>
        <time>2024-02-23T12:29:47Z</time>
      </trkpt>
      <trkpt lat="43.77822" lon="3.82258">
        <ele>313</ele>
        <time>2024-02-23T12:29:48Z</time>
      </trkpt>
      <trkpt lat="43.7782" lon="3.82258">
        <ele>313</ele>
        <time>2024-02-23T12:29:49Z</time>
      </trkpt>
      <trkpt lat="43.77817" lon="3.82259">
        <ele>313.2</ele>
        <time>2024-02-23T12:29:50Z</time>
      </trkpt>
      <trkpt lat="43.77815" lon="3.82262">
        <ele>313.4</ele>
        <time>2024-02-23T12:29:51Z</time>
      </trkpt>
      <trkpt lat="43.77815" lon="3.82262">
        <ele>313.4</ele>
        <time>2024-02-23T12:29:52Z</time>
      </trkpt>
      <trkpt lat="43.77811" lon="3.82265">
        <ele>313.6</ele>
        <time>2024-02-23T12:29:53Z</time>
      </trkpt>
      <trkpt lat="43.77808" lon="3.82266">
        <ele>313.6</ele>
        <time>2024-02-23T12:29:54Z</time>
      </trkpt>
      <trkpt lat="43.77806" lon="3.82267">
        <ele>313.8</ele>
        <time>2024-02-23T12:29:55Z</time>
      </trkpt>
      <trkpt lat="43.77806" lon="3.82267">
        <ele>313.8</ele>
        <time>2024-02-23T12:29:56Z</time>
      </trkpt>
      <trkpt lat="43.77803" lon="3.82267">
        <ele>314</ele>
        <time>2024-02-23T12:29:57Z</time>
      </trkpt>
      <trkpt lat="43.77803" lon="3.82267">
        <ele>314</ele>
        <time>2024-02-23T12:29:58Z</time>
      </trkpt>
      <trkpt lat="43.778" lon="3.82265">
        <ele>314.2</ele>
        <time>2024-02-23T12:29:59Z</time>
      </trkpt>
      <trkpt lat="43.77796" lon="3.82265">
        <ele>314.2</ele>
        <time>2024-02-23T12:30:00Z</time>
      </trkpt>
      <trkpt lat="43.77795" lon="3.82265">
        <ele>314.2</ele>
        <time>2024-02-23T12:30:01Z</time>
      </trkpt>
      <trkpt lat="43.77794" lon="3.82265">
        <ele>315</ele>
        <time>2024-02-23T12:30:02Z</time>
      </trkpt>
      <trkpt lat="43.77792" lon="3.82266">
        <ele>315.6</ele>
        <time>2024-02-23T12:30:05Z</time>
      </trkpt>
      <trkpt lat="43.7779" lon="3.82266">
        <ele>315.8</ele>
        <time>2024-02-23T12:30:06Z</time>
      </trkpt>
      <trkpt lat="43.77788" lon="3.82267">
        <ele>315.8</ele>
        <time>2024-02-23T12:30:07Z</time>
      </trkpt>
      <trkpt lat="43.77783" lon="3.82268">
        <ele>315.8</ele>
        <time>2024-02-23T12:30:08Z</time>
      </trkpt>
      <trkpt lat="43.77781" lon="3.82267">
        <ele>316</ele>
        <time>2024-02-23T12:30:09Z</time>
      </trkpt>
      <trkpt lat="43.77781" lon="3.82267">
        <ele>316.2</ele>
        <time>2024-02-23T12:30:10Z</time>
      </trkpt>
      <trkpt lat="43.77778" lon="3.82268">
        <ele>316.4</ele>
        <time>2024-02-23T12:30:11Z</time>
      </trkpt>
      <trkpt lat="43.77778" lon="3.82268">
        <ele>316.6</ele>
        <time>2024-02-23T12:30:12Z</time>
      </trkpt>
      <trkpt lat="43.77775" lon="3.82269">
        <ele>316.8</ele>
        <time>2024-02-23T12:30:13Z</time>
      </trkpt>
      <trkpt lat="43.77774" lon="3.82271">
        <ele>317</ele>
        <time>2024-02-23T12:30:14Z</time>
      </trkpt>
      <trkpt lat="43.77771" lon="3.82272">
        <ele>317.4</ele>
        <time>2024-02-23T12:30:15Z</time>
      </trkpt>
      <trkpt lat="43.77768" lon="3.82274">
        <ele>317.8</ele>
        <time>2024-02-23T12:30:16Z</time>
      </trkpt>
      <trkpt lat="43.77766" lon="3.82275">
        <ele>318</ele>
        <time>2024-02-23T12:30:17Z</time>
      </trkpt>
      <trkpt lat="43.77764" lon="3.82276">
        <ele>318.2</ele>
        <time>2024-02-23T12:30:18Z</time>
      </trkpt>
      <trkpt lat="43.77762" lon="3.82278">
        <ele>318.2</ele>
        <time>2024-02-23T12:30:19Z</time>
      </trkpt>
      <trkpt lat="43.77759" lon="3.8228">
        <ele>318.2</ele>
        <time>2024-02-23T12:30:20Z</time>
      </trkpt>
      <trkpt lat="43.77757" lon="3.82281">
        <ele>318.2</ele>
        <time>2024-02-23T12:30:21Z</time>
      </trkpt>
      <trkpt lat="43.77754" lon="3.82283">
        <ele>318.4</ele>
        <time>2024-02-23T12:30:22Z</time>
      </trkpt>
      <trkpt lat="43.77752" lon="3.82285">
        <ele>318.4</ele>
        <time>2024-02-23T12:30:23Z</time>
      </trkpt>
      <trkpt lat="43.7775" lon="3.82287">
        <ele>318.4</ele>
        <time>2024-02-23T12:30:24Z</time>
      </trkpt>
      <trkpt lat="43.77747" lon="3.82289">
        <ele>318.4</ele>
        <time>2024-02-23T12:30:25Z</time>
      </trkpt>
      <trkpt lat="43.77745" lon="3.8229">
        <ele>318.4</ele>
        <time>2024-02-23T12:30:26Z</time>
      </trkpt>
      <trkpt lat="43.77744" lon="3.82294">
        <ele>318.2</ele>
        <time>2024-02-23T12:30:27Z</time>
      </trkpt>
      <trkpt lat="43.77741" lon="3.82297">
        <ele>318</ele>
        <time>2024-02-23T12:30:28Z</time>
      </trkpt>
      <trkpt lat="43.77739" lon="3.82299">
        <ele>317.8</ele>
        <time>2024-02-23T12:30:29Z</time>
      </trkpt>
      <trkpt lat="43.77737" lon="3.823">
        <ele>317.8</ele>
        <time>2024-02-23T12:30:30Z</time>
      </trkpt>
      <trkpt lat="43.77737" lon="3.823">
        <ele>317.8</ele>
        <time>2024-02-23T12:30:31Z</time>
      </trkpt>
      <trkpt lat="43.77734" lon="3.82302">
        <ele>318</ele>
        <time>2024-02-23T12:30:32Z</time>
      </trkpt>
      <trkpt lat="43.77733" lon="3.82304">
        <ele>318.2</ele>
        <time>2024-02-23T12:30:33Z</time>
      </trkpt>
      <trkpt lat="43.77732" lon="3.82307">
        <ele>318.4</ele>
        <time>2024-02-23T12:30:34Z</time>
      </trkpt>
      <trkpt lat="43.7773" lon="3.82311">
        <ele>318.6</ele>
        <time>2024-02-23T12:30:35Z</time>
      </trkpt>
      <trkpt lat="43.77728" lon="3.82313">
        <ele>318.6</ele>
        <time>2024-02-23T12:30:36Z</time>
      </trkpt>
      <trkpt lat="43.77726" lon="3.82317">
        <ele>318.8</ele>
        <time>2024-02-23T12:30:37Z</time>
      </trkpt>
      <trkpt lat="43.77723" lon="3.8232">
        <ele>318.8</ele>
        <time>2024-02-23T12:30:38Z</time>
      </trkpt>
      <trkpt lat="43.77721" lon="3.82323">
        <ele>318.8</ele>
        <time>2024-02-23T12:30:39Z</time>
      </trkpt>
      <trkpt lat="43.77718" lon="3.82326">
        <ele>318.8</ele>
        <time>2024-02-23T12:30:40Z</time>
      </trkpt>
      <trkpt lat="43.77716" lon="3.82328">
        <ele>319</ele>
        <time>2024-02-23T12:30:41Z</time>
      </trkpt>
      <trkpt lat="43.77714" lon="3.82331">
        <ele>319</ele>
        <time>2024-02-23T12:30:42Z</time>
      </trkpt>
      <trkpt lat="43.77712" lon="3.82334">
        <ele>319</ele>
        <time>2024-02-23T12:30:43Z</time>
      </trkpt>
      <trkpt lat="43.7771" lon="3.82337">
        <ele>319</ele>
        <time>2024-02-23T12:30:44Z</time>
      </trkpt>
      <trkpt lat="43.77708" lon="3.82339">
        <ele>319</ele>
        <time>2024-02-23T12:30:45Z</time>
      </trkpt>
      <trkpt lat="43.77706" lon="3.82341">
        <ele>319</ele>
        <time>2024-02-23T12:30:46Z</time>
      </trkpt>
      <trkpt lat="43.77704" lon="3.82343">
        <ele>319</ele>
        <time>2024-02-23T12:30:47Z</time>
      </trkpt>
      <trkpt lat="43.77702" lon="3.82344">
        <ele>319.2</ele>
        <time>2024-02-23T12:30:48Z</time>
      </trkpt>
      <trkpt lat="43.77701" lon="3.82346">
        <ele>319.2</ele>
        <time>2024-02-23T12:30:49Z</time>
      </trkpt>
      <trkpt lat="43.77699" lon="3.82347">
        <ele>319.2</ele>
        <time>2024-02-23T12:30:50Z</time>
      </trkpt>
      <trkpt lat="43.77697" lon="3.82349">
        <ele>319.4</ele>
        <time>2024-02-23T12:30:51Z</time>
      </trkpt>
      <trkpt lat="43.77695" lon="3.8235">
        <ele>319.6</ele>
        <time>2024-02-23T12:30:52Z</time>
      </trkpt>
      <trkpt lat="43.77693" lon="3.82352">
        <ele>319.8</ele>
        <time>2024-02-23T12:30:53Z</time>
      </trkpt>
      <trkpt lat="43.77693" lon="3.82352">
        <ele>320</ele>
        <time>2024-02-23T12:30:54Z</time>
      </trkpt>
      <trkpt lat="43.77691" lon="3.82355">
        <ele>320.4</ele>
        <time>2024-02-23T12:30:55Z</time>
      </trkpt>
      <trkpt lat="43.77689" lon="3.82357">
        <ele>320.6</ele>
        <time>2024-02-23T12:30:56Z</time>
      </trkpt>
      <trkpt lat="43.77689" lon="3.82357">
        <ele>320.8</ele>
        <time>2024-02-23T12:30:57Z</time>
      </trkpt>
      <trkpt lat="43.77686" lon="3.8236">
        <ele>321.2</ele>
        <time>2024-02-23T12:30:58Z</time>
      </trkpt>
      <trkpt lat="43.77685" lon="3.82361">
        <ele>321.4</ele>
        <time>2024-02-23T12:30:59Z</time>
      </trkpt>
      <trkpt lat="43.77684" lon="3.82363">
        <ele>321.6</ele>
        <time>2024-02-23T12:31:00Z</time>
      </trkpt>
      <trkpt lat="43.77682" lon="3.82365">
        <ele>322</ele>
        <time>2024-02-23T12:31:01Z</time>
      </trkpt>
      <trkpt lat="43.7768" lon="3.82366">
        <ele>322.2</ele>
        <time>2024-02-23T12:31:02Z</time>
      </trkpt>
      <trkpt lat="43.7768" lon="3.82366">
        <ele>322.4</ele>
        <time>2024-02-23T12:31:03Z</time>
      </trkpt>
      <trkpt lat="43.77677" lon="3.82369">
        <ele>322.8</ele>
        <time>2024-02-23T12:31:04Z</time>
      </trkpt>
      <trkpt lat="43.77677" lon="3.82369">
        <ele>322.8</ele>
        <time>2024-02-23T12:31:05Z</time>
      </trkpt>
      <trkpt lat="43.77675" lon="3.82369">
        <ele>323</ele>
        <time>2024-02-23T12:31:06Z</time>
      </trkpt>
      <trkpt lat="43.77675" lon="3.82369">
        <ele>323.4</ele>
        <time>2024-02-23T12:31:07Z</time>
      </trkpt>
      <trkpt lat="43.77673" lon="3.8237">
        <ele>323.8</ele>
        <time>2024-02-23T12:31:08Z</time>
      </trkpt>
      <trkpt lat="43.77673" lon="3.8237">
        <ele>324</ele>
        <time>2024-02-23T12:31:09Z</time>
      </trkpt>
      <trkpt lat="43.77671" lon="3.82371">
        <ele>324.4</ele>
        <time>2024-02-23T12:31:10Z</time>
      </trkpt>
      <trkpt lat="43.77671" lon="3.82371">
        <ele>324.6</ele>
        <time>2024-02-23T12:31:11Z</time>
      </trkpt>
      <trkpt lat="43.77669" lon="3.82372">
        <ele>325</ele>
        <time>2024-02-23T12:31:12Z</time>
      </trkpt>
      <trkpt lat="43.77669" lon="3.82372">
        <ele>325.4</ele>
        <time>2024-02-23T12:31:13Z</time>
      </trkpt>
      <trkpt lat="43.77667" lon="3.82375">
        <ele>325.8</ele>
        <time>2024-02-23T12:31:14Z</time>
      </trkpt>
      <trkpt lat="43.77667" lon="3.82375">
        <ele>326</ele>
        <time>2024-02-23T12:31:15Z</time>
      </trkpt>
      <trkpt lat="43.77665" lon="3.82379">
        <ele>326.4</ele>
        <time>2024-02-23T12:31:16Z</time>
      </trkpt>
      <trkpt lat="43.77665" lon="3.82379">
        <ele>326.6</ele>
        <time>2024-02-23T12:31:17Z</time>
      </trkpt>
      <trkpt lat="43.77663" lon="3.82382">
        <ele>326.8</ele>
        <time>2024-02-23T12:31:18Z</time>
      </trkpt>
      <trkpt lat="43.77663" lon="3.82382">
        <ele>327.2</ele>
        <time>2024-02-23T12:31:19Z</time>
      </trkpt>
      <trkpt lat="43.77661" lon="3.82385">
        <ele>327.4</ele>
        <time>2024-02-23T12:31:20Z</time>
      </trkpt>
      <trkpt lat="43.77661" lon="3.82385">
        <ele>327.8</ele>
        <time>2024-02-23T12:31:21Z</time>
      </trkpt>
      <trkpt lat="43.77659" lon="3.82385">
        <ele>328</ele>
        <time>2024-02-23T12:31:22Z</time>
      </trkpt>
      <trkpt lat="43.77659" lon="3.82385">
        <ele>328.4</ele>
        <time>2024-02-23T12:31:23Z</time>
      </trkpt>
      <trkpt lat="43.77659" lon="3.82385">
        <ele>328.8</ele>
        <time>2024-02-23T12:31:24Z</time>
      </trkpt>
      <trkpt lat="43.77659" lon="3.82385">
        <ele>329</ele>
        <time>2024-02-23T12:31:25Z</time>
      </trkpt>
      <trkpt lat="43.77659" lon="3.82385">
        <ele>329.4</ele>
        <time>2024-02-23T12:31:26Z</time>
      </trkpt>
      <trkpt lat="43.77658" lon="3.82382">
        <ele>329.8</ele>
        <time>2024-02-23T12:31:27Z</time>
      </trkpt>
      <trkpt lat="43.77658" lon="3.82382">
        <ele>330</ele>
        <time>2024-02-23T12:31:28Z</time>
      </trkpt>
      <trkpt lat="43.77655" lon="3.82382">
        <ele>330.4</ele>
        <time>2024-02-23T12:31:29Z</time>
      </trkpt>
      <trkpt lat="43.77655" lon="3.82382">
        <ele>330.6</ele>
        <time>2024-02-23T12:31:30Z</time>
      </trkpt>
      <trkpt lat="43.77653" lon="3.82384">
        <ele>331</ele>
        <time>2024-02-23T12:31:31Z</time>
      </trkpt>
      <trkpt lat="43.77653" lon="3.82384">
        <ele>331.4</ele>
        <time>2024-02-23T12:31:32Z</time>
      </trkpt>
      <trkpt lat="43.77652" lon="3.82387">
        <ele>331.6</ele>
        <time>2024-02-23T12:31:33Z</time>
      </trkpt>
      <trkpt lat="43.77652" lon="3.82387">
        <ele>332</ele>
        <time>2024-02-23T12:31:34Z</time>
      </trkpt>
      <trkpt lat="43.7765" lon="3.8239">
        <ele>332.2</ele>
        <time>2024-02-23T12:31:35Z</time>
      </trkpt>
      <trkpt lat="43.7765" lon="3.8239">
        <ele>332.4</ele>
        <time>2024-02-23T12:31:36Z</time>
      </trkpt>
      <trkpt lat="43.7765" lon="3.82394">
        <ele>332.8</ele>
        <time>2024-02-23T12:31:37Z</time>
      </trkpt>
      <trkpt lat="43.7765" lon="3.82394">
        <ele>333</ele>
        <time>2024-02-23T12:31:38Z</time>
      </trkpt>
      <trkpt lat="43.77648" lon="3.82397">
        <ele>333</ele>
        <time>2024-02-23T12:31:39Z</time>
      </trkpt>
      <trkpt lat="43.77648" lon="3.82397">
        <ele>333.4</ele>
        <time>2024-02-23T12:31:40Z</time>
      </trkpt>
      <trkpt lat="43.77646" lon="3.82399">
        <ele>333.6</ele>
        <time>2024-02-23T12:31:41Z</time>
      </trkpt>
      <trkpt lat="43.77646" lon="3.82399">
        <ele>333.8</ele>
        <time>2024-02-23T12:31:42Z</time>
      </trkpt>
      <trkpt lat="43.77644" lon="3.82402">
        <ele>334</ele>
        <time>2024-02-23T12:31:43Z</time>
      </trkpt>
      <trkpt lat="43.77644" lon="3.82402">
        <ele>334.2</ele>
        <time>2024-02-23T12:31:44Z</time>
      </trkpt>
      <trkpt lat="43.77641" lon="3.82406">
        <ele>334.6</ele>
        <time>2024-02-23T12:31:45Z</time>
      </trkpt>
      <trkpt lat="43.77641" lon="3.82406">
        <ele>334.8</ele>
        <time>2024-02-23T12:31:46Z</time>
      </trkpt>
      <trkpt lat="43.7764" lon="3.82408">
        <ele>335</ele>
        <time>2024-02-23T12:31:47Z</time>
      </trkpt>
      <trkpt lat="43.7764" lon="3.82408">
        <ele>335.2</ele>
        <time>2024-02-23T12:31:48Z</time>
      </trkpt>
      <trkpt lat="43.7764" lon="3.82412">
        <ele>335.4</ele>
        <time>2024-02-23T12:31:49Z</time>
      </trkpt>
      <trkpt lat="43.7764" lon="3.82412">
        <ele>335.6</ele>
        <time>2024-02-23T12:31:50Z</time>
      </trkpt>
      <trkpt lat="43.77639" lon="3.82416">
        <ele>335.8</ele>
        <time>2024-02-23T12:31:51Z</time>
      </trkpt>
      <trkpt lat="43.77639" lon="3.82416">
        <ele>336</ele>
        <time>2024-02-23T12:31:52Z</time>
      </trkpt>
      <trkpt lat="43.77637" lon="3.82418">
        <ele>336</ele>
        <time>2024-02-23T12:31:53Z</time>
      </trkpt>
      <trkpt lat="43.77637" lon="3.82418">
        <ele>336.2</ele>
        <time>2024-02-23T12:31:54Z</time>
      </trkpt>
      <trkpt lat="43.77637" lon="3.82422">
        <ele>336.4</ele>
        <time>2024-02-23T12:31:55Z</time>
      </trkpt>
      <trkpt lat="43.77637" lon="3.82425">
        <ele>336.6</ele>
        <time>2024-02-23T12:31:56Z</time>
      </trkpt>
      <trkpt lat="43.77637" lon="3.82425">
        <ele>336.8</ele>
        <time>2024-02-23T12:31:57Z</time>
      </trkpt>
      <trkpt lat="43.77636" lon="3.82428">
        <ele>337</ele>
        <time>2024-02-23T12:31:58Z</time>
      </trkpt>
      <trkpt lat="43.77636" lon="3.82428">
        <ele>337.2</ele>
        <time>2024-02-23T12:31:59Z</time>
      </trkpt>
      <trkpt lat="43.77636" lon="3.82428">
        <ele>337.4</ele>
        <time>2024-02-23T12:32:00Z</time>
      </trkpt>
      <trkpt lat="43.77634" lon="3.82428">
        <ele>337.6</ele>
        <time>2024-02-23T12:32:01Z</time>
      </trkpt>
      <trkpt lat="43.77634" lon="3.82428">
        <ele>337.8</ele>
        <time>2024-02-23T12:32:02Z</time>
      </trkpt>
      <trkpt lat="43.77634" lon="3.82428">
        <ele>338</ele>
        <time>2024-02-23T12:32:03Z</time>
      </trkpt>
      <trkpt lat="43.77632" lon="3.82426">
        <ele>338.4</ele>
        <time>2024-02-23T12:32:04Z</time>
      </trkpt>
      <trkpt lat="43.77632" lon="3.82426">
        <ele>338.8</ele>
        <time>2024-02-23T12:32:05Z</time>
      </trkpt>
      <trkpt lat="43.77632" lon="3.82426">
        <ele>339.2</ele>
        <time>2024-02-23T12:32:06Z</time>
      </trkpt>
      <trkpt lat="43.77632" lon="3.8243">
        <ele>339.6</ele>
        <time>2024-02-23T12:32:07Z</time>
      </trkpt>
      <trkpt lat="43.77632" lon="3.8243">
        <ele>340</ele>
        <time>2024-02-23T12:32:08Z</time>
      </trkpt>
      <trkpt lat="43.77632" lon="3.82434">
        <ele>340.4</ele>
        <time>2024-02-23T12:32:09Z</time>
      </trkpt>
      <trkpt lat="43.77632" lon="3.82434">
        <ele>340.6</ele>
        <time>2024-02-23T12:32:10Z</time>
      </trkpt>
      <trkpt lat="43.77631" lon="3.82438">
        <ele>340.8</ele>
        <time>2024-02-23T12:32:11Z</time>
      </trkpt>
      <trkpt lat="43.7763" lon="3.8244">
        <ele>341.2</ele>
        <time>2024-02-23T12:32:12Z</time>
      </trkpt>
      <trkpt lat="43.7763" lon="3.8244">
        <ele>341.4</ele>
        <time>2024-02-23T12:32:13Z</time>
      </trkpt>
      <trkpt lat="43.77629" lon="3.82445">
        <ele>341.6</ele>
        <time>2024-02-23T12:32:14Z</time>
      </trkpt>
      <trkpt lat="43.77629" lon="3.82447">
        <ele>341.8</ele>
        <time>2024-02-23T12:32:15Z</time>
      </trkpt>
      <trkpt lat="43.77627" lon="3.82449">
        <ele>341.8</ele>
        <time>2024-02-23T12:32:16Z</time>
      </trkpt>
      <trkpt lat="43.77625" lon="3.8245">
        <ele>342.2</ele>
        <time>2024-02-23T12:32:17Z</time>
      </trkpt>
      <trkpt lat="43.77625" lon="3.8245">
        <ele>342.2</ele>
        <time>2024-02-23T12:32:18Z</time>
      </trkpt>
      <trkpt lat="43.77622" lon="3.82451">
        <ele>342.2</ele>
        <time>2024-02-23T12:32:19Z</time>
      </trkpt>
      <trkpt lat="43.7762" lon="3.82452">
        <ele>342.2</ele>
        <time>2024-02-23T12:32:20Z</time>
      </trkpt>
      <trkpt lat="43.77618" lon="3.82453">
        <ele>342</ele>
        <time>2024-02-23T12:32:21Z</time>
      </trkpt>
      <trkpt lat="43.77618" lon="3.82453">
        <ele>342</ele>
        <time>2024-02-23T12:32:22Z</time>
      </trkpt>
      <trkpt lat="43.77615" lon="3.82453">
        <ele>342</ele>
        <time>2024-02-23T12:32:23Z</time>
      </trkpt>
      <trkpt lat="43.77613" lon="3.82452">
        <ele>341.8</ele>
        <time>2024-02-23T12:32:24Z</time>
      </trkpt>
      <trkpt lat="43.77611" lon="3.82452">
        <ele>341.8</ele>
        <time>2024-02-23T12:32:25Z</time>
      </trkpt>
      <trkpt lat="43.77609" lon="3.82452">
        <ele>341.6</ele>
        <time>2024-02-23T12:32:26Z</time>
      </trkpt>
      <trkpt lat="43.77609" lon="3.82452">
        <ele>341.4</ele>
        <time>2024-02-23T12:32:27Z</time>
      </trkpt>
      <trkpt lat="43.77606" lon="3.82453">
        <ele>341.2</ele>
        <time>2024-02-23T12:32:28Z</time>
      </trkpt>
      <trkpt lat="43.77604" lon="3.82453">
        <ele>341</ele>
        <time>2024-02-23T12:32:29Z</time>
      </trkpt>
      <trkpt lat="43.77602" lon="3.82453">
        <ele>340.8</ele>
        <time>2024-02-23T12:32:30Z</time>
      </trkpt>
      <trkpt lat="43.77602" lon="3.82453">
        <ele>340.6</ele>
        <time>2024-02-23T12:32:31Z</time>
      </trkpt>
      <trkpt lat="43.77599" lon="3.82454">
        <ele>340.4</ele>
        <time>2024-02-23T12:32:32Z</time>
      </trkpt>
      <trkpt lat="43.77597" lon="3.82454">
        <ele>340.2</ele>
        <time>2024-02-23T12:32:33Z</time>
      </trkpt>
      <trkpt lat="43.77595" lon="3.82454">
        <ele>340</ele>
        <time>2024-02-23T12:32:34Z</time>
      </trkpt>
      <trkpt lat="43.77595" lon="3.82454">
        <ele>339.8</ele>
        <time>2024-02-23T12:32:35Z</time>
      </trkpt>
      <trkpt lat="43.77593" lon="3.82453">
        <ele>339.4</ele>
        <time>2024-02-23T12:32:36Z</time>
      </trkpt>
      <trkpt lat="43.77593" lon="3.82453">
        <ele>339.2</ele>
        <time>2024-02-23T12:32:37Z</time>
      </trkpt>
      <trkpt lat="43.7759" lon="3.82452">
        <ele>339</ele>
        <time>2024-02-23T12:32:38Z</time>
      </trkpt>
      <trkpt lat="43.77588" lon="3.82451">
        <ele>338.6</ele>
        <time>2024-02-23T12:32:39Z</time>
      </trkpt>
      <trkpt lat="43.77588" lon="3.82451">
        <ele>338.4</ele>
        <time>2024-02-23T12:32:40Z</time>
      </trkpt>
      <trkpt lat="43.77585" lon="3.82452">
        <ele>338.2</ele>
        <time>2024-02-23T12:32:41Z</time>
      </trkpt>
      <trkpt lat="43.77585" lon="3.82452">
        <ele>338</ele>
        <time>2024-02-23T12:32:42Z</time>
      </trkpt>
      <trkpt lat="43.77582" lon="3.82452">
        <ele>337.6</ele>
        <time>2024-02-23T12:32:43Z</time>
      </trkpt>
      <trkpt lat="43.77582" lon="3.82452">
        <ele>337.4</ele>
        <time>2024-02-23T12:32:44Z</time>
      </trkpt>
      <trkpt lat="43.77579" lon="3.82452">
        <ele>337.2</ele>
        <time>2024-02-23T12:32:45Z</time>
      </trkpt>
      <trkpt lat="43.77579" lon="3.82452">
        <ele>337</ele>
        <time>2024-02-23T12:32:46Z</time>
      </trkpt>
      <trkpt lat="43.77576" lon="3.82452">
        <ele>336.8</ele>
        <time>2024-02-23T12:32:47Z</time>
      </trkpt>
      <trkpt lat="43.77576" lon="3.82452">
        <ele>336.6</ele>
        <time>2024-02-23T12:32:48Z</time>
      </trkpt>
      <trkpt lat="43.77576" lon="3.82452">
        <ele>336.6</ele>
        <time>2024-02-23T12:32:49Z</time>
      </trkpt>
      <trkpt lat="43.77574" lon="3.82452">
        <ele>336.6</ele>
        <time>2024-02-23T12:32:50Z</time>
      </trkpt>
      <trkpt lat="43.77574" lon="3.82452">
        <ele>336.6</ele>
        <time>2024-02-23T12:32:51Z</time>
      </trkpt>
      <trkpt lat="43.77572" lon="3.82451">
        <ele>336.4</ele>
        <time>2024-02-23T12:32:52Z</time>
      </trkpt>
      <trkpt lat="43.77572" lon="3.82451">
        <ele>336.2</ele>
        <time>2024-02-23T12:32:53Z</time>
      </trkpt>
      <trkpt lat="43.77569" lon="3.8245">
        <ele>336</ele>
        <time>2024-02-23T12:32:54Z</time>
      </trkpt>
      <trkpt lat="43.77567" lon="3.82449">
        <ele>335.6</ele>
        <time>2024-02-23T12:32:55Z</time>
      </trkpt>
      <trkpt lat="43.77565" lon="3.82448">
        <ele>335.4</ele>
        <time>2024-02-23T12:32:56Z</time>
      </trkpt>
      <trkpt lat="43.77563" lon="3.82447">
        <ele>335.2</ele>
        <time>2024-02-23T12:32:57Z</time>
      </trkpt>
      <trkpt lat="43.77563" lon="3.82447">
        <ele>334.8</ele>
        <time>2024-02-23T12:32:58Z</time>
      </trkpt>
      <trkpt lat="43.7756" lon="3.82443">
        <ele>334.4</ele>
        <time>2024-02-23T12:32:59Z</time>
      </trkpt>
      <trkpt lat="43.7756" lon="3.82443">
        <ele>334</ele>
        <time>2024-02-23T12:33:00Z</time>
      </trkpt>
      <trkpt lat="43.77558" lon="3.8244">
        <ele>333.4</ele>
        <time>2024-02-23T12:33:01Z</time>
      </trkpt>
      <trkpt lat="43.77558" lon="3.8244">
        <ele>333</ele>
        <time>2024-02-23T12:33:02Z</time>
      </trkpt>
      <trkpt lat="43.77556" lon="3.82438">
        <ele>332.6</ele>
        <time>2024-02-23T12:33:03Z</time>
      </trkpt>
      <trkpt lat="43.77553" lon="3.82438">
        <ele>332.2</ele>
        <time>2024-02-23T12:33:04Z</time>
      </trkpt>
      <trkpt lat="43.7755" lon="3.82437">
        <ele>331.8</ele>
        <time>2024-02-23T12:33:05Z</time>
      </trkpt>
      <trkpt lat="43.7755" lon="3.82437">
        <ele>331.4</ele>
        <time>2024-02-23T12:33:06Z</time>
      </trkpt>
      <trkpt lat="43.77548" lon="3.82434">
        <ele>330.8</ele>
        <time>2024-02-23T12:33:07Z</time>
      </trkpt>
      <trkpt lat="43.77548" lon="3.82434">
        <ele>330.2</ele>
        <time>2024-02-23T12:33:08Z</time>
      </trkpt>
      <trkpt lat="43.77547" lon="3.82431">
        <ele>329.8</ele>
        <time>2024-02-23T12:33:09Z</time>
      </trkpt>
      <trkpt lat="43.77547" lon="3.82431">
        <ele>329.2</ele>
        <time>2024-02-23T12:33:10Z</time>
      </trkpt>
      <trkpt lat="43.77546" lon="3.82427">
        <ele>328.6</ele>
        <time>2024-02-23T12:33:11Z</time>
      </trkpt>
      <trkpt lat="43.77546" lon="3.82424">
        <ele>328.2</ele>
        <time>2024-02-23T12:33:12Z</time>
      </trkpt>
      <trkpt lat="43.77546" lon="3.82424">
        <ele>327.8</ele>
        <time>2024-02-23T12:33:13Z</time>
      </trkpt>
      <trkpt lat="43.77546" lon="3.8242">
        <ele>327.4</ele>
        <time>2024-02-23T12:33:14Z</time>
      </trkpt>
      <trkpt lat="43.77546" lon="3.8242">
        <ele>327</ele>
        <time>2024-02-23T12:33:15Z</time>
      </trkpt>
      <trkpt lat="43.77546" lon="3.82416">
        <ele>326.6</ele>
        <time>2024-02-23T12:33:16Z</time>
      </trkpt>
      <trkpt lat="43.77546" lon="3.82416">
        <ele>326.2</ele>
        <time>2024-02-23T12:33:17Z</time>
      </trkpt>
      <trkpt lat="43.77546" lon="3.82412">
        <ele>325.8</ele>
        <time>2024-02-23T12:33:18Z</time>
      </trkpt>
      <trkpt lat="43.77545" lon="3.8241">
        <ele>325.4</ele>
        <time>2024-02-23T12:33:19Z</time>
      </trkpt>
      <trkpt lat="43.77545" lon="3.8241">
        <ele>325.2</ele>
        <time>2024-02-23T12:33:20Z</time>
      </trkpt>
      <trkpt lat="43.77544" lon="3.82406">
        <ele>325</ele>
        <time>2024-02-23T12:33:21Z</time>
      </trkpt>
      <trkpt lat="43.77544" lon="3.82406">
        <ele>325</ele>
        <time>2024-02-23T12:33:22Z</time>
      </trkpt>
      <trkpt lat="43.77544" lon="3.82406">
        <ele>325.2</ele>
        <time>2024-02-23T12:33:23Z</time>
      </trkpt>
      <trkpt lat="43.77543" lon="3.82403">
        <ele>325.4</ele>
        <time>2024-02-23T12:33:24Z</time>
      </trkpt>
      <trkpt lat="43.77543" lon="3.82403">
        <ele>325.8</ele>
        <time>2024-02-23T12:33:25Z</time>
      </trkpt>
      <trkpt lat="43.77543" lon="3.824">
        <ele>326</ele>
        <time>2024-02-23T12:33:26Z</time>
      </trkpt>
      <trkpt lat="43.77543" lon="3.824">
        <ele>326.2</ele>
        <time>2024-02-23T12:33:27Z</time>
      </trkpt>
      <trkpt lat="43.77543" lon="3.824">
        <ele>326.4</ele>
        <time>2024-02-23T12:33:28Z</time>
      </trkpt>
      <trkpt lat="43.77541" lon="3.82398">
        <ele>326.6</ele>
        <time>2024-02-23T12:33:29Z</time>
      </trkpt>
      <trkpt lat="43.77539" lon="3.82396">
        <ele>326.6</ele>
        <time>2024-02-23T12:33:30Z</time>
      </trkpt>
      <trkpt lat="43.77538" lon="3.82394">
        <ele>326.8</ele>
        <time>2024-02-23T12:33:31Z</time>
      </trkpt>
      <trkpt lat="43.77535" lon="3.82392">
        <ele>327</ele>
        <time>2024-02-23T12:33:32Z</time>
      </trkpt>
      <trkpt lat="43.77533" lon="3.8239">
        <ele>327.2</ele>
        <time>2024-02-23T12:33:33Z</time>
      </trkpt>
      <trkpt lat="43.77533" lon="3.8239">
        <ele>327.6</ele>
        <time>2024-02-23T12:33:34Z</time>
      </trkpt>
      <trkpt lat="43.77532" lon="3.82385">
        <ele>328</ele>
        <time>2024-02-23T12:33:35Z</time>
      </trkpt>
      <trkpt lat="43.77532" lon="3.82385">
        <ele>328.2</ele>
        <time>2024-02-23T12:33:36Z</time>
      </trkpt>
      <trkpt lat="43.77532" lon="3.82382">
        <ele>328.6</ele>
        <time>2024-02-23T12:33:37Z</time>
      </trkpt>
      <trkpt lat="43.77532" lon="3.82382">
        <ele>329.2</ele>
        <time>2024-02-23T12:33:38Z</time>
      </trkpt>
      <trkpt lat="43.77534" lon="3.82381">
        <ele>329.8</ele>
        <time>2024-02-23T12:33:39Z</time>
      </trkpt>
      <trkpt lat="43.77534" lon="3.82381">
        <ele>330.2</ele>
        <time>2024-02-23T12:33:40Z</time>
      </trkpt>
      <trkpt lat="43.77534" lon="3.82381">
        <ele>330.4</ele>
        <time>2024-02-23T12:33:41Z</time>
      </trkpt>
      <trkpt lat="43.77535" lon="3.82378">
        <ele>330.8</ele>
        <time>2024-02-23T12:33:42Z</time>
      </trkpt>
      <trkpt lat="43.77535" lon="3.82378">
        <ele>331</ele>
        <time>2024-02-23T12:33:43Z</time>
      </trkpt>
      <trkpt lat="43.77535" lon="3.82378">
        <ele>331.2</ele>
        <time>2024-02-23T12:33:44Z</time>
      </trkpt>
      <trkpt lat="43.77536" lon="3.82375">
        <ele>331.4</ele>
        <time>2024-02-23T12:33:45Z</time>
      </trkpt>
      <trkpt lat="43.77536" lon="3.82375">
        <ele>331.6</ele>
        <time>2024-02-23T12:33:46Z</time>
      </trkpt>
      <trkpt lat="43.77536" lon="3.82372">
        <ele>332</ele>
        <time>2024-02-23T12:33:47Z</time>
      </trkpt>
      <trkpt lat="43.77536" lon="3.82372">
        <ele>332.4</ele>
        <time>2024-02-23T12:33:48Z</time>
      </trkpt>
      <trkpt lat="43.77534" lon="3.82369">
        <ele>332.8</ele>
        <time>2024-02-23T12:33:49Z</time>
      </trkpt>
      <trkpt lat="43.77534" lon="3.82369">
        <ele>333</ele>
        <time>2024-02-23T12:33:50Z</time>
      </trkpt>
      <trkpt lat="43.77533" lon="3.82367">
        <ele>333.4</ele>
        <time>2024-02-23T12:33:51Z</time>
      </trkpt>
      <trkpt lat="43.77533" lon="3.82367">
        <ele>333.6</ele>
        <time>2024-02-23T12:33:52Z</time>
      </trkpt>
      <trkpt lat="43.77533" lon="3.82363">
        <ele>333.8</ele>
        <time>2024-02-23T12:33:53Z</time>
      </trkpt>
      <trkpt lat="43.77533" lon="3.82363">
        <ele>334.2</ele>
        <time>2024-02-23T12:33:54Z</time>
      </trkpt>
      <trkpt lat="43.77533" lon="3.8236">
        <ele>334.4</ele>
        <time>2024-02-23T12:33:55Z</time>
      </trkpt>
      <trkpt lat="43.77533" lon="3.8236">
        <ele>334.8</ele>
        <time>2024-02-23T12:33:56Z</time>
      </trkpt>
      <trkpt lat="43.77534" lon="3.82358">
        <ele>335</ele>
        <time>2024-02-23T12:33:57Z</time>
      </trkpt>
      <trkpt lat="43.77534" lon="3.82358">
        <ele>335.4</ele>
        <time>2024-02-23T12:33:58Z</time>
      </trkpt>
      <trkpt lat="43.77534" lon="3.82358">
        <ele>335.8</ele>
        <time>2024-02-23T12:33:59Z</time>
      </trkpt>
      <trkpt lat="43.77534" lon="3.82354">
        <ele>336.2</ele>
        <time>2024-02-23T12:34:00Z</time>
      </trkpt>
      <trkpt lat="43.77534" lon="3.82354">
        <ele>336.6</ele>
        <time>2024-02-23T12:34:01Z</time>
      </trkpt>
      <trkpt lat="43.77536" lon="3.82352">
        <ele>337</ele>
        <time>2024-02-23T12:34:02Z</time>
      </trkpt>
      <trkpt lat="43.77536" lon="3.82352">
        <ele>337.2</ele>
        <time>2024-02-23T12:34:03Z</time>
      </trkpt>
      <trkpt lat="43.77537" lon="3.8235">
        <ele>337.6</ele>
        <time>2024-02-23T12:34:04Z</time>
      </trkpt>
      <trkpt lat="43.77537" lon="3.8235">
        <ele>337.8</ele>
        <time>2024-02-23T12:34:05Z</time>
      </trkpt>
      <trkpt lat="43.77539" lon="3.82348">
        <ele>338.2</ele>
        <time>2024-02-23T12:34:06Z</time>
      </trkpt>
      <trkpt lat="43.77539" lon="3.82348">
        <ele>338.8</ele>
        <time>2024-02-23T12:34:07Z</time>
      </trkpt>
      <trkpt lat="43.77539" lon="3.82348">
        <ele>339</ele>
        <time>2024-02-23T12:34:08Z</time>
      </trkpt>
      <trkpt lat="43.77541" lon="3.82345">
        <ele>339.4</ele>
        <time>2024-02-23T12:34:09Z</time>
      </trkpt>
      <trkpt lat="43.77541" lon="3.82345">
        <ele>339.6</ele>
        <time>2024-02-23T12:34:10Z</time>
      </trkpt>
      <trkpt lat="43.77542" lon="3.82342">
        <ele>340</ele>
        <time>2024-02-23T12:34:11Z</time>
      </trkpt>
      <trkpt lat="43.77542" lon="3.82342">
        <ele>340.2</ele>
        <time>2024-02-23T12:34:12Z</time>
      </trkpt>
      <trkpt lat="43.77544" lon="3.82339">
        <ele>340.6</ele>
        <time>2024-02-23T12:34:13Z</time>
      </trkpt>
      <trkpt lat="43.77544" lon="3.82339">
        <ele>341</ele>
        <time>2024-02-23T12:34:14Z</time>
      </trkpt>
      <trkpt lat="43.77545" lon="3.82337">
        <ele>341.2</ele>
        <time>2024-02-23T12:34:15Z</time>
      </trkpt>
      <trkpt lat="43.77545" lon="3.82337">
        <ele>341.4</ele>
        <time>2024-02-23T12:34:16Z</time>
      </trkpt>
      <trkpt lat="43.77545" lon="3.82337">
        <ele>341.8</ele>
        <time>2024-02-23T12:34:17Z</time>
      </trkpt>
      <trkpt lat="43.77545" lon="3.82337">
        <ele>342</ele>
        <time>2024-02-23T12:34:18Z</time>
      </trkpt>
      <trkpt lat="43.77546" lon="3.82335">
        <ele>342.4</ele>
        <time>2024-02-23T12:34:19Z</time>
      </trkpt>
      <trkpt lat="43.77546" lon="3.82335">
        <ele>342.8</ele>
        <time>2024-02-23T12:34:20Z</time>
      </trkpt>
      <trkpt lat="43.77546" lon="3.82335">
        <ele>343.2</ele>
        <time>2024-02-23T12:34:21Z</time>
      </trkpt>
      <trkpt lat="43.77547" lon="3.82332">
        <ele>343.4</ele>
        <time>2024-02-23T12:34:22Z</time>
      </trkpt>
      <trkpt lat="43.77547" lon="3.82332">
        <ele>343.8</ele>
        <time>2024-02-23T12:34:23Z</time>
      </trkpt>
      <trkpt lat="43.77547" lon="3.82332">
        <ele>344.2</ele>
        <time>2024-02-23T12:34:24Z</time>
      </trkpt>
      <trkpt lat="43.77549" lon="3.82329">
        <ele>344.6</ele>
        <time>2024-02-23T12:34:25Z</time>
      </trkpt>
      <trkpt lat="43.77549" lon="3.82329">
        <ele>345</ele>
        <time>2024-02-23T12:34:26Z</time>
      </trkpt>
      <trkpt lat="43.77549" lon="3.82329">
        <ele>345.4</ele>
        <time>2024-02-23T12:34:27Z</time>
      </trkpt>
      <trkpt lat="43.7755" lon="3.82327">
        <ele>345.6</ele>
        <time>2024-02-23T12:34:28Z</time>
      </trkpt>
      <trkpt lat="43.7755" lon="3.82327">
        <ele>346</ele>
        <time>2024-02-23T12:34:29Z</time>
      </trkpt>
      <trkpt lat="43.77552" lon="3.82325">
        <ele>346.2</ele>
        <time>2024-02-23T12:34:30Z</time>
      </trkpt>
      <trkpt lat="43.77552" lon="3.82325">
        <ele>346.4</ele>
        <time>2024-02-23T12:34:31Z</time>
      </trkpt>
      <trkpt lat="43.77552" lon="3.82322">
        <ele>346.6</ele>
        <time>2024-02-23T12:34:32Z</time>
      </trkpt>
      <trkpt lat="43.77552" lon="3.82322">
        <ele>346.8</ele>
        <time>2024-02-23T12:34:33Z</time>
      </trkpt>
      <trkpt lat="43.77552" lon="3.82322">
        <ele>347</ele>
        <time>2024-02-23T12:34:34Z</time>
      </trkpt>
      <trkpt lat="43.77552" lon="3.82322">
        <ele>347.2</ele>
        <time>2024-02-23T12:34:35Z</time>
      </trkpt>
      <trkpt lat="43.77554" lon="3.8232">
        <ele>347.4</ele>
        <time>2024-02-23T12:34:36Z</time>
      </trkpt>
      <trkpt lat="43.77554" lon="3.8232">
        <ele>347.6</ele>
        <time>2024-02-23T12:34:37Z</time>
      </trkpt>
      <trkpt lat="43.77554" lon="3.8232">
        <ele>347.8</ele>
        <time>2024-02-23T12:34:38Z</time>
      </trkpt>
      <trkpt lat="43.77556" lon="3.82317">
        <ele>348</ele>
        <time>2024-02-23T12:34:39Z</time>
      </trkpt>
      <trkpt lat="43.77556" lon="3.82317">
        <ele>348.4</ele>
        <time>2024-02-23T12:34:40Z</time>
      </trkpt>
      <trkpt lat="43.77557" lon="3.82316">
        <ele>348.8</ele>
        <time>2024-02-23T12:34:41Z</time>
      </trkpt>
      <trkpt lat="43.77557" lon="3.82316">
        <ele>349.2</ele>
        <time>2024-02-23T12:34:42Z</time>
      </trkpt>
      <trkpt lat="43.77559" lon="3.82314">
        <ele>349.4</ele>
        <time>2024-02-23T12:34:43Z</time>
      </trkpt>
      <trkpt lat="43.77559" lon="3.82314">
        <ele>349.8</ele>
        <time>2024-02-23T12:34:44Z</time>
      </trkpt>
      <trkpt lat="43.77561" lon="3.82311">
        <ele>350</ele>
        <time>2024-02-23T12:34:45Z</time>
      </trkpt>
      <trkpt lat="43.77561" lon="3.82311">
        <ele>350.4</ele>
        <time>2024-02-23T12:34:46Z</time>
      </trkpt>
      <trkpt lat="43.77562" lon="3.82309">
        <ele>350.6</ele>
        <time>2024-02-23T12:34:47Z</time>
      </trkpt>
      <trkpt lat="43.77562" lon="3.82309">
        <ele>350.8</ele>
        <time>2024-02-23T12:34:48Z</time>
      </trkpt>
      <trkpt lat="43.77564" lon="3.82306">
        <ele>351</ele>
        <time>2024-02-23T12:34:49Z</time>
      </trkpt>
      <trkpt lat="43.77564" lon="3.82306">
        <ele>351.2</ele>
        <time>2024-02-23T12:34:50Z</time>
      </trkpt>
      <trkpt lat="43.77566" lon="3.82302">
        <ele>351.6</ele>
        <time>2024-02-23T12:34:51Z</time>
      </trkpt>
      <trkpt lat="43.77566" lon="3.82302">
        <ele>351.8</ele>
        <time>2024-02-23T12:34:52Z</time>
      </trkpt>
      <trkpt lat="43.77567" lon="3.823">
        <ele>351.8</ele>
        <time>2024-02-23T12:34:53Z</time>
      </trkpt>
      <trkpt lat="43.77567" lon="3.823">
        <ele>352</ele>
        <time>2024-02-23T12:34:54Z</time>
      </trkpt>
      <trkpt lat="43.77569" lon="3.82299">
        <ele>352.2</ele>
        <time>2024-02-23T12:34:55Z</time>
      </trkpt>
      <trkpt lat="43.77569" lon="3.82299">
        <ele>352.2</ele>
        <time>2024-02-23T12:34:56Z</time>
      </trkpt>
      <trkpt lat="43.7757" lon="3.82297">
        <ele>352.4</ele>
        <time>2024-02-23T12:34:57Z</time>
      </trkpt>
      <trkpt lat="43.7757" lon="3.82297">
        <ele>352.6</ele>
        <time>2024-02-23T12:34:58Z</time>
      </trkpt>
      <trkpt lat="43.77572" lon="3.82294">
        <ele>352.8</ele>
        <time>2024-02-23T12:34:59Z</time>
      </trkpt>
      <trkpt lat="43.77572" lon="3.82294">
        <ele>353</ele>
        <time>2024-02-23T12:35:00Z</time>
      </trkpt>
      <trkpt lat="43.77574" lon="3.82292">
        <ele>353.2</ele>
        <time>2024-02-23T12:35:01Z</time>
      </trkpt>
      <trkpt lat="43.77576" lon="3.82291">
        <ele>353.6</ele>
        <time>2024-02-23T12:35:02Z</time>
      </trkpt>
      <trkpt lat="43.77576" lon="3.82291">
        <ele>353.8</ele>
        <time>2024-02-23T12:35:03Z</time>
      </trkpt>
      <trkpt lat="43.77577" lon="3.82288">
        <ele>354</ele>
        <time>2024-02-23T12:35:04Z</time>
      </trkpt>
      <trkpt lat="43.77577" lon="3.82288">
        <ele>354.4</ele>
        <time>2024-02-23T12:35:05Z</time>
      </trkpt>
      <trkpt lat="43.77579" lon="3.82285">
        <ele>354.8</ele>
        <time>2024-02-23T12:35:06Z</time>
      </trkpt>
      <trkpt lat="43.77579" lon="3.82285">
        <ele>355.2</ele>
        <time>2024-02-23T12:35:07Z</time>
      </trkpt>
      <trkpt lat="43.77581" lon="3.82283">
        <ele>355.6</ele>
        <time>2024-02-23T12:35:08Z</time>
      </trkpt>
      <trkpt lat="43.77581" lon="3.82283">
        <ele>355.8</ele>
        <time>2024-02-23T12:35:09Z</time>
      </trkpt>
      <trkpt lat="43.77582" lon="3.82281">
        <ele>356.2</ele>
        <time>2024-02-23T12:35:10Z</time>
      </trkpt>
      <trkpt lat="43.77582" lon="3.82281">
        <ele>356.4</ele>
        <time>2024-02-23T12:35:11Z</time>
      </trkpt>
      <trkpt lat="43.77582" lon="3.82277">
        <ele>356.6</ele>
        <time>2024-02-23T12:35:12Z</time>
      </trkpt>
      <trkpt lat="43.77582" lon="3.82277">
        <ele>357</ele>
        <time>2024-02-23T12:35:13Z</time>
      </trkpt>
      <trkpt lat="43.77584" lon="3.82274">
        <ele>357.2</ele>
        <time>2024-02-23T12:35:14Z</time>
      </trkpt>
      <trkpt lat="43.77584" lon="3.82274">
        <ele>357.4</ele>
        <time>2024-02-23T12:35:15Z</time>
      </trkpt>
      <trkpt lat="43.77585" lon="3.8227">
        <ele>357.6</ele>
        <time>2024-02-23T12:35:16Z</time>
      </trkpt>
      <trkpt lat="43.77586" lon="3.82268">
        <ele>357.8</ele>
        <time>2024-02-23T12:35:17Z</time>
      </trkpt>
      <trkpt lat="43.77586" lon="3.82268">
        <ele>358</ele>
        <time>2024-02-23T12:35:18Z</time>
      </trkpt>
      <trkpt lat="43.77586" lon="3.82263">
        <ele>358.2</ele>
        <time>2024-02-23T12:35:19Z</time>
      </trkpt>
      <trkpt lat="43.77586" lon="3.82263">
        <ele>358.4</ele>
        <time>2024-02-23T12:35:20Z</time>
      </trkpt>
      <trkpt lat="43.77586" lon="3.82258">
        <ele>358.4</ele>
        <time>2024-02-23T12:35:21Z</time>
      </trkpt>
      <trkpt lat="43.77586" lon="3.82255">
        <ele>358.6</ele>
        <time>2024-02-23T12:35:22Z</time>
      </trkpt>
      <trkpt lat="43.77586" lon="3.82255">
        <ele>358.8</ele>
        <time>2024-02-23T12:35:23Z</time>
      </trkpt>
      <trkpt lat="43.77587" lon="3.82251">
        <ele>359</ele>
        <time>2024-02-23T12:35:24Z</time>
      </trkpt>
      <trkpt lat="43.77587" lon="3.82251">
        <ele>359.2</ele>
        <time>2024-02-23T12:35:25Z</time>
      </trkpt>
      <trkpt lat="43.77588" lon="3.82248">
        <ele>359.4</ele>
        <time>2024-02-23T12:35:26Z</time>
      </trkpt>
      <trkpt lat="43.77588" lon="3.82248">
        <ele>359.4</ele>
        <time>2024-02-23T12:35:27Z</time>
      </trkpt>
      <trkpt lat="43.7759" lon="3.82246">
        <ele>359.6</ele>
        <time>2024-02-23T12:35:28Z</time>
      </trkpt>
      <trkpt lat="43.7759" lon="3.82246">
        <ele>360</ele>
        <time>2024-02-23T12:35:29Z</time>
      </trkpt>
      <trkpt lat="43.77592" lon="3.82243">
        <ele>360.2</ele>
        <time>2024-02-23T12:35:30Z</time>
      </trkpt>
      <trkpt lat="43.77592" lon="3.82243">
        <ele>360.6</ele>
        <time>2024-02-23T12:35:31Z</time>
      </trkpt>
      <trkpt lat="43.77591" lon="3.82241">
        <ele>360.8</ele>
        <time>2024-02-23T12:35:32Z</time>
      </trkpt>
      <trkpt lat="43.77591" lon="3.82241">
        <ele>361</ele>
        <time>2024-02-23T12:35:33Z</time>
      </trkpt>
      <trkpt lat="43.77591" lon="3.82237">
        <ele>361.2</ele>
        <time>2024-02-23T12:35:34Z</time>
      </trkpt>
      <trkpt lat="43.77591" lon="3.82237">
        <ele>361.6</ele>
        <time>2024-02-23T12:35:35Z</time>
      </trkpt>
      <trkpt lat="43.7759" lon="3.82234">
        <ele>361.8</ele>
        <time>2024-02-23T12:35:36Z</time>
      </trkpt>
      <trkpt lat="43.7759" lon="3.82234">
        <ele>362</ele>
        <time>2024-02-23T12:35:37Z</time>
      </trkpt>
      <trkpt lat="43.77589" lon="3.8223">
        <ele>362</ele>
        <time>2024-02-23T12:35:38Z</time>
      </trkpt>
      <trkpt lat="43.77589" lon="3.8223">
        <ele>362</ele>
        <time>2024-02-23T12:35:39Z</time>
      </trkpt>
      <trkpt lat="43.77589" lon="3.82225">
        <ele>362.2</ele>
        <time>2024-02-23T12:35:40Z</time>
      </trkpt>
      <trkpt lat="43.77589" lon="3.82225">
        <ele>362</ele>
        <time>2024-02-23T12:35:41Z</time>
      </trkpt>
      <trkpt lat="43.77589" lon="3.8222">
        <ele>362</ele>
        <time>2024-02-23T12:35:42Z</time>
      </trkpt>
      <trkpt lat="43.77589" lon="3.8222">
        <ele>361.8</ele>
        <time>2024-02-23T12:35:43Z</time>
      </trkpt>
      <trkpt lat="43.7759" lon="3.82216">
        <ele>361.8</ele>
        <time>2024-02-23T12:35:44Z</time>
      </trkpt>
      <trkpt lat="43.7759" lon="3.82216">
        <ele>361.8</ele>
        <time>2024-02-23T12:35:45Z</time>
      </trkpt>
      <trkpt lat="43.77591" lon="3.82212">
        <ele>362</ele>
        <time>2024-02-23T12:35:46Z</time>
      </trkpt>
      <trkpt lat="43.77591" lon="3.82212">
        <ele>362.2</ele>
        <time>2024-02-23T12:35:47Z</time>
      </trkpt>
      <trkpt lat="43.77592" lon="3.8221">
        <ele>362.4</ele>
        <time>2024-02-23T12:35:48Z</time>
      </trkpt>
      <trkpt lat="43.77592" lon="3.8221">
        <ele>362.8</ele>
        <time>2024-02-23T12:35:49Z</time>
      </trkpt>
      <trkpt lat="43.77592" lon="3.82207">
        <ele>363.2</ele>
        <time>2024-02-23T12:35:50Z</time>
      </trkpt>
      <trkpt lat="43.77592" lon="3.82207">
        <ele>363.6</ele>
        <time>2024-02-23T12:35:51Z</time>
      </trkpt>
      <trkpt lat="43.77594" lon="3.82203">
        <ele>364</ele>
        <time>2024-02-23T12:35:52Z</time>
      </trkpt>
      <trkpt lat="43.77594" lon="3.82203">
        <ele>364.2</ele>
        <time>2024-02-23T12:35:53Z</time>
      </trkpt>
      <trkpt lat="43.77597" lon="3.822">
        <ele>364.6</ele>
        <time>2024-02-23T12:35:54Z</time>
      </trkpt>
      <trkpt lat="43.77597" lon="3.822">
        <ele>365</ele>
        <time>2024-02-23T12:35:55Z</time>
      </trkpt>
      <trkpt lat="43.77598" lon="3.82197">
        <ele>365.2</ele>
        <time>2024-02-23T12:35:56Z</time>
      </trkpt>
      <trkpt lat="43.77598" lon="3.82197">
        <ele>365.4</ele>
        <time>2024-02-23T12:35:57Z</time>
      </trkpt>
      <trkpt lat="43.77599" lon="3.82193">
        <ele>365.6</ele>
        <time>2024-02-23T12:35:58Z</time>
      </trkpt>
      <trkpt lat="43.77599" lon="3.82193">
        <ele>365.8</ele>
        <time>2024-02-23T12:35:59Z</time>
      </trkpt>
      <trkpt lat="43.776" lon="3.82189">
        <ele>366</ele>
        <time>2024-02-23T12:36:00Z</time>
      </trkpt>
      <trkpt lat="43.77602" lon="3.82186">
        <ele>366.4</ele>
        <time>2024-02-23T12:36:01Z</time>
      </trkpt>
      <trkpt lat="43.77603" lon="3.82185">
        <ele>366.6</ele>
        <time>2024-02-23T12:36:02Z</time>
      </trkpt>
      <trkpt lat="43.77605" lon="3.82183">
        <ele>366.8</ele>
        <time>2024-02-23T12:36:03Z</time>
      </trkpt>
      <trkpt lat="43.77605" lon="3.82183">
        <ele>367</ele>
        <time>2024-02-23T12:36:04Z</time>
      </trkpt>
      <trkpt lat="43.77606" lon="3.82179">
        <ele>367.2</ele>
        <time>2024-02-23T12:36:05Z</time>
      </trkpt>
      <trkpt lat="43.77607" lon="3.82177">
        <ele>367.6</ele>
        <time>2024-02-23T12:36:06Z</time>
      </trkpt>
      <trkpt lat="43.77607" lon="3.82177">
        <ele>367.8</ele>
        <time>2024-02-23T12:36:07Z</time>
      </trkpt>
      <trkpt lat="43.77608" lon="3.82173">
        <ele>368</ele>
        <time>2024-02-23T12:36:08Z</time>
      </trkpt>
      <trkpt lat="43.7761" lon="3.8217">
        <ele>368.2</ele>
        <time>2024-02-23T12:36:09Z</time>
      </trkpt>
      <trkpt lat="43.77611" lon="3.82167">
        <ele>368.6</ele>
        <time>2024-02-23T12:36:10Z</time>
      </trkpt>
      <trkpt lat="43.77612" lon="3.82165">
        <ele>368.8</ele>
        <time>2024-02-23T12:36:11Z</time>
      </trkpt>
      <trkpt lat="43.77613" lon="3.82163">
        <ele>369</ele>
        <time>2024-02-23T12:36:12Z</time>
      </trkpt>
      <trkpt lat="43.77613" lon="3.82163">
        <ele>369.2</ele>
        <time>2024-02-23T12:36:13Z</time>
      </trkpt>
      <trkpt lat="43.77613" lon="3.82159">
        <ele>369.6</ele>
        <time>2024-02-23T12:36:14Z</time>
      </trkpt>
      <trkpt lat="43.77613" lon="3.82159">
        <ele>369.8</ele>
        <time>2024-02-23T12:36:15Z</time>
      </trkpt>
      <trkpt lat="43.77613" lon="3.82154">
        <ele>370</ele>
        <time>2024-02-23T12:36:16Z</time>
      </trkpt>
      <trkpt lat="43.77614" lon="3.82152">
        <ele>370.4</ele>
        <time>2024-02-23T12:36:17Z</time>
      </trkpt>
      <trkpt lat="43.77615" lon="3.8215">
        <ele>370.6</ele>
        <time>2024-02-23T12:36:18Z</time>
      </trkpt>
      <trkpt lat="43.77615" lon="3.8215">
        <ele>370.8</ele>
        <time>2024-02-23T12:36:19Z</time>
      </trkpt>
      <trkpt lat="43.77616" lon="3.82146">
        <ele>371</ele>
        <time>2024-02-23T12:36:20Z</time>
      </trkpt>
      <trkpt lat="43.77616" lon="3.82146">
        <ele>371.2</ele>
        <time>2024-02-23T12:36:21Z</time>
      </trkpt>
      <trkpt lat="43.77617" lon="3.82144">
        <ele>371.4</ele>
        <time>2024-02-23T12:36:22Z</time>
      </trkpt>
      <trkpt lat="43.77617" lon="3.82144">
        <ele>371.6</ele>
        <time>2024-02-23T12:36:23Z</time>
      </trkpt>
      <trkpt lat="43.77619" lon="3.82141">
        <ele>371.8</ele>
        <time>2024-02-23T12:36:24Z</time>
      </trkpt>
      <trkpt lat="43.77619" lon="3.82141">
        <ele>371.8</ele>
        <time>2024-02-23T12:36:25Z</time>
      </trkpt>
      <trkpt lat="43.77621" lon="3.82139">
        <ele>372</ele>
        <time>2024-02-23T12:36:26Z</time>
      </trkpt>
      <trkpt lat="43.77621" lon="3.82139">
        <ele>372.2</ele>
        <time>2024-02-23T12:36:27Z</time>
      </trkpt>
      <trkpt lat="43.77623" lon="3.82137">
        <ele>372.4</ele>
        <time>2024-02-23T12:36:28Z</time>
      </trkpt>
      <trkpt lat="43.77623" lon="3.82137">
        <ele>372.6</ele>
        <time>2024-02-23T12:36:29Z</time>
      </trkpt>
      <trkpt lat="43.77626" lon="3.82135">
        <ele>372.6</ele>
        <time>2024-02-23T12:36:30Z</time>
      </trkpt>
      <trkpt lat="43.77626" lon="3.82135">
        <ele>373</ele>
        <time>2024-02-23T12:36:31Z</time>
      </trkpt>
      <trkpt lat="43.77628" lon="3.82132">
        <ele>373.2</ele>
        <time>2024-02-23T12:36:32Z</time>
      </trkpt>
      <trkpt lat="43.77629" lon="3.8213">
        <ele>373.4</ele>
        <time>2024-02-23T12:36:33Z</time>
      </trkpt>
      <trkpt lat="43.77629" lon="3.8213">
        <ele>373.6</ele>
        <time>2024-02-23T12:36:34Z</time>
      </trkpt>
      <trkpt lat="43.77631" lon="3.82126">
        <ele>373.8</ele>
        <time>2024-02-23T12:36:35Z</time>
      </trkpt>
      <trkpt lat="43.77632" lon="3.82123">
        <ele>374</ele>
        <time>2024-02-23T12:36:36Z</time>
      </trkpt>
      <trkpt lat="43.77633" lon="3.82121">
        <ele>374.2</ele>
        <time>2024-02-23T12:36:37Z</time>
      </trkpt>
      <trkpt lat="43.77633" lon="3.82121">
        <ele>374.4</ele>
        <time>2024-02-23T12:36:38Z</time>
      </trkpt>
      <trkpt lat="43.77636" lon="3.82117">
        <ele>374.6</ele>
        <time>2024-02-23T12:36:39Z</time>
      </trkpt>
      <trkpt lat="43.77636" lon="3.82117">
        <ele>374.8</ele>
        <time>2024-02-23T12:36:40Z</time>
      </trkpt>
      <trkpt lat="43.77637" lon="3.82115">
        <ele>375</ele>
        <time>2024-02-23T12:36:41Z</time>
      </trkpt>
      <trkpt lat="43.77637" lon="3.82115">
        <ele>375.4</ele>
        <time>2024-02-23T12:36:42Z</time>
      </trkpt>
      <trkpt lat="43.77639" lon="3.82111">
        <ele>375.6</ele>
        <time>2024-02-23T12:36:43Z</time>
      </trkpt>
      <trkpt lat="43.77639" lon="3.82111">
        <ele>376</ele>
        <time>2024-02-23T12:36:44Z</time>
      </trkpt>
      <trkpt lat="43.77641" lon="3.82108">
        <ele>376.2</ele>
        <time>2024-02-23T12:36:45Z</time>
      </trkpt>
      <trkpt lat="43.77641" lon="3.82105">
        <ele>376.6</ele>
        <time>2024-02-23T12:36:46Z</time>
      </trkpt>
      <trkpt lat="43.77641" lon="3.82102">
        <ele>376.8</ele>
        <time>2024-02-23T12:36:47Z</time>
      </trkpt>
      <trkpt lat="43.77641" lon="3.82099">
        <ele>377.2</ele>
        <time>2024-02-23T12:36:48Z</time>
      </trkpt>
      <trkpt lat="43.77643" lon="3.82097">
        <ele>377.4</ele>
        <time>2024-02-23T12:36:49Z</time>
      </trkpt>
      <trkpt lat="43.77643" lon="3.82094">
        <ele>377.6</ele>
        <time>2024-02-23T12:36:50Z</time>
      </trkpt>
      <trkpt lat="43.77644" lon="3.82091">
        <ele>377.8</ele>
        <time>2024-02-23T12:36:51Z</time>
      </trkpt>
      <trkpt lat="43.77644" lon="3.82091">
        <ele>378.2</ele>
        <time>2024-02-23T12:36:52Z</time>
      </trkpt>
      <trkpt lat="43.77645" lon="3.82087">
        <ele>378.4</ele>
        <time>2024-02-23T12:36:53Z</time>
      </trkpt>
      <trkpt lat="43.77646" lon="3.82085">
        <ele>378.8</ele>
        <time>2024-02-23T12:36:54Z</time>
      </trkpt>
      <trkpt lat="43.77648" lon="3.82084">
        <ele>379.2</ele>
        <time>2024-02-23T12:36:55Z</time>
      </trkpt>
      <trkpt lat="43.77648" lon="3.82084">
        <ele>379.4</ele>
        <time>2024-02-23T12:36:56Z</time>
      </trkpt>
      <trkpt lat="43.7765" lon="3.8208">
        <ele>379.6</ele>
        <time>2024-02-23T12:36:57Z</time>
      </trkpt>
      <trkpt lat="43.7765" lon="3.8208">
        <ele>379.8</ele>
        <time>2024-02-23T12:36:58Z</time>
      </trkpt>
      <trkpt lat="43.77649" lon="3.82077">
        <ele>380</ele>
        <time>2024-02-23T12:36:59Z</time>
      </trkpt>
      <trkpt lat="43.77649" lon="3.82077">
        <ele>380.2</ele>
        <time>2024-02-23T12:37:00Z</time>
      </trkpt>
      <trkpt lat="43.7765" lon="3.82074">
        <ele>380.6</ele>
        <time>2024-02-23T12:37:01Z</time>
      </trkpt>
      <trkpt lat="43.7765" lon="3.82074">
        <ele>380.8</ele>
        <time>2024-02-23T12:37:02Z</time>
      </trkpt>
      <trkpt lat="43.77651" lon="3.8207">
        <ele>381.2</ele>
        <time>2024-02-23T12:37:03Z</time>
      </trkpt>
      <trkpt lat="43.77651" lon="3.8207">
        <ele>381.6</ele>
        <time>2024-02-23T12:37:04Z</time>
      </trkpt>
      <trkpt lat="43.77651" lon="3.82067">
        <ele>382</ele>
        <time>2024-02-23T12:37:05Z</time>
      </trkpt>
      <trkpt lat="43.77651" lon="3.82067">
        <ele>382.4</ele>
        <time>2024-02-23T12:37:06Z</time>
      </trkpt>
      <trkpt lat="43.77651" lon="3.82064">
        <ele>382.6</ele>
        <time>2024-02-23T12:37:07Z</time>
      </trkpt>
      <trkpt lat="43.77651" lon="3.82061">
        <ele>383</ele>
        <time>2024-02-23T12:37:08Z</time>
      </trkpt>
      <trkpt lat="43.77652" lon="3.82058">
        <ele>383.2</ele>
        <time>2024-02-23T12:37:09Z</time>
      </trkpt>
      <trkpt lat="43.77653" lon="3.82054">
        <ele>383.6</ele>
        <time>2024-02-23T12:37:10Z</time>
      </trkpt>
      <trkpt lat="43.77654" lon="3.8205">
        <ele>384</ele>
        <time>2024-02-23T12:37:11Z</time>
      </trkpt>
      <trkpt lat="43.77655" lon="3.82047">
        <ele>384.4</ele>
        <time>2024-02-23T12:37:12Z</time>
      </trkpt>
      <trkpt lat="43.77657" lon="3.82045">
        <ele>384.6</ele>
        <time>2024-02-23T12:37:13Z</time>
      </trkpt>
      <trkpt lat="43.77656" lon="3.82043">
        <ele>384.8</ele>
        <time>2024-02-23T12:37:14Z</time>
      </trkpt>
      <trkpt lat="43.77656" lon="3.82043">
        <ele>385.2</ele>
        <time>2024-02-23T12:37:15Z</time>
      </trkpt>
      <trkpt lat="43.77657" lon="3.82039">
        <ele>385.4</ele>
        <time>2024-02-23T12:37:16Z</time>
      </trkpt>
      <trkpt lat="43.77657" lon="3.82036">
        <ele>385.8</ele>
        <time>2024-02-23T12:37:17Z</time>
      </trkpt>
      <trkpt lat="43.77658" lon="3.82033">
        <ele>386</ele>
        <time>2024-02-23T12:37:18Z</time>
      </trkpt>
      <trkpt lat="43.77658" lon="3.82033">
        <ele>386.2</ele>
        <time>2024-02-23T12:37:19Z</time>
      </trkpt>
      <trkpt lat="43.77661" lon="3.82031">
        <ele>386.6</ele>
        <time>2024-02-23T12:37:20Z</time>
      </trkpt>
      <trkpt lat="43.77661" lon="3.82031">
        <ele>386.8</ele>
        <time>2024-02-23T12:37:21Z</time>
      </trkpt>
      <trkpt lat="43.77663" lon="3.82029">
        <ele>387.2</ele>
        <time>2024-02-23T12:37:22Z</time>
      </trkpt>
      <trkpt lat="43.77663" lon="3.82029">
        <ele>387.4</ele>
        <time>2024-02-23T12:37:23Z</time>
      </trkpt>
      <trkpt lat="43.77663" lon="3.82025">
        <ele>387.6</ele>
        <time>2024-02-23T12:37:24Z</time>
      </trkpt>
      <trkpt lat="43.77663" lon="3.82025">
        <ele>387.8</ele>
        <time>2024-02-23T12:37:25Z</time>
      </trkpt>
      <trkpt lat="43.77663" lon="3.8202">
        <ele>388.2</ele>
        <time>2024-02-23T12:37:26Z</time>
      </trkpt>
      <trkpt lat="43.77663" lon="3.8202">
        <ele>388.4</ele>
        <time>2024-02-23T12:37:27Z</time>
      </trkpt>
      <trkpt lat="43.77666" lon="3.82016">
        <ele>388.8</ele>
        <time>2024-02-23T12:37:28Z</time>
      </trkpt>
      <trkpt lat="43.77667" lon="3.82014">
        <ele>389</ele>
        <time>2024-02-23T12:37:29Z</time>
      </trkpt>
      <trkpt lat="43.77667" lon="3.82014">
        <ele>389.2</ele>
        <time>2024-02-23T12:37:30Z</time>
      </trkpt>
      <trkpt lat="43.77667" lon="3.82014">
        <ele>389.4</ele>
        <time>2024-02-23T12:37:31Z</time>
      </trkpt>
      <trkpt lat="43.77667" lon="3.82011">
        <ele>389.8</ele>
        <time>2024-02-23T12:37:32Z</time>
      </trkpt>
      <trkpt lat="43.77667" lon="3.82011">
        <ele>390</ele>
        <time>2024-02-23T12:37:33Z</time>
      </trkpt>
      <trkpt lat="43.77668" lon="3.82008">
        <ele>390.2</ele>
        <time>2024-02-23T12:37:34Z</time>
      </trkpt>
      <trkpt lat="43.77668" lon="3.82008">
        <ele>390.4</ele>
        <time>2024-02-23T12:37:35Z</time>
      </trkpt>
      <trkpt lat="43.77667" lon="3.82005">
        <ele>390.6</ele>
        <time>2024-02-23T12:37:36Z</time>
      </trkpt>
      <trkpt lat="43.77667" lon="3.82005">
        <ele>390.8</ele>
        <time>2024-02-23T12:37:37Z</time>
      </trkpt>
      <trkpt lat="43.77668" lon="3.82002">
        <ele>391.2</ele>
        <time>2024-02-23T12:37:38Z</time>
      </trkpt>
      <trkpt lat="43.77668" lon="3.82002">
        <ele>391.4</ele>
        <time>2024-02-23T12:37:39Z</time>
      </trkpt>
      <trkpt lat="43.7767" lon="3.82">
        <ele>391.6</ele>
        <time>2024-02-23T12:37:40Z</time>
      </trkpt>
      <trkpt lat="43.7767" lon="3.82">
        <ele>391.8</ele>
        <time>2024-02-23T12:37:41Z</time>
      </trkpt>
      <trkpt lat="43.77671" lon="3.81997">
        <ele>392</ele>
        <time>2024-02-23T12:37:42Z</time>
      </trkpt>
      <trkpt lat="43.77671" lon="3.81997">
        <ele>392.2</ele>
        <time>2024-02-23T12:37:43Z</time>
      </trkpt>
      <trkpt lat="43.77673" lon="3.81994">
        <ele>392.4</ele>
        <time>2024-02-23T12:37:44Z</time>
      </trkpt>
      <trkpt lat="43.77673" lon="3.81994">
        <ele>392.6</ele>
        <time>2024-02-23T12:37:45Z</time>
      </trkpt>
      <trkpt lat="43.77673" lon="3.81994">
        <ele>392.8</ele>
        <time>2024-02-23T12:37:46Z</time>
      </trkpt>
      <trkpt lat="43.77676" lon="3.81995">
        <ele>393.2</ele>
        <time>2024-02-23T12:37:47Z</time>
      </trkpt>
      <trkpt lat="43.77676" lon="3.81995">
        <ele>393.4</ele>
        <time>2024-02-23T12:37:48Z</time>
      </trkpt>
      <trkpt lat="43.77677" lon="3.81995">
        <ele>393.6</ele>
        <time>2024-02-23T12:37:49Z</time>
      </trkpt>
      <trkpt lat="43.77677" lon="3.81995">
        <ele>393.8</ele>
        <time>2024-02-23T12:37:50Z</time>
      </trkpt>
      <trkpt lat="43.77677" lon="3.81995">
        <ele>394</ele>
        <time>2024-02-23T12:37:51Z</time>
      </trkpt>
      <trkpt lat="43.77677" lon="3.81995">
        <ele>394.4</ele>
        <time>2024-02-23T12:37:52Z</time>
      </trkpt>
      <trkpt lat="43.77679" lon="3.81995">
        <ele>394.6</ele>
        <time>2024-02-23T12:37:53Z</time>
      </trkpt>
      <trkpt lat="43.77679" lon="3.81995">
        <ele>395</ele>
        <time>2024-02-23T12:37:54Z</time>
      </trkpt>
      <trkpt lat="43.77679" lon="3.81995">
        <ele>395.4</ele>
        <time>2024-02-23T12:37:55Z</time>
      </trkpt>
      <trkpt lat="43.77679" lon="3.81995">
        <ele>395.8</ele>
        <time>2024-02-23T12:37:56Z</time>
      </trkpt>
      <trkpt lat="43.77681" lon="3.81994">
        <ele>396</ele>
        <time>2024-02-23T12:37:57Z</time>
      </trkpt>
      <trkpt lat="43.77681" lon="3.81994">
        <ele>396.4</ele>
        <time>2024-02-23T12:37:58Z</time>
      </trkpt>
      <trkpt lat="43.77683" lon="3.81993">
        <ele>396.6</ele>
        <time>2024-02-23T12:37:59Z</time>
      </trkpt>
      <trkpt lat="43.77683" lon="3.81993">
        <ele>396.8</ele>
        <time>2024-02-23T12:38:00Z</time>
      </trkpt>
      <trkpt lat="43.77683" lon="3.81993">
        <ele>397</ele>
        <time>2024-02-23T12:38:01Z</time>
      </trkpt>
      <trkpt lat="43.77685" lon="3.81991">
        <ele>397.2</ele>
        <time>2024-02-23T12:38:02Z</time>
      </trkpt>
      <trkpt lat="43.77685" lon="3.81991">
        <ele>397.4</ele>
        <time>2024-02-23T12:38:03Z</time>
      </trkpt>
      <trkpt lat="43.77685" lon="3.81991">
        <ele>397.8</ele>
        <time>2024-02-23T12:38:04Z</time>
      </trkpt>
      <trkpt lat="43.77687" lon="3.81989">
        <ele>398</ele>
        <time>2024-02-23T12:38:05Z</time>
      </trkpt>
      <trkpt lat="43.77687" lon="3.81989">
        <ele>398.4</ele>
        <time>2024-02-23T12:38:06Z</time>
      </trkpt>
      <trkpt lat="43.77687" lon="3.81989">
        <ele>398.6</ele>
        <time>2024-02-23T12:38:07Z</time>
      </trkpt>
      <trkpt lat="43.77688" lon="3.81987">
        <ele>399</ele>
        <time>2024-02-23T12:38:08Z</time>
      </trkpt>
      <trkpt lat="43.77688" lon="3.81987">
        <ele>399.2</ele>
        <time>2024-02-23T12:38:09Z</time>
      </trkpt>
      <trkpt lat="43.77688" lon="3.81987">
        <ele>399.6</ele>
        <time>2024-02-23T12:38:10Z</time>
      </trkpt>
      <trkpt lat="43.77689" lon="3.81985">
        <ele>400</ele>
        <time>2024-02-23T12:38:11Z</time>
      </trkpt>
      <trkpt lat="43.77689" lon="3.81985">
        <ele>400.2</ele>
        <time>2024-02-23T12:38:12Z</time>
      </trkpt>
      <trkpt lat="43.7769" lon="3.81982">
        <ele>400.6</ele>
        <time>2024-02-23T12:38:13Z</time>
      </trkpt>
      <trkpt lat="43.7769" lon="3.81982">
        <ele>401</ele>
        <time>2024-02-23T12:38:14Z</time>
      </trkpt>
      <trkpt lat="43.77691" lon="3.81978">
        <ele>401.2</ele>
        <time>2024-02-23T12:38:15Z</time>
      </trkpt>
      <trkpt lat="43.77691" lon="3.81978">
        <ele>401.4</ele>
        <time>2024-02-23T12:38:16Z</time>
      </trkpt>
      <trkpt lat="43.77692" lon="3.81976">
        <ele>401.6</ele>
        <time>2024-02-23T12:38:17Z</time>
      </trkpt>
      <trkpt lat="43.77692" lon="3.81976">
        <ele>401.8</ele>
        <time>2024-02-23T12:38:18Z</time>
      </trkpt>
      <trkpt lat="43.77693" lon="3.81974">
        <ele>402.2</ele>
        <time>2024-02-23T12:38:19Z</time>
      </trkpt>
      <trkpt lat="43.77693" lon="3.81974">
        <ele>402.2</ele>
        <time>2024-02-23T12:38:20Z</time>
      </trkpt>
      <trkpt lat="43.77694" lon="3.81972">
        <ele>402.4</ele>
        <time>2024-02-23T12:38:21Z</time>
      </trkpt>
      <trkpt lat="43.77694" lon="3.81972">
        <ele>402.6</ele>
        <time>2024-02-23T12:38:22Z</time>
      </trkpt>
      <trkpt lat="43.77694" lon="3.81969">
        <ele>403</ele>
        <time>2024-02-23T12:38:23Z</time>
      </trkpt>
      <trkpt lat="43.77694" lon="3.81969">
        <ele>403.2</ele>
        <time>2024-02-23T12:38:24Z</time>
      </trkpt>
      <trkpt lat="43.77694" lon="3.81969">
        <ele>403.6</ele>
        <time>2024-02-23T12:38:25Z</time>
      </trkpt>
      <trkpt lat="43.77694" lon="3.81967">
        <ele>403.8</ele>
        <time>2024-02-23T12:38:26Z</time>
      </trkpt>
      <trkpt lat="43.77694" lon="3.81967">
        <ele>404</ele>
        <time>2024-02-23T12:38:27Z</time>
      </trkpt>
      <trkpt lat="43.77695" lon="3.81964">
        <ele>404.2</ele>
        <time>2024-02-23T12:38:28Z</time>
      </trkpt>
      <trkpt lat="43.77695" lon="3.81964">
        <ele>404.4</ele>
        <time>2024-02-23T12:38:29Z</time>
      </trkpt>
      <trkpt lat="43.77696" lon="3.81961">
        <ele>404.6</ele>
        <time>2024-02-23T12:38:30Z</time>
      </trkpt>
      <trkpt lat="43.77696" lon="3.81961">
        <ele>405</ele>
        <time>2024-02-23T12:38:31Z</time>
      </trkpt>
      <trkpt lat="43.77696" lon="3.81961">
        <ele>405.2</ele>
        <time>2024-02-23T12:38:32Z</time>
      </trkpt>
      <trkpt lat="43.77697" lon="3.81959">
        <ele>405.6</ele>
        <time>2024-02-23T12:38:33Z</time>
      </trkpt>
      <trkpt lat="43.77697" lon="3.81959">
        <ele>405.8</ele>
        <time>2024-02-23T12:38:34Z</time>
      </trkpt>
      <trkpt lat="43.77697" lon="3.81959">
        <ele>406</ele>
        <time>2024-02-23T12:38:35Z</time>
      </trkpt>
      <trkpt lat="43.77697" lon="3.81954">
        <ele>406.4</ele>
        <time>2024-02-23T12:38:36Z</time>
      </trkpt>
      <trkpt lat="43.77697" lon="3.81954">
        <ele>406.8</ele>
        <time>2024-02-23T12:38:37Z</time>
      </trkpt>
      <trkpt lat="43.77699" lon="3.81951">
        <ele>407</ele>
        <time>2024-02-23T12:38:38Z</time>
      </trkpt>
      <trkpt lat="43.77699" lon="3.81951">
        <ele>407.4</ele>
        <time>2024-02-23T12:38:39Z</time>
      </trkpt>
      <trkpt lat="43.77701" lon="3.81949">
        <ele>407.6</ele>
        <time>2024-02-23T12:38:40Z</time>
      </trkpt>
      <trkpt lat="43.77701" lon="3.81949">
        <ele>408</ele>
        <time>2024-02-23T12:38:41Z</time>
      </trkpt>
      <trkpt lat="43.77703" lon="3.81947">
        <ele>408.4</ele>
        <time>2024-02-23T12:38:42Z</time>
      </trkpt>
      <trkpt lat="43.77703" lon="3.81947">
        <ele>408.8</ele>
        <time>2024-02-23T12:38:43Z</time>
      </trkpt>
      <trkpt lat="43.77704" lon="3.81945">
        <ele>409.2</ele>
        <time>2024-02-23T12:38:44Z</time>
      </trkpt>
      <trkpt lat="43.77704" lon="3.81945">
        <ele>409.4</ele>
        <time>2024-02-23T12:38:45Z</time>
      </trkpt>
      <trkpt lat="43.77704" lon="3.81945">
        <ele>409.6</ele>
        <time>2024-02-23T12:38:46Z</time>
      </trkpt>
      <trkpt lat="43.77704" lon="3.81942">
        <ele>409.8</ele>
        <time>2024-02-23T12:38:47Z</time>
      </trkpt>
      <trkpt lat="43.77704" lon="3.81942">
        <ele>410.2</ele>
        <time>2024-02-23T12:38:48Z</time>
      </trkpt>
      <trkpt lat="43.77704" lon="3.81942">
        <ele>410.4</ele>
        <time>2024-02-23T12:38:49Z</time>
      </trkpt>
      <trkpt lat="43.77705" lon="3.8194">
        <ele>410.8</ele>
        <time>2024-02-23T12:38:50Z</time>
      </trkpt>
      <trkpt lat="43.77705" lon="3.8194">
        <ele>411</ele>
        <time>2024-02-23T12:38:51Z</time>
      </trkpt>
      <trkpt lat="43.77707" lon="3.81938">
        <ele>411.4</ele>
        <time>2024-02-23T12:38:52Z</time>
      </trkpt>
      <trkpt lat="43.77707" lon="3.81938">
        <ele>411.6</ele>
        <time>2024-02-23T12:38:53Z</time>
      </trkpt>
      <trkpt lat="43.77707" lon="3.81938">
        <ele>412</ele>
        <time>2024-02-23T12:38:54Z</time>
      </trkpt>
      <trkpt lat="43.77709" lon="3.81936">
        <ele>412.2</ele>
        <time>2024-02-23T12:38:55Z</time>
      </trkpt>
      <trkpt lat="43.77709" lon="3.81936">
        <ele>412.4</ele>
        <time>2024-02-23T12:38:56Z</time>
      </trkpt>
      <trkpt lat="43.77707" lon="3.81934">
        <ele>412.6</ele>
        <time>2024-02-23T12:38:57Z</time>
      </trkpt>
      <trkpt lat="43.77707" lon="3.81934">
        <ele>412.8</ele>
        <time>2024-02-23T12:38:58Z</time>
      </trkpt>
      <trkpt lat="43.77707" lon="3.81934">
        <ele>413</ele>
        <time>2024-02-23T12:38:59Z</time>
      </trkpt>
      <trkpt lat="43.77708" lon="3.8193">
        <ele>413.2</ele>
        <time>2024-02-23T12:39:00Z</time>
      </trkpt>
      <trkpt lat="43.77708" lon="3.8193">
        <ele>413.6</ele>
        <time>2024-02-23T12:39:01Z</time>
      </trkpt>
      <trkpt lat="43.77708" lon="3.8193">
        <ele>413.8</ele>
        <time>2024-02-23T12:39:02Z</time>
      </trkpt>
      <trkpt lat="43.77708" lon="3.81927">
        <ele>414.2</ele>
        <time>2024-02-23T12:39:03Z</time>
      </trkpt>
      <trkpt lat="43.77708" lon="3.81927">
        <ele>414.6</ele>
        <time>2024-02-23T12:39:04Z</time>
      </trkpt>
      <trkpt lat="43.77708" lon="3.81925">
        <ele>415</ele>
        <time>2024-02-23T12:39:05Z</time>
      </trkpt>
      <trkpt lat="43.77708" lon="3.81925">
        <ele>415.2</ele>
        <time>2024-02-23T12:39:06Z</time>
      </trkpt>
      <trkpt lat="43.77708" lon="3.81925">
        <ele>415.6</ele>
        <time>2024-02-23T12:39:07Z</time>
      </trkpt>
      <trkpt lat="43.77706" lon="3.81922">
        <ele>415.8</ele>
        <time>2024-02-23T12:39:08Z</time>
      </trkpt>
      <trkpt lat="43.77706" lon="3.81922">
        <ele>416</ele>
        <time>2024-02-23T12:39:09Z</time>
      </trkpt>
      <trkpt lat="43.77707" lon="3.81919">
        <ele>416</ele>
        <time>2024-02-23T12:39:10Z</time>
      </trkpt>
      <trkpt lat="43.77707" lon="3.81919">
        <ele>416.2</ele>
        <time>2024-02-23T12:39:11Z</time>
      </trkpt>
      <trkpt lat="43.77708" lon="3.81915">
        <ele>416.4</ele>
        <time>2024-02-23T12:39:12Z</time>
      </trkpt>
      <trkpt lat="43.77708" lon="3.81915">
        <ele>416.4</ele>
        <time>2024-02-23T12:39:13Z</time>
      </trkpt>
      <trkpt lat="43.77708" lon="3.81915">
        <ele>416.6</ele>
        <time>2024-02-23T12:39:14Z</time>
      </trkpt>
      <trkpt lat="43.77708" lon="3.81915">
        <ele>417</ele>
        <time>2024-02-23T12:39:15Z</time>
      </trkpt>
      <trkpt lat="43.77708" lon="3.81915">
        <ele>417.2</ele>
        <time>2024-02-23T12:39:16Z</time>
      </trkpt>
      <trkpt lat="43.77708" lon="3.81912">
        <ele>417.4</ele>
        <time>2024-02-23T12:39:17Z</time>
      </trkpt>
      <trkpt lat="43.77708" lon="3.81912">
        <ele>417.8</ele>
        <time>2024-02-23T12:39:18Z</time>
      </trkpt>
      <trkpt lat="43.77708" lon="3.81912">
        <ele>418.2</ele>
        <time>2024-02-23T12:39:19Z</time>
      </trkpt>
      <trkpt lat="43.77708" lon="3.81912">
        <ele>418.4</ele>
        <time>2024-02-23T12:39:20Z</time>
      </trkpt>
      <trkpt lat="43.77707" lon="3.81909">
        <ele>418.8</ele>
        <time>2024-02-23T12:39:21Z</time>
      </trkpt>
      <trkpt lat="43.77707" lon="3.81909">
        <ele>419</ele>
        <time>2024-02-23T12:39:22Z</time>
      </trkpt>
      <trkpt lat="43.77707" lon="3.81909">
        <ele>419.4</ele>
        <time>2024-02-23T12:39:23Z</time>
      </trkpt>
      <trkpt lat="43.77707" lon="3.81907">
        <ele>419.8</ele>
        <time>2024-02-23T12:39:24Z</time>
      </trkpt>
      <trkpt lat="43.77707" lon="3.81907">
        <ele>420.2</ele>
        <time>2024-02-23T12:39:25Z</time>
      </trkpt>
      <trkpt lat="43.77707" lon="3.81907">
        <ele>420.6</ele>
        <time>2024-02-23T12:39:26Z</time>
      </trkpt>
      <trkpt lat="43.77707" lon="3.81907">
        <ele>421</ele>
        <time>2024-02-23T12:39:27Z</time>
      </trkpt>
      <trkpt lat="43.77707" lon="3.81907">
        <ele>421.4</ele>
        <time>2024-02-23T12:39:28Z</time>
      </trkpt>
      <trkpt lat="43.77708" lon="3.81906">
        <ele>421.8</ele>
        <time>2024-02-23T12:39:29Z</time>
      </trkpt>
      <trkpt lat="43.77708" lon="3.81906">
        <ele>422</ele>
        <time>2024-02-23T12:39:30Z</time>
      </trkpt>
      <trkpt lat="43.77708" lon="3.81906">
        <ele>422.2</ele>
        <time>2024-02-23T12:39:31Z</time>
      </trkpt>
      <trkpt lat="43.77708" lon="3.81906">
        <ele>422.4</ele>
        <time>2024-02-23T12:39:32Z</time>
      </trkpt>
      <trkpt lat="43.77709" lon="3.81903">
        <ele>422.6</ele>
        <time>2024-02-23T12:39:33Z</time>
      </trkpt>
      <trkpt lat="43.77709" lon="3.81903">
        <ele>422.8</ele>
        <time>2024-02-23T12:39:34Z</time>
      </trkpt>
      <trkpt lat="43.77709" lon="3.81903">
        <ele>423</ele>
        <time>2024-02-23T12:39:35Z</time>
      </trkpt>
      <trkpt lat="43.77709" lon="3.819">
        <ele>423.4</ele>
        <time>2024-02-23T12:39:36Z</time>
      </trkpt>
      <trkpt lat="43.77709" lon="3.819">
        <ele>423.6</ele>
        <time>2024-02-23T12:39:37Z</time>
      </trkpt>
      <trkpt lat="43.77709" lon="3.819">
        <ele>423.8</ele>
        <time>2024-02-23T12:39:38Z</time>
      </trkpt>
      <trkpt lat="43.77709" lon="3.819">
        <ele>424</ele>
        <time>2024-02-23T12:39:39Z</time>
      </trkpt>
      <trkpt lat="43.77709" lon="3.81898">
        <ele>424.2</ele>
        <time>2024-02-23T12:39:40Z</time>
      </trkpt>
      <trkpt lat="43.77709" lon="3.81898">
        <ele>424.6</ele>
        <time>2024-02-23T12:39:41Z</time>
      </trkpt>
      <trkpt lat="43.77709" lon="3.81898">
        <ele>424.8</ele>
        <time>2024-02-23T12:39:42Z</time>
      </trkpt>
      <trkpt lat="43.77711" lon="3.81895">
        <ele>425</ele>
        <time>2024-02-23T12:39:43Z</time>
      </trkpt>
      <trkpt lat="43.77711" lon="3.81895">
        <ele>425.4</ele>
        <time>2024-02-23T12:39:44Z</time>
      </trkpt>
      <trkpt lat="43.77711" lon="3.81892">
        <ele>425.6</ele>
        <time>2024-02-23T12:39:45Z</time>
      </trkpt>
      <trkpt lat="43.77711" lon="3.81892">
        <ele>426</ele>
        <time>2024-02-23T12:39:46Z</time>
      </trkpt>
      <trkpt lat="43.77711" lon="3.81889">
        <ele>426.2</ele>
        <time>2024-02-23T12:39:47Z</time>
      </trkpt>
      <trkpt lat="43.77711" lon="3.81889">
        <ele>426.6</ele>
        <time>2024-02-23T12:39:48Z</time>
      </trkpt>
      <trkpt lat="43.77712" lon="3.81885">
        <ele>426.8</ele>
        <time>2024-02-23T12:39:49Z</time>
      </trkpt>
      <trkpt lat="43.77712" lon="3.81885">
        <ele>427</ele>
        <time>2024-02-23T12:39:50Z</time>
      </trkpt>
      <trkpt lat="43.77712" lon="3.81885">
        <ele>427.2</ele>
        <time>2024-02-23T12:39:51Z</time>
      </trkpt>
      <trkpt lat="43.77713" lon="3.81882">
        <ele>427.2</ele>
        <time>2024-02-23T12:39:52Z</time>
      </trkpt>
      <trkpt lat="43.77713" lon="3.81882">
        <ele>427.6</ele>
        <time>2024-02-23T12:39:53Z</time>
      </trkpt>
      <trkpt lat="43.77713" lon="3.81882">
        <ele>427.8</ele>
        <time>2024-02-23T12:39:54Z</time>
      </trkpt>
      <trkpt lat="43.77713" lon="3.81879">
        <ele>428</ele>
        <time>2024-02-23T12:39:55Z</time>
      </trkpt>
      <trkpt lat="43.77713" lon="3.81879">
        <ele>428.2</ele>
        <time>2024-02-23T12:39:56Z</time>
      </trkpt>
      <trkpt lat="43.77713" lon="3.81879">
        <ele>428.4</ele>
        <time>2024-02-23T12:39:57Z</time>
      </trkpt>
      <trkpt lat="43.77712" lon="3.81876">
        <ele>428.6</ele>
        <time>2024-02-23T12:39:58Z</time>
      </trkpt>
      <trkpt lat="43.77712" lon="3.81876">
        <ele>428.8</ele>
        <time>2024-02-23T12:39:59Z</time>
      </trkpt>
      <trkpt lat="43.77712" lon="3.81876">
        <ele>429.2</ele>
        <time>2024-02-23T12:40:00Z</time>
      </trkpt>
      <trkpt lat="43.77714" lon="3.81872">
        <ele>429.4</ele>
        <time>2024-02-23T12:40:01Z</time>
      </trkpt>
      <trkpt lat="43.77714" lon="3.81872">
        <ele>429.6</ele>
        <time>2024-02-23T12:40:02Z</time>
      </trkpt>
      <trkpt lat="43.77714" lon="3.81869">
        <ele>430</ele>
        <time>2024-02-23T12:40:03Z</time>
      </trkpt>
      <trkpt lat="43.77714" lon="3.81869">
        <ele>430.2</ele>
        <time>2024-02-23T12:40:04Z</time>
      </trkpt>
      <trkpt lat="43.77714" lon="3.81866">
        <ele>430.4</ele>
        <time>2024-02-23T12:40:05Z</time>
      </trkpt>
      <trkpt lat="43.77714" lon="3.81866">
        <ele>430.8</ele>
        <time>2024-02-23T12:40:06Z</time>
      </trkpt>
      <trkpt lat="43.77714" lon="3.81863">
        <ele>431</ele>
        <time>2024-02-23T12:40:07Z</time>
      </trkpt>
      <trkpt lat="43.77714" lon="3.81863">
        <ele>431</ele>
        <time>2024-02-23T12:40:08Z</time>
      </trkpt>
      <trkpt lat="43.77714" lon="3.81863">
        <ele>431.2</ele>
        <time>2024-02-23T12:40:09Z</time>
      </trkpt>
      <trkpt lat="43.77713" lon="3.8186">
        <ele>431.6</ele>
        <time>2024-02-23T12:40:10Z</time>
      </trkpt>
      <trkpt lat="43.77713" lon="3.8186">
        <ele>431.8</ele>
        <time>2024-02-23T12:40:11Z</time>
      </trkpt>
      <trkpt lat="43.77713" lon="3.81857">
        <ele>432.2</ele>
        <time>2024-02-23T12:40:12Z</time>
      </trkpt>
      <trkpt lat="43.77713" lon="3.81857">
        <ele>432.4</ele>
        <time>2024-02-23T12:40:13Z</time>
      </trkpt>
      <trkpt lat="43.77712" lon="3.81853">
        <ele>432.8</ele>
        <time>2024-02-23T12:40:14Z</time>
      </trkpt>
      <trkpt lat="43.77712" lon="3.81853">
        <ele>433.2</ele>
        <time>2024-02-23T12:40:15Z</time>
      </trkpt>
      <trkpt lat="43.77711" lon="3.81851">
        <ele>433.4</ele>
        <time>2024-02-23T12:40:16Z</time>
      </trkpt>
      <trkpt lat="43.77711" lon="3.81851">
        <ele>433.8</ele>
        <time>2024-02-23T12:40:17Z</time>
      </trkpt>
      <trkpt lat="43.77712" lon="3.81848">
        <ele>434</ele>
        <time>2024-02-23T12:40:18Z</time>
      </trkpt>
      <trkpt lat="43.77712" lon="3.81848">
        <ele>434.2</ele>
        <time>2024-02-23T12:40:19Z</time>
      </trkpt>
      <trkpt lat="43.77711" lon="3.81845">
        <ele>434.2</ele>
        <time>2024-02-23T12:40:20Z</time>
      </trkpt>
      <trkpt lat="43.77709" lon="3.81843">
        <ele>434.2</ele>
        <time>2024-02-23T12:40:21Z</time>
      </trkpt>
      <trkpt lat="43.77709" lon="3.81843">
        <ele>434.4</ele>
        <time>2024-02-23T12:40:22Z</time>
      </trkpt>
      <trkpt lat="43.77709" lon="3.81839">
        <ele>434.6</ele>
        <time>2024-02-23T12:40:23Z</time>
      </trkpt>
      <trkpt lat="43.77709" lon="3.81839">
        <ele>434.8</ele>
        <time>2024-02-23T12:40:24Z</time>
      </trkpt>
      <trkpt lat="43.77709" lon="3.81837">
        <ele>435.4</ele>
        <time>2024-02-23T12:40:25Z</time>
      </trkpt>
      <trkpt lat="43.77709" lon="3.81837">
        <ele>435.8</ele>
        <time>2024-02-23T12:40:26Z</time>
      </trkpt>
      <trkpt lat="43.77709" lon="3.81837">
        <ele>436.2</ele>
        <time>2024-02-23T12:40:27Z</time>
      </trkpt>
      <trkpt lat="43.77709" lon="3.81834">
        <ele>436.6</ele>
        <time>2024-02-23T12:40:28Z</time>
      </trkpt>
      <trkpt lat="43.77709" lon="3.81834">
        <ele>437</ele>
        <time>2024-02-23T12:40:29Z</time>
      </trkpt>
      <trkpt lat="43.77709" lon="3.81834">
        <ele>437.4</ele>
        <time>2024-02-23T12:40:30Z</time>
      </trkpt>
      <trkpt lat="43.7771" lon="3.81831">
        <ele>437.6</ele>
        <time>2024-02-23T12:40:31Z</time>
      </trkpt>
      <trkpt lat="43.7771" lon="3.81831">
        <ele>437.8</ele>
        <time>2024-02-23T12:40:32Z</time>
      </trkpt>
      <trkpt lat="43.7771" lon="3.81831">
        <ele>438</ele>
        <time>2024-02-23T12:40:33Z</time>
      </trkpt>
      <trkpt lat="43.7771" lon="3.81831">
        <ele>438.2</ele>
        <time>2024-02-23T12:40:34Z</time>
      </trkpt>
      <trkpt lat="43.7771" lon="3.81828">
        <ele>438.2</ele>
        <time>2024-02-23T12:40:35Z</time>
      </trkpt>
      <trkpt lat="43.7771" lon="3.81828">
        <ele>438.4</ele>
        <time>2024-02-23T12:40:36Z</time>
      </trkpt>
      <trkpt lat="43.7771" lon="3.81828">
        <ele>438.6</ele>
        <time>2024-02-23T12:40:37Z</time>
      </trkpt>
      <trkpt lat="43.7771" lon="3.81828">
        <ele>439</ele>
        <time>2024-02-23T12:40:38Z</time>
      </trkpt>
      <trkpt lat="43.77711" lon="3.81825">
        <ele>439.2</ele>
        <time>2024-02-23T12:40:39Z</time>
      </trkpt>
      <trkpt lat="43.77711" lon="3.81825">
        <ele>439.4</ele>
        <time>2024-02-23T12:40:40Z</time>
      </trkpt>
      <trkpt lat="43.7771" lon="3.81821">
        <ele>439.4</ele>
        <time>2024-02-23T12:40:41Z</time>
      </trkpt>
      <trkpt lat="43.7771" lon="3.81821">
        <ele>439.6</ele>
        <time>2024-02-23T12:40:42Z</time>
      </trkpt>
      <trkpt lat="43.7771" lon="3.81819">
        <ele>439.8</ele>
        <time>2024-02-23T12:40:43Z</time>
      </trkpt>
      <trkpt lat="43.7771" lon="3.81819">
        <ele>440.2</ele>
        <time>2024-02-23T12:40:44Z</time>
      </trkpt>
      <trkpt lat="43.77713" lon="3.81816">
        <ele>440.4</ele>
        <time>2024-02-23T12:40:45Z</time>
      </trkpt>
      <trkpt lat="43.77713" lon="3.81816">
        <ele>440.6</ele>
        <time>2024-02-23T12:40:46Z</time>
      </trkpt>
      <trkpt lat="43.77716" lon="3.81813">
        <ele>441</ele>
        <time>2024-02-23T12:40:47Z</time>
      </trkpt>
      <trkpt lat="43.77716" lon="3.81813">
        <ele>441.2</ele>
        <time>2024-02-23T12:40:48Z</time>
      </trkpt>
      <trkpt lat="43.77716" lon="3.81813">
        <ele>441.4</ele>
        <time>2024-02-23T12:40:49Z</time>
      </trkpt>
      <trkpt lat="43.77716" lon="3.81813">
        <ele>441.6</ele>
        <time>2024-02-23T12:40:50Z</time>
      </trkpt>
      <trkpt lat="43.77716" lon="3.81813">
        <ele>441.8</ele>
        <time>2024-02-23T12:40:51Z</time>
      </trkpt>
      <trkpt lat="43.77716" lon="3.81813">
        <ele>441.8</ele>
        <time>2024-02-23T12:40:52Z</time>
      </trkpt>
      <trkpt lat="43.77716" lon="3.81813">
        <ele>442.2</ele>
        <time>2024-02-23T12:40:53Z</time>
      </trkpt>
      <trkpt lat="43.77716" lon="3.81813">
        <ele>442.4</ele>
        <time>2024-02-23T12:40:54Z</time>
      </trkpt>
      <trkpt lat="43.77717" lon="3.81809">
        <ele>442.6</ele>
        <time>2024-02-23T12:40:55Z</time>
      </trkpt>
      <trkpt lat="43.77717" lon="3.81809">
        <ele>442.8</ele>
        <time>2024-02-23T12:40:56Z</time>
      </trkpt>
      <trkpt lat="43.77716" lon="3.81805">
        <ele>443</ele>
        <time>2024-02-23T12:40:57Z</time>
      </trkpt>
      <trkpt lat="43.77716" lon="3.81805">
        <ele>443.4</ele>
        <time>2024-02-23T12:40:58Z</time>
      </trkpt>
      <trkpt lat="43.77717" lon="3.81803">
        <ele>443.6</ele>
        <time>2024-02-23T12:40:59Z</time>
      </trkpt>
      <trkpt lat="43.77717" lon="3.81803">
        <ele>443.8</ele>
        <time>2024-02-23T12:41:00Z</time>
      </trkpt>
      <trkpt lat="43.77717" lon="3.81803">
        <ele>444</ele>
        <time>2024-02-23T12:41:01Z</time>
      </trkpt>
      <trkpt lat="43.77717" lon="3.81799">
        <ele>444.4</ele>
        <time>2024-02-23T12:41:02Z</time>
      </trkpt>
      <trkpt lat="43.77717" lon="3.81799">
        <ele>444.6</ele>
        <time>2024-02-23T12:41:03Z</time>
      </trkpt>
      <trkpt lat="43.77718" lon="3.81796">
        <ele>445</ele>
        <time>2024-02-23T12:41:04Z</time>
      </trkpt>
      <trkpt lat="43.77718" lon="3.81796">
        <ele>445.2</ele>
        <time>2024-02-23T12:41:05Z</time>
      </trkpt>
      <trkpt lat="43.77718" lon="3.81792">
        <ele>445.6</ele>
        <time>2024-02-23T12:41:06Z</time>
      </trkpt>
      <trkpt lat="43.77718" lon="3.81792">
        <ele>446</ele>
        <time>2024-02-23T12:41:07Z</time>
      </trkpt>
      <trkpt lat="43.77718" lon="3.81789">
        <ele>446.2</ele>
        <time>2024-02-23T12:41:08Z</time>
      </trkpt>
      <trkpt lat="43.77718" lon="3.81789">
        <ele>446.6</ele>
        <time>2024-02-23T12:41:09Z</time>
      </trkpt>
      <trkpt lat="43.77717" lon="3.81785">
        <ele>447.2</ele>
        <time>2024-02-23T12:41:10Z</time>
      </trkpt>
      <trkpt lat="43.77717" lon="3.81785">
        <ele>447.6</ele>
        <time>2024-02-23T12:41:11Z</time>
      </trkpt>
      <trkpt lat="43.77716" lon="3.81781">
        <ele>448</ele>
        <time>2024-02-23T12:41:12Z</time>
      </trkpt>
      <trkpt lat="43.77716" lon="3.81781">
        <ele>448.2</ele>
        <time>2024-02-23T12:41:13Z</time>
      </trkpt>
      <trkpt lat="43.77717" lon="3.81778">
        <ele>448.6</ele>
        <time>2024-02-23T12:41:14Z</time>
      </trkpt>
      <trkpt lat="43.77717" lon="3.81778">
        <ele>448.8</ele>
        <time>2024-02-23T12:41:15Z</time>
      </trkpt>
      <trkpt lat="43.77717" lon="3.81774">
        <ele>449</ele>
        <time>2024-02-23T12:41:16Z</time>
      </trkpt>
      <trkpt lat="43.77717" lon="3.81774">
        <ele>449.2</ele>
        <time>2024-02-23T12:41:17Z</time>
      </trkpt>
      <trkpt lat="43.77717" lon="3.81771">
        <ele>449.4</ele>
        <time>2024-02-23T12:41:18Z</time>
      </trkpt>
      <trkpt lat="43.77717" lon="3.81771">
        <ele>449.6</ele>
        <time>2024-02-23T12:41:19Z</time>
      </trkpt>
      <trkpt lat="43.77717" lon="3.81771">
        <ele>449.8</ele>
        <time>2024-02-23T12:41:20Z</time>
      </trkpt>
      <trkpt lat="43.77719" lon="3.81768">
        <ele>449.8</ele>
        <time>2024-02-23T12:41:21Z</time>
      </trkpt>
      <trkpt lat="43.77719" lon="3.81768">
        <ele>450</ele>
        <time>2024-02-23T12:41:22Z</time>
      </trkpt>
      <trkpt lat="43.77719" lon="3.81765">
        <ele>450.2</ele>
        <time>2024-02-23T12:41:23Z</time>
      </trkpt>
      <trkpt lat="43.77719" lon="3.81765">
        <ele>450.4</ele>
        <time>2024-02-23T12:41:24Z</time>
      </trkpt>
      <trkpt lat="43.77719" lon="3.81762">
        <ele>450.6</ele>
        <time>2024-02-23T12:41:25Z</time>
      </trkpt>
      <trkpt lat="43.77719" lon="3.81762">
        <ele>451</ele>
        <time>2024-02-23T12:41:26Z</time>
      </trkpt>
      <trkpt lat="43.77719" lon="3.81758">
        <ele>451.2</ele>
        <time>2024-02-23T12:41:27Z</time>
      </trkpt>
      <trkpt lat="43.77719" lon="3.81758">
        <ele>451.6</ele>
        <time>2024-02-23T12:41:28Z</time>
      </trkpt>
      <trkpt lat="43.77719" lon="3.81756">
        <ele>451.8</ele>
        <time>2024-02-23T12:41:29Z</time>
      </trkpt>
      <trkpt lat="43.77719" lon="3.81756">
        <ele>452.2</ele>
        <time>2024-02-23T12:41:30Z</time>
      </trkpt>
      <trkpt lat="43.7772" lon="3.81753">
        <ele>452.4</ele>
        <time>2024-02-23T12:41:31Z</time>
      </trkpt>
      <trkpt lat="43.7772" lon="3.81753">
        <ele>452.6</ele>
        <time>2024-02-23T12:41:32Z</time>
      </trkpt>
      <trkpt lat="43.7772" lon="3.81753">
        <ele>452.8</ele>
        <time>2024-02-23T12:41:33Z</time>
      </trkpt>
      <trkpt lat="43.7772" lon="3.81749">
        <ele>453</ele>
        <time>2024-02-23T12:41:34Z</time>
      </trkpt>
      <trkpt lat="43.7772" lon="3.81749">
        <ele>453.2</ele>
        <time>2024-02-23T12:41:35Z</time>
      </trkpt>
      <trkpt lat="43.77722" lon="3.81747">
        <ele>453.2</ele>
        <time>2024-02-23T12:41:36Z</time>
      </trkpt>
      <trkpt lat="43.77722" lon="3.81747">
        <ele>453.4</ele>
        <time>2024-02-23T12:41:37Z</time>
      </trkpt>
      <trkpt lat="43.77722" lon="3.81744">
        <ele>453.6</ele>
        <time>2024-02-23T12:41:38Z</time>
      </trkpt>
      <trkpt lat="43.77722" lon="3.81744">
        <ele>453.8</ele>
        <time>2024-02-23T12:41:39Z</time>
      </trkpt>
      <trkpt lat="43.77721" lon="3.8174">
        <ele>454</ele>
        <time>2024-02-23T12:41:40Z</time>
      </trkpt>
      <trkpt lat="43.77721" lon="3.8174">
        <ele>454.2</ele>
        <time>2024-02-23T12:41:41Z</time>
      </trkpt>
      <trkpt lat="43.77721" lon="3.8174">
        <ele>454.6</ele>
        <time>2024-02-23T12:41:42Z</time>
      </trkpt>
      <trkpt lat="43.77721" lon="3.81737">
        <ele>455</ele>
        <time>2024-02-23T12:41:43Z</time>
      </trkpt>
      <trkpt lat="43.77721" lon="3.81737">
        <ele>455.4</ele>
        <time>2024-02-23T12:41:44Z</time>
      </trkpt>
      <trkpt lat="43.77722" lon="3.81735">
        <ele>455.8</ele>
        <time>2024-02-23T12:41:45Z</time>
      </trkpt>
      <trkpt lat="43.77722" lon="3.81735">
        <ele>456.2</ele>
        <time>2024-02-23T12:41:46Z</time>
      </trkpt>
      <trkpt lat="43.77722" lon="3.81733">
        <ele>456.6</ele>
        <time>2024-02-23T12:41:47Z</time>
      </trkpt>
      <trkpt lat="43.77722" lon="3.81733">
        <ele>457</ele>
        <time>2024-02-23T12:41:48Z</time>
      </trkpt>
      <trkpt lat="43.77722" lon="3.81733">
        <ele>457.2</ele>
        <time>2024-02-23T12:41:49Z</time>
      </trkpt>
      <trkpt lat="43.77721" lon="3.8173">
        <ele>457.4</ele>
        <time>2024-02-23T12:41:50Z</time>
      </trkpt>
      <trkpt lat="43.77721" lon="3.8173">
        <ele>457.4</ele>
        <time>2024-02-23T12:41:51Z</time>
      </trkpt>
      <trkpt lat="43.7772" lon="3.81728">
        <ele>457.6</ele>
        <time>2024-02-23T12:41:52Z</time>
      </trkpt>
      <trkpt lat="43.7772" lon="3.81728">
        <ele>457.8</ele>
        <time>2024-02-23T12:41:53Z</time>
      </trkpt>
      <trkpt lat="43.77718" lon="3.81725">
        <ele>457.8</ele>
        <time>2024-02-23T12:41:54Z</time>
      </trkpt>
      <trkpt lat="43.77718" lon="3.81725">
        <ele>458</ele>
        <time>2024-02-23T12:41:55Z</time>
      </trkpt>
      <trkpt lat="43.77718" lon="3.81722">
        <ele>458.2</ele>
        <time>2024-02-23T12:41:56Z</time>
      </trkpt>
      <trkpt lat="43.77718" lon="3.81722">
        <ele>458.6</ele>
        <time>2024-02-23T12:41:57Z</time>
      </trkpt>
      <trkpt lat="43.77718" lon="3.81722">
        <ele>458.8</ele>
        <time>2024-02-23T12:41:58Z</time>
      </trkpt>
      <trkpt lat="43.77719" lon="3.81718">
        <ele>459</ele>
        <time>2024-02-23T12:41:59Z</time>
      </trkpt>
      <trkpt lat="43.77719" lon="3.81718">
        <ele>459.2</ele>
        <time>2024-02-23T12:42:00Z</time>
      </trkpt>
      <trkpt lat="43.77719" lon="3.81718">
        <ele>459.4</ele>
        <time>2024-02-23T12:42:01Z</time>
      </trkpt>
      <trkpt lat="43.77719" lon="3.81718">
        <ele>459.8</ele>
        <time>2024-02-23T12:42:02Z</time>
      </trkpt>
      <trkpt lat="43.77721" lon="3.81714">
        <ele>460.2</ele>
        <time>2024-02-23T12:42:03Z</time>
      </trkpt>
      <trkpt lat="43.77721" lon="3.81714">
        <ele>460.4</ele>
        <time>2024-02-23T12:42:04Z</time>
      </trkpt>
      <trkpt lat="43.77721" lon="3.81714">
        <ele>460.8</ele>
        <time>2024-02-23T12:42:05Z</time>
      </trkpt>
      <trkpt lat="43.77719" lon="3.8171">
        <ele>461.2</ele>
        <time>2024-02-23T12:42:06Z</time>
      </trkpt>
      <trkpt lat="43.77719" lon="3.8171">
        <ele>461.4</ele>
        <time>2024-02-23T12:42:07Z</time>
      </trkpt>
      <trkpt lat="43.7772" lon="3.81707">
        <ele>461.6</ele>
        <time>2024-02-23T12:42:08Z</time>
      </trkpt>
      <trkpt lat="43.7772" lon="3.81707">
        <ele>462</ele>
        <time>2024-02-23T12:42:09Z</time>
      </trkpt>
      <trkpt lat="43.77719" lon="3.81703">
        <ele>462.2</ele>
        <time>2024-02-23T12:42:10Z</time>
      </trkpt>
      <trkpt lat="43.77719" lon="3.81703">
        <ele>462.4</ele>
        <time>2024-02-23T12:42:11Z</time>
      </trkpt>
      <trkpt lat="43.77718" lon="3.817">
        <ele>462.6</ele>
        <time>2024-02-23T12:42:12Z</time>
      </trkpt>
      <trkpt lat="43.77718" lon="3.817">
        <ele>463</ele>
        <time>2024-02-23T12:42:13Z</time>
      </trkpt>
      <trkpt lat="43.77718" lon="3.817">
        <ele>463.4</ele>
        <time>2024-02-23T12:42:14Z</time>
      </trkpt>
      <trkpt lat="43.77718" lon="3.81697">
        <ele>463.6</ele>
        <time>2024-02-23T12:42:15Z</time>
      </trkpt>
      <trkpt lat="43.77718" lon="3.81697">
        <ele>464</ele>
        <time>2024-02-23T12:42:16Z</time>
      </trkpt>
      <trkpt lat="43.77718" lon="3.81697">
        <ele>464.2</ele>
        <time>2024-02-23T12:42:17Z</time>
      </trkpt>
      <trkpt lat="43.77719" lon="3.81694">
        <ele>464.4</ele>
        <time>2024-02-23T12:42:18Z</time>
      </trkpt>
      <trkpt lat="43.77719" lon="3.81694">
        <ele>464.8</ele>
        <time>2024-02-23T12:42:19Z</time>
      </trkpt>
      <trkpt lat="43.77719" lon="3.81691">
        <ele>465.2</ele>
        <time>2024-02-23T12:42:20Z</time>
      </trkpt>
      <trkpt lat="43.77719" lon="3.81691">
        <ele>465.4</ele>
        <time>2024-02-23T12:42:21Z</time>
      </trkpt>
      <trkpt lat="43.77719" lon="3.81691">
        <ele>465.8</ele>
        <time>2024-02-23T12:42:22Z</time>
      </trkpt>
      <trkpt lat="43.7772" lon="3.81688">
        <ele>466</ele>
        <time>2024-02-23T12:42:23Z</time>
      </trkpt>
      <trkpt lat="43.7772" lon="3.81688">
        <ele>466.4</ele>
        <time>2024-02-23T12:42:24Z</time>
      </trkpt>
      <trkpt lat="43.77721" lon="3.81686">
        <ele>466.6</ele>
        <time>2024-02-23T12:42:25Z</time>
      </trkpt>
      <trkpt lat="43.77721" lon="3.81686">
        <ele>466.6</ele>
        <time>2024-02-23T12:42:26Z</time>
      </trkpt>
      <trkpt lat="43.77724" lon="3.81683">
        <ele>467</ele>
        <time>2024-02-23T12:42:27Z</time>
      </trkpt>
      <trkpt lat="43.77724" lon="3.81683">
        <ele>467.2</ele>
        <time>2024-02-23T12:42:28Z</time>
      </trkpt>
      <trkpt lat="43.77724" lon="3.81683">
        <ele>467.4</ele>
        <time>2024-02-23T12:42:29Z</time>
      </trkpt>
      <trkpt lat="43.77726" lon="3.81683">
        <ele>467.6</ele>
        <time>2024-02-23T12:42:30Z</time>
      </trkpt>
      <trkpt lat="43.77726" lon="3.81683">
        <ele>468</ele>
        <time>2024-02-23T12:42:31Z</time>
      </trkpt>
      <trkpt lat="43.77726" lon="3.81683">
        <ele>468.2</ele>
        <time>2024-02-23T12:42:32Z</time>
      </trkpt>
      <trkpt lat="43.77726" lon="3.81683">
        <ele>468.4</ele>
        <time>2024-02-23T12:42:33Z</time>
      </trkpt>
      <trkpt lat="43.77726" lon="3.8168">
        <ele>468.8</ele>
        <time>2024-02-23T12:42:34Z</time>
      </trkpt>
      <trkpt lat="43.77726" lon="3.8168">
        <ele>469.2</ele>
        <time>2024-02-23T12:42:35Z</time>
      </trkpt>
      <trkpt lat="43.77727" lon="3.81677">
        <ele>469.6</ele>
        <time>2024-02-23T12:42:36Z</time>
      </trkpt>
      <trkpt lat="43.77727" lon="3.81677">
        <ele>470.2</ele>
        <time>2024-02-23T12:42:37Z</time>
      </trkpt>
      <trkpt lat="43.77727" lon="3.81674">
        <ele>470.6</ele>
        <time>2024-02-23T12:42:38Z</time>
      </trkpt>
      <trkpt lat="43.77727" lon="3.81674">
        <ele>471</ele>
        <time>2024-02-23T12:42:39Z</time>
      </trkpt>
      <trkpt lat="43.77727" lon="3.81674">
        <ele>471.4</ele>
        <time>2024-02-23T12:42:40Z</time>
      </trkpt>
      <trkpt lat="43.77726" lon="3.81671">
        <ele>471.6</ele>
        <time>2024-02-23T12:42:41Z</time>
      </trkpt>
      <trkpt lat="43.77726" lon="3.81671">
        <ele>471.8</ele>
        <time>2024-02-23T12:42:42Z</time>
      </trkpt>
      <trkpt lat="43.77727" lon="3.81668">
        <ele>472</ele>
        <time>2024-02-23T12:42:43Z</time>
      </trkpt>
      <trkpt lat="43.77727" lon="3.81668">
        <ele>472.2</ele>
        <time>2024-02-23T12:42:44Z</time>
      </trkpt>
      <trkpt lat="43.77727" lon="3.81668">
        <ele>472.4</ele>
        <time>2024-02-23T12:42:45Z</time>
      </trkpt>
      <trkpt lat="43.77727" lon="3.81665">
        <ele>472.6</ele>
        <time>2024-02-23T12:42:46Z</time>
      </trkpt>
      <trkpt lat="43.77727" lon="3.81665">
        <ele>472.6</ele>
        <time>2024-02-23T12:42:47Z</time>
      </trkpt>
      <trkpt lat="43.77727" lon="3.81665">
        <ele>472.8</ele>
        <time>2024-02-23T12:42:48Z</time>
      </trkpt>
      <trkpt lat="43.77727" lon="3.81662">
        <ele>473</ele>
        <time>2024-02-23T12:42:49Z</time>
      </trkpt>
      <trkpt lat="43.77727" lon="3.81662">
        <ele>473.2</ele>
        <time>2024-02-23T12:42:50Z</time>
      </trkpt>
      <trkpt lat="43.77727" lon="3.81659">
        <ele>473.4</ele>
        <time>2024-02-23T12:42:51Z</time>
      </trkpt>
      <trkpt lat="43.77727" lon="3.81659">
        <ele>473.6</ele>
        <time>2024-02-23T12:42:52Z</time>
      </trkpt>
      <trkpt lat="43.77727" lon="3.81656">
        <ele>473.8</ele>
        <time>2024-02-23T12:42:53Z</time>
      </trkpt>
      <trkpt lat="43.77727" lon="3.81656">
        <ele>474.2</ele>
        <time>2024-02-23T12:42:54Z</time>
      </trkpt>
      <trkpt lat="43.77727" lon="3.81653">
        <ele>474.2</ele>
        <time>2024-02-23T12:42:55Z</time>
      </trkpt>
      <trkpt lat="43.77727" lon="3.81653">
        <ele>474.4</ele>
        <time>2024-02-23T12:42:56Z</time>
      </trkpt>
      <trkpt lat="43.77727" lon="3.81653">
        <ele>474.6</ele>
        <time>2024-02-23T12:42:57Z</time>
      </trkpt>
      <trkpt lat="43.77726" lon="3.81651">
        <ele>474.8</ele>
        <time>2024-02-23T12:42:58Z</time>
      </trkpt>
      <trkpt lat="43.77726" lon="3.81651">
        <ele>475.2</ele>
        <time>2024-02-23T12:42:59Z</time>
      </trkpt>
      <trkpt lat="43.77725" lon="3.81648">
        <ele>475.4</ele>
        <time>2024-02-23T12:43:00Z</time>
      </trkpt>
      <trkpt lat="43.77725" lon="3.81648">
        <ele>475.6</ele>
        <time>2024-02-23T12:43:01Z</time>
      </trkpt>
      <trkpt lat="43.77725" lon="3.81648">
        <ele>475.8</ele>
        <time>2024-02-23T12:43:02Z</time>
      </trkpt>
      <trkpt lat="43.77726" lon="3.81644">
        <ele>476</ele>
        <time>2024-02-23T12:43:03Z</time>
      </trkpt>
      <trkpt lat="43.77726" lon="3.81644">
        <ele>476.2</ele>
        <time>2024-02-23T12:43:04Z</time>
      </trkpt>
      <trkpt lat="43.77726" lon="3.81644">
        <ele>476.6</ele>
        <time>2024-02-23T12:43:05Z</time>
      </trkpt>
      <trkpt lat="43.77725" lon="3.8164">
        <ele>476.8</ele>
        <time>2024-02-23T12:43:06Z</time>
      </trkpt>
      <trkpt lat="43.77725" lon="3.8164">
        <ele>477.2</ele>
        <time>2024-02-23T12:43:07Z</time>
      </trkpt>
      <trkpt lat="43.77724" lon="3.81636">
        <ele>477.4</ele>
        <time>2024-02-23T12:43:08Z</time>
      </trkpt>
      <trkpt lat="43.77724" lon="3.81636">
        <ele>477.6</ele>
        <time>2024-02-23T12:43:09Z</time>
      </trkpt>
      <trkpt lat="43.77724" lon="3.81633">
        <ele>477.8</ele>
        <time>2024-02-23T12:43:10Z</time>
      </trkpt>
      <trkpt lat="43.77724" lon="3.81633">
        <ele>478.2</ele>
        <time>2024-02-23T12:43:11Z</time>
      </trkpt>
      <trkpt lat="43.77725" lon="3.8163">
        <ele>478.4</ele>
        <time>2024-02-23T12:43:12Z</time>
      </trkpt>
      <trkpt lat="43.77725" lon="3.8163">
        <ele>478.8</ele>
        <time>2024-02-23T12:43:13Z</time>
      </trkpt>
      <trkpt lat="43.77725" lon="3.81627">
        <ele>479.2</ele>
        <time>2024-02-23T12:43:14Z</time>
      </trkpt>
      <trkpt lat="43.77725" lon="3.81627">
        <ele>479.6</ele>
        <time>2024-02-23T12:43:15Z</time>
      </trkpt>
      <trkpt lat="43.77725" lon="3.81627">
        <ele>480</ele>
        <time>2024-02-23T12:43:16Z</time>
      </trkpt>
      <trkpt lat="43.77725" lon="3.81627">
        <ele>480.2</ele>
        <time>2024-02-23T12:43:17Z</time>
      </trkpt>
      <trkpt lat="43.77725" lon="3.81624">
        <ele>480.4</ele>
        <time>2024-02-23T12:43:18Z</time>
      </trkpt>
      <trkpt lat="43.77725" lon="3.81624">
        <ele>480.6</ele>
        <time>2024-02-23T12:43:19Z</time>
      </trkpt>
      <trkpt lat="43.77725" lon="3.81624">
        <ele>480.8</ele>
        <time>2024-02-23T12:43:20Z</time>
      </trkpt>
      <trkpt lat="43.77725" lon="3.81621">
        <ele>480.8</ele>
        <time>2024-02-23T12:43:21Z</time>
      </trkpt>
      <trkpt lat="43.77725" lon="3.81621">
        <ele>481</ele>
        <time>2024-02-23T12:43:22Z</time>
      </trkpt>
      <trkpt lat="43.77725" lon="3.81621">
        <ele>481.4</ele>
        <time>2024-02-23T12:43:23Z</time>
      </trkpt>
      <trkpt lat="43.77725" lon="3.81618">
        <ele>481.6</ele>
        <time>2024-02-23T12:43:24Z</time>
      </trkpt>
      <trkpt lat="43.77725" lon="3.81618">
        <ele>482</ele>
        <time>2024-02-23T12:43:25Z</time>
      </trkpt>
      <trkpt lat="43.77725" lon="3.81618">
        <ele>482.2</ele>
        <time>2024-02-23T12:43:26Z</time>
      </trkpt>
      <trkpt lat="43.77725" lon="3.81618">
        <ele>482.4</ele>
        <time>2024-02-23T12:43:27Z</time>
      </trkpt>
      <trkpt lat="43.77725" lon="3.81618">
        <ele>482.8</ele>
        <time>2024-02-23T12:43:28Z</time>
      </trkpt>
      <trkpt lat="43.77725" lon="3.81615">
        <ele>483</ele>
        <time>2024-02-23T12:43:29Z</time>
      </trkpt>
      <trkpt lat="43.77725" lon="3.81615">
        <ele>483.2</ele>
        <time>2024-02-23T12:43:30Z</time>
      </trkpt>
      <trkpt lat="43.77725" lon="3.81615">
        <ele>483.4</ele>
        <time>2024-02-23T12:43:31Z</time>
      </trkpt>
      <trkpt lat="43.77726" lon="3.81612">
        <ele>483.8</ele>
        <time>2024-02-23T12:43:32Z</time>
      </trkpt>
      <trkpt lat="43.77726" lon="3.81612">
        <ele>484.2</ele>
        <time>2024-02-23T12:43:33Z</time>
      </trkpt>
      <trkpt lat="43.77725" lon="3.8161">
        <ele>484.4</ele>
        <time>2024-02-23T12:43:34Z</time>
      </trkpt>
      <trkpt lat="43.77725" lon="3.8161">
        <ele>484.6</ele>
        <time>2024-02-23T12:43:35Z</time>
      </trkpt>
      <trkpt lat="43.77725" lon="3.8161">
        <ele>484.8</ele>
        <time>2024-02-23T12:43:36Z</time>
      </trkpt>
      <trkpt lat="43.77725" lon="3.81607">
        <ele>485</ele>
        <time>2024-02-23T12:43:37Z</time>
      </trkpt>
      <trkpt lat="43.77723" lon="3.81605">
        <ele>485.2</ele>
        <time>2024-02-23T12:43:38Z</time>
      </trkpt>
      <trkpt lat="43.77723" lon="3.81605">
        <ele>485.4</ele>
        <time>2024-02-23T12:43:39Z</time>
      </trkpt>
      <trkpt lat="43.77723" lon="3.81605">
        <ele>485.6</ele>
        <time>2024-02-23T12:43:40Z</time>
      </trkpt>
      <trkpt lat="43.77723" lon="3.81605">
        <ele>486</ele>
        <time>2024-02-23T12:43:41Z</time>
      </trkpt>
      <trkpt lat="43.77722" lon="3.81601">
        <ele>486.2</ele>
        <time>2024-02-23T12:43:42Z</time>
      </trkpt>
      <trkpt lat="43.77722" lon="3.81601">
        <ele>486.4</ele>
        <time>2024-02-23T12:43:43Z</time>
      </trkpt>
      <trkpt lat="43.77722" lon="3.81601">
        <ele>486.6</ele>
        <time>2024-02-23T12:43:44Z</time>
      </trkpt>
      <trkpt lat="43.77721" lon="3.81598">
        <ele>486.8</ele>
        <time>2024-02-23T12:43:45Z</time>
      </trkpt>
      <trkpt lat="43.77721" lon="3.81598">
        <ele>487.2</ele>
        <time>2024-02-23T12:43:46Z</time>
      </trkpt>
      <trkpt lat="43.77721" lon="3.81596">
        <ele>487.4</ele>
        <time>2024-02-23T12:43:47Z</time>
      </trkpt>
      <trkpt lat="43.77721" lon="3.81596">
        <ele>487.6</ele>
        <time>2024-02-23T12:43:48Z</time>
      </trkpt>
      <trkpt lat="43.77721" lon="3.81596">
        <ele>488</ele>
        <time>2024-02-23T12:43:49Z</time>
      </trkpt>
      <trkpt lat="43.77721" lon="3.81593">
        <ele>488.4</ele>
        <time>2024-02-23T12:43:50Z</time>
      </trkpt>
      <trkpt lat="43.77721" lon="3.81593">
        <ele>488.6</ele>
        <time>2024-02-23T12:43:51Z</time>
      </trkpt>
      <trkpt lat="43.77721" lon="3.8159">
        <ele>489</ele>
        <time>2024-02-23T12:43:52Z</time>
      </trkpt>
      <trkpt lat="43.77721" lon="3.8159">
        <ele>489.4</ele>
        <time>2024-02-23T12:43:53Z</time>
      </trkpt>
      <trkpt lat="43.77719" lon="3.81588">
        <ele>489.8</ele>
        <time>2024-02-23T12:43:54Z</time>
      </trkpt>
      <trkpt lat="43.77719" lon="3.81588">
        <ele>490.2</ele>
        <time>2024-02-23T12:43:55Z</time>
      </trkpt>
      <trkpt lat="43.77718" lon="3.81585">
        <ele>490.6</ele>
        <time>2024-02-23T12:43:56Z</time>
      </trkpt>
      <trkpt lat="43.77718" lon="3.81585">
        <ele>490.8</ele>
        <time>2024-02-23T12:43:57Z</time>
      </trkpt>
      <trkpt lat="43.77716" lon="3.81583">
        <ele>491.2</ele>
        <time>2024-02-23T12:43:58Z</time>
      </trkpt>
      <trkpt lat="43.77716" lon="3.81583">
        <ele>491.4</ele>
        <time>2024-02-23T12:43:59Z</time>
      </trkpt>
      <trkpt lat="43.77714" lon="3.81581">
        <ele>491.6</ele>
        <time>2024-02-23T12:44:00Z</time>
      </trkpt>
      <trkpt lat="43.77714" lon="3.81581">
        <ele>491.6</ele>
        <time>2024-02-23T12:44:01Z</time>
      </trkpt>
      <trkpt lat="43.77714" lon="3.81581">
        <ele>491.8</ele>
        <time>2024-02-23T12:44:02Z</time>
      </trkpt>
      <trkpt lat="43.77713" lon="3.81578">
        <ele>492</ele>
        <time>2024-02-23T12:44:03Z</time>
      </trkpt>
      <trkpt lat="43.77713" lon="3.81578">
        <ele>492.2</ele>
        <time>2024-02-23T12:44:04Z</time>
      </trkpt>
      <trkpt lat="43.77713" lon="3.81578">
        <ele>492.2</ele>
        <time>2024-02-23T12:44:05Z</time>
      </trkpt>
      <trkpt lat="43.77712" lon="3.81575">
        <ele>492.4</ele>
        <time>2024-02-23T12:44:06Z</time>
      </trkpt>
      <trkpt lat="43.77712" lon="3.81575">
        <ele>492.6</ele>
        <time>2024-02-23T12:44:07Z</time>
      </trkpt>
      <trkpt lat="43.7771" lon="3.81572">
        <ele>493</ele>
        <time>2024-02-23T12:44:08Z</time>
      </trkpt>
      <trkpt lat="43.7771" lon="3.81572">
        <ele>493.2</ele>
        <time>2024-02-23T12:44:09Z</time>
      </trkpt>
      <trkpt lat="43.77708" lon="3.81571">
        <ele>493.4</ele>
        <time>2024-02-23T12:44:10Z</time>
      </trkpt>
      <trkpt lat="43.77708" lon="3.81571">
        <ele>493.6</ele>
        <time>2024-02-23T12:44:11Z</time>
      </trkpt>
      <trkpt lat="43.77708" lon="3.81571">
        <ele>493.6</ele>
        <time>2024-02-23T12:44:12Z</time>
      </trkpt>
      <trkpt lat="43.77708" lon="3.81568">
        <ele>493.8</ele>
        <time>2024-02-23T12:44:13Z</time>
      </trkpt>
      <trkpt lat="43.77708" lon="3.81568">
        <ele>493.8</ele>
        <time>2024-02-23T12:44:14Z</time>
      </trkpt>
      <trkpt lat="43.77708" lon="3.81568">
        <ele>494</ele>
        <time>2024-02-23T12:44:15Z</time>
      </trkpt>
      <trkpt lat="43.77708" lon="3.81564">
        <ele>494.2</ele>
        <time>2024-02-23T12:44:16Z</time>
      </trkpt>
      <trkpt lat="43.77708" lon="3.81564">
        <ele>494.4</ele>
        <time>2024-02-23T12:44:17Z</time>
      </trkpt>
      <trkpt lat="43.77708" lon="3.81561">
        <ele>494.6</ele>
        <time>2024-02-23T12:44:18Z</time>
      </trkpt>
      <trkpt lat="43.77708" lon="3.81561">
        <ele>494.6</ele>
        <time>2024-02-23T12:44:19Z</time>
      </trkpt>
      <trkpt lat="43.77708" lon="3.81561">
        <ele>494.8</ele>
        <time>2024-02-23T12:44:20Z</time>
      </trkpt>
      <trkpt lat="43.77705" lon="3.81557">
        <ele>495</ele>
        <time>2024-02-23T12:44:21Z</time>
      </trkpt>
      <trkpt lat="43.77705" lon="3.81557">
        <ele>495.2</ele>
        <time>2024-02-23T12:44:22Z</time>
      </trkpt>
      <trkpt lat="43.77705" lon="3.81557">
        <ele>495.2</ele>
        <time>2024-02-23T12:44:23Z</time>
      </trkpt>
      <trkpt lat="43.77703" lon="3.81554">
        <ele>495.4</ele>
        <time>2024-02-23T12:44:24Z</time>
      </trkpt>
      <trkpt lat="43.77703" lon="3.81554">
        <ele>495.6</ele>
        <time>2024-02-23T12:44:25Z</time>
      </trkpt>
      <trkpt lat="43.77703" lon="3.81554">
        <ele>496</ele>
        <time>2024-02-23T12:44:26Z</time>
      </trkpt>
      <trkpt lat="43.77703" lon="3.81554">
        <ele>496.2</ele>
        <time>2024-02-23T12:44:27Z</time>
      </trkpt>
      <trkpt lat="43.77701" lon="3.8155">
        <ele>496.6</ele>
        <time>2024-02-23T12:44:28Z</time>
      </trkpt>
      <trkpt lat="43.77701" lon="3.8155">
        <ele>496.8</ele>
        <time>2024-02-23T12:44:29Z</time>
      </trkpt>
      <trkpt lat="43.777" lon="3.81547">
        <ele>497</ele>
        <time>2024-02-23T12:44:30Z</time>
      </trkpt>
      <trkpt lat="43.777" lon="3.81547">
        <ele>497.4</ele>
        <time>2024-02-23T12:44:31Z</time>
      </trkpt>
      <trkpt lat="43.777" lon="3.81547">
        <ele>497.8</ele>
        <time>2024-02-23T12:44:32Z</time>
      </trkpt>
      <trkpt lat="43.77699" lon="3.81544">
        <ele>498</ele>
        <time>2024-02-23T12:44:33Z</time>
      </trkpt>
      <trkpt lat="43.77699" lon="3.81544">
        <ele>498.4</ele>
        <time>2024-02-23T12:44:34Z</time>
      </trkpt>
      <trkpt lat="43.777" lon="3.81541">
        <ele>499</ele>
        <time>2024-02-23T12:44:35Z</time>
      </trkpt>
      <trkpt lat="43.777" lon="3.81541">
        <ele>499.4</ele>
        <time>2024-02-23T12:44:36Z</time>
      </trkpt>
      <trkpt lat="43.777" lon="3.81541">
        <ele>499.8</ele>
        <time>2024-02-23T12:44:37Z</time>
      </trkpt>
      <trkpt lat="43.777" lon="3.81538">
        <ele>500.2</ele>
        <time>2024-02-23T12:44:38Z</time>
      </trkpt>
      <trkpt lat="43.777" lon="3.81538">
        <ele>500.4</ele>
        <time>2024-02-23T12:44:39Z</time>
      </trkpt>
      <trkpt lat="43.77701" lon="3.81536">
        <ele>501</ele>
        <time>2024-02-23T12:44:40Z</time>
      </trkpt>
      <trkpt lat="43.77701" lon="3.81536">
        <ele>501.2</ele>
        <time>2024-02-23T12:44:41Z</time>
      </trkpt>
      <trkpt lat="43.77701" lon="3.81536">
        <ele>501.4</ele>
        <time>2024-02-23T12:44:42Z</time>
      </trkpt>
      <trkpt lat="43.77701" lon="3.81533">
        <ele>501.6</ele>
        <time>2024-02-23T12:44:43Z</time>
      </trkpt>
      <trkpt lat="43.777" lon="3.81531">
        <ele>501.8</ele>
        <time>2024-02-23T12:44:44Z</time>
      </trkpt>
      <trkpt lat="43.777" lon="3.81531">
        <ele>501.8</ele>
        <time>2024-02-23T12:44:45Z</time>
      </trkpt>
      <trkpt lat="43.77699" lon="3.81528">
        <ele>502</ele>
        <time>2024-02-23T12:44:46Z</time>
      </trkpt>
      <trkpt lat="43.77699" lon="3.81528">
        <ele>502.4</ele>
        <time>2024-02-23T12:44:47Z</time>
      </trkpt>
      <trkpt lat="43.77698" lon="3.81526">
        <ele>502.6</ele>
        <time>2024-02-23T12:44:48Z</time>
      </trkpt>
      <trkpt lat="43.77698" lon="3.81526">
        <ele>502.8</ele>
        <time>2024-02-23T12:44:49Z</time>
      </trkpt>
      <trkpt lat="43.77698" lon="3.81526">
        <ele>503</ele>
        <time>2024-02-23T12:44:50Z</time>
      </trkpt>
      <trkpt lat="43.77698" lon="3.81522">
        <ele>503.2</ele>
        <time>2024-02-23T12:44:51Z</time>
      </trkpt>
      <trkpt lat="43.77698" lon="3.81522">
        <ele>503.6</ele>
        <time>2024-02-23T12:44:52Z</time>
      </trkpt>
      <trkpt lat="43.77698" lon="3.8152">
        <ele>503.8</ele>
        <time>2024-02-23T12:44:53Z</time>
      </trkpt>
      <trkpt lat="43.77698" lon="3.8152">
        <ele>504.2</ele>
        <time>2024-02-23T12:44:54Z</time>
      </trkpt>
      <trkpt lat="43.77699" lon="3.81517">
        <ele>504.4</ele>
        <time>2024-02-23T12:44:55Z</time>
      </trkpt>
      <trkpt lat="43.77699" lon="3.81517">
        <ele>504.6</ele>
        <time>2024-02-23T12:44:56Z</time>
      </trkpt>
      <trkpt lat="43.77699" lon="3.81517">
        <ele>504.8</ele>
        <time>2024-02-23T12:44:57Z</time>
      </trkpt>
      <trkpt lat="43.77697" lon="3.81515">
        <ele>505.2</ele>
        <time>2024-02-23T12:44:58Z</time>
      </trkpt>
      <trkpt lat="43.77697" lon="3.81515">
        <ele>505.4</ele>
        <time>2024-02-23T12:44:59Z</time>
      </trkpt>
      <trkpt lat="43.77697" lon="3.81515">
        <ele>505.8</ele>
        <time>2024-02-23T12:45:00Z</time>
      </trkpt>
      <trkpt lat="43.77697" lon="3.81512">
        <ele>506</ele>
        <time>2024-02-23T12:45:01Z</time>
      </trkpt>
      <trkpt lat="43.77697" lon="3.81512">
        <ele>506.2</ele>
        <time>2024-02-23T12:45:02Z</time>
      </trkpt>
      <trkpt lat="43.77696" lon="3.8151">
        <ele>506.4</ele>
        <time>2024-02-23T12:45:03Z</time>
      </trkpt>
      <trkpt lat="43.77696" lon="3.8151">
        <ele>506.4</ele>
        <time>2024-02-23T12:45:04Z</time>
      </trkpt>
      <trkpt lat="43.77696" lon="3.8151">
        <ele>506.6</ele>
        <time>2024-02-23T12:45:05Z</time>
      </trkpt>
      <trkpt lat="43.77695" lon="3.81507">
        <ele>506.8</ele>
        <time>2024-02-23T12:45:06Z</time>
      </trkpt>
      <trkpt lat="43.77695" lon="3.81507">
        <ele>507</ele>
        <time>2024-02-23T12:45:07Z</time>
      </trkpt>
      <trkpt lat="43.77696" lon="3.81505">
        <ele>507.4</ele>
        <time>2024-02-23T12:45:08Z</time>
      </trkpt>
      <trkpt lat="43.77696" lon="3.81505">
        <ele>507.8</ele>
        <time>2024-02-23T12:45:09Z</time>
      </trkpt>
      <trkpt lat="43.77695" lon="3.81502">
        <ele>508.2</ele>
        <time>2024-02-23T12:45:10Z</time>
      </trkpt>
      <trkpt lat="43.77695" lon="3.81502">
        <ele>508.4</ele>
        <time>2024-02-23T12:45:11Z</time>
      </trkpt>
      <trkpt lat="43.77695" lon="3.815">
        <ele>508.8</ele>
        <time>2024-02-23T12:45:12Z</time>
      </trkpt>
      <trkpt lat="43.77695" lon="3.815">
        <ele>509.2</ele>
        <time>2024-02-23T12:45:13Z</time>
      </trkpt>
      <trkpt lat="43.77695" lon="3.815">
        <ele>509.4</ele>
        <time>2024-02-23T12:45:14Z</time>
      </trkpt>
      <trkpt lat="43.77697" lon="3.81497">
        <ele>509.4</ele>
        <time>2024-02-23T12:45:15Z</time>
      </trkpt>
      <trkpt lat="43.77697" lon="3.81497">
        <ele>509.6</ele>
        <time>2024-02-23T12:45:16Z</time>
      </trkpt>
      <trkpt lat="43.77697" lon="3.81497">
        <ele>509.6</ele>
        <time>2024-02-23T12:45:17Z</time>
      </trkpt>
      <trkpt lat="43.77699" lon="3.81495">
        <ele>509.8</ele>
        <time>2024-02-23T12:45:18Z</time>
      </trkpt>
      <trkpt lat="43.77699" lon="3.81495">
        <ele>510</ele>
        <time>2024-02-23T12:45:19Z</time>
      </trkpt>
      <trkpt lat="43.77699" lon="3.81495">
        <ele>510.2</ele>
        <time>2024-02-23T12:45:20Z</time>
      </trkpt>
      <trkpt lat="43.77701" lon="3.81494">
        <ele>510.4</ele>
        <time>2024-02-23T12:45:21Z</time>
      </trkpt>
      <trkpt lat="43.77701" lon="3.81494">
        <ele>510.8</ele>
        <time>2024-02-23T12:45:22Z</time>
      </trkpt>
      <trkpt lat="43.77702" lon="3.81494">
        <ele>511</ele>
        <time>2024-02-23T12:45:23Z</time>
      </trkpt>
      <trkpt lat="43.77702" lon="3.81494">
        <ele>511.4</ele>
        <time>2024-02-23T12:45:24Z</time>
      </trkpt>
      <trkpt lat="43.77702" lon="3.81494">
        <ele>511.6</ele>
        <time>2024-02-23T12:45:25Z</time>
      </trkpt>
      <trkpt lat="43.77704" lon="3.8149">
        <ele>512</ele>
        <time>2024-02-23T12:45:26Z</time>
      </trkpt>
      <trkpt lat="43.77704" lon="3.8149">
        <ele>512.2</ele>
        <time>2024-02-23T12:45:27Z</time>
      </trkpt>
      <trkpt lat="43.77704" lon="3.8149">
        <ele>512.6</ele>
        <time>2024-02-23T12:45:28Z</time>
      </trkpt>
      <trkpt lat="43.77706" lon="3.81489">
        <ele>512.8</ele>
        <time>2024-02-23T12:45:29Z</time>
      </trkpt>
      <trkpt lat="43.77706" lon="3.81489">
        <ele>513</ele>
        <time>2024-02-23T12:45:30Z</time>
      </trkpt>
      <trkpt lat="43.77706" lon="3.81489">
        <ele>513.4</ele>
        <time>2024-02-23T12:45:31Z</time>
      </trkpt>
      <trkpt lat="43.77706" lon="3.81489">
        <ele>513.6</ele>
        <time>2024-02-23T12:45:32Z</time>
      </trkpt>
      <trkpt lat="43.77706" lon="3.81489">
        <ele>513.8</ele>
        <time>2024-02-23T12:45:33Z</time>
      </trkpt>
      <trkpt lat="43.77709" lon="3.81488">
        <ele>514.2</ele>
        <time>2024-02-23T12:45:34Z</time>
      </trkpt>
      <trkpt lat="43.77709" lon="3.81488">
        <ele>514.4</ele>
        <time>2024-02-23T12:45:35Z</time>
      </trkpt>
      <trkpt lat="43.77709" lon="3.81488">
        <ele>514.6</ele>
        <time>2024-02-23T12:45:36Z</time>
      </trkpt>
      <trkpt lat="43.77711" lon="3.81487">
        <ele>514.8</ele>
        <time>2024-02-23T12:45:37Z</time>
      </trkpt>
      <trkpt lat="43.77711" lon="3.81487">
        <ele>515.2</ele>
        <time>2024-02-23T12:45:38Z</time>
      </trkpt>
      <trkpt lat="43.77713" lon="3.81486">
        <ele>515.6</ele>
        <time>2024-02-23T12:45:39Z</time>
      </trkpt>
      <trkpt lat="43.77713" lon="3.81486">
        <ele>516</ele>
        <time>2024-02-23T12:45:40Z</time>
      </trkpt>
      <trkpt lat="43.77713" lon="3.81486">
        <ele>516.2</ele>
        <time>2024-02-23T12:45:41Z</time>
      </trkpt>
      <trkpt lat="43.77713" lon="3.81486">
        <ele>516.4</ele>
        <time>2024-02-23T12:45:42Z</time>
      </trkpt>
      <trkpt lat="43.77714" lon="3.81484">
        <ele>516.6</ele>
        <time>2024-02-23T12:45:43Z</time>
      </trkpt>
      <trkpt lat="43.77714" lon="3.81484">
        <ele>516.8</ele>
        <time>2024-02-23T12:45:44Z</time>
      </trkpt>
      <trkpt lat="43.77714" lon="3.81484">
        <ele>517</ele>
        <time>2024-02-23T12:45:45Z</time>
      </trkpt>
      <trkpt lat="43.77714" lon="3.81484">
        <ele>517.4</ele>
        <time>2024-02-23T12:45:46Z</time>
      </trkpt>
      <trkpt lat="43.77713" lon="3.81481">
        <ele>517.6</ele>
        <time>2024-02-23T12:45:47Z</time>
      </trkpt>
      <trkpt lat="43.77713" lon="3.81481">
        <ele>517.8</ele>
        <time>2024-02-23T12:45:48Z</time>
      </trkpt>
      <trkpt lat="43.77712" lon="3.81478">
        <ele>518</ele>
        <time>2024-02-23T12:45:49Z</time>
      </trkpt>
      <trkpt lat="43.77712" lon="3.81478">
        <ele>518.2</ele>
        <time>2024-02-23T12:45:50Z</time>
      </trkpt>
      <trkpt lat="43.7771" lon="3.81475">
        <ele>518.4</ele>
        <time>2024-02-23T12:45:51Z</time>
      </trkpt>
      <trkpt lat="43.7771" lon="3.81475">
        <ele>518.8</ele>
        <time>2024-02-23T12:45:52Z</time>
      </trkpt>
      <trkpt lat="43.7771" lon="3.81475">
        <ele>519</ele>
        <time>2024-02-23T12:45:53Z</time>
      </trkpt>
      <trkpt lat="43.77709" lon="3.81472">
        <ele>519.2</ele>
        <time>2024-02-23T12:45:54Z</time>
      </trkpt>
      <trkpt lat="43.77709" lon="3.81472">
        <ele>519.2</ele>
        <time>2024-02-23T12:45:55Z</time>
      </trkpt>
      <trkpt lat="43.77707" lon="3.81469">
        <ele>519.4</ele>
        <time>2024-02-23T12:45:56Z</time>
      </trkpt>
      <trkpt lat="43.77707" lon="3.81469">
        <ele>519.4</ele>
        <time>2024-02-23T12:45:57Z</time>
      </trkpt>
      <trkpt lat="43.77705" lon="3.81467">
        <ele>519.6</ele>
        <time>2024-02-23T12:45:58Z</time>
      </trkpt>
      <trkpt lat="43.77705" lon="3.81467">
        <ele>519.8</ele>
        <time>2024-02-23T12:45:59Z</time>
      </trkpt>
      <trkpt lat="43.77705" lon="3.81467">
        <ele>520</ele>
        <time>2024-02-23T12:46:00Z</time>
      </trkpt>
      <trkpt lat="43.77705" lon="3.81467">
        <ele>520.2</ele>
        <time>2024-02-23T12:46:01Z</time>
      </trkpt>
      <trkpt lat="43.77704" lon="3.81463">
        <ele>520.4</ele>
        <time>2024-02-23T12:46:02Z</time>
      </trkpt>
      <trkpt lat="43.77704" lon="3.81463">
        <ele>520.6</ele>
        <time>2024-02-23T12:46:03Z</time>
      </trkpt>
      <trkpt lat="43.77705" lon="3.81461">
        <ele>520.8</ele>
        <time>2024-02-23T12:46:04Z</time>
      </trkpt>
      <trkpt lat="43.77705" lon="3.81461">
        <ele>521</ele>
        <time>2024-02-23T12:46:05Z</time>
      </trkpt>
      <trkpt lat="43.77703" lon="3.81458">
        <ele>521.2</ele>
        <time>2024-02-23T12:46:06Z</time>
      </trkpt>
      <trkpt lat="43.77703" lon="3.81458">
        <ele>521.4</ele>
        <time>2024-02-23T12:46:07Z</time>
      </trkpt>
      <trkpt lat="43.77702" lon="3.81457">
        <ele>521.6</ele>
        <time>2024-02-23T12:46:08Z</time>
      </trkpt>
      <trkpt lat="43.77702" lon="3.81457">
        <ele>521.8</ele>
        <time>2024-02-23T12:46:09Z</time>
      </trkpt>
      <trkpt lat="43.77702" lon="3.81457">
        <ele>522.2</ele>
        <time>2024-02-23T12:46:10Z</time>
      </trkpt>
      <trkpt lat="43.777" lon="3.81455">
        <ele>522.4</ele>
        <time>2024-02-23T12:46:11Z</time>
      </trkpt>
      <trkpt lat="43.777" lon="3.81455">
        <ele>522.8</ele>
        <time>2024-02-23T12:46:12Z</time>
      </trkpt>
      <trkpt lat="43.777" lon="3.81455">
        <ele>523</ele>
        <time>2024-02-23T12:46:13Z</time>
      </trkpt>
      <trkpt lat="43.777" lon="3.81451">
        <ele>523.2</ele>
        <time>2024-02-23T12:46:14Z</time>
      </trkpt>
      <trkpt lat="43.777" lon="3.81451">
        <ele>523.4</ele>
        <time>2024-02-23T12:46:15Z</time>
      </trkpt>
      <trkpt lat="43.777" lon="3.81451">
        <ele>523.6</ele>
        <time>2024-02-23T12:46:16Z</time>
      </trkpt>
      <trkpt lat="43.777" lon="3.81448">
        <ele>524</ele>
        <time>2024-02-23T12:46:17Z</time>
      </trkpt>
      <trkpt lat="43.777" lon="3.81448">
        <ele>524.2</ele>
        <time>2024-02-23T12:46:18Z</time>
      </trkpt>
      <trkpt lat="43.777" lon="3.81448">
        <ele>524.4</ele>
        <time>2024-02-23T12:46:19Z</time>
      </trkpt>
      <trkpt lat="43.777" lon="3.81448">
        <ele>524.8</ele>
        <time>2024-02-23T12:46:20Z</time>
      </trkpt>
      <trkpt lat="43.77699" lon="3.81445">
        <ele>525</ele>
        <time>2024-02-23T12:46:21Z</time>
      </trkpt>
      <trkpt lat="43.77699" lon="3.81445">
        <ele>525.4</ele>
        <time>2024-02-23T12:46:22Z</time>
      </trkpt>
      <trkpt lat="43.77699" lon="3.81445">
        <ele>525.8</ele>
        <time>2024-02-23T12:46:23Z</time>
      </trkpt>
      <trkpt lat="43.77698" lon="3.81441">
        <ele>526</ele>
        <time>2024-02-23T12:46:24Z</time>
      </trkpt>
      <trkpt lat="43.77698" lon="3.81441">
        <ele>526.4</ele>
        <time>2024-02-23T12:46:25Z</time>
      </trkpt>
      <trkpt lat="43.77696" lon="3.81437">
        <ele>526.8</ele>
        <time>2024-02-23T12:46:26Z</time>
      </trkpt>
      <trkpt lat="43.77695" lon="3.81434">
        <ele>527</ele>
        <time>2024-02-23T12:46:27Z</time>
      </trkpt>
      <trkpt lat="43.77695" lon="3.81434">
        <ele>527.4</ele>
        <time>2024-02-23T12:46:28Z</time>
      </trkpt>
      <trkpt lat="43.77695" lon="3.8143">
        <ele>527.6</ele>
        <time>2024-02-23T12:46:29Z</time>
      </trkpt>
      <trkpt lat="43.77695" lon="3.8143">
        <ele>527.8</ele>
        <time>2024-02-23T12:46:30Z</time>
      </trkpt>
      <trkpt lat="43.77695" lon="3.8143">
        <ele>528</ele>
        <time>2024-02-23T12:46:31Z</time>
      </trkpt>
      <trkpt lat="43.77695" lon="3.81427">
        <ele>528.2</ele>
        <time>2024-02-23T12:46:32Z</time>
      </trkpt>
      <trkpt lat="43.77695" lon="3.81427">
        <ele>528.6</ele>
        <time>2024-02-23T12:46:33Z</time>
      </trkpt>
      <trkpt lat="43.77695" lon="3.81423">
        <ele>528.8</ele>
        <time>2024-02-23T12:46:34Z</time>
      </trkpt>
      <trkpt lat="43.77695" lon="3.81423">
        <ele>528.8</ele>
        <time>2024-02-23T12:46:35Z</time>
      </trkpt>
      <trkpt lat="43.77695" lon="3.81419">
        <ele>528.8</ele>
        <time>2024-02-23T12:46:36Z</time>
      </trkpt>
      <trkpt lat="43.77695" lon="3.81419">
        <ele>529</ele>
        <time>2024-02-23T12:46:37Z</time>
      </trkpt>
      <trkpt lat="43.77695" lon="3.81415">
        <ele>529.4</ele>
        <time>2024-02-23T12:46:38Z</time>
      </trkpt>
      <trkpt lat="43.77695" lon="3.81415">
        <ele>529.6</ele>
        <time>2024-02-23T12:46:39Z</time>
      </trkpt>
      <trkpt lat="43.77695" lon="3.8141">
        <ele>530</ele>
        <time>2024-02-23T12:46:40Z</time>
      </trkpt>
      <trkpt lat="43.77695" lon="3.8141">
        <ele>530</ele>
        <time>2024-02-23T12:46:41Z</time>
      </trkpt>
      <trkpt lat="43.77697" lon="3.81408">
        <ele>530.2</ele>
        <time>2024-02-23T12:46:42Z</time>
      </trkpt>
      <trkpt lat="43.77697" lon="3.81408">
        <ele>530.6</ele>
        <time>2024-02-23T12:46:43Z</time>
      </trkpt>
      <trkpt lat="43.77697" lon="3.81408">
        <ele>531.2</ele>
        <time>2024-02-23T12:46:44Z</time>
      </trkpt>
      <trkpt lat="43.77698" lon="3.81404">
        <ele>531.6</ele>
        <time>2024-02-23T12:46:45Z</time>
      </trkpt>
      <trkpt lat="43.77698" lon="3.81404">
        <ele>531.8</ele>
        <time>2024-02-23T12:46:46Z</time>
      </trkpt>
      <trkpt lat="43.77698" lon="3.814">
        <ele>532</ele>
        <time>2024-02-23T12:46:47Z</time>
      </trkpt>
      <trkpt lat="43.77698" lon="3.814">
        <ele>532.4</ele>
        <time>2024-02-23T12:46:48Z</time>
      </trkpt>
      <trkpt lat="43.77698" lon="3.81397">
        <ele>532.6</ele>
        <time>2024-02-23T12:46:49Z</time>
      </trkpt>
      <trkpt lat="43.77698" lon="3.81397">
        <ele>532.8</ele>
        <time>2024-02-23T12:46:50Z</time>
      </trkpt>
      <trkpt lat="43.77699" lon="3.81393">
        <ele>533</ele>
        <time>2024-02-23T12:46:51Z</time>
      </trkpt>
      <trkpt lat="43.77699" lon="3.81393">
        <ele>533.2</ele>
        <time>2024-02-23T12:46:52Z</time>
      </trkpt>
      <trkpt lat="43.777" lon="3.81389">
        <ele>533.4</ele>
        <time>2024-02-23T12:46:53Z</time>
      </trkpt>
      <trkpt lat="43.777" lon="3.81389">
        <ele>533.6</ele>
        <time>2024-02-23T12:46:54Z</time>
      </trkpt>
      <trkpt lat="43.77701" lon="3.81385">
        <ele>533.6</ele>
        <time>2024-02-23T12:46:55Z</time>
      </trkpt>
      <trkpt lat="43.77701" lon="3.81385">
        <ele>533.8</ele>
        <time>2024-02-23T12:46:56Z</time>
      </trkpt>
      <trkpt lat="43.77703" lon="3.81383">
        <ele>534</ele>
        <time>2024-02-23T12:46:57Z</time>
      </trkpt>
      <trkpt lat="43.77703" lon="3.81383">
        <ele>534.2</ele>
        <time>2024-02-23T12:46:58Z</time>
      </trkpt>
      <trkpt lat="43.77705" lon="3.8138">
        <ele>534.6</ele>
        <time>2024-02-23T12:46:59Z</time>
      </trkpt>
      <trkpt lat="43.77705" lon="3.8138">
        <ele>534.8</ele>
        <time>2024-02-23T12:47:00Z</time>
      </trkpt>
      <trkpt lat="43.77705" lon="3.81377">
        <ele>535</ele>
        <time>2024-02-23T12:47:01Z</time>
      </trkpt>
      <trkpt lat="43.77705" lon="3.81377">
        <ele>535.2</ele>
        <time>2024-02-23T12:47:02Z</time>
      </trkpt>
      <trkpt lat="43.77707" lon="3.81375">
        <ele>535.2</ele>
        <time>2024-02-23T12:47:03Z</time>
      </trkpt>
      <trkpt lat="43.77707" lon="3.81375">
        <ele>535.4</ele>
        <time>2024-02-23T12:47:04Z</time>
      </trkpt>
      <trkpt lat="43.77709" lon="3.81375">
        <ele>535.8</ele>
        <time>2024-02-23T12:47:05Z</time>
      </trkpt>
      <trkpt lat="43.77709" lon="3.81375">
        <ele>536</ele>
        <time>2024-02-23T12:47:06Z</time>
      </trkpt>
      <trkpt lat="43.77711" lon="3.81375">
        <ele>536.2</ele>
        <time>2024-02-23T12:47:07Z</time>
      </trkpt>
      <trkpt lat="43.77711" lon="3.81375">
        <ele>536.6</ele>
        <time>2024-02-23T12:47:08Z</time>
      </trkpt>
      <trkpt lat="43.77713" lon="3.81373">
        <ele>537</ele>
        <time>2024-02-23T12:47:09Z</time>
      </trkpt>
      <trkpt lat="43.77713" lon="3.81373">
        <ele>537.4</ele>
        <time>2024-02-23T12:47:10Z</time>
      </trkpt>
      <trkpt lat="43.77713" lon="3.81373">
        <ele>537.6</ele>
        <time>2024-02-23T12:47:11Z</time>
      </trkpt>
      <trkpt lat="43.77714" lon="3.81372">
        <ele>538</ele>
        <time>2024-02-23T12:47:12Z</time>
      </trkpt>
      <trkpt lat="43.77714" lon="3.81372">
        <ele>538.2</ele>
        <time>2024-02-23T12:47:13Z</time>
      </trkpt>
      <trkpt lat="43.77714" lon="3.81372">
        <ele>538.6</ele>
        <time>2024-02-23T12:47:14Z</time>
      </trkpt>
      <trkpt lat="43.77716" lon="3.81374">
        <ele>538.8</ele>
        <time>2024-02-23T12:47:15Z</time>
      </trkpt>
      <trkpt lat="43.77716" lon="3.81374">
        <ele>539</ele>
        <time>2024-02-23T12:47:16Z</time>
      </trkpt>
      <trkpt lat="43.77716" lon="3.81374">
        <ele>539.4</ele>
        <time>2024-02-23T12:47:17Z</time>
      </trkpt>
      <trkpt lat="43.77718" lon="3.81374">
        <ele>539.6</ele>
        <time>2024-02-23T12:47:18Z</time>
      </trkpt>
      <trkpt lat="43.77718" lon="3.81374">
        <ele>539.8</ele>
        <time>2024-02-23T12:47:19Z</time>
      </trkpt>
      <trkpt lat="43.77721" lon="3.81373">
        <ele>540.2</ele>
        <time>2024-02-23T12:47:20Z</time>
      </trkpt>
      <trkpt lat="43.77721" lon="3.81373">
        <ele>540.4</ele>
        <time>2024-02-23T12:47:21Z</time>
      </trkpt>
      <trkpt lat="43.77722" lon="3.81371">
        <ele>540.6</ele>
        <time>2024-02-23T12:47:22Z</time>
      </trkpt>
      <trkpt lat="43.77722" lon="3.81371">
        <ele>541</ele>
        <time>2024-02-23T12:47:23Z</time>
      </trkpt>
      <trkpt lat="43.77724" lon="3.8137">
        <ele>541.2</ele>
        <time>2024-02-23T12:47:24Z</time>
      </trkpt>
      <trkpt lat="43.77724" lon="3.8137">
        <ele>541.4</ele>
        <time>2024-02-23T12:47:25Z</time>
      </trkpt>
      <trkpt lat="43.77724" lon="3.8137">
        <ele>541.8</ele>
        <time>2024-02-23T12:47:26Z</time>
      </trkpt>
      <trkpt lat="43.77726" lon="3.8137">
        <ele>542</ele>
        <time>2024-02-23T12:47:27Z</time>
      </trkpt>
      <trkpt lat="43.77726" lon="3.8137">
        <ele>542.2</ele>
        <time>2024-02-23T12:47:28Z</time>
      </trkpt>
      <trkpt lat="43.77726" lon="3.8137">
        <ele>542.4</ele>
        <time>2024-02-23T12:47:29Z</time>
      </trkpt>
      <trkpt lat="43.77726" lon="3.8137">
        <ele>542.8</ele>
        <time>2024-02-23T12:47:30Z</time>
      </trkpt>
      <trkpt lat="43.77728" lon="3.8137">
        <ele>543</ele>
        <time>2024-02-23T12:47:31Z</time>
      </trkpt>
      <trkpt lat="43.77728" lon="3.8137">
        <ele>543.2</ele>
        <time>2024-02-23T12:47:32Z</time>
      </trkpt>
      <trkpt lat="43.77728" lon="3.8137">
        <ele>543.6</ele>
        <time>2024-02-23T12:47:33Z</time>
      </trkpt>
      <trkpt lat="43.7773" lon="3.8137">
        <ele>543.8</ele>
        <time>2024-02-23T12:47:34Z</time>
      </trkpt>
      <trkpt lat="43.7773" lon="3.8137">
        <ele>544.2</ele>
        <time>2024-02-23T12:47:35Z</time>
      </trkpt>
      <trkpt lat="43.7773" lon="3.8137">
        <ele>544.4</ele>
        <time>2024-02-23T12:47:36Z</time>
      </trkpt>
      <trkpt lat="43.7773" lon="3.8137">
        <ele>544.8</ele>
        <time>2024-02-23T12:47:37Z</time>
      </trkpt>
      <trkpt lat="43.7773" lon="3.8137">
        <ele>545</ele>
        <time>2024-02-23T12:47:38Z</time>
      </trkpt>
      <trkpt lat="43.77731" lon="3.81372">
        <ele>545.2</ele>
        <time>2024-02-23T12:47:39Z</time>
      </trkpt>
      <trkpt lat="43.77731" lon="3.81372">
        <ele>545.4</ele>
        <time>2024-02-23T12:47:40Z</time>
      </trkpt>
      <trkpt lat="43.77731" lon="3.81372">
        <ele>545.6</ele>
        <time>2024-02-23T12:47:41Z</time>
      </trkpt>
      <trkpt lat="43.77733" lon="3.8137">
        <ele>546</ele>
        <time>2024-02-23T12:47:42Z</time>
      </trkpt>
      <trkpt lat="43.77733" lon="3.8137">
        <ele>546.2</ele>
        <time>2024-02-23T12:47:43Z</time>
      </trkpt>
      <trkpt lat="43.77733" lon="3.8137">
        <ele>546.6</ele>
        <time>2024-02-23T12:47:44Z</time>
      </trkpt>
      <trkpt lat="43.77733" lon="3.8137">
        <ele>546.8</ele>
        <time>2024-02-23T12:47:45Z</time>
      </trkpt>
      <trkpt lat="43.77733" lon="3.8137">
        <ele>547</ele>
        <time>2024-02-23T12:47:46Z</time>
      </trkpt>
      <trkpt lat="43.77733" lon="3.8137">
        <ele>547.2</ele>
        <time>2024-02-23T12:47:47Z</time>
      </trkpt>
      <trkpt lat="43.77733" lon="3.8137">
        <ele>547.4</ele>
        <time>2024-02-23T12:47:48Z</time>
      </trkpt>
      <trkpt lat="43.77735" lon="3.8137">
        <ele>547.6</ele>
        <time>2024-02-23T12:47:49Z</time>
      </trkpt>
      <trkpt lat="43.77735" lon="3.8137">
        <ele>548</ele>
        <time>2024-02-23T12:47:50Z</time>
      </trkpt>
      <trkpt lat="43.77736" lon="3.81371">
        <ele>548.2</ele>
        <time>2024-02-23T12:47:51Z</time>
      </trkpt>
      <trkpt lat="43.77736" lon="3.81371">
        <ele>548.6</ele>
        <time>2024-02-23T12:47:52Z</time>
      </trkpt>
      <trkpt lat="43.77736" lon="3.81371">
        <ele>548.8</ele>
        <time>2024-02-23T12:47:53Z</time>
      </trkpt>
      <trkpt lat="43.77737" lon="3.81375">
        <ele>549.2</ele>
        <time>2024-02-23T12:47:54Z</time>
      </trkpt>
      <trkpt lat="43.77737" lon="3.81375">
        <ele>549.4</ele>
        <time>2024-02-23T12:47:55Z</time>
      </trkpt>
      <trkpt lat="43.77737" lon="3.81378">
        <ele>549.6</ele>
        <time>2024-02-23T12:47:56Z</time>
      </trkpt>
      <trkpt lat="43.77737" lon="3.81378">
        <ele>549.8</ele>
        <time>2024-02-23T12:47:57Z</time>
      </trkpt>
      <trkpt lat="43.77739" lon="3.81379">
        <ele>549.8</ele>
        <time>2024-02-23T12:47:58Z</time>
      </trkpt>
      <trkpt lat="43.77739" lon="3.81379">
        <ele>550</ele>
        <time>2024-02-23T12:47:59Z</time>
      </trkpt>
      <trkpt lat="43.77741" lon="3.81378">
        <ele>550.2</ele>
        <time>2024-02-23T12:48:00Z</time>
      </trkpt>
      <trkpt lat="43.77741" lon="3.81378">
        <ele>550.4</ele>
        <time>2024-02-23T12:48:01Z</time>
      </trkpt>
      <trkpt lat="43.77742" lon="3.81375">
        <ele>550.6</ele>
        <time>2024-02-23T12:48:02Z</time>
      </trkpt>
      <trkpt lat="43.77742" lon="3.81375">
        <ele>550.8</ele>
        <time>2024-02-23T12:48:03Z</time>
      </trkpt>
      <trkpt lat="43.77742" lon="3.81375">
        <ele>551</ele>
        <time>2024-02-23T12:48:04Z</time>
      </trkpt>
      <trkpt lat="43.77742" lon="3.81375">
        <ele>551.4</ele>
        <time>2024-02-23T12:48:05Z</time>
      </trkpt>
      <trkpt lat="43.77743" lon="3.81373">
        <ele>551.6</ele>
        <time>2024-02-23T12:48:06Z</time>
      </trkpt>
      <trkpt lat="43.77743" lon="3.81373">
        <ele>551.8</ele>
        <time>2024-02-23T12:48:07Z</time>
      </trkpt>
      <trkpt lat="43.77744" lon="3.8137">
        <ele>552.2</ele>
        <time>2024-02-23T12:48:08Z</time>
      </trkpt>
      <trkpt lat="43.77744" lon="3.8137">
        <ele>552.4</ele>
        <time>2024-02-23T12:48:09Z</time>
      </trkpt>
      <trkpt lat="43.77746" lon="3.81368">
        <ele>552.8</ele>
        <time>2024-02-23T12:48:10Z</time>
      </trkpt>
      <trkpt lat="43.77746" lon="3.81368">
        <ele>553.2</ele>
        <time>2024-02-23T12:48:11Z</time>
      </trkpt>
      <trkpt lat="43.77746" lon="3.81368">
        <ele>553.4</ele>
        <time>2024-02-23T12:48:12Z</time>
      </trkpt>
      <trkpt lat="43.77747" lon="3.81365">
        <ele>553.4</ele>
        <time>2024-02-23T12:48:13Z</time>
      </trkpt>
      <trkpt lat="43.77747" lon="3.81365">
        <ele>553.6</ele>
        <time>2024-02-23T12:48:14Z</time>
      </trkpt>
      <trkpt lat="43.77747" lon="3.81362">
        <ele>554</ele>
        <time>2024-02-23T12:48:15Z</time>
      </trkpt>
      <trkpt lat="43.77747" lon="3.81362">
        <ele>554.2</ele>
        <time>2024-02-23T12:48:16Z</time>
      </trkpt>
      <trkpt lat="43.77747" lon="3.81358">
        <ele>554.4</ele>
        <time>2024-02-23T12:48:17Z</time>
      </trkpt>
      <trkpt lat="43.77747" lon="3.81358">
        <ele>554.6</ele>
        <time>2024-02-23T12:48:18Z</time>
      </trkpt>
      <trkpt lat="43.77748" lon="3.81353">
        <ele>554.8</ele>
        <time>2024-02-23T12:48:19Z</time>
      </trkpt>
      <trkpt lat="43.77749" lon="3.81351">
        <ele>555</ele>
        <time>2024-02-23T12:48:20Z</time>
      </trkpt>
      <trkpt lat="43.77749" lon="3.81351">
        <ele>555</ele>
        <time>2024-02-23T12:48:21Z</time>
      </trkpt>
      <trkpt lat="43.77749" lon="3.81346">
        <ele>555.2</ele>
        <time>2024-02-23T12:48:22Z</time>
      </trkpt>
      <trkpt lat="43.77749" lon="3.81344">
        <ele>555.4</ele>
        <time>2024-02-23T12:48:23Z</time>
      </trkpt>
      <trkpt lat="43.77749" lon="3.81344">
        <ele>555.4</ele>
        <time>2024-02-23T12:48:24Z</time>
      </trkpt>
      <trkpt lat="43.7775" lon="3.81341">
        <ele>555.6</ele>
        <time>2024-02-23T12:48:25Z</time>
      </trkpt>
      <trkpt lat="43.7775" lon="3.81341">
        <ele>555.8</ele>
        <time>2024-02-23T12:48:26Z</time>
      </trkpt>
      <trkpt lat="43.7775" lon="3.81337">
        <ele>556</ele>
        <time>2024-02-23T12:48:27Z</time>
      </trkpt>
      <trkpt lat="43.7775" lon="3.81337">
        <ele>556</ele>
        <time>2024-02-23T12:48:28Z</time>
      </trkpt>
      <trkpt lat="43.7775" lon="3.81337">
        <ele>556.2</ele>
        <time>2024-02-23T12:48:29Z</time>
      </trkpt>
      <trkpt lat="43.77752" lon="3.81334">
        <ele>556.2</ele>
        <time>2024-02-23T12:48:30Z</time>
      </trkpt>
      <trkpt lat="43.77752" lon="3.81334">
        <ele>556.4</ele>
        <time>2024-02-23T12:48:31Z</time>
      </trkpt>
      <trkpt lat="43.77752" lon="3.81334">
        <ele>556.6</ele>
        <time>2024-02-23T12:48:32Z</time>
      </trkpt>
      <trkpt lat="43.77753" lon="3.81331">
        <ele>557</ele>
        <time>2024-02-23T12:48:33Z</time>
      </trkpt>
      <trkpt lat="43.77753" lon="3.81331">
        <ele>557.2</ele>
        <time>2024-02-23T12:48:34Z</time>
      </trkpt>
      <trkpt lat="43.77754" lon="3.81328">
        <ele>557.6</ele>
        <time>2024-02-23T12:48:35Z</time>
      </trkpt>
      <trkpt lat="43.77754" lon="3.81328">
        <ele>557.8</ele>
        <time>2024-02-23T12:48:36Z</time>
      </trkpt>
      <trkpt lat="43.77754" lon="3.81324">
        <ele>558</ele>
        <time>2024-02-23T12:48:37Z</time>
      </trkpt>
      <trkpt lat="43.77754" lon="3.81324">
        <ele>558</ele>
        <time>2024-02-23T12:48:38Z</time>
      </trkpt>
      <trkpt lat="43.77755" lon="3.81321">
        <ele>558.2</ele>
        <time>2024-02-23T12:48:39Z</time>
      </trkpt>
      <trkpt lat="43.77755" lon="3.81321">
        <ele>558.4</ele>
        <time>2024-02-23T12:48:40Z</time>
      </trkpt>
      <trkpt lat="43.77755" lon="3.81321">
        <ele>558.4</ele>
        <time>2024-02-23T12:48:41Z</time>
      </trkpt>
      <trkpt lat="43.77755" lon="3.81317">
        <ele>558.6</ele>
        <time>2024-02-23T12:48:42Z</time>
      </trkpt>
      <trkpt lat="43.77755" lon="3.81317">
        <ele>558.8</ele>
        <time>2024-02-23T12:48:43Z</time>
      </trkpt>
      <trkpt lat="43.77757" lon="3.81314">
        <ele>559</ele>
        <time>2024-02-23T12:48:44Z</time>
      </trkpt>
      <trkpt lat="43.77758" lon="3.81312">
        <ele>559.2</ele>
        <time>2024-02-23T12:48:45Z</time>
      </trkpt>
      <trkpt lat="43.77758" lon="3.81309">
        <ele>559.4</ele>
        <time>2024-02-23T12:48:46Z</time>
      </trkpt>
      <trkpt lat="43.77758" lon="3.81309">
        <ele>559.6</ele>
        <time>2024-02-23T12:48:47Z</time>
      </trkpt>
      <trkpt lat="43.77759" lon="3.81305">
        <ele>560</ele>
        <time>2024-02-23T12:48:48Z</time>
      </trkpt>
      <trkpt lat="43.77759" lon="3.81305">
        <ele>560.2</ele>
        <time>2024-02-23T12:48:49Z</time>
      </trkpt>
      <trkpt lat="43.7776" lon="3.81302">
        <ele>560.2</ele>
        <time>2024-02-23T12:48:50Z</time>
      </trkpt>
      <trkpt lat="43.7776" lon="3.81302">
        <ele>560.4</ele>
        <time>2024-02-23T12:48:51Z</time>
      </trkpt>
      <trkpt lat="43.7776" lon="3.81302">
        <ele>560.6</ele>
        <time>2024-02-23T12:48:52Z</time>
      </trkpt>
      <trkpt lat="43.7776" lon="3.81299">
        <ele>560.6</ele>
        <time>2024-02-23T12:48:53Z</time>
      </trkpt>
      <trkpt lat="43.7776" lon="3.81299">
        <ele>560.6</ele>
        <time>2024-02-23T12:48:54Z</time>
      </trkpt>
      <trkpt lat="43.7776" lon="3.81299">
        <ele>560.8</ele>
        <time>2024-02-23T12:48:55Z</time>
      </trkpt>
      <trkpt lat="43.7776" lon="3.81299">
        <ele>561</ele>
        <time>2024-02-23T12:48:56Z</time>
      </trkpt>
      <trkpt lat="43.7776" lon="3.81299">
        <ele>561.2</ele>
        <time>2024-02-23T12:48:57Z</time>
      </trkpt>
      <trkpt lat="43.77762" lon="3.81301">
        <ele>561.4</ele>
        <time>2024-02-23T12:48:58Z</time>
      </trkpt>
      <trkpt lat="43.77762" lon="3.81301">
        <ele>561.8</ele>
        <time>2024-02-23T12:48:59Z</time>
      </trkpt>
      <trkpt lat="43.77762" lon="3.81301">
        <ele>562</ele>
        <time>2024-02-23T12:49:00Z</time>
      </trkpt>
      <trkpt lat="43.77763" lon="3.81304">
        <ele>562.2</ele>
        <time>2024-02-23T12:49:01Z</time>
      </trkpt>
      <trkpt lat="43.77763" lon="3.81304">
        <ele>562.4</ele>
        <time>2024-02-23T12:49:02Z</time>
      </trkpt>
      <trkpt lat="43.77764" lon="3.81307">
        <ele>562.6</ele>
        <time>2024-02-23T12:49:03Z</time>
      </trkpt>
      <trkpt lat="43.77764" lon="3.81307">
        <ele>562.8</ele>
        <time>2024-02-23T12:49:04Z</time>
      </trkpt>
      <trkpt lat="43.77766" lon="3.81309">
        <ele>563</ele>
        <time>2024-02-23T12:49:05Z</time>
      </trkpt>
      <trkpt lat="43.77766" lon="3.81309">
        <ele>563.2</ele>
        <time>2024-02-23T12:49:06Z</time>
      </trkpt>
      <trkpt lat="43.77766" lon="3.81309">
        <ele>563.4</ele>
        <time>2024-02-23T12:49:07Z</time>
      </trkpt>
      <trkpt lat="43.77767" lon="3.81306">
        <ele>563.6</ele>
        <time>2024-02-23T12:49:08Z</time>
      </trkpt>
      <trkpt lat="43.77767" lon="3.81306">
        <ele>564</ele>
        <time>2024-02-23T12:49:09Z</time>
      </trkpt>
      <trkpt lat="43.77767" lon="3.81301">
        <ele>564.2</ele>
        <time>2024-02-23T12:49:10Z</time>
      </trkpt>
      <trkpt lat="43.77767" lon="3.81301">
        <ele>564.4</ele>
        <time>2024-02-23T12:49:11Z</time>
      </trkpt>
      <trkpt lat="43.77766" lon="3.81297">
        <ele>564.6</ele>
        <time>2024-02-23T12:49:12Z</time>
      </trkpt>
      <trkpt lat="43.77766" lon="3.81297">
        <ele>564.8</ele>
        <time>2024-02-23T12:49:13Z</time>
      </trkpt>
      <trkpt lat="43.77768" lon="3.81294">
        <ele>564.8</ele>
        <time>2024-02-23T12:49:14Z</time>
      </trkpt>
      <trkpt lat="43.77768" lon="3.81294">
        <ele>565</ele>
        <time>2024-02-23T12:49:15Z</time>
      </trkpt>
      <trkpt lat="43.77768" lon="3.81294">
        <ele>565</ele>
        <time>2024-02-23T12:49:16Z</time>
      </trkpt>
      <trkpt lat="43.77768" lon="3.81294">
        <ele>565</ele>
        <time>2024-02-23T12:49:17Z</time>
      </trkpt>
      <trkpt lat="43.77769" lon="3.81291">
        <ele>565</ele>
        <time>2024-02-23T12:49:18Z</time>
      </trkpt>
      <trkpt lat="43.77769" lon="3.81291">
        <ele>565.2</ele>
        <time>2024-02-23T12:49:19Z</time>
      </trkpt>
      <trkpt lat="43.7777" lon="3.81289">
        <ele>565.2</ele>
        <time>2024-02-23T12:49:20Z</time>
      </trkpt>
      <trkpt lat="43.7777" lon="3.81289">
        <ele>565.4</ele>
        <time>2024-02-23T12:49:21Z</time>
      </trkpt>
      <trkpt lat="43.77772" lon="3.81288">
        <ele>565.6</ele>
        <time>2024-02-23T12:49:22Z</time>
      </trkpt>
      <trkpt lat="43.77772" lon="3.81288">
        <ele>565.8</ele>
        <time>2024-02-23T12:49:23Z</time>
      </trkpt>
      <trkpt lat="43.77773" lon="3.81284">
        <ele>566</ele>
        <time>2024-02-23T12:49:24Z</time>
      </trkpt>
      <trkpt lat="43.77773" lon="3.81284">
        <ele>566.2</ele>
        <time>2024-02-23T12:49:25Z</time>
      </trkpt>
      <trkpt lat="43.77774" lon="3.81282">
        <ele>566.6</ele>
        <time>2024-02-23T12:49:26Z</time>
      </trkpt>
      <trkpt lat="43.77774" lon="3.81282">
        <ele>566.8</ele>
        <time>2024-02-23T12:49:27Z</time>
      </trkpt>
      <trkpt lat="43.77774" lon="3.81282">
        <ele>567.2</ele>
        <time>2024-02-23T12:49:28Z</time>
      </trkpt>
      <trkpt lat="43.77774" lon="3.81282">
        <ele>567.4</ele>
        <time>2024-02-23T12:49:29Z</time>
      </trkpt>
      <trkpt lat="43.77775" lon="3.81278">
        <ele>567.6</ele>
        <time>2024-02-23T12:49:30Z</time>
      </trkpt>
      <trkpt lat="43.77776" lon="3.81276">
        <ele>567.8</ele>
        <time>2024-02-23T12:49:31Z</time>
      </trkpt>
      <trkpt lat="43.77776" lon="3.81276">
        <ele>568</ele>
        <time>2024-02-23T12:49:32Z</time>
      </trkpt>
      <trkpt lat="43.77777" lon="3.81272">
        <ele>568.2</ele>
        <time>2024-02-23T12:49:33Z</time>
      </trkpt>
      <trkpt lat="43.77777" lon="3.81272">
        <ele>568.4</ele>
        <time>2024-02-23T12:49:34Z</time>
      </trkpt>
      <trkpt lat="43.77778" lon="3.81269">
        <ele>568.6</ele>
        <time>2024-02-23T12:49:35Z</time>
      </trkpt>
      <trkpt lat="43.77778" lon="3.81269">
        <ele>568.6</ele>
        <time>2024-02-23T12:49:36Z</time>
      </trkpt>
      <trkpt lat="43.77779" lon="3.81267">
        <ele>568.8</ele>
        <time>2024-02-23T12:49:37Z</time>
      </trkpt>
      <trkpt lat="43.77779" lon="3.81267">
        <ele>569</ele>
        <time>2024-02-23T12:49:38Z</time>
      </trkpt>
      <trkpt lat="43.77779" lon="3.81267">
        <ele>569.2</ele>
        <time>2024-02-23T12:49:39Z</time>
      </trkpt>
      <trkpt lat="43.7778" lon="3.81264">
        <ele>569.4</ele>
        <time>2024-02-23T12:49:40Z</time>
      </trkpt>
      <trkpt lat="43.7778" lon="3.81264">
        <ele>569.6</ele>
        <time>2024-02-23T12:49:41Z</time>
      </trkpt>
      <trkpt lat="43.7778" lon="3.81264">
        <ele>569.8</ele>
        <time>2024-02-23T12:49:42Z</time>
      </trkpt>
      <trkpt lat="43.7778" lon="3.81264">
        <ele>570</ele>
        <time>2024-02-23T12:49:43Z</time>
      </trkpt>
      <trkpt lat="43.77782" lon="3.81262">
        <ele>570.2</ele>
        <time>2024-02-23T12:49:44Z</time>
      </trkpt>
      <trkpt lat="43.77782" lon="3.81262">
        <ele>570.6</ele>
        <time>2024-02-23T12:49:45Z</time>
      </trkpt>
      <trkpt lat="43.77782" lon="3.81262">
        <ele>571</ele>
        <time>2024-02-23T12:49:46Z</time>
      </trkpt>
      <trkpt lat="43.77782" lon="3.81262">
        <ele>571.2</ele>
        <time>2024-02-23T12:49:47Z</time>
      </trkpt>
      <trkpt lat="43.77782" lon="3.81264">
        <ele>571.6</ele>
        <time>2024-02-23T12:49:48Z</time>
      </trkpt>
      <trkpt lat="43.77782" lon="3.81264">
        <ele>571.8</ele>
        <time>2024-02-23T12:49:49Z</time>
      </trkpt>
      <trkpt lat="43.77783" lon="3.81268">
        <ele>572</ele>
        <time>2024-02-23T12:49:50Z</time>
      </trkpt>
      <trkpt lat="43.77783" lon="3.81268">
        <ele>572.2</ele>
        <time>2024-02-23T12:49:51Z</time>
      </trkpt>
      <trkpt lat="43.77783" lon="3.81268">
        <ele>572.4</ele>
        <time>2024-02-23T12:49:52Z</time>
      </trkpt>
      <trkpt lat="43.77783" lon="3.8127">
        <ele>572.4</ele>
        <time>2024-02-23T12:49:53Z</time>
      </trkpt>
      <trkpt lat="43.77783" lon="3.8127">
        <ele>572.6</ele>
        <time>2024-02-23T12:49:54Z</time>
      </trkpt>
      <trkpt lat="43.77783" lon="3.8127">
        <ele>572.8</ele>
        <time>2024-02-23T12:49:55Z</time>
      </trkpt>
      <trkpt lat="43.77784" lon="3.81274">
        <ele>573</ele>
        <time>2024-02-23T12:49:56Z</time>
      </trkpt>
      <trkpt lat="43.77784" lon="3.81274">
        <ele>573.2</ele>
        <time>2024-02-23T12:49:57Z</time>
      </trkpt>
      <trkpt lat="43.77784" lon="3.81274">
        <ele>573.4</ele>
        <time>2024-02-23T12:49:58Z</time>
      </trkpt>
      <trkpt lat="43.77784" lon="3.81277">
        <ele>573.4</ele>
        <time>2024-02-23T12:49:59Z</time>
      </trkpt>
      <trkpt lat="43.77784" lon="3.81277">
        <ele>573.8</ele>
        <time>2024-02-23T12:50:00Z</time>
      </trkpt>
      <trkpt lat="43.77784" lon="3.8128">
        <ele>574</ele>
        <time>2024-02-23T12:50:01Z</time>
      </trkpt>
      <trkpt lat="43.77784" lon="3.8128">
        <ele>574.2</ele>
        <time>2024-02-23T12:50:02Z</time>
      </trkpt>
      <trkpt lat="43.77784" lon="3.81283">
        <ele>574.4</ele>
        <time>2024-02-23T12:50:03Z</time>
      </trkpt>
      <trkpt lat="43.77784" lon="3.81283">
        <ele>574.6</ele>
        <time>2024-02-23T12:50:04Z</time>
      </trkpt>
      <trkpt lat="43.77786" lon="3.81286">
        <ele>575</ele>
        <time>2024-02-23T12:50:05Z</time>
      </trkpt>
      <trkpt lat="43.77786" lon="3.81286">
        <ele>575.2</ele>
        <time>2024-02-23T12:50:06Z</time>
      </trkpt>
      <trkpt lat="43.77788" lon="3.81287">
        <ele>575.4</ele>
        <time>2024-02-23T12:50:07Z</time>
      </trkpt>
      <trkpt lat="43.77788" lon="3.81287">
        <ele>575.6</ele>
        <time>2024-02-23T12:50:08Z</time>
      </trkpt>
      <trkpt lat="43.77788" lon="3.81287">
        <ele>575.8</ele>
        <time>2024-02-23T12:50:09Z</time>
      </trkpt>
      <trkpt lat="43.77789" lon="3.81284">
        <ele>576</ele>
        <time>2024-02-23T12:50:10Z</time>
      </trkpt>
      <trkpt lat="43.77789" lon="3.81284">
        <ele>576.2</ele>
        <time>2024-02-23T12:50:11Z</time>
      </trkpt>
      <trkpt lat="43.77789" lon="3.81281">
        <ele>576.4</ele>
        <time>2024-02-23T12:50:12Z</time>
      </trkpt>
      <trkpt lat="43.77789" lon="3.81281">
        <ele>576.6</ele>
        <time>2024-02-23T12:50:13Z</time>
      </trkpt>
      <trkpt lat="43.77791" lon="3.8128">
        <ele>576.8</ele>
        <time>2024-02-23T12:50:14Z</time>
      </trkpt>
      <trkpt lat="43.77791" lon="3.8128">
        <ele>576.8</ele>
        <time>2024-02-23T12:50:15Z</time>
      </trkpt>
      <trkpt lat="43.77792" lon="3.81277">
        <ele>577</ele>
        <time>2024-02-23T12:50:16Z</time>
      </trkpt>
      <trkpt lat="43.77792" lon="3.81277">
        <ele>577</ele>
        <time>2024-02-23T12:50:17Z</time>
      </trkpt>
      <trkpt lat="43.77792" lon="3.81275">
        <ele>577.4</ele>
        <time>2024-02-23T12:50:18Z</time>
      </trkpt>
      <trkpt lat="43.77792" lon="3.81275">
        <ele>577.8</ele>
        <time>2024-02-23T12:50:19Z</time>
      </trkpt>
      <trkpt lat="43.77793" lon="3.8127">
        <ele>578</ele>
        <time>2024-02-23T12:50:20Z</time>
      </trkpt>
      <trkpt lat="43.77793" lon="3.8127">
        <ele>578.4</ele>
        <time>2024-02-23T12:50:21Z</time>
      </trkpt>
      <trkpt lat="43.77794" lon="3.81266">
        <ele>578.6</ele>
        <time>2024-02-23T12:50:22Z</time>
      </trkpt>
      <trkpt lat="43.77794" lon="3.81266">
        <ele>578.8</ele>
        <time>2024-02-23T12:50:23Z</time>
      </trkpt>
      <trkpt lat="43.77795" lon="3.81262">
        <ele>579</ele>
        <time>2024-02-23T12:50:24Z</time>
      </trkpt>
      <trkpt lat="43.77796" lon="3.8126">
        <ele>579.2</ele>
        <time>2024-02-23T12:50:25Z</time>
      </trkpt>
      <trkpt lat="43.77796" lon="3.8126">
        <ele>579.4</ele>
        <time>2024-02-23T12:50:26Z</time>
      </trkpt>
      <trkpt lat="43.77796" lon="3.81256">
        <ele>579.6</ele>
        <time>2024-02-23T12:50:27Z</time>
      </trkpt>
      <trkpt lat="43.77796" lon="3.81256">
        <ele>579.8</ele>
        <time>2024-02-23T12:50:28Z</time>
      </trkpt>
      <trkpt lat="43.77797" lon="3.81253">
        <ele>580</ele>
        <time>2024-02-23T12:50:29Z</time>
      </trkpt>
      <trkpt lat="43.77797" lon="3.81253">
        <ele>580.2</ele>
        <time>2024-02-23T12:50:30Z</time>
      </trkpt>
      <trkpt lat="43.77797" lon="3.81249">
        <ele>580.6</ele>
        <time>2024-02-23T12:50:31Z</time>
      </trkpt>
      <trkpt lat="43.77797" lon="3.81249">
        <ele>580.8</ele>
        <time>2024-02-23T12:50:32Z</time>
      </trkpt>
      <trkpt lat="43.77797" lon="3.81245">
        <ele>581</ele>
        <time>2024-02-23T12:50:33Z</time>
      </trkpt>
      <trkpt lat="43.77797" lon="3.81242">
        <ele>581.4</ele>
        <time>2024-02-23T12:50:34Z</time>
      </trkpt>
      <trkpt lat="43.77797" lon="3.8124">
        <ele>581.4</ele>
        <time>2024-02-23T12:50:35Z</time>
      </trkpt>
      <trkpt lat="43.77797" lon="3.81236">
        <ele>581.6</ele>
        <time>2024-02-23T12:50:36Z</time>
      </trkpt>
      <trkpt lat="43.77797" lon="3.81236">
        <ele>581.8</ele>
        <time>2024-02-23T12:50:37Z</time>
      </trkpt>
      <trkpt lat="43.77797" lon="3.81232">
        <ele>582</ele>
        <time>2024-02-23T12:50:38Z</time>
      </trkpt>
      <trkpt lat="43.77797" lon="3.81232">
        <ele>582</ele>
        <time>2024-02-23T12:50:39Z</time>
      </trkpt>
      <trkpt lat="43.77797" lon="3.8123">
        <ele>582.2</ele>
        <time>2024-02-23T12:50:40Z</time>
      </trkpt>
      <trkpt lat="43.77797" lon="3.8123">
        <ele>582.4</ele>
        <time>2024-02-23T12:50:41Z</time>
      </trkpt>
      <trkpt lat="43.77797" lon="3.8123">
        <ele>582.6</ele>
        <time>2024-02-23T12:50:42Z</time>
      </trkpt>
      <trkpt lat="43.77798" lon="3.81227">
        <ele>583</ele>
        <time>2024-02-23T12:50:43Z</time>
      </trkpt>
      <trkpt lat="43.77798" lon="3.81227">
        <ele>583.2</ele>
        <time>2024-02-23T12:50:44Z</time>
      </trkpt>
      <trkpt lat="43.77798" lon="3.81227">
        <ele>583.6</ele>
        <time>2024-02-23T12:50:45Z</time>
      </trkpt>
      <trkpt lat="43.77798" lon="3.81227">
        <ele>584</ele>
        <time>2024-02-23T12:50:46Z</time>
      </trkpt>
      <trkpt lat="43.77799" lon="3.81229">
        <ele>584.4</ele>
        <time>2024-02-23T12:50:47Z</time>
      </trkpt>
      <trkpt lat="43.77799" lon="3.81229">
        <ele>584.8</ele>
        <time>2024-02-23T12:50:48Z</time>
      </trkpt>
      <trkpt lat="43.77799" lon="3.81229">
        <ele>585</ele>
        <time>2024-02-23T12:50:49Z</time>
      </trkpt>
      <trkpt lat="43.778" lon="3.81232">
        <ele>585.2</ele>
        <time>2024-02-23T12:50:50Z</time>
      </trkpt>
      <trkpt lat="43.778" lon="3.81232">
        <ele>585.4</ele>
        <time>2024-02-23T12:50:51Z</time>
      </trkpt>
      <trkpt lat="43.778" lon="3.81232">
        <ele>585.4</ele>
        <time>2024-02-23T12:50:52Z</time>
      </trkpt>
      <trkpt lat="43.778" lon="3.81232">
        <ele>585.6</ele>
        <time>2024-02-23T12:50:53Z</time>
      </trkpt>
      <trkpt lat="43.778" lon="3.81235">
        <ele>585.6</ele>
        <time>2024-02-23T12:50:54Z</time>
      </trkpt>
      <trkpt lat="43.778" lon="3.81235">
        <ele>585.8</ele>
        <time>2024-02-23T12:50:55Z</time>
      </trkpt>
      <trkpt lat="43.77801" lon="3.81239">
        <ele>586</ele>
        <time>2024-02-23T12:50:56Z</time>
      </trkpt>
      <trkpt lat="43.77801" lon="3.81239">
        <ele>586.2</ele>
        <time>2024-02-23T12:50:57Z</time>
      </trkpt>
      <trkpt lat="43.77803" lon="3.81242">
        <ele>586.6</ele>
        <time>2024-02-23T12:50:58Z</time>
      </trkpt>
      <trkpt lat="43.77803" lon="3.81242">
        <ele>586.8</ele>
        <time>2024-02-23T12:50:59Z</time>
      </trkpt>
      <trkpt lat="43.77803" lon="3.81246">
        <ele>586.8</ele>
        <time>2024-02-23T12:51:00Z</time>
      </trkpt>
      <trkpt lat="43.77803" lon="3.81246">
        <ele>587</ele>
        <time>2024-02-23T12:51:01Z</time>
      </trkpt>
      <trkpt lat="43.77804" lon="3.8125">
        <ele>587</ele>
        <time>2024-02-23T12:51:02Z</time>
      </trkpt>
      <trkpt lat="43.77804" lon="3.8125">
        <ele>587.2</ele>
        <time>2024-02-23T12:51:03Z</time>
      </trkpt>
      <trkpt lat="43.77804" lon="3.81252">
        <ele>587.2</ele>
        <time>2024-02-23T12:51:04Z</time>
      </trkpt>
      <trkpt lat="43.77804" lon="3.81252">
        <ele>587.4</ele>
        <time>2024-02-23T12:51:05Z</time>
      </trkpt>
      <trkpt lat="43.77805" lon="3.81254">
        <ele>587.6</ele>
        <time>2024-02-23T12:51:06Z</time>
      </trkpt>
      <trkpt lat="43.77805" lon="3.81254">
        <ele>587.8</ele>
        <time>2024-02-23T12:51:07Z</time>
      </trkpt>
      <trkpt lat="43.77805" lon="3.81254">
        <ele>588</ele>
        <time>2024-02-23T12:51:08Z</time>
      </trkpt>
      <trkpt lat="43.77808" lon="3.81257">
        <ele>588.4</ele>
        <time>2024-02-23T12:51:09Z</time>
      </trkpt>
      <trkpt lat="43.77808" lon="3.81257">
        <ele>588.6</ele>
        <time>2024-02-23T12:51:10Z</time>
      </trkpt>
      <trkpt lat="43.7781" lon="3.81258">
        <ele>588.8</ele>
        <time>2024-02-23T12:51:11Z</time>
      </trkpt>
      <trkpt lat="43.7781" lon="3.81258">
        <ele>589</ele>
        <time>2024-02-23T12:51:12Z</time>
      </trkpt>
      <trkpt lat="43.77811" lon="3.81255">
        <ele>589.2</ele>
        <time>2024-02-23T12:51:13Z</time>
      </trkpt>
      <trkpt lat="43.77811" lon="3.81255">
        <ele>589.6</ele>
        <time>2024-02-23T12:51:14Z</time>
      </trkpt>
      <trkpt lat="43.77812" lon="3.81252">
        <ele>589.6</ele>
        <time>2024-02-23T12:51:15Z</time>
      </trkpt>
      <trkpt lat="43.77812" lon="3.81252">
        <ele>589.8</ele>
        <time>2024-02-23T12:51:16Z</time>
      </trkpt>
      <trkpt lat="43.77812" lon="3.81252">
        <ele>590</ele>
        <time>2024-02-23T12:51:17Z</time>
      </trkpt>
      <trkpt lat="43.77812" lon="3.81249">
        <ele>590.2</ele>
        <time>2024-02-23T12:51:18Z</time>
      </trkpt>
      <trkpt lat="43.77812" lon="3.81249">
        <ele>590.4</ele>
        <time>2024-02-23T12:51:19Z</time>
      </trkpt>
      <trkpt lat="43.77812" lon="3.81249">
        <ele>590.6</ele>
        <time>2024-02-23T12:51:20Z</time>
      </trkpt>
      <trkpt lat="43.77812" lon="3.81249">
        <ele>590.8</ele>
        <time>2024-02-23T12:51:21Z</time>
      </trkpt>
      <trkpt lat="43.77813" lon="3.81252">
        <ele>591.2</ele>
        <time>2024-02-23T12:51:22Z</time>
      </trkpt>
      <trkpt lat="43.77813" lon="3.81252">
        <ele>591.6</ele>
        <time>2024-02-23T12:51:23Z</time>
      </trkpt>
      <trkpt lat="43.77813" lon="3.81252">
        <ele>591.8</ele>
        <time>2024-02-23T12:51:24Z</time>
      </trkpt>
      <trkpt lat="43.77813" lon="3.81252">
        <ele>592</ele>
        <time>2024-02-23T12:51:25Z</time>
      </trkpt>
      <trkpt lat="43.77815" lon="3.81252">
        <ele>592.4</ele>
        <time>2024-02-23T12:51:26Z</time>
      </trkpt>
      <trkpt lat="43.77815" lon="3.81252">
        <ele>592.6</ele>
        <time>2024-02-23T12:51:27Z</time>
      </trkpt>
      <trkpt lat="43.77815" lon="3.81252">
        <ele>592.8</ele>
        <time>2024-02-23T12:51:28Z</time>
      </trkpt>
      <trkpt lat="43.77817" lon="3.81249">
        <ele>593</ele>
        <time>2024-02-23T12:51:29Z</time>
      </trkpt>
      <trkpt lat="43.77817" lon="3.81249">
        <ele>593.2</ele>
        <time>2024-02-23T12:51:30Z</time>
      </trkpt>
      <trkpt lat="43.77818" lon="3.81247">
        <ele>593.6</ele>
        <time>2024-02-23T12:51:31Z</time>
      </trkpt>
      <trkpt lat="43.77818" lon="3.81247">
        <ele>593.8</ele>
        <time>2024-02-23T12:51:32Z</time>
      </trkpt>
      <trkpt lat="43.77818" lon="3.81247">
        <ele>594.2</ele>
        <time>2024-02-23T12:51:33Z</time>
      </trkpt>
      <trkpt lat="43.77818" lon="3.81247">
        <ele>594.4</ele>
        <time>2024-02-23T12:51:34Z</time>
      </trkpt>
      <trkpt lat="43.77819" lon="3.81244">
        <ele>594.8</ele>
        <time>2024-02-23T12:51:35Z</time>
      </trkpt>
      <trkpt lat="43.77819" lon="3.81244">
        <ele>595.2</ele>
        <time>2024-02-23T12:51:36Z</time>
      </trkpt>
      <trkpt lat="43.77819" lon="3.81244">
        <ele>595.6</ele>
        <time>2024-02-23T12:51:37Z</time>
      </trkpt>
      <trkpt lat="43.77821" lon="3.81242">
        <ele>596</ele>
        <time>2024-02-23T12:51:38Z</time>
      </trkpt>
      <trkpt lat="43.77821" lon="3.81242">
        <ele>596.4</ele>
        <time>2024-02-23T12:51:39Z</time>
      </trkpt>
      <trkpt lat="43.77821" lon="3.81242">
        <ele>596.8</ele>
        <time>2024-02-23T12:51:40Z</time>
      </trkpt>
      <trkpt lat="43.77821" lon="3.81242">
        <ele>597.2</ele>
        <time>2024-02-23T12:51:41Z</time>
      </trkpt>
      <trkpt lat="43.77822" lon="3.8124">
        <ele>597.6</ele>
        <time>2024-02-23T12:51:42Z</time>
      </trkpt>
      <trkpt lat="43.77822" lon="3.8124">
        <ele>598.2</ele>
        <time>2024-02-23T12:51:43Z</time>
      </trkpt>
      <trkpt lat="43.77822" lon="3.8124">
        <ele>598.4</ele>
        <time>2024-02-23T12:51:44Z</time>
      </trkpt>
      <trkpt lat="43.77822" lon="3.8124">
        <ele>598.8</ele>
        <time>2024-02-23T12:51:45Z</time>
      </trkpt>
      <trkpt lat="43.77824" lon="3.81238">
        <ele>599.2</ele>
        <time>2024-02-23T12:51:46Z</time>
      </trkpt>
      <trkpt lat="43.77824" lon="3.81238">
        <ele>599.6</ele>
        <time>2024-02-23T12:51:47Z</time>
      </trkpt>
      <trkpt lat="43.77824" lon="3.81238">
        <ele>599.8</ele>
        <time>2024-02-23T12:51:48Z</time>
      </trkpt>
      <trkpt lat="43.77824" lon="3.81238">
        <ele>600.2</ele>
        <time>2024-02-23T12:51:49Z</time>
      </trkpt>
      <trkpt lat="43.77826" lon="3.81237">
        <ele>600.4</ele>
        <time>2024-02-23T12:51:50Z</time>
      </trkpt>
      <trkpt lat="43.77826" lon="3.81237">
        <ele>600.8</ele>
        <time>2024-02-23T12:51:51Z</time>
      </trkpt>
      <trkpt lat="43.77826" lon="3.81237">
        <ele>601.2</ele>
        <time>2024-02-23T12:51:52Z</time>
      </trkpt>
      <trkpt lat="43.77827" lon="3.81235">
        <ele>601.6</ele>
        <time>2024-02-23T12:51:53Z</time>
      </trkpt>
      <trkpt lat="43.77827" lon="3.81235">
        <ele>602</ele>
        <time>2024-02-23T12:51:54Z</time>
      </trkpt>
      <trkpt lat="43.77827" lon="3.81231">
        <ele>602.4</ele>
        <time>2024-02-23T12:51:55Z</time>
      </trkpt>
      <trkpt lat="43.77827" lon="3.81231">
        <ele>602.6</ele>
        <time>2024-02-23T12:51:56Z</time>
      </trkpt>
      <trkpt lat="43.77827" lon="3.81231">
        <ele>602.8</ele>
        <time>2024-02-23T12:51:57Z</time>
      </trkpt>
      <trkpt lat="43.77827" lon="3.81228">
        <ele>603</ele>
        <time>2024-02-23T12:51:58Z</time>
      </trkpt>
      <trkpt lat="43.77827" lon="3.81228">
        <ele>603.2</ele>
        <time>2024-02-23T12:51:59Z</time>
      </trkpt>
      <trkpt lat="43.77827" lon="3.81228">
        <ele>603.4</ele>
        <time>2024-02-23T12:52:00Z</time>
      </trkpt>
      <trkpt lat="43.77829" lon="3.81226">
        <ele>603.8</ele>
        <time>2024-02-23T12:52:01Z</time>
      </trkpt>
      <trkpt lat="43.77829" lon="3.81226">
        <ele>604.2</ele>
        <time>2024-02-23T12:52:02Z</time>
      </trkpt>
      <trkpt lat="43.77829" lon="3.81226">
        <ele>604.4</ele>
        <time>2024-02-23T12:52:03Z</time>
      </trkpt>
      <trkpt lat="43.77829" lon="3.81226">
        <ele>604.6</ele>
        <time>2024-02-23T12:52:04Z</time>
      </trkpt>
      <trkpt lat="43.77832" lon="3.81228">
        <ele>604.8</ele>
        <time>2024-02-23T12:52:05Z</time>
      </trkpt>
      <trkpt lat="43.77832" lon="3.81228">
        <ele>605.2</ele>
        <time>2024-02-23T12:52:06Z</time>
      </trkpt>
      <trkpt lat="43.77834" lon="3.8123">
        <ele>605.4</ele>
        <time>2024-02-23T12:52:07Z</time>
      </trkpt>
      <trkpt lat="43.77834" lon="3.8123">
        <ele>605.6</ele>
        <time>2024-02-23T12:52:08Z</time>
      </trkpt>
      <trkpt lat="43.77835" lon="3.81231">
        <ele>606</ele>
        <time>2024-02-23T12:52:09Z</time>
      </trkpt>
      <trkpt lat="43.77835" lon="3.81231">
        <ele>606.2</ele>
        <time>2024-02-23T12:52:10Z</time>
      </trkpt>
      <trkpt lat="43.77837" lon="3.81232">
        <ele>606.4</ele>
        <time>2024-02-23T12:52:11Z</time>
      </trkpt>
      <trkpt lat="43.77837" lon="3.81232">
        <ele>606.6</ele>
        <time>2024-02-23T12:52:12Z</time>
      </trkpt>
      <trkpt lat="43.77839" lon="3.81235">
        <ele>606.8</ele>
        <time>2024-02-23T12:52:13Z</time>
      </trkpt>
      <trkpt lat="43.77839" lon="3.81235">
        <ele>607</ele>
        <time>2024-02-23T12:52:14Z</time>
      </trkpt>
      <trkpt lat="43.77841" lon="3.81237">
        <ele>607.2</ele>
        <time>2024-02-23T12:52:15Z</time>
      </trkpt>
      <trkpt lat="43.77841" lon="3.81237">
        <ele>607.4</ele>
        <time>2024-02-23T12:52:16Z</time>
      </trkpt>
      <trkpt lat="43.77841" lon="3.81237">
        <ele>607.6</ele>
        <time>2024-02-23T12:52:17Z</time>
      </trkpt>
      <trkpt lat="43.77841" lon="3.81237">
        <ele>607.8</ele>
        <time>2024-02-23T12:52:18Z</time>
      </trkpt>
      <trkpt lat="43.77844" lon="3.81237">
        <ele>608</ele>
        <time>2024-02-23T12:52:19Z</time>
      </trkpt>
      <trkpt lat="43.77844" lon="3.81237">
        <ele>608.2</ele>
        <time>2024-02-23T12:52:20Z</time>
      </trkpt>
      <trkpt lat="43.77844" lon="3.81237">
        <ele>608.2</ele>
        <time>2024-02-23T12:52:21Z</time>
      </trkpt>
      <trkpt lat="43.77844" lon="3.81237">
        <ele>608.4</ele>
        <time>2024-02-23T12:52:22Z</time>
      </trkpt>
      <trkpt lat="43.77844" lon="3.81237">
        <ele>608.6</ele>
        <time>2024-02-23T12:52:23Z</time>
      </trkpt>
      <trkpt lat="43.77844" lon="3.81237">
        <ele>609</ele>
        <time>2024-02-23T12:52:24Z</time>
      </trkpt>
      <trkpt lat="43.77844" lon="3.81234">
        <ele>609.2</ele>
        <time>2024-02-23T12:52:25Z</time>
      </trkpt>
      <trkpt lat="43.77844" lon="3.81234">
        <ele>609.6</ele>
        <time>2024-02-23T12:52:26Z</time>
      </trkpt>
      <trkpt lat="43.77844" lon="3.81234">
        <ele>609.8</ele>
        <time>2024-02-23T12:52:27Z</time>
      </trkpt>
      <trkpt lat="43.77845" lon="3.81231">
        <ele>610</ele>
        <time>2024-02-23T12:52:28Z</time>
      </trkpt>
      <trkpt lat="43.77845" lon="3.81231">
        <ele>610.2</ele>
        <time>2024-02-23T12:52:29Z</time>
      </trkpt>
      <trkpt lat="43.77845" lon="3.81231">
        <ele>610.6</ele>
        <time>2024-02-23T12:52:30Z</time>
      </trkpt>
      <trkpt lat="43.77846" lon="3.81233">
        <ele>610.8</ele>
        <time>2024-02-23T12:52:31Z</time>
      </trkpt>
      <trkpt lat="43.77846" lon="3.81233">
        <ele>611</ele>
        <time>2024-02-23T12:52:32Z</time>
      </trkpt>
      <trkpt lat="43.77846" lon="3.81233">
        <ele>611.2</ele>
        <time>2024-02-23T12:52:33Z</time>
      </trkpt>
      <trkpt lat="43.77846" lon="3.81233">
        <ele>611.4</ele>
        <time>2024-02-23T12:52:34Z</time>
      </trkpt>
      <trkpt lat="43.77848" lon="3.81231">
        <ele>611.4</ele>
        <time>2024-02-23T12:52:35Z</time>
      </trkpt>
      <trkpt lat="43.77848" lon="3.81231">
        <ele>611.6</ele>
        <time>2024-02-23T12:52:36Z</time>
      </trkpt>
      <trkpt lat="43.77848" lon="3.81231">
        <ele>611.8</ele>
        <time>2024-02-23T12:52:37Z</time>
      </trkpt>
      <trkpt lat="43.77847" lon="3.81227">
        <ele>611.8</ele>
        <time>2024-02-23T12:52:38Z</time>
      </trkpt>
      <trkpt lat="43.77847" lon="3.81227">
        <ele>612</ele>
        <time>2024-02-23T12:52:39Z</time>
      </trkpt>
      <trkpt lat="43.77848" lon="3.81224">
        <ele>612.2</ele>
        <time>2024-02-23T12:52:40Z</time>
      </trkpt>
      <trkpt lat="43.77848" lon="3.81224">
        <ele>612.6</ele>
        <time>2024-02-23T12:52:41Z</time>
      </trkpt>
      <trkpt lat="43.77848" lon="3.81224">
        <ele>613</ele>
        <time>2024-02-23T12:52:42Z</time>
      </trkpt>
      <trkpt lat="43.77849" lon="3.81221">
        <ele>613.4</ele>
        <time>2024-02-23T12:52:43Z</time>
      </trkpt>
      <trkpt lat="43.77849" lon="3.81221">
        <ele>613.8</ele>
        <time>2024-02-23T12:52:44Z</time>
      </trkpt>
      <trkpt lat="43.77849" lon="3.81221">
        <ele>614.2</ele>
        <time>2024-02-23T12:52:45Z</time>
      </trkpt>
      <trkpt lat="43.77849" lon="3.81221">
        <ele>614.4</ele>
        <time>2024-02-23T12:52:46Z</time>
      </trkpt>
      <trkpt lat="43.77849" lon="3.81221">
        <ele>614.8</ele>
        <time>2024-02-23T12:52:47Z</time>
      </trkpt>
      <trkpt lat="43.77852" lon="3.81222">
        <ele>615</ele>
        <time>2024-02-23T12:52:48Z</time>
      </trkpt>
      <trkpt lat="43.77852" lon="3.81222">
        <ele>615</ele>
        <time>2024-02-23T12:52:49Z</time>
      </trkpt>
      <trkpt lat="43.77852" lon="3.81222">
        <ele>615.2</ele>
        <time>2024-02-23T12:52:50Z</time>
      </trkpt>
      <trkpt lat="43.77852" lon="3.81222">
        <ele>615.4</ele>
        <time>2024-02-23T12:52:51Z</time>
      </trkpt>
      <trkpt lat="43.77853" lon="3.81219">
        <ele>615.8</ele>
        <time>2024-02-23T12:52:52Z</time>
      </trkpt>
      <trkpt lat="43.77853" lon="3.81219">
        <ele>616</ele>
        <time>2024-02-23T12:52:53Z</time>
      </trkpt>
      <trkpt lat="43.77854" lon="3.81217">
        <ele>616.2</ele>
        <time>2024-02-23T12:52:54Z</time>
      </trkpt>
      <trkpt lat="43.77854" lon="3.81217">
        <ele>616.8</ele>
        <time>2024-02-23T12:52:55Z</time>
      </trkpt>
      <trkpt lat="43.77854" lon="3.81217">
        <ele>617.4</ele>
        <time>2024-02-23T12:52:56Z</time>
      </trkpt>
      <trkpt lat="43.77854" lon="3.81214">
        <ele>617.8</ele>
        <time>2024-02-23T12:52:57Z</time>
      </trkpt>
      <trkpt lat="43.77854" lon="3.81214">
        <ele>618.4</ele>
        <time>2024-02-23T12:52:58Z</time>
      </trkpt>
      <trkpt lat="43.77853" lon="3.81212">
        <ele>618.6</ele>
        <time>2024-02-23T12:52:59Z</time>
      </trkpt>
      <trkpt lat="43.77853" lon="3.81212">
        <ele>618.8</ele>
        <time>2024-02-23T12:53:00Z</time>
      </trkpt>
      <trkpt lat="43.77854" lon="3.81209">
        <ele>619</ele>
        <time>2024-02-23T12:53:01Z</time>
      </trkpt>
      <trkpt lat="43.77854" lon="3.81209">
        <ele>619.2</ele>
        <time>2024-02-23T12:53:02Z</time>
      </trkpt>
      <trkpt lat="43.77854" lon="3.81206">
        <ele>619.2</ele>
        <time>2024-02-23T12:53:03Z</time>
      </trkpt>
      <trkpt lat="43.77854" lon="3.81206">
        <ele>619.4</ele>
        <time>2024-02-23T12:53:04Z</time>
      </trkpt>
      <trkpt lat="43.77854" lon="3.81206">
        <ele>619.6</ele>
        <time>2024-02-23T12:53:05Z</time>
      </trkpt>
      <trkpt lat="43.77854" lon="3.81206">
        <ele>619.8</ele>
        <time>2024-02-23T12:53:06Z</time>
      </trkpt>
      <trkpt lat="43.77854" lon="3.81203">
        <ele>620</ele>
        <time>2024-02-23T12:53:07Z</time>
      </trkpt>
      <trkpt lat="43.77854" lon="3.81203">
        <ele>620.2</ele>
        <time>2024-02-23T12:53:08Z</time>
      </trkpt>
      <trkpt lat="43.77855" lon="3.812">
        <ele>620.4</ele>
        <time>2024-02-23T12:53:09Z</time>
      </trkpt>
      <trkpt lat="43.77855" lon="3.812">
        <ele>620.8</ele>
        <time>2024-02-23T12:53:10Z</time>
      </trkpt>
      <trkpt lat="43.77855" lon="3.812">
        <ele>621.2</ele>
        <time>2024-02-23T12:53:11Z</time>
      </trkpt>
      <trkpt lat="43.77855" lon="3.812">
        <ele>621.4</ele>
        <time>2024-02-23T12:53:12Z</time>
      </trkpt>
      <trkpt lat="43.77855" lon="3.81197">
        <ele>621.6</ele>
        <time>2024-02-23T12:53:13Z</time>
      </trkpt>
      <trkpt lat="43.77855" lon="3.81197">
        <ele>622</ele>
        <time>2024-02-23T12:53:14Z</time>
      </trkpt>
      <trkpt lat="43.77854" lon="3.81194">
        <ele>622.2</ele>
        <time>2024-02-23T12:53:15Z</time>
      </trkpt>
      <trkpt lat="43.77854" lon="3.81194">
        <ele>622.4</ele>
        <time>2024-02-23T12:53:16Z</time>
      </trkpt>
      <trkpt lat="43.77854" lon="3.81192">
        <ele>622.8</ele>
        <time>2024-02-23T12:53:17Z</time>
      </trkpt>
      <trkpt lat="43.77854" lon="3.81192">
        <ele>623</ele>
        <time>2024-02-23T12:53:18Z</time>
      </trkpt>
      <trkpt lat="43.77854" lon="3.81189">
        <ele>623.4</ele>
        <time>2024-02-23T12:53:19Z</time>
      </trkpt>
      <trkpt lat="43.77854" lon="3.81189">
        <ele>623.8</ele>
        <time>2024-02-23T12:53:20Z</time>
      </trkpt>
      <trkpt lat="43.77854" lon="3.81186">
        <ele>624</ele>
        <time>2024-02-23T12:53:21Z</time>
      </trkpt>
      <trkpt lat="43.77854" lon="3.81186">
        <ele>624.4</ele>
        <time>2024-02-23T12:53:22Z</time>
      </trkpt>
      <trkpt lat="43.77854" lon="3.81186">
        <ele>624.6</ele>
        <time>2024-02-23T12:53:23Z</time>
      </trkpt>
      <trkpt lat="43.77854" lon="3.81183">
        <ele>625</ele>
        <time>2024-02-23T12:53:24Z</time>
      </trkpt>
      <trkpt lat="43.77854" lon="3.81183">
        <ele>625.4</ele>
        <time>2024-02-23T12:53:25Z</time>
      </trkpt>
      <trkpt lat="43.77854" lon="3.81183">
        <ele>625.6</ele>
        <time>2024-02-23T12:53:26Z</time>
      </trkpt>
      <trkpt lat="43.77853" lon="3.8118">
        <ele>626</ele>
        <time>2024-02-23T12:53:27Z</time>
      </trkpt>
      <trkpt lat="43.77853" lon="3.8118">
        <ele>626.2</ele>
        <time>2024-02-23T12:53:28Z</time>
      </trkpt>
      <trkpt lat="43.77853" lon="3.81178">
        <ele>626.6</ele>
        <time>2024-02-23T12:53:29Z</time>
      </trkpt>
      <trkpt lat="43.77853" lon="3.81178">
        <ele>627</ele>
        <time>2024-02-23T12:53:30Z</time>
      </trkpt>
      <trkpt lat="43.77853" lon="3.81175">
        <ele>627.2</ele>
        <time>2024-02-23T12:53:31Z</time>
      </trkpt>
      <trkpt lat="43.77853" lon="3.81175">
        <ele>627.4</ele>
        <time>2024-02-23T12:53:32Z</time>
      </trkpt>
      <trkpt lat="43.77853" lon="3.81173">
        <ele>627.8</ele>
        <time>2024-02-23T12:53:33Z</time>
      </trkpt>
      <trkpt lat="43.77853" lon="3.81173">
        <ele>628</ele>
        <time>2024-02-23T12:53:34Z</time>
      </trkpt>
      <trkpt lat="43.77853" lon="3.8117">
        <ele>628.2</ele>
        <time>2024-02-23T12:53:35Z</time>
      </trkpt>
      <trkpt lat="43.77853" lon="3.8117">
        <ele>628.4</ele>
        <time>2024-02-23T12:53:36Z</time>
      </trkpt>
      <trkpt lat="43.77853" lon="3.8117">
        <ele>628.6</ele>
        <time>2024-02-23T12:53:37Z</time>
      </trkpt>
      <trkpt lat="43.77853" lon="3.81165">
        <ele>628.8</ele>
        <time>2024-02-23T12:53:38Z</time>
      </trkpt>
      <trkpt lat="43.77853" lon="3.81165">
        <ele>628.8</ele>
        <time>2024-02-23T12:53:39Z</time>
      </trkpt>
      <trkpt lat="43.77853" lon="3.81162">
        <ele>629</ele>
        <time>2024-02-23T12:53:40Z</time>
      </trkpt>
      <trkpt lat="43.77853" lon="3.81162">
        <ele>629.2</ele>
        <time>2024-02-23T12:53:41Z</time>
      </trkpt>
      <trkpt lat="43.77854" lon="3.8116">
        <ele>629.4</ele>
        <time>2024-02-23T12:53:42Z</time>
      </trkpt>
      <trkpt lat="43.77854" lon="3.8116">
        <ele>629.4</ele>
        <time>2024-02-23T12:53:43Z</time>
      </trkpt>
      <trkpt lat="43.77855" lon="3.81157">
        <ele>629.6</ele>
        <time>2024-02-23T12:53:44Z</time>
      </trkpt>
      <trkpt lat="43.77855" lon="3.81157">
        <ele>629.8</ele>
        <time>2024-02-23T12:53:45Z</time>
      </trkpt>
      <trkpt lat="43.77855" lon="3.81157">
        <ele>629.8</ele>
        <time>2024-02-23T12:53:46Z</time>
      </trkpt>
      <trkpt lat="43.77855" lon="3.81157">
        <ele>630</ele>
        <time>2024-02-23T12:53:47Z</time>
      </trkpt>
      <trkpt lat="43.77855" lon="3.81157">
        <ele>630.2</ele>
        <time>2024-02-23T12:53:48Z</time>
      </trkpt>
      <trkpt lat="43.77855" lon="3.81157">
        <ele>630.6</ele>
        <time>2024-02-23T12:53:49Z</time>
      </trkpt>
      <trkpt lat="43.77855" lon="3.81157">
        <ele>630.8</ele>
        <time>2024-02-23T12:53:50Z</time>
      </trkpt>
      <trkpt lat="43.77855" lon="3.81157">
        <ele>631</ele>
        <time>2024-02-23T12:53:51Z</time>
      </trkpt>
      <trkpt lat="43.77855" lon="3.81157">
        <ele>631.2</ele>
        <time>2024-02-23T12:53:52Z</time>
      </trkpt>
      <trkpt lat="43.77855" lon="3.81157">
        <ele>631.4</ele>
        <time>2024-02-23T12:53:53Z</time>
      </trkpt>
      <trkpt lat="43.77857" lon="3.81159">
        <ele>631.4</ele>
        <time>2024-02-23T12:53:54Z</time>
      </trkpt>
      <trkpt lat="43.77857" lon="3.81159">
        <ele>631.6</ele>
        <time>2024-02-23T12:53:55Z</time>
      </trkpt>
      <trkpt lat="43.77857" lon="3.81159">
        <ele>631.6</ele>
        <time>2024-02-23T12:53:56Z</time>
      </trkpt>
      <trkpt lat="43.77857" lon="3.81159">
        <ele>632</ele>
        <time>2024-02-23T12:53:57Z</time>
      </trkpt>
      <trkpt lat="43.77858" lon="3.81157">
        <ele>632.2</ele>
        <time>2024-02-23T12:53:58Z</time>
      </trkpt>
      <trkpt lat="43.77858" lon="3.81157">
        <ele>632.6</ele>
        <time>2024-02-23T12:53:59Z</time>
      </trkpt>
      <trkpt lat="43.77858" lon="3.81157">
        <ele>632.8</ele>
        <time>2024-02-23T12:54:00Z</time>
      </trkpt>
      <trkpt lat="43.77861" lon="3.81156">
        <ele>633.2</ele>
        <time>2024-02-23T12:54:01Z</time>
      </trkpt>
      <trkpt lat="43.77861" lon="3.81156">
        <ele>633.4</ele>
        <time>2024-02-23T12:54:02Z</time>
      </trkpt>
      <trkpt lat="43.77861" lon="3.81156">
        <ele>633.6</ele>
        <time>2024-02-23T12:54:03Z</time>
      </trkpt>
      <trkpt lat="43.77861" lon="3.81156">
        <ele>633.6</ele>
        <time>2024-02-23T12:54:04Z</time>
      </trkpt>
      <trkpt lat="43.77862" lon="3.81154">
        <ele>633.8</ele>
        <time>2024-02-23T12:54:05Z</time>
      </trkpt>
      <trkpt lat="43.77862" lon="3.81154">
        <ele>634</ele>
        <time>2024-02-23T12:54:06Z</time>
      </trkpt>
      <trkpt lat="43.77862" lon="3.81154">
        <ele>634</ele>
        <time>2024-02-23T12:54:07Z</time>
      </trkpt>
      <trkpt lat="43.77863" lon="3.81151">
        <ele>634.2</ele>
        <time>2024-02-23T12:54:08Z</time>
      </trkpt>
      <trkpt lat="43.77863" lon="3.81151">
        <ele>634.4</ele>
        <time>2024-02-23T12:54:09Z</time>
      </trkpt>
      <trkpt lat="43.77863" lon="3.81151">
        <ele>634.6</ele>
        <time>2024-02-23T12:54:10Z</time>
      </trkpt>
      <trkpt lat="43.77865" lon="3.81149">
        <ele>635</ele>
        <time>2024-02-23T12:54:11Z</time>
      </trkpt>
      <trkpt lat="43.77865" lon="3.81149">
        <ele>635.2</ele>
        <time>2024-02-23T12:54:12Z</time>
      </trkpt>
      <trkpt lat="43.77865" lon="3.81149">
        <ele>635.4</ele>
        <time>2024-02-23T12:54:13Z</time>
      </trkpt>
      <trkpt lat="43.77865" lon="3.81149">
        <ele>635.8</ele>
        <time>2024-02-23T12:54:14Z</time>
      </trkpt>
      <trkpt lat="43.77868" lon="3.8115">
        <ele>636</ele>
        <time>2024-02-23T12:54:15Z</time>
      </trkpt>
      <trkpt lat="43.77869" lon="3.8115">
        <ele>636.4</ele>
        <time>2024-02-23T12:54:16Z</time>
      </trkpt>
      <trkpt lat="43.77869" lon="3.8115">
        <ele>636.6</ele>
        <time>2024-02-23T12:54:17Z</time>
      </trkpt>
      <trkpt lat="43.77869" lon="3.8115">
        <ele>636.6</ele>
        <time>2024-02-23T12:54:18Z</time>
      </trkpt>
      <trkpt lat="43.77871" lon="3.81152">
        <ele>636.8</ele>
        <time>2024-02-23T12:54:19Z</time>
      </trkpt>
      <trkpt lat="43.77871" lon="3.81152">
        <ele>636.8</ele>
        <time>2024-02-23T12:54:20Z</time>
      </trkpt>
      <trkpt lat="43.77871" lon="3.81152">
        <ele>637</ele>
        <time>2024-02-23T12:54:21Z</time>
      </trkpt>
      <trkpt lat="43.77874" lon="3.81152">
        <ele>637</ele>
        <time>2024-02-23T12:54:22Z</time>
      </trkpt>
      <trkpt lat="43.77874" lon="3.81152">
        <ele>637.2</ele>
        <time>2024-02-23T12:54:23Z</time>
      </trkpt>
      <trkpt lat="43.77874" lon="3.81152">
        <ele>637.6</ele>
        <time>2024-02-23T12:54:24Z</time>
      </trkpt>
      <trkpt lat="43.77874" lon="3.81152">
        <ele>637.8</ele>
        <time>2024-02-23T12:54:25Z</time>
      </trkpt>
      <trkpt lat="43.77874" lon="3.81152">
        <ele>638.2</ele>
        <time>2024-02-23T12:54:26Z</time>
      </trkpt>
      <trkpt lat="43.77874" lon="3.81152">
        <ele>638.6</ele>
        <time>2024-02-23T12:54:27Z</time>
      </trkpt>
      <trkpt lat="43.77876" lon="3.81151">
        <ele>639</ele>
        <time>2024-02-23T12:54:28Z</time>
      </trkpt>
      <trkpt lat="43.77876" lon="3.81151">
        <ele>639.6</ele>
        <time>2024-02-23T12:54:29Z</time>
      </trkpt>
      <trkpt lat="43.77876" lon="3.81151">
        <ele>640.2</ele>
        <time>2024-02-23T12:54:30Z</time>
      </trkpt>
      <trkpt lat="43.77877" lon="3.81153">
        <ele>640.8</ele>
        <time>2024-02-23T12:54:31Z</time>
      </trkpt>
      <trkpt lat="43.77877" lon="3.81153">
        <ele>641.2</ele>
        <time>2024-02-23T12:54:32Z</time>
      </trkpt>
      <trkpt lat="43.77879" lon="3.81154">
        <ele>641.8</ele>
        <time>2024-02-23T12:54:33Z</time>
      </trkpt>
      <trkpt lat="43.77879" lon="3.81154">
        <ele>642.2</ele>
        <time>2024-02-23T12:54:34Z</time>
      </trkpt>
      <trkpt lat="43.77882" lon="3.81157">
        <ele>642.4</ele>
        <time>2024-02-23T12:54:35Z</time>
      </trkpt>
      <trkpt lat="43.77882" lon="3.81157">
        <ele>642.4</ele>
        <time>2024-02-23T12:54:36Z</time>
      </trkpt>
      <trkpt lat="43.77883" lon="3.8116">
        <ele>642.4</ele>
        <time>2024-02-23T12:54:37Z</time>
      </trkpt>
      <trkpt lat="43.77883" lon="3.8116">
        <ele>642.4</ele>
        <time>2024-02-23T12:54:38Z</time>
      </trkpt>
      <trkpt lat="43.77883" lon="3.8116">
        <ele>642.6</ele>
        <time>2024-02-23T12:54:39Z</time>
      </trkpt>
      <trkpt lat="43.77883" lon="3.8116">
        <ele>642.6</ele>
        <time>2024-02-23T12:54:40Z</time>
      </trkpt>
      <trkpt lat="43.77883" lon="3.8116">
        <ele>642.8</ele>
        <time>2024-02-23T12:54:41Z</time>
      </trkpt>
      <trkpt lat="43.77883" lon="3.8116">
        <ele>642.8</ele>
        <time>2024-02-23T12:54:42Z</time>
      </trkpt>
      <trkpt lat="43.77883" lon="3.81156">
        <ele>643</ele>
        <time>2024-02-23T12:54:43Z</time>
      </trkpt>
      <trkpt lat="43.77883" lon="3.81156">
        <ele>643.2</ele>
        <time>2024-02-23T12:54:44Z</time>
      </trkpt>
      <trkpt lat="43.77883" lon="3.81153">
        <ele>643.2</ele>
        <time>2024-02-23T12:54:45Z</time>
      </trkpt>
      <trkpt lat="43.77883" lon="3.81153">
        <ele>643.4</ele>
        <time>2024-02-23T12:54:46Z</time>
      </trkpt>
      <trkpt lat="43.77883" lon="3.81153">
        <ele>643.6</ele>
        <time>2024-02-23T12:54:47Z</time>
      </trkpt>
      <trkpt lat="43.77884" lon="3.81151">
        <ele>643.8</ele>
        <time>2024-02-23T12:54:48Z</time>
      </trkpt>
      <trkpt lat="43.77884" lon="3.81151">
        <ele>644</ele>
        <time>2024-02-23T12:54:49Z</time>
      </trkpt>
      <trkpt lat="43.77884" lon="3.81151">
        <ele>644.4</ele>
        <time>2024-02-23T12:54:50Z</time>
      </trkpt>
      <trkpt lat="43.77886" lon="3.81149">
        <ele>644.8</ele>
        <time>2024-02-23T12:54:51Z</time>
      </trkpt>
      <trkpt lat="43.77886" lon="3.81149">
        <ele>645.2</ele>
        <time>2024-02-23T12:54:52Z</time>
      </trkpt>
      <trkpt lat="43.77886" lon="3.81149">
        <ele>645.4</ele>
        <time>2024-02-23T12:54:53Z</time>
      </trkpt>
      <trkpt lat="43.77887" lon="3.81147">
        <ele>645.8</ele>
        <time>2024-02-23T12:54:54Z</time>
      </trkpt>
      <trkpt lat="43.77887" lon="3.81147">
        <ele>646</ele>
        <time>2024-02-23T12:54:55Z</time>
      </trkpt>
      <trkpt lat="43.77887" lon="3.81147">
        <ele>646.2</ele>
        <time>2024-02-23T12:54:56Z</time>
      </trkpt>
      <trkpt lat="43.77889" lon="3.81145">
        <ele>646.6</ele>
        <time>2024-02-23T12:54:57Z</time>
      </trkpt>
      <trkpt lat="43.77889" lon="3.81142">
        <ele>646.6</ele>
        <time>2024-02-23T12:54:58Z</time>
      </trkpt>
      <trkpt lat="43.77889" lon="3.81142">
        <ele>646.8</ele>
        <time>2024-02-23T12:54:59Z</time>
      </trkpt>
      <trkpt lat="43.77889" lon="3.81139">
        <ele>646.8</ele>
        <time>2024-02-23T12:55:00Z</time>
      </trkpt>
      <trkpt lat="43.77889" lon="3.81139">
        <ele>647</ele>
        <time>2024-02-23T12:55:01Z</time>
      </trkpt>
      <trkpt lat="43.77889" lon="3.81139">
        <ele>647</ele>
        <time>2024-02-23T12:55:02Z</time>
      </trkpt>
      <trkpt lat="43.7789" lon="3.81137">
        <ele>647.2</ele>
        <time>2024-02-23T12:55:03Z</time>
      </trkpt>
      <trkpt lat="43.7789" lon="3.81137">
        <ele>647.8</ele>
        <time>2024-02-23T12:55:04Z</time>
      </trkpt>
      <trkpt lat="43.77892" lon="3.81135">
        <ele>648.2</ele>
        <time>2024-02-23T12:55:05Z</time>
      </trkpt>
      <trkpt lat="43.77892" lon="3.81135">
        <ele>648.6</ele>
        <time>2024-02-23T12:55:06Z</time>
      </trkpt>
      <trkpt lat="43.77894" lon="3.81135">
        <ele>649.2</ele>
        <time>2024-02-23T12:55:07Z</time>
      </trkpt>
      <trkpt lat="43.77894" lon="3.81135">
        <ele>649.8</ele>
        <time>2024-02-23T12:55:08Z</time>
      </trkpt>
      <trkpt lat="43.77896" lon="3.81135">
        <ele>650.2</ele>
        <time>2024-02-23T12:55:09Z</time>
      </trkpt>
      <trkpt lat="43.77896" lon="3.81135">
        <ele>650.6</ele>
        <time>2024-02-23T12:55:10Z</time>
      </trkpt>
      <trkpt lat="43.77896" lon="3.81135">
        <ele>650.6</ele>
        <time>2024-02-23T12:56:15Z</time>
      </trkpt>
      <trkpt lat="43.77896" lon="3.81135">
        <ele>653.4</ele>
        <time>2024-02-23T12:56:16Z</time>
      </trkpt>
      <trkpt lat="43.77896" lon="3.81135">
        <ele>653.8</ele>
        <time>2024-02-23T12:56:17Z</time>
      </trkpt>
      <trkpt lat="43.77896" lon="3.81135">
        <ele>653.8</ele>
        <time>2024-02-23T12:56:18Z</time>
      </trkpt>
      <trkpt lat="43.77896" lon="3.81135">
        <ele>653.6</ele>
        <time>2024-02-23T12:56:19Z</time>
      </trkpt>
      <trkpt lat="43.77896" lon="3.81135">
        <ele>653.2</ele>
        <time>2024-02-23T12:56:20Z</time>
      </trkpt>
      <trkpt lat="43.77899" lon="3.81132">
        <ele>652.8</ele>
        <time>2024-02-23T12:56:21Z</time>
      </trkpt>
      <trkpt lat="43.77899" lon="3.81132">
        <ele>652.6</ele>
        <time>2024-02-23T12:56:22Z</time>
      </trkpt>
      <trkpt lat="43.77898" lon="3.81129">
        <ele>652.6</ele>
        <time>2024-02-23T12:56:23Z</time>
      </trkpt>
      <trkpt lat="43.77898" lon="3.81129">
        <ele>652.8</ele>
        <time>2024-02-23T12:56:24Z</time>
      </trkpt>
      <trkpt lat="43.77898" lon="3.81129">
        <ele>653</ele>
        <time>2024-02-23T12:56:25Z</time>
      </trkpt>
      <trkpt lat="43.77896" lon="3.81126">
        <ele>653.2</ele>
        <time>2024-02-23T12:56:26Z</time>
      </trkpt>
      <trkpt lat="43.77896" lon="3.81126">
        <ele>654.2</ele>
        <time>2024-02-23T12:56:27Z</time>
      </trkpt>
      <trkpt lat="43.77893" lon="3.81124">
        <ele>654.4</ele>
        <time>2024-02-23T12:56:28Z</time>
      </trkpt>
      <trkpt lat="43.77893" lon="3.81124">
        <ele>653.2</ele>
        <time>2024-02-23T12:56:29Z</time>
      </trkpt>
      <trkpt lat="43.77893" lon="3.81124">
        <ele>653</ele>
        <time>2024-02-23T12:56:30Z</time>
      </trkpt>
      <trkpt lat="43.77892" lon="3.81121">
        <ele>653.6</ele>
        <time>2024-02-23T12:56:31Z</time>
      </trkpt>
      <trkpt lat="43.77892" lon="3.81121">
        <ele>654.4</ele>
        <time>2024-02-23T12:56:32Z</time>
      </trkpt>
      <trkpt lat="43.77891" lon="3.81117">
        <ele>654.8</ele>
        <time>2024-02-23T12:56:33Z</time>
      </trkpt>
      <trkpt lat="43.77891" lon="3.81117">
        <ele>655</ele>
        <time>2024-02-23T12:56:34Z</time>
      </trkpt>
      <trkpt lat="43.77889" lon="3.81115">
        <ele>655</ele>
        <time>2024-02-23T12:56:35Z</time>
      </trkpt>
      <trkpt lat="43.77889" lon="3.81115">
        <ele>654.8</ele>
        <time>2024-02-23T12:56:36Z</time>
      </trkpt>
      <trkpt lat="43.77887" lon="3.81112">
        <ele>654.6</ele>
        <time>2024-02-23T12:56:37Z</time>
      </trkpt>
      <trkpt lat="43.77887" lon="3.81112">
        <ele>654.4</ele>
        <time>2024-02-23T12:56:38Z</time>
      </trkpt>
      <trkpt lat="43.77887" lon="3.81109">
        <ele>654.4</ele>
        <time>2024-02-23T12:56:39Z</time>
      </trkpt>
      <trkpt lat="43.77887" lon="3.81109">
        <ele>654.2</ele>
        <time>2024-02-23T12:56:40Z</time>
      </trkpt>
      <trkpt lat="43.77886" lon="3.81106">
        <ele>653.6</ele>
        <time>2024-02-23T12:56:41Z</time>
      </trkpt>
      <trkpt lat="43.77886" lon="3.81106">
        <ele>653</ele>
        <time>2024-02-23T12:56:42Z</time>
      </trkpt>
      <trkpt lat="43.77884" lon="3.81104">
        <ele>652.4</ele>
        <time>2024-02-23T12:56:43Z</time>
      </trkpt>
      <trkpt lat="43.77884" lon="3.81104">
        <ele>651.6</ele>
        <time>2024-02-23T12:56:44Z</time>
      </trkpt>
      <trkpt lat="43.77884" lon="3.81104">
        <ele>650.8</ele>
        <time>2024-02-23T12:56:45Z</time>
      </trkpt>
      <trkpt lat="43.77884" lon="3.81104">
        <ele>650.2</ele>
        <time>2024-02-23T12:56:46Z</time>
      </trkpt>
      <trkpt lat="43.77884" lon="3.81104">
        <ele>649.8</ele>
        <time>2024-02-23T12:56:47Z</time>
      </trkpt>
      <trkpt lat="43.77882" lon="3.81106">
        <ele>649.6</ele>
        <time>2024-02-23T12:56:48Z</time>
      </trkpt>
      <trkpt lat="43.77882" lon="3.81106">
        <ele>649.2</ele>
        <time>2024-02-23T12:56:49Z</time>
      </trkpt>
      <trkpt lat="43.77879" lon="3.81105">
        <ele>648.8</ele>
        <time>2024-02-23T12:56:50Z</time>
      </trkpt>
      <trkpt lat="43.77879" lon="3.81105">
        <ele>648.2</ele>
        <time>2024-02-23T12:56:51Z</time>
      </trkpt>
      <trkpt lat="43.77878" lon="3.811">
        <ele>647.6</ele>
        <time>2024-02-23T12:56:52Z</time>
      </trkpt>
      <trkpt lat="43.77878" lon="3.81097">
        <ele>647.2</ele>
        <time>2024-02-23T12:56:53Z</time>
      </trkpt>
      <trkpt lat="43.77878" lon="3.81097">
        <ele>646.8</ele>
        <time>2024-02-23T12:56:54Z</time>
      </trkpt>
      <trkpt lat="43.77878" lon="3.81097">
        <ele>646.4</ele>
        <time>2024-02-23T12:56:55Z</time>
      </trkpt>
      <trkpt lat="43.77878" lon="3.81097">
        <ele>646.2</ele>
        <time>2024-02-23T12:56:56Z</time>
      </trkpt>
      <trkpt lat="43.77878" lon="3.81097">
        <ele>646</ele>
        <time>2024-02-23T12:56:57Z</time>
      </trkpt>
      <trkpt lat="43.77878" lon="3.81097">
        <ele>645.8</ele>
        <time>2024-02-23T12:56:58Z</time>
      </trkpt>
      <trkpt lat="43.77878" lon="3.81097">
        <ele>645.8</ele>
        <time>2024-02-23T12:56:59Z</time>
      </trkpt>
      <trkpt lat="43.77879" lon="3.81096">
        <ele>645.6</ele>
        <time>2024-02-23T12:57:00Z</time>
      </trkpt>
      <trkpt lat="43.77879" lon="3.81096">
        <ele>645.4</ele>
        <time>2024-02-23T12:57:01Z</time>
      </trkpt>
      <trkpt lat="43.77879" lon="3.81093">
        <ele>645.2</ele>
        <time>2024-02-23T12:57:02Z</time>
      </trkpt>
      <trkpt lat="43.77879" lon="3.81093">
        <ele>645.4</ele>
        <time>2024-02-23T12:57:03Z</time>
      </trkpt>
      <trkpt lat="43.77879" lon="3.81093">
        <ele>645.6</ele>
        <time>2024-02-23T12:57:04Z</time>
      </trkpt>
      <trkpt lat="43.77879" lon="3.81093">
        <ele>645.6</ele>
        <time>2024-02-23T12:57:05Z</time>
      </trkpt>
      <trkpt lat="43.77879" lon="3.81093">
        <ele>645.4</ele>
        <time>2024-02-23T12:57:06Z</time>
      </trkpt>
      <trkpt lat="43.77879" lon="3.81093">
        <ele>645.4</ele>
        <time>2024-02-23T12:57:07Z</time>
      </trkpt>
      <trkpt lat="43.7788" lon="3.8109">
        <ele>645.2</ele>
        <time>2024-02-23T12:57:08Z</time>
      </trkpt>
      <trkpt lat="43.7788" lon="3.8109">
        <ele>644.8</ele>
        <time>2024-02-23T12:57:09Z</time>
      </trkpt>
      <trkpt lat="43.7788" lon="3.8109">
        <ele>644.6</ele>
        <time>2024-02-23T12:57:10Z</time>
      </trkpt>
      <trkpt lat="43.7788" lon="3.81087">
        <ele>644.2</ele>
        <time>2024-02-23T12:57:11Z</time>
      </trkpt>
      <trkpt lat="43.7788" lon="3.81087">
        <ele>644</ele>
        <time>2024-02-23T12:57:12Z</time>
      </trkpt>
      <trkpt lat="43.7788" lon="3.81084">
        <ele>643.6</ele>
        <time>2024-02-23T12:57:13Z</time>
      </trkpt>
      <trkpt lat="43.7788" lon="3.81084">
        <ele>643.2</ele>
        <time>2024-02-23T12:57:14Z</time>
      </trkpt>
      <trkpt lat="43.7788" lon="3.81081">
        <ele>643</ele>
        <time>2024-02-23T12:57:15Z</time>
      </trkpt>
      <trkpt lat="43.7788" lon="3.81081">
        <ele>642.6</ele>
        <time>2024-02-23T12:57:16Z</time>
      </trkpt>
      <trkpt lat="43.77879" lon="3.81079">
        <ele>642.2</ele>
        <time>2024-02-23T12:57:17Z</time>
      </trkpt>
      <trkpt lat="43.77879" lon="3.81079">
        <ele>642</ele>
        <time>2024-02-23T12:57:18Z</time>
      </trkpt>
      <trkpt lat="43.77878" lon="3.81075">
        <ele>641.8</ele>
        <time>2024-02-23T12:57:19Z</time>
      </trkpt>
      <trkpt lat="43.77878" lon="3.81075">
        <ele>641.8</ele>
        <time>2024-02-23T12:57:20Z</time>
      </trkpt>
      <trkpt lat="43.77878" lon="3.81073">
        <ele>641.6</ele>
        <time>2024-02-23T12:57:21Z</time>
      </trkpt>
      <trkpt lat="43.77878" lon="3.81073">
        <ele>641.4</ele>
        <time>2024-02-23T12:57:22Z</time>
      </trkpt>
      <trkpt lat="43.77876" lon="3.8107">
        <ele>640.8</ele>
        <time>2024-02-23T12:57:23Z</time>
      </trkpt>
      <trkpt lat="43.77876" lon="3.8107">
        <ele>640.4</ele>
        <time>2024-02-23T12:57:24Z</time>
      </trkpt>
      <trkpt lat="43.77875" lon="3.81067">
        <ele>639.8</ele>
        <time>2024-02-23T12:57:25Z</time>
      </trkpt>
      <trkpt lat="43.77875" lon="3.81067">
        <ele>639</ele>
        <time>2024-02-23T12:57:26Z</time>
      </trkpt>
      <trkpt lat="43.77874" lon="3.81064">
        <ele>638.2</ele>
        <time>2024-02-23T12:57:27Z</time>
      </trkpt>
      <trkpt lat="43.77874" lon="3.81064">
        <ele>637.8</ele>
        <time>2024-02-23T12:57:28Z</time>
      </trkpt>
      <trkpt lat="43.77871" lon="3.81062">
        <ele>637.6</ele>
        <time>2024-02-23T12:57:29Z</time>
      </trkpt>
      <trkpt lat="43.77871" lon="3.81062">
        <ele>637.2</ele>
        <time>2024-02-23T12:57:30Z</time>
      </trkpt>
      <trkpt lat="43.7787" lon="3.8106">
        <ele>636.8</ele>
        <time>2024-02-23T12:57:31Z</time>
      </trkpt>
      <trkpt lat="43.7787" lon="3.8106">
        <ele>636.6</ele>
        <time>2024-02-23T12:57:32Z</time>
      </trkpt>
      <trkpt lat="43.7787" lon="3.8106">
        <ele>636.2</ele>
        <time>2024-02-23T12:57:33Z</time>
      </trkpt>
      <trkpt lat="43.77869" lon="3.81057">
        <ele>635.8</ele>
        <time>2024-02-23T12:57:34Z</time>
      </trkpt>
      <trkpt lat="43.77869" lon="3.81057">
        <ele>635.2</ele>
        <time>2024-02-23T12:57:35Z</time>
      </trkpt>
      <trkpt lat="43.77869" lon="3.81057">
        <ele>634.8</ele>
        <time>2024-02-23T12:57:36Z</time>
      </trkpt>
      <trkpt lat="43.77868" lon="3.81054">
        <ele>634.4</ele>
        <time>2024-02-23T12:57:37Z</time>
      </trkpt>
      <trkpt lat="43.77868" lon="3.81054">
        <ele>633.8</ele>
        <time>2024-02-23T12:57:38Z</time>
      </trkpt>
      <trkpt lat="43.77868" lon="3.81054">
        <ele>633.2</ele>
        <time>2024-02-23T12:57:39Z</time>
      </trkpt>
      <trkpt lat="43.77868" lon="3.81054">
        <ele>632.6</ele>
        <time>2024-02-23T12:57:40Z</time>
      </trkpt>
      <trkpt lat="43.77866" lon="3.81052">
        <ele>632</ele>
        <time>2024-02-23T12:57:41Z</time>
      </trkpt>
      <trkpt lat="43.77866" lon="3.81052">
        <ele>631.4</ele>
        <time>2024-02-23T12:57:42Z</time>
      </trkpt>
      <trkpt lat="43.77866" lon="3.81052">
        <ele>630.8</ele>
        <time>2024-02-23T12:57:43Z</time>
      </trkpt>
      <trkpt lat="43.77864" lon="3.8105">
        <ele>630.2</ele>
        <time>2024-02-23T12:57:44Z</time>
      </trkpt>
      <trkpt lat="43.77864" lon="3.8105">
        <ele>629.6</ele>
        <time>2024-02-23T12:57:45Z</time>
      </trkpt>
      <trkpt lat="43.77864" lon="3.8105">
        <ele>628.8</ele>
        <time>2024-02-23T12:57:46Z</time>
      </trkpt>
      <trkpt lat="43.77863" lon="3.81047">
        <ele>628.2</ele>
        <time>2024-02-23T12:57:47Z</time>
      </trkpt>
      <trkpt lat="43.77863" lon="3.81047">
        <ele>627.6</ele>
        <time>2024-02-23T12:57:48Z</time>
      </trkpt>
      <trkpt lat="43.77863" lon="3.81047">
        <ele>627.2</ele>
        <time>2024-02-23T12:57:49Z</time>
      </trkpt>
      <trkpt lat="43.77862" lon="3.81045">
        <ele>626.6</ele>
        <time>2024-02-23T12:57:50Z</time>
      </trkpt>
      <trkpt lat="43.77862" lon="3.81045">
        <ele>626</ele>
        <time>2024-02-23T12:57:51Z</time>
      </trkpt>
      <trkpt lat="43.77862" lon="3.81045">
        <ele>625.6</ele>
        <time>2024-02-23T12:57:52Z</time>
      </trkpt>
      <trkpt lat="43.77861" lon="3.81041">
        <ele>625</ele>
        <time>2024-02-23T12:57:53Z</time>
      </trkpt>
      <trkpt lat="43.77861" lon="3.81041">
        <ele>624.6</ele>
        <time>2024-02-23T12:57:54Z</time>
      </trkpt>
      <trkpt lat="43.7786" lon="3.8104">
        <ele>624</ele>
        <time>2024-02-23T12:57:55Z</time>
      </trkpt>
      <trkpt lat="43.7786" lon="3.8104">
        <ele>623.6</ele>
        <time>2024-02-23T12:57:56Z</time>
      </trkpt>
      <trkpt lat="43.77858" lon="3.81037">
        <ele>623</ele>
        <time>2024-02-23T12:57:57Z</time>
      </trkpt>
      <trkpt lat="43.77858" lon="3.81037">
        <ele>622.4</ele>
        <time>2024-02-23T12:57:58Z</time>
      </trkpt>
      <trkpt lat="43.77856" lon="3.81035">
        <ele>621.8</ele>
        <time>2024-02-23T12:57:59Z</time>
      </trkpt>
      <trkpt lat="43.77856" lon="3.81035">
        <ele>621.4</ele>
        <time>2024-02-23T12:58:00Z</time>
      </trkpt>
      <trkpt lat="43.77855" lon="3.81032">
        <ele>620.8</ele>
        <time>2024-02-23T12:58:01Z</time>
      </trkpt>
      <trkpt lat="43.77855" lon="3.81032">
        <ele>620.6</ele>
        <time>2024-02-23T12:58:02Z</time>
      </trkpt>
      <trkpt lat="43.77855" lon="3.81032">
        <ele>620.4</ele>
        <time>2024-02-23T12:58:03Z</time>
      </trkpt>
      <trkpt lat="43.77855" lon="3.81032">
        <ele>619.8</ele>
        <time>2024-02-23T12:58:04Z</time>
      </trkpt>
      <trkpt lat="43.77854" lon="3.8103">
        <ele>619.4</ele>
        <time>2024-02-23T12:58:05Z</time>
      </trkpt>
      <trkpt lat="43.77854" lon="3.8103">
        <ele>619</ele>
        <time>2024-02-23T12:58:06Z</time>
      </trkpt>
      <trkpt lat="43.77854" lon="3.8103">
        <ele>618.6</ele>
        <time>2024-02-23T12:58:07Z</time>
      </trkpt>
      <trkpt lat="43.77854" lon="3.8103">
        <ele>618.2</ele>
        <time>2024-02-23T12:58:08Z</time>
      </trkpt>
      <trkpt lat="43.77853" lon="3.81026">
        <ele>617.8</ele>
        <time>2024-02-23T12:58:09Z</time>
      </trkpt>
      <trkpt lat="43.77853" lon="3.81026">
        <ele>617.4</ele>
        <time>2024-02-23T12:58:10Z</time>
      </trkpt>
      <trkpt lat="43.77853" lon="3.81022">
        <ele>617.2</ele>
        <time>2024-02-23T12:58:11Z</time>
      </trkpt>
      <trkpt lat="43.77853" lon="3.81022">
        <ele>617.2</ele>
        <time>2024-02-23T12:58:12Z</time>
      </trkpt>
      <trkpt lat="43.77853" lon="3.8102">
        <ele>617</ele>
        <time>2024-02-23T12:58:13Z</time>
      </trkpt>
      <trkpt lat="43.77853" lon="3.8102">
        <ele>617</ele>
        <time>2024-02-23T12:58:14Z</time>
      </trkpt>
      <trkpt lat="43.77853" lon="3.81017">
        <ele>617</ele>
        <time>2024-02-23T12:58:15Z</time>
      </trkpt>
      <trkpt lat="43.77853" lon="3.81017">
        <ele>616.6</ele>
        <time>2024-02-23T12:58:16Z</time>
      </trkpt>
      <trkpt lat="43.77853" lon="3.81013">
        <ele>616.4</ele>
        <time>2024-02-23T12:58:17Z</time>
      </trkpt>
      <trkpt lat="43.77853" lon="3.81013">
        <ele>616</ele>
        <time>2024-02-23T12:58:18Z</time>
      </trkpt>
      <trkpt lat="43.77853" lon="3.81013">
        <ele>615.8</ele>
        <time>2024-02-23T12:58:19Z</time>
      </trkpt>
      <trkpt lat="43.77854" lon="3.8101">
        <ele>615.4</ele>
        <time>2024-02-23T12:58:20Z</time>
      </trkpt>
      <trkpt lat="43.77854" lon="3.8101">
        <ele>615.2</ele>
        <time>2024-02-23T12:58:21Z</time>
      </trkpt>
      <trkpt lat="43.77854" lon="3.81007">
        <ele>615.2</ele>
        <time>2024-02-23T12:58:22Z</time>
      </trkpt>
      <trkpt lat="43.77854" lon="3.81007">
        <ele>615.2</ele>
        <time>2024-02-23T12:58:23Z</time>
      </trkpt>
      <trkpt lat="43.77854" lon="3.81003">
        <ele>615.6</ele>
        <time>2024-02-23T12:58:24Z</time>
      </trkpt>
      <trkpt lat="43.77854" lon="3.81003">
        <ele>616</ele>
        <time>2024-02-23T12:58:25Z</time>
      </trkpt>
      <trkpt lat="43.77854" lon="3.81">
        <ele>616.2</ele>
        <time>2024-02-23T12:58:26Z</time>
      </trkpt>
      <trkpt lat="43.77855" lon="3.80998">
        <ele>616.2</ele>
        <time>2024-02-23T12:58:27Z</time>
      </trkpt>
      <trkpt lat="43.77855" lon="3.80998">
        <ele>616.2</ele>
        <time>2024-02-23T12:58:28Z</time>
      </trkpt>
      <trkpt lat="43.77856" lon="3.80994">
        <ele>616.2</ele>
        <time>2024-02-23T12:58:29Z</time>
      </trkpt>
      <trkpt lat="43.77856" lon="3.80994">
        <ele>616.4</ele>
        <time>2024-02-23T12:58:30Z</time>
      </trkpt>
      <trkpt lat="43.77857" lon="3.80991">
        <ele>616.8</ele>
        <time>2024-02-23T12:58:31Z</time>
      </trkpt>
      <trkpt lat="43.77857" lon="3.80991">
        <ele>617.4</ele>
        <time>2024-02-23T12:58:32Z</time>
      </trkpt>
      <trkpt lat="43.77858" lon="3.80988">
        <ele>618.4</ele>
        <time>2024-02-23T12:58:33Z</time>
      </trkpt>
      <trkpt lat="43.77858" lon="3.80988">
        <ele>618.8</ele>
        <time>2024-02-23T12:58:34Z</time>
      </trkpt>
      <trkpt lat="43.77859" lon="3.80986">
        <ele>619.2</ele>
        <time>2024-02-23T12:58:35Z</time>
      </trkpt>
      <trkpt lat="43.77859" lon="3.80986">
        <ele>619.2</ele>
        <time>2024-02-23T12:58:36Z</time>
      </trkpt>
      <trkpt lat="43.7786" lon="3.80983">
        <ele>619.6</ele>
        <time>2024-02-23T12:58:37Z</time>
      </trkpt>
      <trkpt lat="43.7786" lon="3.80983">
        <ele>619.8</ele>
        <time>2024-02-23T12:58:38Z</time>
      </trkpt>
      <trkpt lat="43.7786" lon="3.8098">
        <ele>620</ele>
        <time>2024-02-23T12:58:39Z</time>
      </trkpt>
      <trkpt lat="43.7786" lon="3.8098">
        <ele>620</ele>
        <time>2024-02-23T12:58:40Z</time>
      </trkpt>
      <trkpt lat="43.77858" lon="3.80977">
        <ele>620</ele>
        <time>2024-02-23T12:58:41Z</time>
      </trkpt>
      <trkpt lat="43.77859" lon="3.80975">
        <ele>620.2</ele>
        <time>2024-02-23T12:58:42Z</time>
      </trkpt>
      <trkpt lat="43.77859" lon="3.80975">
        <ele>620.4</ele>
        <time>2024-02-23T12:58:43Z</time>
      </trkpt>
      <trkpt lat="43.77859" lon="3.80975">
        <ele>620.6</ele>
        <time>2024-02-23T12:58:44Z</time>
      </trkpt>
      <trkpt lat="43.7786" lon="3.80971">
        <ele>620.8</ele>
        <time>2024-02-23T12:58:45Z</time>
      </trkpt>
      <trkpt lat="43.7786" lon="3.80971">
        <ele>620.8</ele>
        <time>2024-02-23T12:58:46Z</time>
      </trkpt>
      <trkpt lat="43.7786" lon="3.80971">
        <ele>621</ele>
        <time>2024-02-23T12:58:47Z</time>
      </trkpt>
      <trkpt lat="43.7786" lon="3.80969">
        <ele>621.2</ele>
        <time>2024-02-23T12:58:48Z</time>
      </trkpt>
      <trkpt lat="43.7786" lon="3.80969">
        <ele>621.4</ele>
        <time>2024-02-23T12:58:49Z</time>
      </trkpt>
      <trkpt lat="43.77861" lon="3.80966">
        <ele>621.6</ele>
        <time>2024-02-23T12:58:50Z</time>
      </trkpt>
      <trkpt lat="43.77861" lon="3.80966">
        <ele>621.6</ele>
        <time>2024-02-23T12:58:51Z</time>
      </trkpt>
      <trkpt lat="43.77861" lon="3.80966">
        <ele>621.8</ele>
        <time>2024-02-23T12:58:52Z</time>
      </trkpt>
      <trkpt lat="43.77861" lon="3.80963">
        <ele>622</ele>
        <time>2024-02-23T12:58:53Z</time>
      </trkpt>
      <trkpt lat="43.77861" lon="3.80963">
        <ele>622.4</ele>
        <time>2024-02-23T12:58:54Z</time>
      </trkpt>
      <trkpt lat="43.77861" lon="3.8096">
        <ele>622.6</ele>
        <time>2024-02-23T12:58:55Z</time>
      </trkpt>
      <trkpt lat="43.77861" lon="3.8096">
        <ele>622.8</ele>
        <time>2024-02-23T12:58:56Z</time>
      </trkpt>
      <trkpt lat="43.77861" lon="3.8096">
        <ele>623.2</ele>
        <time>2024-02-23T12:58:57Z</time>
      </trkpt>
      <trkpt lat="43.77863" lon="3.80957">
        <ele>623.6</ele>
        <time>2024-02-23T12:58:58Z</time>
      </trkpt>
      <trkpt lat="43.77863" lon="3.80957">
        <ele>624</ele>
        <time>2024-02-23T12:58:59Z</time>
      </trkpt>
      <trkpt lat="43.77863" lon="3.80957">
        <ele>624.4</ele>
        <time>2024-02-23T12:59:00Z</time>
      </trkpt>
      <trkpt lat="43.77863" lon="3.80957">
        <ele>624.4</ele>
        <time>2024-02-23T12:59:01Z</time>
      </trkpt>
      <trkpt lat="43.77863" lon="3.80954">
        <ele>624.6</ele>
        <time>2024-02-23T12:59:02Z</time>
      </trkpt>
      <trkpt lat="43.77863" lon="3.80954">
        <ele>624.4</ele>
        <time>2024-02-23T12:59:03Z</time>
      </trkpt>
      <trkpt lat="43.77862" lon="3.80952">
        <ele>624.2</ele>
        <time>2024-02-23T12:59:04Z</time>
      </trkpt>
      <trkpt lat="43.77862" lon="3.80952">
        <ele>624</ele>
        <time>2024-02-23T12:59:05Z</time>
      </trkpt>
      <trkpt lat="43.77862" lon="3.80952">
        <ele>624</ele>
        <time>2024-02-23T12:59:06Z</time>
      </trkpt>
      <trkpt lat="43.77861" lon="3.80948">
        <ele>624.2</ele>
        <time>2024-02-23T12:59:07Z</time>
      </trkpt>
      <trkpt lat="43.77861" lon="3.80948">
        <ele>624.4</ele>
        <time>2024-02-23T12:59:08Z</time>
      </trkpt>
      <trkpt lat="43.77862" lon="3.80944">
        <ele>624.6</ele>
        <time>2024-02-23T12:59:09Z</time>
      </trkpt>
      <trkpt lat="43.77862" lon="3.80944">
        <ele>624.4</ele>
        <time>2024-02-23T12:59:10Z</time>
      </trkpt>
      <trkpt lat="43.77863" lon="3.80942">
        <ele>624.2</ele>
        <time>2024-02-23T12:59:11Z</time>
      </trkpt>
      <trkpt lat="43.77863" lon="3.80942">
        <ele>624.2</ele>
        <time>2024-02-23T12:59:12Z</time>
      </trkpt>
      <trkpt lat="43.77866" lon="3.8094">
        <ele>624.4</ele>
        <time>2024-02-23T12:59:13Z</time>
      </trkpt>
      <trkpt lat="43.77866" lon="3.8094">
        <ele>624.4</ele>
        <time>2024-02-23T12:59:14Z</time>
      </trkpt>
      <trkpt lat="43.77869" lon="3.80938">
        <ele>624.4</ele>
        <time>2024-02-23T12:59:15Z</time>
      </trkpt>
      <trkpt lat="43.7787" lon="3.80936">
        <ele>624.4</ele>
        <time>2024-02-23T12:59:16Z</time>
      </trkpt>
      <trkpt lat="43.77872" lon="3.80935">
        <ele>624.4</ele>
        <time>2024-02-23T12:59:17Z</time>
      </trkpt>
      <trkpt lat="43.77874" lon="3.80933">
        <ele>624.6</ele>
        <time>2024-02-23T12:59:18Z</time>
      </trkpt>
      <trkpt lat="43.77874" lon="3.80931">
        <ele>624.8</ele>
        <time>2024-02-23T12:59:19Z</time>
      </trkpt>
      <trkpt lat="43.77874" lon="3.80931">
        <ele>625</ele>
        <time>2024-02-23T12:59:20Z</time>
      </trkpt>
      <trkpt lat="43.77873" lon="3.80926">
        <ele>625.2</ele>
        <time>2024-02-23T12:59:21Z</time>
      </trkpt>
      <trkpt lat="43.77872" lon="3.80922">
        <ele>625</ele>
        <time>2024-02-23T12:59:22Z</time>
      </trkpt>
      <trkpt lat="43.77873" lon="3.80919">
        <ele>625</ele>
        <time>2024-02-23T12:59:23Z</time>
      </trkpt>
      <trkpt lat="43.77874" lon="3.80916">
        <ele>624.8</ele>
        <time>2024-02-23T12:59:24Z</time>
      </trkpt>
      <trkpt lat="43.77874" lon="3.80913">
        <ele>625</ele>
        <time>2024-02-23T12:59:25Z</time>
      </trkpt>
      <trkpt lat="43.77875" lon="3.8091">
        <ele>625.2</ele>
        <time>2024-02-23T12:59:26Z</time>
      </trkpt>
      <trkpt lat="43.77875" lon="3.8091">
        <ele>625.4</ele>
        <time>2024-02-23T12:59:27Z</time>
      </trkpt>
      <trkpt lat="43.77874" lon="3.80907">
        <ele>625.6</ele>
        <time>2024-02-23T12:59:28Z</time>
      </trkpt>
      <trkpt lat="43.77874" lon="3.80907">
        <ele>625.8</ele>
        <time>2024-02-23T12:59:29Z</time>
      </trkpt>
      <trkpt lat="43.77873" lon="3.80904">
        <ele>625.8</ele>
        <time>2024-02-23T12:59:30Z</time>
      </trkpt>
      <trkpt lat="43.77873" lon="3.80904">
        <ele>625.8</ele>
        <time>2024-02-23T12:59:31Z</time>
      </trkpt>
      <trkpt lat="43.77873" lon="3.80904">
        <ele>625.8</ele>
        <time>2024-02-23T12:59:32Z</time>
      </trkpt>
      <trkpt lat="43.77873" lon="3.80901">
        <ele>625.4</ele>
        <time>2024-02-23T12:59:33Z</time>
      </trkpt>
      <trkpt lat="43.77873" lon="3.80901">
        <ele>625</ele>
        <time>2024-02-23T12:59:34Z</time>
      </trkpt>
      <trkpt lat="43.77873" lon="3.80901">
        <ele>624.6</ele>
        <time>2024-02-23T12:59:35Z</time>
      </trkpt>
      <trkpt lat="43.77873" lon="3.80901">
        <ele>624.2</ele>
        <time>2024-02-23T12:59:36Z</time>
      </trkpt>
      <trkpt lat="43.77873" lon="3.80901">
        <ele>623.8</ele>
        <time>2024-02-23T12:59:37Z</time>
      </trkpt>
      <trkpt lat="43.77873" lon="3.80898">
        <ele>623.6</ele>
        <time>2024-02-23T12:59:38Z</time>
      </trkpt>
      <trkpt lat="43.77873" lon="3.80898">
        <ele>623.4</ele>
        <time>2024-02-23T12:59:39Z</time>
      </trkpt>
      <trkpt lat="43.77873" lon="3.80898">
        <ele>623</ele>
        <time>2024-02-23T12:59:40Z</time>
      </trkpt>
      <trkpt lat="43.77873" lon="3.80898">
        <ele>622.6</ele>
        <time>2024-02-23T12:59:41Z</time>
      </trkpt>
      <trkpt lat="43.77873" lon="3.80898">
        <ele>622.2</ele>
        <time>2024-02-23T12:59:42Z</time>
      </trkpt>
      <trkpt lat="43.77873" lon="3.80898">
        <ele>621.8</ele>
        <time>2024-02-23T12:59:43Z</time>
      </trkpt>
      <trkpt lat="43.77873" lon="3.80898">
        <ele>621.6</ele>
        <time>2024-02-23T12:59:44Z</time>
      </trkpt>
      <trkpt lat="43.77873" lon="3.80898">
        <ele>621.4</ele>
        <time>2024-02-23T12:59:45Z</time>
      </trkpt>
      <trkpt lat="43.77873" lon="3.80898">
        <ele>621.2</ele>
        <time>2024-02-23T12:59:46Z</time>
      </trkpt>
      <trkpt lat="43.77873" lon="3.80898">
        <ele>621.4</ele>
        <time>2024-02-23T12:59:47Z</time>
      </trkpt>
      <trkpt lat="43.77873" lon="3.80898">
        <ele>621.4</ele>
        <time>2024-02-23T12:59:48Z</time>
      </trkpt>
      <trkpt lat="43.77873" lon="3.80898">
        <ele>621.4</ele>
        <time>2024-02-23T12:59:49Z</time>
      </trkpt>
      <trkpt lat="43.77873" lon="3.80898">
        <ele>621.4</ele>
        <time>2024-02-23T12:59:50Z</time>
      </trkpt>
      <trkpt lat="43.77873" lon="3.80898">
        <ele>621.6</ele>
        <time>2024-02-23T12:59:51Z</time>
      </trkpt>
      <trkpt lat="43.77873" lon="3.80898">
        <ele>621.4</ele>
        <time>2024-02-23T12:59:52Z</time>
      </trkpt>
      <trkpt lat="43.77873" lon="3.80898">
        <ele>621.4</ele>
        <time>2024-02-23T12:59:53Z</time>
      </trkpt>
      <trkpt lat="43.77873" lon="3.80898">
        <ele>621.6</ele>
        <time>2024-02-23T12:59:54Z</time>
      </trkpt>
      <trkpt lat="43.77873" lon="3.80898">
        <ele>621.4</ele>
        <time>2024-02-23T12:59:55Z</time>
      </trkpt>
      <trkpt lat="43.77873" lon="3.80898">
        <ele>621.4</ele>
        <time>2024-02-23T12:59:56Z</time>
      </trkpt>
      <trkpt lat="43.77873" lon="3.80898">
        <ele>621.4</ele>
        <time>2024-02-23T12:59:57Z</time>
      </trkpt>
      <trkpt lat="43.77873" lon="3.80898">
        <ele>621.6</ele>
        <time>2024-02-23T12:59:58Z</time>
      </trkpt>
      <trkpt lat="43.77873" lon="3.80898">
        <ele>621.8</ele>
        <time>2024-02-23T12:59:59Z</time>
      </trkpt>
      <trkpt lat="43.77873" lon="3.80898">
        <ele>621.6</ele>
        <time>2024-02-23T13:00:00Z</time>
      </trkpt>
      <trkpt lat="43.77873" lon="3.80898">
        <ele>621.4</ele>
        <time>2024-02-23T13:00:01Z</time>
      </trkpt>
      <trkpt lat="43.77873" lon="3.80898">
        <ele>621.4</ele>
        <time>2024-02-23T13:00:02Z</time>
      </trkpt>
      <trkpt lat="43.77873" lon="3.80898">
        <ele>621.2</ele>
        <time>2024-02-23T13:00:03Z</time>
      </trkpt>
      <trkpt lat="43.77873" lon="3.80898">
        <ele>621</ele>
        <time>2024-02-23T13:00:04Z</time>
      </trkpt>
      <trkpt lat="43.77873" lon="3.80898">
        <ele>620.6</ele>
        <time>2024-02-23T13:00:05Z</time>
      </trkpt>
      <trkpt lat="43.77873" lon="3.80898">
        <ele>620.2</ele>
        <time>2024-02-23T13:00:06Z</time>
      </trkpt>
      <trkpt lat="43.77873" lon="3.80898">
        <ele>620</ele>
        <time>2024-02-23T13:00:07Z</time>
      </trkpt>
      <trkpt lat="43.77873" lon="3.80898">
        <ele>619.6</ele>
        <time>2024-02-23T13:00:08Z</time>
      </trkpt>
      <trkpt lat="43.77873" lon="3.80898">
        <ele>619.2</ele>
        <time>2024-02-23T13:00:09Z</time>
      </trkpt>
      <trkpt lat="43.77873" lon="3.80898">
        <ele>619</ele>
        <time>2024-02-23T13:00:10Z</time>
      </trkpt>
      <trkpt lat="43.77873" lon="3.80898">
        <ele>618.8</ele>
        <time>2024-02-23T13:00:11Z</time>
      </trkpt>
      <trkpt lat="43.77873" lon="3.80898">
        <ele>618.8</ele>
        <time>2024-02-23T13:00:12Z</time>
      </trkpt>
      <trkpt lat="43.77873" lon="3.80898">
        <ele>618.6</ele>
        <time>2024-02-23T13:00:13Z</time>
      </trkpt>
      <trkpt lat="43.77873" lon="3.80895">
        <ele>618.2</ele>
        <time>2024-02-23T13:00:14Z</time>
      </trkpt>
      <trkpt lat="43.77874" lon="3.80892">
        <ele>617.4</ele>
        <time>2024-02-23T13:00:15Z</time>
      </trkpt>
      <trkpt lat="43.77874" lon="3.80892">
        <ele>617</ele>
        <time>2024-02-23T13:00:16Z</time>
      </trkpt>
      <trkpt lat="43.77873" lon="3.80888">
        <ele>616.2</ele>
        <time>2024-02-23T13:00:17Z</time>
      </trkpt>
      <trkpt lat="43.77873" lon="3.80888">
        <ele>615.6</ele>
        <time>2024-02-23T13:00:18Z</time>
      </trkpt>
      <trkpt lat="43.77873" lon="3.80888">
        <ele>614.8</ele>
        <time>2024-02-23T13:00:19Z</time>
      </trkpt>
      <trkpt lat="43.77873" lon="3.80885">
        <ele>614.2</ele>
        <time>2024-02-23T13:00:20Z</time>
      </trkpt>
      <trkpt lat="43.77873" lon="3.80885">
        <ele>613.8</ele>
        <time>2024-02-23T13:00:21Z</time>
      </trkpt>
      <trkpt lat="43.77873" lon="3.80882">
        <ele>613</ele>
        <time>2024-02-23T13:00:22Z</time>
      </trkpt>
      <trkpt lat="43.77873" lon="3.80882">
        <ele>612.2</ele>
        <time>2024-02-23T13:00:23Z</time>
      </trkpt>
      <trkpt lat="43.77873" lon="3.80882">
        <ele>611.8</ele>
        <time>2024-02-23T13:00:24Z</time>
      </trkpt>
      <trkpt lat="43.77873" lon="3.80882">
        <ele>611.4</ele>
        <time>2024-02-23T13:00:25Z</time>
      </trkpt>
      <trkpt lat="43.77874" lon="3.80879">
        <ele>611.4</ele>
        <time>2024-02-23T13:00:26Z</time>
      </trkpt>
      <trkpt lat="43.77874" lon="3.80879">
        <ele>611.2</ele>
        <time>2024-02-23T13:00:27Z</time>
      </trkpt>
      <trkpt lat="43.77874" lon="3.80879">
        <ele>610.4</ele>
        <time>2024-02-23T13:00:28Z</time>
      </trkpt>
      <trkpt lat="43.77874" lon="3.80879">
        <ele>609.8</ele>
        <time>2024-02-23T13:00:29Z</time>
      </trkpt>
      <trkpt lat="43.77874" lon="3.80879">
        <ele>609.2</ele>
        <time>2024-02-23T13:00:30Z</time>
      </trkpt>
      <trkpt lat="43.77874" lon="3.80877">
        <ele>608.8</ele>
        <time>2024-02-23T13:00:31Z</time>
      </trkpt>
      <trkpt lat="43.77874" lon="3.80877">
        <ele>608.2</ele>
        <time>2024-02-23T13:00:32Z</time>
      </trkpt>
      <trkpt lat="43.77874" lon="3.80877">
        <ele>607.8</ele>
        <time>2024-02-23T13:00:33Z</time>
      </trkpt>
      <trkpt lat="43.77874" lon="3.80874">
        <ele>607.2</ele>
        <time>2024-02-23T13:00:34Z</time>
      </trkpt>
      <trkpt lat="43.77874" lon="3.80874">
        <ele>606.6</ele>
        <time>2024-02-23T13:00:35Z</time>
      </trkpt>
      <trkpt lat="43.77874" lon="3.80874">
        <ele>605.8</ele>
        <time>2024-02-23T13:00:36Z</time>
      </trkpt>
      <trkpt lat="43.77874" lon="3.80874">
        <ele>605.2</ele>
        <time>2024-02-23T13:00:37Z</time>
      </trkpt>
      <trkpt lat="43.77873" lon="3.80871">
        <ele>604.4</ele>
        <time>2024-02-23T13:00:38Z</time>
      </trkpt>
      <trkpt lat="43.77873" lon="3.80871">
        <ele>603.6</ele>
        <time>2024-02-23T13:00:39Z</time>
      </trkpt>
      <trkpt lat="43.77873" lon="3.80871">
        <ele>602.8</ele>
        <time>2024-02-23T13:00:40Z</time>
      </trkpt>
      <trkpt lat="43.77873" lon="3.80871">
        <ele>602</ele>
        <time>2024-02-23T13:00:41Z</time>
      </trkpt>
      <trkpt lat="43.77873" lon="3.80871">
        <ele>601.6</ele>
        <time>2024-02-23T13:00:42Z</time>
      </trkpt>
      <trkpt lat="43.77873" lon="3.80871">
        <ele>601.4</ele>
        <time>2024-02-23T13:00:43Z</time>
      </trkpt>
      <trkpt lat="43.77873" lon="3.80871">
        <ele>601.2</ele>
        <time>2024-02-23T13:00:44Z</time>
      </trkpt>
      <trkpt lat="43.77874" lon="3.80868">
        <ele>600.6</ele>
        <time>2024-02-23T13:00:45Z</time>
      </trkpt>
      <trkpt lat="43.77874" lon="3.80868">
        <ele>600.2</ele>
        <time>2024-02-23T13:00:46Z</time>
      </trkpt>
      <trkpt lat="43.77874" lon="3.80868">
        <ele>599.8</ele>
        <time>2024-02-23T13:00:47Z</time>
      </trkpt>
      <trkpt lat="43.77874" lon="3.80865">
        <ele>599.2</ele>
        <time>2024-02-23T13:00:48Z</time>
      </trkpt>
      <trkpt lat="43.77874" lon="3.80865">
        <ele>598.8</ele>
        <time>2024-02-23T13:00:49Z</time>
      </trkpt>
      <trkpt lat="43.77874" lon="3.80865">
        <ele>598.6</ele>
        <time>2024-02-23T13:00:50Z</time>
      </trkpt>
      <trkpt lat="43.77874" lon="3.80862">
        <ele>598.4</ele>
        <time>2024-02-23T13:00:51Z</time>
      </trkpt>
      <trkpt lat="43.77874" lon="3.80862">
        <ele>598.2</ele>
        <time>2024-02-23T13:00:52Z</time>
      </trkpt>
      <trkpt lat="43.77874" lon="3.80862">
        <ele>598</ele>
        <time>2024-02-23T13:00:53Z</time>
      </trkpt>
      <trkpt lat="43.77875" lon="3.80859">
        <ele>597.8</ele>
        <time>2024-02-23T13:00:54Z</time>
      </trkpt>
      <trkpt lat="43.77875" lon="3.80859">
        <ele>597.4</ele>
        <time>2024-02-23T13:00:55Z</time>
      </trkpt>
      <trkpt lat="43.77875" lon="3.80859">
        <ele>597</ele>
        <time>2024-02-23T13:00:56Z</time>
      </trkpt>
      <trkpt lat="43.77875" lon="3.80859">
        <ele>596.4</ele>
        <time>2024-02-23T13:00:57Z</time>
      </trkpt>
      <trkpt lat="43.77875" lon="3.80859">
        <ele>596</ele>
        <time>2024-02-23T13:00:58Z</time>
      </trkpt>
      <trkpt lat="43.77874" lon="3.80857">
        <ele>595.6</ele>
        <time>2024-02-23T13:00:59Z</time>
      </trkpt>
      <trkpt lat="43.77874" lon="3.80857">
        <ele>595.4</ele>
        <time>2024-02-23T13:01:00Z</time>
      </trkpt>
      <trkpt lat="43.77873" lon="3.80854">
        <ele>595.2</ele>
        <time>2024-02-23T13:01:01Z</time>
      </trkpt>
      <trkpt lat="43.77873" lon="3.80854">
        <ele>595</ele>
        <time>2024-02-23T13:01:02Z</time>
      </trkpt>
      <trkpt lat="43.77872" lon="3.80851">
        <ele>595</ele>
        <time>2024-02-23T13:01:03Z</time>
      </trkpt>
      <trkpt lat="43.77872" lon="3.80851">
        <ele>595</ele>
        <time>2024-02-23T13:01:04Z</time>
      </trkpt>
      <trkpt lat="43.77872" lon="3.80849">
        <ele>595</ele>
        <time>2024-02-23T13:01:05Z</time>
      </trkpt>
      <trkpt lat="43.77872" lon="3.80849">
        <ele>594.8</ele>
        <time>2024-02-23T13:01:06Z</time>
      </trkpt>
      <trkpt lat="43.77872" lon="3.80849">
        <ele>594.6</ele>
        <time>2024-02-23T13:01:07Z</time>
      </trkpt>
      <trkpt lat="43.77873" lon="3.80846">
        <ele>594.2</ele>
        <time>2024-02-23T13:01:08Z</time>
      </trkpt>
      <trkpt lat="43.77873" lon="3.80846">
        <ele>593.8</ele>
        <time>2024-02-23T13:01:09Z</time>
      </trkpt>
      <trkpt lat="43.77873" lon="3.80846">
        <ele>593.4</ele>
        <time>2024-02-23T13:01:10Z</time>
      </trkpt>
      <trkpt lat="43.77873" lon="3.80846">
        <ele>593</ele>
        <time>2024-02-23T13:01:11Z</time>
      </trkpt>
      <trkpt lat="43.77873" lon="3.80846">
        <ele>592.8</ele>
        <time>2024-02-23T13:01:12Z</time>
      </trkpt>
      <trkpt lat="43.77873" lon="3.80846">
        <ele>592.6</ele>
        <time>2024-02-23T13:01:13Z</time>
      </trkpt>
      <trkpt lat="43.77875" lon="3.80843">
        <ele>592.2</ele>
        <time>2024-02-23T13:01:14Z</time>
      </trkpt>
      <trkpt lat="43.77875" lon="3.80843">
        <ele>591.8</ele>
        <time>2024-02-23T13:01:15Z</time>
      </trkpt>
      <trkpt lat="43.77875" lon="3.80843">
        <ele>591.2</ele>
        <time>2024-02-23T13:01:16Z</time>
      </trkpt>
      <trkpt lat="43.77877" lon="3.80843">
        <ele>590.6</ele>
        <time>2024-02-23T13:01:17Z</time>
      </trkpt>
      <trkpt lat="43.77877" lon="3.80843">
        <ele>589.8</ele>
        <time>2024-02-23T13:01:18Z</time>
      </trkpt>
      <trkpt lat="43.77877" lon="3.80843">
        <ele>589.4</ele>
        <time>2024-02-23T13:01:19Z</time>
      </trkpt>
      <trkpt lat="43.77877" lon="3.80843">
        <ele>589</ele>
        <time>2024-02-23T13:01:20Z</time>
      </trkpt>
      <trkpt lat="43.77877" lon="3.80843">
        <ele>588.8</ele>
        <time>2024-02-23T13:01:21Z</time>
      </trkpt>
      <trkpt lat="43.77879" lon="3.80841">
        <ele>588.6</ele>
        <time>2024-02-23T13:01:22Z</time>
      </trkpt>
      <trkpt lat="43.77882" lon="3.80841">
        <ele>588</ele>
        <time>2024-02-23T13:01:23Z</time>
      </trkpt>
      <trkpt lat="43.77883" lon="3.80842">
        <ele>587.4</ele>
        <time>2024-02-23T13:01:24Z</time>
      </trkpt>
      <trkpt lat="43.77884" lon="3.80842">
        <ele>586.8</ele>
        <time>2024-02-23T13:01:25Z</time>
      </trkpt>
      <trkpt lat="43.77884" lon="3.80842">
        <ele>586.4</ele>
        <time>2024-02-23T13:01:26Z</time>
      </trkpt>
      <trkpt lat="43.77884" lon="3.80842">
        <ele>585.8</ele>
        <time>2024-02-23T13:01:27Z</time>
      </trkpt>
      <trkpt lat="43.77884" lon="3.80842">
        <ele>585.4</ele>
        <time>2024-02-23T13:01:28Z</time>
      </trkpt>
      <trkpt lat="43.77884" lon="3.80839">
        <ele>584.8</ele>
        <time>2024-02-23T13:01:29Z</time>
      </trkpt>
      <trkpt lat="43.77884" lon="3.80839">
        <ele>584.4</ele>
        <time>2024-02-23T13:01:30Z</time>
      </trkpt>
      <trkpt lat="43.77884" lon="3.80839">
        <ele>583.8</ele>
        <time>2024-02-23T13:01:31Z</time>
      </trkpt>
      <trkpt lat="43.77885" lon="3.80837">
        <ele>583.4</ele>
        <time>2024-02-23T13:01:32Z</time>
      </trkpt>
      <trkpt lat="43.77885" lon="3.80837">
        <ele>583</ele>
        <time>2024-02-23T13:01:33Z</time>
      </trkpt>
      <trkpt lat="43.77884" lon="3.80835">
        <ele>582.4</ele>
        <time>2024-02-23T13:01:34Z</time>
      </trkpt>
      <trkpt lat="43.77884" lon="3.80835">
        <ele>581.8</ele>
        <time>2024-02-23T13:01:35Z</time>
      </trkpt>
      <trkpt lat="43.77884" lon="3.80835">
        <ele>581.2</ele>
        <time>2024-02-23T13:01:36Z</time>
      </trkpt>
      <trkpt lat="43.77884" lon="3.80835">
        <ele>580.8</ele>
        <time>2024-02-23T13:01:37Z</time>
      </trkpt>
      <trkpt lat="43.77884" lon="3.80835">
        <ele>580.4</ele>
        <time>2024-02-23T13:01:38Z</time>
      </trkpt>
      <trkpt lat="43.77885" lon="3.80832">
        <ele>580</ele>
        <time>2024-02-23T13:01:39Z</time>
      </trkpt>
      <trkpt lat="43.77885" lon="3.80832">
        <ele>579.6</ele>
        <time>2024-02-23T13:01:40Z</time>
      </trkpt>
      <trkpt lat="43.77885" lon="3.80832">
        <ele>579.2</ele>
        <time>2024-02-23T13:01:41Z</time>
      </trkpt>
      <trkpt lat="43.77885" lon="3.80832">
        <ele>579</ele>
        <time>2024-02-23T13:01:42Z</time>
      </trkpt>
      <trkpt lat="43.77885" lon="3.80832">
        <ele>578.6</ele>
        <time>2024-02-23T13:01:43Z</time>
      </trkpt>
      <trkpt lat="43.77885" lon="3.80828">
        <ele>578.2</ele>
        <time>2024-02-23T13:01:44Z</time>
      </trkpt>
      <trkpt lat="43.77885" lon="3.80828">
        <ele>577.8</ele>
        <time>2024-02-23T13:01:45Z</time>
      </trkpt>
      <trkpt lat="43.77885" lon="3.80828">
        <ele>577.4</ele>
        <time>2024-02-23T13:01:46Z</time>
      </trkpt>
      <trkpt lat="43.77883" lon="3.80825">
        <ele>577</ele>
        <time>2024-02-23T13:01:47Z</time>
      </trkpt>
      <trkpt lat="43.77883" lon="3.80825">
        <ele>576.6</ele>
        <time>2024-02-23T13:01:48Z</time>
      </trkpt>
      <trkpt lat="43.77883" lon="3.80825">
        <ele>576.2</ele>
        <time>2024-02-23T13:01:49Z</time>
      </trkpt>
      <trkpt lat="43.77883" lon="3.80825">
        <ele>575.6</ele>
        <time>2024-02-23T13:01:50Z</time>
      </trkpt>
      <trkpt lat="43.77883" lon="3.80823">
        <ele>575.2</ele>
        <time>2024-02-23T13:01:51Z</time>
      </trkpt>
      <trkpt lat="43.77883" lon="3.80823">
        <ele>574.8</ele>
        <time>2024-02-23T13:01:52Z</time>
      </trkpt>
      <trkpt lat="43.77883" lon="3.80823">
        <ele>574.2</ele>
        <time>2024-02-23T13:01:53Z</time>
      </trkpt>
      <trkpt lat="43.77882" lon="3.8082">
        <ele>573.8</ele>
        <time>2024-02-23T13:01:54Z</time>
      </trkpt>
      <trkpt lat="43.77882" lon="3.8082">
        <ele>573.4</ele>
        <time>2024-02-23T13:01:55Z</time>
      </trkpt>
      <trkpt lat="43.77882" lon="3.8082">
        <ele>572.8</ele>
        <time>2024-02-23T13:01:56Z</time>
      </trkpt>
      <trkpt lat="43.77882" lon="3.8082">
        <ele>572.4</ele>
        <time>2024-02-23T13:01:57Z</time>
      </trkpt>
      <trkpt lat="43.77883" lon="3.80817">
        <ele>572.2</ele>
        <time>2024-02-23T13:01:58Z</time>
      </trkpt>
      <trkpt lat="43.77883" lon="3.80817">
        <ele>571.8</ele>
        <time>2024-02-23T13:01:59Z</time>
      </trkpt>
      <trkpt lat="43.77883" lon="3.80817">
        <ele>571.4</ele>
        <time>2024-02-23T13:02:00Z</time>
      </trkpt>
      <trkpt lat="43.77885" lon="3.80816">
        <ele>571</ele>
        <time>2024-02-23T13:02:01Z</time>
      </trkpt>
      <trkpt lat="43.77885" lon="3.80816">
        <ele>570.6</ele>
        <time>2024-02-23T13:02:02Z</time>
      </trkpt>
      <trkpt lat="43.77885" lon="3.80816">
        <ele>570.4</ele>
        <time>2024-02-23T13:02:03Z</time>
      </trkpt>
      <trkpt lat="43.77885" lon="3.80816">
        <ele>570</ele>
        <time>2024-02-23T13:02:04Z</time>
      </trkpt>
      <trkpt lat="43.77885" lon="3.80816">
        <ele>569.6</ele>
        <time>2024-02-23T13:02:05Z</time>
      </trkpt>
      <trkpt lat="43.77885" lon="3.80816">
        <ele>569.4</ele>
        <time>2024-02-23T13:02:06Z</time>
      </trkpt>
      <trkpt lat="43.77886" lon="3.80818">
        <ele>569.2</ele>
        <time>2024-02-23T13:02:07Z</time>
      </trkpt>
      <trkpt lat="43.77886" lon="3.80818">
        <ele>568.8</ele>
        <time>2024-02-23T13:02:08Z</time>
      </trkpt>
      <trkpt lat="43.77886" lon="3.80818">
        <ele>568.4</ele>
        <time>2024-02-23T13:02:09Z</time>
      </trkpt>
      <trkpt lat="43.77885" lon="3.80816">
        <ele>568.2</ele>
        <time>2024-02-23T13:02:10Z</time>
      </trkpt>
      <trkpt lat="43.77885" lon="3.80816">
        <ele>567.8</ele>
        <time>2024-02-23T13:02:11Z</time>
      </trkpt>
      <trkpt lat="43.77885" lon="3.80816">
        <ele>567.4</ele>
        <time>2024-02-23T13:02:12Z</time>
      </trkpt>
      <trkpt lat="43.77885" lon="3.80816">
        <ele>567.2</ele>
        <time>2024-02-23T13:02:13Z</time>
      </trkpt>
      <trkpt lat="43.77884" lon="3.80813">
        <ele>566.8</ele>
        <time>2024-02-23T13:02:14Z</time>
      </trkpt>
      <trkpt lat="43.77884" lon="3.80813">
        <ele>566.4</ele>
        <time>2024-02-23T13:02:15Z</time>
      </trkpt>
      <trkpt lat="43.77884" lon="3.80813">
        <ele>566.2</ele>
        <time>2024-02-23T13:02:16Z</time>
      </trkpt>
      <trkpt lat="43.77884" lon="3.80813">
        <ele>565.8</ele>
        <time>2024-02-23T13:02:17Z</time>
      </trkpt>
      <trkpt lat="43.77884" lon="3.8081">
        <ele>565.4</ele>
        <time>2024-02-23T13:02:18Z</time>
      </trkpt>
      <trkpt lat="43.77884" lon="3.8081">
        <ele>565.2</ele>
        <time>2024-02-23T13:02:19Z</time>
      </trkpt>
      <trkpt lat="43.77884" lon="3.8081">
        <ele>564.8</ele>
        <time>2024-02-23T13:02:20Z</time>
      </trkpt>
      <trkpt lat="43.77884" lon="3.80807">
        <ele>564.4</ele>
        <time>2024-02-23T13:02:21Z</time>
      </trkpt>
      <trkpt lat="43.77884" lon="3.80807">
        <ele>563.8</ele>
        <time>2024-02-23T13:02:22Z</time>
      </trkpt>
      <trkpt lat="43.77884" lon="3.80807">
        <ele>563.4</ele>
        <time>2024-02-23T13:02:23Z</time>
      </trkpt>
      <trkpt lat="43.77884" lon="3.80805">
        <ele>562.8</ele>
        <time>2024-02-23T13:02:24Z</time>
      </trkpt>
      <trkpt lat="43.77884" lon="3.80805">
        <ele>562.4</ele>
        <time>2024-02-23T13:02:25Z</time>
      </trkpt>
      <trkpt lat="43.77884" lon="3.80805">
        <ele>562</ele>
        <time>2024-02-23T13:02:26Z</time>
      </trkpt>
      <trkpt lat="43.77884" lon="3.80805">
        <ele>561.6</ele>
        <time>2024-02-23T13:02:27Z</time>
      </trkpt>
      <trkpt lat="43.77884" lon="3.80805">
        <ele>561.6</ele>
        <time>2024-02-23T13:02:28Z</time>
      </trkpt>
      <trkpt lat="43.77884" lon="3.80805">
        <ele>561.4</ele>
        <time>2024-02-23T13:02:29Z</time>
      </trkpt>
      <trkpt lat="43.77884" lon="3.80805">
        <ele>561.4</ele>
        <time>2024-02-23T13:02:30Z</time>
      </trkpt>
      <trkpt lat="43.77884" lon="3.80805">
        <ele>561.4</ele>
        <time>2024-02-23T13:02:31Z</time>
      </trkpt>
      <trkpt lat="43.77885" lon="3.80802">
        <ele>561.2</ele>
        <time>2024-02-23T13:02:32Z</time>
      </trkpt>
      <trkpt lat="43.77885" lon="3.80802">
        <ele>561.2</ele>
        <time>2024-02-23T13:02:33Z</time>
      </trkpt>
      <trkpt lat="43.77883" lon="3.80799">
        <ele>561</ele>
        <time>2024-02-23T13:02:34Z</time>
      </trkpt>
      <trkpt lat="43.77883" lon="3.80799">
        <ele>560.8</ele>
        <time>2024-02-23T13:02:35Z</time>
      </trkpt>
      <trkpt lat="43.77883" lon="3.80799">
        <ele>560.4</ele>
        <time>2024-02-23T13:02:36Z</time>
      </trkpt>
      <trkpt lat="43.77884" lon="3.80796">
        <ele>560.2</ele>
        <time>2024-02-23T13:02:37Z</time>
      </trkpt>
      <trkpt lat="43.77884" lon="3.80796">
        <ele>559.8</ele>
        <time>2024-02-23T13:02:38Z</time>
      </trkpt>
      <trkpt lat="43.77885" lon="3.80795">
        <ele>559.4</ele>
        <time>2024-02-23T13:02:39Z</time>
      </trkpt>
      <trkpt lat="43.77885" lon="3.80795">
        <ele>559.2</ele>
        <time>2024-02-23T13:02:40Z</time>
      </trkpt>
      <trkpt lat="43.77885" lon="3.80795">
        <ele>558.6</ele>
        <time>2024-02-23T13:02:41Z</time>
      </trkpt>
      <trkpt lat="43.77887" lon="3.80796">
        <ele>558.2</ele>
        <time>2024-02-23T13:02:42Z</time>
      </trkpt>
      <trkpt lat="43.77887" lon="3.80796">
        <ele>557.8</ele>
        <time>2024-02-23T13:02:43Z</time>
      </trkpt>
      <trkpt lat="43.77887" lon="3.80796">
        <ele>557.4</ele>
        <time>2024-02-23T13:02:44Z</time>
      </trkpt>
      <trkpt lat="43.77889" lon="3.80795">
        <ele>556.8</ele>
        <time>2024-02-23T13:02:45Z</time>
      </trkpt>
      <trkpt lat="43.77889" lon="3.80795">
        <ele>556.4</ele>
        <time>2024-02-23T13:02:46Z</time>
      </trkpt>
      <trkpt lat="43.77891" lon="3.80795">
        <ele>556</ele>
        <time>2024-02-23T13:02:47Z</time>
      </trkpt>
      <trkpt lat="43.77891" lon="3.80795">
        <ele>555.6</ele>
        <time>2024-02-23T13:02:48Z</time>
      </trkpt>
      <trkpt lat="43.77891" lon="3.80795">
        <ele>555.2</ele>
        <time>2024-02-23T13:02:49Z</time>
      </trkpt>
      <trkpt lat="43.77891" lon="3.80795">
        <ele>554.8</ele>
        <time>2024-02-23T13:02:50Z</time>
      </trkpt>
      <trkpt lat="43.77891" lon="3.80795">
        <ele>554.6</ele>
        <time>2024-02-23T13:02:51Z</time>
      </trkpt>
      <trkpt lat="43.77891" lon="3.80795">
        <ele>554.2</ele>
        <time>2024-02-23T13:02:52Z</time>
      </trkpt>
      <trkpt lat="43.7789" lon="3.80793">
        <ele>554</ele>
        <time>2024-02-23T13:02:53Z</time>
      </trkpt>
      <trkpt lat="43.7789" lon="3.80793">
        <ele>553.6</ele>
        <time>2024-02-23T13:02:54Z</time>
      </trkpt>
      <trkpt lat="43.7789" lon="3.80793">
        <ele>553.4</ele>
        <time>2024-02-23T13:02:55Z</time>
      </trkpt>
      <trkpt lat="43.7789" lon="3.80793">
        <ele>553</ele>
        <time>2024-02-23T13:02:56Z</time>
      </trkpt>
      <trkpt lat="43.7789" lon="3.80793">
        <ele>552.6</ele>
        <time>2024-02-23T13:02:57Z</time>
      </trkpt>
      <trkpt lat="43.7789" lon="3.80793">
        <ele>552.2</ele>
        <time>2024-02-23T13:02:58Z</time>
      </trkpt>
      <trkpt lat="43.7789" lon="3.80793">
        <ele>551.8</ele>
        <time>2024-02-23T13:02:59Z</time>
      </trkpt>
      <trkpt lat="43.7789" lon="3.80793">
        <ele>551.4</ele>
        <time>2024-02-23T13:03:00Z</time>
      </trkpt>
      <trkpt lat="43.7789" lon="3.80793">
        <ele>550.8</ele>
        <time>2024-02-23T13:03:01Z</time>
      </trkpt>
      <trkpt lat="43.7789" lon="3.80793">
        <ele>550.4</ele>
        <time>2024-02-23T13:03:02Z</time>
      </trkpt>
      <trkpt lat="43.7789" lon="3.80793">
        <ele>550</ele>
        <time>2024-02-23T13:03:03Z</time>
      </trkpt>
      <trkpt lat="43.77891" lon="3.80796">
        <ele>549.6</ele>
        <time>2024-02-23T13:03:04Z</time>
      </trkpt>
      <trkpt lat="43.77891" lon="3.80796">
        <ele>549.4</ele>
        <time>2024-02-23T13:03:05Z</time>
      </trkpt>
      <trkpt lat="43.77891" lon="3.80796">
        <ele>549.2</ele>
        <time>2024-02-23T13:03:06Z</time>
      </trkpt>
      <trkpt lat="43.7789" lon="3.80798">
        <ele>549.2</ele>
        <time>2024-02-23T13:03:07Z</time>
      </trkpt>
      <trkpt lat="43.7789" lon="3.80798">
        <ele>549.2</ele>
        <time>2024-02-23T13:03:08Z</time>
      </trkpt>
      <trkpt lat="43.7789" lon="3.80798">
        <ele>549.2</ele>
        <time>2024-02-23T13:03:09Z</time>
      </trkpt>
      <trkpt lat="43.7789" lon="3.80798">
        <ele>549.2</ele>
        <time>2024-02-23T13:03:10Z</time>
      </trkpt>
      <trkpt lat="43.7789" lon="3.80798">
        <ele>549.2</ele>
        <time>2024-02-23T13:03:11Z</time>
      </trkpt>
      <trkpt lat="43.7789" lon="3.80798">
        <ele>549.2</ele>
        <time>2024-02-23T13:03:12Z</time>
      </trkpt>
      <trkpt lat="43.7789" lon="3.80798">
        <ele>549.2</ele>
        <time>2024-02-23T13:03:13Z</time>
      </trkpt>
      <trkpt lat="43.77892" lon="3.80799">
        <ele>549</ele>
        <time>2024-02-23T13:03:14Z</time>
      </trkpt>
      <trkpt lat="43.77892" lon="3.80799">
        <ele>548.8</ele>
        <time>2024-02-23T13:03:15Z</time>
      </trkpt>
      <trkpt lat="43.77894" lon="3.80801">
        <ele>548.6</ele>
        <time>2024-02-23T13:03:16Z</time>
      </trkpt>
      <trkpt lat="43.77894" lon="3.80801">
        <ele>548.2</ele>
        <time>2024-02-23T13:03:17Z</time>
      </trkpt>
      <trkpt lat="43.77894" lon="3.80801">
        <ele>548</ele>
        <time>2024-02-23T13:03:18Z</time>
      </trkpt>
      <trkpt lat="43.77894" lon="3.80801">
        <ele>548</ele>
        <time>2024-02-23T13:03:19Z</time>
      </trkpt>
      <trkpt lat="43.77894" lon="3.80801">
        <ele>547.8</ele>
        <time>2024-02-23T13:03:20Z</time>
      </trkpt>
      <trkpt lat="43.77894" lon="3.80801">
        <ele>547.8</ele>
        <time>2024-02-23T13:03:21Z</time>
      </trkpt>
      <trkpt lat="43.77894" lon="3.80801">
        <ele>547.6</ele>
        <time>2024-02-23T13:03:22Z</time>
      </trkpt>
      <trkpt lat="43.77894" lon="3.80801">
        <ele>547.6</ele>
        <time>2024-02-23T13:03:23Z</time>
      </trkpt>
      <trkpt lat="43.77894" lon="3.80801">
        <ele>547.4</ele>
        <time>2024-02-23T13:03:24Z</time>
      </trkpt>
      <trkpt lat="43.77894" lon="3.80801">
        <ele>547.4</ele>
        <time>2024-02-23T13:03:25Z</time>
      </trkpt>
      <trkpt lat="43.77894" lon="3.80801">
        <ele>547.2</ele>
        <time>2024-02-23T13:03:26Z</time>
      </trkpt>
      <trkpt lat="43.77894" lon="3.80801">
        <ele>547</ele>
        <time>2024-02-23T13:03:27Z</time>
      </trkpt>
      <trkpt lat="43.77894" lon="3.80801">
        <ele>546.8</ele>
        <time>2024-02-23T13:03:28Z</time>
      </trkpt>
      <trkpt lat="43.77894" lon="3.80801">
        <ele>546.8</ele>
        <time>2024-02-23T13:03:29Z</time>
      </trkpt>
      <trkpt lat="43.77894" lon="3.80801">
        <ele>546.6</ele>
        <time>2024-02-23T13:03:30Z</time>
      </trkpt>
      <trkpt lat="43.77894" lon="3.80801">
        <ele>546.4</ele>
        <time>2024-02-23T13:03:31Z</time>
      </trkpt>
      <trkpt lat="43.77894" lon="3.80801">
        <ele>546.2</ele>
        <time>2024-02-23T13:03:32Z</time>
      </trkpt>
      <trkpt lat="43.77894" lon="3.80801">
        <ele>546.2</ele>
        <time>2024-02-23T13:03:33Z</time>
      </trkpt>
      <trkpt lat="43.77894" lon="3.80801">
        <ele>546.2</ele>
        <time>2024-02-23T13:03:34Z</time>
      </trkpt>
      <trkpt lat="43.77894" lon="3.80801">
        <ele>546</ele>
        <time>2024-02-23T13:03:35Z</time>
      </trkpt>
      <trkpt lat="43.77894" lon="3.80801">
        <ele>545.8</ele>
        <time>2024-02-23T13:03:36Z</time>
      </trkpt>
      <trkpt lat="43.77894" lon="3.80801">
        <ele>545.6</ele>
        <time>2024-02-23T13:03:37Z</time>
      </trkpt>
      <trkpt lat="43.77894" lon="3.80801">
        <ele>545.4</ele>
        <time>2024-02-23T13:03:38Z</time>
      </trkpt>
      <trkpt lat="43.77894" lon="3.80801">
        <ele>545.8</ele>
        <time>2024-02-23T13:03:39Z</time>
      </trkpt>
      <trkpt lat="43.77894" lon="3.80801">
        <ele>545.8</ele>
        <time>2024-02-23T13:03:40Z</time>
      </trkpt>
      <trkpt lat="43.77894" lon="3.80801">
        <ele>546</ele>
        <time>2024-02-23T13:03:41Z</time>
      </trkpt>
      <trkpt lat="43.77894" lon="3.80801">
        <ele>545.8</ele>
        <time>2024-02-23T13:03:42Z</time>
      </trkpt>
      <trkpt lat="43.77895" lon="3.80799">
        <ele>545.4</ele>
        <time>2024-02-23T13:03:43Z</time>
      </trkpt>
      <trkpt lat="43.77895" lon="3.80799">
        <ele>545.2</ele>
        <time>2024-02-23T13:03:44Z</time>
      </trkpt>
      <trkpt lat="43.77895" lon="3.80799">
        <ele>545</ele>
        <time>2024-02-23T13:03:45Z</time>
      </trkpt>
      <trkpt lat="43.77895" lon="3.80799">
        <ele>544.8</ele>
        <time>2024-02-23T13:03:46Z</time>
      </trkpt>
      <trkpt lat="43.77895" lon="3.80799">
        <ele>544.6</ele>
        <time>2024-02-23T13:03:47Z</time>
      </trkpt>
      <trkpt lat="43.77894" lon="3.80797">
        <ele>544.4</ele>
        <time>2024-02-23T13:03:48Z</time>
      </trkpt>
      <trkpt lat="43.77894" lon="3.80797">
        <ele>544.4</ele>
        <time>2024-02-23T13:03:49Z</time>
      </trkpt>
      <trkpt lat="43.77894" lon="3.80797">
        <ele>544.4</ele>
        <time>2024-02-23T13:03:50Z</time>
      </trkpt>
      <trkpt lat="43.77894" lon="3.80797">
        <ele>544.4</ele>
        <time>2024-02-23T13:03:51Z</time>
      </trkpt>
      <trkpt lat="43.77892" lon="3.80795">
        <ele>544.4</ele>
        <time>2024-02-23T13:03:52Z</time>
      </trkpt>
      <trkpt lat="43.77892" lon="3.80795">
        <ele>544.2</ele>
        <time>2024-02-23T13:03:53Z</time>
      </trkpt>
      <trkpt lat="43.77892" lon="3.80795">
        <ele>544.2</ele>
        <time>2024-02-23T13:03:54Z</time>
      </trkpt>
      <trkpt lat="43.77892" lon="3.80795">
        <ele>544.2</ele>
        <time>2024-02-23T13:03:55Z</time>
      </trkpt>
      <trkpt lat="43.77891" lon="3.80792">
        <ele>544</ele>
        <time>2024-02-23T13:03:56Z</time>
      </trkpt>
      <trkpt lat="43.7789" lon="3.8079">
        <ele>543.8</ele>
        <time>2024-02-23T13:03:57Z</time>
      </trkpt>
      <trkpt lat="43.7789" lon="3.8079">
        <ele>543.4</ele>
        <time>2024-02-23T13:03:58Z</time>
      </trkpt>
      <trkpt lat="43.7789" lon="3.8079">
        <ele>543.2</ele>
        <time>2024-02-23T13:03:59Z</time>
      </trkpt>
      <trkpt lat="43.7789" lon="3.8079">
        <ele>543</ele>
        <time>2024-02-23T13:04:00Z</time>
      </trkpt>
      <trkpt lat="43.7789" lon="3.8079">
        <ele>543</ele>
        <time>2024-02-23T13:04:01Z</time>
      </trkpt>
      <trkpt lat="43.7789" lon="3.8079">
        <ele>542.6</ele>
        <time>2024-02-23T13:04:02Z</time>
      </trkpt>
      <trkpt lat="43.7789" lon="3.8079">
        <ele>542.2</ele>
        <time>2024-02-23T13:04:03Z</time>
      </trkpt>
      <trkpt lat="43.7789" lon="3.8079">
        <ele>542</ele>
        <time>2024-02-23T13:04:04Z</time>
      </trkpt>
      <trkpt lat="43.7789" lon="3.8079">
        <ele>541.8</ele>
        <time>2024-02-23T13:04:05Z</time>
      </trkpt>
      <trkpt lat="43.7789" lon="3.8079">
        <ele>541.8</ele>
        <time>2024-02-23T13:04:06Z</time>
      </trkpt>
      <trkpt lat="43.7789" lon="3.8079">
        <ele>541.6</ele>
        <time>2024-02-23T13:04:07Z</time>
      </trkpt>
      <trkpt lat="43.7789" lon="3.8079">
        <ele>541.2</ele>
        <time>2024-02-23T13:04:08Z</time>
      </trkpt>
      <trkpt lat="43.77892" lon="3.80787">
        <ele>540.8</ele>
        <time>2024-02-23T13:04:09Z</time>
      </trkpt>
      <trkpt lat="43.77892" lon="3.80787">
        <ele>540.4</ele>
        <time>2024-02-23T13:04:10Z</time>
      </trkpt>
      <trkpt lat="43.77892" lon="3.80787">
        <ele>540.2</ele>
        <time>2024-02-23T13:04:11Z</time>
      </trkpt>
      <trkpt lat="43.77892" lon="3.80784">
        <ele>539.8</ele>
        <time>2024-02-23T13:04:12Z</time>
      </trkpt>
      <trkpt lat="43.77892" lon="3.80784">
        <ele>539.2</ele>
        <time>2024-02-23T13:04:13Z</time>
      </trkpt>
      <trkpt lat="43.77892" lon="3.80784">
        <ele>538.8</ele>
        <time>2024-02-23T13:04:14Z</time>
      </trkpt>
      <trkpt lat="43.77892" lon="3.80784">
        <ele>538.2</ele>
        <time>2024-02-23T13:04:15Z</time>
      </trkpt>
      <trkpt lat="43.77893" lon="3.80781">
        <ele>537.6</ele>
        <time>2024-02-23T13:04:16Z</time>
      </trkpt>
      <trkpt lat="43.77893" lon="3.80781">
        <ele>537</ele>
        <time>2024-02-23T13:04:17Z</time>
      </trkpt>
      <trkpt lat="43.77893" lon="3.80781">
        <ele>536.6</ele>
        <time>2024-02-23T13:04:18Z</time>
      </trkpt>
      <trkpt lat="43.77892" lon="3.80779">
        <ele>536.4</ele>
        <time>2024-02-23T13:04:19Z</time>
      </trkpt>
      <trkpt lat="43.77892" lon="3.80779">
        <ele>536.2</ele>
        <time>2024-02-23T13:04:20Z</time>
      </trkpt>
      <trkpt lat="43.77892" lon="3.80779">
        <ele>536</ele>
        <time>2024-02-23T13:04:21Z</time>
      </trkpt>
      <trkpt lat="43.77892" lon="3.80779">
        <ele>536</ele>
        <time>2024-02-23T13:04:22Z</time>
      </trkpt>
      <trkpt lat="43.77891" lon="3.80776">
        <ele>535.8</ele>
        <time>2024-02-23T13:04:23Z</time>
      </trkpt>
      <trkpt lat="43.77891" lon="3.80776">
        <ele>535.4</ele>
        <time>2024-02-23T13:04:24Z</time>
      </trkpt>
      <trkpt lat="43.77891" lon="3.80776">
        <ele>535</ele>
        <time>2024-02-23T13:04:25Z</time>
      </trkpt>
      <trkpt lat="43.77891" lon="3.80776">
        <ele>534.6</ele>
        <time>2024-02-23T13:04:26Z</time>
      </trkpt>
      <trkpt lat="43.77889" lon="3.80773">
        <ele>534.2</ele>
        <time>2024-02-23T13:04:27Z</time>
      </trkpt>
      <trkpt lat="43.77889" lon="3.80773">
        <ele>533.8</ele>
        <time>2024-02-23T13:04:28Z</time>
      </trkpt>
      <trkpt lat="43.77889" lon="3.80773">
        <ele>533.4</ele>
        <time>2024-02-23T13:04:29Z</time>
      </trkpt>
      <trkpt lat="43.77887" lon="3.80771">
        <ele>532.8</ele>
        <time>2024-02-23T13:04:30Z</time>
      </trkpt>
      <trkpt lat="43.77887" lon="3.80771">
        <ele>532.4</ele>
        <time>2024-02-23T13:04:31Z</time>
      </trkpt>
      <trkpt lat="43.77887" lon="3.80771">
        <ele>531.8</ele>
        <time>2024-02-23T13:04:32Z</time>
      </trkpt>
      <trkpt lat="43.77887" lon="3.80771">
        <ele>531.4</ele>
        <time>2024-02-23T13:04:33Z</time>
      </trkpt>
      <trkpt lat="43.77887" lon="3.80771">
        <ele>531</ele>
        <time>2024-02-23T13:04:34Z</time>
      </trkpt>
      <trkpt lat="43.77886" lon="3.80769">
        <ele>530.4</ele>
        <time>2024-02-23T13:04:35Z</time>
      </trkpt>
      <trkpt lat="43.77886" lon="3.80769">
        <ele>530</ele>
        <time>2024-02-23T13:04:36Z</time>
      </trkpt>
      <trkpt lat="43.77886" lon="3.80769">
        <ele>529.8</ele>
        <time>2024-02-23T13:04:37Z</time>
      </trkpt>
      <trkpt lat="43.77887" lon="3.80767">
        <ele>529.4</ele>
        <time>2024-02-23T13:04:38Z</time>
      </trkpt>
      <trkpt lat="43.77887" lon="3.80767">
        <ele>529.2</ele>
        <time>2024-02-23T13:04:39Z</time>
      </trkpt>
      <trkpt lat="43.77887" lon="3.80767">
        <ele>529</ele>
        <time>2024-02-23T13:04:40Z</time>
      </trkpt>
      <trkpt lat="43.77889" lon="3.80765">
        <ele>528.8</ele>
        <time>2024-02-23T13:04:41Z</time>
      </trkpt>
      <trkpt lat="43.77889" lon="3.80765">
        <ele>528.6</ele>
        <time>2024-02-23T13:04:42Z</time>
      </trkpt>
      <trkpt lat="43.77888" lon="3.80761">
        <ele>528.4</ele>
        <time>2024-02-23T13:04:43Z</time>
      </trkpt>
      <trkpt lat="43.77888" lon="3.80761">
        <ele>528.2</ele>
        <time>2024-02-23T13:04:44Z</time>
      </trkpt>
      <trkpt lat="43.77888" lon="3.80761">
        <ele>527.8</ele>
        <time>2024-02-23T13:04:45Z</time>
      </trkpt>
      <trkpt lat="43.77888" lon="3.80761">
        <ele>527.6</ele>
        <time>2024-02-23T13:04:46Z</time>
      </trkpt>
      <trkpt lat="43.77886" lon="3.80759">
        <ele>527.4</ele>
        <time>2024-02-23T13:04:47Z</time>
      </trkpt>
      <trkpt lat="43.77886" lon="3.80759">
        <ele>527.2</ele>
        <time>2024-02-23T13:04:48Z</time>
      </trkpt>
      <trkpt lat="43.77886" lon="3.80759">
        <ele>527</ele>
        <time>2024-02-23T13:04:49Z</time>
      </trkpt>
      <trkpt lat="43.77887" lon="3.80757">
        <ele>526.6</ele>
        <time>2024-02-23T13:04:50Z</time>
      </trkpt>
      <trkpt lat="43.77887" lon="3.80757">
        <ele>526.4</ele>
        <time>2024-02-23T13:04:51Z</time>
      </trkpt>
      <trkpt lat="43.77887" lon="3.80757">
        <ele>526.2</ele>
        <time>2024-02-23T13:04:52Z</time>
      </trkpt>
      <trkpt lat="43.77887" lon="3.80757">
        <ele>526</ele>
        <time>2024-02-23T13:04:53Z</time>
      </trkpt>
      <trkpt lat="43.77887" lon="3.80757">
        <ele>525.8</ele>
        <time>2024-02-23T13:04:54Z</time>
      </trkpt>
      <trkpt lat="43.77886" lon="3.80753">
        <ele>525.8</ele>
        <time>2024-02-23T13:04:55Z</time>
      </trkpt>
      <trkpt lat="43.77886" lon="3.80753">
        <ele>525.8</ele>
        <time>2024-02-23T13:04:56Z</time>
      </trkpt>
      <trkpt lat="43.77886" lon="3.80753">
        <ele>525.8</ele>
        <time>2024-02-23T13:04:57Z</time>
      </trkpt>
      <trkpt lat="43.77887" lon="3.80751">
        <ele>525.8</ele>
        <time>2024-02-23T13:04:58Z</time>
      </trkpt>
      <trkpt lat="43.77887" lon="3.80751">
        <ele>525.8</ele>
        <time>2024-02-23T13:04:59Z</time>
      </trkpt>
      <trkpt lat="43.77888" lon="3.80748">
        <ele>525.6</ele>
        <time>2024-02-23T13:05:00Z</time>
      </trkpt>
      <trkpt lat="43.77888" lon="3.80748">
        <ele>525.4</ele>
        <time>2024-02-23T13:05:01Z</time>
      </trkpt>
      <trkpt lat="43.77889" lon="3.80745">
        <ele>525.2</ele>
        <time>2024-02-23T13:05:02Z</time>
      </trkpt>
      <trkpt lat="43.77889" lon="3.80745">
        <ele>525.2</ele>
        <time>2024-02-23T13:05:03Z</time>
      </trkpt>
      <trkpt lat="43.77889" lon="3.80745">
        <ele>525</ele>
        <time>2024-02-23T13:05:04Z</time>
      </trkpt>
      <trkpt lat="43.77889" lon="3.80742">
        <ele>524.8</ele>
        <time>2024-02-23T13:05:05Z</time>
      </trkpt>
      <trkpt lat="43.77889" lon="3.80742">
        <ele>524.6</ele>
        <time>2024-02-23T13:05:06Z</time>
      </trkpt>
      <trkpt lat="43.77889" lon="3.80742">
        <ele>524.6</ele>
        <time>2024-02-23T13:05:07Z</time>
      </trkpt>
      <trkpt lat="43.7789" lon="3.80739">
        <ele>524.6</ele>
        <time>2024-02-23T13:05:08Z</time>
      </trkpt>
      <trkpt lat="43.7789" lon="3.80739">
        <ele>524.4</ele>
        <time>2024-02-23T13:05:09Z</time>
      </trkpt>
      <trkpt lat="43.7789" lon="3.80736">
        <ele>524.4</ele>
        <time>2024-02-23T13:05:10Z</time>
      </trkpt>
      <trkpt lat="43.7789" lon="3.80736">
        <ele>524.4</ele>
        <time>2024-02-23T13:05:11Z</time>
      </trkpt>
      <trkpt lat="43.77891" lon="3.80733">
        <ele>524.4</ele>
        <time>2024-02-23T13:05:12Z</time>
      </trkpt>
      <trkpt lat="43.77891" lon="3.80733">
        <ele>524.4</ele>
        <time>2024-02-23T13:05:13Z</time>
      </trkpt>
      <trkpt lat="43.77891" lon="3.80733">
        <ele>524.6</ele>
        <time>2024-02-23T13:05:14Z</time>
      </trkpt>
      <trkpt lat="43.77892" lon="3.8073">
        <ele>524.6</ele>
        <time>2024-02-23T13:05:15Z</time>
      </trkpt>
      <trkpt lat="43.77892" lon="3.8073">
        <ele>524.6</ele>
        <time>2024-02-23T13:05:16Z</time>
      </trkpt>
      <trkpt lat="43.77894" lon="3.80727">
        <ele>524.4</ele>
        <time>2024-02-23T13:05:17Z</time>
      </trkpt>
      <trkpt lat="43.77895" lon="3.80725">
        <ele>524.2</ele>
        <time>2024-02-23T13:05:18Z</time>
      </trkpt>
      <trkpt lat="43.77895" lon="3.80725">
        <ele>524</ele>
        <time>2024-02-23T13:05:19Z</time>
      </trkpt>
      <trkpt lat="43.77895" lon="3.80721">
        <ele>523.6</ele>
        <time>2024-02-23T13:05:20Z</time>
      </trkpt>
      <trkpt lat="43.77895" lon="3.80721">
        <ele>523.4</ele>
        <time>2024-02-23T13:05:21Z</time>
      </trkpt>
      <trkpt lat="43.77896" lon="3.80718">
        <ele>523.2</ele>
        <time>2024-02-23T13:05:22Z</time>
      </trkpt>
      <trkpt lat="43.77896" lon="3.80718">
        <ele>523.2</ele>
        <time>2024-02-23T13:05:23Z</time>
      </trkpt>
      <trkpt lat="43.77897" lon="3.80717">
        <ele>523.4</ele>
        <time>2024-02-23T13:05:24Z</time>
      </trkpt>
      <trkpt lat="43.77897" lon="3.80717">
        <ele>523.6</ele>
        <time>2024-02-23T13:05:25Z</time>
      </trkpt>
      <trkpt lat="43.77897" lon="3.80717">
        <ele>523.8</ele>
        <time>2024-02-23T13:05:26Z</time>
      </trkpt>
      <trkpt lat="43.77897" lon="3.80713">
        <ele>524</ele>
        <time>2024-02-23T13:05:27Z</time>
      </trkpt>
      <trkpt lat="43.77897" lon="3.80713">
        <ele>524</ele>
        <time>2024-02-23T13:05:28Z</time>
      </trkpt>
      <trkpt lat="43.77898" lon="3.8071">
        <ele>524</ele>
        <time>2024-02-23T13:05:29Z</time>
      </trkpt>
      <trkpt lat="43.77898" lon="3.8071">
        <ele>524</ele>
        <time>2024-02-23T13:05:30Z</time>
      </trkpt>
      <trkpt lat="43.77898" lon="3.8071">
        <ele>524</ele>
        <time>2024-02-23T13:05:31Z</time>
      </trkpt>
      <trkpt lat="43.77898" lon="3.8071">
        <ele>523.8</ele>
        <time>2024-02-23T13:05:32Z</time>
      </trkpt>
      <trkpt lat="43.77898" lon="3.8071">
        <ele>523.4</ele>
        <time>2024-02-23T13:05:33Z</time>
      </trkpt>
      <trkpt lat="43.77897" lon="3.80708">
        <ele>523.2</ele>
        <time>2024-02-23T13:05:34Z</time>
      </trkpt>
      <trkpt lat="43.77897" lon="3.80708">
        <ele>523</ele>
        <time>2024-02-23T13:05:35Z</time>
      </trkpt>
      <trkpt lat="43.77899" lon="3.80707">
        <ele>522.6</ele>
        <time>2024-02-23T13:05:36Z</time>
      </trkpt>
      <trkpt lat="43.77899" lon="3.80707">
        <ele>522</ele>
        <time>2024-02-23T13:05:37Z</time>
      </trkpt>
      <trkpt lat="43.77901" lon="3.80706">
        <ele>521.4</ele>
        <time>2024-02-23T13:05:38Z</time>
      </trkpt>
      <trkpt lat="43.77901" lon="3.80706">
        <ele>520.8</ele>
        <time>2024-02-23T13:05:39Z</time>
      </trkpt>
      <trkpt lat="43.77903" lon="3.80707">
        <ele>520.2</ele>
        <time>2024-02-23T13:05:40Z</time>
      </trkpt>
      <trkpt lat="43.77903" lon="3.80707">
        <ele>520</ele>
        <time>2024-02-23T13:05:41Z</time>
      </trkpt>
      <trkpt lat="43.77903" lon="3.80707">
        <ele>520</ele>
        <time>2024-02-23T13:05:42Z</time>
      </trkpt>
      <trkpt lat="43.77903" lon="3.80707">
        <ele>520</ele>
        <time>2024-02-23T13:05:43Z</time>
      </trkpt>
      <trkpt lat="43.77903" lon="3.80707">
        <ele>519.6</ele>
        <time>2024-02-23T13:05:44Z</time>
      </trkpt>
      <trkpt lat="43.77903" lon="3.80707">
        <ele>519</ele>
        <time>2024-02-23T13:05:45Z</time>
      </trkpt>
      <trkpt lat="43.77903" lon="3.80707">
        <ele>518.6</ele>
        <time>2024-02-23T13:05:46Z</time>
      </trkpt>
      <trkpt lat="43.77903" lon="3.80707">
        <ele>518.4</ele>
        <time>2024-02-23T13:05:47Z</time>
      </trkpt>
      <trkpt lat="43.77903" lon="3.80707">
        <ele>518.2</ele>
        <time>2024-02-23T13:05:48Z</time>
      </trkpt>
      <trkpt lat="43.77905" lon="3.80709">
        <ele>517.8</ele>
        <time>2024-02-23T13:05:49Z</time>
      </trkpt>
      <trkpt lat="43.77905" lon="3.80709">
        <ele>517.6</ele>
        <time>2024-02-23T13:05:50Z</time>
      </trkpt>
      <trkpt lat="43.77905" lon="3.80709">
        <ele>517.2</ele>
        <time>2024-02-23T13:05:51Z</time>
      </trkpt>
      <trkpt lat="43.77905" lon="3.80709">
        <ele>516.8</ele>
        <time>2024-02-23T13:05:52Z</time>
      </trkpt>
      <trkpt lat="43.77907" lon="3.80711">
        <ele>516.4</ele>
        <time>2024-02-23T13:05:53Z</time>
      </trkpt>
      <trkpt lat="43.77907" lon="3.80711">
        <ele>516.2</ele>
        <time>2024-02-23T13:05:54Z</time>
      </trkpt>
      <trkpt lat="43.77907" lon="3.80711">
        <ele>516</ele>
        <time>2024-02-23T13:05:55Z</time>
      </trkpt>
      <trkpt lat="43.77907" lon="3.80711">
        <ele>515.8</ele>
        <time>2024-02-23T13:05:56Z</time>
      </trkpt>
      <trkpt lat="43.77907" lon="3.80711">
        <ele>515.4</ele>
        <time>2024-02-23T13:05:57Z</time>
      </trkpt>
      <trkpt lat="43.77907" lon="3.80711">
        <ele>515.2</ele>
        <time>2024-02-23T13:05:58Z</time>
      </trkpt>
      <trkpt lat="43.77909" lon="3.80712">
        <ele>514.8</ele>
        <time>2024-02-23T13:05:59Z</time>
      </trkpt>
      <trkpt lat="43.77909" lon="3.80712">
        <ele>514.4</ele>
        <time>2024-02-23T13:06:00Z</time>
      </trkpt>
      <trkpt lat="43.77909" lon="3.80712">
        <ele>514</ele>
        <time>2024-02-23T13:06:01Z</time>
      </trkpt>
      <trkpt lat="43.77909" lon="3.80712">
        <ele>513.8</ele>
        <time>2024-02-23T13:06:02Z</time>
      </trkpt>
      <trkpt lat="43.77909" lon="3.80712">
        <ele>513.4</ele>
        <time>2024-02-23T13:06:03Z</time>
      </trkpt>
      <trkpt lat="43.77909" lon="3.80712">
        <ele>513.2</ele>
        <time>2024-02-23T13:06:04Z</time>
      </trkpt>
      <trkpt lat="43.77908" lon="3.80715">
        <ele>513</ele>
        <time>2024-02-23T13:06:05Z</time>
      </trkpt>
      <trkpt lat="43.77908" lon="3.80715">
        <ele>512.4</ele>
        <time>2024-02-23T13:06:06Z</time>
      </trkpt>
      <trkpt lat="43.77908" lon="3.80715">
        <ele>511.8</ele>
        <time>2024-02-23T13:06:07Z</time>
      </trkpt>
      <trkpt lat="43.77908" lon="3.80715">
        <ele>511.2</ele>
        <time>2024-02-23T13:06:08Z</time>
      </trkpt>
      <trkpt lat="43.77908" lon="3.80715">
        <ele>510.8</ele>
        <time>2024-02-23T13:06:09Z</time>
      </trkpt>
      <trkpt lat="43.77908" lon="3.80715">
        <ele>510.2</ele>
        <time>2024-02-23T13:06:10Z</time>
      </trkpt>
      <trkpt lat="43.77908" lon="3.80715">
        <ele>509.8</ele>
        <time>2024-02-23T13:06:11Z</time>
      </trkpt>
      <trkpt lat="43.77908" lon="3.80715">
        <ele>509.6</ele>
        <time>2024-02-23T13:06:12Z</time>
      </trkpt>
      <trkpt lat="43.77908" lon="3.80715">
        <ele>509.4</ele>
        <time>2024-02-23T13:06:13Z</time>
      </trkpt>
      <trkpt lat="43.77908" lon="3.80715">
        <ele>509</ele>
        <time>2024-02-23T13:06:14Z</time>
      </trkpt>
      <trkpt lat="43.77907" lon="3.80717">
        <ele>508.8</ele>
        <time>2024-02-23T13:06:15Z</time>
      </trkpt>
      <trkpt lat="43.77907" lon="3.80717">
        <ele>508.8</ele>
        <time>2024-02-23T13:06:16Z</time>
      </trkpt>
      <trkpt lat="43.77907" lon="3.80717">
        <ele>508.6</ele>
        <time>2024-02-23T13:06:17Z</time>
      </trkpt>
      <trkpt lat="43.77907" lon="3.80717">
        <ele>508.4</ele>
        <time>2024-02-23T13:06:18Z</time>
      </trkpt>
      <trkpt lat="43.77907" lon="3.80717">
        <ele>508.2</ele>
        <time>2024-02-23T13:06:19Z</time>
      </trkpt>
      <trkpt lat="43.77907" lon="3.8072">
        <ele>507.8</ele>
        <time>2024-02-23T13:06:20Z</time>
      </trkpt>
      <trkpt lat="43.77907" lon="3.8072">
        <ele>507.6</ele>
        <time>2024-02-23T13:06:21Z</time>
      </trkpt>
      <trkpt lat="43.77907" lon="3.8072">
        <ele>507.2</ele>
        <time>2024-02-23T13:06:22Z</time>
      </trkpt>
      <trkpt lat="43.77907" lon="3.8072">
        <ele>507</ele>
        <time>2024-02-23T13:06:23Z</time>
      </trkpt>
      <trkpt lat="43.77907" lon="3.8072">
        <ele>506.6</ele>
        <time>2024-02-23T13:06:24Z</time>
      </trkpt>
      <trkpt lat="43.77907" lon="3.8072">
        <ele>506.2</ele>
        <time>2024-02-23T13:06:25Z</time>
      </trkpt>
      <trkpt lat="43.77906" lon="3.80723">
        <ele>506</ele>
        <time>2024-02-23T13:06:26Z</time>
      </trkpt>
      <trkpt lat="43.77906" lon="3.80723">
        <ele>505.8</ele>
        <time>2024-02-23T13:06:27Z</time>
      </trkpt>
      <trkpt lat="43.77906" lon="3.80723">
        <ele>505.6</ele>
        <time>2024-02-23T13:06:28Z</time>
      </trkpt>
      <trkpt lat="43.77906" lon="3.80723">
        <ele>505.2</ele>
        <time>2024-02-23T13:06:29Z</time>
      </trkpt>
      <trkpt lat="43.77906" lon="3.80723">
        <ele>505</ele>
        <time>2024-02-23T13:06:30Z</time>
      </trkpt>
      <trkpt lat="43.77906" lon="3.80723">
        <ele>504.8</ele>
        <time>2024-02-23T13:06:31Z</time>
      </trkpt>
      <trkpt lat="43.77906" lon="3.80726">
        <ele>504.6</ele>
        <time>2024-02-23T13:06:32Z</time>
      </trkpt>
      <trkpt lat="43.77906" lon="3.80726">
        <ele>504.2</ele>
        <time>2024-02-23T13:06:33Z</time>
      </trkpt>
      <trkpt lat="43.77906" lon="3.80726">
        <ele>503.8</ele>
        <time>2024-02-23T13:06:34Z</time>
      </trkpt>
      <trkpt lat="43.77906" lon="3.80726">
        <ele>503.2</ele>
        <time>2024-02-23T13:06:35Z</time>
      </trkpt>
      <trkpt lat="43.77906" lon="3.80726">
        <ele>502.8</ele>
        <time>2024-02-23T13:06:36Z</time>
      </trkpt>
      <trkpt lat="43.77906" lon="3.80726">
        <ele>502.2</ele>
        <time>2024-02-23T13:06:37Z</time>
      </trkpt>
      <trkpt lat="43.77906" lon="3.80726">
        <ele>501.8</ele>
        <time>2024-02-23T13:06:38Z</time>
      </trkpt>
      <trkpt lat="43.77906" lon="3.80726">
        <ele>501.4</ele>
        <time>2024-02-23T13:06:39Z</time>
      </trkpt>
      <trkpt lat="43.77905" lon="3.80728">
        <ele>500.6</ele>
        <time>2024-02-23T13:06:40Z</time>
      </trkpt>
      <trkpt lat="43.77905" lon="3.80728">
        <ele>500</ele>
        <time>2024-02-23T13:06:41Z</time>
      </trkpt>
      <trkpt lat="43.77905" lon="3.80728">
        <ele>499.4</ele>
        <time>2024-02-23T13:06:42Z</time>
      </trkpt>
      <trkpt lat="43.77905" lon="3.80728">
        <ele>499</ele>
        <time>2024-02-23T13:06:43Z</time>
      </trkpt>
      <trkpt lat="43.77905" lon="3.80728">
        <ele>498.4</ele>
        <time>2024-02-23T13:06:44Z</time>
      </trkpt>
      <trkpt lat="43.77907" lon="3.80731">
        <ele>498</ele>
        <time>2024-02-23T13:06:45Z</time>
      </trkpt>
      <trkpt lat="43.77907" lon="3.80732">
        <ele>497.8</ele>
        <time>2024-02-23T13:06:46Z</time>
      </trkpt>
      <trkpt lat="43.77907" lon="3.80732">
        <ele>497.6</ele>
        <time>2024-02-23T13:06:47Z</time>
      </trkpt>
      <trkpt lat="43.77908" lon="3.80732">
        <ele>497.2</ele>
        <time>2024-02-23T13:06:48Z</time>
      </trkpt>
      <trkpt lat="43.77908" lon="3.80733">
        <ele>496.6</ele>
        <time>2024-02-23T13:06:49Z</time>
      </trkpt>
      <trkpt lat="43.77908" lon="3.80733">
        <ele>496.2</ele>
        <time>2024-02-23T13:06:50Z</time>
      </trkpt>
      <trkpt lat="43.77908" lon="3.80734">
        <ele>495.8</ele>
        <time>2024-02-23T13:06:51Z</time>
      </trkpt>
      <trkpt lat="43.77909" lon="3.80734">
        <ele>495.2</ele>
        <time>2024-02-23T13:06:52Z</time>
      </trkpt>
      <trkpt lat="43.77909" lon="3.80735">
        <ele>495</ele>
        <time>2024-02-23T13:06:53Z</time>
      </trkpt>
      <trkpt lat="43.77909" lon="3.80735">
        <ele>494.4</ele>
        <time>2024-02-23T13:06:54Z</time>
      </trkpt>
      <trkpt lat="43.77909" lon="3.80735">
        <ele>493.8</ele>
        <time>2024-02-23T13:06:55Z</time>
      </trkpt>
      <trkpt lat="43.77909" lon="3.80735">
        <ele>493.4</ele>
        <time>2024-02-23T13:06:56Z</time>
      </trkpt>
      <trkpt lat="43.77909" lon="3.80738">
        <ele>493</ele>
        <time>2024-02-23T13:06:57Z</time>
      </trkpt>
      <trkpt lat="43.77909" lon="3.80738">
        <ele>492.6</ele>
        <time>2024-02-23T13:06:58Z</time>
      </trkpt>
      <trkpt lat="43.77909" lon="3.80738">
        <ele>492.2</ele>
        <time>2024-02-23T13:06:59Z</time>
      </trkpt>
      <trkpt lat="43.77909" lon="3.80738">
        <ele>492</ele>
        <time>2024-02-23T13:07:00Z</time>
      </trkpt>
      <trkpt lat="43.7791" lon="3.8074">
        <ele>491.6</ele>
        <time>2024-02-23T13:07:01Z</time>
      </trkpt>
      <trkpt lat="43.7791" lon="3.8074">
        <ele>491.4</ele>
        <time>2024-02-23T13:07:02Z</time>
      </trkpt>
      <trkpt lat="43.77912" lon="3.80743">
        <ele>491</ele>
        <time>2024-02-23T13:07:03Z</time>
      </trkpt>
      <trkpt lat="43.77912" lon="3.80743">
        <ele>490.6</ele>
        <time>2024-02-23T13:07:04Z</time>
      </trkpt>
      <trkpt lat="43.77912" lon="3.80743">
        <ele>490</ele>
        <time>2024-02-23T13:07:05Z</time>
      </trkpt>
      <trkpt lat="43.77914" lon="3.80744">
        <ele>489.6</ele>
        <time>2024-02-23T13:07:06Z</time>
      </trkpt>
      <trkpt lat="43.77914" lon="3.80744">
        <ele>489</ele>
        <time>2024-02-23T13:07:07Z</time>
      </trkpt>
      <trkpt lat="43.77915" lon="3.80746">
        <ele>488.4</ele>
        <time>2024-02-23T13:07:08Z</time>
      </trkpt>
      <trkpt lat="43.77915" lon="3.80746">
        <ele>487.8</ele>
        <time>2024-02-23T13:07:09Z</time>
      </trkpt>
      <trkpt lat="43.77915" lon="3.8075">
        <ele>487.4</ele>
        <time>2024-02-23T13:07:10Z</time>
      </trkpt>
      <trkpt lat="43.77915" lon="3.8075">
        <ele>487</ele>
        <time>2024-02-23T13:07:11Z</time>
      </trkpt>
      <trkpt lat="43.77915" lon="3.80754">
        <ele>486.6</ele>
        <time>2024-02-23T13:07:12Z</time>
      </trkpt>
      <trkpt lat="43.77915" lon="3.80754">
        <ele>486.4</ele>
        <time>2024-02-23T13:07:13Z</time>
      </trkpt>
      <trkpt lat="43.77915" lon="3.80754">
        <ele>486.4</ele>
        <time>2024-02-23T13:07:14Z</time>
      </trkpt>
      <trkpt lat="43.77915" lon="3.80758">
        <ele>486.2</ele>
        <time>2024-02-23T13:07:15Z</time>
      </trkpt>
      <trkpt lat="43.77915" lon="3.80758">
        <ele>486.4</ele>
        <time>2024-02-23T13:07:16Z</time>
      </trkpt>
      <trkpt lat="43.77915" lon="3.80761">
        <ele>486.4</ele>
        <time>2024-02-23T13:07:17Z</time>
      </trkpt>
      <trkpt lat="43.77915" lon="3.80761">
        <ele>486.6</ele>
        <time>2024-02-23T13:07:18Z</time>
      </trkpt>
      <trkpt lat="43.77916" lon="3.80765">
        <ele>486.8</ele>
        <time>2024-02-23T13:07:19Z</time>
      </trkpt>
      <trkpt lat="43.77916" lon="3.80765">
        <ele>487</ele>
        <time>2024-02-23T13:07:20Z</time>
      </trkpt>
      <trkpt lat="43.77917" lon="3.80768">
        <ele>487</ele>
        <time>2024-02-23T13:07:21Z</time>
      </trkpt>
      <trkpt lat="43.77917" lon="3.80768">
        <ele>487.2</ele>
        <time>2024-02-23T13:07:22Z</time>
      </trkpt>
      <trkpt lat="43.77917" lon="3.80768">
        <ele>487.2</ele>
        <time>2024-02-23T13:07:23Z</time>
      </trkpt>
      <trkpt lat="43.77918" lon="3.8077">
        <ele>487</ele>
        <time>2024-02-23T13:07:24Z</time>
      </trkpt>
      <trkpt lat="43.77918" lon="3.8077">
        <ele>486.8</ele>
        <time>2024-02-23T13:07:25Z</time>
      </trkpt>
      <trkpt lat="43.7792" lon="3.80771">
        <ele>486.6</ele>
        <time>2024-02-23T13:07:26Z</time>
      </trkpt>
      <trkpt lat="43.7792" lon="3.80771">
        <ele>486.2</ele>
        <time>2024-02-23T13:07:27Z</time>
      </trkpt>
      <trkpt lat="43.7792" lon="3.80771">
        <ele>486</ele>
        <time>2024-02-23T13:07:28Z</time>
      </trkpt>
      <trkpt lat="43.7792" lon="3.80771">
        <ele>485.8</ele>
        <time>2024-02-23T13:07:29Z</time>
      </trkpt>
      <trkpt lat="43.7792" lon="3.80771">
        <ele>485.4</ele>
        <time>2024-02-23T13:07:30Z</time>
      </trkpt>
      <trkpt lat="43.7792" lon="3.80771">
        <ele>485</ele>
        <time>2024-02-23T13:07:31Z</time>
      </trkpt>
      <trkpt lat="43.7792" lon="3.80771">
        <ele>484.8</ele>
        <time>2024-02-23T13:07:32Z</time>
      </trkpt>
      <trkpt lat="43.7792" lon="3.80771">
        <ele>484.6</ele>
        <time>2024-02-23T13:07:33Z</time>
      </trkpt>
      <trkpt lat="43.7792" lon="3.80771">
        <ele>484.2</ele>
        <time>2024-02-23T13:07:34Z</time>
      </trkpt>
      <trkpt lat="43.77922" lon="3.80772">
        <ele>484</ele>
        <time>2024-02-23T13:07:35Z</time>
      </trkpt>
      <trkpt lat="43.77922" lon="3.80772">
        <ele>483.4</ele>
        <time>2024-02-23T13:07:36Z</time>
      </trkpt>
      <trkpt lat="43.77922" lon="3.80772">
        <ele>483</ele>
        <time>2024-02-23T13:07:37Z</time>
      </trkpt>
      <trkpt lat="43.77922" lon="3.80772">
        <ele>482.4</ele>
        <time>2024-02-23T13:07:38Z</time>
      </trkpt>
      <trkpt lat="43.77924" lon="3.80773">
        <ele>482</ele>
        <time>2024-02-23T13:07:39Z</time>
      </trkpt>
      <trkpt lat="43.77924" lon="3.80773">
        <ele>481.6</ele>
        <time>2024-02-23T13:07:40Z</time>
      </trkpt>
      <trkpt lat="43.77924" lon="3.80773">
        <ele>481.4</ele>
        <time>2024-02-23T13:07:41Z</time>
      </trkpt>
      <trkpt lat="43.77924" lon="3.80773">
        <ele>481</ele>
        <time>2024-02-23T13:07:42Z</time>
      </trkpt>
      <trkpt lat="43.77924" lon="3.80773">
        <ele>480.8</ele>
        <time>2024-02-23T13:07:43Z</time>
      </trkpt>
      <trkpt lat="43.77924" lon="3.80773">
        <ele>480.6</ele>
        <time>2024-02-23T13:07:44Z</time>
      </trkpt>
      <trkpt lat="43.77924" lon="3.80773">
        <ele>480.4</ele>
        <time>2024-02-23T13:07:45Z</time>
      </trkpt>
      <trkpt lat="43.77924" lon="3.80773">
        <ele>480.4</ele>
        <time>2024-02-23T13:07:46Z</time>
      </trkpt>
      <trkpt lat="43.77924" lon="3.80773">
        <ele>480.4</ele>
        <time>2024-02-23T13:07:47Z</time>
      </trkpt>
      <trkpt lat="43.77924" lon="3.80773">
        <ele>480.2</ele>
        <time>2024-02-23T13:07:48Z</time>
      </trkpt>
      <trkpt lat="43.77924" lon="3.80773">
        <ele>480.2</ele>
        <time>2024-02-23T13:07:49Z</time>
      </trkpt>
      <trkpt lat="43.77924" lon="3.80773">
        <ele>479.8</ele>
        <time>2024-02-23T13:07:50Z</time>
      </trkpt>
      <trkpt lat="43.77924" lon="3.80773">
        <ele>479.4</ele>
        <time>2024-02-23T13:07:51Z</time>
      </trkpt>
      <trkpt lat="43.77924" lon="3.80773">
        <ele>479</ele>
        <time>2024-02-23T13:07:52Z</time>
      </trkpt>
      <trkpt lat="43.77924" lon="3.80773">
        <ele>478.6</ele>
        <time>2024-02-23T13:07:53Z</time>
      </trkpt>
      <trkpt lat="43.77925" lon="3.80775">
        <ele>478.2</ele>
        <time>2024-02-23T13:07:54Z</time>
      </trkpt>
      <trkpt lat="43.77925" lon="3.80775">
        <ele>477.8</ele>
        <time>2024-02-23T13:07:55Z</time>
      </trkpt>
      <trkpt lat="43.77925" lon="3.80775">
        <ele>477.6</ele>
        <time>2024-02-23T13:07:56Z</time>
      </trkpt>
      <trkpt lat="43.77925" lon="3.80775">
        <ele>477.6</ele>
        <time>2024-02-23T13:07:57Z</time>
      </trkpt>
      <trkpt lat="43.77925" lon="3.80775">
        <ele>477.4</ele>
        <time>2024-02-23T13:07:58Z</time>
      </trkpt>
      <trkpt lat="43.77925" lon="3.80775">
        <ele>477.2</ele>
        <time>2024-02-23T13:07:59Z</time>
      </trkpt>
      <trkpt lat="43.77925" lon="3.80775">
        <ele>476.8</ele>
        <time>2024-02-23T13:08:00Z</time>
      </trkpt>
      <trkpt lat="43.77925" lon="3.80775">
        <ele>476.6</ele>
        <time>2024-02-23T13:08:01Z</time>
      </trkpt>
      <trkpt lat="43.77925" lon="3.80775">
        <ele>476.2</ele>
        <time>2024-02-23T13:08:02Z</time>
      </trkpt>
      <trkpt lat="43.77927" lon="3.80773">
        <ele>476</ele>
        <time>2024-02-23T13:08:03Z</time>
      </trkpt>
      <trkpt lat="43.77927" lon="3.80773">
        <ele>475.6</ele>
        <time>2024-02-23T13:08:04Z</time>
      </trkpt>
      <trkpt lat="43.77927" lon="3.80773">
        <ele>475.2</ele>
        <time>2024-02-23T13:08:05Z</time>
      </trkpt>
      <trkpt lat="43.77927" lon="3.80773">
        <ele>474.8</ele>
        <time>2024-02-23T13:08:06Z</time>
      </trkpt>
      <trkpt lat="43.77927" lon="3.80773">
        <ele>474.4</ele>
        <time>2024-02-23T13:08:07Z</time>
      </trkpt>
      <trkpt lat="43.77927" lon="3.80773">
        <ele>473.8</ele>
        <time>2024-02-23T13:08:08Z</time>
      </trkpt>
      <trkpt lat="43.77927" lon="3.80773">
        <ele>473.4</ele>
        <time>2024-02-23T13:08:09Z</time>
      </trkpt>
      <trkpt lat="43.77927" lon="3.8077">
        <ele>472.8</ele>
        <time>2024-02-23T13:08:10Z</time>
      </trkpt>
      <trkpt lat="43.77927" lon="3.8077">
        <ele>472.2</ele>
        <time>2024-02-23T13:08:11Z</time>
      </trkpt>
      <trkpt lat="43.77927" lon="3.8077">
        <ele>471.6</ele>
        <time>2024-02-23T13:08:12Z</time>
      </trkpt>
      <trkpt lat="43.77925" lon="3.80769">
        <ele>471.2</ele>
        <time>2024-02-23T13:08:13Z</time>
      </trkpt>
      <trkpt lat="43.77925" lon="3.80769">
        <ele>470.6</ele>
        <time>2024-02-23T13:08:14Z</time>
      </trkpt>
      <trkpt lat="43.77925" lon="3.80769">
        <ele>470.2</ele>
        <time>2024-02-23T13:08:15Z</time>
      </trkpt>
      <trkpt lat="43.77925" lon="3.80769">
        <ele>470.2</ele>
        <time>2024-02-23T13:08:16Z</time>
      </trkpt>
      <trkpt lat="43.77925" lon="3.80769">
        <ele>470</ele>
        <time>2024-02-23T13:08:17Z</time>
      </trkpt>
      <trkpt lat="43.77925" lon="3.80769">
        <ele>469.6</ele>
        <time>2024-02-23T13:08:18Z</time>
      </trkpt>
      <trkpt lat="43.77925" lon="3.80767">
        <ele>469.2</ele>
        <time>2024-02-23T13:08:19Z</time>
      </trkpt>
      <trkpt lat="43.77925" lon="3.80767">
        <ele>468.8</ele>
        <time>2024-02-23T13:08:20Z</time>
      </trkpt>
      <trkpt lat="43.77925" lon="3.80767">
        <ele>468.6</ele>
        <time>2024-02-23T13:08:21Z</time>
      </trkpt>
      <trkpt lat="43.77927" lon="3.80765">
        <ele>468.2</ele>
        <time>2024-02-23T13:08:22Z</time>
      </trkpt>
      <trkpt lat="43.77927" lon="3.80765">
        <ele>467.8</ele>
        <time>2024-02-23T13:08:23Z</time>
      </trkpt>
      <trkpt lat="43.77927" lon="3.80765">
        <ele>467.4</ele>
        <time>2024-02-23T13:08:24Z</time>
      </trkpt>
      <trkpt lat="43.77927" lon="3.80762">
        <ele>467</ele>
        <time>2024-02-23T13:08:25Z</time>
      </trkpt>
      <trkpt lat="43.77927" lon="3.80762">
        <ele>466.4</ele>
        <time>2024-02-23T13:08:26Z</time>
      </trkpt>
      <trkpt lat="43.77927" lon="3.8076">
        <ele>465.8</ele>
        <time>2024-02-23T13:08:27Z</time>
      </trkpt>
      <trkpt lat="43.77927" lon="3.8076">
        <ele>465.4</ele>
        <time>2024-02-23T13:08:28Z</time>
      </trkpt>
      <trkpt lat="43.77927" lon="3.80756">
        <ele>464.8</ele>
        <time>2024-02-23T13:08:29Z</time>
      </trkpt>
      <trkpt lat="43.77927" lon="3.80756">
        <ele>464.2</ele>
        <time>2024-02-23T13:08:30Z</time>
      </trkpt>
      <trkpt lat="43.77927" lon="3.80752">
        <ele>463.4</ele>
        <time>2024-02-23T13:08:31Z</time>
      </trkpt>
      <trkpt lat="43.77927" lon="3.80752">
        <ele>462.8</ele>
        <time>2024-02-23T13:08:32Z</time>
      </trkpt>
      <trkpt lat="43.77927" lon="3.80752">
        <ele>462.4</ele>
        <time>2024-02-23T13:08:33Z</time>
      </trkpt>
      <trkpt lat="43.77927" lon="3.80752">
        <ele>461.8</ele>
        <time>2024-02-23T13:08:34Z</time>
      </trkpt>
      <trkpt lat="43.77928" lon="3.8075">
        <ele>461.2</ele>
        <time>2024-02-23T13:08:35Z</time>
      </trkpt>
      <trkpt lat="43.77928" lon="3.8075">
        <ele>460.6</ele>
        <time>2024-02-23T13:08:36Z</time>
      </trkpt>
      <trkpt lat="43.77928" lon="3.8075">
        <ele>460</ele>
        <time>2024-02-23T13:08:37Z</time>
      </trkpt>
      <trkpt lat="43.77928" lon="3.8075">
        <ele>459.4</ele>
        <time>2024-02-23T13:08:38Z</time>
      </trkpt>
      <trkpt lat="43.77928" lon="3.8075">
        <ele>458.8</ele>
        <time>2024-02-23T13:08:39Z</time>
      </trkpt>
      <trkpt lat="43.77928" lon="3.8075">
        <ele>458.4</ele>
        <time>2024-02-23T13:08:40Z</time>
      </trkpt>
      <trkpt lat="43.77928" lon="3.8075">
        <ele>458</ele>
        <time>2024-02-23T13:08:41Z</time>
      </trkpt>
      <trkpt lat="43.77928" lon="3.8075">
        <ele>457.8</ele>
        <time>2024-02-23T13:08:42Z</time>
      </trkpt>
      <trkpt lat="43.77928" lon="3.8075">
        <ele>457.4</ele>
        <time>2024-02-23T13:08:43Z</time>
      </trkpt>
      <trkpt lat="43.77928" lon="3.8075">
        <ele>457</ele>
        <time>2024-02-23T13:08:44Z</time>
      </trkpt>
      <trkpt lat="43.77928" lon="3.8075">
        <ele>456.6</ele>
        <time>2024-02-23T13:08:45Z</time>
      </trkpt>
      <trkpt lat="43.77929" lon="3.80753">
        <ele>456.2</ele>
        <time>2024-02-23T13:08:46Z</time>
      </trkpt>
      <trkpt lat="43.77929" lon="3.80753">
        <ele>455.6</ele>
        <time>2024-02-23T13:08:47Z</time>
      </trkpt>
      <trkpt lat="43.77929" lon="3.80753">
        <ele>455</ele>
        <time>2024-02-23T13:08:48Z</time>
      </trkpt>
      <trkpt lat="43.77927" lon="3.80755">
        <ele>454.6</ele>
        <time>2024-02-23T13:08:49Z</time>
      </trkpt>
      <trkpt lat="43.77927" lon="3.80755">
        <ele>454</ele>
        <time>2024-02-23T13:08:50Z</time>
      </trkpt>
      <trkpt lat="43.77927" lon="3.80755">
        <ele>453.4</ele>
        <time>2024-02-23T13:08:51Z</time>
      </trkpt>
      <trkpt lat="43.77927" lon="3.80755">
        <ele>452.8</ele>
        <time>2024-02-23T13:08:52Z</time>
      </trkpt>
      <trkpt lat="43.77927" lon="3.80755">
        <ele>452</ele>
        <time>2024-02-23T13:08:53Z</time>
      </trkpt>
      <trkpt lat="43.77927" lon="3.80755">
        <ele>451.4</ele>
        <time>2024-02-23T13:08:54Z</time>
      </trkpt>
      <trkpt lat="43.7793" lon="3.80755">
        <ele>451</ele>
        <time>2024-02-23T13:08:55Z</time>
      </trkpt>
      <trkpt lat="43.7793" lon="3.80755">
        <ele>450.6</ele>
        <time>2024-02-23T13:08:56Z</time>
      </trkpt>
      <trkpt lat="43.77932" lon="3.80757">
        <ele>450.4</ele>
        <time>2024-02-23T13:08:57Z</time>
      </trkpt>
      <trkpt lat="43.77932" lon="3.80757">
        <ele>450</ele>
        <time>2024-02-23T13:08:58Z</time>
      </trkpt>
      <trkpt lat="43.77932" lon="3.80757">
        <ele>449.6</ele>
        <time>2024-02-23T13:08:59Z</time>
      </trkpt>
      <trkpt lat="43.77934" lon="3.80757">
        <ele>449</ele>
        <time>2024-02-23T13:09:00Z</time>
      </trkpt>
      <trkpt lat="43.77934" lon="3.80757">
        <ele>448.4</ele>
        <time>2024-02-23T13:09:01Z</time>
      </trkpt>
      <trkpt lat="43.77934" lon="3.80757">
        <ele>448.2</ele>
        <time>2024-02-23T13:09:02Z</time>
      </trkpt>
      <trkpt lat="43.77934" lon="3.80757">
        <ele>448</ele>
        <time>2024-02-23T13:09:03Z</time>
      </trkpt>
      <trkpt lat="43.77932" lon="3.80756">
        <ele>447.8</ele>
        <time>2024-02-23T13:09:04Z</time>
      </trkpt>
      <trkpt lat="43.77932" lon="3.80756">
        <ele>447.6</ele>
        <time>2024-02-23T13:09:05Z</time>
      </trkpt>
      <trkpt lat="43.77932" lon="3.80756">
        <ele>447.2</ele>
        <time>2024-02-23T13:09:06Z</time>
      </trkpt>
      <trkpt lat="43.77933" lon="3.80755">
        <ele>447.2</ele>
        <time>2024-02-23T13:09:07Z</time>
      </trkpt>
      <trkpt lat="43.77933" lon="3.80755">
        <ele>447</ele>
        <time>2024-02-23T13:09:08Z</time>
      </trkpt>
      <trkpt lat="43.77933" lon="3.80755">
        <ele>447</ele>
        <time>2024-02-23T13:09:09Z</time>
      </trkpt>
      <trkpt lat="43.77933" lon="3.80755">
        <ele>447</ele>
        <time>2024-02-23T13:09:10Z</time>
      </trkpt>
      <trkpt lat="43.77933" lon="3.80755">
        <ele>446.8</ele>
        <time>2024-02-23T13:09:11Z</time>
      </trkpt>
      <trkpt lat="43.77934" lon="3.80753">
        <ele>446.4</ele>
        <time>2024-02-23T13:09:12Z</time>
      </trkpt>
      <trkpt lat="43.77934" lon="3.80753">
        <ele>446</ele>
        <time>2024-02-23T13:09:13Z</time>
      </trkpt>
      <trkpt lat="43.77934" lon="3.80753">
        <ele>445.8</ele>
        <time>2024-02-23T13:09:14Z</time>
      </trkpt>
      <trkpt lat="43.77934" lon="3.80753">
        <ele>445.4</ele>
        <time>2024-02-23T13:09:15Z</time>
      </trkpt>
      <trkpt lat="43.77936" lon="3.80752">
        <ele>445</ele>
        <time>2024-02-23T13:09:16Z</time>
      </trkpt>
      <trkpt lat="43.77936" lon="3.80752">
        <ele>444.6</ele>
        <time>2024-02-23T13:09:17Z</time>
      </trkpt>
      <trkpt lat="43.77936" lon="3.80752">
        <ele>444</ele>
        <time>2024-02-23T13:09:18Z</time>
      </trkpt>
      <trkpt lat="43.77937" lon="3.8075">
        <ele>443.6</ele>
        <time>2024-02-23T13:09:19Z</time>
      </trkpt>
      <trkpt lat="43.77937" lon="3.8075">
        <ele>443.2</ele>
        <time>2024-02-23T13:09:20Z</time>
      </trkpt>
      <trkpt lat="43.77937" lon="3.8075">
        <ele>442.8</ele>
        <time>2024-02-23T13:09:21Z</time>
      </trkpt>
      <trkpt lat="43.77937" lon="3.8075">
        <ele>442.4</ele>
        <time>2024-02-23T13:09:22Z</time>
      </trkpt>
      <trkpt lat="43.77937" lon="3.8075">
        <ele>442.2</ele>
        <time>2024-02-23T13:09:23Z</time>
      </trkpt>
      <trkpt lat="43.77939" lon="3.80748">
        <ele>442</ele>
        <time>2024-02-23T13:09:24Z</time>
      </trkpt>
      <trkpt lat="43.77939" lon="3.80748">
        <ele>441.8</ele>
        <time>2024-02-23T13:09:25Z</time>
      </trkpt>
      <trkpt lat="43.77941" lon="3.80748">
        <ele>441.6</ele>
        <time>2024-02-23T13:09:26Z</time>
      </trkpt>
      <trkpt lat="43.77941" lon="3.80748">
        <ele>441.2</ele>
        <time>2024-02-23T13:09:27Z</time>
      </trkpt>
      <trkpt lat="43.77941" lon="3.80748">
        <ele>441</ele>
        <time>2024-02-23T13:09:28Z</time>
      </trkpt>
      <trkpt lat="43.77941" lon="3.80748">
        <ele>440.6</ele>
        <time>2024-02-23T13:09:29Z</time>
      </trkpt>
      <trkpt lat="43.77941" lon="3.80748">
        <ele>440.2</ele>
        <time>2024-02-23T13:09:30Z</time>
      </trkpt>
      <trkpt lat="43.77941" lon="3.80748">
        <ele>439.6</ele>
        <time>2024-02-23T13:09:31Z</time>
      </trkpt>
      <trkpt lat="43.77942" lon="3.80746">
        <ele>439.2</ele>
        <time>2024-02-23T13:09:32Z</time>
      </trkpt>
      <trkpt lat="43.77942" lon="3.80746">
        <ele>438.8</ele>
        <time>2024-02-23T13:09:33Z</time>
      </trkpt>
      <trkpt lat="43.77942" lon="3.80746">
        <ele>438.6</ele>
        <time>2024-02-23T13:09:34Z</time>
      </trkpt>
      <trkpt lat="43.77943" lon="3.80744">
        <ele>438.2</ele>
        <time>2024-02-23T13:09:35Z</time>
      </trkpt>
      <trkpt lat="43.77943" lon="3.80744">
        <ele>438</ele>
        <time>2024-02-23T13:09:36Z</time>
      </trkpt>
      <trkpt lat="43.77943" lon="3.80744">
        <ele>438</ele>
        <time>2024-02-23T13:09:37Z</time>
      </trkpt>
      <trkpt lat="43.77943" lon="3.80744">
        <ele>438</ele>
        <time>2024-02-23T13:09:38Z</time>
      </trkpt>
      <trkpt lat="43.77943" lon="3.80744">
        <ele>437.8</ele>
        <time>2024-02-23T13:09:39Z</time>
      </trkpt>
      <trkpt lat="43.77943" lon="3.80744">
        <ele>437.4</ele>
        <time>2024-02-23T13:09:40Z</time>
      </trkpt>
      <trkpt lat="43.77943" lon="3.80744">
        <ele>437.2</ele>
        <time>2024-02-23T13:09:41Z</time>
      </trkpt>
      <trkpt lat="43.77943" lon="3.80744">
        <ele>436.8</ele>
        <time>2024-02-23T13:09:42Z</time>
      </trkpt>
      <trkpt lat="43.77943" lon="3.80744">
        <ele>436.8</ele>
        <time>2024-02-23T13:09:43Z</time>
      </trkpt>
      <trkpt lat="43.77943" lon="3.80744">
        <ele>436.6</ele>
        <time>2024-02-23T13:09:44Z</time>
      </trkpt>
      <trkpt lat="43.77943" lon="3.80741">
        <ele>436.6</ele>
        <time>2024-02-23T13:09:45Z</time>
      </trkpt>
      <trkpt lat="43.77943" lon="3.80741">
        <ele>436.6</ele>
        <time>2024-02-23T13:09:46Z</time>
      </trkpt>
      <trkpt lat="43.77943" lon="3.80741">
        <ele>436.4</ele>
        <time>2024-02-23T13:09:47Z</time>
      </trkpt>
      <trkpt lat="43.77943" lon="3.80741">
        <ele>436.2</ele>
        <time>2024-02-23T13:09:48Z</time>
      </trkpt>
      <trkpt lat="43.77943" lon="3.80741">
        <ele>436</ele>
        <time>2024-02-23T13:09:49Z</time>
      </trkpt>
      <trkpt lat="43.77943" lon="3.80741">
        <ele>435.6</ele>
        <time>2024-02-23T13:09:50Z</time>
      </trkpt>
      <trkpt lat="43.77943" lon="3.80741">
        <ele>435.2</ele>
        <time>2024-02-23T13:09:51Z</time>
      </trkpt>
      <trkpt lat="43.77943" lon="3.80741">
        <ele>435</ele>
        <time>2024-02-23T13:09:52Z</time>
      </trkpt>
      <trkpt lat="43.77943" lon="3.80741">
        <ele>434.6</ele>
        <time>2024-02-23T13:09:53Z</time>
      </trkpt>
      <trkpt lat="43.77943" lon="3.80741">
        <ele>434.2</ele>
        <time>2024-02-23T13:09:54Z</time>
      </trkpt>
      <trkpt lat="43.77943" lon="3.80741">
        <ele>433.8</ele>
        <time>2024-02-23T13:09:55Z</time>
      </trkpt>
      <trkpt lat="43.77943" lon="3.80741">
        <ele>433.6</ele>
        <time>2024-02-23T13:09:56Z</time>
      </trkpt>
      <trkpt lat="43.77945" lon="3.80742">
        <ele>433.2</ele>
        <time>2024-02-23T13:09:57Z</time>
      </trkpt>
      <trkpt lat="43.77945" lon="3.80742">
        <ele>432.8</ele>
        <time>2024-02-23T13:09:58Z</time>
      </trkpt>
      <trkpt lat="43.77945" lon="3.80742">
        <ele>432.6</ele>
        <time>2024-02-23T13:09:59Z</time>
      </trkpt>
      <trkpt lat="43.77945" lon="3.80742">
        <ele>432.2</ele>
        <time>2024-02-23T13:10:00Z</time>
      </trkpt>
      <trkpt lat="43.77947" lon="3.80745">
        <ele>431.8</ele>
        <time>2024-02-23T13:10:01Z</time>
      </trkpt>
      <trkpt lat="43.77947" lon="3.80745">
        <ele>431.4</ele>
        <time>2024-02-23T13:10:02Z</time>
      </trkpt>
      <trkpt lat="43.77947" lon="3.80745">
        <ele>430.8</ele>
        <time>2024-02-23T13:10:03Z</time>
      </trkpt>
      <trkpt lat="43.77945" lon="3.80748">
        <ele>430.4</ele>
        <time>2024-02-23T13:10:04Z</time>
      </trkpt>
      <trkpt lat="43.77945" lon="3.80748">
        <ele>430</ele>
        <time>2024-02-23T13:10:05Z</time>
      </trkpt>
      <trkpt lat="43.77945" lon="3.80748">
        <ele>429.8</ele>
        <time>2024-02-23T13:10:06Z</time>
      </trkpt>
      <trkpt lat="43.77945" lon="3.80748">
        <ele>429.4</ele>
        <time>2024-02-23T13:10:07Z</time>
      </trkpt>
      <trkpt lat="43.77945" lon="3.80748">
        <ele>429</ele>
        <time>2024-02-23T13:10:08Z</time>
      </trkpt>
      <trkpt lat="43.77945" lon="3.80748">
        <ele>428.6</ele>
        <time>2024-02-23T13:10:09Z</time>
      </trkpt>
      <trkpt lat="43.77946" lon="3.8075">
        <ele>428</ele>
        <time>2024-02-23T13:10:10Z</time>
      </trkpt>
      <trkpt lat="43.77946" lon="3.8075">
        <ele>427.4</ele>
        <time>2024-02-23T13:10:11Z</time>
      </trkpt>
      <trkpt lat="43.77946" lon="3.8075">
        <ele>427</ele>
        <time>2024-02-23T13:10:12Z</time>
      </trkpt>
      <trkpt lat="43.77948" lon="3.80751">
        <ele>426.6</ele>
        <time>2024-02-23T13:10:13Z</time>
      </trkpt>
      <trkpt lat="43.77948" lon="3.80751">
        <ele>426.2</ele>
        <time>2024-02-23T13:10:14Z</time>
      </trkpt>
      <trkpt lat="43.7795" lon="3.80751">
        <ele>425.6</ele>
        <time>2024-02-23T13:10:15Z</time>
      </trkpt>
      <trkpt lat="43.77952" lon="3.80752">
        <ele>425</ele>
        <time>2024-02-23T13:10:16Z</time>
      </trkpt>
      <trkpt lat="43.77952" lon="3.80752">
        <ele>424.4</ele>
        <time>2024-02-23T13:10:17Z</time>
      </trkpt>
      <trkpt lat="43.77955" lon="3.80752">
        <ele>423.8</ele>
        <time>2024-02-23T13:10:18Z</time>
      </trkpt>
      <trkpt lat="43.77957" lon="3.80752">
        <ele>423.2</ele>
        <time>2024-02-23T13:10:19Z</time>
      </trkpt>
      <trkpt lat="43.77958" lon="3.80752">
        <ele>422.8</ele>
        <time>2024-02-23T13:10:20Z</time>
      </trkpt>
      <trkpt lat="43.77958" lon="3.80752">
        <ele>422.4</ele>
        <time>2024-02-23T13:10:21Z</time>
      </trkpt>
      <trkpt lat="43.77958" lon="3.80752">
        <ele>422</ele>
        <time>2024-02-23T13:10:22Z</time>
      </trkpt>
      <trkpt lat="43.77958" lon="3.80752">
        <ele>421.6</ele>
        <time>2024-02-23T13:10:23Z</time>
      </trkpt>
      <trkpt lat="43.7796" lon="3.80752">
        <ele>421.2</ele>
        <time>2024-02-23T13:10:24Z</time>
      </trkpt>
      <trkpt lat="43.7796" lon="3.80752">
        <ele>420.8</ele>
        <time>2024-02-23T13:10:25Z</time>
      </trkpt>
      <trkpt lat="43.7796" lon="3.80752">
        <ele>420.2</ele>
        <time>2024-02-23T13:10:26Z</time>
      </trkpt>
      <trkpt lat="43.7796" lon="3.80752">
        <ele>419.6</ele>
        <time>2024-02-23T13:10:27Z</time>
      </trkpt>
      <trkpt lat="43.7796" lon="3.80752">
        <ele>419.2</ele>
        <time>2024-02-23T13:10:28Z</time>
      </trkpt>
      <trkpt lat="43.7796" lon="3.80752">
        <ele>418.8</ele>
        <time>2024-02-23T13:10:29Z</time>
      </trkpt>
      <trkpt lat="43.7796" lon="3.80752">
        <ele>418.2</ele>
        <time>2024-02-23T13:10:30Z</time>
      </trkpt>
      <trkpt lat="43.7796" lon="3.80752">
        <ele>417.8</ele>
        <time>2024-02-23T13:10:31Z</time>
      </trkpt>
      <trkpt lat="43.7796" lon="3.80752">
        <ele>417.6</ele>
        <time>2024-02-23T13:10:32Z</time>
      </trkpt>
      <trkpt lat="43.7796" lon="3.80752">
        <ele>417.2</ele>
        <time>2024-02-23T13:10:33Z</time>
      </trkpt>
      <trkpt lat="43.7796" lon="3.80752">
        <ele>417</ele>
        <time>2024-02-23T13:10:34Z</time>
      </trkpt>
      <trkpt lat="43.7796" lon="3.80752">
        <ele>416.6</ele>
        <time>2024-02-23T13:10:35Z</time>
      </trkpt>
      <trkpt lat="43.7796" lon="3.80752">
        <ele>416</ele>
        <time>2024-02-23T13:10:36Z</time>
      </trkpt>
      <trkpt lat="43.7796" lon="3.80752">
        <ele>415.6</ele>
        <time>2024-02-23T13:10:37Z</time>
      </trkpt>
      <trkpt lat="43.7796" lon="3.80752">
        <ele>415</ele>
        <time>2024-02-23T13:10:38Z</time>
      </trkpt>
      <trkpt lat="43.7796" lon="3.80752">
        <ele>414.4</ele>
        <time>2024-02-23T13:10:39Z</time>
      </trkpt>
      <trkpt lat="43.77962" lon="3.80752">
        <ele>414</ele>
        <time>2024-02-23T13:10:40Z</time>
      </trkpt>
      <trkpt lat="43.77962" lon="3.80752">
        <ele>413.6</ele>
        <time>2024-02-23T13:10:41Z</time>
      </trkpt>
      <trkpt lat="43.77962" lon="3.80752">
        <ele>413.2</ele>
        <time>2024-02-23T13:10:42Z</time>
      </trkpt>
      <trkpt lat="43.77962" lon="3.80752">
        <ele>412.8</ele>
        <time>2024-02-23T13:10:43Z</time>
      </trkpt>
      <trkpt lat="43.77962" lon="3.80752">
        <ele>412.2</ele>
        <time>2024-02-23T13:10:44Z</time>
      </trkpt>
      <trkpt lat="43.77962" lon="3.80752">
        <ele>411.6</ele>
        <time>2024-02-23T13:10:45Z</time>
      </trkpt>
      <trkpt lat="43.77961" lon="3.80749">
        <ele>411</ele>
        <time>2024-02-23T13:10:46Z</time>
      </trkpt>
      <trkpt lat="43.77961" lon="3.80749">
        <ele>410.4</ele>
        <time>2024-02-23T13:10:47Z</time>
      </trkpt>
      <trkpt lat="43.77961" lon="3.80749">
        <ele>410</ele>
        <time>2024-02-23T13:10:48Z</time>
      </trkpt>
      <trkpt lat="43.77961" lon="3.80749">
        <ele>409.6</ele>
        <time>2024-02-23T13:10:49Z</time>
      </trkpt>
      <trkpt lat="43.77961" lon="3.80749">
        <ele>409</ele>
        <time>2024-02-23T13:10:50Z</time>
      </trkpt>
      <trkpt lat="43.77961" lon="3.80749">
        <ele>408.6</ele>
        <time>2024-02-23T13:10:51Z</time>
      </trkpt>
      <trkpt lat="43.77961" lon="3.80749">
        <ele>408.4</ele>
        <time>2024-02-23T13:10:52Z</time>
      </trkpt>
      <trkpt lat="43.77961" lon="3.80749">
        <ele>408.2</ele>
        <time>2024-02-23T13:10:53Z</time>
      </trkpt>
      <trkpt lat="43.77961" lon="3.80749">
        <ele>407.8</ele>
        <time>2024-02-23T13:10:54Z</time>
      </trkpt>
      <trkpt lat="43.77961" lon="3.80749">
        <ele>407.6</ele>
        <time>2024-02-23T13:10:55Z</time>
      </trkpt>
      <trkpt lat="43.77965" lon="3.80747">
        <ele>407.4</ele>
        <time>2024-02-23T13:10:56Z</time>
      </trkpt>
      <trkpt lat="43.77965" lon="3.80747">
        <ele>407.2</ele>
        <time>2024-02-23T13:10:57Z</time>
      </trkpt>
      <trkpt lat="43.77966" lon="3.80747">
        <ele>406.6</ele>
        <time>2024-02-23T13:10:58Z</time>
      </trkpt>
      <trkpt lat="43.77966" lon="3.80747">
        <ele>406.2</ele>
        <time>2024-02-23T13:10:59Z</time>
      </trkpt>
      <trkpt lat="43.77966" lon="3.80747">
        <ele>406</ele>
        <time>2024-02-23T13:11:00Z</time>
      </trkpt>
      <trkpt lat="43.77966" lon="3.80747">
        <ele>405.6</ele>
        <time>2024-02-23T13:11:01Z</time>
      </trkpt>
      <trkpt lat="43.77968" lon="3.80746">
        <ele>405</ele>
        <time>2024-02-23T13:11:02Z</time>
      </trkpt>
      <trkpt lat="43.77968" lon="3.80746">
        <ele>404.6</ele>
        <time>2024-02-23T13:11:03Z</time>
      </trkpt>
      <trkpt lat="43.77968" lon="3.80746">
        <ele>404.2</ele>
        <time>2024-02-23T13:11:04Z</time>
      </trkpt>
      <trkpt lat="43.7797" lon="3.80744">
        <ele>403.6</ele>
        <time>2024-02-23T13:11:05Z</time>
      </trkpt>
      <trkpt lat="43.7797" lon="3.80744">
        <ele>403.2</ele>
        <time>2024-02-23T13:11:06Z</time>
      </trkpt>
      <trkpt lat="43.7797" lon="3.80744">
        <ele>402.8</ele>
        <time>2024-02-23T13:11:07Z</time>
      </trkpt>
      <trkpt lat="43.7797" lon="3.80744">
        <ele>402.4</ele>
        <time>2024-02-23T13:11:08Z</time>
      </trkpt>
      <trkpt lat="43.7797" lon="3.80744">
        <ele>401.8</ele>
        <time>2024-02-23T13:11:09Z</time>
      </trkpt>
      <trkpt lat="43.7797" lon="3.80744">
        <ele>401.4</ele>
        <time>2024-02-23T13:11:10Z</time>
      </trkpt>
      <trkpt lat="43.7797" lon="3.80744">
        <ele>400.8</ele>
        <time>2024-02-23T13:11:11Z</time>
      </trkpt>
      <trkpt lat="43.77972" lon="3.80742">
        <ele>400.2</ele>
        <time>2024-02-23T13:11:12Z</time>
      </trkpt>
      <trkpt lat="43.77972" lon="3.80742">
        <ele>399.6</ele>
        <time>2024-02-23T13:11:13Z</time>
      </trkpt>
      <trkpt lat="43.77972" lon="3.80742">
        <ele>399</ele>
        <time>2024-02-23T13:11:14Z</time>
      </trkpt>
      <trkpt lat="43.77975" lon="3.80741">
        <ele>398.4</ele>
        <time>2024-02-23T13:11:15Z</time>
      </trkpt>
      <trkpt lat="43.77975" lon="3.80741">
        <ele>397.8</ele>
        <time>2024-02-23T13:11:16Z</time>
      </trkpt>
      <trkpt lat="43.77975" lon="3.80741">
        <ele>397.2</ele>
        <time>2024-02-23T13:11:17Z</time>
      </trkpt>
      <trkpt lat="43.77975" lon="3.80738">
        <ele>396.6</ele>
        <time>2024-02-23T13:11:18Z</time>
      </trkpt>
      <trkpt lat="43.77975" lon="3.80738">
        <ele>396</ele>
        <time>2024-02-23T13:11:19Z</time>
      </trkpt>
      <trkpt lat="43.77976" lon="3.80733">
        <ele>395.6</ele>
        <time>2024-02-23T13:11:20Z</time>
      </trkpt>
      <trkpt lat="43.77976" lon="3.80733">
        <ele>395</ele>
        <time>2024-02-23T13:11:21Z</time>
      </trkpt>
      <trkpt lat="43.77976" lon="3.80733">
        <ele>394.6</ele>
        <time>2024-02-23T13:11:22Z</time>
      </trkpt>
      <trkpt lat="43.77976" lon="3.80733">
        <ele>393.8</ele>
        <time>2024-02-23T13:11:23Z</time>
      </trkpt>
      <trkpt lat="43.77976" lon="3.80733">
        <ele>393.2</ele>
        <time>2024-02-23T13:11:24Z</time>
      </trkpt>
      <trkpt lat="43.77979" lon="3.80733">
        <ele>392.6</ele>
        <time>2024-02-23T13:11:25Z</time>
      </trkpt>
      <trkpt lat="43.77979" lon="3.80733">
        <ele>392.2</ele>
        <time>2024-02-23T13:11:26Z</time>
      </trkpt>
      <trkpt lat="43.77979" lon="3.80733">
        <ele>391.8</ele>
        <time>2024-02-23T13:11:27Z</time>
      </trkpt>
      <trkpt lat="43.7798" lon="3.8073">
        <ele>391.4</ele>
        <time>2024-02-23T13:11:28Z</time>
      </trkpt>
      <trkpt lat="43.7798" lon="3.8073">
        <ele>391</ele>
        <time>2024-02-23T13:11:29Z</time>
      </trkpt>
      <trkpt lat="43.77981" lon="3.80726">
        <ele>390.8</ele>
        <time>2024-02-23T13:11:30Z</time>
      </trkpt>
      <trkpt lat="43.77981" lon="3.80726">
        <ele>390.2</ele>
        <time>2024-02-23T13:11:31Z</time>
      </trkpt>
      <trkpt lat="43.7798" lon="3.80722">
        <ele>389.8</ele>
        <time>2024-02-23T13:11:32Z</time>
      </trkpt>
      <trkpt lat="43.77981" lon="3.80721">
        <ele>389.4</ele>
        <time>2024-02-23T13:11:33Z</time>
      </trkpt>
      <trkpt lat="43.77984" lon="3.80721">
        <ele>388.8</ele>
        <time>2024-02-23T13:11:34Z</time>
      </trkpt>
      <trkpt lat="43.77986" lon="3.80721">
        <ele>388.2</ele>
        <time>2024-02-23T13:11:35Z</time>
      </trkpt>
      <trkpt lat="43.77988" lon="3.80721">
        <ele>387.6</ele>
        <time>2024-02-23T13:11:36Z</time>
      </trkpt>
      <trkpt lat="43.7799" lon="3.80721">
        <ele>387.2</ele>
        <time>2024-02-23T13:11:37Z</time>
      </trkpt>
      <trkpt lat="43.77992" lon="3.80721">
        <ele>386.6</ele>
        <time>2024-02-23T13:11:38Z</time>
      </trkpt>
      <trkpt lat="43.77992" lon="3.80721">
        <ele>386</ele>
        <time>2024-02-23T13:11:39Z</time>
      </trkpt>
      <trkpt lat="43.77994" lon="3.80722">
        <ele>385.2</ele>
        <time>2024-02-23T13:11:40Z</time>
      </trkpt>
      <trkpt lat="43.77994" lon="3.80722">
        <ele>384.6</ele>
        <time>2024-02-23T13:11:41Z</time>
      </trkpt>
      <trkpt lat="43.77994" lon="3.80722">
        <ele>384</ele>
        <time>2024-02-23T13:11:42Z</time>
      </trkpt>
      <trkpt lat="43.77997" lon="3.80722">
        <ele>383.2</ele>
        <time>2024-02-23T13:11:43Z</time>
      </trkpt>
      <trkpt lat="43.77999" lon="3.80722">
        <ele>382.6</ele>
        <time>2024-02-23T13:11:44Z</time>
      </trkpt>
      <trkpt lat="43.77999" lon="3.80722">
        <ele>381.8</ele>
        <time>2024-02-23T13:11:45Z</time>
      </trkpt>
      <trkpt lat="43.78002" lon="3.80721">
        <ele>381</ele>
        <time>2024-02-23T13:11:46Z</time>
      </trkpt>
      <trkpt lat="43.78004" lon="3.80722">
        <ele>380.2</ele>
        <time>2024-02-23T13:11:47Z</time>
      </trkpt>
      <trkpt lat="43.78004" lon="3.80722">
        <ele>379.6</ele>
        <time>2024-02-23T13:11:48Z</time>
      </trkpt>
      <trkpt lat="43.78004" lon="3.80722">
        <ele>378.8</ele>
        <time>2024-02-23T13:11:49Z</time>
      </trkpt>
      <trkpt lat="43.78007" lon="3.80725">
        <ele>378</ele>
        <time>2024-02-23T13:11:50Z</time>
      </trkpt>
      <trkpt lat="43.78007" lon="3.80725">
        <ele>377.2</ele>
        <time>2024-02-23T13:11:51Z</time>
      </trkpt>
      <trkpt lat="43.78009" lon="3.80726">
        <ele>376.2</ele>
        <time>2024-02-23T13:11:52Z</time>
      </trkpt>
      <trkpt lat="43.78009" lon="3.80726">
        <ele>375.2</ele>
        <time>2024-02-23T13:11:53Z</time>
      </trkpt>
      <trkpt lat="43.78012" lon="3.80727">
        <ele>374.2</ele>
        <time>2024-02-23T13:11:54Z</time>
      </trkpt>
      <trkpt lat="43.78015" lon="3.80729">
        <ele>373.4</ele>
        <time>2024-02-23T13:11:55Z</time>
      </trkpt>
      <trkpt lat="43.78015" lon="3.80729">
        <ele>372.4</ele>
        <time>2024-02-23T13:11:56Z</time>
      </trkpt>
      <trkpt lat="43.78018" lon="3.8073">
        <ele>371.6</ele>
        <time>2024-02-23T13:11:57Z</time>
      </trkpt>
      <trkpt lat="43.7802" lon="3.80731">
        <ele>370.8</ele>
        <time>2024-02-23T13:11:58Z</time>
      </trkpt>
      <trkpt lat="43.78022" lon="3.80733">
        <ele>370</ele>
        <time>2024-02-23T13:11:59Z</time>
      </trkpt>
      <trkpt lat="43.78022" lon="3.80733">
        <ele>369.2</ele>
        <time>2024-02-23T13:12:00Z</time>
      </trkpt>
      <trkpt lat="43.78023" lon="3.80737">
        <ele>368.4</ele>
        <time>2024-02-23T13:12:01Z</time>
      </trkpt>
      <trkpt lat="43.78024" lon="3.80739">
        <ele>367.8</ele>
        <time>2024-02-23T13:12:02Z</time>
      </trkpt>
      <trkpt lat="43.78024" lon="3.80739">
        <ele>367.2</ele>
        <time>2024-02-23T13:12:03Z</time>
      </trkpt>
      <trkpt lat="43.78026" lon="3.8074">
        <ele>366.6</ele>
        <time>2024-02-23T13:12:04Z</time>
      </trkpt>
      <trkpt lat="43.78026" lon="3.8074">
        <ele>366</ele>
        <time>2024-02-23T13:12:05Z</time>
      </trkpt>
      <trkpt lat="43.78029" lon="3.8074">
        <ele>365.2</ele>
        <time>2024-02-23T13:12:06Z</time>
      </trkpt>
      <trkpt lat="43.78029" lon="3.8074">
        <ele>364.4</ele>
        <time>2024-02-23T13:12:07Z</time>
      </trkpt>
      <trkpt lat="43.78031" lon="3.80737">
        <ele>363.8</ele>
        <time>2024-02-23T13:12:08Z</time>
      </trkpt>
      <trkpt lat="43.78031" lon="3.80737">
        <ele>363</ele>
        <time>2024-02-23T13:12:09Z</time>
      </trkpt>
      <trkpt lat="43.78033" lon="3.80735">
        <ele>362.4</ele>
        <time>2024-02-23T13:12:10Z</time>
      </trkpt>
      <trkpt lat="43.78033" lon="3.80735">
        <ele>361.6</ele>
        <time>2024-02-23T13:12:11Z</time>
      </trkpt>
      <trkpt lat="43.78036" lon="3.80734">
        <ele>360.8</ele>
        <time>2024-02-23T13:12:12Z</time>
      </trkpt>
      <trkpt lat="43.78038" lon="3.80733">
        <ele>360</ele>
        <time>2024-02-23T13:12:13Z</time>
      </trkpt>
      <trkpt lat="43.7804" lon="3.80732">
        <ele>359.2</ele>
        <time>2024-02-23T13:12:14Z</time>
      </trkpt>
      <trkpt lat="43.78042" lon="3.8073">
        <ele>358.4</ele>
        <time>2024-02-23T13:12:15Z</time>
      </trkpt>
      <trkpt lat="43.78044" lon="3.80729">
        <ele>357.4</ele>
        <time>2024-02-23T13:12:16Z</time>
      </trkpt>
      <trkpt lat="43.78046" lon="3.80727">
        <ele>356.6</ele>
        <time>2024-02-23T13:12:17Z</time>
      </trkpt>
      <trkpt lat="43.78049" lon="3.80725">
        <ele>356</ele>
        <time>2024-02-23T13:12:18Z</time>
      </trkpt>
      <trkpt lat="43.78051" lon="3.80724">
        <ele>355.4</ele>
        <time>2024-02-23T13:12:19Z</time>
      </trkpt>
      <trkpt lat="43.78051" lon="3.80724">
        <ele>354.8</ele>
        <time>2024-02-23T13:12:20Z</time>
      </trkpt>
      <trkpt lat="43.78052" lon="3.80723">
        <ele>354</ele>
        <time>2024-02-23T13:12:21Z</time>
      </trkpt>
      <trkpt lat="43.78052" lon="3.80723">
        <ele>353.4</ele>
        <time>2024-02-23T13:12:22Z</time>
      </trkpt>
      <trkpt lat="43.78052" lon="3.80723">
        <ele>352.6</ele>
        <time>2024-02-23T13:12:23Z</time>
      </trkpt>
      <trkpt lat="43.78056" lon="3.80721">
        <ele>351.8</ele>
        <time>2024-02-23T13:12:24Z</time>
      </trkpt>
      <trkpt lat="43.78056" lon="3.80721">
        <ele>351.2</ele>
        <time>2024-02-23T13:12:25Z</time>
      </trkpt>
      <trkpt lat="43.78058" lon="3.80719">
        <ele>350.4</ele>
        <time>2024-02-23T13:12:26Z</time>
      </trkpt>
      <trkpt lat="43.78058" lon="3.80719">
        <ele>349.8</ele>
        <time>2024-02-23T13:12:27Z</time>
      </trkpt>
      <trkpt lat="43.7806" lon="3.80717">
        <ele>349</ele>
        <time>2024-02-23T13:12:28Z</time>
      </trkpt>
      <trkpt lat="43.78061" lon="3.80716">
        <ele>348.4</ele>
        <time>2024-02-23T13:12:29Z</time>
      </trkpt>
      <trkpt lat="43.78061" lon="3.80716">
        <ele>347.8</ele>
        <time>2024-02-23T13:12:30Z</time>
      </trkpt>
      <trkpt lat="43.78064" lon="3.80713">
        <ele>347</ele>
        <time>2024-02-23T13:12:31Z</time>
      </trkpt>
      <trkpt lat="43.78066" lon="3.80712">
        <ele>346.2</ele>
        <time>2024-02-23T13:12:32Z</time>
      </trkpt>
      <trkpt lat="43.78066" lon="3.80712">
        <ele>345.6</ele>
        <time>2024-02-23T13:12:33Z</time>
      </trkpt>
      <trkpt lat="43.78068" lon="3.80711">
        <ele>344.8</ele>
        <time>2024-02-23T13:12:34Z</time>
      </trkpt>
      <trkpt lat="43.78068" lon="3.80711">
        <ele>344.2</ele>
        <time>2024-02-23T13:12:35Z</time>
      </trkpt>
      <trkpt lat="43.7807" lon="3.80712">
        <ele>343.4</ele>
        <time>2024-02-23T13:12:36Z</time>
      </trkpt>
      <trkpt lat="43.78072" lon="3.80712">
        <ele>342.8</ele>
        <time>2024-02-23T13:12:37Z</time>
      </trkpt>
      <trkpt lat="43.78074" lon="3.80711">
        <ele>342.2</ele>
        <time>2024-02-23T13:12:38Z</time>
      </trkpt>
      <trkpt lat="43.78076" lon="3.80711">
        <ele>341.4</ele>
        <time>2024-02-23T13:12:39Z</time>
      </trkpt>
      <trkpt lat="43.78076" lon="3.80711">
        <ele>340.6</ele>
        <time>2024-02-23T13:12:40Z</time>
      </trkpt>
      <trkpt lat="43.78079" lon="3.80712">
        <ele>339.8</ele>
        <time>2024-02-23T13:12:41Z</time>
      </trkpt>
      <trkpt lat="43.78079" lon="3.80712">
        <ele>339</ele>
        <time>2024-02-23T13:12:42Z</time>
      </trkpt>
      <trkpt lat="43.78082" lon="3.80714">
        <ele>338.4</ele>
        <time>2024-02-23T13:12:43Z</time>
      </trkpt>
      <trkpt lat="43.78082" lon="3.80714">
        <ele>337.6</ele>
        <time>2024-02-23T13:12:44Z</time>
      </trkpt>
      <trkpt lat="43.78084" lon="3.80717">
        <ele>337</ele>
        <time>2024-02-23T13:12:45Z</time>
      </trkpt>
      <trkpt lat="43.78084" lon="3.80717">
        <ele>336.2</ele>
        <time>2024-02-23T13:12:46Z</time>
      </trkpt>
      <trkpt lat="43.78084" lon="3.80717">
        <ele>335.6</ele>
        <time>2024-02-23T13:12:47Z</time>
      </trkpt>
      <trkpt lat="43.78087" lon="3.80716">
        <ele>335</ele>
        <time>2024-02-23T13:12:48Z</time>
      </trkpt>
      <trkpt lat="43.78089" lon="3.80714">
        <ele>334.2</ele>
        <time>2024-02-23T13:12:49Z</time>
      </trkpt>
      <trkpt lat="43.78092" lon="3.80713">
        <ele>333.6</ele>
        <time>2024-02-23T13:12:50Z</time>
      </trkpt>
      <trkpt lat="43.78093" lon="3.80712">
        <ele>332.8</ele>
        <time>2024-02-23T13:12:51Z</time>
      </trkpt>
      <trkpt lat="43.78095" lon="3.80711">
        <ele>332.2</ele>
        <time>2024-02-23T13:12:52Z</time>
      </trkpt>
      <trkpt lat="43.78097" lon="3.80711">
        <ele>331.4</ele>
        <time>2024-02-23T13:12:53Z</time>
      </trkpt>
      <trkpt lat="43.781" lon="3.80711">
        <ele>330.8</ele>
        <time>2024-02-23T13:12:54Z</time>
      </trkpt>
      <trkpt lat="43.78102" lon="3.80711">
        <ele>330</ele>
        <time>2024-02-23T13:12:55Z</time>
      </trkpt>
      <trkpt lat="43.78102" lon="3.80711">
        <ele>329.4</ele>
        <time>2024-02-23T13:12:56Z</time>
      </trkpt>
      <trkpt lat="43.78102" lon="3.80711">
        <ele>328.6</ele>
        <time>2024-02-23T13:12:57Z</time>
      </trkpt>
      <trkpt lat="43.78104" lon="3.80711">
        <ele>327.8</ele>
        <time>2024-02-23T13:12:58Z</time>
      </trkpt>
      <trkpt lat="43.78104" lon="3.80711">
        <ele>327.2</ele>
        <time>2024-02-23T13:12:59Z</time>
      </trkpt>
      <trkpt lat="43.78108" lon="3.80711">
        <ele>326.2</ele>
        <time>2024-02-23T13:13:00Z</time>
      </trkpt>
      <trkpt lat="43.78108" lon="3.80711">
        <ele>325.4</ele>
        <time>2024-02-23T13:13:01Z</time>
      </trkpt>
      <trkpt lat="43.7811" lon="3.8071">
        <ele>324.6</ele>
        <time>2024-02-23T13:13:02Z</time>
      </trkpt>
      <trkpt lat="43.78112" lon="3.80709">
        <ele>323.8</ele>
        <time>2024-02-23T13:13:03Z</time>
      </trkpt>
      <trkpt lat="43.78112" lon="3.80709">
        <ele>323</ele>
        <time>2024-02-23T13:13:04Z</time>
      </trkpt>
      <trkpt lat="43.78115" lon="3.80709">
        <ele>322.4</ele>
        <time>2024-02-23T13:13:05Z</time>
      </trkpt>
      <trkpt lat="43.78115" lon="3.80709">
        <ele>321.8</ele>
        <time>2024-02-23T13:13:06Z</time>
      </trkpt>
      <trkpt lat="43.78118" lon="3.8071">
        <ele>321.2</ele>
        <time>2024-02-23T13:13:07Z</time>
      </trkpt>
      <trkpt lat="43.78118" lon="3.8071">
        <ele>320.8</ele>
        <time>2024-02-23T13:13:08Z</time>
      </trkpt>
      <trkpt lat="43.78121" lon="3.80709">
        <ele>320.2</ele>
        <time>2024-02-23T13:13:09Z</time>
      </trkpt>
      <trkpt lat="43.78121" lon="3.80709">
        <ele>319.6</ele>
        <time>2024-02-23T13:13:10Z</time>
      </trkpt>
      <trkpt lat="43.78124" lon="3.80707">
        <ele>318.8</ele>
        <time>2024-02-23T13:13:11Z</time>
      </trkpt>
      <trkpt lat="43.78126" lon="3.80707">
        <ele>318</ele>
        <time>2024-02-23T13:13:12Z</time>
      </trkpt>
      <trkpt lat="43.78129" lon="3.80707">
        <ele>317.4</ele>
        <time>2024-02-23T13:13:13Z</time>
      </trkpt>
      <trkpt lat="43.78129" lon="3.80707">
        <ele>316.6</ele>
        <time>2024-02-23T13:13:14Z</time>
      </trkpt>
      <trkpt lat="43.78131" lon="3.80707">
        <ele>316</ele>
        <time>2024-02-23T13:13:15Z</time>
      </trkpt>
      <trkpt lat="43.78131" lon="3.80707">
        <ele>315.4</ele>
        <time>2024-02-23T13:13:16Z</time>
      </trkpt>
      <trkpt lat="43.78134" lon="3.80707">
        <ele>314.6</ele>
        <time>2024-02-23T13:13:17Z</time>
      </trkpt>
      <trkpt lat="43.78134" lon="3.80707">
        <ele>314</ele>
        <time>2024-02-23T13:13:18Z</time>
      </trkpt>
      <trkpt lat="43.78136" lon="3.80706">
        <ele>313.4</ele>
        <time>2024-02-23T13:13:19Z</time>
      </trkpt>
      <trkpt lat="43.78136" lon="3.80706">
        <ele>312.8</ele>
        <time>2024-02-23T13:13:20Z</time>
      </trkpt>
      <trkpt lat="43.78138" lon="3.80704">
        <ele>312.2</ele>
        <time>2024-02-23T13:13:21Z</time>
      </trkpt>
      <trkpt lat="43.78138" lon="3.80704">
        <ele>311.6</ele>
        <time>2024-02-23T13:13:22Z</time>
      </trkpt>
      <trkpt lat="43.78138" lon="3.80701">
        <ele>311.2</ele>
        <time>2024-02-23T13:13:23Z</time>
      </trkpt>
      <trkpt lat="43.78138" lon="3.80701">
        <ele>310.6</ele>
        <time>2024-02-23T13:13:24Z</time>
      </trkpt>
      <trkpt lat="43.7814" lon="3.80702">
        <ele>310</ele>
        <time>2024-02-23T13:13:25Z</time>
      </trkpt>
      <trkpt lat="43.78142" lon="3.80704">
        <ele>309.6</ele>
        <time>2024-02-23T13:13:26Z</time>
      </trkpt>
      <trkpt lat="43.78143" lon="3.80705">
        <ele>309</ele>
        <time>2024-02-23T13:13:27Z</time>
      </trkpt>
      <trkpt lat="43.78143" lon="3.80705">
        <ele>308.4</ele>
        <time>2024-02-23T13:13:28Z</time>
      </trkpt>
      <trkpt lat="43.78146" lon="3.80707">
        <ele>308</ele>
        <time>2024-02-23T13:13:29Z</time>
      </trkpt>
      <trkpt lat="43.78146" lon="3.80707">
        <ele>307.6</ele>
        <time>2024-02-23T13:13:30Z</time>
      </trkpt>
      <trkpt lat="43.78148" lon="3.80706">
        <ele>307.2</ele>
        <time>2024-02-23T13:13:31Z</time>
      </trkpt>
      <trkpt lat="43.78148" lon="3.80706">
        <ele>306.6</ele>
        <time>2024-02-23T13:13:32Z</time>
      </trkpt>
      <trkpt lat="43.78148" lon="3.80706">
        <ele>306.2</ele>
        <time>2024-02-23T13:13:33Z</time>
      </trkpt>
      <trkpt lat="43.7815" lon="3.80704">
        <ele>305.8</ele>
        <time>2024-02-23T13:13:34Z</time>
      </trkpt>
      <trkpt lat="43.7815" lon="3.80704">
        <ele>305.2</ele>
        <time>2024-02-23T13:13:35Z</time>
      </trkpt>
      <trkpt lat="43.78152" lon="3.80703">
        <ele>304.6</ele>
        <time>2024-02-23T13:13:36Z</time>
      </trkpt>
      <trkpt lat="43.78152" lon="3.80703">
        <ele>304.2</ele>
        <time>2024-02-23T13:13:37Z</time>
      </trkpt>
      <trkpt lat="43.78155" lon="3.80704">
        <ele>303.4</ele>
        <time>2024-02-23T13:13:38Z</time>
      </trkpt>
      <trkpt lat="43.78155" lon="3.80704">
        <ele>302.8</ele>
        <time>2024-02-23T13:13:39Z</time>
      </trkpt>
      <trkpt lat="43.78157" lon="3.80708">
        <ele>302.2</ele>
        <time>2024-02-23T13:13:40Z</time>
      </trkpt>
      <trkpt lat="43.78157" lon="3.80711">
        <ele>301.6</ele>
        <time>2024-02-23T13:13:41Z</time>
      </trkpt>
      <trkpt lat="43.78159" lon="3.80714">
        <ele>301.2</ele>
        <time>2024-02-23T13:13:42Z</time>
      </trkpt>
      <trkpt lat="43.7816" lon="3.80718">
        <ele>300.8</ele>
        <time>2024-02-23T13:13:43Z</time>
      </trkpt>
      <trkpt lat="43.78162" lon="3.80721">
        <ele>300.6</ele>
        <time>2024-02-23T13:13:44Z</time>
      </trkpt>
      <trkpt lat="43.78163" lon="3.80724">
        <ele>300.4</ele>
        <time>2024-02-23T13:13:45Z</time>
      </trkpt>
      <trkpt lat="43.78166" lon="3.80727">
        <ele>300.4</ele>
        <time>2024-02-23T13:13:46Z</time>
      </trkpt>
      <trkpt lat="43.78169" lon="3.8073">
        <ele>300.2</ele>
        <time>2024-02-23T13:13:47Z</time>
      </trkpt>
      <trkpt lat="43.78171" lon="3.80733">
        <ele>300.2</ele>
        <time>2024-02-23T13:13:48Z</time>
      </trkpt>
      <trkpt lat="43.78172" lon="3.80736">
        <ele>300</ele>
        <time>2024-02-23T13:13:49Z</time>
      </trkpt>
      <trkpt lat="43.78173" lon="3.80739">
        <ele>300</ele>
        <time>2024-02-23T13:13:50Z</time>
      </trkpt>
      <trkpt lat="43.78175" lon="3.80743">
        <ele>300</ele>
        <time>2024-02-23T13:13:51Z</time>
      </trkpt>
      <trkpt lat="43.78177" lon="3.80746">
        <ele>300</ele>
        <time>2024-02-23T13:13:52Z</time>
      </trkpt>
      <trkpt lat="43.7818" lon="3.80748">
        <ele>300.2</ele>
        <time>2024-02-23T13:13:53Z</time>
      </trkpt>
      <trkpt lat="43.78183" lon="3.80751">
        <ele>300.2</ele>
        <time>2024-02-23T13:13:54Z</time>
      </trkpt>
      <trkpt lat="43.78186" lon="3.80753">
        <ele>300.2</ele>
        <time>2024-02-23T13:13:55Z</time>
      </trkpt>
      <trkpt lat="43.78187" lon="3.80756">
        <ele>300.4</ele>
        <time>2024-02-23T13:13:56Z</time>
      </trkpt>
      <trkpt lat="43.78189" lon="3.80758">
        <ele>300.4</ele>
        <time>2024-02-23T13:13:57Z</time>
      </trkpt>
      <trkpt lat="43.78191" lon="3.8076">
        <ele>300.4</ele>
        <time>2024-02-23T13:13:58Z</time>
      </trkpt>
      <trkpt lat="43.78194" lon="3.80762">
        <ele>300.4</ele>
        <time>2024-02-23T13:13:59Z</time>
      </trkpt>
      <trkpt lat="43.78197" lon="3.80764">
        <ele>300.4</ele>
        <time>2024-02-23T13:14:00Z</time>
      </trkpt>
      <trkpt lat="43.78198" lon="3.80766">
        <ele>300.6</ele>
        <time>2024-02-23T13:14:01Z</time>
      </trkpt>
      <trkpt lat="43.78201" lon="3.80769">
        <ele>300.8</ele>
        <time>2024-02-23T13:14:02Z</time>
      </trkpt>
      <trkpt lat="43.78204" lon="3.80771">
        <ele>300.8</ele>
        <time>2024-02-23T13:14:03Z</time>
      </trkpt>
      <trkpt lat="43.78206" lon="3.80774">
        <ele>301</ele>
        <time>2024-02-23T13:14:04Z</time>
      </trkpt>
      <trkpt lat="43.78209" lon="3.80775">
        <ele>301.2</ele>
        <time>2024-02-23T13:14:05Z</time>
      </trkpt>
      <trkpt lat="43.78211" lon="3.80775">
        <ele>301.4</ele>
        <time>2024-02-23T13:14:06Z</time>
      </trkpt>
      <trkpt lat="43.78214" lon="3.80776">
        <ele>301.4</ele>
        <time>2024-02-23T13:14:07Z</time>
      </trkpt>
      <trkpt lat="43.78217" lon="3.80777">
        <ele>301.2</ele>
        <time>2024-02-23T13:14:08Z</time>
      </trkpt>
      <trkpt lat="43.78219" lon="3.8078">
        <ele>300.8</ele>
        <time>2024-02-23T13:14:09Z</time>
      </trkpt>
      <trkpt lat="43.78221" lon="3.80783">
        <ele>300.4</ele>
        <time>2024-02-23T13:14:10Z</time>
      </trkpt>
      <trkpt lat="43.78221" lon="3.80786">
        <ele>300.2</ele>
        <time>2024-02-23T13:14:11Z</time>
      </trkpt>
      <trkpt lat="43.78221" lon="3.8079">
        <ele>299.8</ele>
        <time>2024-02-23T13:14:12Z</time>
      </trkpt>
      <trkpt lat="43.78221" lon="3.80794">
        <ele>299.6</ele>
        <time>2024-02-23T13:14:13Z</time>
      </trkpt>
      <trkpt lat="43.78221" lon="3.80797">
        <ele>299.2</ele>
        <time>2024-02-23T13:14:14Z</time>
      </trkpt>
      <trkpt lat="43.78221" lon="3.808">
        <ele>299</ele>
        <time>2024-02-23T13:14:15Z</time>
      </trkpt>
      <trkpt lat="43.78221" lon="3.80804">
        <ele>298.6</ele>
        <time>2024-02-23T13:14:16Z</time>
      </trkpt>
      <trkpt lat="43.78221" lon="3.80807">
        <ele>298.4</ele>
        <time>2024-02-23T13:14:17Z</time>
      </trkpt>
      <trkpt lat="43.7822" lon="3.8081">
        <ele>298</ele>
        <time>2024-02-23T13:14:18Z</time>
      </trkpt>
      <trkpt lat="43.7822" lon="3.80813">
        <ele>297.6</ele>
        <time>2024-02-23T13:14:19Z</time>
      </trkpt>
      <trkpt lat="43.78221" lon="3.80817">
        <ele>297.2</ele>
        <time>2024-02-23T13:14:20Z</time>
      </trkpt>
      <trkpt lat="43.78222" lon="3.80821">
        <ele>296.8</ele>
        <time>2024-02-23T13:14:21Z</time>
      </trkpt>
      <trkpt lat="43.78222" lon="3.80824">
        <ele>296.4</ele>
        <time>2024-02-23T13:14:22Z</time>
      </trkpt>
      <trkpt lat="43.78221" lon="3.80827">
        <ele>296</ele>
        <time>2024-02-23T13:14:23Z</time>
      </trkpt>
      <trkpt lat="43.78222" lon="3.8083">
        <ele>295.6</ele>
        <time>2024-02-23T13:14:24Z</time>
      </trkpt>
      <trkpt lat="43.78223" lon="3.80832">
        <ele>295.2</ele>
        <time>2024-02-23T13:14:25Z</time>
      </trkpt>
      <trkpt lat="43.78224" lon="3.80835">
        <ele>294.8</ele>
        <time>2024-02-23T13:14:26Z</time>
      </trkpt>
      <trkpt lat="43.78224" lon="3.80838">
        <ele>294.4</ele>
        <time>2024-02-23T13:14:27Z</time>
      </trkpt>
      <trkpt lat="43.78224" lon="3.80838">
        <ele>294</ele>
        <time>2024-02-23T13:14:28Z</time>
      </trkpt>
      <trkpt lat="43.78225" lon="3.80842">
        <ele>293.8</ele>
        <time>2024-02-23T13:14:29Z</time>
      </trkpt>
      <trkpt lat="43.78226" lon="3.80845">
        <ele>293.4</ele>
        <time>2024-02-23T13:14:30Z</time>
      </trkpt>
      <trkpt lat="43.78227" lon="3.80849">
        <ele>293</ele>
        <time>2024-02-23T13:14:31Z</time>
      </trkpt>
      <trkpt lat="43.78228" lon="3.80851">
        <ele>292.4</ele>
        <time>2024-02-23T13:14:32Z</time>
      </trkpt>
      <trkpt lat="43.7823" lon="3.80853">
        <ele>292</ele>
        <time>2024-02-23T13:14:33Z</time>
      </trkpt>
      <trkpt lat="43.78232" lon="3.80856">
        <ele>291.6</ele>
        <time>2024-02-23T13:14:34Z</time>
      </trkpt>
      <trkpt lat="43.78234" lon="3.80859">
        <ele>291</ele>
        <time>2024-02-23T13:14:35Z</time>
      </trkpt>
      <trkpt lat="43.78236" lon="3.80862">
        <ele>290.6</ele>
        <time>2024-02-23T13:14:36Z</time>
      </trkpt>
      <trkpt lat="43.78237" lon="3.80864">
        <ele>290.2</ele>
        <time>2024-02-23T13:14:37Z</time>
      </trkpt>
      <trkpt lat="43.78238" lon="3.80867">
        <ele>289.6</ele>
        <time>2024-02-23T13:14:38Z</time>
      </trkpt>
      <trkpt lat="43.78241" lon="3.8087">
        <ele>289.2</ele>
        <time>2024-02-23T13:14:39Z</time>
      </trkpt>
      <trkpt lat="43.78244" lon="3.80872">
        <ele>288.8</ele>
        <time>2024-02-23T13:14:40Z</time>
      </trkpt>
      <trkpt lat="43.78246" lon="3.80874">
        <ele>288.4</ele>
        <time>2024-02-23T13:14:41Z</time>
      </trkpt>
      <trkpt lat="43.78248" lon="3.80877">
        <ele>288</ele>
        <time>2024-02-23T13:14:42Z</time>
      </trkpt>
      <trkpt lat="43.78251" lon="3.8088">
        <ele>287.6</ele>
        <time>2024-02-23T13:14:43Z</time>
      </trkpt>
      <trkpt lat="43.78253" lon="3.80882">
        <ele>287.2</ele>
        <time>2024-02-23T13:14:44Z</time>
      </trkpt>
      <trkpt lat="43.78256" lon="3.80884">
        <ele>286.6</ele>
        <time>2024-02-23T13:14:45Z</time>
      </trkpt>
      <trkpt lat="43.78258" lon="3.80888">
        <ele>286.2</ele>
        <time>2024-02-23T13:14:46Z</time>
      </trkpt>
      <trkpt lat="43.7826" lon="3.80891">
        <ele>285.8</ele>
        <time>2024-02-23T13:14:47Z</time>
      </trkpt>
      <trkpt lat="43.78261" lon="3.80894">
        <ele>285.6</ele>
        <time>2024-02-23T13:14:48Z</time>
      </trkpt>
      <trkpt lat="43.78263" lon="3.80898">
        <ele>285.2</ele>
        <time>2024-02-23T13:14:49Z</time>
      </trkpt>
      <trkpt lat="43.78265" lon="3.80901">
        <ele>284.8</ele>
        <time>2024-02-23T13:14:50Z</time>
      </trkpt>
      <trkpt lat="43.78266" lon="3.80903">
        <ele>284.4</ele>
        <time>2024-02-23T13:14:51Z</time>
      </trkpt>
      <trkpt lat="43.78267" lon="3.80906">
        <ele>284</ele>
        <time>2024-02-23T13:14:52Z</time>
      </trkpt>
      <trkpt lat="43.78268" lon="3.80909">
        <ele>283.6</ele>
        <time>2024-02-23T13:14:53Z</time>
      </trkpt>
      <trkpt lat="43.78269" lon="3.80912">
        <ele>283.2</ele>
        <time>2024-02-23T13:14:54Z</time>
      </trkpt>
      <trkpt lat="43.7827" lon="3.80915">
        <ele>283</ele>
        <time>2024-02-23T13:14:55Z</time>
      </trkpt>
      <trkpt lat="43.78271" lon="3.80919">
        <ele>282.6</ele>
        <time>2024-02-23T13:14:56Z</time>
      </trkpt>
      <trkpt lat="43.78273" lon="3.80923">
        <ele>282.2</ele>
        <time>2024-02-23T13:14:57Z</time>
      </trkpt>
      <trkpt lat="43.78273" lon="3.80926">
        <ele>281.8</ele>
        <time>2024-02-23T13:14:58Z</time>
      </trkpt>
      <trkpt lat="43.78275" lon="3.80931">
        <ele>281.6</ele>
        <time>2024-02-23T13:14:59Z</time>
      </trkpt>
      <trkpt lat="43.78276" lon="3.80934">
        <ele>281.2</ele>
        <time>2024-02-23T13:15:00Z</time>
      </trkpt>
      <trkpt lat="43.78277" lon="3.80938">
        <ele>281</ele>
        <time>2024-02-23T13:15:01Z</time>
      </trkpt>
      <trkpt lat="43.78277" lon="3.80942">
        <ele>280.8</ele>
        <time>2024-02-23T13:15:02Z</time>
      </trkpt>
      <trkpt lat="43.78279" lon="3.80946">
        <ele>280.6</ele>
        <time>2024-02-23T13:15:03Z</time>
      </trkpt>
      <trkpt lat="43.7828" lon="3.8095">
        <ele>280.6</ele>
        <time>2024-02-23T13:15:04Z</time>
      </trkpt>
      <trkpt lat="43.78281" lon="3.80953">
        <ele>280.4</ele>
        <time>2024-02-23T13:15:05Z</time>
      </trkpt>
      <trkpt lat="43.78283" lon="3.80957">
        <ele>280.4</ele>
        <time>2024-02-23T13:15:06Z</time>
      </trkpt>
      <trkpt lat="43.78285" lon="3.8096">
        <ele>280.2</ele>
        <time>2024-02-23T13:15:07Z</time>
      </trkpt>
      <trkpt lat="43.78287" lon="3.80963">
        <ele>279.8</ele>
        <time>2024-02-23T13:15:08Z</time>
      </trkpt>
      <trkpt lat="43.78289" lon="3.80966">
        <ele>279.6</ele>
        <time>2024-02-23T13:15:09Z</time>
      </trkpt>
      <trkpt lat="43.78291" lon="3.80969">
        <ele>279.2</ele>
        <time>2024-02-23T13:15:10Z</time>
      </trkpt>
      <trkpt lat="43.78293" lon="3.80973">
        <ele>278.8</ele>
        <time>2024-02-23T13:15:11Z</time>
      </trkpt>
      <trkpt lat="43.78294" lon="3.80976">
        <ele>278.4</ele>
        <time>2024-02-23T13:15:12Z</time>
      </trkpt>
      <trkpt lat="43.78296" lon="3.80979">
        <ele>278</ele>
        <time>2024-02-23T13:15:13Z</time>
      </trkpt>
      <trkpt lat="43.78299" lon="3.80981">
        <ele>277.4</ele>
        <time>2024-02-23T13:15:14Z</time>
      </trkpt>
      <trkpt lat="43.78301" lon="3.80983">
        <ele>276.8</ele>
        <time>2024-02-23T13:15:15Z</time>
      </trkpt>
      <trkpt lat="43.78304" lon="3.80985">
        <ele>276.2</ele>
        <time>2024-02-23T13:15:16Z</time>
      </trkpt>
      <trkpt lat="43.78307" lon="3.80987">
        <ele>275.6</ele>
        <time>2024-02-23T13:15:17Z</time>
      </trkpt>
      <trkpt lat="43.7831" lon="3.8099">
        <ele>275</ele>
        <time>2024-02-23T13:15:18Z</time>
      </trkpt>
      <trkpt lat="43.78312" lon="3.80992">
        <ele>274.4</ele>
        <time>2024-02-23T13:15:19Z</time>
      </trkpt>
      <trkpt lat="43.78314" lon="3.80995">
        <ele>274</ele>
        <time>2024-02-23T13:15:20Z</time>
      </trkpt>
      <trkpt lat="43.78317" lon="3.80997">
        <ele>273.6</ele>
        <time>2024-02-23T13:15:21Z</time>
      </trkpt>
      <trkpt lat="43.78319" lon="3.80998">
        <ele>273.2</ele>
        <time>2024-02-23T13:15:22Z</time>
      </trkpt>
      <trkpt lat="43.78322" lon="3.81">
        <ele>272.6</ele>
        <time>2024-02-23T13:15:23Z</time>
      </trkpt>
      <trkpt lat="43.78324" lon="3.81002">
        <ele>272.2</ele>
        <time>2024-02-23T13:15:24Z</time>
      </trkpt>
      <trkpt lat="43.78327" lon="3.81004">
        <ele>271.6</ele>
        <time>2024-02-23T13:15:25Z</time>
      </trkpt>
      <trkpt lat="43.78329" lon="3.81006">
        <ele>271.2</ele>
        <time>2024-02-23T13:15:26Z</time>
      </trkpt>
      <trkpt lat="43.78332" lon="3.81006">
        <ele>270.6</ele>
        <time>2024-02-23T13:15:27Z</time>
      </trkpt>
      <trkpt lat="43.78334" lon="3.81006">
        <ele>270.2</ele>
        <time>2024-02-23T13:15:28Z</time>
      </trkpt>
      <trkpt lat="43.78338" lon="3.81005">
        <ele>269.8</ele>
        <time>2024-02-23T13:15:29Z</time>
      </trkpt>
      <trkpt lat="43.78342" lon="3.81003">
        <ele>269.4</ele>
        <time>2024-02-23T13:15:30Z</time>
      </trkpt>
      <trkpt lat="43.78345" lon="3.81001">
        <ele>269</ele>
        <time>2024-02-23T13:15:31Z</time>
      </trkpt>
      <trkpt lat="43.78347" lon="3.80999">
        <ele>268.6</ele>
        <time>2024-02-23T13:15:32Z</time>
      </trkpt>
      <trkpt lat="43.78349" lon="3.80997">
        <ele>268.4</ele>
        <time>2024-02-23T13:15:33Z</time>
      </trkpt>
      <trkpt lat="43.78353" lon="3.80996">
        <ele>268.2</ele>
        <time>2024-02-23T13:15:34Z</time>
      </trkpt>
      <trkpt lat="43.78357" lon="3.80995">
        <ele>268</ele>
        <time>2024-02-23T13:15:35Z</time>
      </trkpt>
      <trkpt lat="43.7836" lon="3.80994">
        <ele>267.8</ele>
        <time>2024-02-23T13:15:36Z</time>
      </trkpt>
      <trkpt lat="43.78363" lon="3.80993">
        <ele>267.6</ele>
        <time>2024-02-23T13:15:37Z</time>
      </trkpt>
      <trkpt lat="43.78366" lon="3.80991">
        <ele>267.6</ele>
        <time>2024-02-23T13:15:38Z</time>
      </trkpt>
      <trkpt lat="43.78368" lon="3.8099">
        <ele>267.4</ele>
        <time>2024-02-23T13:15:39Z</time>
      </trkpt>
      <trkpt lat="43.78371" lon="3.80988">
        <ele>267.2</ele>
        <time>2024-02-23T13:15:40Z</time>
      </trkpt>
      <trkpt lat="43.78373" lon="3.80987">
        <ele>267.2</ele>
        <time>2024-02-23T13:15:41Z</time>
      </trkpt>
      <trkpt lat="43.78373" lon="3.80987">
        <ele>267.2</ele>
        <time>2024-02-23T13:15:42Z</time>
      </trkpt>
      <trkpt lat="43.78376" lon="3.80986">
        <ele>267.4</ele>
        <time>2024-02-23T13:15:43Z</time>
      </trkpt>
      <trkpt lat="43.78379" lon="3.80984">
        <ele>267.6</ele>
        <time>2024-02-23T13:15:44Z</time>
      </trkpt>
      <trkpt lat="43.78381" lon="3.80984">
        <ele>267.8</ele>
        <time>2024-02-23T13:15:45Z</time>
      </trkpt>
      <trkpt lat="43.78383" lon="3.80982">
        <ele>267.8</ele>
        <time>2024-02-23T13:15:46Z</time>
      </trkpt>
      <trkpt lat="43.78386" lon="3.80981">
        <ele>268</ele>
        <time>2024-02-23T13:15:47Z</time>
      </trkpt>
      <trkpt lat="43.78388" lon="3.80981">
        <ele>268</ele>
        <time>2024-02-23T13:15:48Z</time>
      </trkpt>
      <trkpt lat="43.78391" lon="3.80981">
        <ele>267.8</ele>
        <time>2024-02-23T13:15:49Z</time>
      </trkpt>
      <trkpt lat="43.78395" lon="3.80981">
        <ele>267.6</ele>
        <time>2024-02-23T13:15:50Z</time>
      </trkpt>
      <trkpt lat="43.78397" lon="3.80981">
        <ele>267.2</ele>
        <time>2024-02-23T13:15:51Z</time>
      </trkpt>
      <trkpt lat="43.784" lon="3.8098">
        <ele>266.8</ele>
        <time>2024-02-23T13:15:52Z</time>
      </trkpt>
      <trkpt lat="43.78402" lon="3.80978">
        <ele>266.4</ele>
        <time>2024-02-23T13:15:53Z</time>
      </trkpt>
      <trkpt lat="43.78404" lon="3.80977">
        <ele>265.8</ele>
        <time>2024-02-23T13:15:54Z</time>
      </trkpt>
      <trkpt lat="43.78408" lon="3.80976">
        <ele>265.2</ele>
        <time>2024-02-23T13:15:55Z</time>
      </trkpt>
      <trkpt lat="43.7841" lon="3.80976">
        <ele>264.8</ele>
        <time>2024-02-23T13:15:56Z</time>
      </trkpt>
      <trkpt lat="43.78413" lon="3.80977">
        <ele>264.2</ele>
        <time>2024-02-23T13:15:57Z</time>
      </trkpt>
      <trkpt lat="43.78415" lon="3.80976">
        <ele>263.6</ele>
        <time>2024-02-23T13:15:58Z</time>
      </trkpt>
      <trkpt lat="43.78418" lon="3.80974">
        <ele>263.2</ele>
        <time>2024-02-23T13:15:59Z</time>
      </trkpt>
      <trkpt lat="43.7842" lon="3.80972">
        <ele>262.8</ele>
        <time>2024-02-23T13:16:00Z</time>
      </trkpt>
      <trkpt lat="43.78421" lon="3.80971">
        <ele>262.4</ele>
        <time>2024-02-23T13:16:01Z</time>
      </trkpt>
      <trkpt lat="43.78424" lon="3.8097">
        <ele>261.8</ele>
        <time>2024-02-23T13:16:02Z</time>
      </trkpt>
      <trkpt lat="43.78427" lon="3.80969">
        <ele>261.4</ele>
        <time>2024-02-23T13:16:03Z</time>
      </trkpt>
      <trkpt lat="43.78429" lon="3.80969">
        <ele>260.8</ele>
        <time>2024-02-23T13:16:04Z</time>
      </trkpt>
      <trkpt lat="43.78431" lon="3.80969">
        <ele>260.4</ele>
        <time>2024-02-23T13:16:05Z</time>
      </trkpt>
      <trkpt lat="43.78434" lon="3.80969">
        <ele>260</ele>
        <time>2024-02-23T13:16:06Z</time>
      </trkpt>
      <trkpt lat="43.78436" lon="3.80968">
        <ele>259.6</ele>
        <time>2024-02-23T13:16:07Z</time>
      </trkpt>
      <trkpt lat="43.78438" lon="3.80966">
        <ele>259.2</ele>
        <time>2024-02-23T13:16:08Z</time>
      </trkpt>
      <trkpt lat="43.78441" lon="3.80965">
        <ele>258.8</ele>
        <time>2024-02-23T13:16:09Z</time>
      </trkpt>
      <trkpt lat="43.78444" lon="3.80964">
        <ele>258.2</ele>
        <time>2024-02-23T13:16:10Z</time>
      </trkpt>
      <trkpt lat="43.78446" lon="3.80964">
        <ele>257.8</ele>
        <time>2024-02-23T13:16:11Z</time>
      </trkpt>
      <trkpt lat="43.78449" lon="3.80964">
        <ele>257.2</ele>
        <time>2024-02-23T13:16:12Z</time>
      </trkpt>
      <trkpt lat="43.78452" lon="3.80964">
        <ele>256.8</ele>
        <time>2024-02-23T13:16:13Z</time>
      </trkpt>
      <trkpt lat="43.78453" lon="3.80965">
        <ele>256.2</ele>
        <time>2024-02-23T13:16:14Z</time>
      </trkpt>
      <trkpt lat="43.78457" lon="3.80965">
        <ele>255.8</ele>
        <time>2024-02-23T13:16:15Z</time>
      </trkpt>
      <trkpt lat="43.7846" lon="3.80966">
        <ele>255.2</ele>
        <time>2024-02-23T13:16:16Z</time>
      </trkpt>
      <trkpt lat="43.78463" lon="3.80966">
        <ele>254.6</ele>
        <time>2024-02-23T13:16:17Z</time>
      </trkpt>
      <trkpt lat="43.78466" lon="3.80966">
        <ele>254</ele>
        <time>2024-02-23T13:16:18Z</time>
      </trkpt>
      <trkpt lat="43.78468" lon="3.80965">
        <ele>253.4</ele>
        <time>2024-02-23T13:16:19Z</time>
      </trkpt>
      <trkpt lat="43.7847" lon="3.80964">
        <ele>252.8</ele>
        <time>2024-02-23T13:16:20Z</time>
      </trkpt>
      <trkpt lat="43.78472" lon="3.80962">
        <ele>252.4</ele>
        <time>2024-02-23T13:16:21Z</time>
      </trkpt>
      <trkpt lat="43.78474" lon="3.80959">
        <ele>252.2</ele>
        <time>2024-02-23T13:16:22Z</time>
      </trkpt>
      <trkpt lat="43.78477" lon="3.80955">
        <ele>251.8</ele>
        <time>2024-02-23T13:16:23Z</time>
      </trkpt>
      <trkpt lat="43.78479" lon="3.80952">
        <ele>251.4</ele>
        <time>2024-02-23T13:16:24Z</time>
      </trkpt>
      <trkpt lat="43.78483" lon="3.8095">
        <ele>251</ele>
        <time>2024-02-23T13:16:25Z</time>
      </trkpt>
      <trkpt lat="43.78485" lon="3.80948">
        <ele>250.6</ele>
        <time>2024-02-23T13:16:26Z</time>
      </trkpt>
      <trkpt lat="43.78488" lon="3.80946">
        <ele>250.2</ele>
        <time>2024-02-23T13:16:27Z</time>
      </trkpt>
      <trkpt lat="43.78491" lon="3.80944">
        <ele>250</ele>
        <time>2024-02-23T13:16:28Z</time>
      </trkpt>
      <trkpt lat="43.78494" lon="3.80941">
        <ele>249.6</ele>
        <time>2024-02-23T13:16:29Z</time>
      </trkpt>
      <trkpt lat="43.78497" lon="3.80939">
        <ele>249.2</ele>
        <time>2024-02-23T13:16:30Z</time>
      </trkpt>
      <trkpt lat="43.785" lon="3.80936">
        <ele>249</ele>
        <time>2024-02-23T13:16:31Z</time>
      </trkpt>
      <trkpt lat="43.78503" lon="3.80934">
        <ele>248.8</ele>
        <time>2024-02-23T13:16:32Z</time>
      </trkpt>
      <trkpt lat="43.78506" lon="3.80933">
        <ele>248.6</ele>
        <time>2024-02-23T13:16:33Z</time>
      </trkpt>
      <trkpt lat="43.78509" lon="3.80932">
        <ele>248.2</ele>
        <time>2024-02-23T13:16:34Z</time>
      </trkpt>
      <trkpt lat="43.78511" lon="3.80932">
        <ele>248</ele>
        <time>2024-02-23T13:16:35Z</time>
      </trkpt>
      <trkpt lat="43.78514" lon="3.80933">
        <ele>247.8</ele>
        <time>2024-02-23T13:16:36Z</time>
      </trkpt>
      <trkpt lat="43.78517" lon="3.80934">
        <ele>247.8</ele>
        <time>2024-02-23T13:16:37Z</time>
      </trkpt>
      <trkpt lat="43.78519" lon="3.80935">
        <ele>247.8</ele>
        <time>2024-02-23T13:16:38Z</time>
      </trkpt>
      <trkpt lat="43.78519" lon="3.80935">
        <ele>248</ele>
        <time>2024-02-23T13:16:39Z</time>
      </trkpt>
      <trkpt lat="43.78521" lon="3.80936">
        <ele>248.2</ele>
        <time>2024-02-23T13:16:40Z</time>
      </trkpt>
      <trkpt lat="43.78521" lon="3.80936">
        <ele>248.4</ele>
        <time>2024-02-23T13:16:41Z</time>
      </trkpt>
      <trkpt lat="43.78524" lon="3.80938">
        <ele>248.8</ele>
        <time>2024-02-23T13:16:42Z</time>
      </trkpt>
      <trkpt lat="43.78525" lon="3.8094">
        <ele>249</ele>
        <time>2024-02-23T13:16:43Z</time>
      </trkpt>
      <trkpt lat="43.78526" lon="3.80942">
        <ele>249.2</ele>
        <time>2024-02-23T13:16:44Z</time>
      </trkpt>
      <trkpt lat="43.78527" lon="3.80944">
        <ele>249.4</ele>
        <time>2024-02-23T13:16:45Z</time>
      </trkpt>
      <trkpt lat="43.78529" lon="3.80945">
        <ele>249.6</ele>
        <time>2024-02-23T13:16:46Z</time>
      </trkpt>
      <trkpt lat="43.78529" lon="3.80945">
        <ele>250</ele>
        <time>2024-02-23T13:16:47Z</time>
      </trkpt>
      <trkpt lat="43.78532" lon="3.80946">
        <ele>250.2</ele>
        <time>2024-02-23T13:16:48Z</time>
      </trkpt>
      <trkpt lat="43.78532" lon="3.80946">
        <ele>250.4</ele>
        <time>2024-02-23T13:16:49Z</time>
      </trkpt>
      <trkpt lat="43.78534" lon="3.80948">
        <ele>250.6</ele>
        <time>2024-02-23T13:16:50Z</time>
      </trkpt>
      <trkpt lat="43.78536" lon="3.80949">
        <ele>251</ele>
        <time>2024-02-23T13:16:51Z</time>
      </trkpt>
      <trkpt lat="43.78536" lon="3.80949">
        <ele>251.2</ele>
        <time>2024-02-23T13:16:52Z</time>
      </trkpt>
      <trkpt lat="43.78538" lon="3.80951">
        <ele>251.6</ele>
        <time>2024-02-23T13:16:53Z</time>
      </trkpt>
      <trkpt lat="43.78538" lon="3.80951">
        <ele>251.8</ele>
        <time>2024-02-23T13:16:54Z</time>
      </trkpt>
      <trkpt lat="43.78541" lon="3.80949">
        <ele>252</ele>
        <time>2024-02-23T13:16:55Z</time>
      </trkpt>
      <trkpt lat="43.78542" lon="3.80947">
        <ele>252.4</ele>
        <time>2024-02-23T13:16:56Z</time>
      </trkpt>
      <trkpt lat="43.78544" lon="3.80945">
        <ele>252.6</ele>
        <time>2024-02-23T13:16:57Z</time>
      </trkpt>
      <trkpt lat="43.78547" lon="3.80944">
        <ele>252.6</ele>
        <time>2024-02-23T13:16:58Z</time>
      </trkpt>
      <trkpt lat="43.78549" lon="3.80943">
        <ele>252.4</ele>
        <time>2024-02-23T13:16:59Z</time>
      </trkpt>
      <trkpt lat="43.78549" lon="3.80943">
        <ele>252.4</ele>
        <time>2024-02-23T13:17:00Z</time>
      </trkpt>
      <trkpt lat="43.78552" lon="3.80942">
        <ele>252.2</ele>
        <time>2024-02-23T13:17:01Z</time>
      </trkpt>
      <trkpt lat="43.78552" lon="3.80942">
        <ele>252</ele>
        <time>2024-02-23T13:17:02Z</time>
      </trkpt>
      <trkpt lat="43.78554" lon="3.80942">
        <ele>251.6</ele>
        <time>2024-02-23T13:17:03Z</time>
      </trkpt>
      <trkpt lat="43.78554" lon="3.80942">
        <ele>251.2</ele>
        <time>2024-02-23T13:17:04Z</time>
      </trkpt>
      <trkpt lat="43.78557" lon="3.80941">
        <ele>250.8</ele>
        <time>2024-02-23T13:17:05Z</time>
      </trkpt>
      <trkpt lat="43.78557" lon="3.80941">
        <ele>250.2</ele>
        <time>2024-02-23T13:17:06Z</time>
      </trkpt>
      <trkpt lat="43.78561" lon="3.80938">
        <ele>249.6</ele>
        <time>2024-02-23T13:17:07Z</time>
      </trkpt>
      <trkpt lat="43.78563" lon="3.80936">
        <ele>249.2</ele>
        <time>2024-02-23T13:17:08Z</time>
      </trkpt>
      <trkpt lat="43.78565" lon="3.80934">
        <ele>248.8</ele>
        <time>2024-02-23T13:17:09Z</time>
      </trkpt>
      <trkpt lat="43.78566" lon="3.80933">
        <ele>248</ele>
        <time>2024-02-23T13:17:10Z</time>
      </trkpt>
      <trkpt lat="43.78569" lon="3.80931">
        <ele>247.4</ele>
        <time>2024-02-23T13:17:11Z</time>
      </trkpt>
      <trkpt lat="43.78571" lon="3.8093">
        <ele>247</ele>
        <time>2024-02-23T13:17:12Z</time>
      </trkpt>
      <trkpt lat="43.78573" lon="3.80927">
        <ele>246.8</ele>
        <time>2024-02-23T13:17:13Z</time>
      </trkpt>
      <trkpt lat="43.78574" lon="3.80924">
        <ele>246.2</ele>
        <time>2024-02-23T13:17:14Z</time>
      </trkpt>
      <trkpt lat="43.78575" lon="3.80921">
        <ele>245.6</ele>
        <time>2024-02-23T13:17:15Z</time>
      </trkpt>
      <trkpt lat="43.78577" lon="3.80918">
        <ele>245.2</ele>
        <time>2024-02-23T13:17:16Z</time>
      </trkpt>
      <trkpt lat="43.78577" lon="3.80914">
        <ele>244.8</ele>
        <time>2024-02-23T13:17:17Z</time>
      </trkpt>
      <trkpt lat="43.78578" lon="3.80911">
        <ele>244.4</ele>
        <time>2024-02-23T13:17:18Z</time>
      </trkpt>
      <trkpt lat="43.78578" lon="3.80908">
        <ele>244.2</ele>
        <time>2024-02-23T13:17:19Z</time>
      </trkpt>
      <trkpt lat="43.78578" lon="3.80908">
        <ele>243.8</ele>
        <time>2024-02-23T13:17:20Z</time>
      </trkpt>
      <trkpt lat="43.7858" lon="3.80904">
        <ele>243.4</ele>
        <time>2024-02-23T13:17:21Z</time>
      </trkpt>
      <trkpt lat="43.78582" lon="3.80903">
        <ele>242.8</ele>
        <time>2024-02-23T13:17:22Z</time>
      </trkpt>
      <trkpt lat="43.78582" lon="3.80903">
        <ele>242.4</ele>
        <time>2024-02-23T13:17:23Z</time>
      </trkpt>
      <trkpt lat="43.78584" lon="3.80904">
        <ele>241.8</ele>
        <time>2024-02-23T13:17:24Z</time>
      </trkpt>
      <trkpt lat="43.78584" lon="3.80904">
        <ele>241.2</ele>
        <time>2024-02-23T13:17:25Z</time>
      </trkpt>
      <trkpt lat="43.78587" lon="3.80906">
        <ele>240.8</ele>
        <time>2024-02-23T13:17:26Z</time>
      </trkpt>
      <trkpt lat="43.78587" lon="3.80906">
        <ele>240.2</ele>
        <time>2024-02-23T13:17:27Z</time>
      </trkpt>
      <trkpt lat="43.78589" lon="3.80908">
        <ele>239.4</ele>
        <time>2024-02-23T13:17:28Z</time>
      </trkpt>
      <trkpt lat="43.78592" lon="3.80908">
        <ele>238.8</ele>
        <time>2024-02-23T13:17:29Z</time>
      </trkpt>
      <trkpt lat="43.78595" lon="3.80908">
        <ele>238.2</ele>
        <time>2024-02-23T13:17:30Z</time>
      </trkpt>
      <trkpt lat="43.78598" lon="3.80907">
        <ele>237.4</ele>
        <time>2024-02-23T13:17:31Z</time>
      </trkpt>
      <trkpt lat="43.786" lon="3.80906">
        <ele>236.8</ele>
        <time>2024-02-23T13:17:32Z</time>
      </trkpt>
      <trkpt lat="43.78604" lon="3.80904">
        <ele>236.2</ele>
        <time>2024-02-23T13:17:33Z</time>
      </trkpt>
      <trkpt lat="43.78606" lon="3.80902">
        <ele>235.8</ele>
        <time>2024-02-23T13:17:34Z</time>
      </trkpt>
      <trkpt lat="43.78608" lon="3.809">
        <ele>235.2</ele>
        <time>2024-02-23T13:17:35Z</time>
      </trkpt>
      <trkpt lat="43.78609" lon="3.80896">
        <ele>234.6</ele>
        <time>2024-02-23T13:17:36Z</time>
      </trkpt>
      <trkpt lat="43.7861" lon="3.80892">
        <ele>234.2</ele>
        <time>2024-02-23T13:17:37Z</time>
      </trkpt>
      <trkpt lat="43.78611" lon="3.80889">
        <ele>234.2</ele>
        <time>2024-02-23T13:17:38Z</time>
      </trkpt>
      <trkpt lat="43.78613" lon="3.80885">
        <ele>234</ele>
        <time>2024-02-23T13:17:39Z</time>
      </trkpt>
      <trkpt lat="43.78614" lon="3.80881">
        <ele>233.6</ele>
        <time>2024-02-23T13:17:40Z</time>
      </trkpt>
      <trkpt lat="43.78615" lon="3.80878">
        <ele>233.4</ele>
        <time>2024-02-23T13:17:41Z</time>
      </trkpt>
      <trkpt lat="43.78616" lon="3.80874">
        <ele>233.4</ele>
        <time>2024-02-23T13:17:42Z</time>
      </trkpt>
      <trkpt lat="43.78616" lon="3.80871">
        <ele>233.4</ele>
        <time>2024-02-23T13:17:43Z</time>
      </trkpt>
      <trkpt lat="43.78618" lon="3.80867">
        <ele>233.6</ele>
        <time>2024-02-23T13:17:44Z</time>
      </trkpt>
      <trkpt lat="43.78618" lon="3.80864">
        <ele>233.6</ele>
        <time>2024-02-23T13:17:45Z</time>
      </trkpt>
      <trkpt lat="43.7862" lon="3.80861">
        <ele>233.6</ele>
        <time>2024-02-23T13:17:46Z</time>
      </trkpt>
      <trkpt lat="43.78621" lon="3.80858">
        <ele>233.8</ele>
        <time>2024-02-23T13:17:47Z</time>
      </trkpt>
      <trkpt lat="43.78623" lon="3.80855">
        <ele>233.8</ele>
        <time>2024-02-23T13:17:48Z</time>
      </trkpt>
      <trkpt lat="43.78624" lon="3.80852">
        <ele>233.8</ele>
        <time>2024-02-23T13:17:49Z</time>
      </trkpt>
      <trkpt lat="43.78626" lon="3.80849">
        <ele>234</ele>
        <time>2024-02-23T13:17:50Z</time>
      </trkpt>
      <trkpt lat="43.78628" lon="3.80847">
        <ele>234</ele>
        <time>2024-02-23T13:17:51Z</time>
      </trkpt>
      <trkpt lat="43.7863" lon="3.80845">
        <ele>234</ele>
        <time>2024-02-23T13:17:52Z</time>
      </trkpt>
      <trkpt lat="43.78632" lon="3.80843">
        <ele>234.2</ele>
        <time>2024-02-23T13:17:53Z</time>
      </trkpt>
      <trkpt lat="43.78634" lon="3.80841">
        <ele>234.2</ele>
        <time>2024-02-23T13:17:54Z</time>
      </trkpt>
      <trkpt lat="43.78636" lon="3.80837">
        <ele>234.2</ele>
        <time>2024-02-23T13:17:55Z</time>
      </trkpt>
      <trkpt lat="43.78638" lon="3.80835">
        <ele>234.2</ele>
        <time>2024-02-23T13:17:56Z</time>
      </trkpt>
      <trkpt lat="43.7864" lon="3.80832">
        <ele>234.4</ele>
        <time>2024-02-23T13:17:57Z</time>
      </trkpt>
      <trkpt lat="43.78642" lon="3.80829">
        <ele>234.4</ele>
        <time>2024-02-23T13:17:58Z</time>
      </trkpt>
      <trkpt lat="43.78643" lon="3.80826">
        <ele>234.4</ele>
        <time>2024-02-23T13:17:59Z</time>
      </trkpt>
      <trkpt lat="43.78645" lon="3.80824">
        <ele>234.6</ele>
        <time>2024-02-23T13:18:00Z</time>
      </trkpt>
      <trkpt lat="43.78647" lon="3.80822">
        <ele>234.6</ele>
        <time>2024-02-23T13:18:01Z</time>
      </trkpt>
      <trkpt lat="43.78649" lon="3.8082">
        <ele>234.6</ele>
        <time>2024-02-23T13:18:02Z</time>
      </trkpt>
      <trkpt lat="43.7865" lon="3.80817">
        <ele>234.6</ele>
        <time>2024-02-23T13:18:03Z</time>
      </trkpt>
      <trkpt lat="43.78651" lon="3.80813">
        <ele>234.4</ele>
        <time>2024-02-23T13:18:04Z</time>
      </trkpt>
      <trkpt lat="43.78652" lon="3.80809">
        <ele>234.4</ele>
        <time>2024-02-23T13:18:05Z</time>
      </trkpt>
      <trkpt lat="43.78654" lon="3.80806">
        <ele>234.4</ele>
        <time>2024-02-23T13:18:06Z</time>
      </trkpt>
      <trkpt lat="43.78656" lon="3.80804">
        <ele>234.4</ele>
        <time>2024-02-23T13:18:07Z</time>
      </trkpt>
      <trkpt lat="43.78657" lon="3.808">
        <ele>234.6</ele>
        <time>2024-02-23T13:18:08Z</time>
      </trkpt>
      <trkpt lat="43.78658" lon="3.80796">
        <ele>234.6</ele>
        <time>2024-02-23T13:18:09Z</time>
      </trkpt>
      <trkpt lat="43.7866" lon="3.80793">
        <ele>234.6</ele>
        <time>2024-02-23T13:18:10Z</time>
      </trkpt>
      <trkpt lat="43.78661" lon="3.8079">
        <ele>234.6</ele>
        <time>2024-02-23T13:18:11Z</time>
      </trkpt>
      <trkpt lat="43.78663" lon="3.80787">
        <ele>234.6</ele>
        <time>2024-02-23T13:18:12Z</time>
      </trkpt>
      <trkpt lat="43.78665" lon="3.80784">
        <ele>234.8</ele>
        <time>2024-02-23T13:18:13Z</time>
      </trkpt>
      <trkpt lat="43.78667" lon="3.80782">
        <ele>234.8</ele>
        <time>2024-02-23T13:18:14Z</time>
      </trkpt>
      <trkpt lat="43.78669" lon="3.80779">
        <ele>234.8</ele>
        <time>2024-02-23T13:18:15Z</time>
      </trkpt>
      <trkpt lat="43.78671" lon="3.80777">
        <ele>234.8</ele>
        <time>2024-02-23T13:18:16Z</time>
      </trkpt>
      <trkpt lat="43.78673" lon="3.80775">
        <ele>234.8</ele>
        <time>2024-02-23T13:18:17Z</time>
      </trkpt>
      <trkpt lat="43.78675" lon="3.80773">
        <ele>235</ele>
        <time>2024-02-23T13:18:18Z</time>
      </trkpt>
      <trkpt lat="43.78677" lon="3.80771">
        <ele>235.2</ele>
        <time>2024-02-23T13:18:19Z</time>
      </trkpt>
      <trkpt lat="43.78679" lon="3.80769">
        <ele>235.2</ele>
        <time>2024-02-23T13:18:20Z</time>
      </trkpt>
      <trkpt lat="43.78681" lon="3.80768">
        <ele>235.4</ele>
        <time>2024-02-23T13:18:21Z</time>
      </trkpt>
      <trkpt lat="43.78683" lon="3.80766">
        <ele>235.4</ele>
        <time>2024-02-23T13:18:22Z</time>
      </trkpt>
      <trkpt lat="43.78685" lon="3.80764">
        <ele>235.6</ele>
        <time>2024-02-23T13:18:23Z</time>
      </trkpt>
      <trkpt lat="43.78688" lon="3.80762">
        <ele>235.8</ele>
        <time>2024-02-23T13:18:24Z</time>
      </trkpt>
      <trkpt lat="43.78691" lon="3.8076">
        <ele>236</ele>
        <time>2024-02-23T13:18:25Z</time>
      </trkpt>
      <trkpt lat="43.78693" lon="3.80758">
        <ele>236.2</ele>
        <time>2024-02-23T13:18:26Z</time>
      </trkpt>
      <trkpt lat="43.78696" lon="3.80756">
        <ele>236.4</ele>
        <time>2024-02-23T13:18:27Z</time>
      </trkpt>
      <trkpt lat="43.78696" lon="3.80754">
        <ele>236.6</ele>
        <time>2024-02-23T13:18:28Z</time>
      </trkpt>
      <trkpt lat="43.78699" lon="3.80751">
        <ele>236.6</ele>
        <time>2024-02-23T13:18:29Z</time>
      </trkpt>
      <trkpt lat="43.78701" lon="3.80749">
        <ele>236.8</ele>
        <time>2024-02-23T13:18:30Z</time>
      </trkpt>
      <trkpt lat="43.78702" lon="3.80746">
        <ele>237</ele>
        <time>2024-02-23T13:18:31Z</time>
      </trkpt>
      <trkpt lat="43.78705" lon="3.80743">
        <ele>237.2</ele>
        <time>2024-02-23T13:18:32Z</time>
      </trkpt>
      <trkpt lat="43.78707" lon="3.8074">
        <ele>237.4</ele>
        <time>2024-02-23T13:18:33Z</time>
      </trkpt>
      <trkpt lat="43.78709" lon="3.80738">
        <ele>237.6</ele>
        <time>2024-02-23T13:18:34Z</time>
      </trkpt>
      <trkpt lat="43.78711" lon="3.80735">
        <ele>237.6</ele>
        <time>2024-02-23T13:18:35Z</time>
      </trkpt>
      <trkpt lat="43.78714" lon="3.80733">
        <ele>237.6</ele>
        <time>2024-02-23T13:18:36Z</time>
      </trkpt>
      <trkpt lat="43.78716" lon="3.80731">
        <ele>237.6</ele>
        <time>2024-02-23T13:18:37Z</time>
      </trkpt>
      <trkpt lat="43.78719" lon="3.80728">
        <ele>237.6</ele>
        <time>2024-02-23T13:18:38Z</time>
      </trkpt>
      <trkpt lat="43.78721" lon="3.80725">
        <ele>237.6</ele>
        <time>2024-02-23T13:18:39Z</time>
      </trkpt>
      <trkpt lat="43.78723" lon="3.80723">
        <ele>237.6</ele>
        <time>2024-02-23T13:18:40Z</time>
      </trkpt>
      <trkpt lat="43.78725" lon="3.80721">
        <ele>237.6</ele>
        <time>2024-02-23T13:18:41Z</time>
      </trkpt>
      <trkpt lat="43.78728" lon="3.80718">
        <ele>237.4</ele>
        <time>2024-02-23T13:18:42Z</time>
      </trkpt>
      <trkpt lat="43.7873" lon="3.80715">
        <ele>237.6</ele>
        <time>2024-02-23T13:18:43Z</time>
      </trkpt>
      <trkpt lat="43.78732" lon="3.80713">
        <ele>237.6</ele>
        <time>2024-02-23T13:18:44Z</time>
      </trkpt>
      <trkpt lat="43.78734" lon="3.80711">
        <ele>237.6</ele>
        <time>2024-02-23T13:18:45Z</time>
      </trkpt>
      <trkpt lat="43.78737" lon="3.80712">
        <ele>237.8</ele>
        <time>2024-02-23T13:18:46Z</time>
      </trkpt>
      <trkpt lat="43.7874" lon="3.8071">
        <ele>238</ele>
        <time>2024-02-23T13:18:47Z</time>
      </trkpt>
      <trkpt lat="43.78742" lon="3.80708">
        <ele>238</ele>
        <time>2024-02-23T13:18:48Z</time>
      </trkpt>
      <trkpt lat="43.78743" lon="3.80706">
        <ele>238.2</ele>
        <time>2024-02-23T13:18:49Z</time>
      </trkpt>
      <trkpt lat="43.78745" lon="3.80703">
        <ele>238.2</ele>
        <time>2024-02-23T13:18:50Z</time>
      </trkpt>
      <trkpt lat="43.78747" lon="3.807">
        <ele>238</ele>
        <time>2024-02-23T13:18:51Z</time>
      </trkpt>
      <trkpt lat="43.7875" lon="3.80697">
        <ele>238</ele>
        <time>2024-02-23T13:18:52Z</time>
      </trkpt>
      <trkpt lat="43.78751" lon="3.80693">
        <ele>237.8</ele>
        <time>2024-02-23T13:18:53Z</time>
      </trkpt>
      <trkpt lat="43.78753" lon="3.80689">
        <ele>237.6</ele>
        <time>2024-02-23T13:18:54Z</time>
      </trkpt>
      <trkpt lat="43.78755" lon="3.80687">
        <ele>237.4</ele>
        <time>2024-02-23T13:18:55Z</time>
      </trkpt>
      <trkpt lat="43.78758" lon="3.80684">
        <ele>237.4</ele>
        <time>2024-02-23T13:18:56Z</time>
      </trkpt>
      <trkpt lat="43.78759" lon="3.80682">
        <ele>237.2</ele>
        <time>2024-02-23T13:18:57Z</time>
      </trkpt>
      <trkpt lat="43.78761" lon="3.80678">
        <ele>237.4</ele>
        <time>2024-02-23T13:18:58Z</time>
      </trkpt>
      <trkpt lat="43.78763" lon="3.80675">
        <ele>237.4</ele>
        <time>2024-02-23T13:18:59Z</time>
      </trkpt>
      <trkpt lat="43.78765" lon="3.80673">
        <ele>237.4</ele>
        <time>2024-02-23T13:19:00Z</time>
      </trkpt>
      <trkpt lat="43.78767" lon="3.80672">
        <ele>237.4</ele>
        <time>2024-02-23T13:19:01Z</time>
      </trkpt>
      <trkpt lat="43.7877" lon="3.8067">
        <ele>237.4</ele>
        <time>2024-02-23T13:19:02Z</time>
      </trkpt>
      <trkpt lat="43.78773" lon="3.80668">
        <ele>237.4</ele>
        <time>2024-02-23T13:19:03Z</time>
      </trkpt>
      <trkpt lat="43.78774" lon="3.80666">
        <ele>237.4</ele>
        <time>2024-02-23T13:19:04Z</time>
      </trkpt>
      <trkpt lat="43.78777" lon="3.80663">
        <ele>237.6</ele>
        <time>2024-02-23T13:19:05Z</time>
      </trkpt>
      <trkpt lat="43.7878" lon="3.80661">
        <ele>237.8</ele>
        <time>2024-02-23T13:19:06Z</time>
      </trkpt>
      <trkpt lat="43.78781" lon="3.80658">
        <ele>237.6</ele>
        <time>2024-02-23T13:19:07Z</time>
      </trkpt>
      <trkpt lat="43.78784" lon="3.80656">
        <ele>237.6</ele>
        <time>2024-02-23T13:19:08Z</time>
      </trkpt>
      <trkpt lat="43.78785" lon="3.80653">
        <ele>237.4</ele>
        <time>2024-02-23T13:19:09Z</time>
      </trkpt>
      <trkpt lat="43.78787" lon="3.80649">
        <ele>237.4</ele>
        <time>2024-02-23T13:19:10Z</time>
      </trkpt>
      <trkpt lat="43.78789" lon="3.80647">
        <ele>237.4</ele>
        <time>2024-02-23T13:19:11Z</time>
      </trkpt>
      <trkpt lat="43.78791" lon="3.80644">
        <ele>237.4</ele>
        <time>2024-02-23T13:19:12Z</time>
      </trkpt>
      <trkpt lat="43.78792" lon="3.80641">
        <ele>237.4</ele>
        <time>2024-02-23T13:19:13Z</time>
      </trkpt>
      <trkpt lat="43.78793" lon="3.80638">
        <ele>237.4</ele>
        <time>2024-02-23T13:19:14Z</time>
      </trkpt>
      <trkpt lat="43.78794" lon="3.80635">
        <ele>237.4</ele>
        <time>2024-02-23T13:19:15Z</time>
      </trkpt>
      <trkpt lat="43.78796" lon="3.80633">
        <ele>237.2</ele>
        <time>2024-02-23T13:19:16Z</time>
      </trkpt>
      <trkpt lat="43.78799" lon="3.8063">
        <ele>237</ele>
        <time>2024-02-23T13:19:17Z</time>
      </trkpt>
      <trkpt lat="43.788" lon="3.80628">
        <ele>237</ele>
        <time>2024-02-23T13:19:18Z</time>
      </trkpt>
      <trkpt lat="43.788" lon="3.80628">
        <ele>236.8</ele>
        <time>2024-02-23T13:19:19Z</time>
      </trkpt>
      <trkpt lat="43.78803" lon="3.80626">
        <ele>236.8</ele>
        <time>2024-02-23T13:19:20Z</time>
      </trkpt>
    </trkseg>
  </trk>
</gpx>